<?xml version="1.0" encoding="UTF-8" standalone="no" ?>
<gpx xmlns="http://www.topografix.com/GPX/1/1" xmlns:xsi="http://www.w3.org/2001/XMLSchema-instance" xsi:schemaLocation="http://www.topografix.com/GPX/1/1 http://www.topografix.com/GPX/1/1/gpx.xsd" version="1.1" creator="VisuGPX - https://www.visugpx.com">
  <metadata>
    <name>Rando Vergt 2022</name>
  </metadata>
  <trk>
    <name><![CDATA[Téléthon vergt]]></name>
    <extensions>
      <line xmlns="http://www.topografix.com/GPX/gpx_style/0/2">
        <color>0000FF</color>
        <width>4</width>
      </line>
    </extensions>
    <trkseg>
      <trkpt lat="45.02591" lon="0.71467">
        <ele>121.8</ele>
        <time>1970-01-01T00:00:42.000Z</time>
      </trkpt>
      <trkpt lat="45.02592" lon="0.71459">
        <ele>121.8</ele>
        <time>1970-01-01T00:00:43.000Z</time>
      </trkpt>
      <trkpt lat="45.02594" lon="0.71454">
        <ele>121.8</ele>
        <time>1970-01-01T00:00:44.000Z</time>
      </trkpt>
      <trkpt lat="45.02597" lon="0.71449">
        <ele>121.8</ele>
        <time>1970-01-01T00:00:45.000Z</time>
      </trkpt>
      <trkpt lat="45.02601" lon="0.71446">
        <ele>121.8</ele>
        <time>1970-01-01T00:00:46.000Z</time>
      </trkpt>
      <trkpt lat="45.02604" lon="0.71444">
        <ele>121.8</ele>
        <time>1970-01-01T00:00:47.000Z</time>
      </trkpt>
      <trkpt lat="45.02607" lon="0.71442">
        <ele>121.8</ele>
        <time>1970-01-01T00:00:48.000Z</time>
      </trkpt>
      <trkpt lat="45.02609" lon="0.7144">
        <ele>121.8</ele>
        <time>1970-01-01T00:00:49.000Z</time>
      </trkpt>
      <trkpt lat="45.02612" lon="0.71437">
        <ele>122.8</ele>
        <time>1970-01-01T00:00:50.000Z</time>
      </trkpt>
      <trkpt lat="45.02615" lon="0.71435">
        <ele>122.8</ele>
        <time>1970-01-01T00:00:51.000Z</time>
      </trkpt>
      <trkpt lat="45.02616" lon="0.71432">
        <ele>122.8</ele>
        <time>1970-01-01T00:00:52.000Z</time>
      </trkpt>
      <trkpt lat="45.02618" lon="0.71429">
        <ele>122.8</ele>
        <time>1970-01-01T00:00:53.000Z</time>
      </trkpt>
      <trkpt lat="45.02619" lon="0.71426">
        <ele>122.8</ele>
        <time>1970-01-01T00:00:54.000Z</time>
      </trkpt>
      <trkpt lat="45.0262" lon="0.71422">
        <ele>122.8</ele>
        <time>1970-01-01T00:00:55.000Z</time>
      </trkpt>
      <trkpt lat="45.0262" lon="0.71419">
        <ele>126.8</ele>
        <time>1970-01-01T00:00:56.000Z</time>
      </trkpt>
      <trkpt lat="45.02621" lon="0.71415">
        <ele>126.8</ele>
        <time>1970-01-01T00:00:57.000Z</time>
      </trkpt>
      <trkpt lat="45.02621" lon="0.71412">
        <ele>126.8</ele>
        <time>1970-01-01T00:00:58.000Z</time>
      </trkpt>
      <trkpt lat="45.02621" lon="0.71408">
        <ele>126.8</ele>
        <time>1970-01-01T00:00:59.000Z</time>
      </trkpt>
      <trkpt lat="45.0262" lon="0.71405">
        <ele>126.8</ele>
        <time>1970-01-01T00:01:00.000Z</time>
      </trkpt>
      <trkpt lat="45.0262" lon="0.71401">
        <ele>126.8</ele>
        <time>1970-01-01T00:01:01.000Z</time>
      </trkpt>
      <trkpt lat="45.02619" lon="0.71398">
        <ele>126.8</ele>
        <time>1970-01-01T00:01:02.000Z</time>
      </trkpt>
      <trkpt lat="45.02619" lon="0.71394">
        <ele>126.8</ele>
        <time>1970-01-01T00:01:03.000Z</time>
      </trkpt>
      <trkpt lat="45.02618" lon="0.71391">
        <ele>126.8</ele>
        <time>1970-01-01T00:01:04.000Z</time>
      </trkpt>
      <trkpt lat="45.02617" lon="0.71387">
        <ele>126.8</ele>
        <time>1970-01-01T00:01:05.000Z</time>
      </trkpt>
      <trkpt lat="45.02616" lon="0.71384">
        <ele>130.8</ele>
        <time>1970-01-01T00:01:06.000Z</time>
      </trkpt>
      <trkpt lat="45.02616" lon="0.71381">
        <ele>130.8</ele>
        <time>1970-01-01T00:01:07.000Z</time>
      </trkpt>
      <trkpt lat="45.02615" lon="0.71378">
        <ele>131.8</ele>
        <time>1970-01-01T00:01:08.000Z</time>
      </trkpt>
      <trkpt lat="45.02615" lon="0.71374">
        <ele>131.8</ele>
        <time>1970-01-01T00:01:09.000Z</time>
      </trkpt>
      <trkpt lat="45.02614" lon="0.71371">
        <ele>131.8</ele>
        <time>1970-01-01T00:01:10.000Z</time>
      </trkpt>
      <trkpt lat="45.02614" lon="0.71367">
        <ele>131.8</ele>
        <time>1970-01-01T00:01:11.000Z</time>
      </trkpt>
      <trkpt lat="45.02613" lon="0.71364">
        <ele>131.8</ele>
        <time>1970-01-01T00:01:12.000Z</time>
      </trkpt>
      <trkpt lat="45.02612" lon="0.71361">
        <ele>131.8</ele>
        <time>1970-01-01T00:01:13.000Z</time>
      </trkpt>
      <trkpt lat="45.02612" lon="0.71357">
        <ele>132.9</ele>
        <time>1970-01-01T00:01:14.000Z</time>
      </trkpt>
      <trkpt lat="45.02612" lon="0.71354">
        <ele>132.9</ele>
        <time>1970-01-01T00:01:15.000Z</time>
      </trkpt>
      <trkpt lat="45.02611" lon="0.7135">
        <ele>132.9</ele>
        <time>1970-01-01T00:01:16.000Z</time>
      </trkpt>
      <trkpt lat="45.0261" lon="0.71347">
        <ele>132.9</ele>
        <time>1970-01-01T00:01:17.000Z</time>
      </trkpt>
      <trkpt lat="45.02609" lon="0.71343">
        <ele>133.8</ele>
        <time>1970-01-01T00:01:18.000Z</time>
      </trkpt>
      <trkpt lat="45.02608" lon="0.7134">
        <ele>133.8</ele>
        <time>1970-01-01T00:01:19.000Z</time>
      </trkpt>
      <trkpt lat="45.02608" lon="0.71336">
        <ele>134.9</ele>
        <time>1970-01-01T00:01:20.000Z</time>
      </trkpt>
      <trkpt lat="45.02607" lon="0.71333">
        <ele>134.9</ele>
        <time>1970-01-01T00:01:21.000Z</time>
      </trkpt>
      <trkpt lat="45.02606" lon="0.71328">
        <ele>135.8</ele>
        <time>1970-01-01T00:01:22.000Z</time>
      </trkpt>
      <trkpt lat="45.02605" lon="0.71324">
        <ele>135.8</ele>
        <time>1970-01-01T00:01:23.000Z</time>
      </trkpt>
      <trkpt lat="45.02603" lon="0.71321">
        <ele>136.9</ele>
        <time>1970-01-01T00:01:24.000Z</time>
      </trkpt>
      <trkpt lat="45.02602" lon="0.71316">
        <ele>136.9</ele>
        <time>1970-01-01T00:01:25.000Z</time>
      </trkpt>
      <trkpt lat="45.02601" lon="0.71313">
        <ele>136.9</ele>
        <time>1970-01-01T00:01:26.000Z</time>
      </trkpt>
      <trkpt lat="45.026" lon="0.71309">
        <ele>136.9</ele>
        <time>1970-01-01T00:01:27.000Z</time>
      </trkpt>
      <trkpt lat="45.02599" lon="0.71305">
        <ele>136.9</ele>
        <time>1970-01-01T00:01:28.000Z</time>
      </trkpt>
      <trkpt lat="45.02597" lon="0.71302">
        <ele>136.9</ele>
        <time>1970-01-01T00:01:29.000Z</time>
      </trkpt>
      <trkpt lat="45.02596" lon="0.71298">
        <ele>137.8</ele>
        <time>1970-01-01T00:01:30.000Z</time>
      </trkpt>
      <trkpt lat="45.02595" lon="0.71294">
        <ele>137.8</ele>
        <time>1970-01-01T00:01:31.000Z</time>
      </trkpt>
      <trkpt lat="45.02595" lon="0.7129">
        <ele>137.8</ele>
        <time>1970-01-01T00:01:32.000Z</time>
      </trkpt>
      <trkpt lat="45.02594" lon="0.71286">
        <ele>137.8</ele>
        <time>1970-01-01T00:01:33.000Z</time>
      </trkpt>
      <trkpt lat="45.02593" lon="0.71282">
        <ele>137.8</ele>
        <time>1970-01-01T00:01:34.000Z</time>
      </trkpt>
      <trkpt lat="45.02593" lon="0.71278">
        <ele>137.8</ele>
        <time>1970-01-01T00:01:35.000Z</time>
      </trkpt>
      <trkpt lat="45.02592" lon="0.71275">
        <ele>137.8</ele>
        <time>1970-01-01T00:01:36.000Z</time>
      </trkpt>
      <trkpt lat="45.02592" lon="0.7127">
        <ele>137.8</ele>
        <time>1970-01-01T00:01:37.000Z</time>
      </trkpt>
      <trkpt lat="45.02591" lon="0.71267">
        <ele>138.8</ele>
        <time>1970-01-01T00:01:38.000Z</time>
      </trkpt>
      <trkpt lat="45.02591" lon="0.71264">
        <ele>138.8</ele>
        <time>1970-01-01T00:01:39.000Z</time>
      </trkpt>
      <trkpt lat="45.0259" lon="0.71261">
        <ele>139.9</ele>
        <time>1970-01-01T00:01:40.000Z</time>
      </trkpt>
      <trkpt lat="45.02589" lon="0.71258">
        <ele>139.9</ele>
        <time>1970-01-01T00:01:41.000Z</time>
      </trkpt>
      <trkpt lat="45.02589" lon="0.71254">
        <ele>139.9</ele>
        <time>1970-01-01T00:01:42.000Z</time>
      </trkpt>
      <trkpt lat="45.02588" lon="0.71251">
        <ele>139.9</ele>
        <time>1970-01-01T00:01:43.000Z</time>
      </trkpt>
      <trkpt lat="45.02588" lon="0.71247">
        <ele>141.9</ele>
        <time>1970-01-01T00:01:44.000Z</time>
      </trkpt>
      <trkpt lat="45.02587" lon="0.71244">
        <ele>141.9</ele>
        <time>1970-01-01T00:01:45.000Z</time>
      </trkpt>
      <trkpt lat="45.02587" lon="0.71242">
        <ele>141.9</ele>
        <time>1970-01-01T00:01:46.000Z</time>
      </trkpt>
      <trkpt lat="45.02587" lon="0.71238">
        <ele>141.9</ele>
        <time>1970-01-01T00:01:47.000Z</time>
      </trkpt>
      <trkpt lat="45.02587" lon="0.71235">
        <ele>141.9</ele>
        <time>1970-01-01T00:01:48.000Z</time>
      </trkpt>
      <trkpt lat="45.02587" lon="0.71233">
        <ele>141.9</ele>
        <time>1970-01-01T00:01:49.000Z</time>
      </trkpt>
      <trkpt lat="45.02587" lon="0.7123">
        <ele>141.9</ele>
        <time>1970-01-01T00:01:50.000Z</time>
      </trkpt>
      <trkpt lat="45.02588" lon="0.71228">
        <ele>141.9</ele>
        <time>1970-01-01T00:01:51.000Z</time>
      </trkpt>
      <trkpt lat="45.02588" lon="0.71225">
        <ele>142.8</ele>
        <time>1970-01-01T00:01:52.000Z</time>
      </trkpt>
      <trkpt lat="45.02588" lon="0.71223">
        <ele>142.8</ele>
        <time>1970-01-01T00:01:53.000Z</time>
      </trkpt>
      <trkpt lat="45.02589" lon="0.71221">
        <ele>143.9</ele>
        <time>1970-01-01T00:01:54.000Z</time>
      </trkpt>
      <trkpt lat="45.0259" lon="0.71219">
        <ele>143.9</ele>
        <time>1970-01-01T00:01:55.000Z</time>
      </trkpt>
      <trkpt lat="45.0259" lon="0.71218">
        <ele>143.9</ele>
        <time>1970-01-01T00:01:56.000Z</time>
      </trkpt>
      <trkpt lat="45.02591" lon="0.71216">
        <ele>143.9</ele>
        <time>1970-01-01T00:01:57.000Z</time>
      </trkpt>
      <trkpt lat="45.02592" lon="0.71214">
        <ele>143.9</ele>
        <time>1970-01-01T00:01:58.000Z</time>
      </trkpt>
      <trkpt lat="45.02593" lon="0.71212">
        <ele>143.9</ele>
        <time>1970-01-01T00:01:59.000Z</time>
      </trkpt>
      <trkpt lat="45.02594" lon="0.71209">
        <ele>143.9</ele>
        <time>1970-01-01T00:02:00.000Z</time>
      </trkpt>
      <trkpt lat="45.02594" lon="0.71207">
        <ele>143.9</ele>
        <time>1970-01-01T00:02:01.000Z</time>
      </trkpt>
      <trkpt lat="45.02595" lon="0.71205">
        <ele>145.8</ele>
        <time>1970-01-01T00:02:02.000Z</time>
      </trkpt>
      <trkpt lat="45.02596" lon="0.71203">
        <ele>145.8</ele>
        <time>1970-01-01T00:02:03.000Z</time>
      </trkpt>
      <trkpt lat="45.02597" lon="0.71201">
        <ele>145.8</ele>
        <time>1970-01-01T00:02:04.000Z</time>
      </trkpt>
      <trkpt lat="45.02598" lon="0.71199">
        <ele>145.8</ele>
        <time>1970-01-01T00:02:05.000Z</time>
      </trkpt>
      <trkpt lat="45.02599" lon="0.71197">
        <ele>145.8</ele>
        <time>1970-01-01T00:02:06.000Z</time>
      </trkpt>
      <trkpt lat="45.026" lon="0.71195">
        <ele>145.8</ele>
        <time>1970-01-01T00:02:07.000Z</time>
      </trkpt>
      <trkpt lat="45.02601" lon="0.71194">
        <ele>145.8</ele>
        <time>1970-01-01T00:02:08.000Z</time>
      </trkpt>
      <trkpt lat="45.02603" lon="0.71193">
        <ele>145.8</ele>
        <time>1970-01-01T00:02:09.000Z</time>
      </trkpt>
      <trkpt lat="45.02604" lon="0.71192">
        <ele>148.9</ele>
        <time>1970-01-01T00:02:10.000Z</time>
      </trkpt>
      <trkpt lat="45.02605" lon="0.7119">
        <ele>148.9</ele>
        <time>1970-01-01T00:02:11.000Z</time>
      </trkpt>
      <trkpt lat="45.02606" lon="0.71189">
        <ele>148.9</ele>
        <time>1970-01-01T00:02:12.000Z</time>
      </trkpt>
      <trkpt lat="45.02607" lon="0.71187">
        <ele>148.9</ele>
        <time>1970-01-01T00:02:13.000Z</time>
      </trkpt>
      <trkpt lat="45.02608" lon="0.71186">
        <ele>149.8</ele>
        <time>1970-01-01T00:02:14.000Z</time>
      </trkpt>
      <trkpt lat="45.02609" lon="0.71185">
        <ele>149.8</ele>
        <time>1970-01-01T00:02:15.000Z</time>
      </trkpt>
      <trkpt lat="45.0261" lon="0.71183">
        <ele>149.8</ele>
        <time>1970-01-01T00:02:16.000Z</time>
      </trkpt>
      <trkpt lat="45.02611" lon="0.71182">
        <ele>149.8</ele>
        <time>1970-01-01T00:02:17.000Z</time>
      </trkpt>
      <trkpt lat="45.02612" lon="0.71181">
        <ele>150.9</ele>
        <time>1970-01-01T00:02:18.000Z</time>
      </trkpt>
      <trkpt lat="45.02614" lon="0.7118">
        <ele>150.9</ele>
        <time>1970-01-01T00:02:19.000Z</time>
      </trkpt>
      <trkpt lat="45.02615" lon="0.71179">
        <ele>151.8</ele>
        <time>1970-01-01T00:02:20.000Z</time>
      </trkpt>
      <trkpt lat="45.02616" lon="0.71178">
        <ele>151.8</ele>
        <time>1970-01-01T00:02:21.000Z</time>
      </trkpt>
      <trkpt lat="45.02617" lon="0.71177">
        <ele>151.8</ele>
        <time>1970-01-01T00:02:22.000Z</time>
      </trkpt>
      <trkpt lat="45.02618" lon="0.71176">
        <ele>151.8</ele>
        <time>1970-01-01T00:02:23.000Z</time>
      </trkpt>
      <trkpt lat="45.02619" lon="0.71176">
        <ele>151.8</ele>
        <time>1970-01-01T00:02:24.000Z</time>
      </trkpt>
      <trkpt lat="45.0262" lon="0.71175">
        <ele>151.8</ele>
        <time>1970-01-01T00:02:25.000Z</time>
      </trkpt>
      <trkpt lat="45.02621" lon="0.71174">
        <ele>152.9</ele>
        <time>1970-01-01T00:02:26.000Z</time>
      </trkpt>
      <trkpt lat="45.02622" lon="0.71174">
        <ele>152.9</ele>
        <time>1970-01-01T00:02:27.000Z</time>
      </trkpt>
      <trkpt lat="45.02623" lon="0.71173">
        <ele>152.9</ele>
        <time>1970-01-01T00:02:28.000Z</time>
      </trkpt>
      <trkpt lat="45.02625" lon="0.71172">
        <ele>152.9</ele>
        <time>1970-01-01T00:02:29.000Z</time>
      </trkpt>
      <trkpt lat="45.02626" lon="0.71172">
        <ele>154.8</ele>
        <time>1970-01-01T00:02:30.000Z</time>
      </trkpt>
      <trkpt lat="45.02627" lon="0.71171">
        <ele>154.8</ele>
        <time>1970-01-01T00:02:31.000Z</time>
      </trkpt>
      <trkpt lat="45.02628" lon="0.7117">
        <ele>154.8</ele>
        <time>1970-01-01T00:02:32.000Z</time>
      </trkpt>
      <trkpt lat="45.02629" lon="0.71169">
        <ele>154.8</ele>
        <time>1970-01-01T00:02:33.000Z</time>
      </trkpt>
      <trkpt lat="45.02631" lon="0.71169">
        <ele>155.9</ele>
        <time>1970-01-01T00:02:34.000Z</time>
      </trkpt>
      <trkpt lat="45.02632" lon="0.71168">
        <ele>155.9</ele>
        <time>1970-01-01T00:02:35.000Z</time>
      </trkpt>
      <trkpt lat="45.02633" lon="0.71168">
        <ele>155.9</ele>
        <time>1970-01-01T00:02:36.000Z</time>
      </trkpt>
      <trkpt lat="45.02635" lon="0.71168">
        <ele>155.9</ele>
        <time>1970-01-01T00:02:37.000Z</time>
      </trkpt>
      <trkpt lat="45.02636" lon="0.71167">
        <ele>156.8</ele>
        <time>1970-01-01T00:02:38.000Z</time>
      </trkpt>
      <trkpt lat="45.02637" lon="0.71167">
        <ele>156.8</ele>
        <time>1970-01-01T00:02:39.000Z</time>
      </trkpt>
      <trkpt lat="45.02638" lon="0.71167">
        <ele>156.8</ele>
        <time>1970-01-01T00:02:40.000Z</time>
      </trkpt>
      <trkpt lat="45.02639" lon="0.71167">
        <ele>156.8</ele>
        <time>1970-01-01T00:02:41.000Z</time>
      </trkpt>
      <trkpt lat="45.0264" lon="0.71167">
        <ele>157.9</ele>
        <time>1970-01-01T00:02:42.000Z</time>
      </trkpt>
      <trkpt lat="45.02641" lon="0.71166">
        <ele>157.9</ele>
        <time>1970-01-01T00:02:43.000Z</time>
      </trkpt>
      <trkpt lat="45.02642" lon="0.71166">
        <ele>157.9</ele>
        <time>1970-01-01T00:02:45.000Z</time>
      </trkpt>
      <trkpt lat="45.02644" lon="0.71165">
        <ele>158.8</ele>
        <time>1970-01-01T00:02:46.000Z</time>
      </trkpt>
      <trkpt lat="45.02645" lon="0.71165">
        <ele>158.8</ele>
        <time>1970-01-01T00:02:47.000Z</time>
      </trkpt>
      <trkpt lat="45.02646" lon="0.71165">
        <ele>159.9</ele>
        <time>1970-01-01T00:02:48.000Z</time>
      </trkpt>
      <trkpt lat="45.02647" lon="0.71165">
        <ele>159.9</ele>
        <time>1970-01-01T00:02:49.000Z</time>
      </trkpt>
      <trkpt lat="45.02649" lon="0.71165">
        <ele>160.8</ele>
        <time>1970-01-01T00:02:50.000Z</time>
      </trkpt>
      <trkpt lat="45.0265" lon="0.71165">
        <ele>160.8</ele>
        <time>1970-01-01T00:02:51.000Z</time>
      </trkpt>
      <trkpt lat="45.02651" lon="0.71165">
        <ele>160.8</ele>
        <time>1970-01-01T00:02:52.000Z</time>
      </trkpt>
      <trkpt lat="45.02652" lon="0.71165">
        <ele>160.8</ele>
        <time>1970-01-01T00:02:53.000Z</time>
      </trkpt>
      <trkpt lat="45.02653" lon="0.71164">
        <ele>160.8</ele>
        <time>1970-01-01T00:02:54.000Z</time>
      </trkpt>
      <trkpt lat="45.02655" lon="0.71164">
        <ele>160.8</ele>
        <time>1970-01-01T00:02:55.000Z</time>
      </trkpt>
      <trkpt lat="45.02656" lon="0.71163">
        <ele>160.8</ele>
        <time>1970-01-01T00:02:56.000Z</time>
      </trkpt>
      <trkpt lat="45.02658" lon="0.71163">
        <ele>160.8</ele>
        <time>1970-01-01T00:02:57.000Z</time>
      </trkpt>
      <trkpt lat="45.02659" lon="0.71163">
        <ele>161.9</ele>
        <time>1970-01-01T00:02:58.000Z</time>
      </trkpt>
      <trkpt lat="45.0266" lon="0.71162">
        <ele>161.9</ele>
        <time>1970-01-01T00:02:59.000Z</time>
      </trkpt>
      <trkpt lat="45.02661" lon="0.71162">
        <ele>162.8</ele>
        <time>1970-01-01T00:03:00.000Z</time>
      </trkpt>
      <trkpt lat="45.02662" lon="0.71162">
        <ele>162.8</ele>
        <time>1970-01-01T00:03:01.000Z</time>
      </trkpt>
      <trkpt lat="45.02663" lon="0.71161">
        <ele>162.8</ele>
        <time>1970-01-01T00:03:02.000Z</time>
      </trkpt>
      <trkpt lat="45.02664" lon="0.71162">
        <ele>162.8</ele>
        <time>1970-01-01T00:03:03.000Z</time>
      </trkpt>
      <trkpt lat="45.02665" lon="0.71162">
        <ele>163.8</ele>
        <time>1970-01-01T00:03:04.000Z</time>
      </trkpt>
      <trkpt lat="45.02666" lon="0.71162">
        <ele>163.8</ele>
        <time>1970-01-01T00:03:05.000Z</time>
      </trkpt>
      <trkpt lat="45.02667" lon="0.71161">
        <ele>164.9</ele>
        <time>1970-01-01T00:03:06.000Z</time>
      </trkpt>
      <trkpt lat="45.02668" lon="0.71161">
        <ele>164.9</ele>
        <time>1970-01-01T00:03:07.000Z</time>
      </trkpt>
      <trkpt lat="45.0267" lon="0.7116">
        <ele>165.8</ele>
        <time>1970-01-01T00:03:08.000Z</time>
      </trkpt>
      <trkpt lat="45.02671" lon="0.71159">
        <ele>165.8</ele>
        <time>1970-01-01T00:03:09.000Z</time>
      </trkpt>
      <trkpt lat="45.02672" lon="0.71158">
        <ele>165.8</ele>
        <time>1970-01-01T00:03:10.000Z</time>
      </trkpt>
      <trkpt lat="45.02674" lon="0.71157">
        <ele>165.8</ele>
        <time>1970-01-01T00:03:11.000Z</time>
      </trkpt>
      <trkpt lat="45.02675" lon="0.71156">
        <ele>165.8</ele>
        <time>1970-01-01T00:03:12.000Z</time>
      </trkpt>
      <trkpt lat="45.02676" lon="0.71156">
        <ele>165.8</ele>
        <time>1970-01-01T00:03:13.000Z</time>
      </trkpt>
      <trkpt lat="45.02677" lon="0.71155">
        <ele>166.9</ele>
        <time>1970-01-01T00:03:14.000Z</time>
      </trkpt>
      <trkpt lat="45.02678" lon="0.71154">
        <ele>166.9</ele>
        <time>1970-01-01T00:03:15.000Z</time>
      </trkpt>
      <trkpt lat="45.02679" lon="0.71153">
        <ele>166.9</ele>
        <time>1970-01-01T00:03:16.000Z</time>
      </trkpt>
      <trkpt lat="45.02681" lon="0.71152">
        <ele>166.9</ele>
        <time>1970-01-01T00:03:17.000Z</time>
      </trkpt>
      <trkpt lat="45.02682" lon="0.71151">
        <ele>166.9</ele>
        <time>1970-01-01T00:03:18.000Z</time>
      </trkpt>
      <trkpt lat="45.02683" lon="0.7115">
        <ele>166.9</ele>
        <time>1970-01-01T00:03:19.000Z</time>
      </trkpt>
      <trkpt lat="45.02684" lon="0.71149">
        <ele>166.9</ele>
        <time>1970-01-01T00:03:20.000Z</time>
      </trkpt>
      <trkpt lat="45.02685" lon="0.71148">
        <ele>166.9</ele>
        <time>1970-01-01T00:03:21.000Z</time>
      </trkpt>
      <trkpt lat="45.02686" lon="0.71147">
        <ele>167.8</ele>
        <time>1970-01-01T00:03:22.000Z</time>
      </trkpt>
      <trkpt lat="45.02687" lon="0.71147">
        <ele>167.8</ele>
        <time>1970-01-01T00:03:23.000Z</time>
      </trkpt>
      <trkpt lat="45.02688" lon="0.71145">
        <ele>167.8</ele>
        <time>1970-01-01T00:03:24.000Z</time>
      </trkpt>
      <trkpt lat="45.0269" lon="0.71145">
        <ele>167.8</ele>
        <time>1970-01-01T00:03:25.000Z</time>
      </trkpt>
      <trkpt lat="45.02691" lon="0.71144">
        <ele>168.9</ele>
        <time>1970-01-01T00:03:26.000Z</time>
      </trkpt>
      <trkpt lat="45.02692" lon="0.71144">
        <ele>168.9</ele>
        <time>1970-01-01T00:03:27.000Z</time>
      </trkpt>
      <trkpt lat="45.02693" lon="0.71143">
        <ele>168.9</ele>
        <time>1970-01-01T00:03:28.000Z</time>
      </trkpt>
      <trkpt lat="45.02694" lon="0.71142">
        <ele>168.9</ele>
        <time>1970-01-01T00:03:29.000Z</time>
      </trkpt>
      <trkpt lat="45.02695" lon="0.71141">
        <ele>168.9</ele>
        <time>1970-01-01T00:03:30.000Z</time>
      </trkpt>
      <trkpt lat="45.02696" lon="0.71139">
        <ele>168.9</ele>
        <time>1970-01-01T00:03:31.000Z</time>
      </trkpt>
      <trkpt lat="45.02696" lon="0.71138">
        <ele>169.8</ele>
        <time>1970-01-01T00:03:32.000Z</time>
      </trkpt>
      <trkpt lat="45.02698" lon="0.71137">
        <ele>169.8</ele>
        <time>1970-01-01T00:03:33.000Z</time>
      </trkpt>
      <trkpt lat="45.02699" lon="0.71135">
        <ele>169.8</ele>
        <time>1970-01-01T00:03:34.000Z</time>
      </trkpt>
      <trkpt lat="45.027" lon="0.71134">
        <ele>169.8</ele>
        <time>1970-01-01T00:03:35.000Z</time>
      </trkpt>
      <trkpt lat="45.02701" lon="0.71133">
        <ele>170.8</ele>
        <time>1970-01-01T00:03:36.000Z</time>
      </trkpt>
      <trkpt lat="45.02702" lon="0.71131">
        <ele>170.8</ele>
        <time>1970-01-01T00:03:37.000Z</time>
      </trkpt>
      <trkpt lat="45.02703" lon="0.71129">
        <ele>170.8</ele>
        <time>1970-01-01T00:03:38.000Z</time>
      </trkpt>
      <trkpt lat="45.02704" lon="0.71128">
        <ele>170.8</ele>
        <time>1970-01-01T00:03:39.000Z</time>
      </trkpt>
      <trkpt lat="45.02705" lon="0.71126">
        <ele>170.8</ele>
        <time>1970-01-01T00:03:40.000Z</time>
      </trkpt>
      <trkpt lat="45.02706" lon="0.71124">
        <ele>170.8</ele>
        <time>1970-01-01T00:03:41.000Z</time>
      </trkpt>
      <trkpt lat="45.02706" lon="0.71122">
        <ele>171.9</ele>
        <time>1970-01-01T00:03:42.000Z</time>
      </trkpt>
      <trkpt lat="45.02707" lon="0.71121">
        <ele>171.9</ele>
        <time>1970-01-01T00:03:43.000Z</time>
      </trkpt>
      <trkpt lat="45.02708" lon="0.7112">
        <ele>171.9</ele>
        <time>1970-01-01T00:03:44.000Z</time>
      </trkpt>
      <trkpt lat="45.02709" lon="0.71119">
        <ele>171.9</ele>
        <time>1970-01-01T00:03:45.000Z</time>
      </trkpt>
      <trkpt lat="45.02709" lon="0.71117">
        <ele>171.9</ele>
        <time>1970-01-01T00:03:46.000Z</time>
      </trkpt>
      <trkpt lat="45.0271" lon="0.71115">
        <ele>171.9</ele>
        <time>1970-01-01T00:03:47.000Z</time>
      </trkpt>
      <trkpt lat="45.02711" lon="0.71112">
        <ele>172.8</ele>
        <time>1970-01-01T00:03:48.000Z</time>
      </trkpt>
      <trkpt lat="45.02711" lon="0.71111">
        <ele>172.8</ele>
        <time>1970-01-01T00:03:49.000Z</time>
      </trkpt>
      <trkpt lat="45.02712" lon="0.7111">
        <ele>172.8</ele>
        <time>1970-01-01T00:03:50.000Z</time>
      </trkpt>
      <trkpt lat="45.02713" lon="0.71108">
        <ele>172.8</ele>
        <time>1970-01-01T00:03:51.000Z</time>
      </trkpt>
      <trkpt lat="45.02714" lon="0.71107">
        <ele>172.8</ele>
        <time>1970-01-01T00:03:52.000Z</time>
      </trkpt>
      <trkpt lat="45.02715" lon="0.71105">
        <ele>172.8</ele>
        <time>1970-01-01T00:03:53.000Z</time>
      </trkpt>
      <trkpt lat="45.02716" lon="0.71104">
        <ele>173.9</ele>
        <time>1970-01-01T00:03:54.000Z</time>
      </trkpt>
      <trkpt lat="45.02717" lon="0.71103">
        <ele>173.9</ele>
        <time>1970-01-01T00:03:55.000Z</time>
      </trkpt>
      <trkpt lat="45.02717" lon="0.71101">
        <ele>173.9</ele>
        <time>1970-01-01T00:03:56.000Z</time>
      </trkpt>
      <trkpt lat="45.02718" lon="0.711">
        <ele>173.9</ele>
        <time>1970-01-01T00:03:57.000Z</time>
      </trkpt>
      <trkpt lat="45.02719" lon="0.71098">
        <ele>173.9</ele>
        <time>1970-01-01T00:03:58.000Z</time>
      </trkpt>
      <trkpt lat="45.0272" lon="0.71097">
        <ele>173.9</ele>
        <time>1970-01-01T00:03:59.000Z</time>
      </trkpt>
      <trkpt lat="45.0272" lon="0.71096">
        <ele>173.9</ele>
        <time>1970-01-01T00:04:00.000Z</time>
      </trkpt>
      <trkpt lat="45.02721" lon="0.71095">
        <ele>173.9</ele>
        <time>1970-01-01T00:04:01.000Z</time>
      </trkpt>
      <trkpt lat="45.02722" lon="0.71093">
        <ele>173.9</ele>
        <time>1970-01-01T00:04:02.000Z</time>
      </trkpt>
      <trkpt lat="45.02723" lon="0.71092">
        <ele>173.9</ele>
        <time>1970-01-01T00:04:03.000Z</time>
      </trkpt>
      <trkpt lat="45.02724" lon="0.71091">
        <ele>176.8</ele>
        <time>1970-01-01T00:04:04.000Z</time>
      </trkpt>
      <trkpt lat="45.02724" lon="0.71089">
        <ele>176.8</ele>
        <time>1970-01-01T00:04:05.000Z</time>
      </trkpt>
      <trkpt lat="45.02725" lon="0.71088">
        <ele>177.9</ele>
        <time>1970-01-01T00:04:06.000Z</time>
      </trkpt>
      <trkpt lat="45.02726" lon="0.71086">
        <ele>177.9</ele>
        <time>1970-01-01T00:04:07.000Z</time>
      </trkpt>
      <trkpt lat="45.02727" lon="0.71085">
        <ele>177.9</ele>
        <time>1970-01-01T00:04:08.000Z</time>
      </trkpt>
      <trkpt lat="45.02728" lon="0.71083">
        <ele>177.9</ele>
        <time>1970-01-01T00:04:09.000Z</time>
      </trkpt>
      <trkpt lat="45.02729" lon="0.71082">
        <ele>177.9</ele>
        <time>1970-01-01T00:04:10.000Z</time>
      </trkpt>
      <trkpt lat="45.0273" lon="0.7108">
        <ele>177.9</ele>
        <time>1970-01-01T00:04:11.000Z</time>
      </trkpt>
      <trkpt lat="45.02731" lon="0.71078">
        <ele>178.8</ele>
        <time>1970-01-01T00:04:12.000Z</time>
      </trkpt>
      <trkpt lat="45.02732" lon="0.71077">
        <ele>178.8</ele>
        <time>1970-01-01T00:04:13.000Z</time>
      </trkpt>
      <trkpt lat="45.02733" lon="0.71075">
        <ele>178.8</ele>
        <time>1970-01-01T00:04:14.000Z</time>
      </trkpt>
      <trkpt lat="45.02734" lon="0.71073">
        <ele>178.8</ele>
        <time>1970-01-01T00:04:15.000Z</time>
      </trkpt>
      <trkpt lat="45.02735" lon="0.71072">
        <ele>179.8</ele>
        <time>1970-01-01T00:04:16.000Z</time>
      </trkpt>
      <trkpt lat="45.02736" lon="0.7107">
        <ele>179.8</ele>
        <time>1970-01-01T00:04:17.000Z</time>
      </trkpt>
      <trkpt lat="45.02736" lon="0.71069">
        <ele>179.8</ele>
        <time>1970-01-01T00:04:18.000Z</time>
      </trkpt>
      <trkpt lat="45.02737" lon="0.71067">
        <ele>179.8</ele>
        <time>1970-01-01T00:04:19.000Z</time>
      </trkpt>
      <trkpt lat="45.02738" lon="0.71065">
        <ele>180.9</ele>
        <time>1970-01-01T00:04:20.000Z</time>
      </trkpt>
      <trkpt lat="45.02739" lon="0.71064">
        <ele>180.9</ele>
        <time>1970-01-01T00:04:21.000Z</time>
      </trkpt>
      <trkpt lat="45.0274" lon="0.71062">
        <ele>180.9</ele>
        <time>1970-01-01T00:04:22.000Z</time>
      </trkpt>
      <trkpt lat="45.02741" lon="0.7106">
        <ele>180.9</ele>
        <time>1970-01-01T00:04:23.000Z</time>
      </trkpt>
      <trkpt lat="45.02741" lon="0.71058">
        <ele>181.8</ele>
        <time>1970-01-01T00:04:24.000Z</time>
      </trkpt>
      <trkpt lat="45.02742" lon="0.71056">
        <ele>181.8</ele>
        <time>1970-01-01T00:04:25.000Z</time>
      </trkpt>
      <trkpt lat="45.02742" lon="0.71054">
        <ele>181.8</ele>
        <time>1970-01-01T00:04:26.000Z</time>
      </trkpt>
      <trkpt lat="45.02743" lon="0.71051">
        <ele>181.8</ele>
        <time>1970-01-01T00:04:27.000Z</time>
      </trkpt>
      <trkpt lat="45.02743" lon="0.71049">
        <ele>181.8</ele>
        <time>1970-01-01T00:04:28.000Z</time>
      </trkpt>
      <trkpt lat="45.02744" lon="0.71047">
        <ele>181.8</ele>
        <time>1970-01-01T00:04:29.000Z</time>
      </trkpt>
      <trkpt lat="45.02744" lon="0.71045">
        <ele>181.8</ele>
        <time>1970-01-01T00:04:30.000Z</time>
      </trkpt>
      <trkpt lat="45.02744" lon="0.71043">
        <ele>181.8</ele>
        <time>1970-01-01T00:04:31.000Z</time>
      </trkpt>
      <trkpt lat="45.02745" lon="0.7104">
        <ele>181.8</ele>
        <time>1970-01-01T00:04:32.000Z</time>
      </trkpt>
      <trkpt lat="45.02745" lon="0.71037">
        <ele>181.8</ele>
        <time>1970-01-01T00:04:33.000Z</time>
      </trkpt>
      <trkpt lat="45.02745" lon="0.71034">
        <ele>181.8</ele>
        <time>1970-01-01T00:04:34.000Z</time>
      </trkpt>
      <trkpt lat="45.02746" lon="0.71031">
        <ele>181.8</ele>
        <time>1970-01-01T00:04:35.000Z</time>
      </trkpt>
      <trkpt lat="45.02746" lon="0.71027">
        <ele>181.8</ele>
        <time>1970-01-01T00:04:36.000Z</time>
      </trkpt>
      <trkpt lat="45.02746" lon="0.71024">
        <ele>181.8</ele>
        <time>1970-01-01T00:04:37.000Z</time>
      </trkpt>
      <trkpt lat="45.02747" lon="0.71021">
        <ele>181.8</ele>
        <time>1970-01-01T00:04:38.000Z</time>
      </trkpt>
      <trkpt lat="45.02747" lon="0.71018">
        <ele>181.8</ele>
        <time>1970-01-01T00:04:39.000Z</time>
      </trkpt>
      <trkpt lat="45.02747" lon="0.71015">
        <ele>182.9</ele>
        <time>1970-01-01T00:04:40.000Z</time>
      </trkpt>
      <trkpt lat="45.02748" lon="0.71012">
        <ele>182.9</ele>
        <time>1970-01-01T00:04:41.000Z</time>
      </trkpt>
      <trkpt lat="45.02748" lon="0.71009">
        <ele>182.9</ele>
        <time>1970-01-01T00:04:42.000Z</time>
      </trkpt>
      <trkpt lat="45.02748" lon="0.71005">
        <ele>182.9</ele>
        <time>1970-01-01T00:04:43.000Z</time>
      </trkpt>
      <trkpt lat="45.02749" lon="0.71002">
        <ele>182.9</ele>
        <time>1970-01-01T00:04:44.000Z</time>
      </trkpt>
      <trkpt lat="45.02749" lon="0.70998">
        <ele>182.9</ele>
        <time>1970-01-01T00:04:45.000Z</time>
      </trkpt>
      <trkpt lat="45.02751" lon="0.70995">
        <ele>183.8</ele>
        <time>1970-01-01T00:04:46.000Z</time>
      </trkpt>
      <trkpt lat="45.02751" lon="0.70992">
        <ele>183.8</ele>
        <time>1970-01-01T00:04:47.000Z</time>
      </trkpt>
      <trkpt lat="45.02753" lon="0.70989">
        <ele>183.8</ele>
        <time>1970-01-01T00:04:48.000Z</time>
      </trkpt>
      <trkpt lat="45.02755" lon="0.70986">
        <ele>183.8</ele>
        <time>1970-01-01T00:04:49.000Z</time>
      </trkpt>
      <trkpt lat="45.02756" lon="0.70985">
        <ele>183.8</ele>
        <time>1970-01-01T00:04:50.000Z</time>
      </trkpt>
      <trkpt lat="45.02758" lon="0.70982">
        <ele>183.8</ele>
        <time>1970-01-01T00:04:51.000Z</time>
      </trkpt>
      <trkpt lat="45.0276" lon="0.7098">
        <ele>183.8</ele>
        <time>1970-01-01T00:04:52.000Z</time>
      </trkpt>
      <trkpt lat="45.02762" lon="0.70979">
        <ele>183.8</ele>
        <time>1970-01-01T00:04:53.000Z</time>
      </trkpt>
      <trkpt lat="45.02764" lon="0.70978">
        <ele>184.9</ele>
        <time>1970-01-01T00:04:54.000Z</time>
      </trkpt>
      <trkpt lat="45.02766" lon="0.70977">
        <ele>184.9</ele>
        <time>1970-01-01T00:04:55.000Z</time>
      </trkpt>
      <trkpt lat="45.02768" lon="0.70975">
        <ele>184.9</ele>
        <time>1970-01-01T00:04:56.000Z</time>
      </trkpt>
      <trkpt lat="45.02771" lon="0.70974">
        <ele>184.9</ele>
        <time>1970-01-01T00:04:57.000Z</time>
      </trkpt>
      <trkpt lat="45.02772" lon="0.70973">
        <ele>184.9</ele>
        <time>1970-01-01T00:04:58.000Z</time>
      </trkpt>
      <trkpt lat="45.02774" lon="0.70971">
        <ele>184.9</ele>
        <time>1970-01-01T00:04:59.000Z</time>
      </trkpt>
      <trkpt lat="45.02777" lon="0.7097">
        <ele>184.9</ele>
        <time>1970-01-01T00:05:00.000Z</time>
      </trkpt>
      <trkpt lat="45.02778" lon="0.70969">
        <ele>184.9</ele>
        <time>1970-01-01T00:05:01.000Z</time>
      </trkpt>
      <trkpt lat="45.02781" lon="0.70968">
        <ele>186.8</ele>
        <time>1970-01-01T00:05:02.000Z</time>
      </trkpt>
      <trkpt lat="45.02783" lon="0.70966">
        <ele>186.8</ele>
        <time>1970-01-01T00:05:03.000Z</time>
      </trkpt>
      <trkpt lat="45.02785" lon="0.70965">
        <ele>186.8</ele>
        <time>1970-01-01T00:05:04.000Z</time>
      </trkpt>
      <trkpt lat="45.02787" lon="0.70964">
        <ele>186.8</ele>
        <time>1970-01-01T00:05:05.000Z</time>
      </trkpt>
      <trkpt lat="45.02789" lon="0.70962">
        <ele>186.8</ele>
        <time>1970-01-01T00:05:06.000Z</time>
      </trkpt>
      <trkpt lat="45.02791" lon="0.70961">
        <ele>186.8</ele>
        <time>1970-01-01T00:05:07.000Z</time>
      </trkpt>
      <trkpt lat="45.02793" lon="0.7096">
        <ele>186.8</ele>
        <time>1970-01-01T00:05:08.000Z</time>
      </trkpt>
      <trkpt lat="45.02796" lon="0.70959">
        <ele>186.8</ele>
        <time>1970-01-01T00:05:09.000Z</time>
      </trkpt>
      <trkpt lat="45.02798" lon="0.70958">
        <ele>187.9</ele>
        <time>1970-01-01T00:05:10.000Z</time>
      </trkpt>
      <trkpt lat="45.028" lon="0.70957">
        <ele>187.9</ele>
        <time>1970-01-01T00:05:11.000Z</time>
      </trkpt>
      <trkpt lat="45.02802" lon="0.70955">
        <ele>187.9</ele>
        <time>1970-01-01T00:05:12.000Z</time>
      </trkpt>
      <trkpt lat="45.02805" lon="0.70954">
        <ele>187.9</ele>
        <time>1970-01-01T00:05:13.000Z</time>
      </trkpt>
      <trkpt lat="45.02807" lon="0.70953">
        <ele>187.9</ele>
        <time>1970-01-01T00:05:14.000Z</time>
      </trkpt>
      <trkpt lat="45.02808" lon="0.70952">
        <ele>187.9</ele>
        <time>1970-01-01T00:05:15.000Z</time>
      </trkpt>
      <trkpt lat="45.02811" lon="0.70951">
        <ele>187.9</ele>
        <time>1970-01-01T00:05:16.000Z</time>
      </trkpt>
      <trkpt lat="45.02813" lon="0.70949">
        <ele>187.9</ele>
        <time>1970-01-01T00:05:17.000Z</time>
      </trkpt>
      <trkpt lat="45.02815" lon="0.70947">
        <ele>188.8</ele>
        <time>1970-01-01T00:05:18.000Z</time>
      </trkpt>
      <trkpt lat="45.02817" lon="0.70946">
        <ele>188.8</ele>
        <time>1970-01-01T00:05:19.000Z</time>
      </trkpt>
      <trkpt lat="45.0282" lon="0.70945">
        <ele>188.8</ele>
        <time>1970-01-01T00:05:20.000Z</time>
      </trkpt>
      <trkpt lat="45.02822" lon="0.70943">
        <ele>188.8</ele>
        <time>1970-01-01T00:05:21.000Z</time>
      </trkpt>
      <trkpt lat="45.02825" lon="0.70942">
        <ele>188.8</ele>
        <time>1970-01-01T00:05:22.000Z</time>
      </trkpt>
      <trkpt lat="45.02827" lon="0.7094">
        <ele>188.8</ele>
        <time>1970-01-01T00:05:23.000Z</time>
      </trkpt>
      <trkpt lat="45.0283" lon="0.70938">
        <ele>188.8</ele>
        <time>1970-01-01T00:05:24.000Z</time>
      </trkpt>
      <trkpt lat="45.02832" lon="0.70937">
        <ele>188.8</ele>
        <time>1970-01-01T00:05:25.000Z</time>
      </trkpt>
      <trkpt lat="45.02835" lon="0.70935">
        <ele>189.9</ele>
        <time>1970-01-01T00:05:26.000Z</time>
      </trkpt>
      <trkpt lat="45.02838" lon="0.70934">
        <ele>189.9</ele>
        <time>1970-01-01T00:05:27.000Z</time>
      </trkpt>
      <trkpt lat="45.0284" lon="0.70933">
        <ele>189.9</ele>
        <time>1970-01-01T00:05:28.000Z</time>
      </trkpt>
      <trkpt lat="45.02844" lon="0.70932">
        <ele>189.9</ele>
        <time>1970-01-01T00:05:29.000Z</time>
      </trkpt>
      <trkpt lat="45.02847" lon="0.70931">
        <ele>189.9</ele>
        <time>1970-01-01T00:05:30.000Z</time>
      </trkpt>
      <trkpt lat="45.0285" lon="0.7093">
        <ele>189.9</ele>
        <time>1970-01-01T00:05:31.000Z</time>
      </trkpt>
      <trkpt lat="45.02853" lon="0.70929">
        <ele>189.9</ele>
        <time>1970-01-01T00:05:32.000Z</time>
      </trkpt>
      <trkpt lat="45.02858" lon="0.70928">
        <ele>189.9</ele>
        <time>1970-01-01T00:05:33.000Z</time>
      </trkpt>
      <trkpt lat="45.02861" lon="0.70926">
        <ele>189.9</ele>
        <time>1970-01-01T00:05:34.000Z</time>
      </trkpt>
      <trkpt lat="45.02864" lon="0.70925">
        <ele>189.9</ele>
        <time>1970-01-01T00:05:35.000Z</time>
      </trkpt>
      <trkpt lat="45.02868" lon="0.70924">
        <ele>189.9</ele>
        <time>1970-01-01T00:05:36.000Z</time>
      </trkpt>
      <trkpt lat="45.02873" lon="0.70922">
        <ele>189.9</ele>
        <time>1970-01-01T00:05:37.000Z</time>
      </trkpt>
      <trkpt lat="45.02878" lon="0.7092">
        <ele>189.9</ele>
        <time>1970-01-01T00:05:38.000Z</time>
      </trkpt>
      <trkpt lat="45.02882" lon="0.70919">
        <ele>189.9</ele>
        <time>1970-01-01T00:05:39.000Z</time>
      </trkpt>
      <trkpt lat="45.02887" lon="0.70918">
        <ele>188.8</ele>
        <time>1970-01-01T00:05:40.000Z</time>
      </trkpt>
      <trkpt lat="45.02891" lon="0.70917">
        <ele>188.8</ele>
        <time>1970-01-01T00:05:41.000Z</time>
      </trkpt>
      <trkpt lat="45.02896" lon="0.70915">
        <ele>188.8</ele>
        <time>1970-01-01T00:05:42.000Z</time>
      </trkpt>
      <trkpt lat="45.02902" lon="0.70913">
        <ele>188.8</ele>
        <time>1970-01-01T00:05:43.000Z</time>
      </trkpt>
      <trkpt lat="45.02906" lon="0.70912">
        <ele>188.8</ele>
        <time>1970-01-01T00:05:44.000Z</time>
      </trkpt>
      <trkpt lat="45.02912" lon="0.70911">
        <ele>188.8</ele>
        <time>1970-01-01T00:05:45.000Z</time>
      </trkpt>
      <trkpt lat="45.02918" lon="0.70909">
        <ele>188.8</ele>
        <time>1970-01-01T00:05:46.000Z</time>
      </trkpt>
      <trkpt lat="45.02923" lon="0.70908">
        <ele>188.8</ele>
        <time>1970-01-01T00:05:47.000Z</time>
      </trkpt>
      <trkpt lat="45.02928" lon="0.70906">
        <ele>187.9</ele>
        <time>1970-01-01T00:05:48.000Z</time>
      </trkpt>
      <trkpt lat="45.02932" lon="0.70905">
        <ele>187.9</ele>
        <time>1970-01-01T00:05:49.000Z</time>
      </trkpt>
      <trkpt lat="45.02936" lon="0.70903">
        <ele>187.9</ele>
        <time>1970-01-01T00:05:50.000Z</time>
      </trkpt>
      <trkpt lat="45.02938" lon="0.70899">
        <ele>187.9</ele>
        <time>1970-01-01T00:05:51.000Z</time>
      </trkpt>
      <trkpt lat="45.0294" lon="0.70896">
        <ele>187.9</ele>
        <time>1970-01-01T00:05:52.000Z</time>
      </trkpt>
      <trkpt lat="45.0294" lon="0.70892">
        <ele>187.9</ele>
        <time>1970-01-01T00:05:53.000Z</time>
      </trkpt>
      <trkpt lat="45.02941" lon="0.70888">
        <ele>185.8</ele>
        <time>1970-01-01T00:05:54.000Z</time>
      </trkpt>
      <trkpt lat="45.02941" lon="0.70884">
        <ele>185.8</ele>
        <time>1970-01-01T00:05:55.000Z</time>
      </trkpt>
      <trkpt lat="45.02942" lon="0.7088">
        <ele>185.8</ele>
        <time>1970-01-01T00:05:56.000Z</time>
      </trkpt>
      <trkpt lat="45.02941" lon="0.70875">
        <ele>185.8</ele>
        <time>1970-01-01T00:05:57.000Z</time>
      </trkpt>
      <trkpt lat="45.02941" lon="0.70872">
        <ele>186.8</ele>
        <time>1970-01-01T00:05:58.000Z</time>
      </trkpt>
      <trkpt lat="45.02941" lon="0.70867">
        <ele>186.8</ele>
        <time>1970-01-01T00:05:59.000Z</time>
      </trkpt>
      <trkpt lat="45.02941" lon="0.70863">
        <ele>186.8</ele>
        <time>1970-01-01T00:06:00.000Z</time>
      </trkpt>
      <trkpt lat="45.02942" lon="0.70859">
        <ele>186.8</ele>
        <time>1970-01-01T00:06:01.000Z</time>
      </trkpt>
      <trkpt lat="45.02942" lon="0.70856">
        <ele>187.9</ele>
        <time>1970-01-01T00:06:02.000Z</time>
      </trkpt>
      <trkpt lat="45.02942" lon="0.70853">
        <ele>187.9</ele>
        <time>1970-01-01T00:06:03.000Z</time>
      </trkpt>
      <trkpt lat="45.02942" lon="0.70848">
        <ele>187.9</ele>
        <time>1970-01-01T00:06:04.000Z</time>
      </trkpt>
      <trkpt lat="45.02942" lon="0.70844">
        <ele>187.9</ele>
        <time>1970-01-01T00:06:05.000Z</time>
      </trkpt>
      <trkpt lat="45.02942" lon="0.7084">
        <ele>188.8</ele>
        <time>1970-01-01T00:06:06.000Z</time>
      </trkpt>
      <trkpt lat="45.02942" lon="0.70836">
        <ele>188.8</ele>
        <time>1970-01-01T00:06:07.000Z</time>
      </trkpt>
      <trkpt lat="45.02942" lon="0.70833">
        <ele>189.9</ele>
        <time>1970-01-01T00:06:08.000Z</time>
      </trkpt>
      <trkpt lat="45.02942" lon="0.70829">
        <ele>189.9</ele>
        <time>1970-01-01T00:06:09.000Z</time>
      </trkpt>
      <trkpt lat="45.02943" lon="0.70826">
        <ele>189.9</ele>
        <time>1970-01-01T00:06:10.000Z</time>
      </trkpt>
      <trkpt lat="45.02943" lon="0.70822">
        <ele>189.9</ele>
        <time>1970-01-01T00:06:11.000Z</time>
      </trkpt>
      <trkpt lat="45.02943" lon="0.70818">
        <ele>190.8</ele>
        <time>1970-01-01T00:06:12.000Z</time>
      </trkpt>
      <trkpt lat="45.02943" lon="0.70815">
        <ele>190.8</ele>
        <time>1970-01-01T00:06:13.000Z</time>
      </trkpt>
      <trkpt lat="45.02943" lon="0.70812">
        <ele>190.8</ele>
        <time>1970-01-01T00:06:14.000Z</time>
      </trkpt>
      <trkpt lat="45.02943" lon="0.70808">
        <ele>190.8</ele>
        <time>1970-01-01T00:06:15.000Z</time>
      </trkpt>
      <trkpt lat="45.02943" lon="0.70806">
        <ele>190.8</ele>
        <time>1970-01-01T00:06:16.000Z</time>
      </trkpt>
      <trkpt lat="45.02943" lon="0.70802">
        <ele>190.8</ele>
        <time>1970-01-01T00:06:17.000Z</time>
      </trkpt>
      <trkpt lat="45.02944" lon="0.70798">
        <ele>191.9</ele>
        <time>1970-01-01T00:06:18.000Z</time>
      </trkpt>
      <trkpt lat="45.02944" lon="0.70795">
        <ele>191.9</ele>
        <time>1970-01-01T00:06:19.000Z</time>
      </trkpt>
      <trkpt lat="45.02944" lon="0.70792">
        <ele>191.9</ele>
        <time>1970-01-01T00:06:20.000Z</time>
      </trkpt>
      <trkpt lat="45.02945" lon="0.70788">
        <ele>191.9</ele>
        <time>1970-01-01T00:06:21.000Z</time>
      </trkpt>
      <trkpt lat="45.02945" lon="0.70785">
        <ele>192.8</ele>
        <time>1970-01-01T00:06:22.000Z</time>
      </trkpt>
      <trkpt lat="45.02946" lon="0.70782">
        <ele>192.8</ele>
        <time>1970-01-01T00:06:23.000Z</time>
      </trkpt>
      <trkpt lat="45.02946" lon="0.70778">
        <ele>193.9</ele>
        <time>1970-01-01T00:06:24.000Z</time>
      </trkpt>
      <trkpt lat="45.02947" lon="0.70776">
        <ele>193.9</ele>
        <time>1970-01-01T00:06:25.000Z</time>
      </trkpt>
      <trkpt lat="45.02947" lon="0.70772">
        <ele>193.9</ele>
        <time>1970-01-01T00:06:26.000Z</time>
      </trkpt>
      <trkpt lat="45.02948" lon="0.70769">
        <ele>193.9</ele>
        <time>1970-01-01T00:06:27.000Z</time>
      </trkpt>
      <trkpt lat="45.02948" lon="0.70766">
        <ele>194.8</ele>
        <time>1970-01-01T00:06:28.000Z</time>
      </trkpt>
      <trkpt lat="45.02948" lon="0.70763">
        <ele>194.8</ele>
        <time>1970-01-01T00:06:29.000Z</time>
      </trkpt>
      <trkpt lat="45.02949" lon="0.70759">
        <ele>194.8</ele>
        <time>1970-01-01T00:06:30.000Z</time>
      </trkpt>
      <trkpt lat="45.02949" lon="0.70756">
        <ele>194.8</ele>
        <time>1970-01-01T00:06:31.000Z</time>
      </trkpt>
      <trkpt lat="45.0295" lon="0.70752">
        <ele>195.8</ele>
        <time>1970-01-01T00:06:32.000Z</time>
      </trkpt>
      <trkpt lat="45.0295" lon="0.70749">
        <ele>195.8</ele>
        <time>1970-01-01T00:06:33.000Z</time>
      </trkpt>
      <trkpt lat="45.02951" lon="0.70746">
        <ele>195.8</ele>
        <time>1970-01-01T00:06:34.000Z</time>
      </trkpt>
      <trkpt lat="45.02951" lon="0.70743">
        <ele>195.8</ele>
        <time>1970-01-01T00:06:35.000Z</time>
      </trkpt>
      <trkpt lat="45.02952" lon="0.7074">
        <ele>195.8</ele>
        <time>1970-01-01T00:06:36.000Z</time>
      </trkpt>
      <trkpt lat="45.02953" lon="0.70736">
        <ele>195.8</ele>
        <time>1970-01-01T00:06:37.000Z</time>
      </trkpt>
      <trkpt lat="45.02953" lon="0.70733">
        <ele>195.8</ele>
        <time>1970-01-01T00:06:38.000Z</time>
      </trkpt>
      <trkpt lat="45.02954" lon="0.7073">
        <ele>195.8</ele>
        <time>1970-01-01T00:06:39.000Z</time>
      </trkpt>
      <trkpt lat="45.02954" lon="0.70727">
        <ele>197.8</ele>
        <time>1970-01-01T00:06:40.000Z</time>
      </trkpt>
      <trkpt lat="45.02955" lon="0.70723">
        <ele>197.8</ele>
        <time>1970-01-01T00:06:41.000Z</time>
      </trkpt>
      <trkpt lat="45.02955" lon="0.7072">
        <ele>198.9</ele>
        <time>1970-01-01T00:06:42.000Z</time>
      </trkpt>
      <trkpt lat="45.02955" lon="0.70718">
        <ele>198.9</ele>
        <time>1970-01-01T00:06:43.000Z</time>
      </trkpt>
      <trkpt lat="45.02956" lon="0.70714">
        <ele>199.8</ele>
        <time>1970-01-01T00:06:44.000Z</time>
      </trkpt>
      <trkpt lat="45.02957" lon="0.7071">
        <ele>199.8</ele>
        <time>1970-01-01T00:06:45.000Z</time>
      </trkpt>
      <trkpt lat="45.02957" lon="0.70707">
        <ele>199.8</ele>
        <time>1970-01-01T00:06:46.000Z</time>
      </trkpt>
      <trkpt lat="45.02958" lon="0.70704">
        <ele>199.8</ele>
        <time>1970-01-01T00:06:47.000Z</time>
      </trkpt>
      <trkpt lat="45.02959" lon="0.70701">
        <ele>199.8</ele>
        <time>1970-01-01T00:06:48.000Z</time>
      </trkpt>
      <trkpt lat="45.02959" lon="0.70698">
        <ele>199.8</ele>
        <time>1970-01-01T00:06:49.000Z</time>
      </trkpt>
      <trkpt lat="45.0296" lon="0.70695">
        <ele>200.9</ele>
        <time>1970-01-01T00:06:50.000Z</time>
      </trkpt>
      <trkpt lat="45.0296" lon="0.70692">
        <ele>200.9</ele>
        <time>1970-01-01T00:06:51.000Z</time>
      </trkpt>
      <trkpt lat="45.02961" lon="0.70689">
        <ele>200.9</ele>
        <time>1970-01-01T00:06:52.000Z</time>
      </trkpt>
      <trkpt lat="45.02961" lon="0.70686">
        <ele>200.9</ele>
        <time>1970-01-01T00:06:53.000Z</time>
      </trkpt>
      <trkpt lat="45.02962" lon="0.70683">
        <ele>201.8</ele>
        <time>1970-01-01T00:06:54.000Z</time>
      </trkpt>
      <trkpt lat="45.02963" lon="0.7068">
        <ele>201.8</ele>
        <time>1970-01-01T00:06:55.000Z</time>
      </trkpt>
      <trkpt lat="45.02964" lon="0.70677">
        <ele>201.8</ele>
        <time>1970-01-01T00:06:56.000Z</time>
      </trkpt>
      <trkpt lat="45.02965" lon="0.70674">
        <ele>201.8</ele>
        <time>1970-01-01T00:06:57.000Z</time>
      </trkpt>
      <trkpt lat="45.02965" lon="0.7067">
        <ele>202.8</ele>
        <time>1970-01-01T00:06:58.000Z</time>
      </trkpt>
      <trkpt lat="45.02966" lon="0.70667">
        <ele>202.8</ele>
        <time>1970-01-01T00:06:59.000Z</time>
      </trkpt>
      <trkpt lat="45.02966" lon="0.70664">
        <ele>202.8</ele>
        <time>1970-01-01T00:07:00.000Z</time>
      </trkpt>
      <trkpt lat="45.02967" lon="0.70661">
        <ele>202.8</ele>
        <time>1970-01-01T00:07:01.000Z</time>
      </trkpt>
      <trkpt lat="45.02967" lon="0.70658">
        <ele>203.8</ele>
        <time>1970-01-01T00:07:02.000Z</time>
      </trkpt>
      <trkpt lat="45.02968" lon="0.70654">
        <ele>203.8</ele>
        <time>1970-01-01T00:07:03.000Z</time>
      </trkpt>
      <trkpt lat="45.02969" lon="0.70651">
        <ele>203.8</ele>
        <time>1970-01-01T00:07:04.000Z</time>
      </trkpt>
      <trkpt lat="45.02969" lon="0.70647">
        <ele>203.8</ele>
        <time>1970-01-01T00:07:05.000Z</time>
      </trkpt>
      <trkpt lat="45.0297" lon="0.70644">
        <ele>204.8</ele>
        <time>1970-01-01T00:07:06.000Z</time>
      </trkpt>
      <trkpt lat="45.0297" lon="0.70641">
        <ele>204.8</ele>
        <time>1970-01-01T00:07:07.000Z</time>
      </trkpt>
      <trkpt lat="45.02972" lon="0.70637">
        <ele>204.8</ele>
        <time>1970-01-01T00:07:08.000Z</time>
      </trkpt>
      <trkpt lat="45.02972" lon="0.70633">
        <ele>204.8</ele>
        <time>1970-01-01T00:07:09.000Z</time>
      </trkpt>
      <trkpt lat="45.02973" lon="0.7063">
        <ele>205.9</ele>
        <time>1970-01-01T00:07:10.000Z</time>
      </trkpt>
      <trkpt lat="45.02975" lon="0.70626">
        <ele>205.9</ele>
        <time>1970-01-01T00:07:11.000Z</time>
      </trkpt>
      <trkpt lat="45.02975" lon="0.70622">
        <ele>205.9</ele>
        <time>1970-01-01T00:07:12.000Z</time>
      </trkpt>
      <trkpt lat="45.02976" lon="0.70618">
        <ele>205.9</ele>
        <time>1970-01-01T00:07:13.000Z</time>
      </trkpt>
      <trkpt lat="45.02977" lon="0.70614">
        <ele>205.9</ele>
        <time>1970-01-01T00:07:14.000Z</time>
      </trkpt>
      <trkpt lat="45.02978" lon="0.7061">
        <ele>205.9</ele>
        <time>1970-01-01T00:07:15.000Z</time>
      </trkpt>
      <trkpt lat="45.02979" lon="0.70607">
        <ele>205.9</ele>
        <time>1970-01-01T00:07:16.000Z</time>
      </trkpt>
      <trkpt lat="45.0298" lon="0.70604">
        <ele>205.9</ele>
        <time>1970-01-01T00:07:17.000Z</time>
      </trkpt>
      <trkpt lat="45.02981" lon="0.706">
        <ele>206.8</ele>
        <time>1970-01-01T00:07:18.000Z</time>
      </trkpt>
      <trkpt lat="45.02981" lon="0.70597">
        <ele>206.8</ele>
        <time>1970-01-01T00:07:19.000Z</time>
      </trkpt>
      <trkpt lat="45.02982" lon="0.70593">
        <ele>206.8</ele>
        <time>1970-01-01T00:07:20.000Z</time>
      </trkpt>
      <trkpt lat="45.02983" lon="0.70589">
        <ele>206.8</ele>
        <time>1970-01-01T00:07:21.000Z</time>
      </trkpt>
      <trkpt lat="45.02984" lon="0.70585">
        <ele>207.9</ele>
        <time>1970-01-01T00:07:22.000Z</time>
      </trkpt>
      <trkpt lat="45.02985" lon="0.70582">
        <ele>207.9</ele>
        <time>1970-01-01T00:07:23.000Z</time>
      </trkpt>
      <trkpt lat="45.02986" lon="0.70578">
        <ele>207.9</ele>
        <time>1970-01-01T00:07:24.000Z</time>
      </trkpt>
      <trkpt lat="45.02987" lon="0.70575">
        <ele>207.9</ele>
        <time>1970-01-01T00:07:25.000Z</time>
      </trkpt>
      <trkpt lat="45.02988" lon="0.70571">
        <ele>207.9</ele>
        <time>1970-01-01T00:07:26.000Z</time>
      </trkpt>
      <trkpt lat="45.02989" lon="0.70567">
        <ele>207.9</ele>
        <time>1970-01-01T00:07:27.000Z</time>
      </trkpt>
      <trkpt lat="45.0299" lon="0.70563">
        <ele>207.9</ele>
        <time>1970-01-01T00:07:28.000Z</time>
      </trkpt>
      <trkpt lat="45.02991" lon="0.70559">
        <ele>207.9</ele>
        <time>1970-01-01T00:07:29.000Z</time>
      </trkpt>
      <trkpt lat="45.02992" lon="0.70555">
        <ele>207.9</ele>
        <time>1970-01-01T00:07:30.000Z</time>
      </trkpt>
      <trkpt lat="45.02992" lon="0.70551">
        <ele>207.9</ele>
        <time>1970-01-01T00:07:31.000Z</time>
      </trkpt>
      <trkpt lat="45.02993" lon="0.70548">
        <ele>207.9</ele>
        <time>1970-01-01T00:07:32.000Z</time>
      </trkpt>
      <trkpt lat="45.02994" lon="0.70543">
        <ele>207.9</ele>
        <time>1970-01-01T00:07:33.000Z</time>
      </trkpt>
      <trkpt lat="45.02996" lon="0.7054">
        <ele>207.9</ele>
        <time>1970-01-01T00:07:34.000Z</time>
      </trkpt>
      <trkpt lat="45.02997" lon="0.70536">
        <ele>207.9</ele>
        <time>1970-01-01T00:07:35.000Z</time>
      </trkpt>
      <trkpt lat="45.02998" lon="0.70532">
        <ele>207.9</ele>
        <time>1970-01-01T00:07:36.000Z</time>
      </trkpt>
      <trkpt lat="45.02999" lon="0.70528">
        <ele>207.9</ele>
        <time>1970-01-01T00:07:37.000Z</time>
      </trkpt>
      <trkpt lat="45.02999" lon="0.70524">
        <ele>210.8</ele>
        <time>1970-01-01T00:07:38.000Z</time>
      </trkpt>
      <trkpt lat="45.03" lon="0.70521">
        <ele>210.8</ele>
        <time>1970-01-01T00:07:39.000Z</time>
      </trkpt>
      <trkpt lat="45.03001" lon="0.70517">
        <ele>210.8</ele>
        <time>1970-01-01T00:07:40.000Z</time>
      </trkpt>
      <trkpt lat="45.03002" lon="0.70513">
        <ele>210.8</ele>
        <time>1970-01-01T00:07:41.000Z</time>
      </trkpt>
      <trkpt lat="45.03003" lon="0.7051">
        <ele>210.8</ele>
        <time>1970-01-01T00:07:42.000Z</time>
      </trkpt>
      <trkpt lat="45.03004" lon="0.70506">
        <ele>210.8</ele>
        <time>1970-01-01T00:07:43.000Z</time>
      </trkpt>
      <trkpt lat="45.03005" lon="0.70502">
        <ele>210.8</ele>
        <time>1970-01-01T00:07:44.000Z</time>
      </trkpt>
      <trkpt lat="45.03006" lon="0.70498">
        <ele>210.8</ele>
        <time>1970-01-01T00:07:45.000Z</time>
      </trkpt>
      <trkpt lat="45.03007" lon="0.70494">
        <ele>211.8</ele>
        <time>1970-01-01T00:07:46.000Z</time>
      </trkpt>
      <trkpt lat="45.03008" lon="0.7049">
        <ele>211.8</ele>
        <time>1970-01-01T00:07:47.000Z</time>
      </trkpt>
      <trkpt lat="45.03009" lon="0.70487">
        <ele>211.8</ele>
        <time>1970-01-01T00:07:48.000Z</time>
      </trkpt>
      <trkpt lat="45.0301" lon="0.70483">
        <ele>211.8</ele>
        <time>1970-01-01T00:07:49.000Z</time>
      </trkpt>
      <trkpt lat="45.03012" lon="0.7048">
        <ele>211.8</ele>
        <time>1970-01-01T00:07:50.000Z</time>
      </trkpt>
      <trkpt lat="45.03013" lon="0.70476">
        <ele>211.8</ele>
        <time>1970-01-01T00:07:51.000Z</time>
      </trkpt>
      <trkpt lat="45.03014" lon="0.70473">
        <ele>211.8</ele>
        <time>1970-01-01T00:07:52.000Z</time>
      </trkpt>
      <trkpt lat="45.03015" lon="0.7047">
        <ele>211.8</ele>
        <time>1970-01-01T00:07:53.000Z</time>
      </trkpt>
      <trkpt lat="45.03016" lon="0.70466">
        <ele>211.8</ele>
        <time>1970-01-01T00:07:54.000Z</time>
      </trkpt>
      <trkpt lat="45.03018" lon="0.70463">
        <ele>211.8</ele>
        <time>1970-01-01T00:07:55.000Z</time>
      </trkpt>
      <trkpt lat="45.03019" lon="0.7046">
        <ele>213.8</ele>
        <time>1970-01-01T00:07:56.000Z</time>
      </trkpt>
      <trkpt lat="45.0302" lon="0.70457">
        <ele>213.8</ele>
        <time>1970-01-01T00:07:57.000Z</time>
      </trkpt>
      <trkpt lat="45.03021" lon="0.70454">
        <ele>213.8</ele>
        <time>1970-01-01T00:07:58.000Z</time>
      </trkpt>
      <trkpt lat="45.03022" lon="0.70451">
        <ele>213.8</ele>
        <time>1970-01-01T00:07:59.000Z</time>
      </trkpt>
      <trkpt lat="45.03024" lon="0.70449">
        <ele>213.8</ele>
        <time>1970-01-01T00:08:00.000Z</time>
      </trkpt>
      <trkpt lat="45.03025" lon="0.70446">
        <ele>213.8</ele>
        <time>1970-01-01T00:08:01.000Z</time>
      </trkpt>
      <trkpt lat="45.03027" lon="0.70443">
        <ele>215.8</ele>
        <time>1970-01-01T00:08:02.000Z</time>
      </trkpt>
      <trkpt lat="45.03028" lon="0.70441">
        <ele>215.8</ele>
        <time>1970-01-01T00:08:03.000Z</time>
      </trkpt>
      <trkpt lat="45.0303" lon="0.70438">
        <ele>216.9</ele>
        <time>1970-01-01T00:08:04.000Z</time>
      </trkpt>
      <trkpt lat="45.03031" lon="0.70436">
        <ele>216.9</ele>
        <time>1970-01-01T00:08:05.000Z</time>
      </trkpt>
      <trkpt lat="45.03033" lon="0.70433">
        <ele>217.8</ele>
        <time>1970-01-01T00:08:06.000Z</time>
      </trkpt>
      <trkpt lat="45.03035" lon="0.70431">
        <ele>217.8</ele>
        <time>1970-01-01T00:08:07.000Z</time>
      </trkpt>
      <trkpt lat="45.03037" lon="0.70429">
        <ele>217.8</ele>
        <time>1970-01-01T00:08:08.000Z</time>
      </trkpt>
      <trkpt lat="45.03038" lon="0.70427">
        <ele>217.8</ele>
        <time>1970-01-01T00:08:09.000Z</time>
      </trkpt>
      <trkpt lat="45.0304" lon="0.70425">
        <ele>217.8</ele>
        <time>1970-01-01T00:08:10.000Z</time>
      </trkpt>
      <trkpt lat="45.03042" lon="0.70423">
        <ele>217.8</ele>
        <time>1970-01-01T00:08:11.000Z</time>
      </trkpt>
      <trkpt lat="45.03044" lon="0.70421">
        <ele>217.8</ele>
        <time>1970-01-01T00:08:12.000Z</time>
      </trkpt>
      <trkpt lat="45.03047" lon="0.70419">
        <ele>217.8</ele>
        <time>1970-01-01T00:08:13.000Z</time>
      </trkpt>
      <trkpt lat="45.03049" lon="0.70418">
        <ele>217.8</ele>
        <time>1970-01-01T00:08:14.000Z</time>
      </trkpt>
      <trkpt lat="45.03051" lon="0.70416">
        <ele>217.8</ele>
        <time>1970-01-01T00:08:15.000Z</time>
      </trkpt>
      <trkpt lat="45.03053" lon="0.70414">
        <ele>219.8</ele>
        <time>1970-01-01T00:08:16.000Z</time>
      </trkpt>
      <trkpt lat="45.03055" lon="0.70412">
        <ele>219.8</ele>
        <time>1970-01-01T00:08:17.000Z</time>
      </trkpt>
      <trkpt lat="45.03057" lon="0.7041">
        <ele>219.8</ele>
        <time>1970-01-01T00:08:18.000Z</time>
      </trkpt>
      <trkpt lat="45.03059" lon="0.70409">
        <ele>219.8</ele>
        <time>1970-01-01T00:08:19.000Z</time>
      </trkpt>
      <trkpt lat="45.03061" lon="0.70407">
        <ele>220.8</ele>
        <time>1970-01-01T00:08:20.000Z</time>
      </trkpt>
      <trkpt lat="45.03063" lon="0.70405">
        <ele>220.8</ele>
        <time>1970-01-01T00:08:21.000Z</time>
      </trkpt>
      <trkpt lat="45.03065" lon="0.70403">
        <ele>221.9</ele>
        <time>1970-01-01T00:08:22.000Z</time>
      </trkpt>
      <trkpt lat="45.03067" lon="0.70401">
        <ele>221.9</ele>
        <time>1970-01-01T00:08:23.000Z</time>
      </trkpt>
      <trkpt lat="45.03069" lon="0.70399">
        <ele>221.9</ele>
        <time>1970-01-01T00:08:24.000Z</time>
      </trkpt>
      <trkpt lat="45.03071" lon="0.70397">
        <ele>221.9</ele>
        <time>1970-01-01T00:08:25.000Z</time>
      </trkpt>
      <trkpt lat="45.03074" lon="0.70394">
        <ele>221.9</ele>
        <time>1970-01-01T00:08:26.000Z</time>
      </trkpt>
      <trkpt lat="45.03075" lon="0.70392">
        <ele>221.9</ele>
        <time>1970-01-01T00:08:27.000Z</time>
      </trkpt>
      <trkpt lat="45.03077" lon="0.7039">
        <ele>221.9</ele>
        <time>1970-01-01T00:08:28.000Z</time>
      </trkpt>
      <trkpt lat="45.03079" lon="0.70386">
        <ele>221.9</ele>
        <time>1970-01-01T00:08:29.000Z</time>
      </trkpt>
      <trkpt lat="45.0308" lon="0.70383">
        <ele>222.8</ele>
        <time>1970-01-01T00:08:30.000Z</time>
      </trkpt>
      <trkpt lat="45.03081" lon="0.7038">
        <ele>222.8</ele>
        <time>1970-01-01T00:08:31.000Z</time>
      </trkpt>
      <trkpt lat="45.03083" lon="0.70378">
        <ele>222.8</ele>
        <time>1970-01-01T00:08:32.000Z</time>
      </trkpt>
      <trkpt lat="45.03084" lon="0.70375">
        <ele>222.8</ele>
        <time>1970-01-01T00:08:33.000Z</time>
      </trkpt>
      <trkpt lat="45.03085" lon="0.70371">
        <ele>223.9</ele>
        <time>1970-01-01T00:08:34.000Z</time>
      </trkpt>
      <trkpt lat="45.03087" lon="0.70368">
        <ele>223.9</ele>
        <time>1970-01-01T00:08:35.000Z</time>
      </trkpt>
      <trkpt lat="45.03088" lon="0.70365">
        <ele>223.9</ele>
        <time>1970-01-01T00:08:36.000Z</time>
      </trkpt>
      <trkpt lat="45.03089" lon="0.70361">
        <ele>223.9</ele>
        <time>1970-01-01T00:08:37.000Z</time>
      </trkpt>
      <trkpt lat="45.0309" lon="0.70358">
        <ele>223.9</ele>
        <time>1970-01-01T00:08:38.000Z</time>
      </trkpt>
      <trkpt lat="45.03092" lon="0.70354">
        <ele>223.9</ele>
        <time>1970-01-01T00:08:39.000Z</time>
      </trkpt>
      <trkpt lat="45.03093" lon="0.70351">
        <ele>223.9</ele>
        <time>1970-01-01T00:08:40.000Z</time>
      </trkpt>
      <trkpt lat="45.03094" lon="0.70347">
        <ele>223.9</ele>
        <time>1970-01-01T00:08:41.000Z</time>
      </trkpt>
      <trkpt lat="45.03096" lon="0.70344">
        <ele>223.9</ele>
        <time>1970-01-01T00:08:42.000Z</time>
      </trkpt>
      <trkpt lat="45.03097" lon="0.70341">
        <ele>223.9</ele>
        <time>1970-01-01T00:08:43.000Z</time>
      </trkpt>
      <trkpt lat="45.03099" lon="0.70337">
        <ele>223.9</ele>
        <time>1970-01-01T00:08:44.000Z</time>
      </trkpt>
      <trkpt lat="45.031" lon="0.70334">
        <ele>223.9</ele>
        <time>1970-01-01T00:08:45.000Z</time>
      </trkpt>
      <trkpt lat="45.03102" lon="0.70331">
        <ele>224.8</ele>
        <time>1970-01-01T00:08:46.000Z</time>
      </trkpt>
      <trkpt lat="45.03104" lon="0.70328">
        <ele>224.8</ele>
        <time>1970-01-01T00:08:47.000Z</time>
      </trkpt>
      <trkpt lat="45.03107" lon="0.70324">
        <ele>224.8</ele>
        <time>1970-01-01T00:08:48.000Z</time>
      </trkpt>
      <trkpt lat="45.03109" lon="0.70321">
        <ele>224.8</ele>
        <time>1970-01-01T00:08:49.000Z</time>
      </trkpt>
      <trkpt lat="45.03112" lon="0.70317">
        <ele>224.8</ele>
        <time>1970-01-01T00:08:50.000Z</time>
      </trkpt>
      <trkpt lat="45.03115" lon="0.70314">
        <ele>224.8</ele>
        <time>1970-01-01T00:08:51.000Z</time>
      </trkpt>
      <trkpt lat="45.03118" lon="0.70309">
        <ele>224.8</ele>
        <time>1970-01-01T00:08:52.000Z</time>
      </trkpt>
      <trkpt lat="45.03121" lon="0.70305">
        <ele>224.8</ele>
        <time>1970-01-01T00:08:53.000Z</time>
      </trkpt>
      <trkpt lat="45.03123" lon="0.70301">
        <ele>225.9</ele>
        <time>1970-01-01T00:08:54.000Z</time>
      </trkpt>
      <trkpt lat="45.03127" lon="0.70298">
        <ele>225.9</ele>
        <time>1970-01-01T00:08:55.000Z</time>
      </trkpt>
      <trkpt lat="45.0313" lon="0.70294">
        <ele>225.9</ele>
        <time>1970-01-01T00:08:56.000Z</time>
      </trkpt>
      <trkpt lat="45.03133" lon="0.7029">
        <ele>225.9</ele>
        <time>1970-01-01T00:08:57.000Z</time>
      </trkpt>
      <trkpt lat="45.03136" lon="0.70286">
        <ele>225.9</ele>
        <time>1970-01-01T00:08:58.000Z</time>
      </trkpt>
      <trkpt lat="45.0314" lon="0.70283">
        <ele>225.9</ele>
        <time>1970-01-01T00:08:59.000Z</time>
      </trkpt>
      <trkpt lat="45.03142" lon="0.7028">
        <ele>225.9</ele>
        <time>1970-01-01T00:09:00.000Z</time>
      </trkpt>
      <trkpt lat="45.03146" lon="0.70275">
        <ele>225.9</ele>
        <time>1970-01-01T00:09:01.000Z</time>
      </trkpt>
      <trkpt lat="45.0315" lon="0.70271">
        <ele>225.9</ele>
        <time>1970-01-01T00:09:02.000Z</time>
      </trkpt>
      <trkpt lat="45.03154" lon="0.70267">
        <ele>225.9</ele>
        <time>1970-01-01T00:09:03.000Z</time>
      </trkpt>
      <trkpt lat="45.03157" lon="0.70263">
        <ele>225.9</ele>
        <time>1970-01-01T00:09:04.000Z</time>
      </trkpt>
      <trkpt lat="45.03161" lon="0.70258">
        <ele>225.9</ele>
        <time>1970-01-01T00:09:05.000Z</time>
      </trkpt>
      <trkpt lat="45.03164" lon="0.70255">
        <ele>225.9</ele>
        <time>1970-01-01T00:09:06.000Z</time>
      </trkpt>
      <trkpt lat="45.03167" lon="0.70251">
        <ele>225.9</ele>
        <time>1970-01-01T00:09:07.000Z</time>
      </trkpt>
      <trkpt lat="45.03172" lon="0.70247">
        <ele>225.9</ele>
        <time>1970-01-01T00:09:08.000Z</time>
      </trkpt>
      <trkpt lat="45.03175" lon="0.70243">
        <ele>225.9</ele>
        <time>1970-01-01T00:09:09.000Z</time>
      </trkpt>
      <trkpt lat="45.0318" lon="0.70239">
        <ele>225.9</ele>
        <time>1970-01-01T00:09:10.000Z</time>
      </trkpt>
      <trkpt lat="45.03184" lon="0.70235">
        <ele>225.9</ele>
        <time>1970-01-01T00:09:11.000Z</time>
      </trkpt>
      <trkpt lat="45.03188" lon="0.70231">
        <ele>225.9</ele>
        <time>1970-01-01T00:09:12.000Z</time>
      </trkpt>
      <trkpt lat="45.03193" lon="0.70227">
        <ele>225.9</ele>
        <time>1970-01-01T00:09:13.000Z</time>
      </trkpt>
      <trkpt lat="45.03196" lon="0.70224">
        <ele>225.9</ele>
        <time>1970-01-01T00:09:14.000Z</time>
      </trkpt>
      <trkpt lat="45.03201" lon="0.70219">
        <ele>225.9</ele>
        <time>1970-01-01T00:09:15.000Z</time>
      </trkpt>
      <trkpt lat="45.03206" lon="0.70216">
        <ele>225.9</ele>
        <time>1970-01-01T00:09:16.000Z</time>
      </trkpt>
      <trkpt lat="45.03211" lon="0.70213">
        <ele>225.9</ele>
        <time>1970-01-01T00:09:17.000Z</time>
      </trkpt>
      <trkpt lat="45.03217" lon="0.70209">
        <ele>225.9</ele>
        <time>1970-01-01T00:09:18.000Z</time>
      </trkpt>
      <trkpt lat="45.03222" lon="0.70207">
        <ele>225.9</ele>
        <time>1970-01-01T00:09:19.000Z</time>
      </trkpt>
      <trkpt lat="45.03228" lon="0.70204">
        <ele>225.9</ele>
        <time>1970-01-01T00:09:20.000Z</time>
      </trkpt>
      <trkpt lat="45.03234" lon="0.70202">
        <ele>225.9</ele>
        <time>1970-01-01T00:09:21.000Z</time>
      </trkpt>
      <trkpt lat="45.03241" lon="0.70201">
        <ele>225.9</ele>
        <time>1970-01-01T00:09:22.000Z</time>
      </trkpt>
      <trkpt lat="45.03247" lon="0.70199">
        <ele>225.9</ele>
        <time>1970-01-01T00:09:23.000Z</time>
      </trkpt>
      <trkpt lat="45.03254" lon="0.70199">
        <ele>224.8</ele>
        <time>1970-01-01T00:09:24.000Z</time>
      </trkpt>
      <trkpt lat="45.0326" lon="0.70199">
        <ele>224.8</ele>
        <time>1970-01-01T00:09:25.000Z</time>
      </trkpt>
      <trkpt lat="45.03265" lon="0.70199">
        <ele>224.8</ele>
        <time>1970-01-01T00:09:26.000Z</time>
      </trkpt>
      <trkpt lat="45.03272" lon="0.70198">
        <ele>224.8</ele>
        <time>1970-01-01T00:09:27.000Z</time>
      </trkpt>
      <trkpt lat="45.03278" lon="0.70198">
        <ele>224.8</ele>
        <time>1970-01-01T00:09:28.000Z</time>
      </trkpt>
      <trkpt lat="45.03284" lon="0.70197">
        <ele>224.8</ele>
        <time>1970-01-01T00:09:29.000Z</time>
      </trkpt>
      <trkpt lat="45.03291" lon="0.70196">
        <ele>224.8</ele>
        <time>1970-01-01T00:09:30.000Z</time>
      </trkpt>
      <trkpt lat="45.03296" lon="0.70195">
        <ele>224.8</ele>
        <time>1970-01-01T00:09:31.000Z</time>
      </trkpt>
      <trkpt lat="45.03301" lon="0.70194">
        <ele>224.8</ele>
        <time>1970-01-01T00:09:32.000Z</time>
      </trkpt>
      <trkpt lat="45.03306" lon="0.70193">
        <ele>224.8</ele>
        <time>1970-01-01T00:09:33.000Z</time>
      </trkpt>
      <trkpt lat="45.03313" lon="0.70191">
        <ele>224.8</ele>
        <time>1970-01-01T00:09:34.000Z</time>
      </trkpt>
      <trkpt lat="45.03318" lon="0.7019">
        <ele>224.8</ele>
        <time>1970-01-01T00:09:35.000Z</time>
      </trkpt>
      <trkpt lat="45.03323" lon="0.70188">
        <ele>224.8</ele>
        <time>1970-01-01T00:09:36.000Z</time>
      </trkpt>
      <trkpt lat="45.03328" lon="0.70187">
        <ele>224.8</ele>
        <time>1970-01-01T00:09:37.000Z</time>
      </trkpt>
      <trkpt lat="45.03334" lon="0.70184">
        <ele>224.8</ele>
        <time>1970-01-01T00:09:38.000Z</time>
      </trkpt>
      <trkpt lat="45.0334" lon="0.70182">
        <ele>224.8</ele>
        <time>1970-01-01T00:09:39.000Z</time>
      </trkpt>
      <trkpt lat="45.03345" lon="0.70179">
        <ele>224.8</ele>
        <time>1970-01-01T00:09:40.000Z</time>
      </trkpt>
      <trkpt lat="45.0335" lon="0.70176">
        <ele>224.8</ele>
        <time>1970-01-01T00:09:41.000Z</time>
      </trkpt>
      <trkpt lat="45.03354" lon="0.70174">
        <ele>224.8</ele>
        <time>1970-01-01T00:09:42.000Z</time>
      </trkpt>
      <trkpt lat="45.03361" lon="0.70169">
        <ele>224.8</ele>
        <time>1970-01-01T00:09:43.000Z</time>
      </trkpt>
      <trkpt lat="45.03365" lon="0.70166">
        <ele>224.8</ele>
        <time>1970-01-01T00:09:44.000Z</time>
      </trkpt>
      <trkpt lat="45.0337" lon="0.70163">
        <ele>224.8</ele>
        <time>1970-01-01T00:09:45.000Z</time>
      </trkpt>
      <trkpt lat="45.03375" lon="0.70159">
        <ele>224.8</ele>
        <time>1970-01-01T00:09:46.000Z</time>
      </trkpt>
      <trkpt lat="45.03379" lon="0.70154">
        <ele>224.8</ele>
        <time>1970-01-01T00:09:47.000Z</time>
      </trkpt>
      <trkpt lat="45.03381" lon="0.70149">
        <ele>224.8</ele>
        <time>1970-01-01T00:09:48.000Z</time>
      </trkpt>
      <trkpt lat="45.03382" lon="0.70143">
        <ele>224.8</ele>
        <time>1970-01-01T00:09:49.000Z</time>
      </trkpt>
      <trkpt lat="45.03382" lon="0.70136">
        <ele>225.9</ele>
        <time>1970-01-01T00:09:50.000Z</time>
      </trkpt>
      <trkpt lat="45.03382" lon="0.70131">
        <ele>225.9</ele>
        <time>1970-01-01T00:09:51.000Z</time>
      </trkpt>
      <trkpt lat="45.03381" lon="0.70124">
        <ele>225.9</ele>
        <time>1970-01-01T00:09:52.000Z</time>
      </trkpt>
      <trkpt lat="45.03379" lon="0.70117">
        <ele>225.9</ele>
        <time>1970-01-01T00:09:53.000Z</time>
      </trkpt>
      <trkpt lat="45.03378" lon="0.7011">
        <ele>225.9</ele>
        <time>1970-01-01T00:09:54.000Z</time>
      </trkpt>
      <trkpt lat="45.03377" lon="0.70104">
        <ele>225.9</ele>
        <time>1970-01-01T00:09:55.000Z</time>
      </trkpt>
      <trkpt lat="45.03376" lon="0.70097">
        <ele>225.9</ele>
        <time>1970-01-01T00:09:56.000Z</time>
      </trkpt>
      <trkpt lat="45.03375" lon="0.70091">
        <ele>225.9</ele>
        <time>1970-01-01T00:09:57.000Z</time>
      </trkpt>
      <trkpt lat="45.03375" lon="0.70086">
        <ele>225.9</ele>
        <time>1970-01-01T00:09:58.000Z</time>
      </trkpt>
      <trkpt lat="45.03373" lon="0.70078">
        <ele>225.9</ele>
        <time>1970-01-01T00:09:59.000Z</time>
      </trkpt>
      <trkpt lat="45.03372" lon="0.70072">
        <ele>226.8</ele>
        <time>1970-01-01T00:10:00.000Z</time>
      </trkpt>
      <trkpt lat="45.03371" lon="0.70067">
        <ele>226.8</ele>
        <time>1970-01-01T00:10:01.000Z</time>
      </trkpt>
      <trkpt lat="45.0337" lon="0.7006">
        <ele>226.8</ele>
        <time>1970-01-01T00:10:02.000Z</time>
      </trkpt>
      <trkpt lat="45.03368" lon="0.70054">
        <ele>226.8</ele>
        <time>1970-01-01T00:10:03.000Z</time>
      </trkpt>
      <trkpt lat="45.03367" lon="0.70048">
        <ele>227.8</ele>
        <time>1970-01-01T00:10:04.000Z</time>
      </trkpt>
      <trkpt lat="45.03365" lon="0.70042">
        <ele>227.8</ele>
        <time>1970-01-01T00:10:05.000Z</time>
      </trkpt>
      <trkpt lat="45.03363" lon="0.70037">
        <ele>227.8</ele>
        <time>1970-01-01T00:10:06.000Z</time>
      </trkpt>
      <trkpt lat="45.03361" lon="0.70031">
        <ele>227.8</ele>
        <time>1970-01-01T00:10:07.000Z</time>
      </trkpt>
      <trkpt lat="45.03358" lon="0.70026">
        <ele>228.9</ele>
        <time>1970-01-01T00:10:08.000Z</time>
      </trkpt>
      <trkpt lat="45.03356" lon="0.70022">
        <ele>228.9</ele>
        <time>1970-01-01T00:10:09.000Z</time>
      </trkpt>
      <trkpt lat="45.03354" lon="0.70016">
        <ele>228.9</ele>
        <time>1970-01-01T00:10:10.000Z</time>
      </trkpt>
      <trkpt lat="45.0335" lon="0.70011">
        <ele>228.9</ele>
        <time>1970-01-01T00:10:11.000Z</time>
      </trkpt>
      <trkpt lat="45.03348" lon="0.70006">
        <ele>228.9</ele>
        <time>1970-01-01T00:10:12.000Z</time>
      </trkpt>
      <trkpt lat="45.03345" lon="0.70002">
        <ele>228.9</ele>
        <time>1970-01-01T00:10:13.000Z</time>
      </trkpt>
      <trkpt lat="45.03341" lon="0.69998">
        <ele>229.8</ele>
        <time>1970-01-01T00:10:14.000Z</time>
      </trkpt>
      <trkpt lat="45.03338" lon="0.69994">
        <ele>229.8</ele>
        <time>1970-01-01T00:10:15.000Z</time>
      </trkpt>
      <trkpt lat="45.03334" lon="0.69991">
        <ele>230.9</ele>
        <time>1970-01-01T00:10:16.000Z</time>
      </trkpt>
      <trkpt lat="45.0333" lon="0.69988">
        <ele>230.9</ele>
        <time>1970-01-01T00:10:17.000Z</time>
      </trkpt>
      <trkpt lat="45.03327" lon="0.69985">
        <ele>230.9</ele>
        <time>1970-01-01T00:10:18.000Z</time>
      </trkpt>
      <trkpt lat="45.03323" lon="0.69983">
        <ele>230.9</ele>
        <time>1970-01-01T00:10:19.000Z</time>
      </trkpt>
      <trkpt lat="45.03318" lon="0.69979">
        <ele>230.9</ele>
        <time>1970-01-01T00:10:20.000Z</time>
      </trkpt>
      <trkpt lat="45.03314" lon="0.69976">
        <ele>230.9</ele>
        <time>1970-01-01T00:10:21.000Z</time>
      </trkpt>
      <trkpt lat="45.0331" lon="0.69973">
        <ele>230.9</ele>
        <time>1970-01-01T00:10:22.000Z</time>
      </trkpt>
      <trkpt lat="45.03305" lon="0.6997">
        <ele>230.9</ele>
        <time>1970-01-01T00:10:23.000Z</time>
      </trkpt>
      <trkpt lat="45.03301" lon="0.69967">
        <ele>230.9</ele>
        <time>1970-01-01T00:10:24.000Z</time>
      </trkpt>
      <trkpt lat="45.03297" lon="0.69965">
        <ele>230.9</ele>
        <time>1970-01-01T00:10:25.000Z</time>
      </trkpt>
      <trkpt lat="45.03292" lon="0.69962">
        <ele>230.9</ele>
        <time>1970-01-01T00:10:26.000Z</time>
      </trkpt>
      <trkpt lat="45.03288" lon="0.6996">
        <ele>230.9</ele>
        <time>1970-01-01T00:10:27.000Z</time>
      </trkpt>
      <trkpt lat="45.03283" lon="0.69957">
        <ele>230.9</ele>
        <time>1970-01-01T00:10:28.000Z</time>
      </trkpt>
      <trkpt lat="45.03277" lon="0.69952">
        <ele>230.9</ele>
        <time>1970-01-01T00:10:29.000Z</time>
      </trkpt>
      <trkpt lat="45.03272" lon="0.69949">
        <ele>230.9</ele>
        <time>1970-01-01T00:10:30.000Z</time>
      </trkpt>
      <trkpt lat="45.03267" lon="0.69945">
        <ele>230.9</ele>
        <time>1970-01-01T00:10:31.000Z</time>
      </trkpt>
      <trkpt lat="45.03262" lon="0.69941">
        <ele>230.9</ele>
        <time>1970-01-01T00:10:32.000Z</time>
      </trkpt>
      <trkpt lat="45.03257" lon="0.69937">
        <ele>230.9</ele>
        <time>1970-01-01T00:10:33.000Z</time>
      </trkpt>
      <trkpt lat="45.03253" lon="0.69933">
        <ele>230.9</ele>
        <time>1970-01-01T00:10:34.000Z</time>
      </trkpt>
      <trkpt lat="45.03248" lon="0.6993">
        <ele>230.9</ele>
        <time>1970-01-01T00:10:35.000Z</time>
      </trkpt>
      <trkpt lat="45.03244" lon="0.69927">
        <ele>230.9</ele>
        <time>1970-01-01T00:10:36.000Z</time>
      </trkpt>
      <trkpt lat="45.0324" lon="0.69924">
        <ele>230.9</ele>
        <time>1970-01-01T00:10:37.000Z</time>
      </trkpt>
      <trkpt lat="45.03235" lon="0.69921">
        <ele>230.9</ele>
        <time>1970-01-01T00:10:38.000Z</time>
      </trkpt>
      <trkpt lat="45.03231" lon="0.69918">
        <ele>230.9</ele>
        <time>1970-01-01T00:10:39.000Z</time>
      </trkpt>
      <trkpt lat="45.03226" lon="0.69914">
        <ele>231.8</ele>
        <time>1970-01-01T00:10:40.000Z</time>
      </trkpt>
      <trkpt lat="45.03222" lon="0.69911">
        <ele>231.8</ele>
        <time>1970-01-01T00:10:41.000Z</time>
      </trkpt>
      <trkpt lat="45.03218" lon="0.69908">
        <ele>231.8</ele>
        <time>1970-01-01T00:10:42.000Z</time>
      </trkpt>
      <trkpt lat="45.03214" lon="0.69905">
        <ele>231.8</ele>
        <time>1970-01-01T00:10:43.000Z</time>
      </trkpt>
      <trkpt lat="45.0321" lon="0.69902">
        <ele>230.9</ele>
        <time>1970-01-01T00:10:44.000Z</time>
      </trkpt>
      <trkpt lat="45.03207" lon="0.699">
        <ele>230.9</ele>
        <time>1970-01-01T00:10:45.000Z</time>
      </trkpt>
      <trkpt lat="45.03204" lon="0.69898">
        <ele>230.9</ele>
        <time>1970-01-01T00:10:46.000Z</time>
      </trkpt>
      <trkpt lat="45.03199" lon="0.69894">
        <ele>230.9</ele>
        <time>1970-01-01T00:10:47.000Z</time>
      </trkpt>
      <trkpt lat="45.03196" lon="0.69892">
        <ele>231.8</ele>
        <time>1970-01-01T00:10:48.000Z</time>
      </trkpt>
      <trkpt lat="45.03193" lon="0.6989">
        <ele>231.8</ele>
        <time>1970-01-01T00:10:49.000Z</time>
      </trkpt>
      <trkpt lat="45.0319" lon="0.69888">
        <ele>231.8</ele>
        <time>1970-01-01T00:10:50.000Z</time>
      </trkpt>
      <trkpt lat="45.03187" lon="0.69885">
        <ele>231.8</ele>
        <time>1970-01-01T00:10:51.000Z</time>
      </trkpt>
      <trkpt lat="45.03184" lon="0.69882">
        <ele>231.8</ele>
        <time>1970-01-01T00:10:52.000Z</time>
      </trkpt>
      <trkpt lat="45.03181" lon="0.69878">
        <ele>231.8</ele>
        <time>1970-01-01T00:10:53.000Z</time>
      </trkpt>
      <trkpt lat="45.03178" lon="0.69873">
        <ele>231.8</ele>
        <time>1970-01-01T00:10:54.000Z</time>
      </trkpt>
      <trkpt lat="45.03176" lon="0.69867">
        <ele>231.8</ele>
        <time>1970-01-01T00:10:55.000Z</time>
      </trkpt>
      <trkpt lat="45.03174" lon="0.69861">
        <ele>231.8</ele>
        <time>1970-01-01T00:10:56.000Z</time>
      </trkpt>
      <trkpt lat="45.03172" lon="0.69853">
        <ele>231.8</ele>
        <time>1970-01-01T00:10:57.000Z</time>
      </trkpt>
      <trkpt lat="45.03171" lon="0.69846">
        <ele>231.8</ele>
        <time>1970-01-01T00:10:58.000Z</time>
      </trkpt>
      <trkpt lat="45.03171" lon="0.69841">
        <ele>231.8</ele>
        <time>1970-01-01T00:10:59.000Z</time>
      </trkpt>
      <trkpt lat="45.0317" lon="0.69834">
        <ele>231.8</ele>
        <time>1970-01-01T00:11:00.000Z</time>
      </trkpt>
      <trkpt lat="45.0317" lon="0.69827">
        <ele>231.8</ele>
        <time>1970-01-01T00:11:01.000Z</time>
      </trkpt>
      <trkpt lat="45.03169" lon="0.6982">
        <ele>231.8</ele>
        <time>1970-01-01T00:11:02.000Z</time>
      </trkpt>
      <trkpt lat="45.03168" lon="0.69813">
        <ele>231.8</ele>
        <time>1970-01-01T00:11:03.000Z</time>
      </trkpt>
      <trkpt lat="45.03167" lon="0.69806">
        <ele>231.8</ele>
        <time>1970-01-01T00:11:04.000Z</time>
      </trkpt>
      <trkpt lat="45.03166" lon="0.69798">
        <ele>231.8</ele>
        <time>1970-01-01T00:11:05.000Z</time>
      </trkpt>
      <trkpt lat="45.03166" lon="0.69793">
        <ele>232.9</ele>
        <time>1970-01-01T00:11:06.000Z</time>
      </trkpt>
      <trkpt lat="45.03166" lon="0.69785">
        <ele>232.9</ele>
        <time>1970-01-01T00:11:07.000Z</time>
      </trkpt>
      <trkpt lat="45.03166" lon="0.69779">
        <ele>232.9</ele>
        <time>1970-01-01T00:11:08.000Z</time>
      </trkpt>
      <trkpt lat="45.03167" lon="0.69772">
        <ele>232.9</ele>
        <time>1970-01-01T00:11:09.000Z</time>
      </trkpt>
      <trkpt lat="45.03167" lon="0.69764">
        <ele>232.9</ele>
        <time>1970-01-01T00:11:10.000Z</time>
      </trkpt>
      <trkpt lat="45.03168" lon="0.69757">
        <ele>232.9</ele>
        <time>1970-01-01T00:11:11.000Z</time>
      </trkpt>
      <trkpt lat="45.03168" lon="0.69749">
        <ele>232.9</ele>
        <time>1970-01-01T00:11:12.000Z</time>
      </trkpt>
      <trkpt lat="45.03168" lon="0.69742">
        <ele>232.9</ele>
        <time>1970-01-01T00:11:13.000Z</time>
      </trkpt>
      <trkpt lat="45.03167" lon="0.69733">
        <ele>232.9</ele>
        <time>1970-01-01T00:11:14.000Z</time>
      </trkpt>
      <trkpt lat="45.03167" lon="0.69725">
        <ele>232.9</ele>
        <time>1970-01-01T00:11:15.000Z</time>
      </trkpt>
      <trkpt lat="45.03166" lon="0.69717">
        <ele>232.9</ele>
        <time>1970-01-01T00:11:16.000Z</time>
      </trkpt>
      <trkpt lat="45.03166" lon="0.69709">
        <ele>232.9</ele>
        <time>1970-01-01T00:11:17.000Z</time>
      </trkpt>
      <trkpt lat="45.03165" lon="0.69701">
        <ele>232.9</ele>
        <time>1970-01-01T00:11:18.000Z</time>
      </trkpt>
      <trkpt lat="45.03165" lon="0.69693">
        <ele>232.9</ele>
        <time>1970-01-01T00:11:19.000Z</time>
      </trkpt>
      <trkpt lat="45.03165" lon="0.69685">
        <ele>232.9</ele>
        <time>1970-01-01T00:11:20.000Z</time>
      </trkpt>
      <trkpt lat="45.03164" lon="0.69677">
        <ele>232.9</ele>
        <time>1970-01-01T00:11:21.000Z</time>
      </trkpt>
      <trkpt lat="45.03164" lon="0.6967">
        <ele>232.9</ele>
        <time>1970-01-01T00:11:22.000Z</time>
      </trkpt>
      <trkpt lat="45.03164" lon="0.6966">
        <ele>232.9</ele>
        <time>1970-01-01T00:11:23.000Z</time>
      </trkpt>
      <trkpt lat="45.03164" lon="0.69652">
        <ele>232.9</ele>
        <time>1970-01-01T00:11:24.000Z</time>
      </trkpt>
      <trkpt lat="45.03164" lon="0.69643">
        <ele>232.9</ele>
        <time>1970-01-01T00:11:25.000Z</time>
      </trkpt>
      <trkpt lat="45.03163" lon="0.69637">
        <ele>232.9</ele>
        <time>1970-01-01T00:11:26.000Z</time>
      </trkpt>
      <trkpt lat="45.03163" lon="0.69629">
        <ele>232.9</ele>
        <time>1970-01-01T00:11:27.000Z</time>
      </trkpt>
      <trkpt lat="45.03163" lon="0.6962">
        <ele>232.9</ele>
        <time>1970-01-01T00:11:28.000Z</time>
      </trkpt>
      <trkpt lat="45.03163" lon="0.69612">
        <ele>232.9</ele>
        <time>1970-01-01T00:11:29.000Z</time>
      </trkpt>
      <trkpt lat="45.03164" lon="0.69604">
        <ele>232.9</ele>
        <time>1970-01-01T00:11:30.000Z</time>
      </trkpt>
      <trkpt lat="45.03164" lon="0.69594">
        <ele>232.9</ele>
        <time>1970-01-01T00:11:31.000Z</time>
      </trkpt>
      <trkpt lat="45.03165" lon="0.69587">
        <ele>232.9</ele>
        <time>1970-01-01T00:11:32.000Z</time>
      </trkpt>
      <trkpt lat="45.03166" lon="0.69577">
        <ele>232.9</ele>
        <time>1970-01-01T00:11:33.000Z</time>
      </trkpt>
      <trkpt lat="45.03167" lon="0.69569">
        <ele>232.9</ele>
        <time>1970-01-01T00:11:34.000Z</time>
      </trkpt>
      <trkpt lat="45.03167" lon="0.6956">
        <ele>232.9</ele>
        <time>1970-01-01T00:11:35.000Z</time>
      </trkpt>
      <trkpt lat="45.03168" lon="0.69552">
        <ele>231.8</ele>
        <time>1970-01-01T00:11:36.000Z</time>
      </trkpt>
      <trkpt lat="45.03169" lon="0.69543">
        <ele>231.8</ele>
        <time>1970-01-01T00:11:37.000Z</time>
      </trkpt>
      <trkpt lat="45.03169" lon="0.69537">
        <ele>231.8</ele>
        <time>1970-01-01T00:11:38.000Z</time>
      </trkpt>
      <trkpt lat="45.03169" lon="0.69527">
        <ele>231.8</ele>
        <time>1970-01-01T00:11:39.000Z</time>
      </trkpt>
      <trkpt lat="45.0317" lon="0.6952">
        <ele>231.8</ele>
        <time>1970-01-01T00:11:40.000Z</time>
      </trkpt>
      <trkpt lat="45.03171" lon="0.69512">
        <ele>231.8</ele>
        <time>1970-01-01T00:11:41.000Z</time>
      </trkpt>
      <trkpt lat="45.03172" lon="0.69502">
        <ele>231.8</ele>
        <time>1970-01-01T00:11:42.000Z</time>
      </trkpt>
      <trkpt lat="45.03173" lon="0.69494">
        <ele>231.8</ele>
        <time>1970-01-01T00:11:43.000Z</time>
      </trkpt>
      <trkpt lat="45.03173" lon="0.69487">
        <ele>230.9</ele>
        <time>1970-01-01T00:11:44.000Z</time>
      </trkpt>
      <trkpt lat="45.03172" lon="0.6948">
        <ele>230.9</ele>
        <time>1970-01-01T00:11:45.000Z</time>
      </trkpt>
      <trkpt lat="45.0317" lon="0.69474">
        <ele>230.9</ele>
        <time>1970-01-01T00:11:46.000Z</time>
      </trkpt>
      <trkpt lat="45.03166" lon="0.69471">
        <ele>229.8</ele>
        <time>1970-01-01T00:11:47.000Z</time>
      </trkpt>
      <trkpt lat="45.03162" lon="0.6947">
        <ele>229.8</ele>
        <time>1970-01-01T00:11:48.000Z</time>
      </trkpt>
      <trkpt lat="45.03158" lon="0.6947">
        <ele>229.8</ele>
        <time>1970-01-01T00:11:49.000Z</time>
      </trkpt>
      <trkpt lat="45.03154" lon="0.69469">
        <ele>229.8</ele>
        <time>1970-01-01T00:11:50.000Z</time>
      </trkpt>
      <trkpt lat="45.0315" lon="0.69469">
        <ele>230.9</ele>
        <time>1970-01-01T00:11:51.000Z</time>
      </trkpt>
      <trkpt lat="45.03146" lon="0.6947">
        <ele>230.9</ele>
        <time>1970-01-01T00:11:52.000Z</time>
      </trkpt>
      <trkpt lat="45.03141" lon="0.69469">
        <ele>230.9</ele>
        <time>1970-01-01T00:11:53.000Z</time>
      </trkpt>
      <trkpt lat="45.03137" lon="0.69469">
        <ele>230.9</ele>
        <time>1970-01-01T00:11:54.000Z</time>
      </trkpt>
      <trkpt lat="45.03132" lon="0.69468">
        <ele>231.8</ele>
        <time>1970-01-01T00:11:55.000Z</time>
      </trkpt>
      <trkpt lat="45.03127" lon="0.69468">
        <ele>231.8</ele>
        <time>1970-01-01T00:11:56.000Z</time>
      </trkpt>
      <trkpt lat="45.03123" lon="0.69467">
        <ele>231.8</ele>
        <time>1970-01-01T00:11:57.000Z</time>
      </trkpt>
      <trkpt lat="45.03117" lon="0.69467">
        <ele>231.8</ele>
        <time>1970-01-01T00:11:58.000Z</time>
      </trkpt>
      <trkpt lat="45.03112" lon="0.69466">
        <ele>230.9</ele>
        <time>1970-01-01T00:11:59.000Z</time>
      </trkpt>
      <trkpt lat="45.03107" lon="0.69465">
        <ele>230.9</ele>
        <time>1970-01-01T00:12:00.000Z</time>
      </trkpt>
      <trkpt lat="45.03102" lon="0.69464">
        <ele>230.9</ele>
        <time>1970-01-01T00:12:01.000Z</time>
      </trkpt>
      <trkpt lat="45.03096" lon="0.69462">
        <ele>230.9</ele>
        <time>1970-01-01T00:12:02.000Z</time>
      </trkpt>
      <trkpt lat="45.03091" lon="0.6946">
        <ele>229.8</ele>
        <time>1970-01-01T00:12:03.000Z</time>
      </trkpt>
      <trkpt lat="45.03085" lon="0.69459">
        <ele>229.8</ele>
        <time>1970-01-01T00:12:04.000Z</time>
      </trkpt>
      <trkpt lat="45.03079" lon="0.69457">
        <ele>229.8</ele>
        <time>1970-01-01T00:12:05.000Z</time>
      </trkpt>
      <trkpt lat="45.03073" lon="0.69455">
        <ele>229.8</ele>
        <time>1970-01-01T00:12:06.000Z</time>
      </trkpt>
      <trkpt lat="45.03066" lon="0.69452">
        <ele>228.9</ele>
        <time>1970-01-01T00:12:07.000Z</time>
      </trkpt>
      <trkpt lat="45.0306" lon="0.69449">
        <ele>228.9</ele>
        <time>1970-01-01T00:12:08.000Z</time>
      </trkpt>
      <trkpt lat="45.03052" lon="0.69445">
        <ele>227.8</ele>
        <time>1970-01-01T00:12:09.000Z</time>
      </trkpt>
      <trkpt lat="45.03047" lon="0.69441">
        <ele>227.8</ele>
        <time>1970-01-01T00:12:10.000Z</time>
      </trkpt>
      <trkpt lat="45.03039" lon="0.69436">
        <ele>226.8</ele>
        <time>1970-01-01T00:12:11.000Z</time>
      </trkpt>
      <trkpt lat="45.03034" lon="0.69432">
        <ele>226.8</ele>
        <time>1970-01-01T00:12:12.000Z</time>
      </trkpt>
      <trkpt lat="45.03028" lon="0.69427">
        <ele>226.8</ele>
        <time>1970-01-01T00:12:13.000Z</time>
      </trkpt>
      <trkpt lat="45.0302" lon="0.69421">
        <ele>226.8</ele>
        <time>1970-01-01T00:12:14.000Z</time>
      </trkpt>
      <trkpt lat="45.03014" lon="0.69417">
        <ele>226.8</ele>
        <time>1970-01-01T00:12:15.000Z</time>
      </trkpt>
      <trkpt lat="45.03009" lon="0.69413">
        <ele>226.8</ele>
        <time>1970-01-01T00:12:16.000Z</time>
      </trkpt>
      <trkpt lat="45.03003" lon="0.69408">
        <ele>226.8</ele>
        <time>1970-01-01T00:12:17.000Z</time>
      </trkpt>
      <trkpt lat="45.02996" lon="0.69401">
        <ele>226.8</ele>
        <time>1970-01-01T00:12:18.000Z</time>
      </trkpt>
      <trkpt lat="45.02991" lon="0.69397">
        <ele>222.8</ele>
        <time>1970-01-01T00:12:19.000Z</time>
      </trkpt>
      <trkpt lat="45.02984" lon="0.6939">
        <ele>222.8</ele>
        <time>1970-01-01T00:12:20.000Z</time>
      </trkpt>
      <trkpt lat="45.02977" lon="0.69385">
        <ele>221.9</ele>
        <time>1970-01-01T00:12:21.000Z</time>
      </trkpt>
      <trkpt lat="45.02972" lon="0.69382">
        <ele>221.9</ele>
        <time>1970-01-01T00:12:22.000Z</time>
      </trkpt>
      <trkpt lat="45.02965" lon="0.69376">
        <ele>221.9</ele>
        <time>1970-01-01T00:12:23.000Z</time>
      </trkpt>
      <trkpt lat="45.02958" lon="0.69371">
        <ele>221.9</ele>
        <time>1970-01-01T00:12:24.000Z</time>
      </trkpt>
      <trkpt lat="45.02952" lon="0.69366">
        <ele>221.9</ele>
        <time>1970-01-01T00:12:25.000Z</time>
      </trkpt>
      <trkpt lat="45.02947" lon="0.69362">
        <ele>221.9</ele>
        <time>1970-01-01T00:12:26.000Z</time>
      </trkpt>
      <trkpt lat="45.0294" lon="0.69357">
        <ele>216.9</ele>
        <time>1970-01-01T00:12:27.000Z</time>
      </trkpt>
      <trkpt lat="45.02933" lon="0.69352">
        <ele>216.9</ele>
        <time>1970-01-01T00:12:28.000Z</time>
      </trkpt>
      <trkpt lat="45.02926" lon="0.69347">
        <ele>213.8</ele>
        <time>1970-01-01T00:12:29.000Z</time>
      </trkpt>
      <trkpt lat="45.0292" lon="0.69341">
        <ele>213.8</ele>
        <time>1970-01-01T00:12:30.000Z</time>
      </trkpt>
      <trkpt lat="45.02912" lon="0.69334">
        <ele>211.8</ele>
        <time>1970-01-01T00:12:31.000Z</time>
      </trkpt>
      <trkpt lat="45.02907" lon="0.69329">
        <ele>211.8</ele>
        <time>1970-01-01T00:12:32.000Z</time>
      </trkpt>
      <trkpt lat="45.02898" lon="0.69322">
        <ele>209.9</ele>
        <time>1970-01-01T00:12:33.000Z</time>
      </trkpt>
      <trkpt lat="45.02891" lon="0.69315">
        <ele>209.9</ele>
        <time>1970-01-01T00:12:34.000Z</time>
      </trkpt>
      <trkpt lat="45.02886" lon="0.69309">
        <ele>208.8</ele>
        <time>1970-01-01T00:12:35.000Z</time>
      </trkpt>
      <trkpt lat="45.02878" lon="0.693">
        <ele>208.8</ele>
        <time>1970-01-01T00:12:36.000Z</time>
      </trkpt>
      <trkpt lat="45.02872" lon="0.69292">
        <ele>206.8</ele>
        <time>1970-01-01T00:12:37.000Z</time>
      </trkpt>
      <trkpt lat="45.02866" lon="0.69284">
        <ele>206.8</ele>
        <time>1970-01-01T00:12:38.000Z</time>
      </trkpt>
      <trkpt lat="45.0286" lon="0.69278">
        <ele>204.8</ele>
        <time>1970-01-01T00:12:39.000Z</time>
      </trkpt>
      <trkpt lat="45.02856" lon="0.69273">
        <ele>204.8</ele>
        <time>1970-01-01T00:12:40.000Z</time>
      </trkpt>
      <trkpt lat="45.02851" lon="0.69266">
        <ele>204.8</ele>
        <time>1970-01-01T00:12:41.000Z</time>
      </trkpt>
      <trkpt lat="45.02848" lon="0.69262">
        <ele>204.8</ele>
        <time>1970-01-01T00:12:42.000Z</time>
      </trkpt>
      <trkpt lat="45.02846" lon="0.69259">
        <ele>204.8</ele>
        <time>1970-01-01T00:12:43.000Z</time>
      </trkpt>
      <trkpt lat="45.02844" lon="0.69257">
        <ele>204.8</ele>
        <time>1970-01-01T00:12:44.000Z</time>
      </trkpt>
      <trkpt lat="45.02842" lon="0.69255">
        <ele>203.8</ele>
        <time>1970-01-01T00:12:45.000Z</time>
      </trkpt>
      <trkpt lat="45.0284" lon="0.69253">
        <ele>203.8</ele>
        <time>1970-01-01T00:12:46.000Z</time>
      </trkpt>
      <trkpt lat="45.02837" lon="0.69251">
        <ele>203.8</ele>
        <time>1970-01-01T00:12:47.000Z</time>
      </trkpt>
      <trkpt lat="45.02834" lon="0.69249">
        <ele>203.8</ele>
        <time>1970-01-01T00:12:48.000Z</time>
      </trkpt>
      <trkpt lat="45.02831" lon="0.69249">
        <ele>203.8</ele>
        <time>1970-01-01T00:12:49.000Z</time>
      </trkpt>
      <trkpt lat="45.02826" lon="0.69248">
        <ele>203.8</ele>
        <time>1970-01-01T00:12:50.000Z</time>
      </trkpt>
      <trkpt lat="45.02822" lon="0.69247">
        <ele>203.8</ele>
        <time>1970-01-01T00:12:51.000Z</time>
      </trkpt>
      <trkpt lat="45.02819" lon="0.69246">
        <ele>203.8</ele>
        <time>1970-01-01T00:12:52.000Z</time>
      </trkpt>
      <trkpt lat="45.02815" lon="0.69246">
        <ele>204.8</ele>
        <time>1970-01-01T00:12:53.000Z</time>
      </trkpt>
      <trkpt lat="45.02812" lon="0.69245">
        <ele>204.8</ele>
        <time>1970-01-01T00:12:54.000Z</time>
      </trkpt>
      <trkpt lat="45.02808" lon="0.69245">
        <ele>205.9</ele>
        <time>1970-01-01T00:12:55.000Z</time>
      </trkpt>
      <trkpt lat="45.02804" lon="0.69244">
        <ele>205.9</ele>
        <time>1970-01-01T00:12:56.000Z</time>
      </trkpt>
      <trkpt lat="45.02801" lon="0.69244">
        <ele>205.9</ele>
        <time>1970-01-01T00:12:57.000Z</time>
      </trkpt>
      <trkpt lat="45.02797" lon="0.69244">
        <ele>205.9</ele>
        <time>1970-01-01T00:12:58.000Z</time>
      </trkpt>
      <trkpt lat="45.02794" lon="0.69244">
        <ele>205.9</ele>
        <time>1970-01-01T00:12:59.000Z</time>
      </trkpt>
      <trkpt lat="45.0279" lon="0.69244">
        <ele>205.9</ele>
        <time>1970-01-01T00:13:00.000Z</time>
      </trkpt>
      <trkpt lat="45.02787" lon="0.69244">
        <ele>206.8</ele>
        <time>1970-01-01T00:13:01.000Z</time>
      </trkpt>
      <trkpt lat="45.02783" lon="0.69244">
        <ele>206.8</ele>
        <time>1970-01-01T00:13:02.000Z</time>
      </trkpt>
      <trkpt lat="45.0278" lon="0.69244">
        <ele>206.8</ele>
        <time>1970-01-01T00:13:03.000Z</time>
      </trkpt>
      <trkpt lat="45.02776" lon="0.69243">
        <ele>206.8</ele>
        <time>1970-01-01T00:13:04.000Z</time>
      </trkpt>
      <trkpt lat="45.02773" lon="0.69243">
        <ele>206.8</ele>
        <time>1970-01-01T00:13:05.000Z</time>
      </trkpt>
      <trkpt lat="45.02769" lon="0.69243">
        <ele>206.8</ele>
        <time>1970-01-01T00:13:06.000Z</time>
      </trkpt>
      <trkpt lat="45.02766" lon="0.69242">
        <ele>207.9</ele>
        <time>1970-01-01T00:13:07.000Z</time>
      </trkpt>
      <trkpt lat="45.02762" lon="0.69242">
        <ele>207.9</ele>
        <time>1970-01-01T00:13:08.000Z</time>
      </trkpt>
      <trkpt lat="45.02758" lon="0.69241">
        <ele>207.9</ele>
        <time>1970-01-01T00:13:09.000Z</time>
      </trkpt>
      <trkpt lat="45.02755" lon="0.69241">
        <ele>207.9</ele>
        <time>1970-01-01T00:13:10.000Z</time>
      </trkpt>
      <trkpt lat="45.02751" lon="0.69241">
        <ele>209.9</ele>
        <time>1970-01-01T00:13:11.000Z</time>
      </trkpt>
      <trkpt lat="45.02747" lon="0.6924">
        <ele>209.9</ele>
        <time>1970-01-01T00:13:12.000Z</time>
      </trkpt>
      <trkpt lat="45.02744" lon="0.6924">
        <ele>209.9</ele>
        <time>1970-01-01T00:13:13.000Z</time>
      </trkpt>
      <trkpt lat="45.0274" lon="0.69239">
        <ele>209.9</ele>
        <time>1970-01-01T00:13:14.000Z</time>
      </trkpt>
      <trkpt lat="45.02736" lon="0.69239">
        <ele>210.8</ele>
        <time>1970-01-01T00:13:15.000Z</time>
      </trkpt>
      <trkpt lat="45.02732" lon="0.69238">
        <ele>210.8</ele>
        <time>1970-01-01T00:13:16.000Z</time>
      </trkpt>
      <trkpt lat="45.02729" lon="0.69236">
        <ele>210.8</ele>
        <time>1970-01-01T00:13:17.000Z</time>
      </trkpt>
      <trkpt lat="45.02726" lon="0.69233">
        <ele>210.8</ele>
        <time>1970-01-01T00:13:18.000Z</time>
      </trkpt>
      <trkpt lat="45.02723" lon="0.69229">
        <ele>210.8</ele>
        <time>1970-01-01T00:13:19.000Z</time>
      </trkpt>
      <trkpt lat="45.02721" lon="0.69224">
        <ele>210.8</ele>
        <time>1970-01-01T00:13:20.000Z</time>
      </trkpt>
      <trkpt lat="45.0272" lon="0.69219">
        <ele>210.8</ele>
        <time>1970-01-01T00:13:21.000Z</time>
      </trkpt>
      <trkpt lat="45.0272" lon="0.69213">
        <ele>210.8</ele>
        <time>1970-01-01T00:13:22.000Z</time>
      </trkpt>
      <trkpt lat="45.0272" lon="0.69207">
        <ele>210.8</ele>
        <time>1970-01-01T00:13:23.000Z</time>
      </trkpt>
      <trkpt lat="45.02721" lon="0.692">
        <ele>210.8</ele>
        <time>1970-01-01T00:13:24.000Z</time>
      </trkpt>
      <trkpt lat="45.02722" lon="0.69193">
        <ele>210.8</ele>
        <time>1970-01-01T00:13:25.000Z</time>
      </trkpt>
      <trkpt lat="45.02723" lon="0.69186">
        <ele>210.8</ele>
        <time>1970-01-01T00:13:26.000Z</time>
      </trkpt>
      <trkpt lat="45.02724" lon="0.6918">
        <ele>210.8</ele>
        <time>1970-01-01T00:13:27.000Z</time>
      </trkpt>
      <trkpt lat="45.02725" lon="0.69173">
        <ele>210.8</ele>
        <time>1970-01-01T00:13:28.000Z</time>
      </trkpt>
      <trkpt lat="45.02726" lon="0.69166">
        <ele>210.8</ele>
        <time>1970-01-01T00:13:29.000Z</time>
      </trkpt>
      <trkpt lat="45.02728" lon="0.69159">
        <ele>210.8</ele>
        <time>1970-01-01T00:13:30.000Z</time>
      </trkpt>
      <trkpt lat="45.02729" lon="0.69152">
        <ele>210.8</ele>
        <time>1970-01-01T00:13:31.000Z</time>
      </trkpt>
      <trkpt lat="45.02731" lon="0.69145">
        <ele>210.8</ele>
        <time>1970-01-01T00:13:32.000Z</time>
      </trkpt>
      <trkpt lat="45.02732" lon="0.69138">
        <ele>210.8</ele>
        <time>1970-01-01T00:13:33.000Z</time>
      </trkpt>
      <trkpt lat="45.02734" lon="0.69132">
        <ele>210.8</ele>
        <time>1970-01-01T00:13:34.000Z</time>
      </trkpt>
      <trkpt lat="45.02735" lon="0.69125">
        <ele>210.8</ele>
        <time>1970-01-01T00:13:35.000Z</time>
      </trkpt>
      <trkpt lat="45.02737" lon="0.69119">
        <ele>210.8</ele>
        <time>1970-01-01T00:13:36.000Z</time>
      </trkpt>
      <trkpt lat="45.02738" lon="0.69113">
        <ele>211.8</ele>
        <time>1970-01-01T00:13:37.000Z</time>
      </trkpt>
      <trkpt lat="45.02739" lon="0.69106">
        <ele>211.8</ele>
        <time>1970-01-01T00:13:38.000Z</time>
      </trkpt>
      <trkpt lat="45.02741" lon="0.69101">
        <ele>211.8</ele>
        <time>1970-01-01T00:13:39.000Z</time>
      </trkpt>
      <trkpt lat="45.02743" lon="0.69095">
        <ele>211.8</ele>
        <time>1970-01-01T00:13:40.000Z</time>
      </trkpt>
      <trkpt lat="45.02744" lon="0.6909">
        <ele>211.8</ele>
        <time>1970-01-01T00:13:41.000Z</time>
      </trkpt>
      <trkpt lat="45.02745" lon="0.69085">
        <ele>211.8</ele>
        <time>1970-01-01T00:13:42.000Z</time>
      </trkpt>
      <trkpt lat="45.02746" lon="0.69079">
        <ele>211.8</ele>
        <time>1970-01-01T00:13:43.000Z</time>
      </trkpt>
      <trkpt lat="45.02748" lon="0.69074">
        <ele>211.8</ele>
        <time>1970-01-01T00:13:44.000Z</time>
      </trkpt>
      <trkpt lat="45.02749" lon="0.69069">
        <ele>211.8</ele>
        <time>1970-01-01T00:13:45.000Z</time>
      </trkpt>
      <trkpt lat="45.02751" lon="0.69064">
        <ele>211.8</ele>
        <time>1970-01-01T00:13:46.000Z</time>
      </trkpt>
      <trkpt lat="45.02753" lon="0.69059">
        <ele>213.8</ele>
        <time>1970-01-01T00:13:47.000Z</time>
      </trkpt>
      <trkpt lat="45.02755" lon="0.69054">
        <ele>213.8</ele>
        <time>1970-01-01T00:13:48.000Z</time>
      </trkpt>
      <trkpt lat="45.02756" lon="0.69049">
        <ele>213.8</ele>
        <time>1970-01-01T00:13:49.000Z</time>
      </trkpt>
      <trkpt lat="45.02758" lon="0.69044">
        <ele>213.8</ele>
        <time>1970-01-01T00:13:50.000Z</time>
      </trkpt>
      <trkpt lat="45.0276" lon="0.69039">
        <ele>213.8</ele>
        <time>1970-01-01T00:13:51.000Z</time>
      </trkpt>
      <trkpt lat="45.02762" lon="0.69033">
        <ele>213.8</ele>
        <time>1970-01-01T00:13:52.000Z</time>
      </trkpt>
      <trkpt lat="45.02764" lon="0.69029">
        <ele>214.9</ele>
        <time>1970-01-01T00:13:53.000Z</time>
      </trkpt>
      <trkpt lat="45.02766" lon="0.69024">
        <ele>214.9</ele>
        <time>1970-01-01T00:13:54.000Z</time>
      </trkpt>
      <trkpt lat="45.02769" lon="0.69019">
        <ele>214.9</ele>
        <time>1970-01-01T00:13:55.000Z</time>
      </trkpt>
      <trkpt lat="45.02771" lon="0.69014">
        <ele>214.9</ele>
        <time>1970-01-01T00:13:56.000Z</time>
      </trkpt>
      <trkpt lat="45.02773" lon="0.69009">
        <ele>214.9</ele>
        <time>1970-01-01T00:13:57.000Z</time>
      </trkpt>
      <trkpt lat="45.02776" lon="0.69004">
        <ele>214.9</ele>
        <time>1970-01-01T00:13:58.000Z</time>
      </trkpt>
      <trkpt lat="45.02778" lon="0.68999">
        <ele>214.9</ele>
        <time>1970-01-01T00:13:59.000Z</time>
      </trkpt>
      <trkpt lat="45.0278" lon="0.68993">
        <ele>214.9</ele>
        <time>1970-01-01T00:14:00.000Z</time>
      </trkpt>
      <trkpt lat="45.02783" lon="0.68988">
        <ele>214.9</ele>
        <time>1970-01-01T00:14:01.000Z</time>
      </trkpt>
      <trkpt lat="45.02785" lon="0.68983">
        <ele>214.9</ele>
        <time>1970-01-01T00:14:02.000Z</time>
      </trkpt>
      <trkpt lat="45.02787" lon="0.68978">
        <ele>215.8</ele>
        <time>1970-01-01T00:14:03.000Z</time>
      </trkpt>
      <trkpt lat="45.02789" lon="0.68973">
        <ele>215.8</ele>
        <time>1970-01-01T00:14:04.000Z</time>
      </trkpt>
      <trkpt lat="45.02791" lon="0.68967">
        <ele>215.8</ele>
        <time>1970-01-01T00:14:05.000Z</time>
      </trkpt>
      <trkpt lat="45.02793" lon="0.68961">
        <ele>215.8</ele>
        <time>1970-01-01T00:14:06.000Z</time>
      </trkpt>
      <trkpt lat="45.02795" lon="0.68955">
        <ele>215.8</ele>
        <time>1970-01-01T00:14:07.000Z</time>
      </trkpt>
      <trkpt lat="45.02797" lon="0.68949">
        <ele>215.8</ele>
        <time>1970-01-01T00:14:08.000Z</time>
      </trkpt>
      <trkpt lat="45.02799" lon="0.68943">
        <ele>215.8</ele>
        <time>1970-01-01T00:14:09.000Z</time>
      </trkpt>
      <trkpt lat="45.02801" lon="0.68937">
        <ele>215.8</ele>
        <time>1970-01-01T00:14:10.000Z</time>
      </trkpt>
      <trkpt lat="45.02803" lon="0.6893">
        <ele>215.8</ele>
        <time>1970-01-01T00:14:11.000Z</time>
      </trkpt>
      <trkpt lat="45.02805" lon="0.68924">
        <ele>215.8</ele>
        <time>1970-01-01T00:14:12.000Z</time>
      </trkpt>
      <trkpt lat="45.02807" lon="0.68918">
        <ele>215.8</ele>
        <time>1970-01-01T00:14:13.000Z</time>
      </trkpt>
      <trkpt lat="45.02809" lon="0.68911">
        <ele>215.8</ele>
        <time>1970-01-01T00:14:14.000Z</time>
      </trkpt>
      <trkpt lat="45.02811" lon="0.68904">
        <ele>215.8</ele>
        <time>1970-01-01T00:14:15.000Z</time>
      </trkpt>
      <trkpt lat="45.02813" lon="0.68898">
        <ele>215.8</ele>
        <time>1970-01-01T00:14:16.000Z</time>
      </trkpt>
      <trkpt lat="45.02815" lon="0.68891">
        <ele>216.9</ele>
        <time>1970-01-01T00:14:17.000Z</time>
      </trkpt>
      <trkpt lat="45.02817" lon="0.68884">
        <ele>216.9</ele>
        <time>1970-01-01T00:14:18.000Z</time>
      </trkpt>
      <trkpt lat="45.02819" lon="0.68876">
        <ele>215.8</ele>
        <time>1970-01-01T00:14:19.000Z</time>
      </trkpt>
      <trkpt lat="45.02821" lon="0.68869">
        <ele>215.8</ele>
        <time>1970-01-01T00:14:20.000Z</time>
      </trkpt>
      <trkpt lat="45.02823" lon="0.68862">
        <ele>215.8</ele>
        <time>1970-01-01T00:14:21.000Z</time>
      </trkpt>
      <trkpt lat="45.02825" lon="0.68854">
        <ele>215.8</ele>
        <time>1970-01-01T00:14:22.000Z</time>
      </trkpt>
      <trkpt lat="45.02828" lon="0.68846">
        <ele>215.8</ele>
        <time>1970-01-01T00:14:23.000Z</time>
      </trkpt>
      <trkpt lat="45.0283" lon="0.68838">
        <ele>215.8</ele>
        <time>1970-01-01T00:14:24.000Z</time>
      </trkpt>
      <trkpt lat="45.02833" lon="0.6883">
        <ele>214.9</ele>
        <time>1970-01-01T00:14:25.000Z</time>
      </trkpt>
      <trkpt lat="45.02835" lon="0.68822">
        <ele>214.9</ele>
        <time>1970-01-01T00:14:26.000Z</time>
      </trkpt>
      <trkpt lat="45.02837" lon="0.68814">
        <ele>214.9</ele>
        <time>1970-01-01T00:14:27.000Z</time>
      </trkpt>
      <trkpt lat="45.0284" lon="0.68805">
        <ele>214.9</ele>
        <time>1970-01-01T00:14:28.000Z</time>
      </trkpt>
      <trkpt lat="45.02842" lon="0.68796">
        <ele>214.9</ele>
        <time>1970-01-01T00:14:29.000Z</time>
      </trkpt>
      <trkpt lat="45.02844" lon="0.68788">
        <ele>214.9</ele>
        <time>1970-01-01T00:14:30.000Z</time>
      </trkpt>
      <trkpt lat="45.02846" lon="0.68778">
        <ele>214.9</ele>
        <time>1970-01-01T00:14:31.000Z</time>
      </trkpt>
      <trkpt lat="45.02848" lon="0.68769">
        <ele>214.9</ele>
        <time>1970-01-01T00:14:32.000Z</time>
      </trkpt>
      <trkpt lat="45.02849" lon="0.68759">
        <ele>214.9</ele>
        <time>1970-01-01T00:14:33.000Z</time>
      </trkpt>
      <trkpt lat="45.02849" lon="0.6875">
        <ele>214.9</ele>
        <time>1970-01-01T00:14:34.000Z</time>
      </trkpt>
      <trkpt lat="45.0285" lon="0.68741">
        <ele>213.8</ele>
        <time>1970-01-01T00:14:35.000Z</time>
      </trkpt>
      <trkpt lat="45.0285" lon="0.68732">
        <ele>213.8</ele>
        <time>1970-01-01T00:14:36.000Z</time>
      </trkpt>
      <trkpt lat="45.0285" lon="0.68724">
        <ele>213.8</ele>
        <time>1970-01-01T00:14:37.000Z</time>
      </trkpt>
      <trkpt lat="45.02849" lon="0.68716">
        <ele>213.8</ele>
        <time>1970-01-01T00:14:38.000Z</time>
      </trkpt>
      <trkpt lat="45.02849" lon="0.68708">
        <ele>213.8</ele>
        <time>1970-01-01T00:14:39.000Z</time>
      </trkpt>
      <trkpt lat="45.02848" lon="0.687">
        <ele>213.8</ele>
        <time>1970-01-01T00:14:40.000Z</time>
      </trkpt>
      <trkpt lat="45.02846" lon="0.68692">
        <ele>213.8</ele>
        <time>1970-01-01T00:14:41.000Z</time>
      </trkpt>
      <trkpt lat="45.02845" lon="0.68684">
        <ele>213.8</ele>
        <time>1970-01-01T00:14:42.000Z</time>
      </trkpt>
      <trkpt lat="45.02844" lon="0.68677">
        <ele>213.8</ele>
        <time>1970-01-01T00:14:43.000Z</time>
      </trkpt>
      <trkpt lat="45.02842" lon="0.68669">
        <ele>213.8</ele>
        <time>1970-01-01T00:14:44.000Z</time>
      </trkpt>
      <trkpt lat="45.0284" lon="0.68661">
        <ele>213.8</ele>
        <time>1970-01-01T00:14:45.000Z</time>
      </trkpt>
      <trkpt lat="45.02839" lon="0.68653">
        <ele>213.8</ele>
        <time>1970-01-01T00:14:46.000Z</time>
      </trkpt>
      <trkpt lat="45.02839" lon="0.68645">
        <ele>213.8</ele>
        <time>1970-01-01T00:14:47.000Z</time>
      </trkpt>
      <trkpt lat="45.02839" lon="0.68637">
        <ele>213.8</ele>
        <time>1970-01-01T00:14:48.000Z</time>
      </trkpt>
      <trkpt lat="45.02841" lon="0.68629">
        <ele>213.8</ele>
        <time>1970-01-01T00:14:49.000Z</time>
      </trkpt>
      <trkpt lat="45.02844" lon="0.68622">
        <ele>213.8</ele>
        <time>1970-01-01T00:14:50.000Z</time>
      </trkpt>
      <trkpt lat="45.02848" lon="0.68616">
        <ele>213.8</ele>
        <time>1970-01-01T00:14:51.000Z</time>
      </trkpt>
      <trkpt lat="45.02853" lon="0.6861">
        <ele>213.8</ele>
        <time>1970-01-01T00:14:52.000Z</time>
      </trkpt>
      <trkpt lat="45.02857" lon="0.68604">
        <ele>213.8</ele>
        <time>1970-01-01T00:14:53.000Z</time>
      </trkpt>
      <trkpt lat="45.02861" lon="0.68597">
        <ele>213.8</ele>
        <time>1970-01-01T00:14:54.000Z</time>
      </trkpt>
      <trkpt lat="45.02864" lon="0.68589">
        <ele>213.8</ele>
        <time>1970-01-01T00:14:55.000Z</time>
      </trkpt>
      <trkpt lat="45.02866" lon="0.6858">
        <ele>213.8</ele>
        <time>1970-01-01T00:14:56.000Z</time>
      </trkpt>
      <trkpt lat="45.02868" lon="0.68571">
        <ele>210.8</ele>
        <time>1970-01-01T00:14:57.000Z</time>
      </trkpt>
      <trkpt lat="45.0287" lon="0.68562">
        <ele>210.8</ele>
        <time>1970-01-01T00:14:58.000Z</time>
      </trkpt>
      <trkpt lat="45.02871" lon="0.68553">
        <ele>210.8</ele>
        <time>1970-01-01T00:14:59.000Z</time>
      </trkpt>
      <trkpt lat="45.02872" lon="0.68543">
        <ele>210.8</ele>
        <time>1970-01-01T00:15:00.000Z</time>
      </trkpt>
      <trkpt lat="45.02872" lon="0.68533">
        <ele>209.9</ele>
        <time>1970-01-01T00:15:01.000Z</time>
      </trkpt>
      <trkpt lat="45.02872" lon="0.68523">
        <ele>209.9</ele>
        <time>1970-01-01T00:15:02.000Z</time>
      </trkpt>
      <trkpt lat="45.02871" lon="0.68513">
        <ele>209.9</ele>
        <time>1970-01-01T00:15:03.000Z</time>
      </trkpt>
      <trkpt lat="45.02871" lon="0.68502">
        <ele>209.9</ele>
        <time>1970-01-01T00:15:04.000Z</time>
      </trkpt>
      <trkpt lat="45.0287" lon="0.68492">
        <ele>208.8</ele>
        <time>1970-01-01T00:15:05.000Z</time>
      </trkpt>
      <trkpt lat="45.0287" lon="0.68481">
        <ele>208.8</ele>
        <time>1970-01-01T00:15:06.000Z</time>
      </trkpt>
      <trkpt lat="45.0287" lon="0.68471">
        <ele>208.8</ele>
        <time>1970-01-01T00:15:07.000Z</time>
      </trkpt>
      <trkpt lat="45.0287" lon="0.6846">
        <ele>208.8</ele>
        <time>1970-01-01T00:15:08.000Z</time>
      </trkpt>
      <trkpt lat="45.0287" lon="0.6845">
        <ele>208.8</ele>
        <time>1970-01-01T00:15:09.000Z</time>
      </trkpt>
      <trkpt lat="45.02869" lon="0.6844">
        <ele>208.8</ele>
        <time>1970-01-01T00:15:10.000Z</time>
      </trkpt>
      <trkpt lat="45.02869" lon="0.68431">
        <ele>207.9</ele>
        <time>1970-01-01T00:15:11.000Z</time>
      </trkpt>
      <trkpt lat="45.02868" lon="0.68422">
        <ele>207.9</ele>
        <time>1970-01-01T00:15:12.000Z</time>
      </trkpt>
      <trkpt lat="45.02868" lon="0.68413">
        <ele>207.9</ele>
        <time>1970-01-01T00:15:13.000Z</time>
      </trkpt>
      <trkpt lat="45.02867" lon="0.68404">
        <ele>207.9</ele>
        <time>1970-01-01T00:15:14.000Z</time>
      </trkpt>
      <trkpt lat="45.02867" lon="0.68395">
        <ele>207.9</ele>
        <time>1970-01-01T00:15:15.000Z</time>
      </trkpt>
      <trkpt lat="45.02868" lon="0.68387">
        <ele>207.9</ele>
        <time>1970-01-01T00:15:16.000Z</time>
      </trkpt>
      <trkpt lat="45.02869" lon="0.68379">
        <ele>207.9</ele>
        <time>1970-01-01T00:15:17.000Z</time>
      </trkpt>
      <trkpt lat="45.0287" lon="0.68371">
        <ele>207.9</ele>
        <time>1970-01-01T00:15:18.000Z</time>
      </trkpt>
      <trkpt lat="45.02872" lon="0.68363">
        <ele>205.9</ele>
        <time>1970-01-01T00:15:19.000Z</time>
      </trkpt>
      <trkpt lat="45.02875" lon="0.68355">
        <ele>205.9</ele>
        <time>1970-01-01T00:15:20.000Z</time>
      </trkpt>
      <trkpt lat="45.02877" lon="0.68346">
        <ele>205.9</ele>
        <time>1970-01-01T00:15:21.000Z</time>
      </trkpt>
      <trkpt lat="45.02879" lon="0.68338">
        <ele>205.9</ele>
        <time>1970-01-01T00:15:22.000Z</time>
      </trkpt>
      <trkpt lat="45.02881" lon="0.6833">
        <ele>205.9</ele>
        <time>1970-01-01T00:15:23.000Z</time>
      </trkpt>
      <trkpt lat="45.02883" lon="0.68321">
        <ele>205.9</ele>
        <time>1970-01-01T00:15:24.000Z</time>
      </trkpt>
      <trkpt lat="45.02886" lon="0.68313">
        <ele>204.8</ele>
        <time>1970-01-01T00:15:25.000Z</time>
      </trkpt>
      <trkpt lat="45.02889" lon="0.68304">
        <ele>204.8</ele>
        <time>1970-01-01T00:15:26.000Z</time>
      </trkpt>
      <trkpt lat="45.02892" lon="0.68296">
        <ele>203.8</ele>
        <time>1970-01-01T00:15:27.000Z</time>
      </trkpt>
      <trkpt lat="45.02895" lon="0.68287">
        <ele>203.8</ele>
        <time>1970-01-01T00:15:28.000Z</time>
      </trkpt>
      <trkpt lat="45.02899" lon="0.68279">
        <ele>202.8</ele>
        <time>1970-01-01T00:15:29.000Z</time>
      </trkpt>
      <trkpt lat="45.02902" lon="0.6827">
        <ele>202.8</ele>
        <time>1970-01-01T00:15:30.000Z</time>
      </trkpt>
      <trkpt lat="45.02906" lon="0.68262">
        <ele>202.8</ele>
        <time>1970-01-01T00:15:31.000Z</time>
      </trkpt>
      <trkpt lat="45.02909" lon="0.68253">
        <ele>202.8</ele>
        <time>1970-01-01T00:15:32.000Z</time>
      </trkpt>
      <trkpt lat="45.02913" lon="0.68244">
        <ele>200.9</ele>
        <time>1970-01-01T00:15:33.000Z</time>
      </trkpt>
      <trkpt lat="45.02917" lon="0.68235">
        <ele>200.9</ele>
        <time>1970-01-01T00:15:34.000Z</time>
      </trkpt>
      <trkpt lat="45.02921" lon="0.68226">
        <ele>198.9</ele>
        <time>1970-01-01T00:15:35.000Z</time>
      </trkpt>
      <trkpt lat="45.02925" lon="0.68217">
        <ele>198.9</ele>
        <time>1970-01-01T00:15:36.000Z</time>
      </trkpt>
      <trkpt lat="45.02928" lon="0.68207">
        <ele>198.9</ele>
        <time>1970-01-01T00:15:37.000Z</time>
      </trkpt>
      <trkpt lat="45.02932" lon="0.68197">
        <ele>198.9</ele>
        <time>1970-01-01T00:15:38.000Z</time>
      </trkpt>
      <trkpt lat="45.02936" lon="0.68188">
        <ele>198.9</ele>
        <time>1970-01-01T00:15:39.000Z</time>
      </trkpt>
      <trkpt lat="45.0294" lon="0.68178">
        <ele>198.9</ele>
        <time>1970-01-01T00:15:40.000Z</time>
      </trkpt>
      <trkpt lat="45.02944" lon="0.68169">
        <ele>197.8</ele>
        <time>1970-01-01T00:15:41.000Z</time>
      </trkpt>
      <trkpt lat="45.02948" lon="0.6816">
        <ele>197.8</ele>
        <time>1970-01-01T00:15:42.000Z</time>
      </trkpt>
      <trkpt lat="45.02953" lon="0.68151">
        <ele>195.8</ele>
        <time>1970-01-01T00:15:43.000Z</time>
      </trkpt>
      <trkpt lat="45.02958" lon="0.68143">
        <ele>195.8</ele>
        <time>1970-01-01T00:15:44.000Z</time>
      </trkpt>
      <trkpt lat="45.02963" lon="0.68134">
        <ele>193.9</ele>
        <time>1970-01-01T00:15:45.000Z</time>
      </trkpt>
      <trkpt lat="45.02968" lon="0.68125">
        <ele>193.9</ele>
        <time>1970-01-01T00:15:46.000Z</time>
      </trkpt>
      <trkpt lat="45.02973" lon="0.68117">
        <ele>193.9</ele>
        <time>1970-01-01T00:15:47.000Z</time>
      </trkpt>
      <trkpt lat="45.02979" lon="0.68108">
        <ele>193.9</ele>
        <time>1970-01-01T00:15:48.000Z</time>
      </trkpt>
      <trkpt lat="45.02984" lon="0.68099">
        <ele>191.9</ele>
        <time>1970-01-01T00:15:49.000Z</time>
      </trkpt>
      <trkpt lat="45.0299" lon="0.68091">
        <ele>191.9</ele>
        <time>1970-01-01T00:15:50.000Z</time>
      </trkpt>
      <trkpt lat="45.02996" lon="0.68082">
        <ele>190.8</ele>
        <time>1970-01-01T00:15:51.000Z</time>
      </trkpt>
      <trkpt lat="45.03003" lon="0.68074">
        <ele>190.8</ele>
        <time>1970-01-01T00:15:52.000Z</time>
      </trkpt>
      <trkpt lat="45.03009" lon="0.68066">
        <ele>187.9</ele>
        <time>1970-01-01T00:15:53.000Z</time>
      </trkpt>
      <trkpt lat="45.03014" lon="0.68059">
        <ele>187.9</ele>
        <time>1970-01-01T00:15:54.000Z</time>
      </trkpt>
      <trkpt lat="45.0302" lon="0.68052">
        <ele>187.9</ele>
        <time>1970-01-01T00:15:55.000Z</time>
      </trkpt>
      <trkpt lat="45.03024" lon="0.68045">
        <ele>187.9</ele>
        <time>1970-01-01T00:15:56.000Z</time>
      </trkpt>
      <trkpt lat="45.03029" lon="0.68037">
        <ele>187.9</ele>
        <time>1970-01-01T00:15:57.000Z</time>
      </trkpt>
      <trkpt lat="45.03034" lon="0.6803">
        <ele>187.9</ele>
        <time>1970-01-01T00:15:58.000Z</time>
      </trkpt>
      <trkpt lat="45.03039" lon="0.68024">
        <ele>181.8</ele>
        <time>1970-01-01T00:15:59.000Z</time>
      </trkpt>
      <trkpt lat="45.03046" lon="0.68017">
        <ele>181.8</ele>
        <time>1970-01-01T00:16:00.000Z</time>
      </trkpt>
      <trkpt lat="45.03052" lon="0.6801">
        <ele>178.8</ele>
        <time>1970-01-01T00:16:01.000Z</time>
      </trkpt>
      <trkpt lat="45.03059" lon="0.68001">
        <ele>178.8</ele>
        <time>1970-01-01T00:16:02.000Z</time>
      </trkpt>
      <trkpt lat="45.03066" lon="0.67993">
        <ele>175.9</ele>
        <time>1970-01-01T00:16:03.000Z</time>
      </trkpt>
      <trkpt lat="45.03072" lon="0.67985">
        <ele>175.9</ele>
        <time>1970-01-01T00:16:04.000Z</time>
      </trkpt>
      <trkpt lat="45.03077" lon="0.67979">
        <ele>173.9</ele>
        <time>1970-01-01T00:16:05.000Z</time>
      </trkpt>
      <trkpt lat="45.03082" lon="0.67972">
        <ele>173.9</ele>
        <time>1970-01-01T00:16:06.000Z</time>
      </trkpt>
      <trkpt lat="45.03085" lon="0.67966">
        <ele>171.9</ele>
        <time>1970-01-01T00:16:07.000Z</time>
      </trkpt>
      <trkpt lat="45.03087" lon="0.67959">
        <ele>171.9</ele>
        <time>1970-01-01T00:16:08.000Z</time>
      </trkpt>
      <trkpt lat="45.03089" lon="0.67952">
        <ele>170.8</ele>
        <time>1970-01-01T00:16:09.000Z</time>
      </trkpt>
      <trkpt lat="45.03091" lon="0.67944">
        <ele>170.8</ele>
        <time>1970-01-01T00:16:10.000Z</time>
      </trkpt>
      <trkpt lat="45.03092" lon="0.67936">
        <ele>170.8</ele>
        <time>1970-01-01T00:16:11.000Z</time>
      </trkpt>
      <trkpt lat="45.03094" lon="0.67926">
        <ele>170.8</ele>
        <time>1970-01-01T00:16:12.000Z</time>
      </trkpt>
      <trkpt lat="45.03095" lon="0.67915">
        <ele>170.8</ele>
        <time>1970-01-01T00:16:13.000Z</time>
      </trkpt>
      <trkpt lat="45.03097" lon="0.67903">
        <ele>170.8</ele>
        <time>1970-01-01T00:16:14.000Z</time>
      </trkpt>
      <trkpt lat="45.03098" lon="0.67891">
        <ele>164.9</ele>
        <time>1970-01-01T00:16:15.000Z</time>
      </trkpt>
      <trkpt lat="45.031" lon="0.67879">
        <ele>164.9</ele>
        <time>1970-01-01T00:16:16.000Z</time>
      </trkpt>
      <trkpt lat="45.03103" lon="0.67866">
        <ele>162.8</ele>
        <time>1970-01-01T00:16:17.000Z</time>
      </trkpt>
      <trkpt lat="45.03106" lon="0.67853">
        <ele>162.8</ele>
        <time>1970-01-01T00:16:18.000Z</time>
      </trkpt>
      <trkpt lat="45.03109" lon="0.67841">
        <ele>160.8</ele>
        <time>1970-01-01T00:16:19.000Z</time>
      </trkpt>
      <trkpt lat="45.03113" lon="0.6783">
        <ele>160.8</ele>
        <time>1970-01-01T00:16:20.000Z</time>
      </trkpt>
      <trkpt lat="45.03118" lon="0.67819">
        <ele>159.9</ele>
        <time>1970-01-01T00:16:21.000Z</time>
      </trkpt>
      <trkpt lat="45.03123" lon="0.67809">
        <ele>159.9</ele>
        <time>1970-01-01T00:16:22.000Z</time>
      </trkpt>
      <trkpt lat="45.03128" lon="0.67799">
        <ele>157.9</ele>
        <time>1970-01-01T00:16:23.000Z</time>
      </trkpt>
      <trkpt lat="45.03133" lon="0.67791">
        <ele>157.9</ele>
        <time>1970-01-01T00:16:24.000Z</time>
      </trkpt>
      <trkpt lat="45.03139" lon="0.67782">
        <ele>156.8</ele>
        <time>1970-01-01T00:16:25.000Z</time>
      </trkpt>
      <trkpt lat="45.03144" lon="0.67774">
        <ele>156.8</ele>
        <time>1970-01-01T00:16:26.000Z</time>
      </trkpt>
      <trkpt lat="45.03149" lon="0.67765">
        <ele>155.9</ele>
        <time>1970-01-01T00:16:27.000Z</time>
      </trkpt>
      <trkpt lat="45.03154" lon="0.67756">
        <ele>155.9</ele>
        <time>1970-01-01T00:16:28.000Z</time>
      </trkpt>
      <trkpt lat="45.03159" lon="0.67747">
        <ele>153.8</ele>
        <time>1970-01-01T00:16:29.000Z</time>
      </trkpt>
      <trkpt lat="45.03164" lon="0.67738">
        <ele>153.8</ele>
        <time>1970-01-01T00:16:30.000Z</time>
      </trkpt>
      <trkpt lat="45.03168" lon="0.67728">
        <ele>151.8</ele>
        <time>1970-01-01T00:16:31.000Z</time>
      </trkpt>
      <trkpt lat="45.03172" lon="0.67718">
        <ele>151.8</ele>
        <time>1970-01-01T00:16:32.000Z</time>
      </trkpt>
      <trkpt lat="45.03177" lon="0.67708">
        <ele>149.8</ele>
        <time>1970-01-01T00:16:33.000Z</time>
      </trkpt>
      <trkpt lat="45.03181" lon="0.67698">
        <ele>149.8</ele>
        <time>1970-01-01T00:16:34.000Z</time>
      </trkpt>
      <trkpt lat="45.03186" lon="0.67688">
        <ele>147.8</ele>
        <time>1970-01-01T00:16:35.000Z</time>
      </trkpt>
      <trkpt lat="45.0319" lon="0.67679">
        <ele>147.8</ele>
        <time>1970-01-01T00:16:36.000Z</time>
      </trkpt>
      <trkpt lat="45.03195" lon="0.67669">
        <ele>145.8</ele>
        <time>1970-01-01T00:16:37.000Z</time>
      </trkpt>
      <trkpt lat="45.03199" lon="0.6766">
        <ele>145.8</ele>
        <time>1970-01-01T00:16:38.000Z</time>
      </trkpt>
      <trkpt lat="45.03204" lon="0.67651">
        <ele>142.8</ele>
        <time>1970-01-01T00:16:39.000Z</time>
      </trkpt>
      <trkpt lat="45.0321" lon="0.67643">
        <ele>142.8</ele>
        <time>1970-01-01T00:16:40.000Z</time>
      </trkpt>
      <trkpt lat="45.03216" lon="0.67634">
        <ele>140.8</ele>
        <time>1970-01-01T00:16:41.000Z</time>
      </trkpt>
      <trkpt lat="45.03221" lon="0.67626">
        <ele>140.8</ele>
        <time>1970-01-01T00:16:42.000Z</time>
      </trkpt>
      <trkpt lat="45.03226" lon="0.67617">
        <ele>137.8</ele>
        <time>1970-01-01T00:16:43.000Z</time>
      </trkpt>
      <trkpt lat="45.03231" lon="0.67607">
        <ele>137.8</ele>
        <time>1970-01-01T00:16:44.000Z</time>
      </trkpt>
      <trkpt lat="45.03235" lon="0.67597">
        <ele>133.8</ele>
        <time>1970-01-01T00:16:45.000Z</time>
      </trkpt>
      <trkpt lat="45.03239" lon="0.67586">
        <ele>133.8</ele>
        <time>1970-01-01T00:16:46.000Z</time>
      </trkpt>
      <trkpt lat="45.03243" lon="0.67576">
        <ele>130.8</ele>
        <time>1970-01-01T00:16:47.000Z</time>
      </trkpt>
      <trkpt lat="45.03247" lon="0.67565">
        <ele>130.8</ele>
        <time>1970-01-01T00:16:48.000Z</time>
      </trkpt>
      <trkpt lat="45.0325" lon="0.67554">
        <ele>127.9</ele>
        <time>1970-01-01T00:16:49.000Z</time>
      </trkpt>
      <trkpt lat="45.03253" lon="0.67542">
        <ele>127.9</ele>
        <time>1970-01-01T00:16:50.000Z</time>
      </trkpt>
      <trkpt lat="45.03256" lon="0.6753">
        <ele>124.8</ele>
        <time>1970-01-01T00:16:51.000Z</time>
      </trkpt>
      <trkpt lat="45.03258" lon="0.67518">
        <ele>124.8</ele>
        <time>1970-01-01T00:16:52.000Z</time>
      </trkpt>
      <trkpt lat="45.03259" lon="0.67505">
        <ele>121.8</ele>
        <time>1970-01-01T00:16:53.000Z</time>
      </trkpt>
      <trkpt lat="45.0326" lon="0.67493">
        <ele>121.8</ele>
        <time>1970-01-01T00:16:54.000Z</time>
      </trkpt>
      <trkpt lat="45.03262" lon="0.67479">
        <ele>119.8</ele>
        <time>1970-01-01T00:16:55.000Z</time>
      </trkpt>
      <trkpt lat="45.03263" lon="0.67466">
        <ele>119.8</ele>
        <time>1970-01-01T00:16:56.000Z</time>
      </trkpt>
      <trkpt lat="45.03264" lon="0.67452">
        <ele>119.8</ele>
        <time>1970-01-01T00:16:57.000Z</time>
      </trkpt>
      <trkpt lat="45.03265" lon="0.67439">
        <ele>119.8</ele>
        <time>1970-01-01T00:16:58.000Z</time>
      </trkpt>
      <trkpt lat="45.03266" lon="0.67426">
        <ele>119.8</ele>
        <time>1970-01-01T00:16:59.000Z</time>
      </trkpt>
      <trkpt lat="45.03267" lon="0.67413">
        <ele>119.8</ele>
        <time>1970-01-01T00:17:00.000Z</time>
      </trkpt>
      <trkpt lat="45.03268" lon="0.67401">
        <ele>112.8</ele>
        <time>1970-01-01T00:17:01.000Z</time>
      </trkpt>
      <trkpt lat="45.03269" lon="0.67392">
        <ele>112.8</ele>
        <time>1970-01-01T00:17:02.000Z</time>
      </trkpt>
      <trkpt lat="45.03271" lon="0.67384">
        <ele>110.8</ele>
        <time>1970-01-01T00:17:03.000Z</time>
      </trkpt>
      <trkpt lat="45.03273" lon="0.67378">
        <ele>110.8</ele>
        <time>1970-01-01T00:17:04.000Z</time>
      </trkpt>
      <trkpt lat="45.03273" lon="0.67372">
        <ele>109.9</ele>
        <time>1970-01-01T00:17:05.000Z</time>
      </trkpt>
      <trkpt lat="45.03272" lon="0.67366">
        <ele>109.9</ele>
        <time>1970-01-01T00:17:06.000Z</time>
      </trkpt>
      <trkpt lat="45.03269" lon="0.6736">
        <ele>108.8</ele>
        <time>1970-01-01T00:17:07.000Z</time>
      </trkpt>
      <trkpt lat="45.03266" lon="0.67353">
        <ele>108.8</ele>
        <time>1970-01-01T00:17:08.000Z</time>
      </trkpt>
      <trkpt lat="45.03262" lon="0.67347">
        <ele>108.8</ele>
        <time>1970-01-01T00:17:09.000Z</time>
      </trkpt>
      <trkpt lat="45.03258" lon="0.6734">
        <ele>108.8</ele>
        <time>1970-01-01T00:17:10.000Z</time>
      </trkpt>
      <trkpt lat="45.03254" lon="0.67333">
        <ele>107.9</ele>
        <time>1970-01-01T00:17:11.000Z</time>
      </trkpt>
      <trkpt lat="45.03249" lon="0.67325">
        <ele>107.9</ele>
        <time>1970-01-01T00:17:12.000Z</time>
      </trkpt>
      <trkpt lat="45.03245" lon="0.67318">
        <ele>106.8</ele>
        <time>1970-01-01T00:17:13.000Z</time>
      </trkpt>
      <trkpt lat="45.03241" lon="0.67311">
        <ele>106.8</ele>
        <time>1970-01-01T00:17:14.000Z</time>
      </trkpt>
      <trkpt lat="45.03236" lon="0.67304">
        <ele>106.8</ele>
        <time>1970-01-01T00:17:15.000Z</time>
      </trkpt>
      <trkpt lat="45.03231" lon="0.67296">
        <ele>106.8</ele>
        <time>1970-01-01T00:17:16.000Z</time>
      </trkpt>
      <trkpt lat="45.03227" lon="0.67289">
        <ele>106.8</ele>
        <time>1970-01-01T00:17:17.000Z</time>
      </trkpt>
      <trkpt lat="45.03222" lon="0.67282">
        <ele>106.8</ele>
        <time>1970-01-01T00:17:18.000Z</time>
      </trkpt>
      <trkpt lat="45.03218" lon="0.67275">
        <ele>105.8</ele>
        <time>1970-01-01T00:17:19.000Z</time>
      </trkpt>
      <trkpt lat="45.03214" lon="0.67268">
        <ele>105.8</ele>
        <time>1970-01-01T00:17:20.000Z</time>
      </trkpt>
      <trkpt lat="45.03209" lon="0.67262">
        <ele>105.8</ele>
        <time>1970-01-01T00:17:21.000Z</time>
      </trkpt>
      <trkpt lat="45.03205" lon="0.67255">
        <ele>105.8</ele>
        <time>1970-01-01T00:17:22.000Z</time>
      </trkpt>
      <trkpt lat="45.032" lon="0.67248">
        <ele>105.8</ele>
        <time>1970-01-01T00:17:23.000Z</time>
      </trkpt>
      <trkpt lat="45.03195" lon="0.67241">
        <ele>105.8</ele>
        <time>1970-01-01T00:17:24.000Z</time>
      </trkpt>
      <trkpt lat="45.0319" lon="0.67235">
        <ele>105.8</ele>
        <time>1970-01-01T00:17:25.000Z</time>
      </trkpt>
      <trkpt lat="45.03185" lon="0.67228">
        <ele>105.8</ele>
        <time>1970-01-01T00:17:26.000Z</time>
      </trkpt>
      <trkpt lat="45.0318" lon="0.67222">
        <ele>104.9</ele>
        <time>1970-01-01T00:17:27.000Z</time>
      </trkpt>
      <trkpt lat="45.03176" lon="0.67215">
        <ele>104.9</ele>
        <time>1970-01-01T00:17:28.000Z</time>
      </trkpt>
      <trkpt lat="45.03171" lon="0.67209">
        <ele>104.9</ele>
        <time>1970-01-01T00:17:29.000Z</time>
      </trkpt>
      <trkpt lat="45.03167" lon="0.67203">
        <ele>104.9</ele>
        <time>1970-01-01T00:17:30.000Z</time>
      </trkpt>
      <trkpt lat="45.03162" lon="0.67197">
        <ele>104.9</ele>
        <time>1970-01-01T00:17:31.000Z</time>
      </trkpt>
      <trkpt lat="45.03158" lon="0.67191">
        <ele>104.9</ele>
        <time>1970-01-01T00:17:32.000Z</time>
      </trkpt>
      <trkpt lat="45.03153" lon="0.67185">
        <ele>104.9</ele>
        <time>1970-01-01T00:17:33.000Z</time>
      </trkpt>
      <trkpt lat="45.03149" lon="0.6718">
        <ele>104.9</ele>
        <time>1970-01-01T00:17:34.000Z</time>
      </trkpt>
      <trkpt lat="45.03144" lon="0.67174">
        <ele>104.9</ele>
        <time>1970-01-01T00:17:35.000Z</time>
      </trkpt>
      <trkpt lat="45.0314" lon="0.67169">
        <ele>104.9</ele>
        <time>1970-01-01T00:17:36.000Z</time>
      </trkpt>
      <trkpt lat="45.03136" lon="0.67164">
        <ele>104.9</ele>
        <time>1970-01-01T00:17:37.000Z</time>
      </trkpt>
      <trkpt lat="45.03132" lon="0.67158">
        <ele>104.9</ele>
        <time>1970-01-01T00:17:38.000Z</time>
      </trkpt>
      <trkpt lat="45.03127" lon="0.67153">
        <ele>104.9</ele>
        <time>1970-01-01T00:17:39.000Z</time>
      </trkpt>
      <trkpt lat="45.03123" lon="0.67147">
        <ele>104.9</ele>
        <time>1970-01-01T00:17:40.000Z</time>
      </trkpt>
      <trkpt lat="45.03119" lon="0.67143">
        <ele>104.9</ele>
        <time>1970-01-01T00:17:41.000Z</time>
      </trkpt>
      <trkpt lat="45.03114" lon="0.67138">
        <ele>104.9</ele>
        <time>1970-01-01T00:17:42.000Z</time>
      </trkpt>
      <trkpt lat="45.0311" lon="0.67133">
        <ele>104.9</ele>
        <time>1970-01-01T00:17:43.000Z</time>
      </trkpt>
      <trkpt lat="45.03106" lon="0.67129">
        <ele>104.9</ele>
        <time>1970-01-01T00:17:44.000Z</time>
      </trkpt>
      <trkpt lat="45.03103" lon="0.67124">
        <ele>105.8</ele>
        <time>1970-01-01T00:17:45.000Z</time>
      </trkpt>
      <trkpt lat="45.03099" lon="0.67121">
        <ele>105.8</ele>
        <time>1970-01-01T00:17:46.000Z</time>
      </trkpt>
      <trkpt lat="45.03095" lon="0.67119">
        <ele>105.8</ele>
        <time>1970-01-01T00:17:47.000Z</time>
      </trkpt>
      <trkpt lat="45.0309" lon="0.67119">
        <ele>105.8</ele>
        <time>1970-01-01T00:17:48.000Z</time>
      </trkpt>
      <trkpt lat="45.03085" lon="0.6712">
        <ele>105.8</ele>
        <time>1970-01-01T00:17:49.000Z</time>
      </trkpt>
      <trkpt lat="45.0308" lon="0.67123">
        <ele>105.8</ele>
        <time>1970-01-01T00:17:50.000Z</time>
      </trkpt>
      <trkpt lat="45.03075" lon="0.67126">
        <ele>105.8</ele>
        <time>1970-01-01T00:17:51.000Z</time>
      </trkpt>
      <trkpt lat="45.0307" lon="0.67129">
        <ele>105.8</ele>
        <time>1970-01-01T00:17:52.000Z</time>
      </trkpt>
      <trkpt lat="45.03065" lon="0.67133">
        <ele>105.8</ele>
        <time>1970-01-01T00:17:53.000Z</time>
      </trkpt>
      <trkpt lat="45.0306" lon="0.67137">
        <ele>105.8</ele>
        <time>1970-01-01T00:17:54.000Z</time>
      </trkpt>
      <trkpt lat="45.03056" lon="0.67141">
        <ele>105.8</ele>
        <time>1970-01-01T00:17:55.000Z</time>
      </trkpt>
      <trkpt lat="45.03051" lon="0.67146">
        <ele>105.8</ele>
        <time>1970-01-01T00:17:56.000Z</time>
      </trkpt>
      <trkpt lat="45.03046" lon="0.6715">
        <ele>105.8</ele>
        <time>1970-01-01T00:17:57.000Z</time>
      </trkpt>
      <trkpt lat="45.03041" lon="0.67152">
        <ele>105.8</ele>
        <time>1970-01-01T00:17:58.000Z</time>
      </trkpt>
      <trkpt lat="45.03036" lon="0.67152">
        <ele>105.8</ele>
        <time>1970-01-01T00:17:59.000Z</time>
      </trkpt>
      <trkpt lat="45.03031" lon="0.6715">
        <ele>105.8</ele>
        <time>1970-01-01T00:18:00.000Z</time>
      </trkpt>
      <trkpt lat="45.03027" lon="0.67145">
        <ele>105.8</ele>
        <time>1970-01-01T00:18:01.000Z</time>
      </trkpt>
      <trkpt lat="45.03023" lon="0.6714">
        <ele>105.8</ele>
        <time>1970-01-01T00:18:02.000Z</time>
      </trkpt>
      <trkpt lat="45.03021" lon="0.67133">
        <ele>105.8</ele>
        <time>1970-01-01T00:18:03.000Z</time>
      </trkpt>
      <trkpt lat="45.03018" lon="0.67126">
        <ele>105.8</ele>
        <time>1970-01-01T00:18:04.000Z</time>
      </trkpt>
      <trkpt lat="45.03016" lon="0.67119">
        <ele>105.8</ele>
        <time>1970-01-01T00:18:05.000Z</time>
      </trkpt>
      <trkpt lat="45.03014" lon="0.67112">
        <ele>105.8</ele>
        <time>1970-01-01T00:18:06.000Z</time>
      </trkpt>
      <trkpt lat="45.03012" lon="0.67104">
        <ele>105.8</ele>
        <time>1970-01-01T00:18:07.000Z</time>
      </trkpt>
      <trkpt lat="45.03009" lon="0.67097">
        <ele>105.8</ele>
        <time>1970-01-01T00:18:08.000Z</time>
      </trkpt>
      <trkpt lat="45.03007" lon="0.6709">
        <ele>105.8</ele>
        <time>1970-01-01T00:18:09.000Z</time>
      </trkpt>
      <trkpt lat="45.03004" lon="0.67083">
        <ele>105.8</ele>
        <time>1970-01-01T00:18:10.000Z</time>
      </trkpt>
      <trkpt lat="45.03002" lon="0.67076">
        <ele>105.8</ele>
        <time>1970-01-01T00:18:11.000Z</time>
      </trkpt>
      <trkpt lat="45.02999" lon="0.67069">
        <ele>105.8</ele>
        <time>1970-01-01T00:18:12.000Z</time>
      </trkpt>
      <trkpt lat="45.02997" lon="0.67063">
        <ele>105.8</ele>
        <time>1970-01-01T00:18:13.000Z</time>
      </trkpt>
      <trkpt lat="45.02994" lon="0.67056">
        <ele>105.8</ele>
        <time>1970-01-01T00:18:14.000Z</time>
      </trkpt>
      <trkpt lat="45.02992" lon="0.67049">
        <ele>105.8</ele>
        <time>1970-01-01T00:18:15.000Z</time>
      </trkpt>
      <trkpt lat="45.02989" lon="0.67042">
        <ele>105.8</ele>
        <time>1970-01-01T00:18:16.000Z</time>
      </trkpt>
      <trkpt lat="45.02987" lon="0.67035">
        <ele>106.8</ele>
        <time>1970-01-01T00:18:17.000Z</time>
      </trkpt>
      <trkpt lat="45.02985" lon="0.67028">
        <ele>106.8</ele>
        <time>1970-01-01T00:18:18.000Z</time>
      </trkpt>
      <trkpt lat="45.02982" lon="0.67021">
        <ele>106.8</ele>
        <time>1970-01-01T00:18:19.000Z</time>
      </trkpt>
      <trkpt lat="45.02979" lon="0.67014">
        <ele>106.8</ele>
        <time>1970-01-01T00:18:20.000Z</time>
      </trkpt>
      <trkpt lat="45.02977" lon="0.67008">
        <ele>106.8</ele>
        <time>1970-01-01T00:18:21.000Z</time>
      </trkpt>
      <trkpt lat="45.02974" lon="0.67001">
        <ele>106.8</ele>
        <time>1970-01-01T00:18:22.000Z</time>
      </trkpt>
      <trkpt lat="45.02971" lon="0.66995">
        <ele>106.8</ele>
        <time>1970-01-01T00:18:23.000Z</time>
      </trkpt>
      <trkpt lat="45.02969" lon="0.66988">
        <ele>106.8</ele>
        <time>1970-01-01T00:18:24.000Z</time>
      </trkpt>
      <trkpt lat="45.02965" lon="0.66982">
        <ele>106.8</ele>
        <time>1970-01-01T00:18:25.000Z</time>
      </trkpt>
      <trkpt lat="45.02963" lon="0.66976">
        <ele>106.8</ele>
        <time>1970-01-01T00:18:26.000Z</time>
      </trkpt>
      <trkpt lat="45.0296" lon="0.66969">
        <ele>106.8</ele>
        <time>1970-01-01T00:18:27.000Z</time>
      </trkpt>
      <trkpt lat="45.02957" lon="0.66963">
        <ele>106.8</ele>
        <time>1970-01-01T00:18:28.000Z</time>
      </trkpt>
      <trkpt lat="45.02953" lon="0.66957">
        <ele>106.8</ele>
        <time>1970-01-01T00:18:29.000Z</time>
      </trkpt>
      <trkpt lat="45.0295" lon="0.66952">
        <ele>106.8</ele>
        <time>1970-01-01T00:18:30.000Z</time>
      </trkpt>
      <trkpt lat="45.02947" lon="0.66946">
        <ele>107.9</ele>
        <time>1970-01-01T00:18:31.000Z</time>
      </trkpt>
      <trkpt lat="45.02943" lon="0.6694">
        <ele>107.9</ele>
        <time>1970-01-01T00:18:32.000Z</time>
      </trkpt>
      <trkpt lat="45.0294" lon="0.66935">
        <ele>107.9</ele>
        <time>1970-01-01T00:18:33.000Z</time>
      </trkpt>
      <trkpt lat="45.02936" lon="0.66931">
        <ele>107.9</ele>
        <time>1970-01-01T00:18:34.000Z</time>
      </trkpt>
      <trkpt lat="45.02932" lon="0.66926">
        <ele>107.9</ele>
        <time>1970-01-01T00:18:35.000Z</time>
      </trkpt>
      <trkpt lat="45.02928" lon="0.66922">
        <ele>107.9</ele>
        <time>1970-01-01T00:18:36.000Z</time>
      </trkpt>
      <trkpt lat="45.02923" lon="0.66918">
        <ele>107.9</ele>
        <time>1970-01-01T00:18:37.000Z</time>
      </trkpt>
      <trkpt lat="45.02919" lon="0.66915">
        <ele>107.9</ele>
        <time>1970-01-01T00:18:38.000Z</time>
      </trkpt>
      <trkpt lat="45.02914" lon="0.66911">
        <ele>107.9</ele>
        <time>1970-01-01T00:18:39.000Z</time>
      </trkpt>
      <trkpt lat="45.0291" lon="0.66907">
        <ele>107.9</ele>
        <time>1970-01-01T00:18:40.000Z</time>
      </trkpt>
      <trkpt lat="45.02906" lon="0.66904">
        <ele>107.9</ele>
        <time>1970-01-01T00:18:41.000Z</time>
      </trkpt>
      <trkpt lat="45.02901" lon="0.669">
        <ele>107.9</ele>
        <time>1970-01-01T00:18:42.000Z</time>
      </trkpt>
      <trkpt lat="45.02897" lon="0.66895">
        <ele>107.9</ele>
        <time>1970-01-01T00:18:43.000Z</time>
      </trkpt>
      <trkpt lat="45.02893" lon="0.66891">
        <ele>107.9</ele>
        <time>1970-01-01T00:18:44.000Z</time>
      </trkpt>
      <trkpt lat="45.02889" lon="0.66886">
        <ele>107.9</ele>
        <time>1970-01-01T00:18:45.000Z</time>
      </trkpt>
      <trkpt lat="45.02886" lon="0.66881">
        <ele>107.9</ele>
        <time>1970-01-01T00:18:46.000Z</time>
      </trkpt>
      <trkpt lat="45.02883" lon="0.66876">
        <ele>107.9</ele>
        <time>1970-01-01T00:18:47.000Z</time>
      </trkpt>
      <trkpt lat="45.0288" lon="0.6687">
        <ele>107.9</ele>
        <time>1970-01-01T00:18:48.000Z</time>
      </trkpt>
      <trkpt lat="45.02877" lon="0.66865">
        <ele>107.9</ele>
        <time>1970-01-01T00:18:49.000Z</time>
      </trkpt>
      <trkpt lat="45.02874" lon="0.6686">
        <ele>107.9</ele>
        <time>1970-01-01T00:18:50.000Z</time>
      </trkpt>
      <trkpt lat="45.02871" lon="0.66855">
        <ele>108.8</ele>
        <time>1970-01-01T00:18:51.000Z</time>
      </trkpt>
      <trkpt lat="45.02868" lon="0.6685">
        <ele>108.8</ele>
        <time>1970-01-01T00:18:52.000Z</time>
      </trkpt>
      <trkpt lat="45.02865" lon="0.66845">
        <ele>108.8</ele>
        <time>1970-01-01T00:18:53.000Z</time>
      </trkpt>
      <trkpt lat="45.02862" lon="0.6684">
        <ele>108.8</ele>
        <time>1970-01-01T00:18:54.000Z</time>
      </trkpt>
      <trkpt lat="45.02859" lon="0.66835">
        <ele>108.8</ele>
        <time>1970-01-01T00:18:55.000Z</time>
      </trkpt>
      <trkpt lat="45.02856" lon="0.6683">
        <ele>108.8</ele>
        <time>1970-01-01T00:18:56.000Z</time>
      </trkpt>
      <trkpt lat="45.02853" lon="0.66825">
        <ele>108.8</ele>
        <time>1970-01-01T00:18:57.000Z</time>
      </trkpt>
      <trkpt lat="45.0285" lon="0.6682">
        <ele>108.8</ele>
        <time>1970-01-01T00:18:58.000Z</time>
      </trkpt>
      <trkpt lat="45.02847" lon="0.66815">
        <ele>108.8</ele>
        <time>1970-01-01T00:18:59.000Z</time>
      </trkpt>
      <trkpt lat="45.02844" lon="0.66811">
        <ele>108.8</ele>
        <time>1970-01-01T00:19:00.000Z</time>
      </trkpt>
      <trkpt lat="45.02841" lon="0.66806">
        <ele>108.8</ele>
        <time>1970-01-01T00:19:01.000Z</time>
      </trkpt>
      <trkpt lat="45.02837" lon="0.66801">
        <ele>108.8</ele>
        <time>1970-01-01T00:19:02.000Z</time>
      </trkpt>
      <trkpt lat="45.02834" lon="0.66797">
        <ele>108.8</ele>
        <time>1970-01-01T00:19:03.000Z</time>
      </trkpt>
      <trkpt lat="45.0283" lon="0.66793">
        <ele>108.8</ele>
        <time>1970-01-01T00:19:04.000Z</time>
      </trkpt>
      <trkpt lat="45.02826" lon="0.66789">
        <ele>108.8</ele>
        <time>1970-01-01T00:19:05.000Z</time>
      </trkpt>
      <trkpt lat="45.02822" lon="0.66786">
        <ele>108.8</ele>
        <time>1970-01-01T00:19:06.000Z</time>
      </trkpt>
      <trkpt lat="45.02818" lon="0.66782">
        <ele>108.8</ele>
        <time>1970-01-01T00:19:07.000Z</time>
      </trkpt>
      <trkpt lat="45.02814" lon="0.6678">
        <ele>108.8</ele>
        <time>1970-01-01T00:19:08.000Z</time>
      </trkpt>
      <trkpt lat="45.0281" lon="0.66777">
        <ele>108.8</ele>
        <time>1970-01-01T00:19:09.000Z</time>
      </trkpt>
      <trkpt lat="45.02805" lon="0.66774">
        <ele>108.8</ele>
        <time>1970-01-01T00:19:10.000Z</time>
      </trkpt>
      <trkpt lat="45.02801" lon="0.66772">
        <ele>108.8</ele>
        <time>1970-01-01T00:19:11.000Z</time>
      </trkpt>
      <trkpt lat="45.02797" lon="0.66769">
        <ele>108.8</ele>
        <time>1970-01-01T00:19:12.000Z</time>
      </trkpt>
      <trkpt lat="45.02793" lon="0.66767">
        <ele>108.8</ele>
        <time>1970-01-01T00:19:13.000Z</time>
      </trkpt>
      <trkpt lat="45.02789" lon="0.66764">
        <ele>108.8</ele>
        <time>1970-01-01T00:19:14.000Z</time>
      </trkpt>
      <trkpt lat="45.02784" lon="0.66762">
        <ele>108.8</ele>
        <time>1970-01-01T00:19:15.000Z</time>
      </trkpt>
      <trkpt lat="45.0278" lon="0.6676">
        <ele>108.8</ele>
        <time>1970-01-01T00:19:16.000Z</time>
      </trkpt>
      <trkpt lat="45.02776" lon="0.66758">
        <ele>109.9</ele>
        <time>1970-01-01T00:19:17.000Z</time>
      </trkpt>
      <trkpt lat="45.02772" lon="0.66756">
        <ele>109.9</ele>
        <time>1970-01-01T00:19:18.000Z</time>
      </trkpt>
      <trkpt lat="45.02768" lon="0.66754">
        <ele>109.9</ele>
        <time>1970-01-01T00:19:19.000Z</time>
      </trkpt>
      <trkpt lat="45.02764" lon="0.66752">
        <ele>109.9</ele>
        <time>1970-01-01T00:19:20.000Z</time>
      </trkpt>
      <trkpt lat="45.0276" lon="0.6675">
        <ele>109.9</ele>
        <time>1970-01-01T00:19:21.000Z</time>
      </trkpt>
      <trkpt lat="45.02756" lon="0.66748">
        <ele>109.9</ele>
        <time>1970-01-01T00:19:22.000Z</time>
      </trkpt>
      <trkpt lat="45.02751" lon="0.66746">
        <ele>110.8</ele>
        <time>1970-01-01T00:19:23.000Z</time>
      </trkpt>
      <trkpt lat="45.02747" lon="0.66744">
        <ele>110.8</ele>
        <time>1970-01-01T00:19:24.000Z</time>
      </trkpt>
      <trkpt lat="45.02743" lon="0.66741">
        <ele>110.8</ele>
        <time>1970-01-01T00:19:25.000Z</time>
      </trkpt>
      <trkpt lat="45.02739" lon="0.66739">
        <ele>110.8</ele>
        <time>1970-01-01T00:19:26.000Z</time>
      </trkpt>
      <trkpt lat="45.02735" lon="0.66737">
        <ele>110.8</ele>
        <time>1970-01-01T00:19:27.000Z</time>
      </trkpt>
      <trkpt lat="45.02731" lon="0.66734">
        <ele>110.8</ele>
        <time>1970-01-01T00:19:28.000Z</time>
      </trkpt>
      <trkpt lat="45.02727" lon="0.66731">
        <ele>110.8</ele>
        <time>1970-01-01T00:19:29.000Z</time>
      </trkpt>
      <trkpt lat="45.02723" lon="0.66728">
        <ele>110.8</ele>
        <time>1970-01-01T00:19:30.000Z</time>
      </trkpt>
      <trkpt lat="45.0272" lon="0.66725">
        <ele>111.9</ele>
        <time>1970-01-01T00:19:31.000Z</time>
      </trkpt>
      <trkpt lat="45.02716" lon="0.66721">
        <ele>111.9</ele>
        <time>1970-01-01T00:19:32.000Z</time>
      </trkpt>
      <trkpt lat="45.02713" lon="0.66717">
        <ele>111.9</ele>
        <time>1970-01-01T00:19:33.000Z</time>
      </trkpt>
      <trkpt lat="45.02709" lon="0.66713">
        <ele>111.9</ele>
        <time>1970-01-01T00:19:34.000Z</time>
      </trkpt>
      <trkpt lat="45.02706" lon="0.66709">
        <ele>111.9</ele>
        <time>1970-01-01T00:19:35.000Z</time>
      </trkpt>
      <trkpt lat="45.02703" lon="0.66704">
        <ele>111.9</ele>
        <time>1970-01-01T00:19:36.000Z</time>
      </trkpt>
      <trkpt lat="45.027" lon="0.667">
        <ele>111.9</ele>
        <time>1970-01-01T00:19:37.000Z</time>
      </trkpt>
      <trkpt lat="45.02698" lon="0.66695">
        <ele>111.9</ele>
        <time>1970-01-01T00:19:38.000Z</time>
      </trkpt>
      <trkpt lat="45.02695" lon="0.6669">
        <ele>111.9</ele>
        <time>1970-01-01T00:19:39.000Z</time>
      </trkpt>
      <trkpt lat="45.02692" lon="0.66685">
        <ele>111.9</ele>
        <time>1970-01-01T00:19:40.000Z</time>
      </trkpt>
      <trkpt lat="45.0269" lon="0.6668">
        <ele>112.8</ele>
        <time>1970-01-01T00:19:41.000Z</time>
      </trkpt>
      <trkpt lat="45.02688" lon="0.66674">
        <ele>112.8</ele>
        <time>1970-01-01T00:19:42.000Z</time>
      </trkpt>
      <trkpt lat="45.02687" lon="0.66668">
        <ele>112.8</ele>
        <time>1970-01-01T00:19:43.000Z</time>
      </trkpt>
      <trkpt lat="45.02685" lon="0.66661">
        <ele>112.8</ele>
        <time>1970-01-01T00:19:44.000Z</time>
      </trkpt>
      <trkpt lat="45.02684" lon="0.66653">
        <ele>112.8</ele>
        <time>1970-01-01T00:19:45.000Z</time>
      </trkpt>
      <trkpt lat="45.02682" lon="0.66645">
        <ele>112.8</ele>
        <time>1970-01-01T00:19:46.000Z</time>
      </trkpt>
      <trkpt lat="45.0268" lon="0.66637">
        <ele>112.8</ele>
        <time>1970-01-01T00:19:47.000Z</time>
      </trkpt>
      <trkpt lat="45.02679" lon="0.66628">
        <ele>112.8</ele>
        <time>1970-01-01T00:19:48.000Z</time>
      </trkpt>
      <trkpt lat="45.02677" lon="0.6662">
        <ele>111.9</ele>
        <time>1970-01-01T00:19:49.000Z</time>
      </trkpt>
      <trkpt lat="45.02675" lon="0.66611">
        <ele>111.9</ele>
        <time>1970-01-01T00:19:50.000Z</time>
      </trkpt>
      <trkpt lat="45.02673" lon="0.66603">
        <ele>111.9</ele>
        <time>1970-01-01T00:19:51.000Z</time>
      </trkpt>
      <trkpt lat="45.02671" lon="0.66594">
        <ele>111.9</ele>
        <time>1970-01-01T00:19:52.000Z</time>
      </trkpt>
      <trkpt lat="45.02668" lon="0.66586">
        <ele>111.9</ele>
        <time>1970-01-01T00:19:53.000Z</time>
      </trkpt>
      <trkpt lat="45.02666" lon="0.66578">
        <ele>111.9</ele>
        <time>1970-01-01T00:19:54.000Z</time>
      </trkpt>
      <trkpt lat="45.02664" lon="0.6657">
        <ele>110.8</ele>
        <time>1970-01-01T00:19:55.000Z</time>
      </trkpt>
      <trkpt lat="45.02661" lon="0.66563">
        <ele>110.8</ele>
        <time>1970-01-01T00:19:56.000Z</time>
      </trkpt>
      <trkpt lat="45.02659" lon="0.66556">
        <ele>110.8</ele>
        <time>1970-01-01T00:19:57.000Z</time>
      </trkpt>
      <trkpt lat="45.02656" lon="0.6655">
        <ele>110.8</ele>
        <time>1970-01-01T00:19:58.000Z</time>
      </trkpt>
      <trkpt lat="45.02653" lon="0.66544">
        <ele>111.9</ele>
        <time>1970-01-01T00:19:59.000Z</time>
      </trkpt>
      <trkpt lat="45.0265" lon="0.66538">
        <ele>111.9</ele>
        <time>1970-01-01T00:20:00.000Z</time>
      </trkpt>
      <trkpt lat="45.02646" lon="0.66532">
        <ele>111.9</ele>
        <time>1970-01-01T00:20:01.000Z</time>
      </trkpt>
      <trkpt lat="45.02643" lon="0.66527">
        <ele>111.9</ele>
        <time>1970-01-01T00:20:02.000Z</time>
      </trkpt>
      <trkpt lat="45.0264" lon="0.66521">
        <ele>111.9</ele>
        <time>1970-01-01T00:20:03.000Z</time>
      </trkpt>
      <trkpt lat="45.02636" lon="0.66516">
        <ele>111.9</ele>
        <time>1970-01-01T00:20:04.000Z</time>
      </trkpt>
      <trkpt lat="45.02633" lon="0.66511">
        <ele>111.9</ele>
        <time>1970-01-01T00:20:05.000Z</time>
      </trkpt>
      <trkpt lat="45.0263" lon="0.66506">
        <ele>111.9</ele>
        <time>1970-01-01T00:20:06.000Z</time>
      </trkpt>
      <trkpt lat="45.02627" lon="0.66501">
        <ele>111.9</ele>
        <time>1970-01-01T00:20:07.000Z</time>
      </trkpt>
      <trkpt lat="45.02623" lon="0.66497">
        <ele>111.9</ele>
        <time>1970-01-01T00:20:08.000Z</time>
      </trkpt>
      <trkpt lat="45.0262" lon="0.66491">
        <ele>111.9</ele>
        <time>1970-01-01T00:20:09.000Z</time>
      </trkpt>
      <trkpt lat="45.02616" lon="0.66486">
        <ele>111.9</ele>
        <time>1970-01-01T00:20:10.000Z</time>
      </trkpt>
      <trkpt lat="45.02613" lon="0.66481">
        <ele>111.9</ele>
        <time>1970-01-01T00:20:11.000Z</time>
      </trkpt>
      <trkpt lat="45.0261" lon="0.66476">
        <ele>111.9</ele>
        <time>1970-01-01T00:20:12.000Z</time>
      </trkpt>
      <trkpt lat="45.02607" lon="0.66471">
        <ele>111.9</ele>
        <time>1970-01-01T00:20:13.000Z</time>
      </trkpt>
      <trkpt lat="45.02604" lon="0.66466">
        <ele>111.9</ele>
        <time>1970-01-01T00:20:14.000Z</time>
      </trkpt>
      <trkpt lat="45.026" lon="0.66461">
        <ele>111.9</ele>
        <time>1970-01-01T00:20:15.000Z</time>
      </trkpt>
      <trkpt lat="45.02597" lon="0.66456">
        <ele>111.9</ele>
        <time>1970-01-01T00:20:16.000Z</time>
      </trkpt>
      <trkpt lat="45.02594" lon="0.66451">
        <ele>111.9</ele>
        <time>1970-01-01T00:20:17.000Z</time>
      </trkpt>
      <trkpt lat="45.0259" lon="0.66446">
        <ele>111.9</ele>
        <time>1970-01-01T00:20:18.000Z</time>
      </trkpt>
      <trkpt lat="45.02587" lon="0.66441">
        <ele>111.9</ele>
        <time>1970-01-01T00:20:19.000Z</time>
      </trkpt>
      <trkpt lat="45.02584" lon="0.66437">
        <ele>111.9</ele>
        <time>1970-01-01T00:20:20.000Z</time>
      </trkpt>
      <trkpt lat="45.02581" lon="0.66432">
        <ele>111.9</ele>
        <time>1970-01-01T00:20:21.000Z</time>
      </trkpt>
      <trkpt lat="45.02578" lon="0.66428">
        <ele>111.9</ele>
        <time>1970-01-01T00:20:22.000Z</time>
      </trkpt>
      <trkpt lat="45.02574" lon="0.66423">
        <ele>111.9</ele>
        <time>1970-01-01T00:20:23.000Z</time>
      </trkpt>
      <trkpt lat="45.02571" lon="0.66419">
        <ele>111.9</ele>
        <time>1970-01-01T00:20:24.000Z</time>
      </trkpt>
      <trkpt lat="45.02568" lon="0.66415">
        <ele>111.9</ele>
        <time>1970-01-01T00:20:25.000Z</time>
      </trkpt>
      <trkpt lat="45.02566" lon="0.6641">
        <ele>111.9</ele>
        <time>1970-01-01T00:20:26.000Z</time>
      </trkpt>
      <trkpt lat="45.02564" lon="0.66405">
        <ele>111.9</ele>
        <time>1970-01-01T00:20:27.000Z</time>
      </trkpt>
      <trkpt lat="45.02562" lon="0.66399">
        <ele>111.9</ele>
        <time>1970-01-01T00:20:28.000Z</time>
      </trkpt>
      <trkpt lat="45.0256" lon="0.66394">
        <ele>111.9</ele>
        <time>1970-01-01T00:20:29.000Z</time>
      </trkpt>
      <trkpt lat="45.02558" lon="0.66389">
        <ele>111.9</ele>
        <time>1970-01-01T00:20:30.000Z</time>
      </trkpt>
      <trkpt lat="45.02556" lon="0.66384">
        <ele>111.9</ele>
        <time>1970-01-01T00:20:31.000Z</time>
      </trkpt>
      <trkpt lat="45.02554" lon="0.66379">
        <ele>111.9</ele>
        <time>1970-01-01T00:20:32.000Z</time>
      </trkpt>
      <trkpt lat="45.02551" lon="0.66374">
        <ele>111.9</ele>
        <time>1970-01-01T00:20:33.000Z</time>
      </trkpt>
      <trkpt lat="45.02549" lon="0.6637">
        <ele>111.9</ele>
        <time>1970-01-01T00:20:34.000Z</time>
      </trkpt>
      <trkpt lat="45.02546" lon="0.66367">
        <ele>111.9</ele>
        <time>1970-01-01T00:20:35.000Z</time>
      </trkpt>
      <trkpt lat="45.02544" lon="0.66364">
        <ele>111.9</ele>
        <time>1970-01-01T00:20:36.000Z</time>
      </trkpt>
      <trkpt lat="45.0254" lon="0.66362">
        <ele>111.9</ele>
        <time>1970-01-01T00:20:37.000Z</time>
      </trkpt>
      <trkpt lat="45.02537" lon="0.6636">
        <ele>111.9</ele>
        <time>1970-01-01T00:20:38.000Z</time>
      </trkpt>
      <trkpt lat="45.02534" lon="0.66358">
        <ele>113.8</ele>
        <time>1970-01-01T00:20:39.000Z</time>
      </trkpt>
      <trkpt lat="45.0253" lon="0.66357">
        <ele>113.8</ele>
        <time>1970-01-01T00:20:40.000Z</time>
      </trkpt>
      <trkpt lat="45.02526" lon="0.66355">
        <ele>113.8</ele>
        <time>1970-01-01T00:20:41.000Z</time>
      </trkpt>
      <trkpt lat="45.02523" lon="0.66354">
        <ele>113.8</ele>
        <time>1970-01-01T00:20:42.000Z</time>
      </trkpt>
      <trkpt lat="45.02519" lon="0.66353">
        <ele>113.8</ele>
        <time>1970-01-01T00:20:43.000Z</time>
      </trkpt>
      <trkpt lat="45.02515" lon="0.66352">
        <ele>113.8</ele>
        <time>1970-01-01T00:20:44.000Z</time>
      </trkpt>
      <trkpt lat="45.02512" lon="0.66351">
        <ele>113.8</ele>
        <time>1970-01-01T00:20:45.000Z</time>
      </trkpt>
      <trkpt lat="45.02508" lon="0.66349">
        <ele>113.8</ele>
        <time>1970-01-01T00:20:46.000Z</time>
      </trkpt>
      <trkpt lat="45.02504" lon="0.66348">
        <ele>113.8</ele>
        <time>1970-01-01T00:20:47.000Z</time>
      </trkpt>
      <trkpt lat="45.02501" lon="0.66347">
        <ele>113.8</ele>
        <time>1970-01-01T00:20:48.000Z</time>
      </trkpt>
      <trkpt lat="45.02497" lon="0.66346">
        <ele>114.8</ele>
        <time>1970-01-01T00:20:49.000Z</time>
      </trkpt>
      <trkpt lat="45.02493" lon="0.66345">
        <ele>114.8</ele>
        <time>1970-01-01T00:20:50.000Z</time>
      </trkpt>
      <trkpt lat="45.02489" lon="0.66344">
        <ele>114.8</ele>
        <time>1970-01-01T00:20:51.000Z</time>
      </trkpt>
      <trkpt lat="45.02485" lon="0.66343">
        <ele>114.8</ele>
        <time>1970-01-01T00:20:52.000Z</time>
      </trkpt>
      <trkpt lat="45.02481" lon="0.66342">
        <ele>114.8</ele>
        <time>1970-01-01T00:20:53.000Z</time>
      </trkpt>
      <trkpt lat="45.02477" lon="0.66342">
        <ele>114.8</ele>
        <time>1970-01-01T00:20:54.000Z</time>
      </trkpt>
      <trkpt lat="45.02473" lon="0.66342">
        <ele>115.8</ele>
        <time>1970-01-01T00:20:55.000Z</time>
      </trkpt>
      <trkpt lat="45.02469" lon="0.66343">
        <ele>115.8</ele>
        <time>1970-01-01T00:20:56.000Z</time>
      </trkpt>
      <trkpt lat="45.02465" lon="0.66344">
        <ele>115.8</ele>
        <time>1970-01-01T00:20:57.000Z</time>
      </trkpt>
      <trkpt lat="45.0246" lon="0.66345">
        <ele>115.8</ele>
        <time>1970-01-01T00:20:58.000Z</time>
      </trkpt>
      <trkpt lat="45.02455" lon="0.66347">
        <ele>115.8</ele>
        <time>1970-01-01T00:20:59.000Z</time>
      </trkpt>
      <trkpt lat="45.0245" lon="0.66349">
        <ele>115.8</ele>
        <time>1970-01-01T00:21:00.000Z</time>
      </trkpt>
      <trkpt lat="45.02445" lon="0.66351">
        <ele>115.8</ele>
        <time>1970-01-01T00:21:01.000Z</time>
      </trkpt>
      <trkpt lat="45.0244" lon="0.66354">
        <ele>115.8</ele>
        <time>1970-01-01T00:21:02.000Z</time>
      </trkpt>
      <trkpt lat="45.02436" lon="0.66356">
        <ele>115.8</ele>
        <time>1970-01-01T00:21:03.000Z</time>
      </trkpt>
      <trkpt lat="45.02431" lon="0.66358">
        <ele>115.8</ele>
        <time>1970-01-01T00:21:04.000Z</time>
      </trkpt>
      <trkpt lat="45.02426" lon="0.6636">
        <ele>115.8</ele>
        <time>1970-01-01T00:21:05.000Z</time>
      </trkpt>
      <trkpt lat="45.02421" lon="0.66361">
        <ele>115.8</ele>
        <time>1970-01-01T00:21:06.000Z</time>
      </trkpt>
      <trkpt lat="45.02417" lon="0.66362">
        <ele>115.8</ele>
        <time>1970-01-01T00:21:07.000Z</time>
      </trkpt>
      <trkpt lat="45.02412" lon="0.66363">
        <ele>115.8</ele>
        <time>1970-01-01T00:21:08.000Z</time>
      </trkpt>
      <trkpt lat="45.02408" lon="0.66364">
        <ele>115.8</ele>
        <time>1970-01-01T00:21:09.000Z</time>
      </trkpt>
      <trkpt lat="45.02403" lon="0.66365">
        <ele>115.8</ele>
        <time>1970-01-01T00:21:10.000Z</time>
      </trkpt>
      <trkpt lat="45.02399" lon="0.66366">
        <ele>115.8</ele>
        <time>1970-01-01T00:21:11.000Z</time>
      </trkpt>
      <trkpt lat="45.02394" lon="0.66367">
        <ele>115.8</ele>
        <time>1970-01-01T00:21:12.000Z</time>
      </trkpt>
      <trkpt lat="45.02389" lon="0.66368">
        <ele>115.8</ele>
        <time>1970-01-01T00:21:13.000Z</time>
      </trkpt>
      <trkpt lat="45.02384" lon="0.6637">
        <ele>115.8</ele>
        <time>1970-01-01T00:21:14.000Z</time>
      </trkpt>
      <trkpt lat="45.02379" lon="0.66371">
        <ele>115.8</ele>
        <time>1970-01-01T00:21:15.000Z</time>
      </trkpt>
      <trkpt lat="45.02374" lon="0.66374">
        <ele>115.8</ele>
        <time>1970-01-01T00:21:16.000Z</time>
      </trkpt>
      <trkpt lat="45.02369" lon="0.66376">
        <ele>115.8</ele>
        <time>1970-01-01T00:21:17.000Z</time>
      </trkpt>
      <trkpt lat="45.02364" lon="0.66378">
        <ele>115.8</ele>
        <time>1970-01-01T00:21:18.000Z</time>
      </trkpt>
      <trkpt lat="45.0236" lon="0.6638">
        <ele>115.8</ele>
        <time>1970-01-01T00:21:19.000Z</time>
      </trkpt>
      <trkpt lat="45.02356" lon="0.66381">
        <ele>115.8</ele>
        <time>1970-01-01T00:21:20.000Z</time>
      </trkpt>
      <trkpt lat="45.02351" lon="0.66383">
        <ele>115.8</ele>
        <time>1970-01-01T00:21:21.000Z</time>
      </trkpt>
      <trkpt lat="45.02348" lon="0.66385">
        <ele>115.8</ele>
        <time>1970-01-01T00:21:22.000Z</time>
      </trkpt>
      <trkpt lat="45.02344" lon="0.66386">
        <ele>115.8</ele>
        <time>1970-01-01T00:21:23.000Z</time>
      </trkpt>
      <trkpt lat="45.0234" lon="0.66387">
        <ele>115.8</ele>
        <time>1970-01-01T00:21:24.000Z</time>
      </trkpt>
      <trkpt lat="45.02336" lon="0.66389">
        <ele>115.8</ele>
        <time>1970-01-01T00:21:25.000Z</time>
      </trkpt>
      <trkpt lat="45.02332" lon="0.66391">
        <ele>115.8</ele>
        <time>1970-01-01T00:21:26.000Z</time>
      </trkpt>
      <trkpt lat="45.02328" lon="0.66393">
        <ele>115.8</ele>
        <time>1970-01-01T00:21:27.000Z</time>
      </trkpt>
      <trkpt lat="45.02325" lon="0.66395">
        <ele>115.8</ele>
        <time>1970-01-01T00:21:28.000Z</time>
      </trkpt>
      <trkpt lat="45.02321" lon="0.66397">
        <ele>115.8</ele>
        <time>1970-01-01T00:21:29.000Z</time>
      </trkpt>
      <trkpt lat="45.02317" lon="0.664">
        <ele>115.8</ele>
        <time>1970-01-01T00:21:30.000Z</time>
      </trkpt>
      <trkpt lat="45.02312" lon="0.66402">
        <ele>115.8</ele>
        <time>1970-01-01T00:21:31.000Z</time>
      </trkpt>
      <trkpt lat="45.02307" lon="0.66403">
        <ele>115.8</ele>
        <time>1970-01-01T00:21:32.000Z</time>
      </trkpt>
      <trkpt lat="45.02302" lon="0.66404">
        <ele>115.8</ele>
        <time>1970-01-01T00:21:33.000Z</time>
      </trkpt>
      <trkpt lat="45.02297" lon="0.66404">
        <ele>115.8</ele>
        <time>1970-01-01T00:21:34.000Z</time>
      </trkpt>
      <trkpt lat="45.02292" lon="0.66404">
        <ele>115.8</ele>
        <time>1970-01-01T00:21:35.000Z</time>
      </trkpt>
      <trkpt lat="45.02287" lon="0.66404">
        <ele>115.8</ele>
        <time>1970-01-01T00:21:36.000Z</time>
      </trkpt>
      <trkpt lat="45.02282" lon="0.66404">
        <ele>115.8</ele>
        <time>1970-01-01T00:21:37.000Z</time>
      </trkpt>
      <trkpt lat="45.02278" lon="0.66403">
        <ele>115.8</ele>
        <time>1970-01-01T00:21:38.000Z</time>
      </trkpt>
      <trkpt lat="45.02273" lon="0.66402">
        <ele>115.8</ele>
        <time>1970-01-01T00:21:39.000Z</time>
      </trkpt>
      <trkpt lat="45.02268" lon="0.66401">
        <ele>115.8</ele>
        <time>1970-01-01T00:21:40.000Z</time>
      </trkpt>
      <trkpt lat="45.02263" lon="0.664">
        <ele>115.8</ele>
        <time>1970-01-01T00:21:41.000Z</time>
      </trkpt>
      <trkpt lat="45.02259" lon="0.66399">
        <ele>115.8</ele>
        <time>1970-01-01T00:21:42.000Z</time>
      </trkpt>
      <trkpt lat="45.02254" lon="0.66398">
        <ele>115.8</ele>
        <time>1970-01-01T00:21:43.000Z</time>
      </trkpt>
      <trkpt lat="45.02249" lon="0.66396">
        <ele>115.8</ele>
        <time>1970-01-01T00:21:44.000Z</time>
      </trkpt>
      <trkpt lat="45.02245" lon="0.66395">
        <ele>115.8</ele>
        <time>1970-01-01T00:21:45.000Z</time>
      </trkpt>
      <trkpt lat="45.0224" lon="0.66392">
        <ele>115.8</ele>
        <time>1970-01-01T00:21:46.000Z</time>
      </trkpt>
      <trkpt lat="45.02235" lon="0.66391">
        <ele>115.8</ele>
        <time>1970-01-01T00:21:47.000Z</time>
      </trkpt>
      <trkpt lat="45.02231" lon="0.66389">
        <ele>115.8</ele>
        <time>1970-01-01T00:21:48.000Z</time>
      </trkpt>
      <trkpt lat="45.02226" lon="0.66388">
        <ele>115.8</ele>
        <time>1970-01-01T00:21:49.000Z</time>
      </trkpt>
      <trkpt lat="45.02221" lon="0.66386">
        <ele>115.8</ele>
        <time>1970-01-01T00:21:50.000Z</time>
      </trkpt>
      <trkpt lat="45.02216" lon="0.66385">
        <ele>115.8</ele>
        <time>1970-01-01T00:21:51.000Z</time>
      </trkpt>
      <trkpt lat="45.02211" lon="0.66384">
        <ele>115.8</ele>
        <time>1970-01-01T00:21:52.000Z</time>
      </trkpt>
      <trkpt lat="45.02206" lon="0.66383">
        <ele>115.8</ele>
        <time>1970-01-01T00:21:53.000Z</time>
      </trkpt>
      <trkpt lat="45.02201" lon="0.66382">
        <ele>115.8</ele>
        <time>1970-01-01T00:21:54.000Z</time>
      </trkpt>
      <trkpt lat="45.02196" lon="0.66382">
        <ele>115.8</ele>
        <time>1970-01-01T00:21:55.000Z</time>
      </trkpt>
      <trkpt lat="45.02191" lon="0.66382">
        <ele>115.8</ele>
        <time>1970-01-01T00:21:56.000Z</time>
      </trkpt>
      <trkpt lat="45.02186" lon="0.66382">
        <ele>116.9</ele>
        <time>1970-01-01T00:21:57.000Z</time>
      </trkpt>
      <trkpt lat="45.02182" lon="0.66382">
        <ele>116.9</ele>
        <time>1970-01-01T00:21:58.000Z</time>
      </trkpt>
      <trkpt lat="45.02177" lon="0.66382">
        <ele>116.9</ele>
        <time>1970-01-01T00:21:59.000Z</time>
      </trkpt>
      <trkpt lat="45.02172" lon="0.66381">
        <ele>116.9</ele>
        <time>1970-01-01T00:22:00.000Z</time>
      </trkpt>
      <trkpt lat="45.02167" lon="0.66381">
        <ele>116.9</ele>
        <time>1970-01-01T00:22:01.000Z</time>
      </trkpt>
      <trkpt lat="45.02162" lon="0.66381">
        <ele>116.9</ele>
        <time>1970-01-01T00:22:02.000Z</time>
      </trkpt>
      <trkpt lat="45.02157" lon="0.6638">
        <ele>116.9</ele>
        <time>1970-01-01T00:22:03.000Z</time>
      </trkpt>
      <trkpt lat="45.02152" lon="0.6638">
        <ele>116.9</ele>
        <time>1970-01-01T00:22:04.000Z</time>
      </trkpt>
      <trkpt lat="45.02147" lon="0.6638">
        <ele>116.9</ele>
        <time>1970-01-01T00:22:05.000Z</time>
      </trkpt>
      <trkpt lat="45.02142" lon="0.66379">
        <ele>116.9</ele>
        <time>1970-01-01T00:22:06.000Z</time>
      </trkpt>
      <trkpt lat="45.02137" lon="0.66379">
        <ele>116.9</ele>
        <time>1970-01-01T00:22:07.000Z</time>
      </trkpt>
      <trkpt lat="45.02132" lon="0.66378">
        <ele>116.9</ele>
        <time>1970-01-01T00:22:08.000Z</time>
      </trkpt>
      <trkpt lat="45.02128" lon="0.66378">
        <ele>116.9</ele>
        <time>1970-01-01T00:22:09.000Z</time>
      </trkpt>
      <trkpt lat="45.02123" lon="0.66377">
        <ele>116.9</ele>
        <time>1970-01-01T00:22:10.000Z</time>
      </trkpt>
      <trkpt lat="45.02119" lon="0.66376">
        <ele>116.9</ele>
        <time>1970-01-01T00:22:11.000Z</time>
      </trkpt>
      <trkpt lat="45.02114" lon="0.66376">
        <ele>116.9</ele>
        <time>1970-01-01T00:22:12.000Z</time>
      </trkpt>
      <trkpt lat="45.0211" lon="0.66377">
        <ele>115.8</ele>
        <time>1970-01-01T00:22:13.000Z</time>
      </trkpt>
      <trkpt lat="45.02106" lon="0.66378">
        <ele>115.8</ele>
        <time>1970-01-01T00:22:14.000Z</time>
      </trkpt>
      <trkpt lat="45.02102" lon="0.66377">
        <ele>115.8</ele>
        <time>1970-01-01T00:22:15.000Z</time>
      </trkpt>
      <trkpt lat="45.02098" lon="0.66378">
        <ele>115.8</ele>
        <time>1970-01-01T00:22:16.000Z</time>
      </trkpt>
      <trkpt lat="45.02094" lon="0.66378">
        <ele>115.8</ele>
        <time>1970-01-01T00:22:17.000Z</time>
      </trkpt>
      <trkpt lat="45.02089" lon="0.66378">
        <ele>115.8</ele>
        <time>1970-01-01T00:22:18.000Z</time>
      </trkpt>
      <trkpt lat="45.02085" lon="0.66378">
        <ele>116.9</ele>
        <time>1970-01-01T00:22:19.000Z</time>
      </trkpt>
      <trkpt lat="45.02081" lon="0.66378">
        <ele>116.9</ele>
        <time>1970-01-01T00:22:20.000Z</time>
      </trkpt>
      <trkpt lat="45.02076" lon="0.66377">
        <ele>116.9</ele>
        <time>1970-01-01T00:22:21.000Z</time>
      </trkpt>
      <trkpt lat="45.02071" lon="0.66375">
        <ele>116.9</ele>
        <time>1970-01-01T00:22:22.000Z</time>
      </trkpt>
      <trkpt lat="45.02067" lon="0.66374">
        <ele>116.9</ele>
        <time>1970-01-01T00:22:23.000Z</time>
      </trkpt>
      <trkpt lat="45.02063" lon="0.66372">
        <ele>116.9</ele>
        <time>1970-01-01T00:22:24.000Z</time>
      </trkpt>
      <trkpt lat="45.02058" lon="0.66371">
        <ele>116.9</ele>
        <time>1970-01-01T00:22:25.000Z</time>
      </trkpt>
      <trkpt lat="45.02053" lon="0.66369">
        <ele>116.9</ele>
        <time>1970-01-01T00:22:26.000Z</time>
      </trkpt>
      <trkpt lat="45.02048" lon="0.66368">
        <ele>117.8</ele>
        <time>1970-01-01T00:22:27.000Z</time>
      </trkpt>
      <trkpt lat="45.02044" lon="0.66366">
        <ele>117.8</ele>
        <time>1970-01-01T00:22:28.000Z</time>
      </trkpt>
      <trkpt lat="45.02039" lon="0.66365">
        <ele>117.8</ele>
        <time>1970-01-01T00:22:29.000Z</time>
      </trkpt>
      <trkpt lat="45.02035" lon="0.66363">
        <ele>117.8</ele>
        <time>1970-01-01T00:22:30.000Z</time>
      </trkpt>
      <trkpt lat="45.02031" lon="0.66362">
        <ele>117.8</ele>
        <time>1970-01-01T00:22:31.000Z</time>
      </trkpt>
      <trkpt lat="45.02026" lon="0.6636">
        <ele>117.8</ele>
        <time>1970-01-01T00:22:32.000Z</time>
      </trkpt>
      <trkpt lat="45.02022" lon="0.66359">
        <ele>117.8</ele>
        <time>1970-01-01T00:22:33.000Z</time>
      </trkpt>
      <trkpt lat="45.02018" lon="0.66357">
        <ele>117.8</ele>
        <time>1970-01-01T00:22:34.000Z</time>
      </trkpt>
      <trkpt lat="45.02014" lon="0.66356">
        <ele>118.9</ele>
        <time>1970-01-01T00:22:35.000Z</time>
      </trkpt>
      <trkpt lat="45.0201" lon="0.66355">
        <ele>118.9</ele>
        <time>1970-01-01T00:22:36.000Z</time>
      </trkpt>
      <trkpt lat="45.02006" lon="0.66353">
        <ele>118.9</ele>
        <time>1970-01-01T00:22:37.000Z</time>
      </trkpt>
      <trkpt lat="45.02002" lon="0.66352">
        <ele>118.9</ele>
        <time>1970-01-01T00:22:38.000Z</time>
      </trkpt>
      <trkpt lat="45.01997" lon="0.66351">
        <ele>119.8</ele>
        <time>1970-01-01T00:22:39.000Z</time>
      </trkpt>
      <trkpt lat="45.01993" lon="0.6635">
        <ele>119.8</ele>
        <time>1970-01-01T00:22:40.000Z</time>
      </trkpt>
      <trkpt lat="45.01989" lon="0.66349">
        <ele>119.8</ele>
        <time>1970-01-01T00:22:41.000Z</time>
      </trkpt>
      <trkpt lat="45.01985" lon="0.66348">
        <ele>119.8</ele>
        <time>1970-01-01T00:22:42.000Z</time>
      </trkpt>
      <trkpt lat="45.01981" lon="0.66347">
        <ele>119.8</ele>
        <time>1970-01-01T00:22:43.000Z</time>
      </trkpt>
      <trkpt lat="45.01976" lon="0.66347">
        <ele>119.8</ele>
        <time>1970-01-01T00:22:44.000Z</time>
      </trkpt>
      <trkpt lat="45.01972" lon="0.66346">
        <ele>119.8</ele>
        <time>1970-01-01T00:22:45.000Z</time>
      </trkpt>
      <trkpt lat="45.01968" lon="0.66344">
        <ele>119.8</ele>
        <time>1970-01-01T00:22:46.000Z</time>
      </trkpt>
      <trkpt lat="45.01963" lon="0.66343">
        <ele>118.9</ele>
        <time>1970-01-01T00:22:47.000Z</time>
      </trkpt>
      <trkpt lat="45.01959" lon="0.66342">
        <ele>118.9</ele>
        <time>1970-01-01T00:22:48.000Z</time>
      </trkpt>
      <trkpt lat="45.01955" lon="0.6634">
        <ele>119.8</ele>
        <time>1970-01-01T00:22:49.000Z</time>
      </trkpt>
      <trkpt lat="45.01951" lon="0.66338">
        <ele>119.8</ele>
        <time>1970-01-01T00:22:50.000Z</time>
      </trkpt>
      <trkpt lat="45.01946" lon="0.66337">
        <ele>119.8</ele>
        <time>1970-01-01T00:22:51.000Z</time>
      </trkpt>
      <trkpt lat="45.01942" lon="0.66334">
        <ele>119.8</ele>
        <time>1970-01-01T00:22:52.000Z</time>
      </trkpt>
      <trkpt lat="45.01938" lon="0.66332">
        <ele>119.8</ele>
        <time>1970-01-01T00:22:53.000Z</time>
      </trkpt>
      <trkpt lat="45.01934" lon="0.6633">
        <ele>119.8</ele>
        <time>1970-01-01T00:22:54.000Z</time>
      </trkpt>
      <trkpt lat="45.0193" lon="0.66328">
        <ele>118.9</ele>
        <time>1970-01-01T00:22:55.000Z</time>
      </trkpt>
      <trkpt lat="45.01926" lon="0.66326">
        <ele>118.9</ele>
        <time>1970-01-01T00:22:56.000Z</time>
      </trkpt>
      <trkpt lat="45.01922" lon="0.66324">
        <ele>118.9</ele>
        <time>1970-01-01T00:22:57.000Z</time>
      </trkpt>
      <trkpt lat="45.01917" lon="0.66322">
        <ele>118.9</ele>
        <time>1970-01-01T00:22:58.000Z</time>
      </trkpt>
      <trkpt lat="45.01913" lon="0.6632">
        <ele>118.9</ele>
        <time>1970-01-01T00:22:59.000Z</time>
      </trkpt>
      <trkpt lat="45.01909" lon="0.66318">
        <ele>118.9</ele>
        <time>1970-01-01T00:23:00.000Z</time>
      </trkpt>
      <trkpt lat="45.01905" lon="0.66316">
        <ele>118.9</ele>
        <time>1970-01-01T00:23:01.000Z</time>
      </trkpt>
      <trkpt lat="45.01901" lon="0.66314">
        <ele>118.9</ele>
        <time>1970-01-01T00:23:02.000Z</time>
      </trkpt>
      <trkpt lat="45.01897" lon="0.66311">
        <ele>118.9</ele>
        <time>1970-01-01T00:23:03.000Z</time>
      </trkpt>
      <trkpt lat="45.01894" lon="0.66309">
        <ele>118.9</ele>
        <time>1970-01-01T00:23:04.000Z</time>
      </trkpt>
      <trkpt lat="45.0189" lon="0.66306">
        <ele>119.8</ele>
        <time>1970-01-01T00:23:05.000Z</time>
      </trkpt>
      <trkpt lat="45.01886" lon="0.66303">
        <ele>119.8</ele>
        <time>1970-01-01T00:23:06.000Z</time>
      </trkpt>
      <trkpt lat="45.01883" lon="0.66301">
        <ele>119.8</ele>
        <time>1970-01-01T00:23:07.000Z</time>
      </trkpt>
      <trkpt lat="45.0188" lon="0.66299">
        <ele>119.8</ele>
        <time>1970-01-01T00:23:08.000Z</time>
      </trkpt>
      <trkpt lat="45.01876" lon="0.66297">
        <ele>120.9</ele>
        <time>1970-01-01T00:23:09.000Z</time>
      </trkpt>
      <trkpt lat="45.01873" lon="0.66297">
        <ele>120.9</ele>
        <time>1970-01-01T00:23:10.000Z</time>
      </trkpt>
      <trkpt lat="45.01871" lon="0.66299">
        <ele>120.9</ele>
        <time>1970-01-01T00:23:11.000Z</time>
      </trkpt>
      <trkpt lat="45.01869" lon="0.66301">
        <ele>120.9</ele>
        <time>1970-01-01T00:23:12.000Z</time>
      </trkpt>
      <trkpt lat="45.01868" lon="0.66305">
        <ele>120.9</ele>
        <time>1970-01-01T00:23:13.000Z</time>
      </trkpt>
      <trkpt lat="45.01868" lon="0.6631">
        <ele>120.9</ele>
        <time>1970-01-01T00:23:14.000Z</time>
      </trkpt>
      <trkpt lat="45.01868" lon="0.66315">
        <ele>120.9</ele>
        <time>1970-01-01T00:23:15.000Z</time>
      </trkpt>
      <trkpt lat="45.01868" lon="0.66321">
        <ele>120.9</ele>
        <time>1970-01-01T00:23:16.000Z</time>
      </trkpt>
      <trkpt lat="45.01868" lon="0.66328">
        <ele>120.9</ele>
        <time>1970-01-01T00:23:17.000Z</time>
      </trkpt>
      <trkpt lat="45.01869" lon="0.66335">
        <ele>120.9</ele>
        <time>1970-01-01T00:23:18.000Z</time>
      </trkpt>
      <trkpt lat="45.01869" lon="0.66341">
        <ele>120.9</ele>
        <time>1970-01-01T00:23:19.000Z</time>
      </trkpt>
      <trkpt lat="45.01869" lon="0.66349">
        <ele>120.9</ele>
        <time>1970-01-01T00:23:20.000Z</time>
      </trkpt>
      <trkpt lat="45.0187" lon="0.66356">
        <ele>120.9</ele>
        <time>1970-01-01T00:23:21.000Z</time>
      </trkpt>
      <trkpt lat="45.0187" lon="0.66363">
        <ele>120.9</ele>
        <time>1970-01-01T00:23:22.000Z</time>
      </trkpt>
      <trkpt lat="45.0187" lon="0.6637">
        <ele>120.9</ele>
        <time>1970-01-01T00:23:23.000Z</time>
      </trkpt>
      <trkpt lat="45.0187" lon="0.66378">
        <ele>120.9</ele>
        <time>1970-01-01T00:23:24.000Z</time>
      </trkpt>
      <trkpt lat="45.0187" lon="0.66384">
        <ele>120.9</ele>
        <time>1970-01-01T00:23:25.000Z</time>
      </trkpt>
      <trkpt lat="45.0187" lon="0.66391">
        <ele>120.9</ele>
        <time>1970-01-01T00:23:26.000Z</time>
      </trkpt>
      <trkpt lat="45.01869" lon="0.66398">
        <ele>120.9</ele>
        <time>1970-01-01T00:23:27.000Z</time>
      </trkpt>
      <trkpt lat="45.01869" lon="0.66404">
        <ele>120.9</ele>
        <time>1970-01-01T00:23:28.000Z</time>
      </trkpt>
      <trkpt lat="45.01868" lon="0.66411">
        <ele>121.8</ele>
        <time>1970-01-01T00:23:29.000Z</time>
      </trkpt>
      <trkpt lat="45.01866" lon="0.66417">
        <ele>121.8</ele>
        <time>1970-01-01T00:23:30.000Z</time>
      </trkpt>
      <trkpt lat="45.01865" lon="0.66423">
        <ele>121.8</ele>
        <time>1970-01-01T00:23:31.000Z</time>
      </trkpt>
      <trkpt lat="45.01864" lon="0.66429">
        <ele>121.8</ele>
        <time>1970-01-01T00:23:32.000Z</time>
      </trkpt>
      <trkpt lat="45.01862" lon="0.66434">
        <ele>121.8</ele>
        <time>1970-01-01T00:23:33.000Z</time>
      </trkpt>
      <trkpt lat="45.01861" lon="0.66439">
        <ele>121.8</ele>
        <time>1970-01-01T00:23:34.000Z</time>
      </trkpt>
      <trkpt lat="45.01859" lon="0.66444">
        <ele>122.8</ele>
        <time>1970-01-01T00:23:35.000Z</time>
      </trkpt>
      <trkpt lat="45.01858" lon="0.66449">
        <ele>122.8</ele>
        <time>1970-01-01T00:23:36.000Z</time>
      </trkpt>
      <trkpt lat="45.01856" lon="0.66454">
        <ele>122.8</ele>
        <time>1970-01-01T00:23:37.000Z</time>
      </trkpt>
      <trkpt lat="45.01855" lon="0.66459">
        <ele>122.8</ele>
        <time>1970-01-01T00:23:38.000Z</time>
      </trkpt>
      <trkpt lat="45.01853" lon="0.66464">
        <ele>123.9</ele>
        <time>1970-01-01T00:23:39.000Z</time>
      </trkpt>
      <trkpt lat="45.01852" lon="0.66469">
        <ele>123.9</ele>
        <time>1970-01-01T00:23:40.000Z</time>
      </trkpt>
      <trkpt lat="45.01851" lon="0.66473">
        <ele>124.8</ele>
        <time>1970-01-01T00:23:41.000Z</time>
      </trkpt>
      <trkpt lat="45.01849" lon="0.66478">
        <ele>124.8</ele>
        <time>1970-01-01T00:23:42.000Z</time>
      </trkpt>
      <trkpt lat="45.01848" lon="0.66482">
        <ele>124.8</ele>
        <time>1970-01-01T00:23:43.000Z</time>
      </trkpt>
      <trkpt lat="45.01847" lon="0.66487">
        <ele>124.8</ele>
        <time>1970-01-01T00:23:44.000Z</time>
      </trkpt>
      <trkpt lat="45.01846" lon="0.66492">
        <ele>125.9</ele>
        <time>1970-01-01T00:23:45.000Z</time>
      </trkpt>
      <trkpt lat="45.01844" lon="0.66496">
        <ele>125.9</ele>
        <time>1970-01-01T00:23:46.000Z</time>
      </trkpt>
      <trkpt lat="45.01843" lon="0.66501">
        <ele>125.9</ele>
        <time>1970-01-01T00:23:47.000Z</time>
      </trkpt>
      <trkpt lat="45.01842" lon="0.66506">
        <ele>125.9</ele>
        <time>1970-01-01T00:23:48.000Z</time>
      </trkpt>
      <trkpt lat="45.0184" lon="0.6651">
        <ele>126.8</ele>
        <time>1970-01-01T00:23:49.000Z</time>
      </trkpt>
      <trkpt lat="45.01839" lon="0.66515">
        <ele>126.8</ele>
        <time>1970-01-01T00:23:50.000Z</time>
      </trkpt>
      <trkpt lat="45.01838" lon="0.66519">
        <ele>126.8</ele>
        <time>1970-01-01T00:23:51.000Z</time>
      </trkpt>
      <trkpt lat="45.01837" lon="0.66523">
        <ele>126.8</ele>
        <time>1970-01-01T00:23:52.000Z</time>
      </trkpt>
      <trkpt lat="45.01836" lon="0.66528">
        <ele>127.9</ele>
        <time>1970-01-01T00:23:53.000Z</time>
      </trkpt>
      <trkpt lat="45.01834" lon="0.66532">
        <ele>127.9</ele>
        <time>1970-01-01T00:23:54.000Z</time>
      </trkpt>
      <trkpt lat="45.01833" lon="0.66536">
        <ele>128.8</ele>
        <time>1970-01-01T00:23:55.000Z</time>
      </trkpt>
      <trkpt lat="45.01831" lon="0.66541">
        <ele>128.8</ele>
        <time>1970-01-01T00:23:56.000Z</time>
      </trkpt>
      <trkpt lat="45.0183" lon="0.66545">
        <ele>128.8</ele>
        <time>1970-01-01T00:23:57.000Z</time>
      </trkpt>
      <trkpt lat="45.01828" lon="0.66549">
        <ele>128.8</ele>
        <time>1970-01-01T00:23:58.000Z</time>
      </trkpt>
      <trkpt lat="45.01826" lon="0.66553">
        <ele>129.8</ele>
        <time>1970-01-01T00:23:59.000Z</time>
      </trkpt>
      <trkpt lat="45.01824" lon="0.66557">
        <ele>129.8</ele>
        <time>1970-01-01T00:24:00.000Z</time>
      </trkpt>
      <trkpt lat="45.01822" lon="0.6656">
        <ele>129.8</ele>
        <time>1970-01-01T00:24:01.000Z</time>
      </trkpt>
      <trkpt lat="45.0182" lon="0.66564">
        <ele>129.8</ele>
        <time>1970-01-01T00:24:02.000Z</time>
      </trkpt>
      <trkpt lat="45.01818" lon="0.66568">
        <ele>129.8</ele>
        <time>1970-01-01T00:24:03.000Z</time>
      </trkpt>
      <trkpt lat="45.01816" lon="0.66571">
        <ele>129.8</ele>
        <time>1970-01-01T00:24:04.000Z</time>
      </trkpt>
      <trkpt lat="45.01813" lon="0.66575">
        <ele>130.8</ele>
        <time>1970-01-01T00:24:05.000Z</time>
      </trkpt>
      <trkpt lat="45.01811" lon="0.66578">
        <ele>130.8</ele>
        <time>1970-01-01T00:24:06.000Z</time>
      </trkpt>
      <trkpt lat="45.01808" lon="0.66581">
        <ele>131.8</ele>
        <time>1970-01-01T00:24:07.000Z</time>
      </trkpt>
      <trkpt lat="45.01806" lon="0.66584">
        <ele>131.8</ele>
        <time>1970-01-01T00:24:08.000Z</time>
      </trkpt>
      <trkpt lat="45.01803" lon="0.66587">
        <ele>131.8</ele>
        <time>1970-01-01T00:24:09.000Z</time>
      </trkpt>
      <trkpt lat="45.01801" lon="0.6659">
        <ele>131.8</ele>
        <time>1970-01-01T00:24:10.000Z</time>
      </trkpt>
      <trkpt lat="45.01798" lon="0.66593">
        <ele>131.8</ele>
        <time>1970-01-01T00:24:11.000Z</time>
      </trkpt>
      <trkpt lat="45.01796" lon="0.66595">
        <ele>132.9</ele>
        <time>1970-01-01T00:24:12.000Z</time>
      </trkpt>
      <trkpt lat="45.01793" lon="0.66598">
        <ele>132.9</ele>
        <time>1970-01-01T00:24:13.000Z</time>
      </trkpt>
      <trkpt lat="45.01791" lon="0.66601">
        <ele>132.9</ele>
        <time>1970-01-01T00:24:14.000Z</time>
      </trkpt>
      <trkpt lat="45.01788" lon="0.66604">
        <ele>132.9</ele>
        <time>1970-01-01T00:24:15.000Z</time>
      </trkpt>
      <trkpt lat="45.01785" lon="0.66606">
        <ele>132.9</ele>
        <time>1970-01-01T00:24:16.000Z</time>
      </trkpt>
      <trkpt lat="45.01783" lon="0.66609">
        <ele>132.9</ele>
        <time>1970-01-01T00:24:17.000Z</time>
      </trkpt>
      <trkpt lat="45.0178" lon="0.66612">
        <ele>133.8</ele>
        <time>1970-01-01T00:24:18.000Z</time>
      </trkpt>
      <trkpt lat="45.01778" lon="0.66615">
        <ele>133.8</ele>
        <time>1970-01-01T00:24:19.000Z</time>
      </trkpt>
      <trkpt lat="45.01775" lon="0.66618">
        <ele>133.8</ele>
        <time>1970-01-01T00:24:20.000Z</time>
      </trkpt>
      <trkpt lat="45.01773" lon="0.66621">
        <ele>133.8</ele>
        <time>1970-01-01T00:24:21.000Z</time>
      </trkpt>
      <trkpt lat="45.0177" lon="0.66624">
        <ele>134.9</ele>
        <time>1970-01-01T00:24:22.000Z</time>
      </trkpt>
      <trkpt lat="45.01768" lon="0.66627">
        <ele>134.9</ele>
        <time>1970-01-01T00:24:23.000Z</time>
      </trkpt>
      <trkpt lat="45.01765" lon="0.6663">
        <ele>134.9</ele>
        <time>1970-01-01T00:24:24.000Z</time>
      </trkpt>
      <trkpt lat="45.01763" lon="0.66633">
        <ele>134.9</ele>
        <time>1970-01-01T00:24:25.000Z</time>
      </trkpt>
      <trkpt lat="45.0176" lon="0.66635">
        <ele>134.9</ele>
        <time>1970-01-01T00:24:26.000Z</time>
      </trkpt>
      <trkpt lat="45.01758" lon="0.66638">
        <ele>134.9</ele>
        <time>1970-01-01T00:24:27.000Z</time>
      </trkpt>
      <trkpt lat="45.01755" lon="0.66641">
        <ele>135.8</ele>
        <time>1970-01-01T00:24:28.000Z</time>
      </trkpt>
      <trkpt lat="45.01753" lon="0.66644">
        <ele>135.8</ele>
        <time>1970-01-01T00:24:29.000Z</time>
      </trkpt>
      <trkpt lat="45.0175" lon="0.66646">
        <ele>135.8</ele>
        <time>1970-01-01T00:24:30.000Z</time>
      </trkpt>
      <trkpt lat="45.01747" lon="0.66649">
        <ele>135.8</ele>
        <time>1970-01-01T00:24:31.000Z</time>
      </trkpt>
      <trkpt lat="45.01745" lon="0.66651">
        <ele>136.9</ele>
        <time>1970-01-01T00:24:32.000Z</time>
      </trkpt>
      <trkpt lat="45.01742" lon="0.66654">
        <ele>136.9</ele>
        <time>1970-01-01T00:24:33.000Z</time>
      </trkpt>
      <trkpt lat="45.01739" lon="0.66657">
        <ele>136.9</ele>
        <time>1970-01-01T00:24:34.000Z</time>
      </trkpt>
      <trkpt lat="45.01736" lon="0.6666">
        <ele>136.9</ele>
        <time>1970-01-01T00:24:35.000Z</time>
      </trkpt>
      <trkpt lat="45.01734" lon="0.66662">
        <ele>136.9</ele>
        <time>1970-01-01T00:24:36.000Z</time>
      </trkpt>
      <trkpt lat="45.01731" lon="0.66664">
        <ele>136.9</ele>
        <time>1970-01-01T00:24:37.000Z</time>
      </trkpt>
      <trkpt lat="45.01728" lon="0.66666">
        <ele>136.9</ele>
        <time>1970-01-01T00:24:38.000Z</time>
      </trkpt>
      <trkpt lat="45.01725" lon="0.66667">
        <ele>136.9</ele>
        <time>1970-01-01T00:24:39.000Z</time>
      </trkpt>
      <trkpt lat="45.01722" lon="0.66668">
        <ele>137.8</ele>
        <time>1970-01-01T00:24:40.000Z</time>
      </trkpt>
      <trkpt lat="45.01719" lon="0.66668">
        <ele>137.8</ele>
        <time>1970-01-01T00:24:41.000Z</time>
      </trkpt>
      <trkpt lat="45.01717" lon="0.66666">
        <ele>137.8</ele>
        <time>1970-01-01T00:24:42.000Z</time>
      </trkpt>
      <trkpt lat="45.01716" lon="0.66663">
        <ele>137.8</ele>
        <time>1970-01-01T00:24:43.000Z</time>
      </trkpt>
      <trkpt lat="45.01715" lon="0.66659">
        <ele>138.8</ele>
        <time>1970-01-01T00:24:44.000Z</time>
      </trkpt>
      <trkpt lat="45.01716" lon="0.66656">
        <ele>138.8</ele>
        <time>1970-01-01T00:24:45.000Z</time>
      </trkpt>
      <trkpt lat="45.01717" lon="0.66652">
        <ele>139.9</ele>
        <time>1970-01-01T00:24:46.000Z</time>
      </trkpt>
      <trkpt lat="45.01717" lon="0.66648">
        <ele>139.9</ele>
        <time>1970-01-01T00:24:47.000Z</time>
      </trkpt>
      <trkpt lat="45.01718" lon="0.66644">
        <ele>139.9</ele>
        <time>1970-01-01T00:24:48.000Z</time>
      </trkpt>
      <trkpt lat="45.01718" lon="0.6664">
        <ele>139.9</ele>
        <time>1970-01-01T00:24:49.000Z</time>
      </trkpt>
      <trkpt lat="45.01718" lon="0.66637">
        <ele>140.8</ele>
        <time>1970-01-01T00:24:50.000Z</time>
      </trkpt>
      <trkpt lat="45.01719" lon="0.66633">
        <ele>140.8</ele>
        <time>1970-01-01T00:24:51.000Z</time>
      </trkpt>
      <trkpt lat="45.01719" lon="0.6663">
        <ele>141.9</ele>
        <time>1970-01-01T00:24:52.000Z</time>
      </trkpt>
      <trkpt lat="45.0172" lon="0.66626">
        <ele>141.9</ele>
        <time>1970-01-01T00:24:53.000Z</time>
      </trkpt>
      <trkpt lat="45.0172" lon="0.66622">
        <ele>141.9</ele>
        <time>1970-01-01T00:24:54.000Z</time>
      </trkpt>
      <trkpt lat="45.0172" lon="0.66618">
        <ele>141.9</ele>
        <time>1970-01-01T00:24:55.000Z</time>
      </trkpt>
      <trkpt lat="45.0172" lon="0.66614">
        <ele>141.9</ele>
        <time>1970-01-01T00:24:56.000Z</time>
      </trkpt>
      <trkpt lat="45.01721" lon="0.66611">
        <ele>141.9</ele>
        <time>1970-01-01T00:24:57.000Z</time>
      </trkpt>
      <trkpt lat="45.01721" lon="0.66607">
        <ele>141.9</ele>
        <time>1970-01-01T00:24:58.000Z</time>
      </trkpt>
      <trkpt lat="45.01721" lon="0.66603">
        <ele>141.9</ele>
        <time>1970-01-01T00:24:59.000Z</time>
      </trkpt>
      <trkpt lat="45.0172" lon="0.666">
        <ele>141.9</ele>
        <time>1970-01-01T00:25:00.000Z</time>
      </trkpt>
      <trkpt lat="45.0172" lon="0.66596">
        <ele>141.9</ele>
        <time>1970-01-01T00:25:01.000Z</time>
      </trkpt>
      <trkpt lat="45.0172" lon="0.66593">
        <ele>144.8</ele>
        <time>1970-01-01T00:25:02.000Z</time>
      </trkpt>
      <trkpt lat="45.0172" lon="0.66589">
        <ele>144.8</ele>
        <time>1970-01-01T00:25:03.000Z</time>
      </trkpt>
      <trkpt lat="45.0172" lon="0.66585">
        <ele>145.8</ele>
        <time>1970-01-01T00:25:04.000Z</time>
      </trkpt>
      <trkpt lat="45.01719" lon="0.66582">
        <ele>145.8</ele>
        <time>1970-01-01T00:25:05.000Z</time>
      </trkpt>
      <trkpt lat="45.01719" lon="0.66578">
        <ele>145.8</ele>
        <time>1970-01-01T00:25:06.000Z</time>
      </trkpt>
      <trkpt lat="45.01719" lon="0.66574">
        <ele>145.8</ele>
        <time>1970-01-01T00:25:07.000Z</time>
      </trkpt>
      <trkpt lat="45.01718" lon="0.6657">
        <ele>146.8</ele>
        <time>1970-01-01T00:25:08.000Z</time>
      </trkpt>
      <trkpt lat="45.01718" lon="0.66566">
        <ele>146.8</ele>
        <time>1970-01-01T00:25:09.000Z</time>
      </trkpt>
      <trkpt lat="45.01717" lon="0.66562">
        <ele>146.8</ele>
        <time>1970-01-01T00:25:10.000Z</time>
      </trkpt>
      <trkpt lat="45.01717" lon="0.66558">
        <ele>146.8</ele>
        <time>1970-01-01T00:25:11.000Z</time>
      </trkpt>
      <trkpt lat="45.01716" lon="0.66554">
        <ele>146.8</ele>
        <time>1970-01-01T00:25:12.000Z</time>
      </trkpt>
      <trkpt lat="45.01715" lon="0.6655">
        <ele>146.8</ele>
        <time>1970-01-01T00:25:13.000Z</time>
      </trkpt>
      <trkpt lat="45.01715" lon="0.66546">
        <ele>146.8</ele>
        <time>1970-01-01T00:25:14.000Z</time>
      </trkpt>
      <trkpt lat="45.01714" lon="0.66542">
        <ele>146.8</ele>
        <time>1970-01-01T00:25:15.000Z</time>
      </trkpt>
      <trkpt lat="45.01713" lon="0.66537">
        <ele>146.8</ele>
        <time>1970-01-01T00:25:16.000Z</time>
      </trkpt>
      <trkpt lat="45.01712" lon="0.66532">
        <ele>146.8</ele>
        <time>1970-01-01T00:25:17.000Z</time>
      </trkpt>
      <trkpt lat="45.01711" lon="0.66527">
        <ele>146.8</ele>
        <time>1970-01-01T00:25:18.000Z</time>
      </trkpt>
      <trkpt lat="45.0171" lon="0.66522">
        <ele>146.8</ele>
        <time>1970-01-01T00:25:19.000Z</time>
      </trkpt>
      <trkpt lat="45.01709" lon="0.66517">
        <ele>146.8</ele>
        <time>1970-01-01T00:25:20.000Z</time>
      </trkpt>
      <trkpt lat="45.01708" lon="0.66511">
        <ele>146.8</ele>
        <time>1970-01-01T00:25:21.000Z</time>
      </trkpt>
      <trkpt lat="45.01707" lon="0.66506">
        <ele>146.8</ele>
        <time>1970-01-01T00:25:22.000Z</time>
      </trkpt>
      <trkpt lat="45.01706" lon="0.665">
        <ele>146.8</ele>
        <time>1970-01-01T00:25:23.000Z</time>
      </trkpt>
      <trkpt lat="45.01705" lon="0.66494">
        <ele>147.8</ele>
        <time>1970-01-01T00:25:24.000Z</time>
      </trkpt>
      <trkpt lat="45.01704" lon="0.66488">
        <ele>147.8</ele>
        <time>1970-01-01T00:25:25.000Z</time>
      </trkpt>
      <trkpt lat="45.01702" lon="0.66481">
        <ele>147.8</ele>
        <time>1970-01-01T00:25:26.000Z</time>
      </trkpt>
      <trkpt lat="45.01701" lon="0.66475">
        <ele>147.8</ele>
        <time>1970-01-01T00:25:27.000Z</time>
      </trkpt>
      <trkpt lat="45.01699" lon="0.66469">
        <ele>146.8</ele>
        <time>1970-01-01T00:25:28.000Z</time>
      </trkpt>
      <trkpt lat="45.01698" lon="0.66463">
        <ele>146.8</ele>
        <time>1970-01-01T00:25:29.000Z</time>
      </trkpt>
      <trkpt lat="45.01696" lon="0.66455">
        <ele>146.8</ele>
        <time>1970-01-01T00:25:30.000Z</time>
      </trkpt>
      <trkpt lat="45.01695" lon="0.66448">
        <ele>146.8</ele>
        <time>1970-01-01T00:25:31.000Z</time>
      </trkpt>
      <trkpt lat="45.01694" lon="0.66441">
        <ele>146.8</ele>
        <time>1970-01-01T00:25:32.000Z</time>
      </trkpt>
      <trkpt lat="45.01692" lon="0.66433">
        <ele>146.8</ele>
        <time>1970-01-01T00:25:33.000Z</time>
      </trkpt>
      <trkpt lat="45.0169" lon="0.66425">
        <ele>145.8</ele>
        <time>1970-01-01T00:25:34.000Z</time>
      </trkpt>
      <trkpt lat="45.01687" lon="0.66417">
        <ele>145.8</ele>
        <time>1970-01-01T00:25:35.000Z</time>
      </trkpt>
      <trkpt lat="45.01685" lon="0.66409">
        <ele>145.8</ele>
        <time>1970-01-01T00:25:36.000Z</time>
      </trkpt>
      <trkpt lat="45.01681" lon="0.664">
        <ele>145.8</ele>
        <time>1970-01-01T00:25:37.000Z</time>
      </trkpt>
      <trkpt lat="45.01677" lon="0.66391">
        <ele>145.8</ele>
        <time>1970-01-01T00:25:38.000Z</time>
      </trkpt>
      <trkpt lat="45.01673" lon="0.66381">
        <ele>145.8</ele>
        <time>1970-01-01T00:25:39.000Z</time>
      </trkpt>
      <trkpt lat="45.01667" lon="0.66371">
        <ele>145.8</ele>
        <time>1970-01-01T00:25:40.000Z</time>
      </trkpt>
      <trkpt lat="45.01662" lon="0.6636">
        <ele>145.8</ele>
        <time>1970-01-01T00:25:41.000Z</time>
      </trkpt>
      <trkpt lat="45.01656" lon="0.66349">
        <ele>140.8</ele>
        <time>1970-01-01T00:25:42.000Z</time>
      </trkpt>
      <trkpt lat="45.0165" lon="0.66339">
        <ele>140.8</ele>
        <time>1970-01-01T00:25:43.000Z</time>
      </trkpt>
      <trkpt lat="45.01644" lon="0.66327">
        <ele>138.8</ele>
        <time>1970-01-01T00:25:44.000Z</time>
      </trkpt>
      <trkpt lat="45.01638" lon="0.66315">
        <ele>138.8</ele>
        <time>1970-01-01T00:25:45.000Z</time>
      </trkpt>
      <trkpt lat="45.01631" lon="0.66303">
        <ele>134.9</ele>
        <time>1970-01-01T00:25:46.000Z</time>
      </trkpt>
      <trkpt lat="45.01624" lon="0.6629">
        <ele>134.9</ele>
        <time>1970-01-01T00:25:47.000Z</time>
      </trkpt>
      <trkpt lat="45.01616" lon="0.66277">
        <ele>130.8</ele>
        <time>1970-01-01T00:25:48.000Z</time>
      </trkpt>
      <trkpt lat="45.01608" lon="0.66266">
        <ele>130.8</ele>
        <time>1970-01-01T00:25:49.000Z</time>
      </trkpt>
      <trkpt lat="45.01598" lon="0.66255">
        <ele>129.8</ele>
        <time>1970-01-01T00:25:50.000Z</time>
      </trkpt>
      <trkpt lat="45.01589" lon="0.66244">
        <ele>129.8</ele>
        <time>1970-01-01T00:25:51.000Z</time>
      </trkpt>
      <trkpt lat="45.0158" lon="0.66234">
        <ele>127.9</ele>
        <time>1970-01-01T00:25:52.000Z</time>
      </trkpt>
      <trkpt lat="45.01572" lon="0.66223">
        <ele>127.9</ele>
        <time>1970-01-01T00:25:53.000Z</time>
      </trkpt>
      <trkpt lat="45.01564" lon="0.66212">
        <ele>126.8</ele>
        <time>1970-01-01T00:25:54.000Z</time>
      </trkpt>
      <trkpt lat="45.01558" lon="0.662">
        <ele>126.8</ele>
        <time>1970-01-01T00:25:55.000Z</time>
      </trkpt>
      <trkpt lat="45.01552" lon="0.66187">
        <ele>125.9</ele>
        <time>1970-01-01T00:25:56.000Z</time>
      </trkpt>
      <trkpt lat="45.01547" lon="0.66174">
        <ele>125.9</ele>
        <time>1970-01-01T00:25:57.000Z</time>
      </trkpt>
      <trkpt lat="45.01542" lon="0.6616">
        <ele>124.8</ele>
        <time>1970-01-01T00:25:58.000Z</time>
      </trkpt>
      <trkpt lat="45.01539" lon="0.66147">
        <ele>124.8</ele>
        <time>1970-01-01T00:25:59.000Z</time>
      </trkpt>
      <trkpt lat="45.01536" lon="0.66134">
        <ele>123.9</ele>
        <time>1970-01-01T00:26:00.000Z</time>
      </trkpt>
      <trkpt lat="45.01533" lon="0.66123">
        <ele>123.9</ele>
        <time>1970-01-01T00:26:01.000Z</time>
      </trkpt>
      <trkpt lat="45.0153" lon="0.66112">
        <ele>122.8</ele>
        <time>1970-01-01T00:26:02.000Z</time>
      </trkpt>
      <trkpt lat="45.01527" lon="0.66103">
        <ele>122.8</ele>
        <time>1970-01-01T00:26:03.000Z</time>
      </trkpt>
      <trkpt lat="45.01524" lon="0.66091">
        <ele>122.8</ele>
        <time>1970-01-01T00:26:04.000Z</time>
      </trkpt>
      <trkpt lat="45.01521" lon="0.66081">
        <ele>122.8</ele>
        <time>1970-01-01T00:26:05.000Z</time>
      </trkpt>
      <trkpt lat="45.01519" lon="0.66073">
        <ele>123.9</ele>
        <time>1970-01-01T00:26:06.000Z</time>
      </trkpt>
      <trkpt lat="45.01517" lon="0.66064">
        <ele>123.9</ele>
        <time>1970-01-01T00:26:07.000Z</time>
      </trkpt>
      <trkpt lat="45.01514" lon="0.66054">
        <ele>123.9</ele>
        <time>1970-01-01T00:26:08.000Z</time>
      </trkpt>
      <trkpt lat="45.01511" lon="0.66046">
        <ele>123.9</ele>
        <time>1970-01-01T00:26:09.000Z</time>
      </trkpt>
      <trkpt lat="45.01509" lon="0.66038">
        <ele>122.8</ele>
        <time>1970-01-01T00:26:10.000Z</time>
      </trkpt>
      <trkpt lat="45.01507" lon="0.66032">
        <ele>122.8</ele>
        <time>1970-01-01T00:26:11.000Z</time>
      </trkpt>
      <trkpt lat="45.01505" lon="0.66026">
        <ele>122.8</ele>
        <time>1970-01-01T00:26:12.000Z</time>
      </trkpt>
      <trkpt lat="45.01504" lon="0.66019">
        <ele>122.8</ele>
        <time>1970-01-01T00:26:13.000Z</time>
      </trkpt>
      <trkpt lat="45.01502" lon="0.66012">
        <ele>123.9</ele>
        <time>1970-01-01T00:26:14.000Z</time>
      </trkpt>
      <trkpt lat="45.01502" lon="0.66005">
        <ele>123.9</ele>
        <time>1970-01-01T00:26:15.000Z</time>
      </trkpt>
      <trkpt lat="45.01502" lon="0.65999">
        <ele>123.9</ele>
        <time>1970-01-01T00:26:16.000Z</time>
      </trkpt>
      <trkpt lat="45.01503" lon="0.65994">
        <ele>123.9</ele>
        <time>1970-01-01T00:26:17.000Z</time>
      </trkpt>
      <trkpt lat="45.01504" lon="0.6599">
        <ele>124.8</ele>
        <time>1970-01-01T00:26:18.000Z</time>
      </trkpt>
      <trkpt lat="45.01504" lon="0.65985">
        <ele>124.8</ele>
        <time>1970-01-01T00:26:19.000Z</time>
      </trkpt>
      <trkpt lat="45.01505" lon="0.65978">
        <ele>124.8</ele>
        <time>1970-01-01T00:26:20.000Z</time>
      </trkpt>
      <trkpt lat="45.01505" lon="0.65972">
        <ele>124.8</ele>
        <time>1970-01-01T00:26:21.000Z</time>
      </trkpt>
      <trkpt lat="45.01505" lon="0.65967">
        <ele>124.8</ele>
        <time>1970-01-01T00:26:22.000Z</time>
      </trkpt>
      <trkpt lat="45.01504" lon="0.65962">
        <ele>124.8</ele>
        <time>1970-01-01T00:26:23.000Z</time>
      </trkpt>
      <trkpt lat="45.01503" lon="0.65957">
        <ele>124.8</ele>
        <time>1970-01-01T00:26:24.000Z</time>
      </trkpt>
      <trkpt lat="45.01502" lon="0.65953">
        <ele>124.8</ele>
        <time>1970-01-01T00:26:25.000Z</time>
      </trkpt>
      <trkpt lat="45.015" lon="0.65949">
        <ele>124.8</ele>
        <time>1970-01-01T00:26:26.000Z</time>
      </trkpt>
      <trkpt lat="45.01499" lon="0.65944">
        <ele>124.8</ele>
        <time>1970-01-01T00:26:27.000Z</time>
      </trkpt>
      <trkpt lat="45.01497" lon="0.6594">
        <ele>125.9</ele>
        <time>1970-01-01T00:26:28.000Z</time>
      </trkpt>
      <trkpt lat="45.01496" lon="0.65936">
        <ele>125.9</ele>
        <time>1970-01-01T00:26:29.000Z</time>
      </trkpt>
      <trkpt lat="45.01495" lon="0.65933">
        <ele>126.8</ele>
        <time>1970-01-01T00:26:30.000Z</time>
      </trkpt>
      <trkpt lat="45.01493" lon="0.6593">
        <ele>126.8</ele>
        <time>1970-01-01T00:26:31.000Z</time>
      </trkpt>
      <trkpt lat="45.01492" lon="0.65926">
        <ele>126.8</ele>
        <time>1970-01-01T00:26:32.000Z</time>
      </trkpt>
      <trkpt lat="45.01491" lon="0.65923">
        <ele>126.8</ele>
        <time>1970-01-01T00:26:33.000Z</time>
      </trkpt>
      <trkpt lat="45.01489" lon="0.6592">
        <ele>127.9</ele>
        <time>1970-01-01T00:26:34.000Z</time>
      </trkpt>
      <trkpt lat="45.01488" lon="0.65918">
        <ele>127.9</ele>
        <time>1970-01-01T00:26:35.000Z</time>
      </trkpt>
      <trkpt lat="45.01487" lon="0.65916">
        <ele>127.9</ele>
        <time>1970-01-01T00:26:36.000Z</time>
      </trkpt>
      <trkpt lat="45.01486" lon="0.65913">
        <ele>127.9</ele>
        <time>1970-01-01T00:26:37.000Z</time>
      </trkpt>
      <trkpt lat="45.01485" lon="0.6591">
        <ele>127.9</ele>
        <time>1970-01-01T00:26:38.000Z</time>
      </trkpt>
      <trkpt lat="45.01484" lon="0.65907">
        <ele>127.9</ele>
        <time>1970-01-01T00:26:39.000Z</time>
      </trkpt>
      <trkpt lat="45.01483" lon="0.65904">
        <ele>128.8</ele>
        <time>1970-01-01T00:26:40.000Z</time>
      </trkpt>
      <trkpt lat="45.01481" lon="0.65901">
        <ele>128.8</ele>
        <time>1970-01-01T00:26:41.000Z</time>
      </trkpt>
      <trkpt lat="45.0148" lon="0.65899">
        <ele>128.8</ele>
        <time>1970-01-01T00:26:42.000Z</time>
      </trkpt>
      <trkpt lat="45.01479" lon="0.65896">
        <ele>128.8</ele>
        <time>1970-01-01T00:26:43.000Z</time>
      </trkpt>
      <trkpt lat="45.01478" lon="0.65893">
        <ele>129.8</ele>
        <time>1970-01-01T00:26:44.000Z</time>
      </trkpt>
      <trkpt lat="45.01477" lon="0.6589">
        <ele>129.8</ele>
        <time>1970-01-01T00:26:45.000Z</time>
      </trkpt>
      <trkpt lat="45.01477" lon="0.65887">
        <ele>129.8</ele>
        <time>1970-01-01T00:26:46.000Z</time>
      </trkpt>
      <trkpt lat="45.01476" lon="0.65884">
        <ele>129.8</ele>
        <time>1970-01-01T00:26:47.000Z</time>
      </trkpt>
      <trkpt lat="45.01475" lon="0.65882">
        <ele>129.8</ele>
        <time>1970-01-01T00:26:48.000Z</time>
      </trkpt>
      <trkpt lat="45.01475" lon="0.65879">
        <ele>129.8</ele>
        <time>1970-01-01T00:26:49.000Z</time>
      </trkpt>
      <trkpt lat="45.01475" lon="0.65876">
        <ele>129.8</ele>
        <time>1970-01-01T00:26:50.000Z</time>
      </trkpt>
      <trkpt lat="45.01474" lon="0.65873">
        <ele>129.8</ele>
        <time>1970-01-01T00:26:51.000Z</time>
      </trkpt>
      <trkpt lat="45.01473" lon="0.6587">
        <ele>129.8</ele>
        <time>1970-01-01T00:26:52.000Z</time>
      </trkpt>
      <trkpt lat="45.01472" lon="0.65866">
        <ele>129.8</ele>
        <time>1970-01-01T00:26:53.000Z</time>
      </trkpt>
      <trkpt lat="45.01471" lon="0.65863">
        <ele>131.8</ele>
        <time>1970-01-01T00:26:54.000Z</time>
      </trkpt>
      <trkpt lat="45.01471" lon="0.6586">
        <ele>131.8</ele>
        <time>1970-01-01T00:26:55.000Z</time>
      </trkpt>
      <trkpt lat="45.0147" lon="0.65857">
        <ele>132.9</ele>
        <time>1970-01-01T00:26:56.000Z</time>
      </trkpt>
      <trkpt lat="45.01469" lon="0.65854">
        <ele>132.9</ele>
        <time>1970-01-01T00:26:57.000Z</time>
      </trkpt>
      <trkpt lat="45.01469" lon="0.65851">
        <ele>132.9</ele>
        <time>1970-01-01T00:26:58.000Z</time>
      </trkpt>
      <trkpt lat="45.01468" lon="0.65848">
        <ele>132.9</ele>
        <time>1970-01-01T00:26:59.000Z</time>
      </trkpt>
      <trkpt lat="45.01467" lon="0.65845">
        <ele>132.9</ele>
        <time>1970-01-01T00:27:00.000Z</time>
      </trkpt>
      <trkpt lat="45.01467" lon="0.65843">
        <ele>132.9</ele>
        <time>1970-01-01T00:27:01.000Z</time>
      </trkpt>
      <trkpt lat="45.01467" lon="0.6584">
        <ele>133.8</ele>
        <time>1970-01-01T00:27:02.000Z</time>
      </trkpt>
      <trkpt lat="45.01466" lon="0.65838">
        <ele>133.8</ele>
        <time>1970-01-01T00:27:03.000Z</time>
      </trkpt>
      <trkpt lat="45.01465" lon="0.65836">
        <ele>134.9</ele>
        <time>1970-01-01T00:27:04.000Z</time>
      </trkpt>
      <trkpt lat="45.01465" lon="0.65833">
        <ele>134.9</ele>
        <time>1970-01-01T00:27:05.000Z</time>
      </trkpt>
      <trkpt lat="45.01464" lon="0.65831">
        <ele>135.8</ele>
        <time>1970-01-01T00:27:06.000Z</time>
      </trkpt>
      <trkpt lat="45.01463" lon="0.65829">
        <ele>135.8</ele>
        <time>1970-01-01T00:27:07.000Z</time>
      </trkpt>
      <trkpt lat="45.01462" lon="0.65826">
        <ele>136.9</ele>
        <time>1970-01-01T00:27:08.000Z</time>
      </trkpt>
      <trkpt lat="45.01461" lon="0.65824">
        <ele>136.9</ele>
        <time>1970-01-01T00:27:09.000Z</time>
      </trkpt>
      <trkpt lat="45.01461" lon="0.65822">
        <ele>136.9</ele>
        <time>1970-01-01T00:27:10.000Z</time>
      </trkpt>
      <trkpt lat="45.01459" lon="0.65819">
        <ele>136.9</ele>
        <time>1970-01-01T00:27:11.000Z</time>
      </trkpt>
      <trkpt lat="45.01457" lon="0.65817">
        <ele>136.9</ele>
        <time>1970-01-01T00:27:12.000Z</time>
      </trkpt>
      <trkpt lat="45.01455" lon="0.65815">
        <ele>136.9</ele>
        <time>1970-01-01T00:27:13.000Z</time>
      </trkpt>
      <trkpt lat="45.01452" lon="0.65813">
        <ele>136.9</ele>
        <time>1970-01-01T00:27:14.000Z</time>
      </trkpt>
      <trkpt lat="45.01449" lon="0.65811">
        <ele>136.9</ele>
        <time>1970-01-01T00:27:15.000Z</time>
      </trkpt>
      <trkpt lat="45.01445" lon="0.65809">
        <ele>136.9</ele>
        <time>1970-01-01T00:27:16.000Z</time>
      </trkpt>
      <trkpt lat="45.01442" lon="0.65806">
        <ele>136.9</ele>
        <time>1970-01-01T00:27:17.000Z</time>
      </trkpt>
      <trkpt lat="45.01437" lon="0.65803">
        <ele>136.9</ele>
        <time>1970-01-01T00:27:18.000Z</time>
      </trkpt>
      <trkpt lat="45.01432" lon="0.658">
        <ele>136.9</ele>
        <time>1970-01-01T00:27:19.000Z</time>
      </trkpt>
      <trkpt lat="45.01428" lon="0.65798">
        <ele>135.8</ele>
        <time>1970-01-01T00:27:20.000Z</time>
      </trkpt>
      <trkpt lat="45.01422" lon="0.65793">
        <ele>135.8</ele>
        <time>1970-01-01T00:27:21.000Z</time>
      </trkpt>
      <trkpt lat="45.01417" lon="0.6579">
        <ele>135.8</ele>
        <time>1970-01-01T00:27:22.000Z</time>
      </trkpt>
      <trkpt lat="45.01412" lon="0.65787">
        <ele>135.8</ele>
        <time>1970-01-01T00:27:23.000Z</time>
      </trkpt>
      <trkpt lat="45.01404" lon="0.65782">
        <ele>134.9</ele>
        <time>1970-01-01T00:27:24.000Z</time>
      </trkpt>
      <trkpt lat="45.01399" lon="0.65779">
        <ele>134.9</ele>
        <time>1970-01-01T00:27:25.000Z</time>
      </trkpt>
      <trkpt lat="45.01392" lon="0.65774">
        <ele>133.8</ele>
        <time>1970-01-01T00:27:26.000Z</time>
      </trkpt>
      <trkpt lat="45.01386" lon="0.65769">
        <ele>133.8</ele>
        <time>1970-01-01T00:27:27.000Z</time>
      </trkpt>
      <trkpt lat="45.0138" lon="0.65765">
        <ele>133.8</ele>
        <time>1970-01-01T00:27:28.000Z</time>
      </trkpt>
      <trkpt lat="45.01375" lon="0.65759">
        <ele>133.8</ele>
        <time>1970-01-01T00:27:29.000Z</time>
      </trkpt>
      <trkpt lat="45.0137" lon="0.65753">
        <ele>133.8</ele>
        <time>1970-01-01T00:27:30.000Z</time>
      </trkpt>
      <trkpt lat="45.01368" lon="0.65748">
        <ele>133.8</ele>
        <time>1970-01-01T00:27:31.000Z</time>
      </trkpt>
      <trkpt lat="45.01367" lon="0.65742">
        <ele>133.8</ele>
        <time>1970-01-01T00:27:32.000Z</time>
      </trkpt>
      <trkpt lat="45.01366" lon="0.65737">
        <ele>133.8</ele>
        <time>1970-01-01T00:27:33.000Z</time>
      </trkpt>
      <trkpt lat="45.01366" lon="0.65733">
        <ele>131.8</ele>
        <time>1970-01-01T00:27:34.000Z</time>
      </trkpt>
      <trkpt lat="45.01366" lon="0.65728">
        <ele>131.8</ele>
        <time>1970-01-01T00:27:35.000Z</time>
      </trkpt>
      <trkpt lat="45.01365" lon="0.65723">
        <ele>133.8</ele>
        <time>1970-01-01T00:27:36.000Z</time>
      </trkpt>
      <trkpt lat="45.01365" lon="0.65718">
        <ele>133.8</ele>
        <time>1970-01-01T00:27:37.000Z</time>
      </trkpt>
      <trkpt lat="45.01364" lon="0.65713">
        <ele>133.8</ele>
        <time>1970-01-01T00:27:38.000Z</time>
      </trkpt>
      <trkpt lat="45.01364" lon="0.65708">
        <ele>133.8</ele>
        <time>1970-01-01T00:27:39.000Z</time>
      </trkpt>
      <trkpt lat="45.01364" lon="0.65703">
        <ele>134.9</ele>
        <time>1970-01-01T00:27:40.000Z</time>
      </trkpt>
      <trkpt lat="45.01364" lon="0.65698">
        <ele>134.9</ele>
        <time>1970-01-01T00:27:41.000Z</time>
      </trkpt>
      <trkpt lat="45.01364" lon="0.65691">
        <ele>134.9</ele>
        <time>1970-01-01T00:27:42.000Z</time>
      </trkpt>
      <trkpt lat="45.01365" lon="0.65685">
        <ele>134.9</ele>
        <time>1970-01-01T00:27:43.000Z</time>
      </trkpt>
      <trkpt lat="45.01365" lon="0.6568">
        <ele>134.9</ele>
        <time>1970-01-01T00:27:44.000Z</time>
      </trkpt>
      <trkpt lat="45.01365" lon="0.65675">
        <ele>134.9</ele>
        <time>1970-01-01T00:27:45.000Z</time>
      </trkpt>
      <trkpt lat="45.01366" lon="0.65668">
        <ele>134.9</ele>
        <time>1970-01-01T00:27:46.000Z</time>
      </trkpt>
      <trkpt lat="45.01367" lon="0.65663">
        <ele>134.9</ele>
        <time>1970-01-01T00:27:47.000Z</time>
      </trkpt>
      <trkpt lat="45.01367" lon="0.65657">
        <ele>134.9</ele>
        <time>1970-01-01T00:27:48.000Z</time>
      </trkpt>
      <trkpt lat="45.01368" lon="0.65652">
        <ele>134.9</ele>
        <time>1970-01-01T00:27:49.000Z</time>
      </trkpt>
      <trkpt lat="45.01369" lon="0.65646">
        <ele>134.9</ele>
        <time>1970-01-01T00:27:50.000Z</time>
      </trkpt>
      <trkpt lat="45.0137" lon="0.6564">
        <ele>134.9</ele>
        <time>1970-01-01T00:27:51.000Z</time>
      </trkpt>
      <trkpt lat="45.01371" lon="0.65634">
        <ele>133.8</ele>
        <time>1970-01-01T00:27:52.000Z</time>
      </trkpt>
      <trkpt lat="45.01371" lon="0.65629">
        <ele>133.8</ele>
        <time>1970-01-01T00:27:53.000Z</time>
      </trkpt>
      <trkpt lat="45.01371" lon="0.65624">
        <ele>133.8</ele>
        <time>1970-01-01T00:27:54.000Z</time>
      </trkpt>
      <trkpt lat="45.01371" lon="0.65619">
        <ele>133.8</ele>
        <time>1970-01-01T00:27:55.000Z</time>
      </trkpt>
      <trkpt lat="45.01368" lon="0.65613">
        <ele>133.8</ele>
        <time>1970-01-01T00:27:56.000Z</time>
      </trkpt>
      <trkpt lat="45.01365" lon="0.65609">
        <ele>133.8</ele>
        <time>1970-01-01T00:27:57.000Z</time>
      </trkpt>
      <trkpt lat="45.01362" lon="0.65607">
        <ele>133.8</ele>
        <time>1970-01-01T00:27:58.000Z</time>
      </trkpt>
      <trkpt lat="45.01358" lon="0.65604">
        <ele>133.8</ele>
        <time>1970-01-01T00:27:59.000Z</time>
      </trkpt>
      <trkpt lat="45.01354" lon="0.65603">
        <ele>133.8</ele>
        <time>1970-01-01T00:28:00.000Z</time>
      </trkpt>
      <trkpt lat="45.01349" lon="0.65603">
        <ele>133.8</ele>
        <time>1970-01-01T00:28:01.000Z</time>
      </trkpt>
      <trkpt lat="45.01345" lon="0.65605">
        <ele>133.8</ele>
        <time>1970-01-01T00:28:02.000Z</time>
      </trkpt>
      <trkpt lat="45.01341" lon="0.65608">
        <ele>133.8</ele>
        <time>1970-01-01T00:28:03.000Z</time>
      </trkpt>
      <trkpt lat="45.01338" lon="0.6561">
        <ele>133.8</ele>
        <time>1970-01-01T00:28:04.000Z</time>
      </trkpt>
      <trkpt lat="45.01334" lon="0.65612">
        <ele>133.8</ele>
        <time>1970-01-01T00:28:05.000Z</time>
      </trkpt>
      <trkpt lat="45.0133" lon="0.65614">
        <ele>133.8</ele>
        <time>1970-01-01T00:28:06.000Z</time>
      </trkpt>
      <trkpt lat="45.01326" lon="0.65615">
        <ele>133.8</ele>
        <time>1970-01-01T00:28:07.000Z</time>
      </trkpt>
      <trkpt lat="45.01321" lon="0.65617">
        <ele>133.8</ele>
        <time>1970-01-01T00:28:08.000Z</time>
      </trkpt>
      <trkpt lat="45.01315" lon="0.65619">
        <ele>133.8</ele>
        <time>1970-01-01T00:28:09.000Z</time>
      </trkpt>
      <trkpt lat="45.01309" lon="0.65623">
        <ele>133.8</ele>
        <time>1970-01-01T00:28:10.000Z</time>
      </trkpt>
      <trkpt lat="45.01305" lon="0.65628">
        <ele>133.8</ele>
        <time>1970-01-01T00:28:11.000Z</time>
      </trkpt>
      <trkpt lat="45.01301" lon="0.65633">
        <ele>132.9</ele>
        <time>1970-01-01T00:28:12.000Z</time>
      </trkpt>
      <trkpt lat="45.01298" lon="0.65639">
        <ele>132.9</ele>
        <time>1970-01-01T00:28:13.000Z</time>
      </trkpt>
      <trkpt lat="45.01296" lon="0.65645">
        <ele>132.9</ele>
        <time>1970-01-01T00:28:14.000Z</time>
      </trkpt>
      <trkpt lat="45.01295" lon="0.65652">
        <ele>132.9</ele>
        <time>1970-01-01T00:28:15.000Z</time>
      </trkpt>
      <trkpt lat="45.01295" lon="0.65658">
        <ele>132.9</ele>
        <time>1970-01-01T00:28:16.000Z</time>
      </trkpt>
      <trkpt lat="45.01295" lon="0.65665">
        <ele>132.9</ele>
        <time>1970-01-01T00:28:17.000Z</time>
      </trkpt>
      <trkpt lat="45.01296" lon="0.65671">
        <ele>132.9</ele>
        <time>1970-01-01T00:28:18.000Z</time>
      </trkpt>
      <trkpt lat="45.01296" lon="0.65678">
        <ele>132.9</ele>
        <time>1970-01-01T00:28:19.000Z</time>
      </trkpt>
      <trkpt lat="45.01297" lon="0.65685">
        <ele>132.9</ele>
        <time>1970-01-01T00:28:20.000Z</time>
      </trkpt>
      <trkpt lat="45.01298" lon="0.65692">
        <ele>132.9</ele>
        <time>1970-01-01T00:28:21.000Z</time>
      </trkpt>
      <trkpt lat="45.01298" lon="0.65699">
        <ele>132.9</ele>
        <time>1970-01-01T00:28:22.000Z</time>
      </trkpt>
      <trkpt lat="45.01298" lon="0.65706">
        <ele>132.9</ele>
        <time>1970-01-01T00:28:23.000Z</time>
      </trkpt>
      <trkpt lat="45.01299" lon="0.65712">
        <ele>132.9</ele>
        <time>1970-01-01T00:28:24.000Z</time>
      </trkpt>
      <trkpt lat="45.01299" lon="0.65718">
        <ele>132.9</ele>
        <time>1970-01-01T00:28:25.000Z</time>
      </trkpt>
      <trkpt lat="45.01298" lon="0.65723">
        <ele>132.9</ele>
        <time>1970-01-01T00:28:26.000Z</time>
      </trkpt>
      <trkpt lat="45.01296" lon="0.65727">
        <ele>132.9</ele>
        <time>1970-01-01T00:28:27.000Z</time>
      </trkpt>
      <trkpt lat="45.01294" lon="0.6573">
        <ele>132.9</ele>
        <time>1970-01-01T00:28:28.000Z</time>
      </trkpt>
      <trkpt lat="45.01292" lon="0.65731">
        <ele>132.9</ele>
        <time>1970-01-01T00:28:29.000Z</time>
      </trkpt>
      <trkpt lat="45.0129" lon="0.65731">
        <ele>132.9</ele>
        <time>1970-01-01T00:28:30.000Z</time>
      </trkpt>
      <trkpt lat="45.01287" lon="0.65731">
        <ele>132.9</ele>
        <time>1970-01-01T00:28:31.000Z</time>
      </trkpt>
      <trkpt lat="45.01285" lon="0.65731">
        <ele>131.8</ele>
        <time>1970-01-01T00:28:32.000Z</time>
      </trkpt>
      <trkpt lat="45.01282" lon="0.6573">
        <ele>131.8</ele>
        <time>1970-01-01T00:28:33.000Z</time>
      </trkpt>
      <trkpt lat="45.0128" lon="0.65729">
        <ele>131.8</ele>
        <time>1970-01-01T00:28:34.000Z</time>
      </trkpt>
      <trkpt lat="45.01278" lon="0.65728">
        <ele>131.8</ele>
        <time>1970-01-01T00:28:35.000Z</time>
      </trkpt>
      <trkpt lat="45.01275" lon="0.65727">
        <ele>131.8</ele>
        <time>1970-01-01T00:28:36.000Z</time>
      </trkpt>
      <trkpt lat="45.01273" lon="0.65726">
        <ele>131.8</ele>
        <time>1970-01-01T00:28:37.000Z</time>
      </trkpt>
      <trkpt lat="45.0127" lon="0.65726">
        <ele>131.8</ele>
        <time>1970-01-01T00:28:38.000Z</time>
      </trkpt>
      <trkpt lat="45.01268" lon="0.65725">
        <ele>131.8</ele>
        <time>1970-01-01T00:28:39.000Z</time>
      </trkpt>
      <trkpt lat="45.01265" lon="0.65724">
        <ele>131.8</ele>
        <time>1970-01-01T00:28:40.000Z</time>
      </trkpt>
      <trkpt lat="45.01263" lon="0.65723">
        <ele>131.8</ele>
        <time>1970-01-01T00:28:41.000Z</time>
      </trkpt>
      <trkpt lat="45.0126" lon="0.65722">
        <ele>131.8</ele>
        <time>1970-01-01T00:28:42.000Z</time>
      </trkpt>
      <trkpt lat="45.01257" lon="0.65721">
        <ele>131.8</ele>
        <time>1970-01-01T00:28:43.000Z</time>
      </trkpt>
      <trkpt lat="45.01254" lon="0.6572">
        <ele>131.8</ele>
        <time>1970-01-01T00:28:44.000Z</time>
      </trkpt>
      <trkpt lat="45.01252" lon="0.65719">
        <ele>131.8</ele>
        <time>1970-01-01T00:28:45.000Z</time>
      </trkpt>
      <trkpt lat="45.01249" lon="0.65718">
        <ele>132.9</ele>
        <time>1970-01-01T00:28:46.000Z</time>
      </trkpt>
      <trkpt lat="45.01246" lon="0.65717">
        <ele>132.9</ele>
        <time>1970-01-01T00:28:47.000Z</time>
      </trkpt>
      <trkpt lat="45.01244" lon="0.65717">
        <ele>132.9</ele>
        <time>1970-01-01T00:28:48.000Z</time>
      </trkpt>
      <trkpt lat="45.01241" lon="0.65716">
        <ele>132.9</ele>
        <time>1970-01-01T00:28:49.000Z</time>
      </trkpt>
      <trkpt lat="45.01238" lon="0.65715">
        <ele>133.8</ele>
        <time>1970-01-01T00:28:50.000Z</time>
      </trkpt>
      <trkpt lat="45.01236" lon="0.65714">
        <ele>133.8</ele>
        <time>1970-01-01T00:28:51.000Z</time>
      </trkpt>
      <trkpt lat="45.01233" lon="0.65713">
        <ele>133.8</ele>
        <time>1970-01-01T00:28:52.000Z</time>
      </trkpt>
      <trkpt lat="45.01231" lon="0.65712">
        <ele>134.9</ele>
        <time>1970-01-01T00:28:53.000Z</time>
      </trkpt>
      <trkpt lat="45.01229" lon="0.65712">
        <ele>134.9</ele>
        <time>1970-01-01T00:28:54.000Z</time>
      </trkpt>
      <trkpt lat="45.01226" lon="0.65711">
        <ele>134.9</ele>
        <time>1970-01-01T00:28:55.000Z</time>
      </trkpt>
      <trkpt lat="45.01223" lon="0.6571">
        <ele>135.8</ele>
        <time>1970-01-01T00:28:56.000Z</time>
      </trkpt>
      <trkpt lat="45.01221" lon="0.65709">
        <ele>135.8</ele>
        <time>1970-01-01T00:28:57.000Z</time>
      </trkpt>
      <trkpt lat="45.01219" lon="0.65708">
        <ele>135.8</ele>
        <time>1970-01-01T00:28:58.000Z</time>
      </trkpt>
      <trkpt lat="45.01217" lon="0.65708">
        <ele>136.9</ele>
        <time>1970-01-01T00:28:59.000Z</time>
      </trkpt>
      <trkpt lat="45.01214" lon="0.65707">
        <ele>136.9</ele>
        <time>1970-01-01T00:29:00.000Z</time>
      </trkpt>
      <trkpt lat="45.01212" lon="0.65706">
        <ele>136.9</ele>
        <time>1970-01-01T00:29:01.000Z</time>
      </trkpt>
      <trkpt lat="45.0121" lon="0.65705">
        <ele>137.8</ele>
        <time>1970-01-01T00:29:02.000Z</time>
      </trkpt>
      <trkpt lat="45.01207" lon="0.65705">
        <ele>137.8</ele>
        <time>1970-01-01T00:29:03.000Z</time>
      </trkpt>
      <trkpt lat="45.01204" lon="0.65704">
        <ele>138.8</ele>
        <time>1970-01-01T00:29:04.000Z</time>
      </trkpt>
      <trkpt lat="45.01202" lon="0.65704">
        <ele>138.8</ele>
        <time>1970-01-01T00:29:05.000Z</time>
      </trkpt>
      <trkpt lat="45.01199" lon="0.65704">
        <ele>138.8</ele>
        <time>1970-01-01T00:29:06.000Z</time>
      </trkpt>
      <trkpt lat="45.01197" lon="0.65704">
        <ele>139.9</ele>
        <time>1970-01-01T00:29:07.000Z</time>
      </trkpt>
      <trkpt lat="45.01195" lon="0.65704">
        <ele>139.9</ele>
        <time>1970-01-01T00:29:08.000Z</time>
      </trkpt>
      <trkpt lat="45.01193" lon="0.65704">
        <ele>140.8</ele>
        <time>1970-01-01T00:29:09.000Z</time>
      </trkpt>
      <trkpt lat="45.0119" lon="0.65704">
        <ele>140.8</ele>
        <time>1970-01-01T00:29:10.000Z</time>
      </trkpt>
      <trkpt lat="45.01188" lon="0.65704">
        <ele>140.8</ele>
        <time>1970-01-01T00:29:11.000Z</time>
      </trkpt>
      <trkpt lat="45.01185" lon="0.65704">
        <ele>140.8</ele>
        <time>1970-01-01T00:29:12.000Z</time>
      </trkpt>
      <trkpt lat="45.01183" lon="0.65705">
        <ele>141.9</ele>
        <time>1970-01-01T00:29:13.000Z</time>
      </trkpt>
      <trkpt lat="45.01181" lon="0.65705">
        <ele>142.8</ele>
        <time>1970-01-01T00:29:14.000Z</time>
      </trkpt>
      <trkpt lat="45.01178" lon="0.65705">
        <ele>142.8</ele>
        <time>1970-01-01T00:29:15.000Z</time>
      </trkpt>
      <trkpt lat="45.01176" lon="0.65705">
        <ele>142.8</ele>
        <time>1970-01-01T00:29:16.000Z</time>
      </trkpt>
      <trkpt lat="45.01174" lon="0.65705">
        <ele>142.8</ele>
        <time>1970-01-01T00:29:17.000Z</time>
      </trkpt>
      <trkpt lat="45.01171" lon="0.65705">
        <ele>143.9</ele>
        <time>1970-01-01T00:29:18.000Z</time>
      </trkpt>
      <trkpt lat="45.01169" lon="0.65705">
        <ele>143.9</ele>
        <time>1970-01-01T00:29:19.000Z</time>
      </trkpt>
      <trkpt lat="45.01167" lon="0.65705">
        <ele>143.9</ele>
        <time>1970-01-01T00:29:20.000Z</time>
      </trkpt>
      <trkpt lat="45.01164" lon="0.65705">
        <ele>143.9</ele>
        <time>1970-01-01T00:29:21.000Z</time>
      </trkpt>
      <trkpt lat="45.01162" lon="0.65705">
        <ele>144.8</ele>
        <time>1970-01-01T00:29:22.000Z</time>
      </trkpt>
      <trkpt lat="45.0116" lon="0.65705">
        <ele>144.8</ele>
        <time>1970-01-01T00:29:23.000Z</time>
      </trkpt>
      <trkpt lat="45.01158" lon="0.65704">
        <ele>144.8</ele>
        <time>1970-01-01T00:29:24.000Z</time>
      </trkpt>
      <trkpt lat="45.01155" lon="0.65704">
        <ele>144.8</ele>
        <time>1970-01-01T00:29:25.000Z</time>
      </trkpt>
      <trkpt lat="45.01153" lon="0.65704">
        <ele>144.8</ele>
        <time>1970-01-01T00:29:26.000Z</time>
      </trkpt>
      <trkpt lat="45.01151" lon="0.65703">
        <ele>144.8</ele>
        <time>1970-01-01T00:29:27.000Z</time>
      </trkpt>
      <trkpt lat="45.01148" lon="0.65703">
        <ele>144.8</ele>
        <time>1970-01-01T00:29:28.000Z</time>
      </trkpt>
      <trkpt lat="45.01146" lon="0.65702">
        <ele>144.8</ele>
        <time>1970-01-01T00:29:29.000Z</time>
      </trkpt>
      <trkpt lat="45.01144" lon="0.65702">
        <ele>145.8</ele>
        <time>1970-01-01T00:29:30.000Z</time>
      </trkpt>
      <trkpt lat="45.01142" lon="0.65701">
        <ele>145.8</ele>
        <time>1970-01-01T00:29:31.000Z</time>
      </trkpt>
      <trkpt lat="45.0114" lon="0.657">
        <ele>145.8</ele>
        <time>1970-01-01T00:29:32.000Z</time>
      </trkpt>
      <trkpt lat="45.01138" lon="0.65699">
        <ele>145.8</ele>
        <time>1970-01-01T00:29:33.000Z</time>
      </trkpt>
      <trkpt lat="45.01136" lon="0.65698">
        <ele>145.8</ele>
        <time>1970-01-01T00:29:34.000Z</time>
      </trkpt>
      <trkpt lat="45.01134" lon="0.65697">
        <ele>145.8</ele>
        <time>1970-01-01T00:29:35.000Z</time>
      </trkpt>
      <trkpt lat="45.01132" lon="0.65696">
        <ele>145.8</ele>
        <time>1970-01-01T00:29:36.000Z</time>
      </trkpt>
      <trkpt lat="45.0113" lon="0.65694">
        <ele>145.8</ele>
        <time>1970-01-01T00:29:37.000Z</time>
      </trkpt>
      <trkpt lat="45.01128" lon="0.65693">
        <ele>148.9</ele>
        <time>1970-01-01T00:29:38.000Z</time>
      </trkpt>
      <trkpt lat="45.01126" lon="0.65691">
        <ele>148.9</ele>
        <time>1970-01-01T00:29:39.000Z</time>
      </trkpt>
      <trkpt lat="45.01123" lon="0.6569">
        <ele>149.8</ele>
        <time>1970-01-01T00:29:40.000Z</time>
      </trkpt>
      <trkpt lat="45.01121" lon="0.65688">
        <ele>149.8</ele>
        <time>1970-01-01T00:29:41.000Z</time>
      </trkpt>
      <trkpt lat="45.01118" lon="0.65687">
        <ele>148.9</ele>
        <time>1970-01-01T00:29:42.000Z</time>
      </trkpt>
      <trkpt lat="45.01116" lon="0.65686">
        <ele>148.9</ele>
        <time>1970-01-01T00:29:43.000Z</time>
      </trkpt>
      <trkpt lat="45.01114" lon="0.65685">
        <ele>148.9</ele>
        <time>1970-01-01T00:29:44.000Z</time>
      </trkpt>
      <trkpt lat="45.01111" lon="0.65684">
        <ele>148.9</ele>
        <time>1970-01-01T00:29:45.000Z</time>
      </trkpt>
      <trkpt lat="45.01108" lon="0.65683">
        <ele>148.9</ele>
        <time>1970-01-01T00:29:46.000Z</time>
      </trkpt>
      <trkpt lat="45.01105" lon="0.65682">
        <ele>148.9</ele>
        <time>1970-01-01T00:29:47.000Z</time>
      </trkpt>
      <trkpt lat="45.01102" lon="0.65682">
        <ele>148.9</ele>
        <time>1970-01-01T00:29:48.000Z</time>
      </trkpt>
      <trkpt lat="45.01099" lon="0.65681">
        <ele>148.9</ele>
        <time>1970-01-01T00:29:49.000Z</time>
      </trkpt>
      <trkpt lat="45.01097" lon="0.6568">
        <ele>148.9</ele>
        <time>1970-01-01T00:29:50.000Z</time>
      </trkpt>
      <trkpt lat="45.01094" lon="0.65679">
        <ele>148.9</ele>
        <time>1970-01-01T00:29:51.000Z</time>
      </trkpt>
      <trkpt lat="45.01092" lon="0.65678">
        <ele>149.8</ele>
        <time>1970-01-01T00:29:52.000Z</time>
      </trkpt>
      <trkpt lat="45.01089" lon="0.65677">
        <ele>149.8</ele>
        <time>1970-01-01T00:29:53.000Z</time>
      </trkpt>
      <trkpt lat="45.01087" lon="0.65676">
        <ele>149.8</ele>
        <time>1970-01-01T00:29:54.000Z</time>
      </trkpt>
      <trkpt lat="45.01085" lon="0.65674">
        <ele>149.8</ele>
        <time>1970-01-01T00:29:55.000Z</time>
      </trkpt>
      <trkpt lat="45.01083" lon="0.65672">
        <ele>149.8</ele>
        <time>1970-01-01T00:29:56.000Z</time>
      </trkpt>
      <trkpt lat="45.01081" lon="0.65671">
        <ele>149.8</ele>
        <time>1970-01-01T00:29:57.000Z</time>
      </trkpt>
      <trkpt lat="45.01078" lon="0.6567">
        <ele>150.9</ele>
        <time>1970-01-01T00:29:58.000Z</time>
      </trkpt>
      <trkpt lat="45.01076" lon="0.65668">
        <ele>150.9</ele>
        <time>1970-01-01T00:29:59.000Z</time>
      </trkpt>
      <trkpt lat="45.01074" lon="0.65667">
        <ele>150.9</ele>
        <time>1970-01-01T00:30:00.000Z</time>
      </trkpt>
      <trkpt lat="45.01072" lon="0.65666">
        <ele>150.9</ele>
        <time>1970-01-01T00:30:01.000Z</time>
      </trkpt>
      <trkpt lat="45.0107" lon="0.65664">
        <ele>150.9</ele>
        <time>1970-01-01T00:30:02.000Z</time>
      </trkpt>
      <trkpt lat="45.01068" lon="0.65663">
        <ele>150.9</ele>
        <time>1970-01-01T00:30:03.000Z</time>
      </trkpt>
      <trkpt lat="45.01066" lon="0.65661">
        <ele>151.8</ele>
        <time>1970-01-01T00:30:04.000Z</time>
      </trkpt>
      <trkpt lat="45.01064" lon="0.6566">
        <ele>151.8</ele>
        <time>1970-01-01T00:30:05.000Z</time>
      </trkpt>
      <trkpt lat="45.01062" lon="0.65659">
        <ele>151.8</ele>
        <time>1970-01-01T00:30:06.000Z</time>
      </trkpt>
      <trkpt lat="45.0106" lon="0.65657">
        <ele>151.8</ele>
        <time>1970-01-01T00:30:07.000Z</time>
      </trkpt>
      <trkpt lat="45.01059" lon="0.65656">
        <ele>151.8</ele>
        <time>1970-01-01T00:30:08.000Z</time>
      </trkpt>
      <trkpt lat="45.01057" lon="0.65655">
        <ele>151.8</ele>
        <time>1970-01-01T00:30:09.000Z</time>
      </trkpt>
      <trkpt lat="45.01055" lon="0.65654">
        <ele>152.9</ele>
        <time>1970-01-01T00:30:10.000Z</time>
      </trkpt>
      <trkpt lat="45.01053" lon="0.65653">
        <ele>152.9</ele>
        <time>1970-01-01T00:30:11.000Z</time>
      </trkpt>
      <trkpt lat="45.01051" lon="0.65652">
        <ele>152.9</ele>
        <time>1970-01-01T00:30:12.000Z</time>
      </trkpt>
      <trkpt lat="45.01049" lon="0.65651">
        <ele>152.9</ele>
        <time>1970-01-01T00:30:13.000Z</time>
      </trkpt>
      <trkpt lat="45.01047" lon="0.65651">
        <ele>152.9</ele>
        <time>1970-01-01T00:30:14.000Z</time>
      </trkpt>
      <trkpt lat="45.01045" lon="0.6565">
        <ele>152.9</ele>
        <time>1970-01-01T00:30:15.000Z</time>
      </trkpt>
      <trkpt lat="45.01043" lon="0.65649">
        <ele>152.9</ele>
        <time>1970-01-01T00:30:16.000Z</time>
      </trkpt>
      <trkpt lat="45.01041" lon="0.65649">
        <ele>152.9</ele>
        <time>1970-01-01T00:30:17.000Z</time>
      </trkpt>
      <trkpt lat="45.01039" lon="0.65649">
        <ele>152.9</ele>
        <time>1970-01-01T00:30:18.000Z</time>
      </trkpt>
      <trkpt lat="45.01036" lon="0.65648">
        <ele>152.9</ele>
        <time>1970-01-01T00:30:19.000Z</time>
      </trkpt>
      <trkpt lat="45.01034" lon="0.65648">
        <ele>155.9</ele>
        <time>1970-01-01T00:30:20.000Z</time>
      </trkpt>
      <trkpt lat="45.01032" lon="0.65648">
        <ele>155.9</ele>
        <time>1970-01-01T00:30:21.000Z</time>
      </trkpt>
      <trkpt lat="45.0103" lon="0.65648">
        <ele>155.9</ele>
        <time>1970-01-01T00:30:22.000Z</time>
      </trkpt>
      <trkpt lat="45.01028" lon="0.65648">
        <ele>155.9</ele>
        <time>1970-01-01T00:30:23.000Z</time>
      </trkpt>
      <trkpt lat="45.01026" lon="0.65648">
        <ele>156.8</ele>
        <time>1970-01-01T00:30:24.000Z</time>
      </trkpt>
      <trkpt lat="45.01023" lon="0.65648">
        <ele>156.8</ele>
        <time>1970-01-01T00:30:25.000Z</time>
      </trkpt>
      <trkpt lat="45.01021" lon="0.65648">
        <ele>156.8</ele>
        <time>1970-01-01T00:30:26.000Z</time>
      </trkpt>
      <trkpt lat="45.01019" lon="0.65648">
        <ele>156.8</ele>
        <time>1970-01-01T00:30:27.000Z</time>
      </trkpt>
      <trkpt lat="45.01017" lon="0.65647">
        <ele>156.8</ele>
        <time>1970-01-01T00:30:28.000Z</time>
      </trkpt>
      <trkpt lat="45.01015" lon="0.65647">
        <ele>156.8</ele>
        <time>1970-01-01T00:30:29.000Z</time>
      </trkpt>
      <trkpt lat="45.01013" lon="0.65647">
        <ele>158.8</ele>
        <time>1970-01-01T00:30:30.000Z</time>
      </trkpt>
      <trkpt lat="45.01011" lon="0.65646">
        <ele>158.8</ele>
        <time>1970-01-01T00:30:31.000Z</time>
      </trkpt>
      <trkpt lat="45.01009" lon="0.65646">
        <ele>158.8</ele>
        <time>1970-01-01T00:30:32.000Z</time>
      </trkpt>
      <trkpt lat="45.01007" lon="0.65646">
        <ele>158.8</ele>
        <time>1970-01-01T00:30:33.000Z</time>
      </trkpt>
      <trkpt lat="45.01005" lon="0.65645">
        <ele>159.9</ele>
        <time>1970-01-01T00:30:34.000Z</time>
      </trkpt>
      <trkpt lat="45.01003" lon="0.65645">
        <ele>159.9</ele>
        <time>1970-01-01T00:30:35.000Z</time>
      </trkpt>
      <trkpt lat="45.01001" lon="0.65645">
        <ele>159.9</ele>
        <time>1970-01-01T00:30:36.000Z</time>
      </trkpt>
      <trkpt lat="45.00999" lon="0.65644">
        <ele>159.9</ele>
        <time>1970-01-01T00:30:37.000Z</time>
      </trkpt>
      <trkpt lat="45.00997" lon="0.65644">
        <ele>160.8</ele>
        <time>1970-01-01T00:30:38.000Z</time>
      </trkpt>
      <trkpt lat="45.00995" lon="0.65643">
        <ele>160.8</ele>
        <time>1970-01-01T00:30:39.000Z</time>
      </trkpt>
      <trkpt lat="45.00993" lon="0.65643">
        <ele>160.8</ele>
        <time>1970-01-01T00:30:40.000Z</time>
      </trkpt>
      <trkpt lat="45.00991" lon="0.65643">
        <ele>160.8</ele>
        <time>1970-01-01T00:30:41.000Z</time>
      </trkpt>
      <trkpt lat="45.00989" lon="0.65642">
        <ele>161.9</ele>
        <time>1970-01-01T00:30:42.000Z</time>
      </trkpt>
      <trkpt lat="45.00987" lon="0.65642">
        <ele>161.9</ele>
        <time>1970-01-01T00:30:43.000Z</time>
      </trkpt>
      <trkpt lat="45.00985" lon="0.65642">
        <ele>161.9</ele>
        <time>1970-01-01T00:30:44.000Z</time>
      </trkpt>
      <trkpt lat="45.00983" lon="0.65641">
        <ele>161.9</ele>
        <time>1970-01-01T00:30:45.000Z</time>
      </trkpt>
      <trkpt lat="45.00981" lon="0.65641">
        <ele>162.8</ele>
        <time>1970-01-01T00:30:46.000Z</time>
      </trkpt>
      <trkpt lat="45.00979" lon="0.65641">
        <ele>162.8</ele>
        <time>1970-01-01T00:30:47.000Z</time>
      </trkpt>
      <trkpt lat="45.00977" lon="0.65641">
        <ele>162.8</ele>
        <time>1970-01-01T00:30:48.000Z</time>
      </trkpt>
      <trkpt lat="45.00975" lon="0.65641">
        <ele>162.8</ele>
        <time>1970-01-01T00:30:49.000Z</time>
      </trkpt>
      <trkpt lat="45.00973" lon="0.65641">
        <ele>163.8</ele>
        <time>1970-01-01T00:30:50.000Z</time>
      </trkpt>
      <trkpt lat="45.00971" lon="0.65641">
        <ele>163.8</ele>
        <time>1970-01-01T00:30:51.000Z</time>
      </trkpt>
      <trkpt lat="45.00969" lon="0.65641">
        <ele>164.9</ele>
        <time>1970-01-01T00:30:52.000Z</time>
      </trkpt>
      <trkpt lat="45.00967" lon="0.65641">
        <ele>164.9</ele>
        <time>1970-01-01T00:30:53.000Z</time>
      </trkpt>
      <trkpt lat="45.00965" lon="0.65641">
        <ele>165.8</ele>
        <time>1970-01-01T00:30:54.000Z</time>
      </trkpt>
      <trkpt lat="45.00963" lon="0.6564">
        <ele>165.8</ele>
        <time>1970-01-01T00:30:55.000Z</time>
      </trkpt>
      <trkpt lat="45.00961" lon="0.6564">
        <ele>165.8</ele>
        <time>1970-01-01T00:30:56.000Z</time>
      </trkpt>
      <trkpt lat="45.00959" lon="0.65639">
        <ele>165.8</ele>
        <time>1970-01-01T00:30:57.000Z</time>
      </trkpt>
      <trkpt lat="45.00957" lon="0.65638">
        <ele>165.8</ele>
        <time>1970-01-01T00:30:58.000Z</time>
      </trkpt>
      <trkpt lat="45.00955" lon="0.65637">
        <ele>165.8</ele>
        <time>1970-01-01T00:30:59.000Z</time>
      </trkpt>
      <trkpt lat="45.00953" lon="0.65637">
        <ele>166.9</ele>
        <time>1970-01-01T00:31:00.000Z</time>
      </trkpt>
      <trkpt lat="45.00951" lon="0.65636">
        <ele>166.9</ele>
        <time>1970-01-01T00:31:01.000Z</time>
      </trkpt>
      <trkpt lat="45.00949" lon="0.65635">
        <ele>166.9</ele>
        <time>1970-01-01T00:31:02.000Z</time>
      </trkpt>
      <trkpt lat="45.00947" lon="0.65635">
        <ele>166.9</ele>
        <time>1970-01-01T00:31:03.000Z</time>
      </trkpt>
      <trkpt lat="45.00945" lon="0.65634">
        <ele>167.8</ele>
        <time>1970-01-01T00:31:04.000Z</time>
      </trkpt>
      <trkpt lat="45.00943" lon="0.65634">
        <ele>167.8</ele>
        <time>1970-01-01T00:31:05.000Z</time>
      </trkpt>
      <trkpt lat="45.00941" lon="0.65633">
        <ele>167.8</ele>
        <time>1970-01-01T00:31:06.000Z</time>
      </trkpt>
      <trkpt lat="45.00939" lon="0.65632">
        <ele>167.8</ele>
        <time>1970-01-01T00:31:07.000Z</time>
      </trkpt>
      <trkpt lat="45.00937" lon="0.65631">
        <ele>168.9</ele>
        <time>1970-01-01T00:31:08.000Z</time>
      </trkpt>
      <trkpt lat="45.00935" lon="0.6563">
        <ele>168.9</ele>
        <time>1970-01-01T00:31:09.000Z</time>
      </trkpt>
      <trkpt lat="45.00933" lon="0.65629">
        <ele>168.9</ele>
        <time>1970-01-01T00:31:10.000Z</time>
      </trkpt>
      <trkpt lat="45.00931" lon="0.65629">
        <ele>168.9</ele>
        <time>1970-01-01T00:31:11.000Z</time>
      </trkpt>
      <trkpt lat="45.00929" lon="0.65628">
        <ele>168.9</ele>
        <time>1970-01-01T00:31:12.000Z</time>
      </trkpt>
      <trkpt lat="45.00927" lon="0.65628">
        <ele>168.9</ele>
        <time>1970-01-01T00:31:13.000Z</time>
      </trkpt>
      <trkpt lat="45.00925" lon="0.65627">
        <ele>168.9</ele>
        <time>1970-01-01T00:31:14.000Z</time>
      </trkpt>
      <trkpt lat="45.00923" lon="0.65626">
        <ele>168.9</ele>
        <time>1970-01-01T00:31:15.000Z</time>
      </trkpt>
      <trkpt lat="45.00921" lon="0.65625">
        <ele>169.8</ele>
        <time>1970-01-01T00:31:16.000Z</time>
      </trkpt>
      <trkpt lat="45.00919" lon="0.65625">
        <ele>169.8</ele>
        <time>1970-01-01T00:31:17.000Z</time>
      </trkpt>
      <trkpt lat="45.00917" lon="0.65624">
        <ele>169.8</ele>
        <time>1970-01-01T00:31:18.000Z</time>
      </trkpt>
      <trkpt lat="45.00915" lon="0.65623">
        <ele>169.8</ele>
        <time>1970-01-01T00:31:19.000Z</time>
      </trkpt>
      <trkpt lat="45.00913" lon="0.65622">
        <ele>169.8</ele>
        <time>1970-01-01T00:31:20.000Z</time>
      </trkpt>
      <trkpt lat="45.00911" lon="0.65621">
        <ele>169.8</ele>
        <time>1970-01-01T00:31:21.000Z</time>
      </trkpt>
      <trkpt lat="45.00909" lon="0.65621">
        <ele>170.8</ele>
        <time>1970-01-01T00:31:22.000Z</time>
      </trkpt>
      <trkpt lat="45.00907" lon="0.6562">
        <ele>170.8</ele>
        <time>1970-01-01T00:31:23.000Z</time>
      </trkpt>
      <trkpt lat="45.00905" lon="0.65619">
        <ele>171.9</ele>
        <time>1970-01-01T00:31:24.000Z</time>
      </trkpt>
      <trkpt lat="45.00902" lon="0.65618">
        <ele>171.9</ele>
        <time>1970-01-01T00:31:25.000Z</time>
      </trkpt>
      <trkpt lat="45.009" lon="0.65617">
        <ele>171.9</ele>
        <time>1970-01-01T00:31:26.000Z</time>
      </trkpt>
      <trkpt lat="45.00898" lon="0.65616">
        <ele>171.9</ele>
        <time>1970-01-01T00:31:27.000Z</time>
      </trkpt>
      <trkpt lat="45.00896" lon="0.65615">
        <ele>171.9</ele>
        <time>1970-01-01T00:31:28.000Z</time>
      </trkpt>
      <trkpt lat="45.00894" lon="0.65614">
        <ele>171.9</ele>
        <time>1970-01-01T00:31:29.000Z</time>
      </trkpt>
      <trkpt lat="45.00892" lon="0.65614">
        <ele>172.8</ele>
        <time>1970-01-01T00:31:30.000Z</time>
      </trkpt>
      <trkpt lat="45.0089" lon="0.65613">
        <ele>172.8</ele>
        <time>1970-01-01T00:31:31.000Z</time>
      </trkpt>
      <trkpt lat="45.00888" lon="0.65611">
        <ele>173.9</ele>
        <time>1970-01-01T00:31:32.000Z</time>
      </trkpt>
      <trkpt lat="45.00887" lon="0.6561">
        <ele>173.9</ele>
        <time>1970-01-01T00:31:33.000Z</time>
      </trkpt>
      <trkpt lat="45.00885" lon="0.65609">
        <ele>173.9</ele>
        <time>1970-01-01T00:31:34.000Z</time>
      </trkpt>
      <trkpt lat="45.00883" lon="0.65608">
        <ele>173.9</ele>
        <time>1970-01-01T00:31:35.000Z</time>
      </trkpt>
      <trkpt lat="45.00881" lon="0.65608">
        <ele>173.9</ele>
        <time>1970-01-01T00:31:36.000Z</time>
      </trkpt>
      <trkpt lat="45.00879" lon="0.65607">
        <ele>173.9</ele>
        <time>1970-01-01T00:31:37.000Z</time>
      </trkpt>
      <trkpt lat="45.00877" lon="0.65606">
        <ele>173.9</ele>
        <time>1970-01-01T00:31:38.000Z</time>
      </trkpt>
      <trkpt lat="45.00874" lon="0.65605">
        <ele>173.9</ele>
        <time>1970-01-01T00:31:39.000Z</time>
      </trkpt>
      <trkpt lat="45.00872" lon="0.65604">
        <ele>174.8</ele>
        <time>1970-01-01T00:31:40.000Z</time>
      </trkpt>
      <trkpt lat="45.0087" lon="0.65604">
        <ele>174.8</ele>
        <time>1970-01-01T00:31:41.000Z</time>
      </trkpt>
      <trkpt lat="45.00868" lon="0.65604">
        <ele>174.8</ele>
        <time>1970-01-01T00:31:42.000Z</time>
      </trkpt>
      <trkpt lat="45.00866" lon="0.65605">
        <ele>174.8</ele>
        <time>1970-01-01T00:31:43.000Z</time>
      </trkpt>
      <trkpt lat="45.00865" lon="0.65607">
        <ele>175.9</ele>
        <time>1970-01-01T00:31:44.000Z</time>
      </trkpt>
      <trkpt lat="45.00863" lon="0.65608">
        <ele>175.9</ele>
        <time>1970-01-01T00:31:45.000Z</time>
      </trkpt>
      <trkpt lat="45.0086" lon="0.65611">
        <ele>175.9</ele>
        <time>1970-01-01T00:31:46.000Z</time>
      </trkpt>
      <trkpt lat="45.00858" lon="0.65613">
        <ele>175.9</ele>
        <time>1970-01-01T00:31:47.000Z</time>
      </trkpt>
      <trkpt lat="45.00857" lon="0.65615">
        <ele>175.9</ele>
        <time>1970-01-01T00:31:48.000Z</time>
      </trkpt>
      <trkpt lat="45.00854" lon="0.65619">
        <ele>175.9</ele>
        <time>1970-01-01T00:31:49.000Z</time>
      </trkpt>
      <trkpt lat="45.00851" lon="0.65622">
        <ele>175.9</ele>
        <time>1970-01-01T00:31:50.000Z</time>
      </trkpt>
      <trkpt lat="45.00849" lon="0.65625">
        <ele>175.9</ele>
        <time>1970-01-01T00:31:51.000Z</time>
      </trkpt>
      <trkpt lat="45.00847" lon="0.65628">
        <ele>175.9</ele>
        <time>1970-01-01T00:31:52.000Z</time>
      </trkpt>
      <trkpt lat="45.00845" lon="0.65632">
        <ele>175.9</ele>
        <time>1970-01-01T00:31:53.000Z</time>
      </trkpt>
      <trkpt lat="45.00842" lon="0.65636">
        <ele>175.9</ele>
        <time>1970-01-01T00:31:54.000Z</time>
      </trkpt>
      <trkpt lat="45.00839" lon="0.65641">
        <ele>175.9</ele>
        <time>1970-01-01T00:31:55.000Z</time>
      </trkpt>
      <trkpt lat="45.00837" lon="0.65646">
        <ele>175.9</ele>
        <time>1970-01-01T00:31:56.000Z</time>
      </trkpt>
      <trkpt lat="45.00834" lon="0.6565">
        <ele>175.9</ele>
        <time>1970-01-01T00:31:57.000Z</time>
      </trkpt>
      <trkpt lat="45.00832" lon="0.65655">
        <ele>175.9</ele>
        <time>1970-01-01T00:31:58.000Z</time>
      </trkpt>
      <trkpt lat="45.00829" lon="0.6566">
        <ele>175.9</ele>
        <time>1970-01-01T00:31:59.000Z</time>
      </trkpt>
      <trkpt lat="45.00826" lon="0.65664">
        <ele>175.9</ele>
        <time>1970-01-01T00:32:00.000Z</time>
      </trkpt>
      <trkpt lat="45.00823" lon="0.65669">
        <ele>175.9</ele>
        <time>1970-01-01T00:32:01.000Z</time>
      </trkpt>
      <trkpt lat="45.0082" lon="0.65674">
        <ele>175.9</ele>
        <time>1970-01-01T00:32:02.000Z</time>
      </trkpt>
      <trkpt lat="45.00819" lon="0.65679">
        <ele>175.9</ele>
        <time>1970-01-01T00:32:03.000Z</time>
      </trkpt>
      <trkpt lat="45.00819" lon="0.65683">
        <ele>175.9</ele>
        <time>1970-01-01T00:32:04.000Z</time>
      </trkpt>
      <trkpt lat="45.00821" lon="0.65687">
        <ele>175.9</ele>
        <time>1970-01-01T00:32:05.000Z</time>
      </trkpt>
      <trkpt lat="45.00823" lon="0.65691">
        <ele>175.9</ele>
        <time>1970-01-01T00:32:06.000Z</time>
      </trkpt>
      <trkpt lat="45.00826" lon="0.65695">
        <ele>175.9</ele>
        <time>1970-01-01T00:32:07.000Z</time>
      </trkpt>
      <trkpt lat="45.00829" lon="0.65699">
        <ele>172.8</ele>
        <time>1970-01-01T00:32:08.000Z</time>
      </trkpt>
      <trkpt lat="45.00832" lon="0.65703">
        <ele>172.8</ele>
        <time>1970-01-01T00:32:09.000Z</time>
      </trkpt>
      <trkpt lat="45.00836" lon="0.65708">
        <ele>172.8</ele>
        <time>1970-01-01T00:32:10.000Z</time>
      </trkpt>
      <trkpt lat="45.0084" lon="0.65713">
        <ele>172.8</ele>
        <time>1970-01-01T00:32:11.000Z</time>
      </trkpt>
      <trkpt lat="45.00845" lon="0.65718">
        <ele>171.9</ele>
        <time>1970-01-01T00:32:12.000Z</time>
      </trkpt>
      <trkpt lat="45.00849" lon="0.65724">
        <ele>171.9</ele>
        <time>1970-01-01T00:32:13.000Z</time>
      </trkpt>
      <trkpt lat="45.00854" lon="0.6573">
        <ele>170.8</ele>
        <time>1970-01-01T00:32:14.000Z</time>
      </trkpt>
      <trkpt lat="45.00859" lon="0.65736">
        <ele>170.8</ele>
        <time>1970-01-01T00:32:15.000Z</time>
      </trkpt>
      <trkpt lat="45.00865" lon="0.65743">
        <ele>170.8</ele>
        <time>1970-01-01T00:32:16.000Z</time>
      </trkpt>
      <trkpt lat="45.00871" lon="0.65749">
        <ele>170.8</ele>
        <time>1970-01-01T00:32:17.000Z</time>
      </trkpt>
      <trkpt lat="45.00877" lon="0.65756">
        <ele>170.8</ele>
        <time>1970-01-01T00:32:18.000Z</time>
      </trkpt>
      <trkpt lat="45.00883" lon="0.65762">
        <ele>170.8</ele>
        <time>1970-01-01T00:32:19.000Z</time>
      </trkpt>
      <trkpt lat="45.00888" lon="0.65768">
        <ele>167.8</ele>
        <time>1970-01-01T00:32:20.000Z</time>
      </trkpt>
      <trkpt lat="45.00893" lon="0.65774">
        <ele>167.8</ele>
        <time>1970-01-01T00:32:21.000Z</time>
      </trkpt>
      <trkpt lat="45.00898" lon="0.65781">
        <ele>166.9</ele>
        <time>1970-01-01T00:32:22.000Z</time>
      </trkpt>
      <trkpt lat="45.00905" lon="0.65789">
        <ele>166.9</ele>
        <time>1970-01-01T00:32:23.000Z</time>
      </trkpt>
      <trkpt lat="45.00911" lon="0.65796">
        <ele>165.8</ele>
        <time>1970-01-01T00:32:24.000Z</time>
      </trkpt>
      <trkpt lat="45.00916" lon="0.65802">
        <ele>165.8</ele>
        <time>1970-01-01T00:32:25.000Z</time>
      </trkpt>
      <trkpt lat="45.00922" lon="0.65809">
        <ele>165.8</ele>
        <time>1970-01-01T00:32:26.000Z</time>
      </trkpt>
      <trkpt lat="45.00927" lon="0.65815">
        <ele>165.8</ele>
        <time>1970-01-01T00:32:27.000Z</time>
      </trkpt>
      <trkpt lat="45.00932" lon="0.65821">
        <ele>164.9</ele>
        <time>1970-01-01T00:32:28.000Z</time>
      </trkpt>
      <trkpt lat="45.00937" lon="0.65827">
        <ele>164.9</ele>
        <time>1970-01-01T00:32:29.000Z</time>
      </trkpt>
      <trkpt lat="45.00941" lon="0.65832">
        <ele>164.9</ele>
        <time>1970-01-01T00:32:30.000Z</time>
      </trkpt>
      <trkpt lat="45.00945" lon="0.65838">
        <ele>164.9</ele>
        <time>1970-01-01T00:32:31.000Z</time>
      </trkpt>
      <trkpt lat="45.0095" lon="0.65843">
        <ele>164.9</ele>
        <time>1970-01-01T00:32:32.000Z</time>
      </trkpt>
      <trkpt lat="45.00954" lon="0.65849">
        <ele>164.9</ele>
        <time>1970-01-01T00:32:33.000Z</time>
      </trkpt>
      <trkpt lat="45.00958" lon="0.65854">
        <ele>164.9</ele>
        <time>1970-01-01T00:32:34.000Z</time>
      </trkpt>
      <trkpt lat="45.00962" lon="0.65859">
        <ele>164.9</ele>
        <time>1970-01-01T00:32:35.000Z</time>
      </trkpt>
      <trkpt lat="45.00966" lon="0.65864">
        <ele>164.9</ele>
        <time>1970-01-01T00:32:36.000Z</time>
      </trkpt>
      <trkpt lat="45.0097" lon="0.65869">
        <ele>164.9</ele>
        <time>1970-01-01T00:32:37.000Z</time>
      </trkpt>
      <trkpt lat="45.00973" lon="0.65874">
        <ele>164.9</ele>
        <time>1970-01-01T00:32:38.000Z</time>
      </trkpt>
      <trkpt lat="45.00977" lon="0.65878">
        <ele>164.9</ele>
        <time>1970-01-01T00:32:39.000Z</time>
      </trkpt>
      <trkpt lat="45.0098" lon="0.65883">
        <ele>164.9</ele>
        <time>1970-01-01T00:32:40.000Z</time>
      </trkpt>
      <trkpt lat="45.00983" lon="0.65887">
        <ele>164.9</ele>
        <time>1970-01-01T00:32:41.000Z</time>
      </trkpt>
      <trkpt lat="45.00986" lon="0.6589">
        <ele>164.9</ele>
        <time>1970-01-01T00:32:42.000Z</time>
      </trkpt>
      <trkpt lat="45.00989" lon="0.65892">
        <ele>164.9</ele>
        <time>1970-01-01T00:32:43.000Z</time>
      </trkpt>
      <trkpt lat="45.00992" lon="0.65894">
        <ele>165.8</ele>
        <time>1970-01-01T00:32:44.000Z</time>
      </trkpt>
      <trkpt lat="45.00996" lon="0.65895">
        <ele>165.8</ele>
        <time>1970-01-01T00:32:45.000Z</time>
      </trkpt>
      <trkpt lat="45.00999" lon="0.65896">
        <ele>165.8</ele>
        <time>1970-01-01T00:32:46.000Z</time>
      </trkpt>
      <trkpt lat="45.01002" lon="0.65897">
        <ele>165.8</ele>
        <time>1970-01-01T00:32:47.000Z</time>
      </trkpt>
      <trkpt lat="45.01007" lon="0.65897">
        <ele>167.8</ele>
        <time>1970-01-01T00:32:48.000Z</time>
      </trkpt>
      <trkpt lat="45.0101" lon="0.65898">
        <ele>167.8</ele>
        <time>1970-01-01T00:32:49.000Z</time>
      </trkpt>
      <trkpt lat="45.01015" lon="0.65898">
        <ele>168.9</ele>
        <time>1970-01-01T00:32:50.000Z</time>
      </trkpt>
      <trkpt lat="45.01019" lon="0.65898">
        <ele>168.9</ele>
        <time>1970-01-01T00:32:51.000Z</time>
      </trkpt>
      <trkpt lat="45.01023" lon="0.65898">
        <ele>168.9</ele>
        <time>1970-01-01T00:32:52.000Z</time>
      </trkpt>
      <trkpt lat="45.01027" lon="0.65898">
        <ele>168.9</ele>
        <time>1970-01-01T00:32:53.000Z</time>
      </trkpt>
      <trkpt lat="45.01031" lon="0.65899">
        <ele>168.9</ele>
        <time>1970-01-01T00:32:54.000Z</time>
      </trkpt>
      <trkpt lat="45.01036" lon="0.659">
        <ele>168.9</ele>
        <time>1970-01-01T00:32:55.000Z</time>
      </trkpt>
      <trkpt lat="45.0104" lon="0.65901">
        <ele>168.9</ele>
        <time>1970-01-01T00:32:56.000Z</time>
      </trkpt>
      <trkpt lat="45.01045" lon="0.65903">
        <ele>168.9</ele>
        <time>1970-01-01T00:32:57.000Z</time>
      </trkpt>
      <trkpt lat="45.0105" lon="0.65904">
        <ele>167.8</ele>
        <time>1970-01-01T00:32:58.000Z</time>
      </trkpt>
      <trkpt lat="45.01055" lon="0.65906">
        <ele>167.8</ele>
        <time>1970-01-01T00:32:59.000Z</time>
      </trkpt>
      <trkpt lat="45.01061" lon="0.65909">
        <ele>167.8</ele>
        <time>1970-01-01T00:33:00.000Z</time>
      </trkpt>
      <trkpt lat="45.01066" lon="0.65912">
        <ele>167.8</ele>
        <time>1970-01-01T00:33:01.000Z</time>
      </trkpt>
      <trkpt lat="45.01072" lon="0.65915">
        <ele>166.9</ele>
        <time>1970-01-01T00:33:02.000Z</time>
      </trkpt>
      <trkpt lat="45.01077" lon="0.65919">
        <ele>166.9</ele>
        <time>1970-01-01T00:33:03.000Z</time>
      </trkpt>
      <trkpt lat="45.01083" lon="0.65922">
        <ele>165.8</ele>
        <time>1970-01-01T00:33:04.000Z</time>
      </trkpt>
      <trkpt lat="45.01088" lon="0.65927">
        <ele>165.8</ele>
        <time>1970-01-01T00:33:05.000Z</time>
      </trkpt>
      <trkpt lat="45.01094" lon="0.65932">
        <ele>165.8</ele>
        <time>1970-01-01T00:33:06.000Z</time>
      </trkpt>
      <trkpt lat="45.011" lon="0.65937">
        <ele>165.8</ele>
        <time>1970-01-01T00:33:07.000Z</time>
      </trkpt>
      <trkpt lat="45.01105" lon="0.65942">
        <ele>165.8</ele>
        <time>1970-01-01T00:33:08.000Z</time>
      </trkpt>
      <trkpt lat="45.0111" lon="0.65948">
        <ele>165.8</ele>
        <time>1970-01-01T00:33:09.000Z</time>
      </trkpt>
      <trkpt lat="45.01114" lon="0.65955">
        <ele>165.8</ele>
        <time>1970-01-01T00:33:10.000Z</time>
      </trkpt>
      <trkpt lat="45.01116" lon="0.65964">
        <ele>165.8</ele>
        <time>1970-01-01T00:33:11.000Z</time>
      </trkpt>
      <trkpt lat="45.01118" lon="0.65974">
        <ele>165.8</ele>
        <time>1970-01-01T00:33:12.000Z</time>
      </trkpt>
      <trkpt lat="45.01119" lon="0.65983">
        <ele>165.8</ele>
        <time>1970-01-01T00:33:13.000Z</time>
      </trkpt>
      <trkpt lat="45.0112" lon="0.65992">
        <ele>159.9</ele>
        <time>1970-01-01T00:33:14.000Z</time>
      </trkpt>
      <trkpt lat="45.0112" lon="0.66">
        <ele>159.9</ele>
        <time>1970-01-01T00:33:15.000Z</time>
      </trkpt>
      <trkpt lat="45.01119" lon="0.66009">
        <ele>158.8</ele>
        <time>1970-01-01T00:33:16.000Z</time>
      </trkpt>
      <trkpt lat="45.01117" lon="0.66018">
        <ele>158.8</ele>
        <time>1970-01-01T00:33:17.000Z</time>
      </trkpt>
      <trkpt lat="45.01112" lon="0.66026">
        <ele>157.9</ele>
        <time>1970-01-01T00:33:18.000Z</time>
      </trkpt>
      <trkpt lat="45.01106" lon="0.66032">
        <ele>157.9</ele>
        <time>1970-01-01T00:33:19.000Z</time>
      </trkpt>
      <trkpt lat="45.01099" lon="0.6604">
        <ele>157.9</ele>
        <time>1970-01-01T00:33:20.000Z</time>
      </trkpt>
      <trkpt lat="45.01092" lon="0.66047">
        <ele>157.9</ele>
        <time>1970-01-01T00:33:21.000Z</time>
      </trkpt>
      <trkpt lat="45.01085" lon="0.66054">
        <ele>157.9</ele>
        <time>1970-01-01T00:33:22.000Z</time>
      </trkpt>
      <trkpt lat="45.01077" lon="0.66062">
        <ele>157.9</ele>
        <time>1970-01-01T00:33:23.000Z</time>
      </trkpt>
      <trkpt lat="45.01071" lon="0.66068">
        <ele>149.8</ele>
        <time>1970-01-01T00:33:24.000Z</time>
      </trkpt>
      <trkpt lat="45.01064" lon="0.6607">
        <ele>149.8</ele>
        <time>1970-01-01T00:33:25.000Z</time>
      </trkpt>
      <trkpt lat="45.01058" lon="0.6607">
        <ele>147.8</ele>
        <time>1970-01-01T00:33:26.000Z</time>
      </trkpt>
      <trkpt lat="45.01052" lon="0.6607">
        <ele>147.8</ele>
        <time>1970-01-01T00:33:27.000Z</time>
      </trkpt>
      <trkpt lat="45.01047" lon="0.6607">
        <ele>145.8</ele>
        <time>1970-01-01T00:33:28.000Z</time>
      </trkpt>
      <trkpt lat="45.0104" lon="0.6607">
        <ele>145.8</ele>
        <time>1970-01-01T00:33:29.000Z</time>
      </trkpt>
      <trkpt lat="45.01033" lon="0.66069">
        <ele>143.9</ele>
        <time>1970-01-01T00:33:30.000Z</time>
      </trkpt>
      <trkpt lat="45.01026" lon="0.6607">
        <ele>143.9</ele>
        <time>1970-01-01T00:33:31.000Z</time>
      </trkpt>
      <trkpt lat="45.01019" lon="0.66069">
        <ele>142.8</ele>
        <time>1970-01-01T00:33:32.000Z</time>
      </trkpt>
      <trkpt lat="45.01013" lon="0.66065">
        <ele>142.8</ele>
        <time>1970-01-01T00:33:33.000Z</time>
      </trkpt>
      <trkpt lat="45.01007" lon="0.66061">
        <ele>141.9</ele>
        <time>1970-01-01T00:33:34.000Z</time>
      </trkpt>
      <trkpt lat="45.01001" lon="0.66059">
        <ele>141.9</ele>
        <time>1970-01-01T00:33:35.000Z</time>
      </trkpt>
      <trkpt lat="45.00993" lon="0.66059">
        <ele>140.8</ele>
        <time>1970-01-01T00:33:36.000Z</time>
      </trkpt>
      <trkpt lat="45.00987" lon="0.66059">
        <ele>140.8</ele>
        <time>1970-01-01T00:33:37.000Z</time>
      </trkpt>
      <trkpt lat="45.00981" lon="0.66059">
        <ele>140.8</ele>
        <time>1970-01-01T00:33:38.000Z</time>
      </trkpt>
      <trkpt lat="45.00977" lon="0.6606">
        <ele>140.8</ele>
        <time>1970-01-01T00:33:39.000Z</time>
      </trkpt>
      <trkpt lat="45.00972" lon="0.66062">
        <ele>139.9</ele>
        <time>1970-01-01T00:33:40.000Z</time>
      </trkpt>
      <trkpt lat="45.00969" lon="0.66064">
        <ele>139.9</ele>
        <time>1970-01-01T00:33:41.000Z</time>
      </trkpt>
      <trkpt lat="45.00965" lon="0.66067">
        <ele>139.9</ele>
        <time>1970-01-01T00:33:42.000Z</time>
      </trkpt>
      <trkpt lat="45.00962" lon="0.66073">
        <ele>139.9</ele>
        <time>1970-01-01T00:33:43.000Z</time>
      </trkpt>
      <trkpt lat="45.0096" lon="0.66081">
        <ele>138.8</ele>
        <time>1970-01-01T00:33:44.000Z</time>
      </trkpt>
      <trkpt lat="45.00958" lon="0.66089">
        <ele>138.8</ele>
        <time>1970-01-01T00:33:45.000Z</time>
      </trkpt>
      <trkpt lat="45.00957" lon="0.66099">
        <ele>136.9</ele>
        <time>1970-01-01T00:33:46.000Z</time>
      </trkpt>
      <trkpt lat="45.00956" lon="0.66109">
        <ele>136.9</ele>
        <time>1970-01-01T00:33:47.000Z</time>
      </trkpt>
      <trkpt lat="45.00958" lon="0.66117">
        <ele>135.8</ele>
        <time>1970-01-01T00:33:48.000Z</time>
      </trkpt>
      <trkpt lat="45.00962" lon="0.66123">
        <ele>135.8</ele>
        <time>1970-01-01T00:33:49.000Z</time>
      </trkpt>
      <trkpt lat="45.00966" lon="0.66129">
        <ele>133.8</ele>
        <time>1970-01-01T00:33:50.000Z</time>
      </trkpt>
      <trkpt lat="45.00971" lon="0.66135">
        <ele>133.8</ele>
        <time>1970-01-01T00:33:51.000Z</time>
      </trkpt>
      <trkpt lat="45.00975" lon="0.66142">
        <ele>132.9</ele>
        <time>1970-01-01T00:33:52.000Z</time>
      </trkpt>
      <trkpt lat="45.00978" lon="0.66149">
        <ele>132.9</ele>
        <time>1970-01-01T00:33:53.000Z</time>
      </trkpt>
      <trkpt lat="45.0098" lon="0.66157">
        <ele>131.8</ele>
        <time>1970-01-01T00:33:54.000Z</time>
      </trkpt>
      <trkpt lat="45.00981" lon="0.66165">
        <ele>131.8</ele>
        <time>1970-01-01T00:33:55.000Z</time>
      </trkpt>
      <trkpt lat="45.00982" lon="0.66172">
        <ele>131.8</ele>
        <time>1970-01-01T00:33:56.000Z</time>
      </trkpt>
      <trkpt lat="45.00982" lon="0.6618">
        <ele>131.8</ele>
        <time>1970-01-01T00:33:57.000Z</time>
      </trkpt>
      <trkpt lat="45.00982" lon="0.66187">
        <ele>130.8</ele>
        <time>1970-01-01T00:33:58.000Z</time>
      </trkpt>
      <trkpt lat="45.00982" lon="0.66194">
        <ele>130.8</ele>
        <time>1970-01-01T00:33:59.000Z</time>
      </trkpt>
      <trkpt lat="45.00983" lon="0.66202">
        <ele>130.8</ele>
        <time>1970-01-01T00:34:00.000Z</time>
      </trkpt>
      <trkpt lat="45.00983" lon="0.66208">
        <ele>130.8</ele>
        <time>1970-01-01T00:34:01.000Z</time>
      </trkpt>
      <trkpt lat="45.00983" lon="0.66214">
        <ele>130.8</ele>
        <time>1970-01-01T00:34:02.000Z</time>
      </trkpt>
      <trkpt lat="45.00984" lon="0.6622">
        <ele>130.8</ele>
        <time>1970-01-01T00:34:03.000Z</time>
      </trkpt>
      <trkpt lat="45.00984" lon="0.66224">
        <ele>130.8</ele>
        <time>1970-01-01T00:34:04.000Z</time>
      </trkpt>
      <trkpt lat="45.00984" lon="0.66228">
        <ele>130.8</ele>
        <time>1970-01-01T00:34:05.000Z</time>
      </trkpt>
      <trkpt lat="45.00985" lon="0.66233">
        <ele>131.8</ele>
        <time>1970-01-01T00:34:06.000Z</time>
      </trkpt>
      <trkpt lat="45.00985" lon="0.66236">
        <ele>131.8</ele>
        <time>1970-01-01T00:34:07.000Z</time>
      </trkpt>
      <trkpt lat="45.00985" lon="0.6624">
        <ele>132.9</ele>
        <time>1970-01-01T00:34:08.000Z</time>
      </trkpt>
      <trkpt lat="45.00983" lon="0.66242">
        <ele>132.9</ele>
        <time>1970-01-01T00:34:09.000Z</time>
      </trkpt>
      <trkpt lat="45.00982" lon="0.66244">
        <ele>133.8</ele>
        <time>1970-01-01T00:34:10.000Z</time>
      </trkpt>
      <trkpt lat="45.00979" lon="0.66246">
        <ele>133.8</ele>
        <time>1970-01-01T00:34:11.000Z</time>
      </trkpt>
      <trkpt lat="45.00975" lon="0.66247">
        <ele>133.8</ele>
        <time>1970-01-01T00:34:12.000Z</time>
      </trkpt>
      <trkpt lat="45.00973" lon="0.66247">
        <ele>133.8</ele>
        <time>1970-01-01T00:34:13.000Z</time>
      </trkpt>
      <trkpt lat="45.0097" lon="0.66247">
        <ele>133.8</ele>
        <time>1970-01-01T00:34:14.000Z</time>
      </trkpt>
      <trkpt lat="45.00966" lon="0.66247">
        <ele>134.9</ele>
        <time>1970-01-01T00:34:15.000Z</time>
      </trkpt>
      <trkpt lat="45.00963" lon="0.66248">
        <ele>134.9</ele>
        <time>1970-01-01T00:34:16.000Z</time>
      </trkpt>
      <trkpt lat="45.00959" lon="0.66248">
        <ele>134.9</ele>
        <time>1970-01-01T00:34:17.000Z</time>
      </trkpt>
      <trkpt lat="45.00956" lon="0.66248">
        <ele>134.9</ele>
        <time>1970-01-01T00:34:18.000Z</time>
      </trkpt>
      <trkpt lat="45.00952" lon="0.66248">
        <ele>134.9</ele>
        <time>1970-01-01T00:34:19.000Z</time>
      </trkpt>
      <trkpt lat="45.00949" lon="0.66249">
        <ele>134.9</ele>
        <time>1970-01-01T00:34:20.000Z</time>
      </trkpt>
      <trkpt lat="45.00945" lon="0.66249">
        <ele>134.9</ele>
        <time>1970-01-01T00:34:21.000Z</time>
      </trkpt>
      <trkpt lat="45.00941" lon="0.66249">
        <ele>134.9</ele>
        <time>1970-01-01T00:34:22.000Z</time>
      </trkpt>
      <trkpt lat="45.00937" lon="0.66249">
        <ele>134.9</ele>
        <time>1970-01-01T00:34:23.000Z</time>
      </trkpt>
      <trkpt lat="45.00933" lon="0.66249">
        <ele>134.9</ele>
        <time>1970-01-01T00:34:24.000Z</time>
      </trkpt>
      <trkpt lat="45.0093" lon="0.66249">
        <ele>134.9</ele>
        <time>1970-01-01T00:34:25.000Z</time>
      </trkpt>
      <trkpt lat="45.00926" lon="0.66249">
        <ele>134.9</ele>
        <time>1970-01-01T00:34:26.000Z</time>
      </trkpt>
      <trkpt lat="45.00922" lon="0.66249">
        <ele>134.9</ele>
        <time>1970-01-01T00:34:27.000Z</time>
      </trkpt>
      <trkpt lat="45.00919" lon="0.6625">
        <ele>134.9</ele>
        <time>1970-01-01T00:34:28.000Z</time>
      </trkpt>
      <trkpt lat="45.00915" lon="0.6625">
        <ele>135.8</ele>
        <time>1970-01-01T00:34:29.000Z</time>
      </trkpt>
      <trkpt lat="45.0091" lon="0.6625">
        <ele>135.8</ele>
        <time>1970-01-01T00:34:30.000Z</time>
      </trkpt>
      <trkpt lat="45.00906" lon="0.66251">
        <ele>135.8</ele>
        <time>1970-01-01T00:34:31.000Z</time>
      </trkpt>
      <trkpt lat="45.00903" lon="0.66251">
        <ele>135.8</ele>
        <time>1970-01-01T00:34:32.000Z</time>
      </trkpt>
      <trkpt lat="45.00898" lon="0.66252">
        <ele>135.8</ele>
        <time>1970-01-01T00:34:33.000Z</time>
      </trkpt>
      <trkpt lat="45.00895" lon="0.66253">
        <ele>135.8</ele>
        <time>1970-01-01T00:34:34.000Z</time>
      </trkpt>
      <trkpt lat="45.0089" lon="0.66254">
        <ele>135.8</ele>
        <time>1970-01-01T00:34:35.000Z</time>
      </trkpt>
      <trkpt lat="45.00886" lon="0.66255">
        <ele>135.8</ele>
        <time>1970-01-01T00:34:36.000Z</time>
      </trkpt>
      <trkpt lat="45.00882" lon="0.66256">
        <ele>135.8</ele>
        <time>1970-01-01T00:34:37.000Z</time>
      </trkpt>
      <trkpt lat="45.00878" lon="0.66257">
        <ele>135.8</ele>
        <time>1970-01-01T00:34:38.000Z</time>
      </trkpt>
      <trkpt lat="45.00875" lon="0.66257">
        <ele>135.8</ele>
        <time>1970-01-01T00:34:39.000Z</time>
      </trkpt>
      <trkpt lat="45.0087" lon="0.66257">
        <ele>135.8</ele>
        <time>1970-01-01T00:34:40.000Z</time>
      </trkpt>
      <trkpt lat="45.00867" lon="0.66258">
        <ele>135.8</ele>
        <time>1970-01-01T00:34:41.000Z</time>
      </trkpt>
      <trkpt lat="45.00862" lon="0.66258">
        <ele>135.8</ele>
        <time>1970-01-01T00:34:42.000Z</time>
      </trkpt>
      <trkpt lat="45.00859" lon="0.66258">
        <ele>135.8</ele>
        <time>1970-01-01T00:34:43.000Z</time>
      </trkpt>
      <trkpt lat="45.00855" lon="0.66258">
        <ele>135.8</ele>
        <time>1970-01-01T00:34:44.000Z</time>
      </trkpt>
      <trkpt lat="45.00852" lon="0.66258">
        <ele>135.8</ele>
        <time>1970-01-01T00:34:45.000Z</time>
      </trkpt>
      <trkpt lat="45.00848" lon="0.66258">
        <ele>135.8</ele>
        <time>1970-01-01T00:34:46.000Z</time>
      </trkpt>
      <trkpt lat="45.00844" lon="0.66258">
        <ele>135.8</ele>
        <time>1970-01-01T00:34:47.000Z</time>
      </trkpt>
      <trkpt lat="45.00841" lon="0.66258">
        <ele>135.8</ele>
        <time>1970-01-01T00:34:48.000Z</time>
      </trkpt>
      <trkpt lat="45.00836" lon="0.66258">
        <ele>135.8</ele>
        <time>1970-01-01T00:34:49.000Z</time>
      </trkpt>
      <trkpt lat="45.00833" lon="0.66258">
        <ele>136.9</ele>
        <time>1970-01-01T00:34:50.000Z</time>
      </trkpt>
      <trkpt lat="45.00829" lon="0.66258">
        <ele>136.9</ele>
        <time>1970-01-01T00:34:51.000Z</time>
      </trkpt>
      <trkpt lat="45.00826" lon="0.66258">
        <ele>136.9</ele>
        <time>1970-01-01T00:34:52.000Z</time>
      </trkpt>
      <trkpt lat="45.00822" lon="0.66259">
        <ele>136.9</ele>
        <time>1970-01-01T00:34:53.000Z</time>
      </trkpt>
      <trkpt lat="45.00818" lon="0.66259">
        <ele>136.9</ele>
        <time>1970-01-01T00:34:54.000Z</time>
      </trkpt>
      <trkpt lat="45.00814" lon="0.66259">
        <ele>136.9</ele>
        <time>1970-01-01T00:34:55.000Z</time>
      </trkpt>
      <trkpt lat="45.00811" lon="0.6626">
        <ele>136.9</ele>
        <time>1970-01-01T00:34:56.000Z</time>
      </trkpt>
      <trkpt lat="45.00808" lon="0.6626">
        <ele>136.9</ele>
        <time>1970-01-01T00:34:57.000Z</time>
      </trkpt>
      <trkpt lat="45.00804" lon="0.66261">
        <ele>136.9</ele>
        <time>1970-01-01T00:34:58.000Z</time>
      </trkpt>
      <trkpt lat="45.00799" lon="0.66261">
        <ele>136.9</ele>
        <time>1970-01-01T00:34:59.000Z</time>
      </trkpt>
      <trkpt lat="45.00795" lon="0.66261">
        <ele>136.9</ele>
        <time>1970-01-01T00:35:00.000Z</time>
      </trkpt>
      <trkpt lat="45.00792" lon="0.66261">
        <ele>136.9</ele>
        <time>1970-01-01T00:35:01.000Z</time>
      </trkpt>
      <trkpt lat="45.00787" lon="0.6626">
        <ele>136.9</ele>
        <time>1970-01-01T00:35:02.000Z</time>
      </trkpt>
      <trkpt lat="45.00783" lon="0.66259">
        <ele>136.9</ele>
        <time>1970-01-01T00:35:03.000Z</time>
      </trkpt>
      <trkpt lat="45.00779" lon="0.66259">
        <ele>136.9</ele>
        <time>1970-01-01T00:35:04.000Z</time>
      </trkpt>
      <trkpt lat="45.00776" lon="0.66258">
        <ele>136.9</ele>
        <time>1970-01-01T00:35:05.000Z</time>
      </trkpt>
      <trkpt lat="45.00771" lon="0.66256">
        <ele>137.8</ele>
        <time>1970-01-01T00:35:06.000Z</time>
      </trkpt>
      <trkpt lat="45.00768" lon="0.66255">
        <ele>137.8</ele>
        <time>1970-01-01T00:35:07.000Z</time>
      </trkpt>
      <trkpt lat="45.00764" lon="0.66253">
        <ele>137.8</ele>
        <time>1970-01-01T00:35:08.000Z</time>
      </trkpt>
      <trkpt lat="45.0076" lon="0.66251">
        <ele>137.8</ele>
        <time>1970-01-01T00:35:09.000Z</time>
      </trkpt>
      <trkpt lat="45.00756" lon="0.66248">
        <ele>137.8</ele>
        <time>1970-01-01T00:35:10.000Z</time>
      </trkpt>
      <trkpt lat="45.00753" lon="0.66246">
        <ele>137.8</ele>
        <time>1970-01-01T00:35:11.000Z</time>
      </trkpt>
      <trkpt lat="45.00749" lon="0.66243">
        <ele>136.9</ele>
        <time>1970-01-01T00:35:12.000Z</time>
      </trkpt>
      <trkpt lat="45.00744" lon="0.6624">
        <ele>136.9</ele>
        <time>1970-01-01T00:35:13.000Z</time>
      </trkpt>
      <trkpt lat="45.0074" lon="0.66237">
        <ele>136.9</ele>
        <time>1970-01-01T00:35:14.000Z</time>
      </trkpt>
      <trkpt lat="45.00736" lon="0.66235">
        <ele>136.9</ele>
        <time>1970-01-01T00:35:15.000Z</time>
      </trkpt>
      <trkpt lat="45.00732" lon="0.66232">
        <ele>136.9</ele>
        <time>1970-01-01T00:35:16.000Z</time>
      </trkpt>
      <trkpt lat="45.00728" lon="0.6623">
        <ele>136.9</ele>
        <time>1970-01-01T00:35:17.000Z</time>
      </trkpt>
      <trkpt lat="45.00724" lon="0.66228">
        <ele>136.9</ele>
        <time>1970-01-01T00:35:18.000Z</time>
      </trkpt>
      <trkpt lat="45.00721" lon="0.66227">
        <ele>136.9</ele>
        <time>1970-01-01T00:35:19.000Z</time>
      </trkpt>
      <trkpt lat="45.00717" lon="0.66226">
        <ele>136.9</ele>
        <time>1970-01-01T00:35:20.000Z</time>
      </trkpt>
      <trkpt lat="45.00713" lon="0.66224">
        <ele>136.9</ele>
        <time>1970-01-01T00:35:21.000Z</time>
      </trkpt>
      <trkpt lat="45.00709" lon="0.66224">
        <ele>136.9</ele>
        <time>1970-01-01T00:35:22.000Z</time>
      </trkpt>
      <trkpt lat="45.00705" lon="0.66223">
        <ele>136.9</ele>
        <time>1970-01-01T00:35:23.000Z</time>
      </trkpt>
      <trkpt lat="45.00701" lon="0.66223">
        <ele>137.8</ele>
        <time>1970-01-01T00:35:24.000Z</time>
      </trkpt>
      <trkpt lat="45.00698" lon="0.66223">
        <ele>137.8</ele>
        <time>1970-01-01T00:35:25.000Z</time>
      </trkpt>
      <trkpt lat="45.00694" lon="0.66224">
        <ele>137.8</ele>
        <time>1970-01-01T00:35:26.000Z</time>
      </trkpt>
      <trkpt lat="45.0069" lon="0.66225">
        <ele>137.8</ele>
        <time>1970-01-01T00:35:27.000Z</time>
      </trkpt>
      <trkpt lat="45.00686" lon="0.66226">
        <ele>137.8</ele>
        <time>1970-01-01T00:35:28.000Z</time>
      </trkpt>
      <trkpt lat="45.00682" lon="0.66228">
        <ele>137.8</ele>
        <time>1970-01-01T00:35:29.000Z</time>
      </trkpt>
      <trkpt lat="45.0068" lon="0.6623">
        <ele>137.8</ele>
        <time>1970-01-01T00:35:30.000Z</time>
      </trkpt>
      <trkpt lat="45.00677" lon="0.66232">
        <ele>137.8</ele>
        <time>1970-01-01T00:35:31.000Z</time>
      </trkpt>
      <trkpt lat="45.00674" lon="0.66234">
        <ele>138.8</ele>
        <time>1970-01-01T00:35:32.000Z</time>
      </trkpt>
      <trkpt lat="45.00671" lon="0.66236">
        <ele>138.8</ele>
        <time>1970-01-01T00:35:33.000Z</time>
      </trkpt>
      <trkpt lat="45.00668" lon="0.66238">
        <ele>138.8</ele>
        <time>1970-01-01T00:35:34.000Z</time>
      </trkpt>
      <trkpt lat="45.00665" lon="0.66239">
        <ele>138.8</ele>
        <time>1970-01-01T00:35:35.000Z</time>
      </trkpt>
      <trkpt lat="45.00662" lon="0.6624">
        <ele>138.8</ele>
        <time>1970-01-01T00:35:36.000Z</time>
      </trkpt>
      <trkpt lat="45.00659" lon="0.66242">
        <ele>138.8</ele>
        <time>1970-01-01T00:35:37.000Z</time>
      </trkpt>
      <trkpt lat="45.00657" lon="0.66243">
        <ele>138.8</ele>
        <time>1970-01-01T00:35:38.000Z</time>
      </trkpt>
      <trkpt lat="45.00654" lon="0.66244">
        <ele>138.8</ele>
        <time>1970-01-01T00:35:39.000Z</time>
      </trkpt>
      <trkpt lat="45.00651" lon="0.66244">
        <ele>138.8</ele>
        <time>1970-01-01T00:35:40.000Z</time>
      </trkpt>
      <trkpt lat="45.00647" lon="0.66245">
        <ele>138.8</ele>
        <time>1970-01-01T00:35:41.000Z</time>
      </trkpt>
      <trkpt lat="45.00644" lon="0.66245">
        <ele>139.9</ele>
        <time>1970-01-01T00:35:42.000Z</time>
      </trkpt>
      <trkpt lat="45.0064" lon="0.66244">
        <ele>139.9</ele>
        <time>1970-01-01T00:35:43.000Z</time>
      </trkpt>
      <trkpt lat="45.00638" lon="0.66244">
        <ele>139.9</ele>
        <time>1970-01-01T00:35:44.000Z</time>
      </trkpt>
      <trkpt lat="45.00635" lon="0.66243">
        <ele>139.9</ele>
        <time>1970-01-01T00:35:45.000Z</time>
      </trkpt>
      <trkpt lat="45.00631" lon="0.66242">
        <ele>139.9</ele>
        <time>1970-01-01T00:35:46.000Z</time>
      </trkpt>
      <trkpt lat="45.00629" lon="0.6624">
        <ele>139.9</ele>
        <time>1970-01-01T00:35:47.000Z</time>
      </trkpt>
      <trkpt lat="45.00627" lon="0.66238">
        <ele>139.9</ele>
        <time>1970-01-01T00:35:48.000Z</time>
      </trkpt>
      <trkpt lat="45.00624" lon="0.66236">
        <ele>139.9</ele>
        <time>1970-01-01T00:35:49.000Z</time>
      </trkpt>
      <trkpt lat="45.00621" lon="0.66233">
        <ele>140.8</ele>
        <time>1970-01-01T00:35:50.000Z</time>
      </trkpt>
      <trkpt lat="45.00619" lon="0.66231">
        <ele>140.8</ele>
        <time>1970-01-01T00:35:51.000Z</time>
      </trkpt>
      <trkpt lat="45.00616" lon="0.66228">
        <ele>140.8</ele>
        <time>1970-01-01T00:35:52.000Z</time>
      </trkpt>
      <trkpt lat="45.00614" lon="0.66226">
        <ele>140.8</ele>
        <time>1970-01-01T00:35:53.000Z</time>
      </trkpt>
      <trkpt lat="45.00612" lon="0.66224">
        <ele>140.8</ele>
        <time>1970-01-01T00:35:54.000Z</time>
      </trkpt>
      <trkpt lat="45.00608" lon="0.66222">
        <ele>140.8</ele>
        <time>1970-01-01T00:35:55.000Z</time>
      </trkpt>
      <trkpt lat="45.00606" lon="0.6622">
        <ele>140.8</ele>
        <time>1970-01-01T00:35:56.000Z</time>
      </trkpt>
      <trkpt lat="45.00603" lon="0.66218">
        <ele>140.8</ele>
        <time>1970-01-01T00:35:57.000Z</time>
      </trkpt>
      <trkpt lat="45.006" lon="0.66216">
        <ele>141.9</ele>
        <time>1970-01-01T00:35:58.000Z</time>
      </trkpt>
      <trkpt lat="45.00597" lon="0.66214">
        <ele>141.9</ele>
        <time>1970-01-01T00:35:59.000Z</time>
      </trkpt>
      <trkpt lat="45.00594" lon="0.66213">
        <ele>141.9</ele>
        <time>1970-01-01T00:36:00.000Z</time>
      </trkpt>
      <trkpt lat="45.00591" lon="0.66211">
        <ele>141.9</ele>
        <time>1970-01-01T00:36:01.000Z</time>
      </trkpt>
      <trkpt lat="45.00588" lon="0.6621">
        <ele>141.9</ele>
        <time>1970-01-01T00:36:02.000Z</time>
      </trkpt>
      <trkpt lat="45.00585" lon="0.66209">
        <ele>141.9</ele>
        <time>1970-01-01T00:36:03.000Z</time>
      </trkpt>
      <trkpt lat="45.00582" lon="0.66208">
        <ele>141.9</ele>
        <time>1970-01-01T00:36:04.000Z</time>
      </trkpt>
      <trkpt lat="45.00579" lon="0.66207">
        <ele>141.9</ele>
        <time>1970-01-01T00:36:05.000Z</time>
      </trkpt>
      <trkpt lat="45.00577" lon="0.66206">
        <ele>141.9</ele>
        <time>1970-01-01T00:36:06.000Z</time>
      </trkpt>
      <trkpt lat="45.00574" lon="0.66205">
        <ele>141.9</ele>
        <time>1970-01-01T00:36:07.000Z</time>
      </trkpt>
      <trkpt lat="45.00571" lon="0.66205">
        <ele>142.8</ele>
        <time>1970-01-01T00:36:08.000Z</time>
      </trkpt>
      <trkpt lat="45.00568" lon="0.66204">
        <ele>142.8</ele>
        <time>1970-01-01T00:36:09.000Z</time>
      </trkpt>
      <trkpt lat="45.00565" lon="0.66204">
        <ele>142.8</ele>
        <time>1970-01-01T00:36:10.000Z</time>
      </trkpt>
      <trkpt lat="45.00562" lon="0.66204">
        <ele>142.8</ele>
        <time>1970-01-01T00:36:11.000Z</time>
      </trkpt>
      <trkpt lat="45.00559" lon="0.66204">
        <ele>143.9</ele>
        <time>1970-01-01T00:36:12.000Z</time>
      </trkpt>
      <trkpt lat="45.00555" lon="0.66204">
        <ele>143.9</ele>
        <time>1970-01-01T00:36:13.000Z</time>
      </trkpt>
      <trkpt lat="45.00553" lon="0.66204">
        <ele>143.9</ele>
        <time>1970-01-01T00:36:14.000Z</time>
      </trkpt>
      <trkpt lat="45.0055" lon="0.66205">
        <ele>143.9</ele>
        <time>1970-01-01T00:36:15.000Z</time>
      </trkpt>
      <trkpt lat="45.00547" lon="0.66205">
        <ele>143.9</ele>
        <time>1970-01-01T00:36:16.000Z</time>
      </trkpt>
      <trkpt lat="45.00544" lon="0.66206">
        <ele>143.9</ele>
        <time>1970-01-01T00:36:17.000Z</time>
      </trkpt>
      <trkpt lat="45.00541" lon="0.66206">
        <ele>143.9</ele>
        <time>1970-01-01T00:36:18.000Z</time>
      </trkpt>
      <trkpt lat="45.00538" lon="0.66207">
        <ele>143.9</ele>
        <time>1970-01-01T00:36:19.000Z</time>
      </trkpt>
      <trkpt lat="45.00535" lon="0.66208">
        <ele>143.9</ele>
        <time>1970-01-01T00:36:20.000Z</time>
      </trkpt>
      <trkpt lat="45.00532" lon="0.6621">
        <ele>143.9</ele>
        <time>1970-01-01T00:36:21.000Z</time>
      </trkpt>
      <trkpt lat="45.00529" lon="0.66211">
        <ele>143.9</ele>
        <time>1970-01-01T00:36:22.000Z</time>
      </trkpt>
      <trkpt lat="45.00526" lon="0.66212">
        <ele>143.9</ele>
        <time>1970-01-01T00:36:23.000Z</time>
      </trkpt>
      <trkpt lat="45.00522" lon="0.66214">
        <ele>143.9</ele>
        <time>1970-01-01T00:36:24.000Z</time>
      </trkpt>
      <trkpt lat="45.0052" lon="0.66216">
        <ele>143.9</ele>
        <time>1970-01-01T00:36:25.000Z</time>
      </trkpt>
      <trkpt lat="45.00517" lon="0.66218">
        <ele>143.9</ele>
        <time>1970-01-01T00:36:26.000Z</time>
      </trkpt>
      <trkpt lat="45.00514" lon="0.66221">
        <ele>143.9</ele>
        <time>1970-01-01T00:36:27.000Z</time>
      </trkpt>
      <trkpt lat="45.00512" lon="0.66223">
        <ele>143.9</ele>
        <time>1970-01-01T00:36:28.000Z</time>
      </trkpt>
      <trkpt lat="45.00508" lon="0.66226">
        <ele>143.9</ele>
        <time>1970-01-01T00:36:29.000Z</time>
      </trkpt>
      <trkpt lat="45.00506" lon="0.66228">
        <ele>143.9</ele>
        <time>1970-01-01T00:36:30.000Z</time>
      </trkpt>
      <trkpt lat="45.00503" lon="0.6623">
        <ele>143.9</ele>
        <time>1970-01-01T00:36:31.000Z</time>
      </trkpt>
      <trkpt lat="45.00501" lon="0.66232">
        <ele>144.8</ele>
        <time>1970-01-01T00:36:32.000Z</time>
      </trkpt>
      <trkpt lat="45.00498" lon="0.66234">
        <ele>144.8</ele>
        <time>1970-01-01T00:36:33.000Z</time>
      </trkpt>
      <trkpt lat="45.00496" lon="0.66236">
        <ele>145.8</ele>
        <time>1970-01-01T00:36:34.000Z</time>
      </trkpt>
      <trkpt lat="45.00493" lon="0.66239">
        <ele>145.8</ele>
        <time>1970-01-01T00:36:35.000Z</time>
      </trkpt>
      <trkpt lat="45.0049" lon="0.66241">
        <ele>145.8</ele>
        <time>1970-01-01T00:36:36.000Z</time>
      </trkpt>
      <trkpt lat="45.00488" lon="0.66244">
        <ele>145.8</ele>
        <time>1970-01-01T00:36:37.000Z</time>
      </trkpt>
      <trkpt lat="45.00485" lon="0.66246">
        <ele>146.8</ele>
        <time>1970-01-01T00:36:38.000Z</time>
      </trkpt>
      <trkpt lat="45.00483" lon="0.66248">
        <ele>146.8</ele>
        <time>1970-01-01T00:36:39.000Z</time>
      </trkpt>
      <trkpt lat="45.0048" lon="0.66251">
        <ele>146.8</ele>
        <time>1970-01-01T00:36:40.000Z</time>
      </trkpt>
      <trkpt lat="45.00478" lon="0.66253">
        <ele>146.8</ele>
        <time>1970-01-01T00:36:41.000Z</time>
      </trkpt>
      <trkpt lat="45.00475" lon="0.66255">
        <ele>146.8</ele>
        <time>1970-01-01T00:36:42.000Z</time>
      </trkpt>
      <trkpt lat="45.00473" lon="0.66257">
        <ele>146.8</ele>
        <time>1970-01-01T00:36:43.000Z</time>
      </trkpt>
      <trkpt lat="45.00471" lon="0.66259">
        <ele>147.8</ele>
        <time>1970-01-01T00:36:44.000Z</time>
      </trkpt>
      <trkpt lat="45.00468" lon="0.66262">
        <ele>147.8</ele>
        <time>1970-01-01T00:36:45.000Z</time>
      </trkpt>
      <trkpt lat="45.00465" lon="0.66264">
        <ele>147.8</ele>
        <time>1970-01-01T00:36:46.000Z</time>
      </trkpt>
      <trkpt lat="45.00462" lon="0.66267">
        <ele>147.8</ele>
        <time>1970-01-01T00:36:47.000Z</time>
      </trkpt>
      <trkpt lat="45.0046" lon="0.66268">
        <ele>147.8</ele>
        <time>1970-01-01T00:36:48.000Z</time>
      </trkpt>
      <trkpt lat="45.00457" lon="0.66271">
        <ele>147.8</ele>
        <time>1970-01-01T00:36:49.000Z</time>
      </trkpt>
      <trkpt lat="45.00454" lon="0.66274">
        <ele>147.8</ele>
        <time>1970-01-01T00:36:50.000Z</time>
      </trkpt>
      <trkpt lat="45.00452" lon="0.66276">
        <ele>147.8</ele>
        <time>1970-01-01T00:36:51.000Z</time>
      </trkpt>
      <trkpt lat="45.0045" lon="0.66278">
        <ele>147.8</ele>
        <time>1970-01-01T00:36:52.000Z</time>
      </trkpt>
      <trkpt lat="45.00447" lon="0.66281">
        <ele>147.8</ele>
        <time>1970-01-01T00:36:53.000Z</time>
      </trkpt>
      <trkpt lat="45.00444" lon="0.66283">
        <ele>147.8</ele>
        <time>1970-01-01T00:36:54.000Z</time>
      </trkpt>
      <trkpt lat="45.00442" lon="0.66285">
        <ele>147.8</ele>
        <time>1970-01-01T00:36:55.000Z</time>
      </trkpt>
      <trkpt lat="45.00439" lon="0.66287">
        <ele>147.8</ele>
        <time>1970-01-01T00:36:56.000Z</time>
      </trkpt>
      <trkpt lat="45.00436" lon="0.66289">
        <ele>147.8</ele>
        <time>1970-01-01T00:36:57.000Z</time>
      </trkpt>
      <trkpt lat="45.00434" lon="0.66291">
        <ele>148.9</ele>
        <time>1970-01-01T00:36:58.000Z</time>
      </trkpt>
      <trkpt lat="45.00432" lon="0.66293">
        <ele>148.9</ele>
        <time>1970-01-01T00:36:59.000Z</time>
      </trkpt>
      <trkpt lat="45.00429" lon="0.66295">
        <ele>148.9</ele>
        <time>1970-01-01T00:37:00.000Z</time>
      </trkpt>
      <trkpt lat="45.00427" lon="0.66297">
        <ele>148.9</ele>
        <time>1970-01-01T00:37:01.000Z</time>
      </trkpt>
      <trkpt lat="45.00424" lon="0.66299">
        <ele>148.9</ele>
        <time>1970-01-01T00:37:02.000Z</time>
      </trkpt>
      <trkpt lat="45.00421" lon="0.66301">
        <ele>148.9</ele>
        <time>1970-01-01T00:37:03.000Z</time>
      </trkpt>
      <trkpt lat="45.00419" lon="0.66302">
        <ele>148.9</ele>
        <time>1970-01-01T00:37:04.000Z</time>
      </trkpt>
      <trkpt lat="45.00416" lon="0.66304">
        <ele>148.9</ele>
        <time>1970-01-01T00:37:05.000Z</time>
      </trkpt>
      <trkpt lat="45.00413" lon="0.66307">
        <ele>149.8</ele>
        <time>1970-01-01T00:37:06.000Z</time>
      </trkpt>
      <trkpt lat="45.00411" lon="0.66308">
        <ele>149.8</ele>
        <time>1970-01-01T00:37:07.000Z</time>
      </trkpt>
      <trkpt lat="45.00409" lon="0.66309">
        <ele>150.9</ele>
        <time>1970-01-01T00:37:08.000Z</time>
      </trkpt>
      <trkpt lat="45.00406" lon="0.66311">
        <ele>150.9</ele>
        <time>1970-01-01T00:37:09.000Z</time>
      </trkpt>
      <trkpt lat="45.00404" lon="0.66313">
        <ele>150.9</ele>
        <time>1970-01-01T00:37:10.000Z</time>
      </trkpt>
      <trkpt lat="45.00401" lon="0.66315">
        <ele>150.9</ele>
        <time>1970-01-01T00:37:11.000Z</time>
      </trkpt>
      <trkpt lat="45.00399" lon="0.66316">
        <ele>150.9</ele>
        <time>1970-01-01T00:37:12.000Z</time>
      </trkpt>
      <trkpt lat="45.00396" lon="0.66318">
        <ele>150.9</ele>
        <time>1970-01-01T00:37:13.000Z</time>
      </trkpt>
      <trkpt lat="45.00393" lon="0.66319">
        <ele>150.9</ele>
        <time>1970-01-01T00:37:14.000Z</time>
      </trkpt>
      <trkpt lat="45.00391" lon="0.66321">
        <ele>150.9</ele>
        <time>1970-01-01T00:37:15.000Z</time>
      </trkpt>
      <trkpt lat="45.00388" lon="0.66322">
        <ele>151.8</ele>
        <time>1970-01-01T00:37:16.000Z</time>
      </trkpt>
      <trkpt lat="45.00385" lon="0.66324">
        <ele>151.8</ele>
        <time>1970-01-01T00:37:17.000Z</time>
      </trkpt>
      <trkpt lat="45.00382" lon="0.66325">
        <ele>151.8</ele>
        <time>1970-01-01T00:37:18.000Z</time>
      </trkpt>
      <trkpt lat="45.00379" lon="0.66327">
        <ele>151.8</ele>
        <time>1970-01-01T00:37:19.000Z</time>
      </trkpt>
      <trkpt lat="45.00377" lon="0.66328">
        <ele>152.9</ele>
        <time>1970-01-01T00:37:20.000Z</time>
      </trkpt>
      <trkpt lat="45.00374" lon="0.6633">
        <ele>152.9</ele>
        <time>1970-01-01T00:37:21.000Z</time>
      </trkpt>
      <trkpt lat="45.00371" lon="0.66332">
        <ele>151.8</ele>
        <time>1970-01-01T00:37:22.000Z</time>
      </trkpt>
      <trkpt lat="45.00369" lon="0.66333">
        <ele>151.8</ele>
        <time>1970-01-01T00:37:23.000Z</time>
      </trkpt>
      <trkpt lat="45.00366" lon="0.66335">
        <ele>151.8</ele>
        <time>1970-01-01T00:37:24.000Z</time>
      </trkpt>
      <trkpt lat="45.00363" lon="0.66336">
        <ele>151.8</ele>
        <time>1970-01-01T00:37:25.000Z</time>
      </trkpt>
      <trkpt lat="45.00361" lon="0.66338">
        <ele>152.9</ele>
        <time>1970-01-01T00:37:26.000Z</time>
      </trkpt>
      <trkpt lat="45.00358" lon="0.66339">
        <ele>152.9</ele>
        <time>1970-01-01T00:37:27.000Z</time>
      </trkpt>
      <trkpt lat="45.00355" lon="0.66341">
        <ele>152.9</ele>
        <time>1970-01-01T00:37:28.000Z</time>
      </trkpt>
      <trkpt lat="45.00352" lon="0.66342">
        <ele>152.9</ele>
        <time>1970-01-01T00:37:29.000Z</time>
      </trkpt>
      <trkpt lat="45.0035" lon="0.66344">
        <ele>152.9</ele>
        <time>1970-01-01T00:37:30.000Z</time>
      </trkpt>
      <trkpt lat="45.00347" lon="0.66345">
        <ele>152.9</ele>
        <time>1970-01-01T00:37:31.000Z</time>
      </trkpt>
      <trkpt lat="45.00344" lon="0.66347">
        <ele>152.9</ele>
        <time>1970-01-01T00:37:32.000Z</time>
      </trkpt>
      <trkpt lat="45.00342" lon="0.66348">
        <ele>152.9</ele>
        <time>1970-01-01T00:37:33.000Z</time>
      </trkpt>
      <trkpt lat="45.00339" lon="0.66349">
        <ele>153.8</ele>
        <time>1970-01-01T00:37:34.000Z</time>
      </trkpt>
      <trkpt lat="45.00336" lon="0.66351">
        <ele>153.8</ele>
        <time>1970-01-01T00:37:35.000Z</time>
      </trkpt>
      <trkpt lat="45.00333" lon="0.66352">
        <ele>153.8</ele>
        <time>1970-01-01T00:37:36.000Z</time>
      </trkpt>
      <trkpt lat="45.0033" lon="0.66353">
        <ele>153.8</ele>
        <time>1970-01-01T00:37:37.000Z</time>
      </trkpt>
      <trkpt lat="45.00327" lon="0.66354">
        <ele>153.8</ele>
        <time>1970-01-01T00:37:38.000Z</time>
      </trkpt>
      <trkpt lat="45.00324" lon="0.66355">
        <ele>153.8</ele>
        <time>1970-01-01T00:37:39.000Z</time>
      </trkpt>
      <trkpt lat="45.00321" lon="0.66356">
        <ele>153.8</ele>
        <time>1970-01-01T00:37:40.000Z</time>
      </trkpt>
      <trkpt lat="45.00318" lon="0.66358">
        <ele>153.8</ele>
        <time>1970-01-01T00:37:41.000Z</time>
      </trkpt>
      <trkpt lat="45.00316" lon="0.66359">
        <ele>153.8</ele>
        <time>1970-01-01T00:37:42.000Z</time>
      </trkpt>
      <trkpt lat="45.00313" lon="0.6636">
        <ele>153.8</ele>
        <time>1970-01-01T00:37:43.000Z</time>
      </trkpt>
      <trkpt lat="45.0031" lon="0.66361">
        <ele>153.8</ele>
        <time>1970-01-01T00:37:44.000Z</time>
      </trkpt>
      <trkpt lat="45.00307" lon="0.66362">
        <ele>153.8</ele>
        <time>1970-01-01T00:37:45.000Z</time>
      </trkpt>
      <trkpt lat="45.00304" lon="0.66363">
        <ele>153.8</ele>
        <time>1970-01-01T00:37:46.000Z</time>
      </trkpt>
      <trkpt lat="45.00301" lon="0.66364">
        <ele>153.8</ele>
        <time>1970-01-01T00:37:47.000Z</time>
      </trkpt>
      <trkpt lat="45.00297" lon="0.66365">
        <ele>154.8</ele>
        <time>1970-01-01T00:37:48.000Z</time>
      </trkpt>
      <trkpt lat="45.00294" lon="0.66365">
        <ele>154.8</ele>
        <time>1970-01-01T00:37:49.000Z</time>
      </trkpt>
      <trkpt lat="45.00292" lon="0.66366">
        <ele>154.8</ele>
        <time>1970-01-01T00:37:50.000Z</time>
      </trkpt>
      <trkpt lat="45.00289" lon="0.66367">
        <ele>154.8</ele>
        <time>1970-01-01T00:37:51.000Z</time>
      </trkpt>
      <trkpt lat="45.00287" lon="0.66367">
        <ele>154.8</ele>
        <time>1970-01-01T00:37:52.000Z</time>
      </trkpt>
      <trkpt lat="45.00284" lon="0.66368">
        <ele>154.8</ele>
        <time>1970-01-01T00:37:53.000Z</time>
      </trkpt>
      <trkpt lat="45.00281" lon="0.66369">
        <ele>154.8</ele>
        <time>1970-01-01T00:37:54.000Z</time>
      </trkpt>
      <trkpt lat="45.00279" lon="0.66371">
        <ele>154.8</ele>
        <time>1970-01-01T00:37:55.000Z</time>
      </trkpt>
      <trkpt lat="45.00276" lon="0.66372">
        <ele>154.8</ele>
        <time>1970-01-01T00:37:56.000Z</time>
      </trkpt>
      <trkpt lat="45.00273" lon="0.66374">
        <ele>154.8</ele>
        <time>1970-01-01T00:37:57.000Z</time>
      </trkpt>
      <trkpt lat="45.00271" lon="0.66376">
        <ele>154.8</ele>
        <time>1970-01-01T00:37:58.000Z</time>
      </trkpt>
      <trkpt lat="45.00268" lon="0.66378">
        <ele>154.8</ele>
        <time>1970-01-01T00:37:59.000Z</time>
      </trkpt>
      <trkpt lat="45.00266" lon="0.6638">
        <ele>155.9</ele>
        <time>1970-01-01T00:38:00.000Z</time>
      </trkpt>
      <trkpt lat="45.00264" lon="0.66382">
        <ele>155.9</ele>
        <time>1970-01-01T00:38:01.000Z</time>
      </trkpt>
      <trkpt lat="45.00262" lon="0.66384">
        <ele>156.8</ele>
        <time>1970-01-01T00:38:02.000Z</time>
      </trkpt>
      <trkpt lat="45.0026" lon="0.66386">
        <ele>156.8</ele>
        <time>1970-01-01T00:38:03.000Z</time>
      </trkpt>
      <trkpt lat="45.00257" lon="0.66388">
        <ele>156.8</ele>
        <time>1970-01-01T00:38:04.000Z</time>
      </trkpt>
      <trkpt lat="45.00255" lon="0.6639">
        <ele>156.8</ele>
        <time>1970-01-01T00:38:05.000Z</time>
      </trkpt>
      <trkpt lat="45.00252" lon="0.66391">
        <ele>157.9</ele>
        <time>1970-01-01T00:38:06.000Z</time>
      </trkpt>
      <trkpt lat="45.0025" lon="0.66393">
        <ele>157.9</ele>
        <time>1970-01-01T00:38:07.000Z</time>
      </trkpt>
      <trkpt lat="45.00248" lon="0.66394">
        <ele>157.9</ele>
        <time>1970-01-01T00:38:08.000Z</time>
      </trkpt>
      <trkpt lat="45.00246" lon="0.66396">
        <ele>157.9</ele>
        <time>1970-01-01T00:38:09.000Z</time>
      </trkpt>
      <trkpt lat="45.00243" lon="0.66398">
        <ele>157.9</ele>
        <time>1970-01-01T00:38:10.000Z</time>
      </trkpt>
      <trkpt lat="45.00241" lon="0.664">
        <ele>157.9</ele>
        <time>1970-01-01T00:38:11.000Z</time>
      </trkpt>
      <trkpt lat="45.00239" lon="0.66403">
        <ele>157.9</ele>
        <time>1970-01-01T00:38:12.000Z</time>
      </trkpt>
      <trkpt lat="45.00237" lon="0.66405">
        <ele>157.9</ele>
        <time>1970-01-01T00:38:13.000Z</time>
      </trkpt>
      <trkpt lat="45.00235" lon="0.66407">
        <ele>158.8</ele>
        <time>1970-01-01T00:38:14.000Z</time>
      </trkpt>
      <trkpt lat="45.00232" lon="0.6641">
        <ele>158.8</ele>
        <time>1970-01-01T00:38:15.000Z</time>
      </trkpt>
      <trkpt lat="45.0023" lon="0.66413">
        <ele>158.8</ele>
        <time>1970-01-01T00:38:16.000Z</time>
      </trkpt>
      <trkpt lat="45.00228" lon="0.66415">
        <ele>158.8</ele>
        <time>1970-01-01T00:38:17.000Z</time>
      </trkpt>
      <trkpt lat="45.00226" lon="0.66417">
        <ele>158.8</ele>
        <time>1970-01-01T00:38:18.000Z</time>
      </trkpt>
      <trkpt lat="45.00225" lon="0.66419">
        <ele>158.8</ele>
        <time>1970-01-01T00:38:19.000Z</time>
      </trkpt>
      <trkpt lat="45.00222" lon="0.66422">
        <ele>158.8</ele>
        <time>1970-01-01T00:38:20.000Z</time>
      </trkpt>
      <trkpt lat="45.0022" lon="0.66424">
        <ele>158.8</ele>
        <time>1970-01-01T00:38:21.000Z</time>
      </trkpt>
      <trkpt lat="45.00218" lon="0.66426">
        <ele>159.9</ele>
        <time>1970-01-01T00:38:22.000Z</time>
      </trkpt>
      <trkpt lat="45.00216" lon="0.66429">
        <ele>159.9</ele>
        <time>1970-01-01T00:38:23.000Z</time>
      </trkpt>
      <trkpt lat="45.00215" lon="0.66431">
        <ele>159.9</ele>
        <time>1970-01-01T00:38:24.000Z</time>
      </trkpt>
      <trkpt lat="45.00213" lon="0.66433">
        <ele>159.9</ele>
        <time>1970-01-01T00:38:25.000Z</time>
      </trkpt>
      <trkpt lat="45.00211" lon="0.66436">
        <ele>160.8</ele>
        <time>1970-01-01T00:38:26.000Z</time>
      </trkpt>
      <trkpt lat="45.0021" lon="0.66438">
        <ele>160.8</ele>
        <time>1970-01-01T00:38:27.000Z</time>
      </trkpt>
      <trkpt lat="45.00208" lon="0.6644">
        <ele>160.8</ele>
        <time>1970-01-01T00:38:28.000Z</time>
      </trkpt>
      <trkpt lat="45.00206" lon="0.66442">
        <ele>160.8</ele>
        <time>1970-01-01T00:38:29.000Z</time>
      </trkpt>
      <trkpt lat="45.00204" lon="0.66444">
        <ele>161.9</ele>
        <time>1970-01-01T00:38:30.000Z</time>
      </trkpt>
      <trkpt lat="45.00203" lon="0.66447">
        <ele>161.9</ele>
        <time>1970-01-01T00:38:31.000Z</time>
      </trkpt>
      <trkpt lat="45.00201" lon="0.66449">
        <ele>161.9</ele>
        <time>1970-01-01T00:38:32.000Z</time>
      </trkpt>
      <trkpt lat="45.002" lon="0.66451">
        <ele>161.9</ele>
        <time>1970-01-01T00:38:33.000Z</time>
      </trkpt>
      <trkpt lat="45.00198" lon="0.66453">
        <ele>162.8</ele>
        <time>1970-01-01T00:38:34.000Z</time>
      </trkpt>
      <trkpt lat="45.00197" lon="0.66455">
        <ele>162.8</ele>
        <time>1970-01-01T00:38:35.000Z</time>
      </trkpt>
      <trkpt lat="45.00195" lon="0.66458">
        <ele>163.8</ele>
        <time>1970-01-01T00:38:36.000Z</time>
      </trkpt>
      <trkpt lat="45.00193" lon="0.6646">
        <ele>163.8</ele>
        <time>1970-01-01T00:38:37.000Z</time>
      </trkpt>
      <trkpt lat="45.00192" lon="0.66462">
        <ele>163.8</ele>
        <time>1970-01-01T00:38:38.000Z</time>
      </trkpt>
      <trkpt lat="45.00189" lon="0.66464">
        <ele>163.8</ele>
        <time>1970-01-01T00:38:39.000Z</time>
      </trkpt>
      <trkpt lat="45.00188" lon="0.66466">
        <ele>164.9</ele>
        <time>1970-01-01T00:38:40.000Z</time>
      </trkpt>
      <trkpt lat="45.00187" lon="0.66468">
        <ele>164.9</ele>
        <time>1970-01-01T00:38:41.000Z</time>
      </trkpt>
      <trkpt lat="45.00184" lon="0.66471">
        <ele>164.9</ele>
        <time>1970-01-01T00:38:42.000Z</time>
      </trkpt>
      <trkpt lat="45.00182" lon="0.66473">
        <ele>164.9</ele>
        <time>1970-01-01T00:38:43.000Z</time>
      </trkpt>
      <trkpt lat="45.00181" lon="0.66475">
        <ele>165.8</ele>
        <time>1970-01-01T00:38:44.000Z</time>
      </trkpt>
      <trkpt lat="45.00179" lon="0.66477">
        <ele>165.8</ele>
        <time>1970-01-01T00:38:45.000Z</time>
      </trkpt>
      <trkpt lat="45.00178" lon="0.66479">
        <ele>165.8</ele>
        <time>1970-01-01T00:38:46.000Z</time>
      </trkpt>
      <trkpt lat="45.00176" lon="0.66481">
        <ele>165.8</ele>
        <time>1970-01-01T00:38:47.000Z</time>
      </trkpt>
      <trkpt lat="45.00175" lon="0.66483">
        <ele>166.9</ele>
        <time>1970-01-01T00:38:48.000Z</time>
      </trkpt>
      <trkpt lat="45.00173" lon="0.66485">
        <ele>166.9</ele>
        <time>1970-01-01T00:38:49.000Z</time>
      </trkpt>
      <trkpt lat="45.00172" lon="0.66486">
        <ele>166.9</ele>
        <time>1970-01-01T00:38:50.000Z</time>
      </trkpt>
      <trkpt lat="45.0017" lon="0.66488">
        <ele>166.9</ele>
        <time>1970-01-01T00:38:51.000Z</time>
      </trkpt>
      <trkpt lat="45.00169" lon="0.6649">
        <ele>167.8</ele>
        <time>1970-01-01T00:38:52.000Z</time>
      </trkpt>
      <trkpt lat="45.00167" lon="0.66492">
        <ele>167.8</ele>
        <time>1970-01-01T00:38:53.000Z</time>
      </trkpt>
      <trkpt lat="45.00165" lon="0.66494">
        <ele>167.8</ele>
        <time>1970-01-01T00:38:54.000Z</time>
      </trkpt>
      <trkpt lat="45.00164" lon="0.66496">
        <ele>167.8</ele>
        <time>1970-01-01T00:38:55.000Z</time>
      </trkpt>
      <trkpt lat="45.00162" lon="0.66498">
        <ele>168.9</ele>
        <time>1970-01-01T00:38:56.000Z</time>
      </trkpt>
      <trkpt lat="45.0016" lon="0.66499">
        <ele>168.9</ele>
        <time>1970-01-01T00:38:57.000Z</time>
      </trkpt>
      <trkpt lat="45.00159" lon="0.66501">
        <ele>168.9</ele>
        <time>1970-01-01T00:38:58.000Z</time>
      </trkpt>
      <trkpt lat="45.00157" lon="0.66502">
        <ele>168.9</ele>
        <time>1970-01-01T00:38:59.000Z</time>
      </trkpt>
      <trkpt lat="45.00155" lon="0.66503">
        <ele>169.8</ele>
        <time>1970-01-01T00:39:00.000Z</time>
      </trkpt>
      <trkpt lat="45.00153" lon="0.66505">
        <ele>169.8</ele>
        <time>1970-01-01T00:39:01.000Z</time>
      </trkpt>
      <trkpt lat="45.00151" lon="0.66507">
        <ele>169.8</ele>
        <time>1970-01-01T00:39:02.000Z</time>
      </trkpt>
      <trkpt lat="45.0015" lon="0.66508">
        <ele>169.8</ele>
        <time>1970-01-01T00:39:03.000Z</time>
      </trkpt>
      <trkpt lat="45.00148" lon="0.6651">
        <ele>170.8</ele>
        <time>1970-01-01T00:39:04.000Z</time>
      </trkpt>
      <trkpt lat="45.00146" lon="0.66511">
        <ele>170.8</ele>
        <time>1970-01-01T00:39:05.000Z</time>
      </trkpt>
      <trkpt lat="45.00144" lon="0.66513">
        <ele>170.8</ele>
        <time>1970-01-01T00:39:06.000Z</time>
      </trkpt>
      <trkpt lat="45.00142" lon="0.66514">
        <ele>170.8</ele>
        <time>1970-01-01T00:39:07.000Z</time>
      </trkpt>
      <trkpt lat="45.0014" lon="0.66515">
        <ele>171.9</ele>
        <time>1970-01-01T00:39:08.000Z</time>
      </trkpt>
      <trkpt lat="45.00138" lon="0.66517">
        <ele>171.9</ele>
        <time>1970-01-01T00:39:09.000Z</time>
      </trkpt>
      <trkpt lat="45.00136" lon="0.66519">
        <ele>171.9</ele>
        <time>1970-01-01T00:39:10.000Z</time>
      </trkpt>
      <trkpt lat="45.00135" lon="0.66521">
        <ele>171.9</ele>
        <time>1970-01-01T00:39:11.000Z</time>
      </trkpt>
      <trkpt lat="45.00133" lon="0.66523">
        <ele>172.8</ele>
        <time>1970-01-01T00:39:12.000Z</time>
      </trkpt>
      <trkpt lat="45.00131" lon="0.66525">
        <ele>172.8</ele>
        <time>1970-01-01T00:39:13.000Z</time>
      </trkpt>
      <trkpt lat="45.0013" lon="0.66529">
        <ele>172.8</ele>
        <time>1970-01-01T00:39:14.000Z</time>
      </trkpt>
      <trkpt lat="45.00129" lon="0.66532">
        <ele>172.8</ele>
        <time>1970-01-01T00:39:15.000Z</time>
      </trkpt>
      <trkpt lat="45.00129" lon="0.66535">
        <ele>173.9</ele>
        <time>1970-01-01T00:39:16.000Z</time>
      </trkpt>
      <trkpt lat="45.00129" lon="0.66538">
        <ele>173.9</ele>
        <time>1970-01-01T00:39:17.000Z</time>
      </trkpt>
      <trkpt lat="45.0013" lon="0.6654">
        <ele>174.8</ele>
        <time>1970-01-01T00:39:18.000Z</time>
      </trkpt>
      <trkpt lat="45.00131" lon="0.66542">
        <ele>174.8</ele>
        <time>1970-01-01T00:39:19.000Z</time>
      </trkpt>
      <trkpt lat="45.00132" lon="0.66544">
        <ele>174.8</ele>
        <time>1970-01-01T00:39:20.000Z</time>
      </trkpt>
      <trkpt lat="45.00134" lon="0.66546">
        <ele>174.8</ele>
        <time>1970-01-01T00:39:21.000Z</time>
      </trkpt>
      <trkpt lat="45.00136" lon="0.66548">
        <ele>175.9</ele>
        <time>1970-01-01T00:39:22.000Z</time>
      </trkpt>
      <trkpt lat="45.00138" lon="0.6655">
        <ele>175.9</ele>
        <time>1970-01-01T00:39:23.000Z</time>
      </trkpt>
      <trkpt lat="45.0014" lon="0.66551">
        <ele>175.9</ele>
        <time>1970-01-01T00:39:24.000Z</time>
      </trkpt>
      <trkpt lat="45.00141" lon="0.66553">
        <ele>175.9</ele>
        <time>1970-01-01T00:39:25.000Z</time>
      </trkpt>
      <trkpt lat="45.00143" lon="0.66555">
        <ele>176.8</ele>
        <time>1970-01-01T00:39:26.000Z</time>
      </trkpt>
      <trkpt lat="45.00144" lon="0.66557">
        <ele>176.8</ele>
        <time>1970-01-01T00:39:27.000Z</time>
      </trkpt>
      <trkpt lat="45.00146" lon="0.66559">
        <ele>176.8</ele>
        <time>1970-01-01T00:39:28.000Z</time>
      </trkpt>
      <trkpt lat="45.00148" lon="0.66561">
        <ele>176.8</ele>
        <time>1970-01-01T00:39:29.000Z</time>
      </trkpt>
      <trkpt lat="45.0015" lon="0.66563">
        <ele>176.8</ele>
        <time>1970-01-01T00:39:30.000Z</time>
      </trkpt>
      <trkpt lat="45.00151" lon="0.66565">
        <ele>176.8</ele>
        <time>1970-01-01T00:39:31.000Z</time>
      </trkpt>
      <trkpt lat="45.00153" lon="0.66567">
        <ele>177.9</ele>
        <time>1970-01-01T00:39:32.000Z</time>
      </trkpt>
      <trkpt lat="45.00154" lon="0.66569">
        <ele>177.9</ele>
        <time>1970-01-01T00:39:33.000Z</time>
      </trkpt>
      <trkpt lat="45.00156" lon="0.66571">
        <ele>178.8</ele>
        <time>1970-01-01T00:39:34.000Z</time>
      </trkpt>
      <trkpt lat="45.00158" lon="0.66573">
        <ele>178.8</ele>
        <time>1970-01-01T00:39:35.000Z</time>
      </trkpt>
      <trkpt lat="45.00159" lon="0.66575">
        <ele>178.8</ele>
        <time>1970-01-01T00:39:36.000Z</time>
      </trkpt>
      <trkpt lat="45.0016" lon="0.66577">
        <ele>178.8</ele>
        <time>1970-01-01T00:39:37.000Z</time>
      </trkpt>
      <trkpt lat="45.00162" lon="0.66579">
        <ele>179.8</ele>
        <time>1970-01-01T00:39:38.000Z</time>
      </trkpt>
      <trkpt lat="45.00164" lon="0.66581">
        <ele>179.8</ele>
        <time>1970-01-01T00:39:39.000Z</time>
      </trkpt>
      <trkpt lat="45.00165" lon="0.66583">
        <ele>179.8</ele>
        <time>1970-01-01T00:39:40.000Z</time>
      </trkpt>
      <trkpt lat="45.00167" lon="0.66585">
        <ele>179.8</ele>
        <time>1970-01-01T00:39:41.000Z</time>
      </trkpt>
      <trkpt lat="45.00168" lon="0.66587">
        <ele>179.8</ele>
        <time>1970-01-01T00:39:42.000Z</time>
      </trkpt>
      <trkpt lat="45.00169" lon="0.66589">
        <ele>179.8</ele>
        <time>1970-01-01T00:39:43.000Z</time>
      </trkpt>
      <trkpt lat="45.00171" lon="0.66591">
        <ele>179.8</ele>
        <time>1970-01-01T00:39:44.000Z</time>
      </trkpt>
      <trkpt lat="45.00172" lon="0.66593">
        <ele>179.8</ele>
        <time>1970-01-01T00:39:45.000Z</time>
      </trkpt>
      <trkpt lat="45.00173" lon="0.66596">
        <ele>179.8</ele>
        <time>1970-01-01T00:39:46.000Z</time>
      </trkpt>
      <trkpt lat="45.00174" lon="0.66598">
        <ele>179.8</ele>
        <time>1970-01-01T00:39:47.000Z</time>
      </trkpt>
      <trkpt lat="45.00175" lon="0.66601">
        <ele>179.8</ele>
        <time>1970-01-01T00:39:48.000Z</time>
      </trkpt>
      <trkpt lat="45.00176" lon="0.66603">
        <ele>179.8</ele>
        <time>1970-01-01T00:39:49.000Z</time>
      </trkpt>
      <trkpt lat="45.00177" lon="0.66606">
        <ele>182.9</ele>
        <time>1970-01-01T00:39:50.000Z</time>
      </trkpt>
      <trkpt lat="45.00178" lon="0.66609">
        <ele>182.9</ele>
        <time>1970-01-01T00:39:51.000Z</time>
      </trkpt>
      <trkpt lat="45.00179" lon="0.66611">
        <ele>183.8</ele>
        <time>1970-01-01T00:39:52.000Z</time>
      </trkpt>
      <trkpt lat="45.00179" lon="0.66614">
        <ele>183.8</ele>
        <time>1970-01-01T00:39:53.000Z</time>
      </trkpt>
      <trkpt lat="45.00179" lon="0.66617">
        <ele>183.8</ele>
        <time>1970-01-01T00:39:54.000Z</time>
      </trkpt>
      <trkpt lat="45.00179" lon="0.66619">
        <ele>183.8</ele>
        <time>1970-01-01T00:39:55.000Z</time>
      </trkpt>
      <trkpt lat="45.00179" lon="0.66623">
        <ele>183.8</ele>
        <time>1970-01-01T00:39:56.000Z</time>
      </trkpt>
      <trkpt lat="45.00179" lon="0.66626">
        <ele>183.8</ele>
        <time>1970-01-01T00:39:57.000Z</time>
      </trkpt>
      <trkpt lat="45.00179" lon="0.66629">
        <ele>183.8</ele>
        <time>1970-01-01T00:39:58.000Z</time>
      </trkpt>
      <trkpt lat="45.00178" lon="0.66632">
        <ele>183.8</ele>
        <time>1970-01-01T00:39:59.000Z</time>
      </trkpt>
      <trkpt lat="45.00177" lon="0.66635">
        <ele>183.8</ele>
        <time>1970-01-01T00:40:00.000Z</time>
      </trkpt>
      <trkpt lat="45.00176" lon="0.66638">
        <ele>183.8</ele>
        <time>1970-01-01T00:40:01.000Z</time>
      </trkpt>
      <trkpt lat="45.00174" lon="0.66641">
        <ele>184.9</ele>
        <time>1970-01-01T00:40:02.000Z</time>
      </trkpt>
      <trkpt lat="45.00173" lon="0.66644">
        <ele>184.9</ele>
        <time>1970-01-01T00:40:03.000Z</time>
      </trkpt>
      <trkpt lat="45.00171" lon="0.66647">
        <ele>184.9</ele>
        <time>1970-01-01T00:40:04.000Z</time>
      </trkpt>
      <trkpt lat="45.00169" lon="0.6665">
        <ele>184.9</ele>
        <time>1970-01-01T00:40:05.000Z</time>
      </trkpt>
      <trkpt lat="45.00167" lon="0.66653">
        <ele>184.9</ele>
        <time>1970-01-01T00:40:06.000Z</time>
      </trkpt>
      <trkpt lat="45.00165" lon="0.66656">
        <ele>184.9</ele>
        <time>1970-01-01T00:40:07.000Z</time>
      </trkpt>
      <trkpt lat="45.00163" lon="0.66659">
        <ele>185.8</ele>
        <time>1970-01-01T00:40:08.000Z</time>
      </trkpt>
      <trkpt lat="45.0016" lon="0.66662">
        <ele>185.8</ele>
        <time>1970-01-01T00:40:09.000Z</time>
      </trkpt>
      <trkpt lat="45.00159" lon="0.66664">
        <ele>185.8</ele>
        <time>1970-01-01T00:40:10.000Z</time>
      </trkpt>
      <trkpt lat="45.00156" lon="0.66668">
        <ele>185.8</ele>
        <time>1970-01-01T00:40:11.000Z</time>
      </trkpt>
      <trkpt lat="45.00154" lon="0.66671">
        <ele>185.8</ele>
        <time>1970-01-01T00:40:12.000Z</time>
      </trkpt>
      <trkpt lat="45.00152" lon="0.66674">
        <ele>185.8</ele>
        <time>1970-01-01T00:40:13.000Z</time>
      </trkpt>
      <trkpt lat="45.0015" lon="0.66677">
        <ele>186.8</ele>
        <time>1970-01-01T00:40:14.000Z</time>
      </trkpt>
      <trkpt lat="45.00148" lon="0.66679">
        <ele>186.8</ele>
        <time>1970-01-01T00:40:15.000Z</time>
      </trkpt>
      <trkpt lat="45.00146" lon="0.66682">
        <ele>186.8</ele>
        <time>1970-01-01T00:40:16.000Z</time>
      </trkpt>
      <trkpt lat="45.00143" lon="0.66685">
        <ele>186.8</ele>
        <time>1970-01-01T00:40:17.000Z</time>
      </trkpt>
      <trkpt lat="45.00141" lon="0.66688">
        <ele>186.8</ele>
        <time>1970-01-01T00:40:18.000Z</time>
      </trkpt>
      <trkpt lat="45.00139" lon="0.66692">
        <ele>186.8</ele>
        <time>1970-01-01T00:40:19.000Z</time>
      </trkpt>
      <trkpt lat="45.00137" lon="0.66695">
        <ele>186.8</ele>
        <time>1970-01-01T00:40:20.000Z</time>
      </trkpt>
      <trkpt lat="45.00135" lon="0.66698">
        <ele>186.8</ele>
        <time>1970-01-01T00:40:21.000Z</time>
      </trkpt>
      <trkpt lat="45.00132" lon="0.66701">
        <ele>186.8</ele>
        <time>1970-01-01T00:40:22.000Z</time>
      </trkpt>
      <trkpt lat="45.0013" lon="0.66704">
        <ele>186.8</ele>
        <time>1970-01-01T00:40:23.000Z</time>
      </trkpt>
      <trkpt lat="45.00127" lon="0.66708">
        <ele>187.9</ele>
        <time>1970-01-01T00:40:24.000Z</time>
      </trkpt>
      <trkpt lat="45.00125" lon="0.66711">
        <ele>187.9</ele>
        <time>1970-01-01T00:40:25.000Z</time>
      </trkpt>
      <trkpt lat="45.00123" lon="0.66714">
        <ele>187.9</ele>
        <time>1970-01-01T00:40:26.000Z</time>
      </trkpt>
      <trkpt lat="45.0012" lon="0.66718">
        <ele>187.9</ele>
        <time>1970-01-01T00:40:27.000Z</time>
      </trkpt>
      <trkpt lat="45.00118" lon="0.66721">
        <ele>187.9</ele>
        <time>1970-01-01T00:40:28.000Z</time>
      </trkpt>
      <trkpt lat="45.00115" lon="0.66725">
        <ele>187.9</ele>
        <time>1970-01-01T00:40:29.000Z</time>
      </trkpt>
      <trkpt lat="45.00113" lon="0.66728">
        <ele>187.9</ele>
        <time>1970-01-01T00:40:30.000Z</time>
      </trkpt>
      <trkpt lat="45.00111" lon="0.66731">
        <ele>187.9</ele>
        <time>1970-01-01T00:40:31.000Z</time>
      </trkpt>
      <trkpt lat="45.00109" lon="0.66735">
        <ele>187.9</ele>
        <time>1970-01-01T00:40:32.000Z</time>
      </trkpt>
      <trkpt lat="45.00107" lon="0.66739">
        <ele>187.9</ele>
        <time>1970-01-01T00:40:33.000Z</time>
      </trkpt>
      <trkpt lat="45.00105" lon="0.66742">
        <ele>187.9</ele>
        <time>1970-01-01T00:40:34.000Z</time>
      </trkpt>
      <trkpt lat="45.00104" lon="0.66745">
        <ele>187.9</ele>
        <time>1970-01-01T00:40:35.000Z</time>
      </trkpt>
      <trkpt lat="45.00102" lon="0.66749">
        <ele>186.8</ele>
        <time>1970-01-01T00:40:36.000Z</time>
      </trkpt>
      <trkpt lat="45.00101" lon="0.66751">
        <ele>186.8</ele>
        <time>1970-01-01T00:40:37.000Z</time>
      </trkpt>
      <trkpt lat="45.001" lon="0.66753">
        <ele>186.8</ele>
        <time>1970-01-01T00:40:38.000Z</time>
      </trkpt>
      <trkpt lat="45.00099" lon="0.66755">
        <ele>186.8</ele>
        <time>1970-01-01T00:40:39.000Z</time>
      </trkpt>
      <trkpt lat="45.00099" lon="0.66757">
        <ele>186.8</ele>
        <time>1970-01-01T00:40:40.000Z</time>
      </trkpt>
      <trkpt lat="45.00098" lon="0.66759">
        <ele>186.8</ele>
        <time>1970-01-01T00:40:41.000Z</time>
      </trkpt>
      <trkpt lat="45.00094" lon="0.66768">
        <ele>186.8</ele>
        <time>1970-01-01T00:40:42.000Z</time>
      </trkpt>
      <trkpt lat="45.00091" lon="0.66771">
        <ele>186.8</ele>
        <time>1970-01-01T00:40:43.000Z</time>
      </trkpt>
      <trkpt lat="45.00089" lon="0.66773">
        <ele>186.8</ele>
        <time>1970-01-01T00:40:49.000Z</time>
      </trkpt>
      <trkpt lat="45.00087" lon="0.66776">
        <ele>186.8</ele>
        <time>1970-01-01T00:40:50.000Z</time>
      </trkpt>
      <trkpt lat="45.00085" lon="0.66779">
        <ele>187.9</ele>
        <time>1970-01-01T00:40:51.000Z</time>
      </trkpt>
      <trkpt lat="45.00084" lon="0.66782">
        <ele>187.9</ele>
        <time>1970-01-01T00:40:52.000Z</time>
      </trkpt>
      <trkpt lat="45.00083" lon="0.66785">
        <ele>187.9</ele>
        <time>1970-01-01T00:40:53.000Z</time>
      </trkpt>
      <trkpt lat="45.00083" lon="0.66788">
        <ele>187.9</ele>
        <time>1970-01-01T00:40:54.000Z</time>
      </trkpt>
      <trkpt lat="45.00081" lon="0.66792">
        <ele>187.9</ele>
        <time>1970-01-01T00:40:55.000Z</time>
      </trkpt>
      <trkpt lat="45.0008" lon="0.66794">
        <ele>187.9</ele>
        <time>1970-01-01T00:40:56.000Z</time>
      </trkpt>
      <trkpt lat="45.00079" lon="0.66796">
        <ele>187.9</ele>
        <time>1970-01-01T00:40:57.000Z</time>
      </trkpt>
      <trkpt lat="45.00078" lon="0.66798">
        <ele>187.9</ele>
        <time>1970-01-01T00:40:58.000Z</time>
      </trkpt>
      <trkpt lat="45.00077" lon="0.668">
        <ele>186.8</ele>
        <time>1970-01-01T00:40:59.000Z</time>
      </trkpt>
      <trkpt lat="45.00075" lon="0.66802">
        <ele>187.9</ele>
        <time>1970-01-01T00:41:00.000Z</time>
      </trkpt>
      <trkpt lat="45.00068" lon="0.66812">
        <ele>187.9</ele>
        <time>1970-01-01T00:41:01.000Z</time>
      </trkpt>
      <trkpt lat="45.00066" lon="0.66817">
        <ele>187.9</ele>
        <time>1970-01-01T00:41:02.000Z</time>
      </trkpt>
      <trkpt lat="45.00064" lon="0.66821">
        <ele>187.9</ele>
        <time>1970-01-01T00:41:03.000Z</time>
      </trkpt>
      <trkpt lat="45.00061" lon="0.66827">
        <ele>187.9</ele>
        <time>1970-01-01T00:43:29.000Z</time>
      </trkpt>
      <trkpt lat="45.00061" lon="0.6683">
        <ele>187.9</ele>
        <time>1970-01-01T00:43:30.000Z</time>
      </trkpt>
      <trkpt lat="45.00059" lon="0.66834">
        <ele>187.9</ele>
        <time>1970-01-01T00:43:31.000Z</time>
      </trkpt>
      <trkpt lat="45.00058" lon="0.66838">
        <ele>187.9</ele>
        <time>1970-01-01T00:43:32.000Z</time>
      </trkpt>
      <trkpt lat="45.00056" lon="0.66843">
        <ele>187.9</ele>
        <time>1970-01-01T00:43:33.000Z</time>
      </trkpt>
      <trkpt lat="45.00055" lon="0.66848">
        <ele>187.9</ele>
        <time>1970-01-01T00:43:34.000Z</time>
      </trkpt>
      <trkpt lat="45.00054" lon="0.66852">
        <ele>187.9</ele>
        <time>1970-01-01T00:43:35.000Z</time>
      </trkpt>
      <trkpt lat="45.00053" lon="0.66857">
        <ele>187.9</ele>
        <time>1970-01-01T00:43:36.000Z</time>
      </trkpt>
      <trkpt lat="45.00051" lon="0.66862">
        <ele>188.8</ele>
        <time>1970-01-01T00:43:37.000Z</time>
      </trkpt>
      <trkpt lat="45.0005" lon="0.66867">
        <ele>188.8</ele>
        <time>1970-01-01T00:43:38.000Z</time>
      </trkpt>
      <trkpt lat="45.00048" lon="0.66872">
        <ele>188.8</ele>
        <time>1970-01-01T00:43:39.000Z</time>
      </trkpt>
      <trkpt lat="45.00046" lon="0.66876">
        <ele>188.8</ele>
        <time>1970-01-01T00:43:40.000Z</time>
      </trkpt>
      <trkpt lat="45.00044" lon="0.66881">
        <ele>188.8</ele>
        <time>1970-01-01T00:43:41.000Z</time>
      </trkpt>
      <trkpt lat="45.00042" lon="0.66886">
        <ele>188.8</ele>
        <time>1970-01-01T00:43:42.000Z</time>
      </trkpt>
      <trkpt lat="45.00039" lon="0.6689">
        <ele>188.8</ele>
        <time>1970-01-01T00:43:43.000Z</time>
      </trkpt>
      <trkpt lat="45.00037" lon="0.66895">
        <ele>188.8</ele>
        <time>1970-01-01T00:43:44.000Z</time>
      </trkpt>
      <trkpt lat="45.00035" lon="0.66899">
        <ele>189.9</ele>
        <time>1970-01-01T00:43:45.000Z</time>
      </trkpt>
      <trkpt lat="45.00032" lon="0.66904">
        <ele>189.9</ele>
        <time>1970-01-01T00:43:46.000Z</time>
      </trkpt>
      <trkpt lat="45.0003" lon="0.66909">
        <ele>189.9</ele>
        <time>1970-01-01T00:43:47.000Z</time>
      </trkpt>
      <trkpt lat="45.00028" lon="0.66913">
        <ele>189.9</ele>
        <time>1970-01-01T00:43:48.000Z</time>
      </trkpt>
      <trkpt lat="45.00026" lon="0.66918">
        <ele>190.8</ele>
        <time>1970-01-01T00:43:49.000Z</time>
      </trkpt>
      <trkpt lat="45.00024" lon="0.66923">
        <ele>190.8</ele>
        <time>1970-01-01T00:43:50.000Z</time>
      </trkpt>
      <trkpt lat="45.00023" lon="0.66927">
        <ele>190.8</ele>
        <time>1970-01-01T00:43:51.000Z</time>
      </trkpt>
      <trkpt lat="45.00021" lon="0.66932">
        <ele>190.8</ele>
        <time>1970-01-01T00:43:52.000Z</time>
      </trkpt>
      <trkpt lat="45.0002" lon="0.66937">
        <ele>189.9</ele>
        <time>1970-01-01T00:43:53.000Z</time>
      </trkpt>
      <trkpt lat="45.00018" lon="0.66942">
        <ele>189.9</ele>
        <time>1970-01-01T00:43:54.000Z</time>
      </trkpt>
      <trkpt lat="45.00016" lon="0.66946">
        <ele>189.9</ele>
        <time>1970-01-01T00:43:55.000Z</time>
      </trkpt>
      <trkpt lat="45.00014" lon="0.66952">
        <ele>189.9</ele>
        <time>1970-01-01T00:43:56.000Z</time>
      </trkpt>
      <trkpt lat="45.00012" lon="0.66957">
        <ele>189.9</ele>
        <time>1970-01-01T00:43:57.000Z</time>
      </trkpt>
      <trkpt lat="45.00011" lon="0.66962">
        <ele>189.9</ele>
        <time>1970-01-01T00:43:58.000Z</time>
      </trkpt>
      <trkpt lat="45.00009" lon="0.66967">
        <ele>191.9</ele>
        <time>1970-01-01T00:43:59.000Z</time>
      </trkpt>
      <trkpt lat="45.00007" lon="0.66972">
        <ele>191.9</ele>
        <time>1970-01-01T00:44:00.000Z</time>
      </trkpt>
      <trkpt lat="45.00005" lon="0.66977">
        <ele>191.9</ele>
        <time>1970-01-01T00:44:01.000Z</time>
      </trkpt>
      <trkpt lat="45.00003" lon="0.66982">
        <ele>191.9</ele>
        <time>1970-01-01T00:44:02.000Z</time>
      </trkpt>
      <trkpt lat="45.00001" lon="0.66988">
        <ele>191.9</ele>
        <time>1970-01-01T00:44:03.000Z</time>
      </trkpt>
      <trkpt lat="45.00001" lon="0.66993">
        <ele>191.9</ele>
        <time>1970-01-01T00:44:04.000Z</time>
      </trkpt>
      <trkpt lat="45.00001" lon="0.66998">
        <ele>191.9</ele>
        <time>1970-01-01T00:44:05.000Z</time>
      </trkpt>
      <trkpt lat="45.00003" lon="0.67002">
        <ele>191.9</ele>
        <time>1970-01-01T00:44:06.000Z</time>
      </trkpt>
      <trkpt lat="45.00006" lon="0.67007">
        <ele>191.9</ele>
        <time>1970-01-01T00:44:07.000Z</time>
      </trkpt>
      <trkpt lat="45.00009" lon="0.67012">
        <ele>191.9</ele>
        <time>1970-01-01T00:44:08.000Z</time>
      </trkpt>
      <trkpt lat="45.00013" lon="0.67016">
        <ele>191.9</ele>
        <time>1970-01-01T00:44:09.000Z</time>
      </trkpt>
      <trkpt lat="45.00018" lon="0.67021">
        <ele>191.9</ele>
        <time>1970-01-01T00:44:10.000Z</time>
      </trkpt>
      <trkpt lat="45.00023" lon="0.67023">
        <ele>191.9</ele>
        <time>1970-01-01T00:44:11.000Z</time>
      </trkpt>
      <trkpt lat="45.00028" lon="0.67026">
        <ele>191.9</ele>
        <time>1970-01-01T00:44:12.000Z</time>
      </trkpt>
      <trkpt lat="45.00035" lon="0.67028">
        <ele>191.9</ele>
        <time>1970-01-01T00:44:13.000Z</time>
      </trkpt>
      <trkpt lat="45.00041" lon="0.6703">
        <ele>191.9</ele>
        <time>1970-01-01T00:44:14.000Z</time>
      </trkpt>
      <trkpt lat="45.00046" lon="0.67032">
        <ele>191.9</ele>
        <time>1970-01-01T00:44:15.000Z</time>
      </trkpt>
      <trkpt lat="45.00052" lon="0.67035">
        <ele>191.9</ele>
        <time>1970-01-01T00:44:16.000Z</time>
      </trkpt>
      <trkpt lat="45.00058" lon="0.67037">
        <ele>191.9</ele>
        <time>1970-01-01T00:44:17.000Z</time>
      </trkpt>
      <trkpt lat="45.00064" lon="0.67039">
        <ele>191.9</ele>
        <time>1970-01-01T00:44:18.000Z</time>
      </trkpt>
      <trkpt lat="45.00069" lon="0.67041">
        <ele>191.9</ele>
        <time>1970-01-01T00:44:19.000Z</time>
      </trkpt>
      <trkpt lat="45.00075" lon="0.67043">
        <ele>191.9</ele>
        <time>1970-01-01T00:44:20.000Z</time>
      </trkpt>
      <trkpt lat="45.0008" lon="0.67045">
        <ele>191.9</ele>
        <time>1970-01-01T00:44:21.000Z</time>
      </trkpt>
      <trkpt lat="45.00086" lon="0.67046">
        <ele>191.9</ele>
        <time>1970-01-01T00:44:22.000Z</time>
      </trkpt>
      <trkpt lat="45.00091" lon="0.67048">
        <ele>191.9</ele>
        <time>1970-01-01T00:44:23.000Z</time>
      </trkpt>
      <trkpt lat="45.00097" lon="0.67049">
        <ele>191.9</ele>
        <time>1970-01-01T00:44:24.000Z</time>
      </trkpt>
      <trkpt lat="45.00102" lon="0.6705">
        <ele>191.9</ele>
        <time>1970-01-01T00:44:25.000Z</time>
      </trkpt>
      <trkpt lat="45.00108" lon="0.67051">
        <ele>191.9</ele>
        <time>1970-01-01T00:44:26.000Z</time>
      </trkpt>
      <trkpt lat="45.00113" lon="0.67053">
        <ele>191.9</ele>
        <time>1970-01-01T00:44:27.000Z</time>
      </trkpt>
      <trkpt lat="45.00118" lon="0.67054">
        <ele>191.9</ele>
        <time>1970-01-01T00:44:28.000Z</time>
      </trkpt>
      <trkpt lat="45.00123" lon="0.67056">
        <ele>190.8</ele>
        <time>1970-01-01T00:44:29.000Z</time>
      </trkpt>
      <trkpt lat="45.00128" lon="0.67058">
        <ele>190.8</ele>
        <time>1970-01-01T00:44:30.000Z</time>
      </trkpt>
      <trkpt lat="45.00133" lon="0.67061">
        <ele>191.9</ele>
        <time>1970-01-01T00:44:31.000Z</time>
      </trkpt>
      <trkpt lat="45.00138" lon="0.67063">
        <ele>191.9</ele>
        <time>1970-01-01T00:44:32.000Z</time>
      </trkpt>
      <trkpt lat="45.00142" lon="0.67065">
        <ele>191.9</ele>
        <time>1970-01-01T00:44:33.000Z</time>
      </trkpt>
      <trkpt lat="45.00146" lon="0.67067">
        <ele>191.9</ele>
        <time>1970-01-01T00:44:34.000Z</time>
      </trkpt>
      <trkpt lat="45.00151" lon="0.67071">
        <ele>191.9</ele>
        <time>1970-01-01T00:44:35.000Z</time>
      </trkpt>
      <trkpt lat="45.00155" lon="0.67075">
        <ele>191.9</ele>
        <time>1970-01-01T00:44:36.000Z</time>
      </trkpt>
      <trkpt lat="45.00159" lon="0.67079">
        <ele>191.9</ele>
        <time>1970-01-01T00:44:37.000Z</time>
      </trkpt>
      <trkpt lat="45.00164" lon="0.67084">
        <ele>191.9</ele>
        <time>1970-01-01T00:44:38.000Z</time>
      </trkpt>
      <trkpt lat="45.00169" lon="0.67089">
        <ele>190.8</ele>
        <time>1970-01-01T00:44:39.000Z</time>
      </trkpt>
      <trkpt lat="45.00173" lon="0.67094">
        <ele>190.8</ele>
        <time>1970-01-01T00:44:40.000Z</time>
      </trkpt>
      <trkpt lat="45.00178" lon="0.67099">
        <ele>190.8</ele>
        <time>1970-01-01T00:44:41.000Z</time>
      </trkpt>
      <trkpt lat="45.00182" lon="0.67104">
        <ele>190.8</ele>
        <time>1970-01-01T00:44:42.000Z</time>
      </trkpt>
      <trkpt lat="45.00188" lon="0.67111">
        <ele>190.8</ele>
        <time>1970-01-01T00:44:43.000Z</time>
      </trkpt>
      <trkpt lat="45.00192" lon="0.67116">
        <ele>190.8</ele>
        <time>1970-01-01T00:44:44.000Z</time>
      </trkpt>
      <trkpt lat="45.00198" lon="0.67123">
        <ele>189.9</ele>
        <time>1970-01-01T00:44:45.000Z</time>
      </trkpt>
      <trkpt lat="45.00202" lon="0.67129">
        <ele>189.9</ele>
        <time>1970-01-01T00:44:46.000Z</time>
      </trkpt>
      <trkpt lat="45.00206" lon="0.67135">
        <ele>189.9</ele>
        <time>1970-01-01T00:44:47.000Z</time>
      </trkpt>
      <trkpt lat="45.0021" lon="0.6714">
        <ele>189.9</ele>
        <time>1970-01-01T00:44:48.000Z</time>
      </trkpt>
      <trkpt lat="45.00214" lon="0.67146">
        <ele>189.9</ele>
        <time>1970-01-01T00:44:49.000Z</time>
      </trkpt>
      <trkpt lat="45.00218" lon="0.67152">
        <ele>189.9</ele>
        <time>1970-01-01T00:44:50.000Z</time>
      </trkpt>
      <trkpt lat="45.00221" lon="0.67158">
        <ele>189.9</ele>
        <time>1970-01-01T00:44:51.000Z</time>
      </trkpt>
      <trkpt lat="45.00225" lon="0.67164">
        <ele>189.9</ele>
        <time>1970-01-01T00:44:52.000Z</time>
      </trkpt>
      <trkpt lat="45.00229" lon="0.6717">
        <ele>188.8</ele>
        <time>1970-01-01T00:44:53.000Z</time>
      </trkpt>
      <trkpt lat="45.00232" lon="0.67176">
        <ele>188.8</ele>
        <time>1970-01-01T00:44:54.000Z</time>
      </trkpt>
      <trkpt lat="45.00237" lon="0.67184">
        <ele>188.8</ele>
        <time>1970-01-01T00:44:55.000Z</time>
      </trkpt>
      <trkpt lat="45.00242" lon="0.67191">
        <ele>188.8</ele>
        <time>1970-01-01T00:44:56.000Z</time>
      </trkpt>
      <trkpt lat="45.00247" lon="0.67198">
        <ele>188.8</ele>
        <time>1970-01-01T00:44:57.000Z</time>
      </trkpt>
      <trkpt lat="45.00253" lon="0.67205">
        <ele>188.8</ele>
        <time>1970-01-01T00:44:58.000Z</time>
      </trkpt>
      <trkpt lat="45.00259" lon="0.67212">
        <ele>188.8</ele>
        <time>1970-01-01T00:44:59.000Z</time>
      </trkpt>
      <trkpt lat="45.00265" lon="0.67218">
        <ele>188.8</ele>
        <time>1970-01-01T00:45:00.000Z</time>
      </trkpt>
      <trkpt lat="45.00271" lon="0.67225">
        <ele>185.8</ele>
        <time>1970-01-01T00:45:01.000Z</time>
      </trkpt>
      <trkpt lat="45.00277" lon="0.67231">
        <ele>185.8</ele>
        <time>1970-01-01T00:45:02.000Z</time>
      </trkpt>
      <trkpt lat="45.00283" lon="0.67238">
        <ele>184.9</ele>
        <time>1970-01-01T00:45:03.000Z</time>
      </trkpt>
      <trkpt lat="45.00289" lon="0.67243">
        <ele>184.9</ele>
        <time>1970-01-01T00:45:04.000Z</time>
      </trkpt>
      <trkpt lat="45.00296" lon="0.67249">
        <ele>184.9</ele>
        <time>1970-01-01T00:45:05.000Z</time>
      </trkpt>
      <trkpt lat="45.003" lon="0.67254">
        <ele>184.9</ele>
        <time>1970-01-01T00:45:06.000Z</time>
      </trkpt>
      <trkpt lat="45.00306" lon="0.6726">
        <ele>184.9</ele>
        <time>1970-01-01T00:45:07.000Z</time>
      </trkpt>
      <trkpt lat="45.00312" lon="0.67265">
        <ele>184.9</ele>
        <time>1970-01-01T00:45:08.000Z</time>
      </trkpt>
      <trkpt lat="45.00319" lon="0.67271">
        <ele>184.9</ele>
        <time>1970-01-01T00:45:09.000Z</time>
      </trkpt>
      <trkpt lat="45.00324" lon="0.67275">
        <ele>184.9</ele>
        <time>1970-01-01T00:45:10.000Z</time>
      </trkpt>
      <trkpt lat="45.00329" lon="0.67277">
        <ele>184.9</ele>
        <time>1970-01-01T00:45:11.000Z</time>
      </trkpt>
      <trkpt lat="45.00334" lon="0.6728">
        <ele>184.9</ele>
        <time>1970-01-01T00:45:12.000Z</time>
      </trkpt>
      <trkpt lat="45.0034" lon="0.67282">
        <ele>185.8</ele>
        <time>1970-01-01T00:45:13.000Z</time>
      </trkpt>
      <trkpt lat="45.00345" lon="0.67284">
        <ele>185.8</ele>
        <time>1970-01-01T00:45:14.000Z</time>
      </trkpt>
      <trkpt lat="45.0035" lon="0.67286">
        <ele>185.8</ele>
        <time>1970-01-01T00:45:15.000Z</time>
      </trkpt>
      <trkpt lat="45.00355" lon="0.67287">
        <ele>185.8</ele>
        <time>1970-01-01T00:45:16.000Z</time>
      </trkpt>
      <trkpt lat="45.00359" lon="0.67289">
        <ele>186.8</ele>
        <time>1970-01-01T00:45:17.000Z</time>
      </trkpt>
      <trkpt lat="45.00363" lon="0.67291">
        <ele>186.8</ele>
        <time>1970-01-01T00:45:18.000Z</time>
      </trkpt>
      <trkpt lat="45.00366" lon="0.67292">
        <ele>186.8</ele>
        <time>1970-01-01T00:45:19.000Z</time>
      </trkpt>
      <trkpt lat="45.0037" lon="0.67294">
        <ele>186.8</ele>
        <time>1970-01-01T00:45:20.000Z</time>
      </trkpt>
      <trkpt lat="45.00373" lon="0.67295">
        <ele>186.8</ele>
        <time>1970-01-01T00:45:21.000Z</time>
      </trkpt>
      <trkpt lat="45.00377" lon="0.67297">
        <ele>186.8</ele>
        <time>1970-01-01T00:45:22.000Z</time>
      </trkpt>
      <trkpt lat="45.0038" lon="0.67299">
        <ele>186.8</ele>
        <time>1970-01-01T00:45:23.000Z</time>
      </trkpt>
      <trkpt lat="45.00384" lon="0.67301">
        <ele>186.8</ele>
        <time>1970-01-01T00:45:24.000Z</time>
      </trkpt>
      <trkpt lat="45.00388" lon="0.67302">
        <ele>186.8</ele>
        <time>1970-01-01T00:45:25.000Z</time>
      </trkpt>
      <trkpt lat="45.00392" lon="0.67303">
        <ele>186.8</ele>
        <time>1970-01-01T00:45:26.000Z</time>
      </trkpt>
      <trkpt lat="45.00396" lon="0.67305">
        <ele>188.8</ele>
        <time>1970-01-01T00:45:27.000Z</time>
      </trkpt>
      <trkpt lat="45.004" lon="0.67306">
        <ele>188.8</ele>
        <time>1970-01-01T00:45:28.000Z</time>
      </trkpt>
      <trkpt lat="45.00405" lon="0.67307">
        <ele>188.8</ele>
        <time>1970-01-01T00:45:29.000Z</time>
      </trkpt>
      <trkpt lat="45.00409" lon="0.67307">
        <ele>188.8</ele>
        <time>1970-01-01T00:45:30.000Z</time>
      </trkpt>
      <trkpt lat="45.00414" lon="0.67306">
        <ele>188.8</ele>
        <time>1970-01-01T00:45:31.000Z</time>
      </trkpt>
      <trkpt lat="45.00418" lon="0.67305">
        <ele>188.8</ele>
        <time>1970-01-01T00:45:32.000Z</time>
      </trkpt>
      <trkpt lat="45.00423" lon="0.67303">
        <ele>187.9</ele>
        <time>1970-01-01T00:45:33.000Z</time>
      </trkpt>
      <trkpt lat="45.00428" lon="0.67302">
        <ele>187.9</ele>
        <time>1970-01-01T00:45:34.000Z</time>
      </trkpt>
      <trkpt lat="45.00434" lon="0.67301">
        <ele>187.9</ele>
        <time>1970-01-01T00:45:35.000Z</time>
      </trkpt>
      <trkpt lat="45.00439" lon="0.673">
        <ele>187.9</ele>
        <time>1970-01-01T00:45:36.000Z</time>
      </trkpt>
      <trkpt lat="45.00445" lon="0.673">
        <ele>187.9</ele>
        <time>1970-01-01T00:45:37.000Z</time>
      </trkpt>
      <trkpt lat="45.00451" lon="0.67299">
        <ele>187.9</ele>
        <time>1970-01-01T00:45:38.000Z</time>
      </trkpt>
      <trkpt lat="45.00457" lon="0.67301">
        <ele>187.9</ele>
        <time>1970-01-01T00:45:39.000Z</time>
      </trkpt>
      <trkpt lat="45.00463" lon="0.67303">
        <ele>187.9</ele>
        <time>1970-01-01T00:45:40.000Z</time>
      </trkpt>
      <trkpt lat="45.00468" lon="0.67306">
        <ele>186.8</ele>
        <time>1970-01-01T00:45:41.000Z</time>
      </trkpt>
      <trkpt lat="45.00473" lon="0.6731">
        <ele>186.8</ele>
        <time>1970-01-01T00:45:42.000Z</time>
      </trkpt>
      <trkpt lat="45.00479" lon="0.67315">
        <ele>185.8</ele>
        <time>1970-01-01T00:45:43.000Z</time>
      </trkpt>
      <trkpt lat="45.00483" lon="0.67319">
        <ele>185.8</ele>
        <time>1970-01-01T00:45:44.000Z</time>
      </trkpt>
      <trkpt lat="45.00488" lon="0.67324">
        <ele>185.8</ele>
        <time>1970-01-01T00:45:45.000Z</time>
      </trkpt>
      <trkpt lat="45.00494" lon="0.6733">
        <ele>185.8</ele>
        <time>1970-01-01T00:45:46.000Z</time>
      </trkpt>
      <trkpt lat="45.00499" lon="0.67335">
        <ele>185.8</ele>
        <time>1970-01-01T00:45:47.000Z</time>
      </trkpt>
      <trkpt lat="45.00504" lon="0.6734">
        <ele>185.8</ele>
        <time>1970-01-01T00:45:48.000Z</time>
      </trkpt>
      <trkpt lat="45.00509" lon="0.67344">
        <ele>185.8</ele>
        <time>1970-01-01T00:45:49.000Z</time>
      </trkpt>
      <trkpt lat="45.00514" lon="0.67349">
        <ele>185.8</ele>
        <time>1970-01-01T00:45:50.000Z</time>
      </trkpt>
      <trkpt lat="45.00519" lon="0.67353">
        <ele>185.8</ele>
        <time>1970-01-01T00:45:51.000Z</time>
      </trkpt>
      <trkpt lat="45.00524" lon="0.67357">
        <ele>185.8</ele>
        <time>1970-01-01T00:45:52.000Z</time>
      </trkpt>
      <trkpt lat="45.00529" lon="0.67362">
        <ele>185.8</ele>
        <time>1970-01-01T00:45:53.000Z</time>
      </trkpt>
      <trkpt lat="45.00534" lon="0.67366">
        <ele>185.8</ele>
        <time>1970-01-01T00:45:54.000Z</time>
      </trkpt>
      <trkpt lat="45.00539" lon="0.6737">
        <ele>185.8</ele>
        <time>1970-01-01T00:45:55.000Z</time>
      </trkpt>
      <trkpt lat="45.00544" lon="0.67374">
        <ele>185.8</ele>
        <time>1970-01-01T00:45:56.000Z</time>
      </trkpt>
      <trkpt lat="45.00549" lon="0.67379">
        <ele>185.8</ele>
        <time>1970-01-01T00:45:57.000Z</time>
      </trkpt>
      <trkpt lat="45.00554" lon="0.67383">
        <ele>185.8</ele>
        <time>1970-01-01T00:45:58.000Z</time>
      </trkpt>
      <trkpt lat="45.00558" lon="0.67388">
        <ele>185.8</ele>
        <time>1970-01-01T00:45:59.000Z</time>
      </trkpt>
      <trkpt lat="45.00563" lon="0.67393">
        <ele>185.8</ele>
        <time>1970-01-01T00:46:00.000Z</time>
      </trkpt>
      <trkpt lat="45.00568" lon="0.67397">
        <ele>185.8</ele>
        <time>1970-01-01T00:46:01.000Z</time>
      </trkpt>
      <trkpt lat="45.00572" lon="0.67402">
        <ele>185.8</ele>
        <time>1970-01-01T00:46:02.000Z</time>
      </trkpt>
      <trkpt lat="45.00577" lon="0.67406">
        <ele>185.8</ele>
        <time>1970-01-01T00:46:03.000Z</time>
      </trkpt>
      <trkpt lat="45.00581" lon="0.67411">
        <ele>185.8</ele>
        <time>1970-01-01T00:46:04.000Z</time>
      </trkpt>
      <trkpt lat="45.00586" lon="0.67415">
        <ele>185.8</ele>
        <time>1970-01-01T00:46:05.000Z</time>
      </trkpt>
      <trkpt lat="45.0059" lon="0.67419">
        <ele>185.8</ele>
        <time>1970-01-01T00:46:06.000Z</time>
      </trkpt>
      <trkpt lat="45.00594" lon="0.67424">
        <ele>185.8</ele>
        <time>1970-01-01T00:46:07.000Z</time>
      </trkpt>
      <trkpt lat="45.00599" lon="0.67428">
        <ele>185.8</ele>
        <time>1970-01-01T00:46:08.000Z</time>
      </trkpt>
      <trkpt lat="45.00603" lon="0.67432">
        <ele>185.8</ele>
        <time>1970-01-01T00:46:09.000Z</time>
      </trkpt>
      <trkpt lat="45.00607" lon="0.67436">
        <ele>186.8</ele>
        <time>1970-01-01T00:46:10.000Z</time>
      </trkpt>
      <trkpt lat="45.0061" lon="0.67439">
        <ele>186.8</ele>
        <time>1970-01-01T00:46:11.000Z</time>
      </trkpt>
      <trkpt lat="45.00613" lon="0.67443">
        <ele>186.8</ele>
        <time>1970-01-01T00:46:12.000Z</time>
      </trkpt>
      <trkpt lat="45.00617" lon="0.67446">
        <ele>186.8</ele>
        <time>1970-01-01T00:46:13.000Z</time>
      </trkpt>
      <trkpt lat="45.0062" lon="0.6745">
        <ele>186.8</ele>
        <time>1970-01-01T00:46:14.000Z</time>
      </trkpt>
      <trkpt lat="45.00624" lon="0.67454">
        <ele>186.8</ele>
        <time>1970-01-01T00:46:15.000Z</time>
      </trkpt>
      <trkpt lat="45.00628" lon="0.67458">
        <ele>186.8</ele>
        <time>1970-01-01T00:46:16.000Z</time>
      </trkpt>
      <trkpt lat="45.00633" lon="0.67462">
        <ele>186.8</ele>
        <time>1970-01-01T00:46:17.000Z</time>
      </trkpt>
      <trkpt lat="45.00638" lon="0.67467">
        <ele>186.8</ele>
        <time>1970-01-01T00:46:18.000Z</time>
      </trkpt>
      <trkpt lat="45.00643" lon="0.67472">
        <ele>186.8</ele>
        <time>1970-01-01T00:46:19.000Z</time>
      </trkpt>
      <trkpt lat="45.00647" lon="0.67477">
        <ele>185.8</ele>
        <time>1970-01-01T00:46:20.000Z</time>
      </trkpt>
      <trkpt lat="45.00652" lon="0.67483">
        <ele>185.8</ele>
        <time>1970-01-01T00:46:21.000Z</time>
      </trkpt>
      <trkpt lat="45.00657" lon="0.67489">
        <ele>185.8</ele>
        <time>1970-01-01T00:46:22.000Z</time>
      </trkpt>
      <trkpt lat="45.00662" lon="0.67495">
        <ele>185.8</ele>
        <time>1970-01-01T00:46:23.000Z</time>
      </trkpt>
      <trkpt lat="45.00668" lon="0.67501">
        <ele>184.9</ele>
        <time>1970-01-01T00:46:24.000Z</time>
      </trkpt>
      <trkpt lat="45.00673" lon="0.67507">
        <ele>184.9</ele>
        <time>1970-01-01T00:46:25.000Z</time>
      </trkpt>
      <trkpt lat="45.00679" lon="0.67514">
        <ele>184.9</ele>
        <time>1970-01-01T00:46:26.000Z</time>
      </trkpt>
      <trkpt lat="45.00684" lon="0.6752">
        <ele>184.9</ele>
        <time>1970-01-01T00:46:27.000Z</time>
      </trkpt>
      <trkpt lat="45.0069" lon="0.67527">
        <ele>184.9</ele>
        <time>1970-01-01T00:46:28.000Z</time>
      </trkpt>
      <trkpt lat="45.00695" lon="0.67535">
        <ele>184.9</ele>
        <time>1970-01-01T00:46:29.000Z</time>
      </trkpt>
      <trkpt lat="45.00699" lon="0.67544">
        <ele>184.9</ele>
        <time>1970-01-01T00:46:30.000Z</time>
      </trkpt>
      <trkpt lat="45.00704" lon="0.67553">
        <ele>184.9</ele>
        <time>1970-01-01T00:46:31.000Z</time>
      </trkpt>
      <trkpt lat="45.00708" lon="0.67562">
        <ele>180.9</ele>
        <time>1970-01-01T00:46:32.000Z</time>
      </trkpt>
      <trkpt lat="45.00712" lon="0.67571">
        <ele>180.9</ele>
        <time>1970-01-01T00:46:33.000Z</time>
      </trkpt>
      <trkpt lat="45.00717" lon="0.67579">
        <ele>179.8</ele>
        <time>1970-01-01T00:46:34.000Z</time>
      </trkpt>
      <trkpt lat="45.00722" lon="0.67588">
        <ele>179.8</ele>
        <time>1970-01-01T00:46:35.000Z</time>
      </trkpt>
      <trkpt lat="45.00727" lon="0.67597">
        <ele>179.8</ele>
        <time>1970-01-01T00:46:36.000Z</time>
      </trkpt>
      <trkpt lat="45.00731" lon="0.67604">
        <ele>179.8</ele>
        <time>1970-01-01T00:46:37.000Z</time>
      </trkpt>
      <trkpt lat="45.00735" lon="0.67614">
        <ele>178.8</ele>
        <time>1970-01-01T00:46:38.000Z</time>
      </trkpt>
      <trkpt lat="45.00742" lon="0.67624">
        <ele>178.8</ele>
        <time>1970-01-01T00:46:39.000Z</time>
      </trkpt>
      <trkpt lat="45.00749" lon="0.67632">
        <ele>178.8</ele>
        <time>1970-01-01T00:46:40.000Z</time>
      </trkpt>
      <trkpt lat="45.00755" lon="0.67637">
        <ele>178.8</ele>
        <time>1970-01-01T00:46:41.000Z</time>
      </trkpt>
      <trkpt lat="45.00763" lon="0.67643">
        <ele>178.8</ele>
        <time>1970-01-01T00:46:42.000Z</time>
      </trkpt>
      <trkpt lat="45.0077" lon="0.67648">
        <ele>178.8</ele>
        <time>1970-01-01T00:46:43.000Z</time>
      </trkpt>
      <trkpt lat="45.0078" lon="0.67653">
        <ele>173.9</ele>
        <time>1970-01-01T00:46:44.000Z</time>
      </trkpt>
      <trkpt lat="45.00787" lon="0.67656">
        <ele>173.9</ele>
        <time>1970-01-01T00:46:45.000Z</time>
      </trkpt>
      <trkpt lat="45.00794" lon="0.6766">
        <ele>171.9</ele>
        <time>1970-01-01T00:46:46.000Z</time>
      </trkpt>
      <trkpt lat="45.00802" lon="0.67664">
        <ele>171.9</ele>
        <time>1970-01-01T00:46:47.000Z</time>
      </trkpt>
      <trkpt lat="45.00809" lon="0.67668">
        <ele>170.8</ele>
        <time>1970-01-01T00:46:48.000Z</time>
      </trkpt>
      <trkpt lat="45.00818" lon="0.67672">
        <ele>170.8</ele>
        <time>1970-01-01T00:46:49.000Z</time>
      </trkpt>
      <trkpt lat="45.00826" lon="0.67677">
        <ele>168.9</ele>
        <time>1970-01-01T00:46:50.000Z</time>
      </trkpt>
      <trkpt lat="45.00834" lon="0.67681">
        <ele>168.9</ele>
        <time>1970-01-01T00:46:51.000Z</time>
      </trkpt>
      <trkpt lat="45.00841" lon="0.67687">
        <ele>168.9</ele>
        <time>1970-01-01T00:46:52.000Z</time>
      </trkpt>
      <trkpt lat="45.00849" lon="0.67695">
        <ele>168.9</ele>
        <time>1970-01-01T00:46:53.000Z</time>
      </trkpt>
      <trkpt lat="45.00856" lon="0.67702">
        <ele>167.8</ele>
        <time>1970-01-01T00:46:54.000Z</time>
      </trkpt>
      <trkpt lat="45.00863" lon="0.6771">
        <ele>167.8</ele>
        <time>1970-01-01T00:46:55.000Z</time>
      </trkpt>
      <trkpt lat="45.00869" lon="0.67718">
        <ele>167.8</ele>
        <time>1970-01-01T00:46:56.000Z</time>
      </trkpt>
      <trkpt lat="45.00876" lon="0.67726">
        <ele>167.8</ele>
        <time>1970-01-01T00:46:57.000Z</time>
      </trkpt>
      <trkpt lat="45.00884" lon="0.67733">
        <ele>166.9</ele>
        <time>1970-01-01T00:46:58.000Z</time>
      </trkpt>
      <trkpt lat="45.00891" lon="0.67739">
        <ele>166.9</ele>
        <time>1970-01-01T00:46:59.000Z</time>
      </trkpt>
      <trkpt lat="45.00898" lon="0.67745">
        <ele>165.8</ele>
        <time>1970-01-01T00:47:00.000Z</time>
      </trkpt>
      <trkpt lat="45.00906" lon="0.6775">
        <ele>165.8</ele>
        <time>1970-01-01T00:47:01.000Z</time>
      </trkpt>
      <trkpt lat="45.00914" lon="0.67755">
        <ele>165.8</ele>
        <time>1970-01-01T00:47:02.000Z</time>
      </trkpt>
      <trkpt lat="45.00921" lon="0.6776">
        <ele>165.8</ele>
        <time>1970-01-01T00:47:03.000Z</time>
      </trkpt>
      <trkpt lat="45.00927" lon="0.67765">
        <ele>165.8</ele>
        <time>1970-01-01T00:47:04.000Z</time>
      </trkpt>
      <trkpt lat="45.00933" lon="0.67772">
        <ele>165.8</ele>
        <time>1970-01-01T00:47:05.000Z</time>
      </trkpt>
      <trkpt lat="45.00939" lon="0.67779">
        <ele>165.8</ele>
        <time>1970-01-01T00:47:06.000Z</time>
      </trkpt>
      <trkpt lat="45.00945" lon="0.67788">
        <ele>165.8</ele>
        <time>1970-01-01T00:47:07.000Z</time>
      </trkpt>
      <trkpt lat="45.0095" lon="0.67796">
        <ele>165.8</ele>
        <time>1970-01-01T00:47:08.000Z</time>
      </trkpt>
      <trkpt lat="45.00955" lon="0.67804">
        <ele>165.8</ele>
        <time>1970-01-01T00:47:09.000Z</time>
      </trkpt>
      <trkpt lat="45.0096" lon="0.67812">
        <ele>165.8</ele>
        <time>1970-01-01T00:47:10.000Z</time>
      </trkpt>
      <trkpt lat="45.00965" lon="0.6782">
        <ele>165.8</ele>
        <time>1970-01-01T00:47:11.000Z</time>
      </trkpt>
      <trkpt lat="45.0097" lon="0.67827">
        <ele>165.8</ele>
        <time>1970-01-01T00:47:12.000Z</time>
      </trkpt>
      <trkpt lat="45.00974" lon="0.67835">
        <ele>165.8</ele>
        <time>1970-01-01T00:47:13.000Z</time>
      </trkpt>
      <trkpt lat="45.00979" lon="0.67842">
        <ele>165.8</ele>
        <time>1970-01-01T00:47:14.000Z</time>
      </trkpt>
      <trkpt lat="45.00983" lon="0.67849">
        <ele>165.8</ele>
        <time>1970-01-01T00:47:15.000Z</time>
      </trkpt>
      <trkpt lat="45.00988" lon="0.67857">
        <ele>165.8</ele>
        <time>1970-01-01T00:47:16.000Z</time>
      </trkpt>
      <trkpt lat="45.00992" lon="0.67865">
        <ele>165.8</ele>
        <time>1970-01-01T00:47:17.000Z</time>
      </trkpt>
      <trkpt lat="45.00995" lon="0.67872">
        <ele>165.8</ele>
        <time>1970-01-01T00:47:18.000Z</time>
      </trkpt>
      <trkpt lat="45.00999" lon="0.6788">
        <ele>165.8</ele>
        <time>1970-01-01T00:47:19.000Z</time>
      </trkpt>
      <trkpt lat="45.01002" lon="0.67888">
        <ele>165.8</ele>
        <time>1970-01-01T00:47:20.000Z</time>
      </trkpt>
      <trkpt lat="45.01005" lon="0.67897">
        <ele>165.8</ele>
        <time>1970-01-01T00:47:21.000Z</time>
      </trkpt>
      <trkpt lat="45.01009" lon="0.67905">
        <ele>165.8</ele>
        <time>1970-01-01T00:47:22.000Z</time>
      </trkpt>
      <trkpt lat="45.01012" lon="0.67914">
        <ele>165.8</ele>
        <time>1970-01-01T00:47:23.000Z</time>
      </trkpt>
      <trkpt lat="45.01015" lon="0.67923">
        <ele>164.9</ele>
        <time>1970-01-01T00:47:24.000Z</time>
      </trkpt>
      <trkpt lat="45.01019" lon="0.67932">
        <ele>164.9</ele>
        <time>1970-01-01T00:47:25.000Z</time>
      </trkpt>
      <trkpt lat="45.01023" lon="0.67941">
        <ele>163.8</ele>
        <time>1970-01-01T00:47:26.000Z</time>
      </trkpt>
      <trkpt lat="45.01028" lon="0.67949">
        <ele>163.8</ele>
        <time>1970-01-01T00:47:27.000Z</time>
      </trkpt>
      <trkpt lat="45.01033" lon="0.67957">
        <ele>162.8</ele>
        <time>1970-01-01T00:47:28.000Z</time>
      </trkpt>
      <trkpt lat="45.01038" lon="0.67965">
        <ele>162.8</ele>
        <time>1970-01-01T00:47:29.000Z</time>
      </trkpt>
      <trkpt lat="45.01045" lon="0.67975">
        <ele>161.9</ele>
        <time>1970-01-01T00:47:30.000Z</time>
      </trkpt>
      <trkpt lat="45.01049" lon="0.67981">
        <ele>161.9</ele>
        <time>1970-01-01T00:47:31.000Z</time>
      </trkpt>
      <trkpt lat="45.01055" lon="0.67988">
        <ele>160.8</ele>
        <time>1970-01-01T00:47:32.000Z</time>
      </trkpt>
      <trkpt lat="45.0106" lon="0.67995">
        <ele>160.8</ele>
        <time>1970-01-01T00:47:33.000Z</time>
      </trkpt>
      <trkpt lat="45.01066" lon="0.68002">
        <ele>160.8</ele>
        <time>1970-01-01T00:47:34.000Z</time>
      </trkpt>
      <trkpt lat="45.01072" lon="0.68008">
        <ele>160.8</ele>
        <time>1970-01-01T00:47:35.000Z</time>
      </trkpt>
      <trkpt lat="45.01078" lon="0.68014">
        <ele>160.8</ele>
        <time>1970-01-01T00:47:36.000Z</time>
      </trkpt>
      <trkpt lat="45.01084" lon="0.68021">
        <ele>160.8</ele>
        <time>1970-01-01T00:47:37.000Z</time>
      </trkpt>
      <trkpt lat="45.0109" lon="0.68028">
        <ele>159.9</ele>
        <time>1970-01-01T00:47:38.000Z</time>
      </trkpt>
      <trkpt lat="45.01096" lon="0.68034">
        <ele>159.9</ele>
        <time>1970-01-01T00:47:39.000Z</time>
      </trkpt>
      <trkpt lat="45.01102" lon="0.6804">
        <ele>159.9</ele>
        <time>1970-01-01T00:47:40.000Z</time>
      </trkpt>
      <trkpt lat="45.01108" lon="0.68046">
        <ele>159.9</ele>
        <time>1970-01-01T00:47:41.000Z</time>
      </trkpt>
      <trkpt lat="45.01113" lon="0.68052">
        <ele>159.9</ele>
        <time>1970-01-01T00:47:42.000Z</time>
      </trkpt>
      <trkpt lat="45.01119" lon="0.68058">
        <ele>159.9</ele>
        <time>1970-01-01T00:47:43.000Z</time>
      </trkpt>
      <trkpt lat="45.01125" lon="0.68064">
        <ele>160.8</ele>
        <time>1970-01-01T00:47:44.000Z</time>
      </trkpt>
      <trkpt lat="45.0113" lon="0.6807">
        <ele>160.8</ele>
        <time>1970-01-01T00:47:45.000Z</time>
      </trkpt>
      <trkpt lat="45.01135" lon="0.68076">
        <ele>160.8</ele>
        <time>1970-01-01T00:47:46.000Z</time>
      </trkpt>
      <trkpt lat="45.01141" lon="0.68083">
        <ele>160.8</ele>
        <time>1970-01-01T00:47:47.000Z</time>
      </trkpt>
      <trkpt lat="45.01145" lon="0.6809">
        <ele>159.9</ele>
        <time>1970-01-01T00:47:48.000Z</time>
      </trkpt>
      <trkpt lat="45.0115" lon="0.68097">
        <ele>159.9</ele>
        <time>1970-01-01T00:47:49.000Z</time>
      </trkpt>
      <trkpt lat="45.01154" lon="0.68107">
        <ele>158.8</ele>
        <time>1970-01-01T00:47:50.000Z</time>
      </trkpt>
      <trkpt lat="45.01158" lon="0.68116">
        <ele>158.8</ele>
        <time>1970-01-01T00:47:51.000Z</time>
      </trkpt>
      <trkpt lat="45.0116" lon="0.68123">
        <ele>158.8</ele>
        <time>1970-01-01T00:47:52.000Z</time>
      </trkpt>
      <trkpt lat="45.01164" lon="0.68132">
        <ele>158.8</ele>
        <time>1970-01-01T00:47:53.000Z</time>
      </trkpt>
      <trkpt lat="45.01165" lon="0.68142">
        <ele>158.8</ele>
        <time>1970-01-01T00:47:54.000Z</time>
      </trkpt>
      <trkpt lat="45.01164" lon="0.6815">
        <ele>158.8</ele>
        <time>1970-01-01T00:47:55.000Z</time>
      </trkpt>
      <trkpt lat="45.01162" lon="0.68157">
        <ele>157.9</ele>
        <time>1970-01-01T00:47:56.000Z</time>
      </trkpt>
      <trkpt lat="45.01159" lon="0.68164">
        <ele>157.9</ele>
        <time>1970-01-01T00:47:57.000Z</time>
      </trkpt>
      <trkpt lat="45.01155" lon="0.68169">
        <ele>157.9</ele>
        <time>1970-01-01T00:47:58.000Z</time>
      </trkpt>
      <trkpt lat="45.0115" lon="0.68175">
        <ele>157.9</ele>
        <time>1970-01-01T00:47:59.000Z</time>
      </trkpt>
      <trkpt lat="45.01145" lon="0.68181">
        <ele>157.9</ele>
        <time>1970-01-01T00:48:00.000Z</time>
      </trkpt>
      <trkpt lat="45.0114" lon="0.68187">
        <ele>157.9</ele>
        <time>1970-01-01T00:48:01.000Z</time>
      </trkpt>
      <trkpt lat="45.01135" lon="0.68192">
        <ele>157.9</ele>
        <time>1970-01-01T00:48:02.000Z</time>
      </trkpt>
      <trkpt lat="45.01128" lon="0.68198">
        <ele>157.9</ele>
        <time>1970-01-01T00:48:03.000Z</time>
      </trkpt>
      <trkpt lat="45.01123" lon="0.68202">
        <ele>157.9</ele>
        <time>1970-01-01T00:48:04.000Z</time>
      </trkpt>
      <trkpt lat="45.01118" lon="0.68206">
        <ele>157.9</ele>
        <time>1970-01-01T00:48:05.000Z</time>
      </trkpt>
      <trkpt lat="45.01112" lon="0.68211">
        <ele>157.9</ele>
        <time>1970-01-01T00:48:06.000Z</time>
      </trkpt>
      <trkpt lat="45.01106" lon="0.68216">
        <ele>157.9</ele>
        <time>1970-01-01T00:48:07.000Z</time>
      </trkpt>
      <trkpt lat="45.011" lon="0.68221">
        <ele>157.9</ele>
        <time>1970-01-01T00:48:08.000Z</time>
      </trkpt>
      <trkpt lat="45.01094" lon="0.68225">
        <ele>157.9</ele>
        <time>1970-01-01T00:48:09.000Z</time>
      </trkpt>
      <trkpt lat="45.01088" lon="0.6823">
        <ele>157.9</ele>
        <time>1970-01-01T00:48:10.000Z</time>
      </trkpt>
      <trkpt lat="45.01081" lon="0.68235">
        <ele>157.9</ele>
        <time>1970-01-01T00:48:11.000Z</time>
      </trkpt>
      <trkpt lat="45.01076" lon="0.6824">
        <ele>156.8</ele>
        <time>1970-01-01T00:48:12.000Z</time>
      </trkpt>
      <trkpt lat="45.01071" lon="0.68246">
        <ele>156.8</ele>
        <time>1970-01-01T00:48:13.000Z</time>
      </trkpt>
      <trkpt lat="45.01068" lon="0.68254">
        <ele>155.9</ele>
        <time>1970-01-01T00:48:14.000Z</time>
      </trkpt>
      <trkpt lat="45.01067" lon="0.68263">
        <ele>155.9</ele>
        <time>1970-01-01T00:48:15.000Z</time>
      </trkpt>
      <trkpt lat="45.01067" lon="0.68273">
        <ele>155.9</ele>
        <time>1970-01-01T00:48:16.000Z</time>
      </trkpt>
      <trkpt lat="45.01068" lon="0.68283">
        <ele>155.9</ele>
        <time>1970-01-01T00:48:17.000Z</time>
      </trkpt>
      <trkpt lat="45.0107" lon="0.68295">
        <ele>155.9</ele>
        <time>1970-01-01T00:48:18.000Z</time>
      </trkpt>
      <trkpt lat="45.01072" lon="0.68306">
        <ele>155.9</ele>
        <time>1970-01-01T00:48:19.000Z</time>
      </trkpt>
      <trkpt lat="45.01074" lon="0.68317">
        <ele>155.9</ele>
        <time>1970-01-01T00:48:20.000Z</time>
      </trkpt>
      <trkpt lat="45.01076" lon="0.68329">
        <ele>155.9</ele>
        <time>1970-01-01T00:48:21.000Z</time>
      </trkpt>
      <trkpt lat="45.01078" lon="0.6834">
        <ele>151.8</ele>
        <time>1970-01-01T00:48:22.000Z</time>
      </trkpt>
      <trkpt lat="45.0108" lon="0.68353">
        <ele>151.8</ele>
        <time>1970-01-01T00:48:23.000Z</time>
      </trkpt>
      <trkpt lat="45.01082" lon="0.68366">
        <ele>150.9</ele>
        <time>1970-01-01T00:48:24.000Z</time>
      </trkpt>
      <trkpt lat="45.01083" lon="0.68378">
        <ele>150.9</ele>
        <time>1970-01-01T00:48:25.000Z</time>
      </trkpt>
      <trkpt lat="45.01084" lon="0.68393">
        <ele>150.9</ele>
        <time>1970-01-01T00:48:26.000Z</time>
      </trkpt>
      <trkpt lat="45.01084" lon="0.6841">
        <ele>150.9</ele>
        <time>1970-01-01T00:48:27.000Z</time>
      </trkpt>
      <trkpt lat="45.01083" lon="0.68425">
        <ele>150.9</ele>
        <time>1970-01-01T00:48:28.000Z</time>
      </trkpt>
      <trkpt lat="45.01082" lon="0.68439">
        <ele>150.9</ele>
        <time>1970-01-01T00:48:29.000Z</time>
      </trkpt>
      <trkpt lat="45.01081" lon="0.6845">
        <ele>142.8</ele>
        <time>1970-01-01T00:48:30.000Z</time>
      </trkpt>
      <trkpt lat="45.01081" lon="0.68466">
        <ele>142.8</ele>
        <time>1970-01-01T00:48:31.000Z</time>
      </trkpt>
      <trkpt lat="45.01082" lon="0.68479">
        <ele>140.8</ele>
        <time>1970-01-01T00:48:32.000Z</time>
      </trkpt>
      <trkpt lat="45.01084" lon="0.68491">
        <ele>140.8</ele>
        <time>1970-01-01T00:48:33.000Z</time>
      </trkpt>
      <trkpt lat="45.01085" lon="0.68503">
        <ele>137.8</ele>
        <time>1970-01-01T00:48:34.000Z</time>
      </trkpt>
      <trkpt lat="45.01086" lon="0.68515">
        <ele>137.8</ele>
        <time>1970-01-01T00:48:35.000Z</time>
      </trkpt>
      <trkpt lat="45.01087" lon="0.68526">
        <ele>135.8</ele>
        <time>1970-01-01T00:48:36.000Z</time>
      </trkpt>
      <trkpt lat="45.0109" lon="0.68536">
        <ele>135.8</ele>
        <time>1970-01-01T00:48:37.000Z</time>
      </trkpt>
      <trkpt lat="45.01094" lon="0.68544">
        <ele>134.9</ele>
        <time>1970-01-01T00:48:38.000Z</time>
      </trkpt>
      <trkpt lat="45.01099" lon="0.68553">
        <ele>134.9</ele>
        <time>1970-01-01T00:48:39.000Z</time>
      </trkpt>
      <trkpt lat="45.01103" lon="0.6856">
        <ele>134.9</ele>
        <time>1970-01-01T00:48:40.000Z</time>
      </trkpt>
      <trkpt lat="45.01107" lon="0.68567">
        <ele>134.9</ele>
        <time>1970-01-01T00:48:41.000Z</time>
      </trkpt>
      <trkpt lat="45.01109" lon="0.68573">
        <ele>132.9</ele>
        <time>1970-01-01T00:48:42.000Z</time>
      </trkpt>
      <trkpt lat="45.01108" lon="0.68579">
        <ele>132.9</ele>
        <time>1970-01-01T00:48:43.000Z</time>
      </trkpt>
      <trkpt lat="45.01106" lon="0.68584">
        <ele>131.8</ele>
        <time>1970-01-01T00:48:44.000Z</time>
      </trkpt>
      <trkpt lat="45.01103" lon="0.68588">
        <ele>131.8</ele>
        <time>1970-01-01T00:48:45.000Z</time>
      </trkpt>
      <trkpt lat="45.01098" lon="0.68592">
        <ele>130.8</ele>
        <time>1970-01-01T00:48:46.000Z</time>
      </trkpt>
      <trkpt lat="45.01092" lon="0.68597">
        <ele>130.8</ele>
        <time>1970-01-01T00:48:47.000Z</time>
      </trkpt>
      <trkpt lat="45.01086" lon="0.68604">
        <ele>129.8</ele>
        <time>1970-01-01T00:48:48.000Z</time>
      </trkpt>
      <trkpt lat="45.0108" lon="0.68611">
        <ele>129.8</ele>
        <time>1970-01-01T00:48:49.000Z</time>
      </trkpt>
      <trkpt lat="45.01074" lon="0.68618">
        <ele>127.9</ele>
        <time>1970-01-01T00:48:50.000Z</time>
      </trkpt>
      <trkpt lat="45.01068" lon="0.68627">
        <ele>127.9</ele>
        <time>1970-01-01T00:48:51.000Z</time>
      </trkpt>
      <trkpt lat="45.01063" lon="0.68635">
        <ele>127.9</ele>
        <time>1970-01-01T00:48:52.000Z</time>
      </trkpt>
      <trkpt lat="45.0106" lon="0.68644">
        <ele>127.9</ele>
        <time>1970-01-01T00:48:53.000Z</time>
      </trkpt>
      <trkpt lat="45.01057" lon="0.68653">
        <ele>127.9</ele>
        <time>1970-01-01T00:48:54.000Z</time>
      </trkpt>
      <trkpt lat="45.01054" lon="0.68662">
        <ele>127.9</ele>
        <time>1970-01-01T00:48:55.000Z</time>
      </trkpt>
      <trkpt lat="45.01051" lon="0.68671">
        <ele>127.9</ele>
        <time>1970-01-01T00:48:56.000Z</time>
      </trkpt>
      <trkpt lat="45.01048" lon="0.68679">
        <ele>127.9</ele>
        <time>1970-01-01T00:48:57.000Z</time>
      </trkpt>
      <trkpt lat="45.01044" lon="0.68686">
        <ele>127.9</ele>
        <time>1970-01-01T00:48:58.000Z</time>
      </trkpt>
      <trkpt lat="45.01041" lon="0.68692">
        <ele>127.9</ele>
        <time>1970-01-01T00:48:59.000Z</time>
      </trkpt>
      <trkpt lat="45.01037" lon="0.68697">
        <ele>128.8</ele>
        <time>1970-01-01T00:49:00.000Z</time>
      </trkpt>
      <trkpt lat="45.01034" lon="0.68701">
        <ele>128.8</ele>
        <time>1970-01-01T00:49:01.000Z</time>
      </trkpt>
      <trkpt lat="45.01029" lon="0.68705">
        <ele>128.8</ele>
        <time>1970-01-01T00:49:02.000Z</time>
      </trkpt>
      <trkpt lat="45.01025" lon="0.68709">
        <ele>128.8</ele>
        <time>1970-01-01T00:49:03.000Z</time>
      </trkpt>
      <trkpt lat="45.0102" lon="0.68712">
        <ele>128.8</ele>
        <time>1970-01-01T00:49:04.000Z</time>
      </trkpt>
      <trkpt lat="45.01015" lon="0.68716">
        <ele>128.8</ele>
        <time>1970-01-01T00:49:05.000Z</time>
      </trkpt>
      <trkpt lat="45.01011" lon="0.68719">
        <ele>128.8</ele>
        <time>1970-01-01T00:49:06.000Z</time>
      </trkpt>
      <trkpt lat="45.01005" lon="0.68724">
        <ele>128.8</ele>
        <time>1970-01-01T00:49:07.000Z</time>
      </trkpt>
      <trkpt lat="45.01" lon="0.68728">
        <ele>128.8</ele>
        <time>1970-01-01T00:49:08.000Z</time>
      </trkpt>
      <trkpt lat="45.00996" lon="0.68733">
        <ele>128.8</ele>
        <time>1970-01-01T00:49:09.000Z</time>
      </trkpt>
      <trkpt lat="45.00992" lon="0.68737">
        <ele>128.8</ele>
        <time>1970-01-01T00:49:10.000Z</time>
      </trkpt>
      <trkpt lat="45.00988" lon="0.6874">
        <ele>128.8</ele>
        <time>1970-01-01T00:49:11.000Z</time>
      </trkpt>
      <trkpt lat="45.00983" lon="0.68746">
        <ele>128.8</ele>
        <time>1970-01-01T00:49:12.000Z</time>
      </trkpt>
      <trkpt lat="45.00979" lon="0.6875">
        <ele>128.8</ele>
        <time>1970-01-01T00:49:13.000Z</time>
      </trkpt>
      <trkpt lat="45.00975" lon="0.68755">
        <ele>128.8</ele>
        <time>1970-01-01T00:49:14.000Z</time>
      </trkpt>
      <trkpt lat="45.00971" lon="0.6876">
        <ele>128.8</ele>
        <time>1970-01-01T00:49:15.000Z</time>
      </trkpt>
      <trkpt lat="45.00968" lon="0.68764">
        <ele>129.8</ele>
        <time>1970-01-01T00:49:16.000Z</time>
      </trkpt>
      <trkpt lat="45.00964" lon="0.68769">
        <ele>129.8</ele>
        <time>1970-01-01T00:49:17.000Z</time>
      </trkpt>
      <trkpt lat="45.0096" lon="0.68773">
        <ele>129.8</ele>
        <time>1970-01-01T00:49:18.000Z</time>
      </trkpt>
      <trkpt lat="45.00956" lon="0.68778">
        <ele>129.8</ele>
        <time>1970-01-01T00:49:19.000Z</time>
      </trkpt>
      <trkpt lat="45.00952" lon="0.68782">
        <ele>129.8</ele>
        <time>1970-01-01T00:49:20.000Z</time>
      </trkpt>
      <trkpt lat="45.00948" lon="0.68787">
        <ele>129.8</ele>
        <time>1970-01-01T00:49:21.000Z</time>
      </trkpt>
      <trkpt lat="45.00944" lon="0.68792">
        <ele>129.8</ele>
        <time>1970-01-01T00:49:22.000Z</time>
      </trkpt>
      <trkpt lat="45.0094" lon="0.68797">
        <ele>129.8</ele>
        <time>1970-01-01T00:49:23.000Z</time>
      </trkpt>
      <trkpt lat="45.00936" lon="0.68802">
        <ele>129.8</ele>
        <time>1970-01-01T00:49:24.000Z</time>
      </trkpt>
      <trkpt lat="45.00933" lon="0.68808">
        <ele>129.8</ele>
        <time>1970-01-01T00:49:25.000Z</time>
      </trkpt>
      <trkpt lat="45.00929" lon="0.68813">
        <ele>129.8</ele>
        <time>1970-01-01T00:49:26.000Z</time>
      </trkpt>
      <trkpt lat="45.00926" lon="0.68819">
        <ele>129.8</ele>
        <time>1970-01-01T00:49:27.000Z</time>
      </trkpt>
      <trkpt lat="45.00924" lon="0.68824">
        <ele>130.8</ele>
        <time>1970-01-01T00:49:28.000Z</time>
      </trkpt>
      <trkpt lat="45.0092" lon="0.68831">
        <ele>130.8</ele>
        <time>1970-01-01T00:49:29.000Z</time>
      </trkpt>
      <trkpt lat="45.00917" lon="0.68837">
        <ele>130.8</ele>
        <time>1970-01-01T00:49:30.000Z</time>
      </trkpt>
      <trkpt lat="45.00914" lon="0.68843">
        <ele>130.8</ele>
        <time>1970-01-01T00:49:31.000Z</time>
      </trkpt>
      <trkpt lat="45.00911" lon="0.68848">
        <ele>130.8</ele>
        <time>1970-01-01T00:49:32.000Z</time>
      </trkpt>
      <trkpt lat="45.00908" lon="0.68854">
        <ele>130.8</ele>
        <time>1970-01-01T00:49:33.000Z</time>
      </trkpt>
      <trkpt lat="45.00905" lon="0.68859">
        <ele>130.8</ele>
        <time>1970-01-01T00:49:34.000Z</time>
      </trkpt>
      <trkpt lat="45.00902" lon="0.68865">
        <ele>130.8</ele>
        <time>1970-01-01T00:49:35.000Z</time>
      </trkpt>
      <trkpt lat="45.00899" lon="0.6887">
        <ele>130.8</ele>
        <time>1970-01-01T00:49:36.000Z</time>
      </trkpt>
      <trkpt lat="45.00896" lon="0.68876">
        <ele>130.8</ele>
        <time>1970-01-01T00:49:37.000Z</time>
      </trkpt>
      <trkpt lat="45.00893" lon="0.68881">
        <ele>130.8</ele>
        <time>1970-01-01T00:49:38.000Z</time>
      </trkpt>
      <trkpt lat="45.0089" lon="0.68887">
        <ele>130.8</ele>
        <time>1970-01-01T00:49:39.000Z</time>
      </trkpt>
      <trkpt lat="45.00887" lon="0.68892">
        <ele>130.8</ele>
        <time>1970-01-01T00:49:40.000Z</time>
      </trkpt>
      <trkpt lat="45.00884" lon="0.68897">
        <ele>130.8</ele>
        <time>1970-01-01T00:49:41.000Z</time>
      </trkpt>
      <trkpt lat="45.00881" lon="0.68901">
        <ele>130.8</ele>
        <time>1970-01-01T00:49:42.000Z</time>
      </trkpt>
      <trkpt lat="45.00877" lon="0.68904">
        <ele>130.8</ele>
        <time>1970-01-01T00:49:43.000Z</time>
      </trkpt>
      <trkpt lat="45.00874" lon="0.68907">
        <ele>130.8</ele>
        <time>1970-01-01T00:49:44.000Z</time>
      </trkpt>
      <trkpt lat="45.00871" lon="0.68909">
        <ele>130.8</ele>
        <time>1970-01-01T00:49:45.000Z</time>
      </trkpt>
      <trkpt lat="45.00868" lon="0.68911">
        <ele>129.8</ele>
        <time>1970-01-01T00:49:46.000Z</time>
      </trkpt>
      <trkpt lat="45.00866" lon="0.68913">
        <ele>129.8</ele>
        <time>1970-01-01T00:49:47.000Z</time>
      </trkpt>
      <trkpt lat="45.00864" lon="0.68915">
        <ele>129.8</ele>
        <time>1970-01-01T00:49:48.000Z</time>
      </trkpt>
      <trkpt lat="45.00864" lon="0.68918">
        <ele>129.8</ele>
        <time>1970-01-01T00:49:49.000Z</time>
      </trkpt>
      <trkpt lat="45.00864" lon="0.6892">
        <ele>129.8</ele>
        <time>1970-01-01T00:49:50.000Z</time>
      </trkpt>
      <trkpt lat="45.00866" lon="0.68922">
        <ele>129.8</ele>
        <time>1970-01-01T00:49:51.000Z</time>
      </trkpt>
      <trkpt lat="45.00869" lon="0.68924">
        <ele>129.8</ele>
        <time>1970-01-01T00:49:52.000Z</time>
      </trkpt>
      <trkpt lat="45.00872" lon="0.68926">
        <ele>129.8</ele>
        <time>1970-01-01T00:49:53.000Z</time>
      </trkpt>
      <trkpt lat="45.00875" lon="0.68929">
        <ele>129.8</ele>
        <time>1970-01-01T00:49:54.000Z</time>
      </trkpt>
      <trkpt lat="45.00879" lon="0.68932">
        <ele>129.8</ele>
        <time>1970-01-01T00:49:55.000Z</time>
      </trkpt>
      <trkpt lat="45.00883" lon="0.68934">
        <ele>130.8</ele>
        <time>1970-01-01T00:49:56.000Z</time>
      </trkpt>
      <trkpt lat="45.00886" lon="0.68937">
        <ele>130.8</ele>
        <time>1970-01-01T00:49:57.000Z</time>
      </trkpt>
      <trkpt lat="45.00889" lon="0.68939">
        <ele>130.8</ele>
        <time>1970-01-01T00:49:58.000Z</time>
      </trkpt>
      <trkpt lat="45.00893" lon="0.68942">
        <ele>130.8</ele>
        <time>1970-01-01T00:49:59.000Z</time>
      </trkpt>
      <trkpt lat="45.00897" lon="0.68944">
        <ele>131.8</ele>
        <time>1970-01-01T00:50:00.000Z</time>
      </trkpt>
      <trkpt lat="45.00901" lon="0.68946">
        <ele>131.8</ele>
        <time>1970-01-01T00:50:01.000Z</time>
      </trkpt>
      <trkpt lat="45.00905" lon="0.68948">
        <ele>131.8</ele>
        <time>1970-01-01T00:50:02.000Z</time>
      </trkpt>
      <trkpt lat="45.00909" lon="0.68951">
        <ele>131.8</ele>
        <time>1970-01-01T00:50:03.000Z</time>
      </trkpt>
      <trkpt lat="45.00913" lon="0.68953">
        <ele>130.8</ele>
        <time>1970-01-01T00:50:04.000Z</time>
      </trkpt>
      <trkpt lat="45.00917" lon="0.68955">
        <ele>130.8</ele>
        <time>1970-01-01T00:50:05.000Z</time>
      </trkpt>
      <trkpt lat="45.00921" lon="0.68957">
        <ele>130.8</ele>
        <time>1970-01-01T00:50:06.000Z</time>
      </trkpt>
      <trkpt lat="45.00926" lon="0.68958">
        <ele>130.8</ele>
        <time>1970-01-01T00:50:07.000Z</time>
      </trkpt>
      <trkpt lat="45.00931" lon="0.68961">
        <ele>130.8</ele>
        <time>1970-01-01T00:50:08.000Z</time>
      </trkpt>
      <trkpt lat="45.00934" lon="0.68963">
        <ele>130.8</ele>
        <time>1970-01-01T00:50:09.000Z</time>
      </trkpt>
      <trkpt lat="45.00939" lon="0.68966">
        <ele>130.8</ele>
        <time>1970-01-01T00:50:10.000Z</time>
      </trkpt>
      <trkpt lat="45.00943" lon="0.68968">
        <ele>130.8</ele>
        <time>1970-01-01T00:50:11.000Z</time>
      </trkpt>
      <trkpt lat="45.00947" lon="0.6897">
        <ele>130.8</ele>
        <time>1970-01-01T00:50:12.000Z</time>
      </trkpt>
      <trkpt lat="45.00952" lon="0.68973">
        <ele>130.8</ele>
        <time>1970-01-01T00:50:13.000Z</time>
      </trkpt>
      <trkpt lat="45.00955" lon="0.68975">
        <ele>130.8</ele>
        <time>1970-01-01T00:50:14.000Z</time>
      </trkpt>
      <trkpt lat="45.00961" lon="0.68979">
        <ele>130.8</ele>
        <time>1970-01-01T00:50:15.000Z</time>
      </trkpt>
      <trkpt lat="45.00966" lon="0.68982">
        <ele>129.8</ele>
        <time>1970-01-01T00:50:16.000Z</time>
      </trkpt>
      <trkpt lat="45.00971" lon="0.68984">
        <ele>129.8</ele>
        <time>1970-01-01T00:50:17.000Z</time>
      </trkpt>
      <trkpt lat="45.00976" lon="0.68987">
        <ele>129.8</ele>
        <time>1970-01-01T00:50:18.000Z</time>
      </trkpt>
      <trkpt lat="45.00981" lon="0.6899">
        <ele>129.8</ele>
        <time>1970-01-01T00:50:19.000Z</time>
      </trkpt>
      <trkpt lat="45.00987" lon="0.68993">
        <ele>129.8</ele>
        <time>1970-01-01T00:50:20.000Z</time>
      </trkpt>
      <trkpt lat="45.00992" lon="0.68996">
        <ele>129.8</ele>
        <time>1970-01-01T00:50:21.000Z</time>
      </trkpt>
      <trkpt lat="45.00997" lon="0.68999">
        <ele>129.8</ele>
        <time>1970-01-01T00:50:22.000Z</time>
      </trkpt>
      <trkpt lat="45.01003" lon="0.69002">
        <ele>129.8</ele>
        <time>1970-01-01T00:50:23.000Z</time>
      </trkpt>
      <trkpt lat="45.01008" lon="0.69005">
        <ele>127.9</ele>
        <time>1970-01-01T00:50:24.000Z</time>
      </trkpt>
      <trkpt lat="45.01013" lon="0.69007">
        <ele>127.9</ele>
        <time>1970-01-01T00:50:25.000Z</time>
      </trkpt>
      <trkpt lat="45.01019" lon="0.6901">
        <ele>127.9</ele>
        <time>1970-01-01T00:50:26.000Z</time>
      </trkpt>
      <trkpt lat="45.01024" lon="0.69012">
        <ele>127.9</ele>
        <time>1970-01-01T00:50:27.000Z</time>
      </trkpt>
      <trkpt lat="45.01029" lon="0.69014">
        <ele>127.9</ele>
        <time>1970-01-01T00:50:28.000Z</time>
      </trkpt>
      <trkpt lat="45.01034" lon="0.69017">
        <ele>127.9</ele>
        <time>1970-01-01T00:50:29.000Z</time>
      </trkpt>
      <trkpt lat="45.01039" lon="0.69018">
        <ele>127.9</ele>
        <time>1970-01-01T00:50:30.000Z</time>
      </trkpt>
      <trkpt lat="45.01045" lon="0.6902">
        <ele>127.9</ele>
        <time>1970-01-01T00:50:31.000Z</time>
      </trkpt>
      <trkpt lat="45.01051" lon="0.69022">
        <ele>127.9</ele>
        <time>1970-01-01T00:50:32.000Z</time>
      </trkpt>
      <trkpt lat="45.01057" lon="0.69024">
        <ele>127.9</ele>
        <time>1970-01-01T00:50:33.000Z</time>
      </trkpt>
      <trkpt lat="45.01062" lon="0.69026">
        <ele>126.8</ele>
        <time>1970-01-01T00:50:34.000Z</time>
      </trkpt>
      <trkpt lat="45.01068" lon="0.69028">
        <ele>126.8</ele>
        <time>1970-01-01T00:50:35.000Z</time>
      </trkpt>
      <trkpt lat="45.01073" lon="0.69029">
        <ele>126.8</ele>
        <time>1970-01-01T00:50:36.000Z</time>
      </trkpt>
      <trkpt lat="45.01078" lon="0.69032">
        <ele>126.8</ele>
        <time>1970-01-01T00:50:37.000Z</time>
      </trkpt>
      <trkpt lat="45.01084" lon="0.69035">
        <ele>126.8</ele>
        <time>1970-01-01T00:50:38.000Z</time>
      </trkpt>
      <trkpt lat="45.01089" lon="0.69039">
        <ele>126.8</ele>
        <time>1970-01-01T00:50:39.000Z</time>
      </trkpt>
      <trkpt lat="45.01094" lon="0.69044">
        <ele>126.8</ele>
        <time>1970-01-01T00:50:40.000Z</time>
      </trkpt>
      <trkpt lat="45.01099" lon="0.69049">
        <ele>126.8</ele>
        <time>1970-01-01T00:50:41.000Z</time>
      </trkpt>
      <trkpt lat="45.01103" lon="0.69055">
        <ele>125.9</ele>
        <time>1970-01-01T00:50:42.000Z</time>
      </trkpt>
      <trkpt lat="45.01107" lon="0.69062">
        <ele>125.9</ele>
        <time>1970-01-01T00:50:43.000Z</time>
      </trkpt>
      <trkpt lat="45.01111" lon="0.69069">
        <ele>125.9</ele>
        <time>1970-01-01T00:50:44.000Z</time>
      </trkpt>
      <trkpt lat="45.01116" lon="0.69075">
        <ele>125.9</ele>
        <time>1970-01-01T00:50:45.000Z</time>
      </trkpt>
      <trkpt lat="45.0112" lon="0.69082">
        <ele>125.9</ele>
        <time>1970-01-01T00:50:46.000Z</time>
      </trkpt>
      <trkpt lat="45.01123" lon="0.69089">
        <ele>125.9</ele>
        <time>1970-01-01T00:50:47.000Z</time>
      </trkpt>
      <trkpt lat="45.01126" lon="0.69095">
        <ele>124.8</ele>
        <time>1970-01-01T00:50:48.000Z</time>
      </trkpt>
      <trkpt lat="45.01129" lon="0.69102">
        <ele>124.8</ele>
        <time>1970-01-01T00:50:49.000Z</time>
      </trkpt>
      <trkpt lat="45.01132" lon="0.6911">
        <ele>124.8</ele>
        <time>1970-01-01T00:50:50.000Z</time>
      </trkpt>
      <trkpt lat="45.01135" lon="0.69117">
        <ele>124.8</ele>
        <time>1970-01-01T00:50:51.000Z</time>
      </trkpt>
      <trkpt lat="45.01139" lon="0.69124">
        <ele>124.8</ele>
        <time>1970-01-01T00:50:52.000Z</time>
      </trkpt>
      <trkpt lat="45.01142" lon="0.69131">
        <ele>124.8</ele>
        <time>1970-01-01T00:50:53.000Z</time>
      </trkpt>
      <trkpt lat="45.01145" lon="0.69138">
        <ele>124.8</ele>
        <time>1970-01-01T00:50:54.000Z</time>
      </trkpt>
      <trkpt lat="45.01149" lon="0.69145">
        <ele>124.8</ele>
        <time>1970-01-01T00:50:55.000Z</time>
      </trkpt>
      <trkpt lat="45.01152" lon="0.69151">
        <ele>124.8</ele>
        <time>1970-01-01T00:50:56.000Z</time>
      </trkpt>
      <trkpt lat="45.01156" lon="0.69157">
        <ele>124.8</ele>
        <time>1970-01-01T00:50:57.000Z</time>
      </trkpt>
      <trkpt lat="45.01159" lon="0.69162">
        <ele>124.8</ele>
        <time>1970-01-01T00:50:58.000Z</time>
      </trkpt>
      <trkpt lat="45.01163" lon="0.69168">
        <ele>124.8</ele>
        <time>1970-01-01T00:50:59.000Z</time>
      </trkpt>
      <trkpt lat="45.01167" lon="0.69173">
        <ele>124.8</ele>
        <time>1970-01-01T00:51:00.000Z</time>
      </trkpt>
      <trkpt lat="45.01172" lon="0.69178">
        <ele>124.8</ele>
        <time>1970-01-01T00:51:01.000Z</time>
      </trkpt>
      <trkpt lat="45.01176" lon="0.69183">
        <ele>123.9</ele>
        <time>1970-01-01T00:51:02.000Z</time>
      </trkpt>
      <trkpt lat="45.01181" lon="0.69189">
        <ele>123.9</ele>
        <time>1970-01-01T00:51:03.000Z</time>
      </trkpt>
      <trkpt lat="45.01185" lon="0.69194">
        <ele>123.9</ele>
        <time>1970-01-01T00:51:04.000Z</time>
      </trkpt>
      <trkpt lat="45.0119" lon="0.69199">
        <ele>123.9</ele>
        <time>1970-01-01T00:51:05.000Z</time>
      </trkpt>
      <trkpt lat="45.01195" lon="0.69205">
        <ele>123.9</ele>
        <time>1970-01-01T00:51:06.000Z</time>
      </trkpt>
      <trkpt lat="45.01201" lon="0.69211">
        <ele>123.9</ele>
        <time>1970-01-01T00:51:07.000Z</time>
      </trkpt>
      <trkpt lat="45.01206" lon="0.69216">
        <ele>123.9</ele>
        <time>1970-01-01T00:51:08.000Z</time>
      </trkpt>
      <trkpt lat="45.01212" lon="0.69222">
        <ele>123.9</ele>
        <time>1970-01-01T00:51:09.000Z</time>
      </trkpt>
      <trkpt lat="45.01218" lon="0.69228">
        <ele>123.9</ele>
        <time>1970-01-01T00:51:10.000Z</time>
      </trkpt>
      <trkpt lat="45.01224" lon="0.69234">
        <ele>123.9</ele>
        <time>1970-01-01T00:51:11.000Z</time>
      </trkpt>
      <trkpt lat="45.01231" lon="0.69239">
        <ele>119.8</ele>
        <time>1970-01-01T00:51:12.000Z</time>
      </trkpt>
      <trkpt lat="45.01238" lon="0.69244">
        <ele>119.8</ele>
        <time>1970-01-01T00:51:13.000Z</time>
      </trkpt>
      <trkpt lat="45.01245" lon="0.69249">
        <ele>119.8</ele>
        <time>1970-01-01T00:51:14.000Z</time>
      </trkpt>
      <trkpt lat="45.01253" lon="0.69253">
        <ele>119.8</ele>
        <time>1970-01-01T00:51:15.000Z</time>
      </trkpt>
      <trkpt lat="45.0126" lon="0.69258">
        <ele>118.9</ele>
        <time>1970-01-01T00:51:16.000Z</time>
      </trkpt>
      <trkpt lat="45.01268" lon="0.69263">
        <ele>118.9</ele>
        <time>1970-01-01T00:51:17.000Z</time>
      </trkpt>
      <trkpt lat="45.01276" lon="0.69267">
        <ele>117.8</ele>
        <time>1970-01-01T00:51:18.000Z</time>
      </trkpt>
      <trkpt lat="45.01285" lon="0.69272">
        <ele>117.8</ele>
        <time>1970-01-01T00:51:19.000Z</time>
      </trkpt>
      <trkpt lat="45.01293" lon="0.69277">
        <ele>116.9</ele>
        <time>1970-01-01T00:51:20.000Z</time>
      </trkpt>
      <trkpt lat="45.01301" lon="0.69282">
        <ele>116.9</ele>
        <time>1970-01-01T00:51:21.000Z</time>
      </trkpt>
      <trkpt lat="45.01309" lon="0.69289">
        <ele>115.8</ele>
        <time>1970-01-01T00:51:22.000Z</time>
      </trkpt>
      <trkpt lat="45.01317" lon="0.69296">
        <ele>115.8</ele>
        <time>1970-01-01T00:51:23.000Z</time>
      </trkpt>
      <trkpt lat="45.01325" lon="0.69304">
        <ele>115.8</ele>
        <time>1970-01-01T00:51:24.000Z</time>
      </trkpt>
      <trkpt lat="45.01332" lon="0.69312">
        <ele>115.8</ele>
        <time>1970-01-01T00:51:25.000Z</time>
      </trkpt>
      <trkpt lat="45.01339" lon="0.6932">
        <ele>114.8</ele>
        <time>1970-01-01T00:51:26.000Z</time>
      </trkpt>
      <trkpt lat="45.01346" lon="0.69328">
        <ele>114.8</ele>
        <time>1970-01-01T00:51:27.000Z</time>
      </trkpt>
      <trkpt lat="45.01352" lon="0.69337">
        <ele>113.8</ele>
        <time>1970-01-01T00:51:28.000Z</time>
      </trkpt>
      <trkpt lat="45.01357" lon="0.69345">
        <ele>113.8</ele>
        <time>1970-01-01T00:51:29.000Z</time>
      </trkpt>
      <trkpt lat="45.01362" lon="0.69353">
        <ele>113.8</ele>
        <time>1970-01-01T00:51:30.000Z</time>
      </trkpt>
      <trkpt lat="45.01367" lon="0.69361">
        <ele>113.8</ele>
        <time>1970-01-01T00:51:31.000Z</time>
      </trkpt>
      <trkpt lat="45.01372" lon="0.69368">
        <ele>113.8</ele>
        <time>1970-01-01T00:51:32.000Z</time>
      </trkpt>
      <trkpt lat="45.01377" lon="0.69375">
        <ele>113.8</ele>
        <time>1970-01-01T00:51:33.000Z</time>
      </trkpt>
      <trkpt lat="45.01382" lon="0.69381">
        <ele>113.8</ele>
        <time>1970-01-01T00:51:34.000Z</time>
      </trkpt>
      <trkpt lat="45.01387" lon="0.69387">
        <ele>113.8</ele>
        <time>1970-01-01T00:51:35.000Z</time>
      </trkpt>
      <trkpt lat="45.0139" lon="0.69394">
        <ele>113.8</ele>
        <time>1970-01-01T00:51:36.000Z</time>
      </trkpt>
      <trkpt lat="45.01391" lon="0.69401">
        <ele>113.8</ele>
        <time>1970-01-01T00:51:37.000Z</time>
      </trkpt>
      <trkpt lat="45.0139" lon="0.6941">
        <ele>113.8</ele>
        <time>1970-01-01T00:51:38.000Z</time>
      </trkpt>
      <trkpt lat="45.01387" lon="0.69418">
        <ele>113.8</ele>
        <time>1970-01-01T00:51:39.000Z</time>
      </trkpt>
      <trkpt lat="45.01383" lon="0.69427">
        <ele>112.8</ele>
        <time>1970-01-01T00:51:40.000Z</time>
      </trkpt>
      <trkpt lat="45.01379" lon="0.69437">
        <ele>112.8</ele>
        <time>1970-01-01T00:51:41.000Z</time>
      </trkpt>
      <trkpt lat="45.01375" lon="0.69447">
        <ele>111.9</ele>
        <time>1970-01-01T00:51:42.000Z</time>
      </trkpt>
      <trkpt lat="45.01369" lon="0.69457">
        <ele>111.9</ele>
        <time>1970-01-01T00:51:43.000Z</time>
      </trkpt>
      <trkpt lat="45.01364" lon="0.69467">
        <ele>110.8</ele>
        <time>1970-01-01T00:51:44.000Z</time>
      </trkpt>
      <trkpt lat="45.01358" lon="0.69477">
        <ele>110.8</ele>
        <time>1970-01-01T00:51:45.000Z</time>
      </trkpt>
      <trkpt lat="45.01353" lon="0.69487">
        <ele>109.9</ele>
        <time>1970-01-01T00:51:46.000Z</time>
      </trkpt>
      <trkpt lat="45.01349" lon="0.69497">
        <ele>109.9</ele>
        <time>1970-01-01T00:51:47.000Z</time>
      </trkpt>
      <trkpt lat="45.01345" lon="0.69506">
        <ele>109.9</ele>
        <time>1970-01-01T00:51:48.000Z</time>
      </trkpt>
      <trkpt lat="45.01342" lon="0.69515">
        <ele>109.9</ele>
        <time>1970-01-01T00:51:49.000Z</time>
      </trkpt>
      <trkpt lat="45.01339" lon="0.69522">
        <ele>110.8</ele>
        <time>1970-01-01T00:51:50.000Z</time>
      </trkpt>
      <trkpt lat="45.01336" lon="0.69529">
        <ele>110.8</ele>
        <time>1970-01-01T00:51:51.000Z</time>
      </trkpt>
      <trkpt lat="45.01333" lon="0.69535">
        <ele>111.9</ele>
        <time>1970-01-01T00:51:52.000Z</time>
      </trkpt>
      <trkpt lat="45.0133" lon="0.69541">
        <ele>111.9</ele>
        <time>1970-01-01T00:51:53.000Z</time>
      </trkpt>
      <trkpt lat="45.01328" lon="0.69546">
        <ele>111.9</ele>
        <time>1970-01-01T00:51:54.000Z</time>
      </trkpt>
      <trkpt lat="45.01325" lon="0.6955">
        <ele>111.9</ele>
        <time>1970-01-01T00:51:55.000Z</time>
      </trkpt>
      <trkpt lat="45.01322" lon="0.69553">
        <ele>112.8</ele>
        <time>1970-01-01T00:51:56.000Z</time>
      </trkpt>
      <trkpt lat="45.01319" lon="0.69557">
        <ele>112.8</ele>
        <time>1970-01-01T00:51:57.000Z</time>
      </trkpt>
      <trkpt lat="45.01316" lon="0.6956">
        <ele>112.8</ele>
        <time>1970-01-01T00:51:58.000Z</time>
      </trkpt>
      <trkpt lat="45.01313" lon="0.69563">
        <ele>112.8</ele>
        <time>1970-01-01T00:51:59.000Z</time>
      </trkpt>
      <trkpt lat="45.01311" lon="0.69566">
        <ele>112.8</ele>
        <time>1970-01-01T00:52:00.000Z</time>
      </trkpt>
      <trkpt lat="45.01308" lon="0.69568">
        <ele>112.8</ele>
        <time>1970-01-01T00:52:01.000Z</time>
      </trkpt>
      <trkpt lat="45.01305" lon="0.69571">
        <ele>112.8</ele>
        <time>1970-01-01T00:52:02.000Z</time>
      </trkpt>
      <trkpt lat="45.01302" lon="0.69574">
        <ele>112.8</ele>
        <time>1970-01-01T00:52:03.000Z</time>
      </trkpt>
      <trkpt lat="45.01299" lon="0.69577">
        <ele>115.8</ele>
        <time>1970-01-01T00:52:04.000Z</time>
      </trkpt>
      <trkpt lat="45.01296" lon="0.6958">
        <ele>115.8</ele>
        <time>1970-01-01T00:52:05.000Z</time>
      </trkpt>
      <trkpt lat="45.01293" lon="0.69584">
        <ele>116.9</ele>
        <time>1970-01-01T00:52:06.000Z</time>
      </trkpt>
      <trkpt lat="45.01291" lon="0.69587">
        <ele>116.9</ele>
        <time>1970-01-01T00:52:07.000Z</time>
      </trkpt>
      <trkpt lat="45.01288" lon="0.6959">
        <ele>116.9</ele>
        <time>1970-01-01T00:52:08.000Z</time>
      </trkpt>
      <trkpt lat="45.01285" lon="0.69593">
        <ele>116.9</ele>
        <time>1970-01-01T00:52:09.000Z</time>
      </trkpt>
      <trkpt lat="45.01282" lon="0.69596">
        <ele>117.8</ele>
        <time>1970-01-01T00:52:10.000Z</time>
      </trkpt>
      <trkpt lat="45.0128" lon="0.69599">
        <ele>117.8</ele>
        <time>1970-01-01T00:52:11.000Z</time>
      </trkpt>
      <trkpt lat="45.01277" lon="0.69602">
        <ele>118.9</ele>
        <time>1970-01-01T00:52:12.000Z</time>
      </trkpt>
      <trkpt lat="45.01274" lon="0.69604">
        <ele>118.9</ele>
        <time>1970-01-01T00:52:13.000Z</time>
      </trkpt>
      <trkpt lat="45.01272" lon="0.69607">
        <ele>118.9</ele>
        <time>1970-01-01T00:52:14.000Z</time>
      </trkpt>
      <trkpt lat="45.01269" lon="0.69609">
        <ele>118.9</ele>
        <time>1970-01-01T00:52:15.000Z</time>
      </trkpt>
      <trkpt lat="45.01267" lon="0.69612">
        <ele>118.9</ele>
        <time>1970-01-01T00:52:16.000Z</time>
      </trkpt>
      <trkpt lat="45.01265" lon="0.69615">
        <ele>118.9</ele>
        <time>1970-01-01T00:52:17.000Z</time>
      </trkpt>
      <trkpt lat="45.01262" lon="0.69619">
        <ele>118.9</ele>
        <time>1970-01-01T00:52:18.000Z</time>
      </trkpt>
      <trkpt lat="45.01259" lon="0.69622">
        <ele>118.9</ele>
        <time>1970-01-01T00:52:19.000Z</time>
      </trkpt>
      <trkpt lat="45.01257" lon="0.69625">
        <ele>120.9</ele>
        <time>1970-01-01T00:52:20.000Z</time>
      </trkpt>
      <trkpt lat="45.01254" lon="0.69628">
        <ele>120.9</ele>
        <time>1970-01-01T00:52:21.000Z</time>
      </trkpt>
      <trkpt lat="45.01252" lon="0.69631">
        <ele>120.9</ele>
        <time>1970-01-01T00:52:22.000Z</time>
      </trkpt>
      <trkpt lat="45.01249" lon="0.69634">
        <ele>120.9</ele>
        <time>1970-01-01T00:52:23.000Z</time>
      </trkpt>
      <trkpt lat="45.01247" lon="0.69636">
        <ele>121.8</ele>
        <time>1970-01-01T00:52:24.000Z</time>
      </trkpt>
      <trkpt lat="45.01244" lon="0.69639">
        <ele>121.8</ele>
        <time>1970-01-01T00:52:25.000Z</time>
      </trkpt>
      <trkpt lat="45.01241" lon="0.69642">
        <ele>121.8</ele>
        <time>1970-01-01T00:52:26.000Z</time>
      </trkpt>
      <trkpt lat="45.01239" lon="0.69645">
        <ele>121.8</ele>
        <time>1970-01-01T00:52:27.000Z</time>
      </trkpt>
      <trkpt lat="45.01236" lon="0.69648">
        <ele>122.8</ele>
        <time>1970-01-01T00:52:28.000Z</time>
      </trkpt>
      <trkpt lat="45.01233" lon="0.69652">
        <ele>122.8</ele>
        <time>1970-01-01T00:52:29.000Z</time>
      </trkpt>
      <trkpt lat="45.01231" lon="0.69655">
        <ele>122.8</ele>
        <time>1970-01-01T00:52:30.000Z</time>
      </trkpt>
      <trkpt lat="45.01228" lon="0.69658">
        <ele>122.8</ele>
        <time>1970-01-01T00:52:31.000Z</time>
      </trkpt>
      <trkpt lat="45.01225" lon="0.69661">
        <ele>123.9</ele>
        <time>1970-01-01T00:52:32.000Z</time>
      </trkpt>
      <trkpt lat="45.01222" lon="0.69665">
        <ele>123.9</ele>
        <time>1970-01-01T00:52:33.000Z</time>
      </trkpt>
      <trkpt lat="45.0122" lon="0.69668">
        <ele>123.9</ele>
        <time>1970-01-01T00:52:34.000Z</time>
      </trkpt>
      <trkpt lat="45.01217" lon="0.69672">
        <ele>123.9</ele>
        <time>1970-01-01T00:52:35.000Z</time>
      </trkpt>
      <trkpt lat="45.01214" lon="0.69675">
        <ele>123.9</ele>
        <time>1970-01-01T00:52:36.000Z</time>
      </trkpt>
      <trkpt lat="45.01211" lon="0.69679">
        <ele>123.9</ele>
        <time>1970-01-01T00:52:37.000Z</time>
      </trkpt>
      <trkpt lat="45.01208" lon="0.69683">
        <ele>123.9</ele>
        <time>1970-01-01T00:52:38.000Z</time>
      </trkpt>
      <trkpt lat="45.01205" lon="0.69686">
        <ele>123.9</ele>
        <time>1970-01-01T00:52:39.000Z</time>
      </trkpt>
      <trkpt lat="45.01202" lon="0.6969">
        <ele>123.9</ele>
        <time>1970-01-01T00:52:40.000Z</time>
      </trkpt>
      <trkpt lat="45.012" lon="0.69693">
        <ele>123.9</ele>
        <time>1970-01-01T00:52:41.000Z</time>
      </trkpt>
      <trkpt lat="45.01197" lon="0.69697">
        <ele>125.9</ele>
        <time>1970-01-01T00:52:42.000Z</time>
      </trkpt>
      <trkpt lat="45.01193" lon="0.697">
        <ele>125.9</ele>
        <time>1970-01-01T00:52:43.000Z</time>
      </trkpt>
      <trkpt lat="45.01189" lon="0.69704">
        <ele>125.9</ele>
        <time>1970-01-01T00:52:44.000Z</time>
      </trkpt>
      <trkpt lat="45.01185" lon="0.69707">
        <ele>125.9</ele>
        <time>1970-01-01T00:52:45.000Z</time>
      </trkpt>
      <trkpt lat="45.01182" lon="0.69709">
        <ele>125.9</ele>
        <time>1970-01-01T00:52:46.000Z</time>
      </trkpt>
      <trkpt lat="45.01179" lon="0.69711">
        <ele>125.9</ele>
        <time>1970-01-01T00:52:47.000Z</time>
      </trkpt>
      <trkpt lat="45.01176" lon="0.69713">
        <ele>126.8</ele>
        <time>1970-01-01T00:52:48.000Z</time>
      </trkpt>
      <trkpt lat="45.01173" lon="0.69713">
        <ele>126.8</ele>
        <time>1970-01-01T00:52:49.000Z</time>
      </trkpt>
      <trkpt lat="45.0117" lon="0.69714">
        <ele>126.8</ele>
        <time>1970-01-01T00:52:50.000Z</time>
      </trkpt>
      <trkpt lat="45.01167" lon="0.69714">
        <ele>126.8</ele>
        <time>1970-01-01T00:52:51.000Z</time>
      </trkpt>
      <trkpt lat="45.01165" lon="0.69714">
        <ele>127.9</ele>
        <time>1970-01-01T00:52:52.000Z</time>
      </trkpt>
      <trkpt lat="45.01162" lon="0.69714">
        <ele>127.9</ele>
        <time>1970-01-01T00:52:53.000Z</time>
      </trkpt>
      <trkpt lat="45.0116" lon="0.69714">
        <ele>127.9</ele>
        <time>1970-01-01T00:52:54.000Z</time>
      </trkpt>
      <trkpt lat="45.01158" lon="0.69713">
        <ele>127.9</ele>
        <time>1970-01-01T00:52:55.000Z</time>
      </trkpt>
      <trkpt lat="45.01155" lon="0.69713">
        <ele>128.8</ele>
        <time>1970-01-01T00:52:56.000Z</time>
      </trkpt>
      <trkpt lat="45.01153" lon="0.69713">
        <ele>128.8</ele>
        <time>1970-01-01T00:52:57.000Z</time>
      </trkpt>
      <trkpt lat="45.01151" lon="0.69713">
        <ele>129.8</ele>
        <time>1970-01-01T00:52:58.000Z</time>
      </trkpt>
      <trkpt lat="45.01149" lon="0.69712">
        <ele>129.8</ele>
        <time>1970-01-01T00:52:59.000Z</time>
      </trkpt>
      <trkpt lat="45.01146" lon="0.69712">
        <ele>131.8</ele>
        <time>1970-01-01T00:53:00.000Z</time>
      </trkpt>
      <trkpt lat="45.01144" lon="0.69712">
        <ele>131.8</ele>
        <time>1970-01-01T00:53:01.000Z</time>
      </trkpt>
      <trkpt lat="45.01142" lon="0.69712">
        <ele>131.8</ele>
        <time>1970-01-01T00:53:02.000Z</time>
      </trkpt>
      <trkpt lat="45.0114" lon="0.69711">
        <ele>131.8</ele>
        <time>1970-01-01T00:53:03.000Z</time>
      </trkpt>
      <trkpt lat="45.01138" lon="0.69711">
        <ele>132.9</ele>
        <time>1970-01-01T00:53:04.000Z</time>
      </trkpt>
      <trkpt lat="45.01135" lon="0.69711">
        <ele>132.9</ele>
        <time>1970-01-01T00:53:05.000Z</time>
      </trkpt>
      <trkpt lat="45.01133" lon="0.69711">
        <ele>133.8</ele>
        <time>1970-01-01T00:53:06.000Z</time>
      </trkpt>
      <trkpt lat="45.01131" lon="0.69711">
        <ele>133.8</ele>
        <time>1970-01-01T00:53:07.000Z</time>
      </trkpt>
      <trkpt lat="45.01128" lon="0.69711">
        <ele>133.8</ele>
        <time>1970-01-01T00:53:08.000Z</time>
      </trkpt>
      <trkpt lat="45.01126" lon="0.69711">
        <ele>133.8</ele>
        <time>1970-01-01T00:53:09.000Z</time>
      </trkpt>
      <trkpt lat="45.01123" lon="0.69711">
        <ele>133.8</ele>
        <time>1970-01-01T00:53:10.000Z</time>
      </trkpt>
      <trkpt lat="45.01121" lon="0.69712">
        <ele>133.8</ele>
        <time>1970-01-01T00:53:11.000Z</time>
      </trkpt>
      <trkpt lat="45.01118" lon="0.69712">
        <ele>134.9</ele>
        <time>1970-01-01T00:53:12.000Z</time>
      </trkpt>
      <trkpt lat="45.01116" lon="0.69712">
        <ele>134.9</ele>
        <time>1970-01-01T00:53:13.000Z</time>
      </trkpt>
      <trkpt lat="45.01113" lon="0.69712">
        <ele>134.9</ele>
        <time>1970-01-01T00:53:14.000Z</time>
      </trkpt>
      <trkpt lat="45.01111" lon="0.69713">
        <ele>134.9</ele>
        <time>1970-01-01T00:53:15.000Z</time>
      </trkpt>
      <trkpt lat="45.01108" lon="0.69713">
        <ele>135.8</ele>
        <time>1970-01-01T00:53:16.000Z</time>
      </trkpt>
      <trkpt lat="45.01106" lon="0.69713">
        <ele>135.8</ele>
        <time>1970-01-01T00:53:17.000Z</time>
      </trkpt>
      <trkpt lat="45.01103" lon="0.69714">
        <ele>135.8</ele>
        <time>1970-01-01T00:53:18.000Z</time>
      </trkpt>
      <trkpt lat="45.011" lon="0.69714">
        <ele>135.8</ele>
        <time>1970-01-01T00:53:19.000Z</time>
      </trkpt>
      <trkpt lat="45.01097" lon="0.69715">
        <ele>135.8</ele>
        <time>1970-01-01T00:53:20.000Z</time>
      </trkpt>
      <trkpt lat="45.01094" lon="0.69715">
        <ele>135.8</ele>
        <time>1970-01-01T00:53:21.000Z</time>
      </trkpt>
      <trkpt lat="45.01091" lon="0.69715">
        <ele>135.8</ele>
        <time>1970-01-01T00:53:22.000Z</time>
      </trkpt>
      <trkpt lat="45.01088" lon="0.69716">
        <ele>135.8</ele>
        <time>1970-01-01T00:53:23.000Z</time>
      </trkpt>
      <trkpt lat="45.01085" lon="0.69717">
        <ele>135.8</ele>
        <time>1970-01-01T00:53:24.000Z</time>
      </trkpt>
      <trkpt lat="45.01081" lon="0.69719">
        <ele>135.8</ele>
        <time>1970-01-01T00:53:25.000Z</time>
      </trkpt>
      <trkpt lat="45.01078" lon="0.69721">
        <ele>136.9</ele>
        <time>1970-01-01T00:53:26.000Z</time>
      </trkpt>
      <trkpt lat="45.01074" lon="0.69723">
        <ele>136.9</ele>
        <time>1970-01-01T00:53:27.000Z</time>
      </trkpt>
      <trkpt lat="45.01071" lon="0.69725">
        <ele>136.9</ele>
        <time>1970-01-01T00:53:28.000Z</time>
      </trkpt>
      <trkpt lat="45.01067" lon="0.69729">
        <ele>136.9</ele>
        <time>1970-01-01T00:53:29.000Z</time>
      </trkpt>
      <trkpt lat="45.01063" lon="0.69732">
        <ele>136.9</ele>
        <time>1970-01-01T00:53:30.000Z</time>
      </trkpt>
      <trkpt lat="45.01059" lon="0.69735">
        <ele>136.9</ele>
        <time>1970-01-01T00:53:31.000Z</time>
      </trkpt>
      <trkpt lat="45.01055" lon="0.69738">
        <ele>136.9</ele>
        <time>1970-01-01T00:53:32.000Z</time>
      </trkpt>
      <trkpt lat="45.0105" lon="0.69742">
        <ele>136.9</ele>
        <time>1970-01-01T00:53:33.000Z</time>
      </trkpt>
      <trkpt lat="45.01046" lon="0.69745">
        <ele>135.8</ele>
        <time>1970-01-01T00:53:34.000Z</time>
      </trkpt>
      <trkpt lat="45.01041" lon="0.69749">
        <ele>135.8</ele>
        <time>1970-01-01T00:53:35.000Z</time>
      </trkpt>
      <trkpt lat="45.01037" lon="0.69752">
        <ele>135.8</ele>
        <time>1970-01-01T00:53:36.000Z</time>
      </trkpt>
      <trkpt lat="45.01032" lon="0.69756">
        <ele>135.8</ele>
        <time>1970-01-01T00:53:37.000Z</time>
      </trkpt>
      <trkpt lat="45.01028" lon="0.69759">
        <ele>135.8</ele>
        <time>1970-01-01T00:53:38.000Z</time>
      </trkpt>
      <trkpt lat="45.01023" lon="0.69762">
        <ele>135.8</ele>
        <time>1970-01-01T00:53:39.000Z</time>
      </trkpt>
      <trkpt lat="45.01018" lon="0.69766">
        <ele>135.8</ele>
        <time>1970-01-01T00:53:40.000Z</time>
      </trkpt>
      <trkpt lat="45.01014" lon="0.69769">
        <ele>135.8</ele>
        <time>1970-01-01T00:53:41.000Z</time>
      </trkpt>
      <trkpt lat="45.01009" lon="0.69772">
        <ele>135.8</ele>
        <time>1970-01-01T00:53:42.000Z</time>
      </trkpt>
      <trkpt lat="45.01005" lon="0.69775">
        <ele>135.8</ele>
        <time>1970-01-01T00:53:43.000Z</time>
      </trkpt>
      <trkpt lat="45.01" lon="0.69777">
        <ele>134.9</ele>
        <time>1970-01-01T00:53:44.000Z</time>
      </trkpt>
      <trkpt lat="45.00996" lon="0.69781">
        <ele>134.9</ele>
        <time>1970-01-01T00:53:45.000Z</time>
      </trkpt>
      <trkpt lat="45.00992" lon="0.69785">
        <ele>134.9</ele>
        <time>1970-01-01T00:53:46.000Z</time>
      </trkpt>
      <trkpt lat="45.00989" lon="0.69789">
        <ele>134.9</ele>
        <time>1970-01-01T00:53:47.000Z</time>
      </trkpt>
      <trkpt lat="45.00986" lon="0.69795">
        <ele>134.9</ele>
        <time>1970-01-01T00:53:48.000Z</time>
      </trkpt>
      <trkpt lat="45.00985" lon="0.698">
        <ele>134.9</ele>
        <time>1970-01-01T00:53:49.000Z</time>
      </trkpt>
      <trkpt lat="45.00984" lon="0.69805">
        <ele>135.8</ele>
        <time>1970-01-01T00:53:50.000Z</time>
      </trkpt>
      <trkpt lat="45.00984" lon="0.69811">
        <ele>135.8</ele>
        <time>1970-01-01T00:53:51.000Z</time>
      </trkpt>
      <trkpt lat="45.00983" lon="0.69817">
        <ele>135.8</ele>
        <time>1970-01-01T00:53:52.000Z</time>
      </trkpt>
      <trkpt lat="45.00982" lon="0.69822">
        <ele>135.8</ele>
        <time>1970-01-01T00:53:53.000Z</time>
      </trkpt>
      <trkpt lat="45.00982" lon="0.69828">
        <ele>135.8</ele>
        <time>1970-01-01T00:53:54.000Z</time>
      </trkpt>
      <trkpt lat="45.00981" lon="0.69834">
        <ele>135.8</ele>
        <time>1970-01-01T00:53:55.000Z</time>
      </trkpt>
      <trkpt lat="45.00981" lon="0.6984">
        <ele>135.8</ele>
        <time>1970-01-01T00:53:56.000Z</time>
      </trkpt>
      <trkpt lat="45.0098" lon="0.69846">
        <ele>135.8</ele>
        <time>1970-01-01T00:53:57.000Z</time>
      </trkpt>
      <trkpt lat="45.0098" lon="0.69853">
        <ele>135.8</ele>
        <time>1970-01-01T00:53:58.000Z</time>
      </trkpt>
      <trkpt lat="45.00979" lon="0.69859">
        <ele>135.8</ele>
        <time>1970-01-01T00:53:59.000Z</time>
      </trkpt>
      <trkpt lat="45.00978" lon="0.69867">
        <ele>135.8</ele>
        <time>1970-01-01T00:54:00.000Z</time>
      </trkpt>
      <trkpt lat="45.00977" lon="0.69874">
        <ele>135.8</ele>
        <time>1970-01-01T00:54:01.000Z</time>
      </trkpt>
      <trkpt lat="45.00976" lon="0.69881">
        <ele>135.8</ele>
        <time>1970-01-01T00:54:02.000Z</time>
      </trkpt>
      <trkpt lat="45.00975" lon="0.69888">
        <ele>135.8</ele>
        <time>1970-01-01T00:54:03.000Z</time>
      </trkpt>
      <trkpt lat="45.00974" lon="0.69895">
        <ele>134.9</ele>
        <time>1970-01-01T00:54:04.000Z</time>
      </trkpt>
      <trkpt lat="45.00973" lon="0.69903">
        <ele>134.9</ele>
        <time>1970-01-01T00:54:05.000Z</time>
      </trkpt>
      <trkpt lat="45.00972" lon="0.6991">
        <ele>133.8</ele>
        <time>1970-01-01T00:54:06.000Z</time>
      </trkpt>
      <trkpt lat="45.0097" lon="0.69917">
        <ele>133.8</ele>
        <time>1970-01-01T00:54:07.000Z</time>
      </trkpt>
      <trkpt lat="45.00969" lon="0.69922">
        <ele>133.8</ele>
        <time>1970-01-01T00:54:08.000Z</time>
      </trkpt>
      <trkpt lat="45.00967" lon="0.69931">
        <ele>133.8</ele>
        <time>1970-01-01T00:54:09.000Z</time>
      </trkpt>
      <trkpt lat="45.00965" lon="0.69937">
        <ele>133.8</ele>
        <time>1970-01-01T00:54:10.000Z</time>
      </trkpt>
      <trkpt lat="45.00962" lon="0.69944">
        <ele>133.8</ele>
        <time>1970-01-01T00:54:11.000Z</time>
      </trkpt>
      <trkpt lat="45.00959" lon="0.6995">
        <ele>133.8</ele>
        <time>1970-01-01T00:54:12.000Z</time>
      </trkpt>
      <trkpt lat="45.00955" lon="0.69956">
        <ele>133.8</ele>
        <time>1970-01-01T00:54:13.000Z</time>
      </trkpt>
      <trkpt lat="45.00952" lon="0.69962">
        <ele>133.8</ele>
        <time>1970-01-01T00:54:14.000Z</time>
      </trkpt>
      <trkpt lat="45.00948" lon="0.69968">
        <ele>133.8</ele>
        <time>1970-01-01T00:54:15.000Z</time>
      </trkpt>
      <trkpt lat="45.00944" lon="0.69973">
        <ele>133.8</ele>
        <time>1970-01-01T00:54:16.000Z</time>
      </trkpt>
      <trkpt lat="45.0094" lon="0.69977">
        <ele>133.8</ele>
        <time>1970-01-01T00:54:17.000Z</time>
      </trkpt>
      <trkpt lat="45.00936" lon="0.69981">
        <ele>133.8</ele>
        <time>1970-01-01T00:54:18.000Z</time>
      </trkpt>
      <trkpt lat="45.00932" lon="0.69985">
        <ele>133.8</ele>
        <time>1970-01-01T00:54:19.000Z</time>
      </trkpt>
      <trkpt lat="45.00927" lon="0.69988">
        <ele>133.8</ele>
        <time>1970-01-01T00:54:20.000Z</time>
      </trkpt>
      <trkpt lat="45.00923" lon="0.69992">
        <ele>133.8</ele>
        <time>1970-01-01T00:54:21.000Z</time>
      </trkpt>
      <trkpt lat="45.00919" lon="0.69995">
        <ele>133.8</ele>
        <time>1970-01-01T00:54:22.000Z</time>
      </trkpt>
      <trkpt lat="45.00914" lon="0.69998">
        <ele>133.8</ele>
        <time>1970-01-01T00:54:23.000Z</time>
      </trkpt>
      <trkpt lat="45.0091" lon="0.70002">
        <ele>133.8</ele>
        <time>1970-01-01T00:54:24.000Z</time>
      </trkpt>
      <trkpt lat="45.00906" lon="0.70005">
        <ele>133.8</ele>
        <time>1970-01-01T00:54:25.000Z</time>
      </trkpt>
      <trkpt lat="45.00903" lon="0.70009">
        <ele>133.8</ele>
        <time>1970-01-01T00:54:26.000Z</time>
      </trkpt>
      <trkpt lat="45.00899" lon="0.70013">
        <ele>133.8</ele>
        <time>1970-01-01T00:54:27.000Z</time>
      </trkpt>
      <trkpt lat="45.00895" lon="0.70018">
        <ele>133.8</ele>
        <time>1970-01-01T00:54:28.000Z</time>
      </trkpt>
      <trkpt lat="45.00892" lon="0.70022">
        <ele>133.8</ele>
        <time>1970-01-01T00:54:29.000Z</time>
      </trkpt>
      <trkpt lat="45.00889" lon="0.70028">
        <ele>133.8</ele>
        <time>1970-01-01T00:54:30.000Z</time>
      </trkpt>
      <trkpt lat="45.00886" lon="0.70033">
        <ele>133.8</ele>
        <time>1970-01-01T00:54:31.000Z</time>
      </trkpt>
      <trkpt lat="45.00882" lon="0.70039">
        <ele>133.8</ele>
        <time>1970-01-01T00:54:32.000Z</time>
      </trkpt>
      <trkpt lat="45.00879" lon="0.70044">
        <ele>133.8</ele>
        <time>1970-01-01T00:54:33.000Z</time>
      </trkpt>
      <trkpt lat="45.00874" lon="0.70048">
        <ele>132.9</ele>
        <time>1970-01-01T00:54:34.000Z</time>
      </trkpt>
      <trkpt lat="45.0087" lon="0.70052">
        <ele>132.9</ele>
        <time>1970-01-01T00:54:35.000Z</time>
      </trkpt>
      <trkpt lat="45.00864" lon="0.70054">
        <ele>132.9</ele>
        <time>1970-01-01T00:54:36.000Z</time>
      </trkpt>
      <trkpt lat="45.00858" lon="0.70057">
        <ele>132.9</ele>
        <time>1970-01-01T00:54:37.000Z</time>
      </trkpt>
      <trkpt lat="45.00852" lon="0.70059">
        <ele>132.9</ele>
        <time>1970-01-01T00:54:38.000Z</time>
      </trkpt>
      <trkpt lat="45.00846" lon="0.70061">
        <ele>132.9</ele>
        <time>1970-01-01T00:54:39.000Z</time>
      </trkpt>
      <trkpt lat="45.0084" lon="0.70063">
        <ele>127.9</ele>
        <time>1970-01-01T00:54:40.000Z</time>
      </trkpt>
      <trkpt lat="45.00834" lon="0.70066">
        <ele>127.9</ele>
        <time>1970-01-01T00:54:41.000Z</time>
      </trkpt>
      <trkpt lat="45.00829" lon="0.7007">
        <ele>126.8</ele>
        <time>1970-01-01T00:54:42.000Z</time>
      </trkpt>
      <trkpt lat="45.00826" lon="0.70075">
        <ele>126.8</ele>
        <time>1970-01-01T00:54:43.000Z</time>
      </trkpt>
      <trkpt lat="45.00823" lon="0.70081">
        <ele>126.8</ele>
        <time>1970-01-01T00:54:44.000Z</time>
      </trkpt>
      <trkpt lat="45.00821" lon="0.70084">
        <ele>126.8</ele>
        <time>1970-01-01T00:54:45.000Z</time>
      </trkpt>
      <trkpt lat="45.0082" lon="0.70088">
        <ele>126.8</ele>
        <time>1970-01-01T00:54:46.000Z</time>
      </trkpt>
      <trkpt lat="45.00818" lon="0.7009">
        <ele>126.8</ele>
        <time>1970-01-01T00:54:47.000Z</time>
      </trkpt>
      <trkpt lat="45.00818" lon="0.70092">
        <ele>126.8</ele>
        <time>1970-01-01T00:54:48.000Z</time>
      </trkpt>
      <trkpt lat="45.00817" lon="0.70093">
        <ele>126.8</ele>
        <time>1970-01-01T00:54:49.000Z</time>
      </trkpt>
      <trkpt lat="45.00816" lon="0.70095">
        <ele>126.8</ele>
        <time>1970-01-01T00:54:50.000Z</time>
      </trkpt>
      <trkpt lat="45.00815" lon="0.70096">
        <ele>126.8</ele>
        <time>1970-01-01T00:54:51.000Z</time>
      </trkpt>
      <trkpt lat="45.00815" lon="0.70097">
        <ele>131.8</ele>
        <time>1970-01-01T00:54:52.000Z</time>
      </trkpt>
      <trkpt lat="45.00814" lon="0.70099">
        <ele>131.8</ele>
        <time>1970-01-01T00:54:53.000Z</time>
      </trkpt>
      <trkpt lat="45.00813" lon="0.70101">
        <ele>131.8</ele>
        <time>1970-01-01T00:54:54.000Z</time>
      </trkpt>
      <trkpt lat="45.00813" lon="0.70103">
        <ele>131.8</ele>
        <time>1970-01-01T00:54:55.000Z</time>
      </trkpt>
      <trkpt lat="45.00812" lon="0.70105">
        <ele>132.9</ele>
        <time>1970-01-01T00:54:56.000Z</time>
      </trkpt>
      <trkpt lat="45.00811" lon="0.70107">
        <ele>132.9</ele>
        <time>1970-01-01T00:54:57.000Z</time>
      </trkpt>
      <trkpt lat="45.0081" lon="0.70109">
        <ele>132.9</ele>
        <time>1970-01-01T00:54:58.000Z</time>
      </trkpt>
      <trkpt lat="45.00809" lon="0.70111">
        <ele>132.9</ele>
        <time>1970-01-01T00:54:59.000Z</time>
      </trkpt>
      <trkpt lat="45.00808" lon="0.70113">
        <ele>132.9</ele>
        <time>1970-01-01T00:55:00.000Z</time>
      </trkpt>
      <trkpt lat="45.00807" lon="0.70115">
        <ele>132.9</ele>
        <time>1970-01-01T00:55:01.000Z</time>
      </trkpt>
      <trkpt lat="45.00807" lon="0.70116">
        <ele>132.9</ele>
        <time>1970-01-01T00:55:02.000Z</time>
      </trkpt>
      <trkpt lat="45.00806" lon="0.70119">
        <ele>132.9</ele>
        <time>1970-01-01T00:55:03.000Z</time>
      </trkpt>
      <trkpt lat="45.00806" lon="0.70121">
        <ele>134.9</ele>
        <time>1970-01-01T00:55:04.000Z</time>
      </trkpt>
      <trkpt lat="45.00805" lon="0.70124">
        <ele>134.9</ele>
        <time>1970-01-01T00:55:05.000Z</time>
      </trkpt>
      <trkpt lat="45.00804" lon="0.70126">
        <ele>134.9</ele>
        <time>1970-01-01T00:55:06.000Z</time>
      </trkpt>
      <trkpt lat="45.00802" lon="0.70129">
        <ele>134.9</ele>
        <time>1970-01-01T00:55:07.000Z</time>
      </trkpt>
      <trkpt lat="45.00801" lon="0.70132">
        <ele>134.9</ele>
        <time>1970-01-01T00:55:08.000Z</time>
      </trkpt>
      <trkpt lat="45.008" lon="0.70135">
        <ele>134.9</ele>
        <time>1970-01-01T00:55:09.000Z</time>
      </trkpt>
      <trkpt lat="45.00799" lon="0.70138">
        <ele>135.8</ele>
        <time>1970-01-01T00:55:10.000Z</time>
      </trkpt>
      <trkpt lat="45.00798" lon="0.70141">
        <ele>135.8</ele>
        <time>1970-01-01T00:55:11.000Z</time>
      </trkpt>
      <trkpt lat="45.00797" lon="0.70144">
        <ele>135.8</ele>
        <time>1970-01-01T00:55:12.000Z</time>
      </trkpt>
      <trkpt lat="45.00795" lon="0.70147">
        <ele>135.8</ele>
        <time>1970-01-01T00:55:13.000Z</time>
      </trkpt>
      <trkpt lat="45.00794" lon="0.7015">
        <ele>135.8</ele>
        <time>1970-01-01T00:55:14.000Z</time>
      </trkpt>
      <trkpt lat="45.00793" lon="0.70154">
        <ele>135.8</ele>
        <time>1970-01-01T00:55:15.000Z</time>
      </trkpt>
      <trkpt lat="45.00791" lon="0.70158">
        <ele>135.8</ele>
        <time>1970-01-01T00:55:16.000Z</time>
      </trkpt>
      <trkpt lat="45.00789" lon="0.70162">
        <ele>135.8</ele>
        <time>1970-01-01T00:55:17.000Z</time>
      </trkpt>
      <trkpt lat="45.00788" lon="0.70165">
        <ele>135.8</ele>
        <time>1970-01-01T00:55:18.000Z</time>
      </trkpt>
      <trkpt lat="45.00786" lon="0.70169">
        <ele>135.8</ele>
        <time>1970-01-01T00:55:19.000Z</time>
      </trkpt>
      <trkpt lat="45.00785" lon="0.70172">
        <ele>135.8</ele>
        <time>1970-01-01T00:55:20.000Z</time>
      </trkpt>
      <trkpt lat="45.00783" lon="0.70176">
        <ele>135.8</ele>
        <time>1970-01-01T00:55:21.000Z</time>
      </trkpt>
      <trkpt lat="45.00782" lon="0.7018">
        <ele>135.8</ele>
        <time>1970-01-01T00:55:22.000Z</time>
      </trkpt>
      <trkpt lat="45.00781" lon="0.70184">
        <ele>135.8</ele>
        <time>1970-01-01T00:55:23.000Z</time>
      </trkpt>
      <trkpt lat="45.0078" lon="0.70188">
        <ele>135.8</ele>
        <time>1970-01-01T00:55:24.000Z</time>
      </trkpt>
      <trkpt lat="45.00779" lon="0.70193">
        <ele>135.8</ele>
        <time>1970-01-01T00:55:25.000Z</time>
      </trkpt>
      <trkpt lat="45.00778" lon="0.70199">
        <ele>135.8</ele>
        <time>1970-01-01T00:55:26.000Z</time>
      </trkpt>
      <trkpt lat="45.00776" lon="0.70204">
        <ele>135.8</ele>
        <time>1970-01-01T00:55:27.000Z</time>
      </trkpt>
      <trkpt lat="45.00775" lon="0.7021">
        <ele>134.9</ele>
        <time>1970-01-01T00:55:28.000Z</time>
      </trkpt>
      <trkpt lat="45.00773" lon="0.70216">
        <ele>134.9</ele>
        <time>1970-01-01T00:55:29.000Z</time>
      </trkpt>
      <trkpt lat="45.00773" lon="0.70223">
        <ele>133.8</ele>
        <time>1970-01-01T00:55:30.000Z</time>
      </trkpt>
      <trkpt lat="45.00771" lon="0.70229">
        <ele>133.8</ele>
        <time>1970-01-01T00:55:31.000Z</time>
      </trkpt>
      <trkpt lat="45.00769" lon="0.70236">
        <ele>132.9</ele>
        <time>1970-01-01T00:55:32.000Z</time>
      </trkpt>
      <trkpt lat="45.00766" lon="0.70242">
        <ele>132.9</ele>
        <time>1970-01-01T00:55:33.000Z</time>
      </trkpt>
      <trkpt lat="45.00765" lon="0.70248">
        <ele>132.9</ele>
        <time>1970-01-01T00:55:34.000Z</time>
      </trkpt>
      <trkpt lat="45.00763" lon="0.70255">
        <ele>132.9</ele>
        <time>1970-01-01T00:55:35.000Z</time>
      </trkpt>
      <trkpt lat="45.00761" lon="0.70261">
        <ele>131.8</ele>
        <time>1970-01-01T00:55:36.000Z</time>
      </trkpt>
      <trkpt lat="45.00759" lon="0.70268">
        <ele>131.8</ele>
        <time>1970-01-01T00:55:37.000Z</time>
      </trkpt>
      <trkpt lat="45.00757" lon="0.70274">
        <ele>131.8</ele>
        <time>1970-01-01T00:55:38.000Z</time>
      </trkpt>
      <trkpt lat="45.00755" lon="0.70281">
        <ele>131.8</ele>
        <time>1970-01-01T00:55:39.000Z</time>
      </trkpt>
      <trkpt lat="45.00753" lon="0.70287">
        <ele>131.8</ele>
        <time>1970-01-01T00:55:40.000Z</time>
      </trkpt>
      <trkpt lat="45.00752" lon="0.70293">
        <ele>131.8</ele>
        <time>1970-01-01T00:55:41.000Z</time>
      </trkpt>
      <trkpt lat="45.0075" lon="0.70298">
        <ele>131.8</ele>
        <time>1970-01-01T00:55:42.000Z</time>
      </trkpt>
      <trkpt lat="45.00749" lon="0.70304">
        <ele>131.8</ele>
        <time>1970-01-01T00:55:43.000Z</time>
      </trkpt>
      <trkpt lat="45.00747" lon="0.70309">
        <ele>132.9</ele>
        <time>1970-01-01T00:55:44.000Z</time>
      </trkpt>
      <trkpt lat="45.00746" lon="0.70314">
        <ele>132.9</ele>
        <time>1970-01-01T00:55:45.000Z</time>
      </trkpt>
      <trkpt lat="45.00745" lon="0.70318">
        <ele>132.9</ele>
        <time>1970-01-01T00:55:46.000Z</time>
      </trkpt>
      <trkpt lat="45.00745" lon="0.70322">
        <ele>132.9</ele>
        <time>1970-01-01T00:55:47.000Z</time>
      </trkpt>
      <trkpt lat="45.00746" lon="0.70327">
        <ele>133.8</ele>
        <time>1970-01-01T00:55:48.000Z</time>
      </trkpt>
      <trkpt lat="45.00747" lon="0.70332">
        <ele>133.8</ele>
        <time>1970-01-01T00:55:49.000Z</time>
      </trkpt>
      <trkpt lat="45.00749" lon="0.70336">
        <ele>133.8</ele>
        <time>1970-01-01T00:55:50.000Z</time>
      </trkpt>
      <trkpt lat="45.0075" lon="0.7034">
        <ele>133.8</ele>
        <time>1970-01-01T00:55:51.000Z</time>
      </trkpt>
      <trkpt lat="45.0075" lon="0.70345">
        <ele>132.9</ele>
        <time>1970-01-01T00:55:52.000Z</time>
      </trkpt>
      <trkpt lat="45.00749" lon="0.7035">
        <ele>132.9</ele>
        <time>1970-01-01T00:55:53.000Z</time>
      </trkpt>
      <trkpt lat="45.00747" lon="0.70355">
        <ele>132.9</ele>
        <time>1970-01-01T00:55:54.000Z</time>
      </trkpt>
      <trkpt lat="45.00745" lon="0.7036">
        <ele>132.9</ele>
        <time>1970-01-01T00:55:55.000Z</time>
      </trkpt>
      <trkpt lat="45.00742" lon="0.70364">
        <ele>133.8</ele>
        <time>1970-01-01T00:55:56.000Z</time>
      </trkpt>
      <trkpt lat="45.00739" lon="0.7037">
        <ele>133.8</ele>
        <time>1970-01-01T00:55:57.000Z</time>
      </trkpt>
      <trkpt lat="45.00738" lon="0.70373">
        <ele>134.9</ele>
        <time>1970-01-01T00:55:58.000Z</time>
      </trkpt>
      <trkpt lat="45.00738" lon="0.70377">
        <ele>134.9</ele>
        <time>1970-01-01T00:55:59.000Z</time>
      </trkpt>
      <trkpt lat="45.00739" lon="0.70381">
        <ele>134.9</ele>
        <time>1970-01-01T00:56:00.000Z</time>
      </trkpt>
      <trkpt lat="45.00741" lon="0.70384">
        <ele>134.9</ele>
        <time>1970-01-01T00:56:01.000Z</time>
      </trkpt>
      <trkpt lat="45.00743" lon="0.70387">
        <ele>135.8</ele>
        <time>1970-01-01T00:56:02.000Z</time>
      </trkpt>
      <trkpt lat="45.00746" lon="0.7039">
        <ele>135.8</ele>
        <time>1970-01-01T00:56:03.000Z</time>
      </trkpt>
      <trkpt lat="45.00749" lon="0.70393">
        <ele>135.8</ele>
        <time>1970-01-01T00:56:04.000Z</time>
      </trkpt>
      <trkpt lat="45.00752" lon="0.70397">
        <ele>135.8</ele>
        <time>1970-01-01T00:56:05.000Z</time>
      </trkpt>
      <trkpt lat="45.00755" lon="0.704">
        <ele>135.8</ele>
        <time>1970-01-01T00:56:06.000Z</time>
      </trkpt>
      <trkpt lat="45.00758" lon="0.70404">
        <ele>135.8</ele>
        <time>1970-01-01T00:56:07.000Z</time>
      </trkpt>
      <trkpt lat="45.00762" lon="0.70407">
        <ele>135.8</ele>
        <time>1970-01-01T00:56:08.000Z</time>
      </trkpt>
      <trkpt lat="45.00765" lon="0.70412">
        <ele>135.8</ele>
        <time>1970-01-01T00:56:09.000Z</time>
      </trkpt>
      <trkpt lat="45.00768" lon="0.70416">
        <ele>135.8</ele>
        <time>1970-01-01T00:56:10.000Z</time>
      </trkpt>
      <trkpt lat="45.00772" lon="0.70421">
        <ele>135.8</ele>
        <time>1970-01-01T00:56:11.000Z</time>
      </trkpt>
      <trkpt lat="45.00775" lon="0.70426">
        <ele>135.8</ele>
        <time>1970-01-01T00:56:12.000Z</time>
      </trkpt>
      <trkpt lat="45.00778" lon="0.70432">
        <ele>135.8</ele>
        <time>1970-01-01T00:56:13.000Z</time>
      </trkpt>
      <trkpt lat="45.00781" lon="0.70437">
        <ele>135.8</ele>
        <time>1970-01-01T00:56:14.000Z</time>
      </trkpt>
      <trkpt lat="45.00785" lon="0.70443">
        <ele>135.8</ele>
        <time>1970-01-01T00:56:15.000Z</time>
      </trkpt>
      <trkpt lat="45.00788" lon="0.7045">
        <ele>134.9</ele>
        <time>1970-01-01T00:56:16.000Z</time>
      </trkpt>
      <trkpt lat="45.00791" lon="0.70456">
        <ele>134.9</ele>
        <time>1970-01-01T00:56:17.000Z</time>
      </trkpt>
      <trkpt lat="45.00794" lon="0.70463">
        <ele>134.9</ele>
        <time>1970-01-01T00:56:18.000Z</time>
      </trkpt>
      <trkpt lat="45.00797" lon="0.70471">
        <ele>134.9</ele>
        <time>1970-01-01T00:56:19.000Z</time>
      </trkpt>
      <trkpt lat="45.00799" lon="0.70478">
        <ele>133.8</ele>
        <time>1970-01-01T00:56:20.000Z</time>
      </trkpt>
      <trkpt lat="45.00802" lon="0.70486">
        <ele>133.8</ele>
        <time>1970-01-01T00:56:21.000Z</time>
      </trkpt>
      <trkpt lat="45.00803" lon="0.70493">
        <ele>133.8</ele>
        <time>1970-01-01T00:56:22.000Z</time>
      </trkpt>
      <trkpt lat="45.00805" lon="0.705">
        <ele>133.8</ele>
        <time>1970-01-01T00:56:23.000Z</time>
      </trkpt>
      <trkpt lat="45.00807" lon="0.70507">
        <ele>133.8</ele>
        <time>1970-01-01T00:56:24.000Z</time>
      </trkpt>
      <trkpt lat="45.00808" lon="0.70513">
        <ele>133.8</ele>
        <time>1970-01-01T00:56:25.000Z</time>
      </trkpt>
      <trkpt lat="45.0081" lon="0.7052">
        <ele>133.8</ele>
        <time>1970-01-01T00:56:26.000Z</time>
      </trkpt>
      <trkpt lat="45.00811" lon="0.70526">
        <ele>133.8</ele>
        <time>1970-01-01T00:56:27.000Z</time>
      </trkpt>
      <trkpt lat="45.00812" lon="0.70533">
        <ele>133.8</ele>
        <time>1970-01-01T00:56:28.000Z</time>
      </trkpt>
      <trkpt lat="45.00814" lon="0.70539">
        <ele>133.8</ele>
        <time>1970-01-01T00:56:29.000Z</time>
      </trkpt>
      <trkpt lat="45.00815" lon="0.70545">
        <ele>133.8</ele>
        <time>1970-01-01T00:56:30.000Z</time>
      </trkpt>
      <trkpt lat="45.00816" lon="0.70551">
        <ele>133.8</ele>
        <time>1970-01-01T00:56:31.000Z</time>
      </trkpt>
      <trkpt lat="45.00817" lon="0.70557">
        <ele>134.9</ele>
        <time>1970-01-01T00:56:32.000Z</time>
      </trkpt>
      <trkpt lat="45.00819" lon="0.70562">
        <ele>134.9</ele>
        <time>1970-01-01T00:56:33.000Z</time>
      </trkpt>
      <trkpt lat="45.00822" lon="0.70566">
        <ele>134.9</ele>
        <time>1970-01-01T00:56:34.000Z</time>
      </trkpt>
      <trkpt lat="45.00825" lon="0.70571">
        <ele>134.9</ele>
        <time>1970-01-01T00:56:35.000Z</time>
      </trkpt>
      <trkpt lat="45.00829" lon="0.70575">
        <ele>134.9</ele>
        <time>1970-01-01T00:56:36.000Z</time>
      </trkpt>
      <trkpt lat="45.00834" lon="0.70579">
        <ele>134.9</ele>
        <time>1970-01-01T00:56:37.000Z</time>
      </trkpt>
      <trkpt lat="45.00839" lon="0.70583">
        <ele>133.8</ele>
        <time>1970-01-01T00:56:38.000Z</time>
      </trkpt>
      <trkpt lat="45.00844" lon="0.70587">
        <ele>133.8</ele>
        <time>1970-01-01T00:56:39.000Z</time>
      </trkpt>
      <trkpt lat="45.00849" lon="0.70591">
        <ele>132.9</ele>
        <time>1970-01-01T00:56:40.000Z</time>
      </trkpt>
      <trkpt lat="45.00855" lon="0.70595">
        <ele>132.9</ele>
        <time>1970-01-01T00:56:41.000Z</time>
      </trkpt>
      <trkpt lat="45.00861" lon="0.706">
        <ele>131.8</ele>
        <time>1970-01-01T00:56:42.000Z</time>
      </trkpt>
      <trkpt lat="45.00868" lon="0.70605">
        <ele>131.8</ele>
        <time>1970-01-01T00:56:43.000Z</time>
      </trkpt>
      <trkpt lat="45.00875" lon="0.7061">
        <ele>130.8</ele>
        <time>1970-01-01T00:56:44.000Z</time>
      </trkpt>
      <trkpt lat="45.00882" lon="0.70615">
        <ele>130.8</ele>
        <time>1970-01-01T00:56:45.000Z</time>
      </trkpt>
      <trkpt lat="45.00889" lon="0.7062">
        <ele>129.8</ele>
        <time>1970-01-01T00:56:46.000Z</time>
      </trkpt>
      <trkpt lat="45.00896" lon="0.70626">
        <ele>129.8</ele>
        <time>1970-01-01T00:56:47.000Z</time>
      </trkpt>
      <trkpt lat="45.00903" lon="0.70631">
        <ele>129.8</ele>
        <time>1970-01-01T00:56:48.000Z</time>
      </trkpt>
      <trkpt lat="45.0091" lon="0.70637">
        <ele>129.8</ele>
        <time>1970-01-01T00:56:49.000Z</time>
      </trkpt>
      <trkpt lat="45.00917" lon="0.70642">
        <ele>129.8</ele>
        <time>1970-01-01T00:56:50.000Z</time>
      </trkpt>
      <trkpt lat="45.00924" lon="0.70647">
        <ele>129.8</ele>
        <time>1970-01-01T00:56:51.000Z</time>
      </trkpt>
      <trkpt lat="45.00931" lon="0.70653">
        <ele>126.8</ele>
        <time>1970-01-01T00:56:52.000Z</time>
      </trkpt>
      <trkpt lat="45.00939" lon="0.70658">
        <ele>126.8</ele>
        <time>1970-01-01T00:56:53.000Z</time>
      </trkpt>
      <trkpt lat="45.00946" lon="0.70663">
        <ele>125.9</ele>
        <time>1970-01-01T00:56:54.000Z</time>
      </trkpt>
      <trkpt lat="45.00954" lon="0.70669">
        <ele>125.9</ele>
        <time>1970-01-01T00:56:55.000Z</time>
      </trkpt>
      <trkpt lat="45.00962" lon="0.70674">
        <ele>124.8</ele>
        <time>1970-01-01T00:56:56.000Z</time>
      </trkpt>
      <trkpt lat="45.0097" lon="0.70679">
        <ele>124.8</ele>
        <time>1970-01-01T00:56:57.000Z</time>
      </trkpt>
      <trkpt lat="45.00978" lon="0.70684">
        <ele>124.8</ele>
        <time>1970-01-01T00:56:58.000Z</time>
      </trkpt>
      <trkpt lat="45.00985" lon="0.70689">
        <ele>124.8</ele>
        <time>1970-01-01T00:56:59.000Z</time>
      </trkpt>
      <trkpt lat="45.00993" lon="0.70694">
        <ele>124.8</ele>
        <time>1970-01-01T00:57:00.000Z</time>
      </trkpt>
      <trkpt lat="45.01001" lon="0.70699">
        <ele>124.8</ele>
        <time>1970-01-01T00:57:01.000Z</time>
      </trkpt>
      <trkpt lat="45.01009" lon="0.70704">
        <ele>119.8</ele>
        <time>1970-01-01T00:57:02.000Z</time>
      </trkpt>
      <trkpt lat="45.01018" lon="0.7071">
        <ele>119.8</ele>
        <time>1970-01-01T00:57:03.000Z</time>
      </trkpt>
      <trkpt lat="45.01025" lon="0.70716">
        <ele>118.9</ele>
        <time>1970-01-01T00:57:04.000Z</time>
      </trkpt>
      <trkpt lat="45.01033" lon="0.70723">
        <ele>118.9</ele>
        <time>1970-01-01T00:57:05.000Z</time>
      </trkpt>
      <trkpt lat="45.0104" lon="0.70731">
        <ele>117.8</ele>
        <time>1970-01-01T00:57:06.000Z</time>
      </trkpt>
      <trkpt lat="45.01046" lon="0.70739">
        <ele>117.8</ele>
        <time>1970-01-01T00:57:07.000Z</time>
      </trkpt>
      <trkpt lat="45.01053" lon="0.70748">
        <ele>117.8</ele>
        <time>1970-01-01T00:57:08.000Z</time>
      </trkpt>
      <trkpt lat="45.0106" lon="0.70757">
        <ele>117.8</ele>
        <time>1970-01-01T00:57:09.000Z</time>
      </trkpt>
      <trkpt lat="45.01066" lon="0.70765">
        <ele>116.9</ele>
        <time>1970-01-01T00:57:10.000Z</time>
      </trkpt>
      <trkpt lat="45.01073" lon="0.70773">
        <ele>116.9</ele>
        <time>1970-01-01T00:57:11.000Z</time>
      </trkpt>
      <trkpt lat="45.0108" lon="0.70781">
        <ele>114.8</ele>
        <time>1970-01-01T00:57:12.000Z</time>
      </trkpt>
      <trkpt lat="45.01086" lon="0.70787">
        <ele>114.8</ele>
        <time>1970-01-01T00:57:13.000Z</time>
      </trkpt>
      <trkpt lat="45.01093" lon="0.70792">
        <ele>114.8</ele>
        <time>1970-01-01T00:57:14.000Z</time>
      </trkpt>
      <trkpt lat="45.011" lon="0.70796">
        <ele>114.8</ele>
        <time>1970-01-01T00:57:15.000Z</time>
      </trkpt>
      <trkpt lat="45.01107" lon="0.708">
        <ele>114.8</ele>
        <time>1970-01-01T00:57:16.000Z</time>
      </trkpt>
      <trkpt lat="45.01113" lon="0.70804">
        <ele>114.8</ele>
        <time>1970-01-01T00:57:17.000Z</time>
      </trkpt>
      <trkpt lat="45.01119" lon="0.70807">
        <ele>114.8</ele>
        <time>1970-01-01T00:57:18.000Z</time>
      </trkpt>
      <trkpt lat="45.01124" lon="0.7081">
        <ele>114.8</ele>
        <time>1970-01-01T00:57:19.000Z</time>
      </trkpt>
      <trkpt lat="45.0113" lon="0.70813">
        <ele>114.8</ele>
        <time>1970-01-01T00:57:20.000Z</time>
      </trkpt>
      <trkpt lat="45.01135" lon="0.70815">
        <ele>114.8</ele>
        <time>1970-01-01T00:57:21.000Z</time>
      </trkpt>
      <trkpt lat="45.0114" lon="0.70818">
        <ele>114.8</ele>
        <time>1970-01-01T00:57:22.000Z</time>
      </trkpt>
      <trkpt lat="45.01145" lon="0.70821">
        <ele>114.8</ele>
        <time>1970-01-01T00:57:23.000Z</time>
      </trkpt>
      <trkpt lat="45.01149" lon="0.70823">
        <ele>115.8</ele>
        <time>1970-01-01T00:57:24.000Z</time>
      </trkpt>
      <trkpt lat="45.01152" lon="0.70825">
        <ele>115.8</ele>
        <time>1970-01-01T00:57:25.000Z</time>
      </trkpt>
      <trkpt lat="45.01156" lon="0.70826">
        <ele>115.8</ele>
        <time>1970-01-01T00:57:26.000Z</time>
      </trkpt>
      <trkpt lat="45.01159" lon="0.70828">
        <ele>115.8</ele>
        <time>1970-01-01T00:57:27.000Z</time>
      </trkpt>
      <trkpt lat="45.01162" lon="0.70829">
        <ele>115.8</ele>
        <time>1970-01-01T00:57:28.000Z</time>
      </trkpt>
      <trkpt lat="45.01165" lon="0.70831">
        <ele>115.8</ele>
        <time>1970-01-01T00:57:29.000Z</time>
      </trkpt>
      <trkpt lat="45.01168" lon="0.70832">
        <ele>116.9</ele>
        <time>1970-01-01T00:57:30.000Z</time>
      </trkpt>
      <trkpt lat="45.0117" lon="0.70833">
        <ele>116.9</ele>
        <time>1970-01-01T00:57:31.000Z</time>
      </trkpt>
      <trkpt lat="45.01172" lon="0.70834">
        <ele>116.9</ele>
        <time>1970-01-01T00:57:32.000Z</time>
      </trkpt>
      <trkpt lat="45.01173" lon="0.70835">
        <ele>116.9</ele>
        <time>1970-01-01T00:57:33.000Z</time>
      </trkpt>
      <trkpt lat="45.01175" lon="0.70836">
        <ele>117.8</ele>
        <time>1970-01-01T00:57:34.000Z</time>
      </trkpt>
      <trkpt lat="45.01177" lon="0.70837">
        <ele>117.8</ele>
        <time>1970-01-01T00:57:35.000Z</time>
      </trkpt>
      <trkpt lat="45.01178" lon="0.70838">
        <ele>117.8</ele>
        <time>1970-01-01T00:57:36.000Z</time>
      </trkpt>
      <trkpt lat="45.01179" lon="0.70839">
        <ele>117.8</ele>
        <time>1970-01-01T00:57:37.000Z</time>
      </trkpt>
      <trkpt lat="45.01181" lon="0.70839">
        <ele>119.8</ele>
        <time>1970-01-01T00:57:38.000Z</time>
      </trkpt>
      <trkpt lat="45.01182" lon="0.7084">
        <ele>119.8</ele>
        <time>1970-01-01T00:57:39.000Z</time>
      </trkpt>
      <trkpt lat="45.01184" lon="0.70841">
        <ele>120.9</ele>
        <time>1970-01-01T00:57:40.000Z</time>
      </trkpt>
      <trkpt lat="45.01185" lon="0.70842">
        <ele>120.9</ele>
        <time>1970-01-01T00:57:41.000Z</time>
      </trkpt>
      <trkpt lat="45.01187" lon="0.70842">
        <ele>121.8</ele>
        <time>1970-01-01T00:57:42.000Z</time>
      </trkpt>
      <trkpt lat="45.01188" lon="0.70843">
        <ele>121.8</ele>
        <time>1970-01-01T00:57:43.000Z</time>
      </trkpt>
      <trkpt lat="45.01189" lon="0.70843">
        <ele>122.8</ele>
        <time>1970-01-01T00:57:44.000Z</time>
      </trkpt>
      <trkpt lat="45.01191" lon="0.70844">
        <ele>122.8</ele>
        <time>1970-01-01T00:57:45.000Z</time>
      </trkpt>
      <trkpt lat="45.01192" lon="0.70844">
        <ele>123.9</ele>
        <time>1970-01-01T00:57:46.000Z</time>
      </trkpt>
      <trkpt lat="45.01192" lon="0.70845">
        <ele>123.9</ele>
        <time>1970-01-01T00:57:47.000Z</time>
      </trkpt>
      <trkpt lat="45.01193" lon="0.70846">
        <ele>124.8</ele>
        <time>1970-01-01T00:57:48.000Z</time>
      </trkpt>
      <trkpt lat="45.01194" lon="0.70846">
        <ele>124.8</ele>
        <time>1970-01-01T00:57:49.000Z</time>
      </trkpt>
      <trkpt lat="45.01195" lon="0.70847">
        <ele>125.9</ele>
        <time>1970-01-01T00:57:50.000Z</time>
      </trkpt>
      <trkpt lat="45.01196" lon="0.70847">
        <ele>125.9</ele>
        <time>1970-01-01T00:57:51.000Z</time>
      </trkpt>
      <trkpt lat="45.01196" lon="0.70848">
        <ele>125.9</ele>
        <time>1970-01-01T00:57:52.000Z</time>
      </trkpt>
      <trkpt lat="45.01197" lon="0.70849">
        <ele>125.9</ele>
        <time>1970-01-01T00:57:53.000Z</time>
      </trkpt>
      <trkpt lat="45.01199" lon="0.7085">
        <ele>126.8</ele>
        <time>1970-01-01T00:57:54.000Z</time>
      </trkpt>
      <trkpt lat="45.012" lon="0.7085">
        <ele>126.8</ele>
        <time>1970-01-01T00:57:55.000Z</time>
      </trkpt>
      <trkpt lat="45.01201" lon="0.70851">
        <ele>127.9</ele>
        <time>1970-01-01T00:57:56.000Z</time>
      </trkpt>
      <trkpt lat="45.01202" lon="0.70851">
        <ele>127.9</ele>
        <time>1970-01-01T00:57:57.000Z</time>
      </trkpt>
      <trkpt lat="45.01204" lon="0.70852">
        <ele>128.8</ele>
        <time>1970-01-01T00:57:58.000Z</time>
      </trkpt>
      <trkpt lat="45.01205" lon="0.70852">
        <ele>128.8</ele>
        <time>1970-01-01T00:57:59.000Z</time>
      </trkpt>
      <trkpt lat="45.01207" lon="0.70852">
        <ele>129.8</ele>
        <time>1970-01-01T00:58:00.000Z</time>
      </trkpt>
      <trkpt lat="45.01208" lon="0.70853">
        <ele>129.8</ele>
        <time>1970-01-01T00:58:01.000Z</time>
      </trkpt>
      <trkpt lat="45.0121" lon="0.70854">
        <ele>129.8</ele>
        <time>1970-01-01T00:58:02.000Z</time>
      </trkpt>
      <trkpt lat="45.01211" lon="0.70854">
        <ele>129.8</ele>
        <time>1970-01-01T00:58:03.000Z</time>
      </trkpt>
      <trkpt lat="45.01212" lon="0.70855">
        <ele>130.8</ele>
        <time>1970-01-01T00:58:04.000Z</time>
      </trkpt>
      <trkpt lat="45.01213" lon="0.70856">
        <ele>130.8</ele>
        <time>1970-01-01T00:58:05.000Z</time>
      </trkpt>
      <trkpt lat="45.01214" lon="0.70857">
        <ele>131.8</ele>
        <time>1970-01-01T00:58:06.000Z</time>
      </trkpt>
      <trkpt lat="45.01215" lon="0.70858">
        <ele>131.8</ele>
        <time>1970-01-01T00:58:07.000Z</time>
      </trkpt>
      <trkpt lat="45.01216" lon="0.70858">
        <ele>131.8</ele>
        <time>1970-01-01T00:58:08.000Z</time>
      </trkpt>
      <trkpt lat="45.01218" lon="0.70859">
        <ele>131.8</ele>
        <time>1970-01-01T00:58:09.000Z</time>
      </trkpt>
      <trkpt lat="45.01219" lon="0.70859">
        <ele>132.9</ele>
        <time>1970-01-01T00:58:10.000Z</time>
      </trkpt>
      <trkpt lat="45.0122" lon="0.7086">
        <ele>132.9</ele>
        <time>1970-01-01T00:58:11.000Z</time>
      </trkpt>
      <trkpt lat="45.01222" lon="0.7086">
        <ele>132.9</ele>
        <time>1970-01-01T00:58:12.000Z</time>
      </trkpt>
      <trkpt lat="45.01223" lon="0.70861">
        <ele>132.9</ele>
        <time>1970-01-01T00:58:13.000Z</time>
      </trkpt>
      <trkpt lat="45.01224" lon="0.70861">
        <ele>132.9</ele>
        <time>1970-01-01T00:58:14.000Z</time>
      </trkpt>
      <trkpt lat="45.01225" lon="0.70862">
        <ele>132.9</ele>
        <time>1970-01-01T00:58:15.000Z</time>
      </trkpt>
      <trkpt lat="45.01226" lon="0.70863">
        <ele>132.9</ele>
        <time>1970-01-01T00:58:16.000Z</time>
      </trkpt>
      <trkpt lat="45.01227" lon="0.70863">
        <ele>132.9</ele>
        <time>1970-01-01T00:58:17.000Z</time>
      </trkpt>
      <trkpt lat="45.01228" lon="0.70864">
        <ele>132.9</ele>
        <time>1970-01-01T00:58:18.000Z</time>
      </trkpt>
      <trkpt lat="45.01229" lon="0.70864">
        <ele>132.9</ele>
        <time>1970-01-01T00:58:19.000Z</time>
      </trkpt>
      <trkpt lat="45.01231" lon="0.70865">
        <ele>135.8</ele>
        <time>1970-01-01T00:58:20.000Z</time>
      </trkpt>
      <trkpt lat="45.01232" lon="0.70866">
        <ele>135.8</ele>
        <time>1970-01-01T00:58:21.000Z</time>
      </trkpt>
      <trkpt lat="45.01234" lon="0.70866">
        <ele>135.8</ele>
        <time>1970-01-01T00:58:22.000Z</time>
      </trkpt>
      <trkpt lat="45.01235" lon="0.70867">
        <ele>135.8</ele>
        <time>1970-01-01T00:58:23.000Z</time>
      </trkpt>
      <trkpt lat="45.01236" lon="0.70868">
        <ele>136.9</ele>
        <time>1970-01-01T00:58:24.000Z</time>
      </trkpt>
      <trkpt lat="45.01237" lon="0.70869">
        <ele>136.9</ele>
        <time>1970-01-01T00:58:25.000Z</time>
      </trkpt>
      <trkpt lat="45.01238" lon="0.7087">
        <ele>136.9</ele>
        <time>1970-01-01T00:58:26.000Z</time>
      </trkpt>
      <trkpt lat="45.01239" lon="0.7087">
        <ele>136.9</ele>
        <time>1970-01-01T00:58:27.000Z</time>
      </trkpt>
      <trkpt lat="45.0124" lon="0.70871">
        <ele>137.8</ele>
        <time>1970-01-01T00:58:28.000Z</time>
      </trkpt>
      <trkpt lat="45.01241" lon="0.70872">
        <ele>137.8</ele>
        <time>1970-01-01T00:58:29.000Z</time>
      </trkpt>
      <trkpt lat="45.01242" lon="0.70872">
        <ele>137.8</ele>
        <time>1970-01-01T00:58:30.000Z</time>
      </trkpt>
      <trkpt lat="45.01243" lon="0.70873">
        <ele>137.8</ele>
        <time>1970-01-01T00:58:31.000Z</time>
      </trkpt>
      <trkpt lat="45.01244" lon="0.70874">
        <ele>138.8</ele>
        <time>1970-01-01T00:58:32.000Z</time>
      </trkpt>
      <trkpt lat="45.01245" lon="0.70876">
        <ele>138.8</ele>
        <time>1970-01-01T00:58:33.000Z</time>
      </trkpt>
      <trkpt lat="45.01246" lon="0.70877">
        <ele>138.8</ele>
        <time>1970-01-01T00:58:34.000Z</time>
      </trkpt>
      <trkpt lat="45.01248" lon="0.70878">
        <ele>138.8</ele>
        <time>1970-01-01T00:58:35.000Z</time>
      </trkpt>
      <trkpt lat="45.01249" lon="0.70879">
        <ele>138.8</ele>
        <time>1970-01-01T00:58:36.000Z</time>
      </trkpt>
      <trkpt lat="45.0125" lon="0.70881">
        <ele>139.9</ele>
        <time>1970-01-01T00:58:37.000Z</time>
      </trkpt>
      <trkpt lat="45.01251" lon="0.70882">
        <ele>139.9</ele>
        <time>1970-01-01T00:58:38.000Z</time>
      </trkpt>
      <trkpt lat="45.01252" lon="0.70882">
        <ele>139.9</ele>
        <time>1970-01-01T00:58:39.000Z</time>
      </trkpt>
      <trkpt lat="45.01253" lon="0.70883">
        <ele>139.9</ele>
        <time>1970-01-01T00:58:40.000Z</time>
      </trkpt>
      <trkpt lat="45.01254" lon="0.70884">
        <ele>139.9</ele>
        <time>1970-01-01T00:58:41.000Z</time>
      </trkpt>
      <trkpt lat="45.01255" lon="0.70885">
        <ele>139.9</ele>
        <time>1970-01-01T00:58:42.000Z</time>
      </trkpt>
      <trkpt lat="45.01256" lon="0.70886">
        <ele>141.9</ele>
        <time>1970-01-01T00:58:43.000Z</time>
      </trkpt>
      <trkpt lat="45.01257" lon="0.70887">
        <ele>141.9</ele>
        <time>1970-01-01T00:58:44.000Z</time>
      </trkpt>
      <trkpt lat="45.01258" lon="0.70888">
        <ele>142.8</ele>
        <time>1970-01-01T00:58:45.000Z</time>
      </trkpt>
      <trkpt lat="45.01259" lon="0.70889">
        <ele>142.8</ele>
        <time>1970-01-01T00:58:46.000Z</time>
      </trkpt>
      <trkpt lat="45.0126" lon="0.7089">
        <ele>142.8</ele>
        <time>1970-01-01T00:58:47.000Z</time>
      </trkpt>
      <trkpt lat="45.01261" lon="0.70891">
        <ele>142.8</ele>
        <time>1970-01-01T00:58:48.000Z</time>
      </trkpt>
      <trkpt lat="45.01262" lon="0.70892">
        <ele>143.9</ele>
        <time>1970-01-01T00:58:49.000Z</time>
      </trkpt>
      <trkpt lat="45.01263" lon="0.70892">
        <ele>143.9</ele>
        <time>1970-01-01T00:58:50.000Z</time>
      </trkpt>
      <trkpt lat="45.01264" lon="0.70893">
        <ele>143.9</ele>
        <time>1970-01-01T00:58:51.000Z</time>
      </trkpt>
      <trkpt lat="45.01265" lon="0.70894">
        <ele>143.9</ele>
        <time>1970-01-01T00:58:52.000Z</time>
      </trkpt>
      <trkpt lat="45.01266" lon="0.70895">
        <ele>144.8</ele>
        <time>1970-01-01T00:58:53.000Z</time>
      </trkpt>
      <trkpt lat="45.01267" lon="0.70896">
        <ele>144.8</ele>
        <time>1970-01-01T00:58:54.000Z</time>
      </trkpt>
      <trkpt lat="45.01267" lon="0.70897">
        <ele>144.8</ele>
        <time>1970-01-01T00:58:55.000Z</time>
      </trkpt>
      <trkpt lat="45.01268" lon="0.70897">
        <ele>144.8</ele>
        <time>1970-01-01T00:58:56.000Z</time>
      </trkpt>
      <trkpt lat="45.01268" lon="0.70898">
        <ele>145.8</ele>
        <time>1970-01-01T00:58:57.000Z</time>
      </trkpt>
      <trkpt lat="45.01269" lon="0.70899">
        <ele>145.8</ele>
        <time>1970-01-01T00:58:58.000Z</time>
      </trkpt>
      <trkpt lat="45.0127" lon="0.70901">
        <ele>145.8</ele>
        <time>1970-01-01T00:58:59.000Z</time>
      </trkpt>
      <trkpt lat="45.01272" lon="0.70901">
        <ele>145.8</ele>
        <time>1970-01-01T00:59:00.000Z</time>
      </trkpt>
      <trkpt lat="45.01273" lon="0.70902">
        <ele>147.8</ele>
        <time>1970-01-01T00:59:01.000Z</time>
      </trkpt>
      <trkpt lat="45.01274" lon="0.70903">
        <ele>147.8</ele>
        <time>1970-01-01T00:59:02.000Z</time>
      </trkpt>
      <trkpt lat="45.01276" lon="0.70904">
        <ele>147.8</ele>
        <time>1970-01-01T00:59:03.000Z</time>
      </trkpt>
      <trkpt lat="45.01277" lon="0.70905">
        <ele>147.8</ele>
        <time>1970-01-01T00:59:04.000Z</time>
      </trkpt>
      <trkpt lat="45.01278" lon="0.70906">
        <ele>147.8</ele>
        <time>1970-01-01T00:59:05.000Z</time>
      </trkpt>
      <trkpt lat="45.0128" lon="0.70907">
        <ele>147.8</ele>
        <time>1970-01-01T00:59:06.000Z</time>
      </trkpt>
      <trkpt lat="45.01281" lon="0.70908">
        <ele>147.8</ele>
        <time>1970-01-01T00:59:07.000Z</time>
      </trkpt>
      <trkpt lat="45.01282" lon="0.70909">
        <ele>147.8</ele>
        <time>1970-01-01T00:59:08.000Z</time>
      </trkpt>
      <trkpt lat="45.01284" lon="0.7091">
        <ele>148.9</ele>
        <time>1970-01-01T00:59:09.000Z</time>
      </trkpt>
      <trkpt lat="45.01285" lon="0.70911">
        <ele>148.9</ele>
        <time>1970-01-01T00:59:10.000Z</time>
      </trkpt>
      <trkpt lat="45.01287" lon="0.70911">
        <ele>148.9</ele>
        <time>1970-01-01T00:59:11.000Z</time>
      </trkpt>
      <trkpt lat="45.01288" lon="0.70912">
        <ele>148.9</ele>
        <time>1970-01-01T00:59:12.000Z</time>
      </trkpt>
      <trkpt lat="45.0129" lon="0.70913">
        <ele>149.8</ele>
        <time>1970-01-01T00:59:13.000Z</time>
      </trkpt>
      <trkpt lat="45.01292" lon="0.70914">
        <ele>149.8</ele>
        <time>1970-01-01T00:59:14.000Z</time>
      </trkpt>
      <trkpt lat="45.01293" lon="0.70915">
        <ele>150.9</ele>
        <time>1970-01-01T00:59:15.000Z</time>
      </trkpt>
      <trkpt lat="45.01295" lon="0.70915">
        <ele>150.9</ele>
        <time>1970-01-01T00:59:16.000Z</time>
      </trkpt>
      <trkpt lat="45.01296" lon="0.70916">
        <ele>151.8</ele>
        <time>1970-01-01T00:59:17.000Z</time>
      </trkpt>
      <trkpt lat="45.01298" lon="0.70917">
        <ele>151.8</ele>
        <time>1970-01-01T00:59:18.000Z</time>
      </trkpt>
      <trkpt lat="45.013" lon="0.70919">
        <ele>151.8</ele>
        <time>1970-01-01T00:59:19.000Z</time>
      </trkpt>
      <trkpt lat="45.01302" lon="0.7092">
        <ele>151.8</ele>
        <time>1970-01-01T00:59:20.000Z</time>
      </trkpt>
      <trkpt lat="45.01303" lon="0.70922">
        <ele>152.9</ele>
        <time>1970-01-01T00:59:21.000Z</time>
      </trkpt>
      <trkpt lat="45.01305" lon="0.70923">
        <ele>152.9</ele>
        <time>1970-01-01T00:59:22.000Z</time>
      </trkpt>
      <trkpt lat="45.01305" lon="0.70924">
        <ele>152.9</ele>
        <time>1970-01-01T00:59:23.000Z</time>
      </trkpt>
      <trkpt lat="45.01306" lon="0.70924">
        <ele>152.9</ele>
        <time>1970-01-01T00:59:24.000Z</time>
      </trkpt>
      <trkpt lat="45.01306" lon="0.70925">
        <ele>153.8</ele>
        <time>1970-01-01T00:59:25.000Z</time>
      </trkpt>
      <trkpt lat="45.01308" lon="0.70926">
        <ele>153.8</ele>
        <time>1970-01-01T00:59:26.000Z</time>
      </trkpt>
      <trkpt lat="45.01309" lon="0.70928">
        <ele>153.8</ele>
        <time>1970-01-01T00:59:27.000Z</time>
      </trkpt>
      <trkpt lat="45.0131" lon="0.70929">
        <ele>154.8</ele>
        <time>1970-01-01T00:59:29.000Z</time>
      </trkpt>
      <trkpt lat="45.01311" lon="0.70929">
        <ele>154.8</ele>
        <time>1970-01-01T00:59:30.000Z</time>
      </trkpt>
      <trkpt lat="45.01312" lon="0.7093">
        <ele>155.9</ele>
        <time>1970-01-01T00:59:31.000Z</time>
      </trkpt>
      <trkpt lat="45.01313" lon="0.70932">
        <ele>155.9</ele>
        <time>1970-01-01T00:59:33.000Z</time>
      </trkpt>
      <trkpt lat="45.01314" lon="0.70933">
        <ele>155.9</ele>
        <time>1970-01-01T00:59:34.000Z</time>
      </trkpt>
      <trkpt lat="45.01315" lon="0.70934">
        <ele>156.8</ele>
        <time>1970-01-01T00:59:35.000Z</time>
      </trkpt>
      <trkpt lat="45.01316" lon="0.70935">
        <ele>156.8</ele>
        <time>1970-01-01T00:59:36.000Z</time>
      </trkpt>
      <trkpt lat="45.01317" lon="0.70935">
        <ele>156.8</ele>
        <time>1970-01-01T00:59:37.000Z</time>
      </trkpt>
      <trkpt lat="45.01317" lon="0.70936">
        <ele>156.8</ele>
        <time>1970-01-01T00:59:38.000Z</time>
      </trkpt>
      <trkpt lat="45.01318" lon="0.70937">
        <ele>156.8</ele>
        <time>1970-01-01T00:59:39.000Z</time>
      </trkpt>
      <trkpt lat="45.01319" lon="0.70938">
        <ele>156.8</ele>
        <time>1970-01-01T00:59:40.000Z</time>
      </trkpt>
      <trkpt lat="45.0132" lon="0.70939">
        <ele>156.8</ele>
        <time>1970-01-01T00:59:41.000Z</time>
      </trkpt>
      <trkpt lat="45.01321" lon="0.7094">
        <ele>156.8</ele>
        <time>1970-01-01T00:59:42.000Z</time>
      </trkpt>
      <trkpt lat="45.01322" lon="0.70941">
        <ele>156.8</ele>
        <time>1970-01-01T00:59:43.000Z</time>
      </trkpt>
      <trkpt lat="45.01323" lon="0.70942">
        <ele>156.8</ele>
        <time>1970-01-01T00:59:44.000Z</time>
      </trkpt>
      <trkpt lat="45.01324" lon="0.70943">
        <ele>158.8</ele>
        <time>1970-01-01T00:59:45.000Z</time>
      </trkpt>
      <trkpt lat="45.01325" lon="0.70944">
        <ele>158.8</ele>
        <time>1970-01-01T00:59:46.000Z</time>
      </trkpt>
      <trkpt lat="45.01326" lon="0.70944">
        <ele>158.8</ele>
        <time>1970-01-01T00:59:47.000Z</time>
      </trkpt>
      <trkpt lat="45.01327" lon="0.70945">
        <ele>158.8</ele>
        <time>1970-01-01T00:59:48.000Z</time>
      </trkpt>
      <trkpt lat="45.01328" lon="0.70946">
        <ele>158.8</ele>
        <time>1970-01-01T00:59:49.000Z</time>
      </trkpt>
      <trkpt lat="45.01329" lon="0.70947">
        <ele>158.8</ele>
        <time>1970-01-01T00:59:50.000Z</time>
      </trkpt>
      <trkpt lat="45.0133" lon="0.70947">
        <ele>159.9</ele>
        <time>1970-01-01T00:59:51.000Z</time>
      </trkpt>
      <trkpt lat="45.01331" lon="0.70948">
        <ele>159.9</ele>
        <time>1970-01-01T00:59:52.000Z</time>
      </trkpt>
      <trkpt lat="45.01332" lon="0.70948">
        <ele>159.9</ele>
        <time>1970-01-01T00:59:53.000Z</time>
      </trkpt>
      <trkpt lat="45.01333" lon="0.70948">
        <ele>159.9</ele>
        <time>1970-01-01T00:59:54.000Z</time>
      </trkpt>
      <trkpt lat="45.01334" lon="0.70948">
        <ele>159.9</ele>
        <time>1970-01-01T00:59:55.000Z</time>
      </trkpt>
      <trkpt lat="45.01335" lon="0.70949">
        <ele>159.9</ele>
        <time>1970-01-01T00:59:56.000Z</time>
      </trkpt>
      <trkpt lat="45.01337" lon="0.70949">
        <ele>159.9</ele>
        <time>1970-01-01T00:59:57.000Z</time>
      </trkpt>
      <trkpt lat="45.01338" lon="0.7095">
        <ele>159.9</ele>
        <time>1970-01-01T00:59:58.000Z</time>
      </trkpt>
      <trkpt lat="45.01339" lon="0.7095">
        <ele>161.9</ele>
        <time>1970-01-01T00:59:59.000Z</time>
      </trkpt>
      <trkpt lat="45.0134" lon="0.70951">
        <ele>161.9</ele>
        <time>1970-01-01T01:00:00.000Z</time>
      </trkpt>
      <trkpt lat="45.01341" lon="0.70951">
        <ele>162.8</ele>
        <time>1970-01-01T01:00:01.000Z</time>
      </trkpt>
      <trkpt lat="45.01342" lon="0.70951">
        <ele>162.8</ele>
        <time>1970-01-01T01:00:02.000Z</time>
      </trkpt>
      <trkpt lat="45.01344" lon="0.70952">
        <ele>162.8</ele>
        <time>1970-01-01T01:00:03.000Z</time>
      </trkpt>
      <trkpt lat="45.01345" lon="0.70952">
        <ele>162.8</ele>
        <time>1970-01-01T01:00:04.000Z</time>
      </trkpt>
      <trkpt lat="45.01347" lon="0.70952">
        <ele>163.8</ele>
        <time>1970-01-01T01:00:05.000Z</time>
      </trkpt>
      <trkpt lat="45.01348" lon="0.70952">
        <ele>163.8</ele>
        <time>1970-01-01T01:00:06.000Z</time>
      </trkpt>
      <trkpt lat="45.0135" lon="0.70953">
        <ele>164.9</ele>
        <time>1970-01-01T01:00:07.000Z</time>
      </trkpt>
      <trkpt lat="45.01351" lon="0.70953">
        <ele>164.9</ele>
        <time>1970-01-01T01:00:08.000Z</time>
      </trkpt>
      <trkpt lat="45.01352" lon="0.70954">
        <ele>164.9</ele>
        <time>1970-01-01T01:00:09.000Z</time>
      </trkpt>
      <trkpt lat="45.01354" lon="0.70954">
        <ele>164.9</ele>
        <time>1970-01-01T01:00:10.000Z</time>
      </trkpt>
      <trkpt lat="45.01356" lon="0.70955">
        <ele>165.8</ele>
        <time>1970-01-01T01:00:11.000Z</time>
      </trkpt>
      <trkpt lat="45.01357" lon="0.70955">
        <ele>165.8</ele>
        <time>1970-01-01T01:00:12.000Z</time>
      </trkpt>
      <trkpt lat="45.01359" lon="0.70955">
        <ele>165.8</ele>
        <time>1970-01-01T01:00:13.000Z</time>
      </trkpt>
      <trkpt lat="45.0136" lon="0.70956">
        <ele>165.8</ele>
        <time>1970-01-01T01:00:14.000Z</time>
      </trkpt>
      <trkpt lat="45.01361" lon="0.70956">
        <ele>166.9</ele>
        <time>1970-01-01T01:00:15.000Z</time>
      </trkpt>
      <trkpt lat="45.01362" lon="0.70956">
        <ele>166.9</ele>
        <time>1970-01-01T01:00:16.000Z</time>
      </trkpt>
      <trkpt lat="45.01363" lon="0.70957">
        <ele>166.9</ele>
        <time>1970-01-01T01:00:17.000Z</time>
      </trkpt>
      <trkpt lat="45.01364" lon="0.70957">
        <ele>166.9</ele>
        <time>1970-01-01T01:00:18.000Z</time>
      </trkpt>
      <trkpt lat="45.01366" lon="0.70957">
        <ele>166.9</ele>
        <time>1970-01-01T01:00:19.000Z</time>
      </trkpt>
      <trkpt lat="45.01368" lon="0.70958">
        <ele>166.9</ele>
        <time>1970-01-01T01:00:20.000Z</time>
      </trkpt>
      <trkpt lat="45.01369" lon="0.70958">
        <ele>167.8</ele>
        <time>1970-01-01T01:00:21.000Z</time>
      </trkpt>
      <trkpt lat="45.01371" lon="0.70959">
        <ele>167.8</ele>
        <time>1970-01-01T01:00:22.000Z</time>
      </trkpt>
      <trkpt lat="45.01374" lon="0.70959">
        <ele>167.8</ele>
        <time>1970-01-01T01:00:23.000Z</time>
      </trkpt>
      <trkpt lat="45.01377" lon="0.70959">
        <ele>167.8</ele>
        <time>1970-01-01T01:00:24.000Z</time>
      </trkpt>
      <trkpt lat="45.01379" lon="0.7096">
        <ele>167.8</ele>
        <time>1970-01-01T01:00:25.000Z</time>
      </trkpt>
      <trkpt lat="45.01381" lon="0.70961">
        <ele>167.8</ele>
        <time>1970-01-01T01:00:26.000Z</time>
      </trkpt>
      <trkpt lat="45.01384" lon="0.70961">
        <ele>167.8</ele>
        <time>1970-01-01T01:00:27.000Z</time>
      </trkpt>
      <trkpt lat="45.01387" lon="0.7096">
        <ele>167.8</ele>
        <time>1970-01-01T01:00:28.000Z</time>
      </trkpt>
      <trkpt lat="45.01389" lon="0.7096">
        <ele>168.9</ele>
        <time>1970-01-01T01:00:29.000Z</time>
      </trkpt>
      <trkpt lat="45.01391" lon="0.7096">
        <ele>168.9</ele>
        <time>1970-01-01T01:00:30.000Z</time>
      </trkpt>
      <trkpt lat="45.01393" lon="0.70961">
        <ele>168.9</ele>
        <time>1970-01-01T01:00:31.000Z</time>
      </trkpt>
      <trkpt lat="45.01395" lon="0.70961">
        <ele>168.9</ele>
        <time>1970-01-01T01:00:32.000Z</time>
      </trkpt>
      <trkpt lat="45.01396" lon="0.70962">
        <ele>168.9</ele>
        <time>1970-01-01T01:00:33.000Z</time>
      </trkpt>
      <trkpt lat="45.01398" lon="0.70962">
        <ele>168.9</ele>
        <time>1970-01-01T01:00:34.000Z</time>
      </trkpt>
      <trkpt lat="45.014" lon="0.70962">
        <ele>169.8</ele>
        <time>1970-01-01T01:00:35.000Z</time>
      </trkpt>
      <trkpt lat="45.01402" lon="0.70962">
        <ele>169.8</ele>
        <time>1970-01-01T01:00:36.000Z</time>
      </trkpt>
      <trkpt lat="45.01405" lon="0.70962">
        <ele>169.8</ele>
        <time>1970-01-01T01:00:37.000Z</time>
      </trkpt>
      <trkpt lat="45.01407" lon="0.70962">
        <ele>169.8</ele>
        <time>1970-01-01T01:00:38.000Z</time>
      </trkpt>
      <trkpt lat="45.0141" lon="0.70962">
        <ele>169.8</ele>
        <time>1970-01-01T01:00:39.000Z</time>
      </trkpt>
      <trkpt lat="45.01412" lon="0.70961">
        <ele>169.8</ele>
        <time>1970-01-01T01:00:40.000Z</time>
      </trkpt>
      <trkpt lat="45.01415" lon="0.7096">
        <ele>169.8</ele>
        <time>1970-01-01T01:00:41.000Z</time>
      </trkpt>
      <trkpt lat="45.01418" lon="0.7096">
        <ele>169.8</ele>
        <time>1970-01-01T01:00:42.000Z</time>
      </trkpt>
      <trkpt lat="45.01422" lon="0.70959">
        <ele>169.8</ele>
        <time>1970-01-01T01:00:43.000Z</time>
      </trkpt>
      <trkpt lat="45.01426" lon="0.70959">
        <ele>169.8</ele>
        <time>1970-01-01T01:00:44.000Z</time>
      </trkpt>
      <trkpt lat="45.0143" lon="0.70959">
        <ele>168.9</ele>
        <time>1970-01-01T01:00:45.000Z</time>
      </trkpt>
      <trkpt lat="45.01434" lon="0.70958">
        <ele>168.9</ele>
        <time>1970-01-01T01:00:46.000Z</time>
      </trkpt>
      <trkpt lat="45.0144" lon="0.70957">
        <ele>168.9</ele>
        <time>1970-01-01T01:00:47.000Z</time>
      </trkpt>
      <trkpt lat="45.01447" lon="0.70957">
        <ele>168.9</ele>
        <time>1970-01-01T01:00:48.000Z</time>
      </trkpt>
      <trkpt lat="45.01453" lon="0.70956">
        <ele>168.9</ele>
        <time>1970-01-01T01:00:49.000Z</time>
      </trkpt>
      <trkpt lat="45.0146" lon="0.70955">
        <ele>168.9</ele>
        <time>1970-01-01T01:00:50.000Z</time>
      </trkpt>
      <trkpt lat="45.01468" lon="0.70954">
        <ele>168.9</ele>
        <time>1970-01-01T01:00:51.000Z</time>
      </trkpt>
      <trkpt lat="45.01475" lon="0.70954">
        <ele>168.9</ele>
        <time>1970-01-01T01:00:52.000Z</time>
      </trkpt>
      <trkpt lat="45.01483" lon="0.70953">
        <ele>166.9</ele>
        <time>1970-01-01T01:00:53.000Z</time>
      </trkpt>
      <trkpt lat="45.01491" lon="0.70953">
        <ele>166.9</ele>
        <time>1970-01-01T01:00:54.000Z</time>
      </trkpt>
      <trkpt lat="45.01498" lon="0.70953">
        <ele>166.9</ele>
        <time>1970-01-01T01:00:55.000Z</time>
      </trkpt>
      <trkpt lat="45.01506" lon="0.70953">
        <ele>166.9</ele>
        <time>1970-01-01T01:00:56.000Z</time>
      </trkpt>
      <trkpt lat="45.01514" lon="0.70955">
        <ele>165.8</ele>
        <time>1970-01-01T01:00:57.000Z</time>
      </trkpt>
      <trkpt lat="45.01521" lon="0.70956">
        <ele>165.8</ele>
        <time>1970-01-01T01:00:58.000Z</time>
      </trkpt>
      <trkpt lat="45.01529" lon="0.70957">
        <ele>165.8</ele>
        <time>1970-01-01T01:00:59.000Z</time>
      </trkpt>
      <trkpt lat="45.01536" lon="0.70959">
        <ele>165.8</ele>
        <time>1970-01-01T01:01:00.000Z</time>
      </trkpt>
      <trkpt lat="45.01543" lon="0.70961">
        <ele>164.9</ele>
        <time>1970-01-01T01:01:01.000Z</time>
      </trkpt>
      <trkpt lat="45.0155" lon="0.70962">
        <ele>164.9</ele>
        <time>1970-01-01T01:01:02.000Z</time>
      </trkpt>
      <trkpt lat="45.01557" lon="0.70964">
        <ele>164.9</ele>
        <time>1970-01-01T01:01:03.000Z</time>
      </trkpt>
      <trkpt lat="45.01564" lon="0.70966">
        <ele>164.9</ele>
        <time>1970-01-01T01:01:04.000Z</time>
      </trkpt>
      <trkpt lat="45.01572" lon="0.70968">
        <ele>164.9</ele>
        <time>1970-01-01T01:01:05.000Z</time>
      </trkpt>
      <trkpt lat="45.01579" lon="0.7097">
        <ele>164.9</ele>
        <time>1970-01-01T01:01:06.000Z</time>
      </trkpt>
      <trkpt lat="45.01586" lon="0.70972">
        <ele>164.9</ele>
        <time>1970-01-01T01:01:07.000Z</time>
      </trkpt>
      <trkpt lat="45.01594" lon="0.70974">
        <ele>164.9</ele>
        <time>1970-01-01T01:01:08.000Z</time>
      </trkpt>
      <trkpt lat="45.01601" lon="0.70976">
        <ele>164.9</ele>
        <time>1970-01-01T01:01:09.000Z</time>
      </trkpt>
      <trkpt lat="45.01609" lon="0.70978">
        <ele>164.9</ele>
        <time>1970-01-01T01:01:10.000Z</time>
      </trkpt>
      <trkpt lat="45.01616" lon="0.70981">
        <ele>164.9</ele>
        <time>1970-01-01T01:01:11.000Z</time>
      </trkpt>
      <trkpt lat="45.01624" lon="0.70983">
        <ele>164.9</ele>
        <time>1970-01-01T01:01:12.000Z</time>
      </trkpt>
      <trkpt lat="45.01632" lon="0.70985">
        <ele>164.9</ele>
        <time>1970-01-01T01:01:13.000Z</time>
      </trkpt>
      <trkpt lat="45.0164" lon="0.70988">
        <ele>164.9</ele>
        <time>1970-01-01T01:01:14.000Z</time>
      </trkpt>
      <trkpt lat="45.01649" lon="0.7099">
        <ele>164.9</ele>
        <time>1970-01-01T01:01:15.000Z</time>
      </trkpt>
      <trkpt lat="45.01658" lon="0.70993">
        <ele>164.9</ele>
        <time>1970-01-01T01:01:16.000Z</time>
      </trkpt>
      <trkpt lat="45.01667" lon="0.70995">
        <ele>159.9</ele>
        <time>1970-01-01T01:01:17.000Z</time>
      </trkpt>
      <trkpt lat="45.01677" lon="0.70997">
        <ele>159.9</ele>
        <time>1970-01-01T01:01:18.000Z</time>
      </trkpt>
      <trkpt lat="45.01687" lon="0.71">
        <ele>156.8</ele>
        <time>1970-01-01T01:01:19.000Z</time>
      </trkpt>
      <trkpt lat="45.01698" lon="0.71002">
        <ele>156.8</ele>
        <time>1970-01-01T01:01:20.000Z</time>
      </trkpt>
      <trkpt lat="45.0171" lon="0.71005">
        <ele>154.8</ele>
        <time>1970-01-01T01:01:21.000Z</time>
      </trkpt>
      <trkpt lat="45.01722" lon="0.71007">
        <ele>154.8</ele>
        <time>1970-01-01T01:01:22.000Z</time>
      </trkpt>
      <trkpt lat="45.01735" lon="0.7101">
        <ele>151.8</ele>
        <time>1970-01-01T01:01:23.000Z</time>
      </trkpt>
      <trkpt lat="45.01747" lon="0.71012">
        <ele>151.8</ele>
        <time>1970-01-01T01:01:24.000Z</time>
      </trkpt>
      <trkpt lat="45.01761" lon="0.71015">
        <ele>149.8</ele>
        <time>1970-01-01T01:01:25.000Z</time>
      </trkpt>
      <trkpt lat="45.01774" lon="0.71018">
        <ele>149.8</ele>
        <time>1970-01-01T01:01:26.000Z</time>
      </trkpt>
      <trkpt lat="45.01786" lon="0.7102">
        <ele>146.8</ele>
        <time>1970-01-01T01:01:27.000Z</time>
      </trkpt>
      <trkpt lat="45.01796" lon="0.71022">
        <ele>146.8</ele>
        <time>1970-01-01T01:01:28.000Z</time>
      </trkpt>
      <trkpt lat="45.01802" lon="0.71024">
        <ele>144.8</ele>
        <time>1970-01-01T01:01:29.000Z</time>
      </trkpt>
      <trkpt lat="45.01809" lon="0.71026">
        <ele>144.8</ele>
        <time>1970-01-01T01:01:30.000Z</time>
      </trkpt>
      <trkpt lat="45.01813" lon="0.71027">
        <ele>143.9</ele>
        <time>1970-01-01T01:01:31.000Z</time>
      </trkpt>
      <trkpt lat="45.01815" lon="0.71028">
        <ele>143.9</ele>
        <time>1970-01-01T01:01:32.000Z</time>
      </trkpt>
      <trkpt lat="45.01817" lon="0.71028">
        <ele>142.8</ele>
        <time>1970-01-01T01:01:33.000Z</time>
      </trkpt>
      <trkpt lat="45.01819" lon="0.71028">
        <ele>142.8</ele>
        <time>1970-01-01T01:01:34.000Z</time>
      </trkpt>
      <trkpt lat="45.01818" lon="0.71025">
        <ele>142.8</ele>
        <time>1970-01-01T01:01:35.000Z</time>
      </trkpt>
      <trkpt lat="45.01816" lon="0.71024">
        <ele>142.8</ele>
        <time>1970-01-01T01:01:36.000Z</time>
      </trkpt>
      <trkpt lat="45.01813" lon="0.71023">
        <ele>142.8</ele>
        <time>1970-01-01T01:01:37.000Z</time>
      </trkpt>
      <trkpt lat="45.01811" lon="0.71022">
        <ele>142.8</ele>
        <time>1970-01-01T01:01:38.000Z</time>
      </trkpt>
      <trkpt lat="45.01807" lon="0.71022">
        <ele>142.8</ele>
        <time>1970-01-01T01:01:39.000Z</time>
      </trkpt>
      <trkpt lat="45.01804" lon="0.71022">
        <ele>142.8</ele>
        <time>1970-01-01T01:01:40.000Z</time>
      </trkpt>
      <trkpt lat="45.018" lon="0.71022">
        <ele>142.8</ele>
        <time>1970-01-01T01:01:41.000Z</time>
      </trkpt>
      <trkpt lat="45.01797" lon="0.71023">
        <ele>142.8</ele>
        <time>1970-01-01T01:01:42.000Z</time>
      </trkpt>
      <trkpt lat="45.01795" lon="0.71025">
        <ele>142.8</ele>
        <time>1970-01-01T01:01:43.000Z</time>
      </trkpt>
      <trkpt lat="45.01793" lon="0.71028">
        <ele>142.8</ele>
        <time>1970-01-01T01:01:44.000Z</time>
      </trkpt>
      <trkpt lat="45.01792" lon="0.71031">
        <ele>142.8</ele>
        <time>1970-01-01T01:01:45.000Z</time>
      </trkpt>
      <trkpt lat="45.01791" lon="0.71035">
        <ele>142.8</ele>
        <time>1970-01-01T01:01:46.000Z</time>
      </trkpt>
      <trkpt lat="45.0179" lon="0.71038">
        <ele>142.8</ele>
        <time>1970-01-01T01:01:47.000Z</time>
      </trkpt>
      <trkpt lat="45.01789" lon="0.71042">
        <ele>142.8</ele>
        <time>1970-01-01T01:01:48.000Z</time>
      </trkpt>
      <trkpt lat="45.01789" lon="0.71046">
        <ele>143.9</ele>
        <time>1970-01-01T01:01:49.000Z</time>
      </trkpt>
      <trkpt lat="45.01789" lon="0.71049">
        <ele>143.9</ele>
        <time>1970-01-01T01:01:50.000Z</time>
      </trkpt>
      <trkpt lat="45.01789" lon="0.71053">
        <ele>143.9</ele>
        <time>1970-01-01T01:01:51.000Z</time>
      </trkpt>
      <trkpt lat="45.01791" lon="0.71058">
        <ele>143.9</ele>
        <time>1970-01-01T01:01:52.000Z</time>
      </trkpt>
      <trkpt lat="45.01793" lon="0.71066">
        <ele>143.9</ele>
        <time>1970-01-01T01:01:53.000Z</time>
      </trkpt>
      <trkpt lat="45.01796" lon="0.71072">
        <ele>143.9</ele>
        <time>1970-01-01T01:01:54.000Z</time>
      </trkpt>
      <trkpt lat="45.01798" lon="0.71077">
        <ele>142.8</ele>
        <time>1970-01-01T01:01:55.000Z</time>
      </trkpt>
      <trkpt lat="45.018" lon="0.71082">
        <ele>142.8</ele>
        <time>1970-01-01T01:01:56.000Z</time>
      </trkpt>
      <trkpt lat="45.01802" lon="0.71088">
        <ele>142.8</ele>
        <time>1970-01-01T01:01:57.000Z</time>
      </trkpt>
      <trkpt lat="45.01805" lon="0.71093">
        <ele>142.8</ele>
        <time>1970-01-01T01:01:58.000Z</time>
      </trkpt>
      <trkpt lat="45.01806" lon="0.711">
        <ele>141.9</ele>
        <time>1970-01-01T01:01:59.000Z</time>
      </trkpt>
      <trkpt lat="45.01806" lon="0.71105">
        <ele>141.9</ele>
        <time>1970-01-01T01:02:00.000Z</time>
      </trkpt>
      <trkpt lat="45.01805" lon="0.71112">
        <ele>140.8</ele>
        <time>1970-01-01T01:02:01.000Z</time>
      </trkpt>
      <trkpt lat="45.01804" lon="0.71121">
        <ele>140.8</ele>
        <time>1970-01-01T01:02:02.000Z</time>
      </trkpt>
      <trkpt lat="45.01802" lon="0.71127">
        <ele>140.8</ele>
        <time>1970-01-01T01:02:03.000Z</time>
      </trkpt>
      <trkpt lat="45.01799" lon="0.71134">
        <ele>140.8</ele>
        <time>1970-01-01T01:02:04.000Z</time>
      </trkpt>
      <trkpt lat="45.01796" lon="0.7114">
        <ele>140.8</ele>
        <time>1970-01-01T01:02:05.000Z</time>
      </trkpt>
      <trkpt lat="45.01792" lon="0.71144">
        <ele>140.8</ele>
        <time>1970-01-01T01:02:06.000Z</time>
      </trkpt>
      <trkpt lat="45.01786" lon="0.71149">
        <ele>140.8</ele>
        <time>1970-01-01T01:02:07.000Z</time>
      </trkpt>
      <trkpt lat="45.01781" lon="0.71153">
        <ele>140.8</ele>
        <time>1970-01-01T01:02:08.000Z</time>
      </trkpt>
      <trkpt lat="45.01775" lon="0.71158">
        <ele>140.8</ele>
        <time>1970-01-01T01:02:09.000Z</time>
      </trkpt>
      <trkpt lat="45.0177" lon="0.71164">
        <ele>140.8</ele>
        <time>1970-01-01T01:02:10.000Z</time>
      </trkpt>
      <trkpt lat="45.01765" lon="0.7117">
        <ele>135.8</ele>
        <time>1970-01-01T01:02:11.000Z</time>
      </trkpt>
      <trkpt lat="45.01761" lon="0.71176">
        <ele>135.8</ele>
        <time>1970-01-01T01:02:12.000Z</time>
      </trkpt>
      <trkpt lat="45.01757" lon="0.71182">
        <ele>133.8</ele>
        <time>1970-01-01T01:02:13.000Z</time>
      </trkpt>
      <trkpt lat="45.01756" lon="0.71187">
        <ele>133.8</ele>
        <time>1970-01-01T01:02:14.000Z</time>
      </trkpt>
      <trkpt lat="45.01756" lon="0.7119">
        <ele>132.9</ele>
        <time>1970-01-01T01:02:15.000Z</time>
      </trkpt>
      <trkpt lat="45.01757" lon="0.71193">
        <ele>132.9</ele>
        <time>1970-01-01T01:02:16.000Z</time>
      </trkpt>
      <trkpt lat="45.01759" lon="0.71195">
        <ele>131.8</ele>
        <time>1970-01-01T01:02:17.000Z</time>
      </trkpt>
      <trkpt lat="45.01762" lon="0.71196">
        <ele>131.8</ele>
        <time>1970-01-01T01:02:18.000Z</time>
      </trkpt>
      <trkpt lat="45.01765" lon="0.71198">
        <ele>130.8</ele>
        <time>1970-01-01T01:02:19.000Z</time>
      </trkpt>
      <trkpt lat="45.01768" lon="0.71201">
        <ele>130.8</ele>
        <time>1970-01-01T01:02:20.000Z</time>
      </trkpt>
      <trkpt lat="45.01772" lon="0.71203">
        <ele>129.8</ele>
        <time>1970-01-01T01:02:21.000Z</time>
      </trkpt>
      <trkpt lat="45.01777" lon="0.71205">
        <ele>129.8</ele>
        <time>1970-01-01T01:02:22.000Z</time>
      </trkpt>
      <trkpt lat="45.01782" lon="0.71207">
        <ele>129.8</ele>
        <time>1970-01-01T01:02:23.000Z</time>
      </trkpt>
      <trkpt lat="45.01787" lon="0.7121">
        <ele>129.8</ele>
        <time>1970-01-01T01:02:24.000Z</time>
      </trkpt>
      <trkpt lat="45.01792" lon="0.71211">
        <ele>128.8</ele>
        <time>1970-01-01T01:02:25.000Z</time>
      </trkpt>
      <trkpt lat="45.01797" lon="0.71214">
        <ele>128.8</ele>
        <time>1970-01-01T01:02:26.000Z</time>
      </trkpt>
      <trkpt lat="45.01801" lon="0.71216">
        <ele>128.8</ele>
        <time>1970-01-01T01:02:27.000Z</time>
      </trkpt>
      <trkpt lat="45.01803" lon="0.71219">
        <ele>128.8</ele>
        <time>1970-01-01T01:02:28.000Z</time>
      </trkpt>
      <trkpt lat="45.01804" lon="0.71222">
        <ele>128.8</ele>
        <time>1970-01-01T01:02:29.000Z</time>
      </trkpt>
      <trkpt lat="45.01804" lon="0.71225">
        <ele>128.8</ele>
        <time>1970-01-01T01:02:30.000Z</time>
      </trkpt>
      <trkpt lat="45.01804" lon="0.71228">
        <ele>129.8</ele>
        <time>1970-01-01T01:02:31.000Z</time>
      </trkpt>
      <trkpt lat="45.01803" lon="0.7123">
        <ele>129.8</ele>
        <time>1970-01-01T01:02:32.000Z</time>
      </trkpt>
      <trkpt lat="45.01803" lon="0.71232">
        <ele>130.8</ele>
        <time>1970-01-01T01:02:33.000Z</time>
      </trkpt>
      <trkpt lat="45.01803" lon="0.71234">
        <ele>130.8</ele>
        <time>1970-01-01T01:02:34.000Z</time>
      </trkpt>
      <trkpt lat="45.01803" lon="0.71236">
        <ele>131.8</ele>
        <time>1970-01-01T01:02:35.000Z</time>
      </trkpt>
      <trkpt lat="45.01803" lon="0.71238">
        <ele>131.8</ele>
        <time>1970-01-01T01:02:36.000Z</time>
      </trkpt>
      <trkpt lat="45.01803" lon="0.7124">
        <ele>132.9</ele>
        <time>1970-01-01T01:02:37.000Z</time>
      </trkpt>
      <trkpt lat="45.01803" lon="0.71243">
        <ele>132.9</ele>
        <time>1970-01-01T01:02:38.000Z</time>
      </trkpt>
      <trkpt lat="45.01803" lon="0.71245">
        <ele>132.9</ele>
        <time>1970-01-01T01:02:39.000Z</time>
      </trkpt>
      <trkpt lat="45.01802" lon="0.71248">
        <ele>132.9</ele>
        <time>1970-01-01T01:02:40.000Z</time>
      </trkpt>
      <trkpt lat="45.01802" lon="0.71251">
        <ele>132.9</ele>
        <time>1970-01-01T01:02:41.000Z</time>
      </trkpt>
      <trkpt lat="45.01801" lon="0.71254">
        <ele>132.9</ele>
        <time>1970-01-01T01:02:42.000Z</time>
      </trkpt>
      <trkpt lat="45.01801" lon="0.71258">
        <ele>132.9</ele>
        <time>1970-01-01T01:02:43.000Z</time>
      </trkpt>
      <trkpt lat="45.01801" lon="0.71261">
        <ele>132.9</ele>
        <time>1970-01-01T01:02:44.000Z</time>
      </trkpt>
      <trkpt lat="45.018" lon="0.71263">
        <ele>135.8</ele>
        <time>1970-01-01T01:02:45.000Z</time>
      </trkpt>
      <trkpt lat="45.018" lon="0.71265">
        <ele>135.8</ele>
        <time>1970-01-01T01:02:46.000Z</time>
      </trkpt>
      <trkpt lat="45.018" lon="0.71268">
        <ele>137.8</ele>
        <time>1970-01-01T01:02:47.000Z</time>
      </trkpt>
      <trkpt lat="45.01799" lon="0.7127">
        <ele>137.8</ele>
        <time>1970-01-01T01:02:48.000Z</time>
      </trkpt>
      <trkpt lat="45.01799" lon="0.71273">
        <ele>137.8</ele>
        <time>1970-01-01T01:02:49.000Z</time>
      </trkpt>
      <trkpt lat="45.01799" lon="0.71276">
        <ele>137.8</ele>
        <time>1970-01-01T01:02:50.000Z</time>
      </trkpt>
      <trkpt lat="45.01798" lon="0.71278">
        <ele>139.9</ele>
        <time>1970-01-01T01:02:51.000Z</time>
      </trkpt>
      <trkpt lat="45.01799" lon="0.71281">
        <ele>139.9</ele>
        <time>1970-01-01T01:02:52.000Z</time>
      </trkpt>
      <trkpt lat="45.01799" lon="0.71283">
        <ele>139.9</ele>
        <time>1970-01-01T01:02:53.000Z</time>
      </trkpt>
      <trkpt lat="45.01799" lon="0.71286">
        <ele>139.9</ele>
        <time>1970-01-01T01:02:54.000Z</time>
      </trkpt>
      <trkpt lat="45.01799" lon="0.71289">
        <ele>140.8</ele>
        <time>1970-01-01T01:02:55.000Z</time>
      </trkpt>
      <trkpt lat="45.01799" lon="0.71292">
        <ele>140.8</ele>
        <time>1970-01-01T01:02:56.000Z</time>
      </trkpt>
      <trkpt lat="45.018" lon="0.71294">
        <ele>140.8</ele>
        <time>1970-01-01T01:02:57.000Z</time>
      </trkpt>
      <trkpt lat="45.018" lon="0.71297">
        <ele>140.8</ele>
        <time>1970-01-01T01:02:58.000Z</time>
      </trkpt>
      <trkpt lat="45.018" lon="0.713">
        <ele>140.8</ele>
        <time>1970-01-01T01:02:59.000Z</time>
      </trkpt>
      <trkpt lat="45.018" lon="0.71303">
        <ele>140.8</ele>
        <time>1970-01-01T01:03:00.000Z</time>
      </trkpt>
      <trkpt lat="45.018" lon="0.71306">
        <ele>140.8</ele>
        <time>1970-01-01T01:03:01.000Z</time>
      </trkpt>
      <trkpt lat="45.018" lon="0.71309">
        <ele>140.8</ele>
        <time>1970-01-01T01:03:02.000Z</time>
      </trkpt>
      <trkpt lat="45.018" lon="0.71311">
        <ele>140.8</ele>
        <time>1970-01-01T01:03:03.000Z</time>
      </trkpt>
      <trkpt lat="45.018" lon="0.71314">
        <ele>140.8</ele>
        <time>1970-01-01T01:03:04.000Z</time>
      </trkpt>
      <trkpt lat="45.01799" lon="0.71317">
        <ele>141.9</ele>
        <time>1970-01-01T01:03:05.000Z</time>
      </trkpt>
      <trkpt lat="45.01799" lon="0.7132">
        <ele>141.9</ele>
        <time>1970-01-01T01:03:06.000Z</time>
      </trkpt>
      <trkpt lat="45.01798" lon="0.71323">
        <ele>141.9</ele>
        <time>1970-01-01T01:03:07.000Z</time>
      </trkpt>
      <trkpt lat="45.01798" lon="0.71326">
        <ele>141.9</ele>
        <time>1970-01-01T01:03:08.000Z</time>
      </trkpt>
      <trkpt lat="45.01797" lon="0.71329">
        <ele>141.9</ele>
        <time>1970-01-01T01:03:09.000Z</time>
      </trkpt>
      <trkpt lat="45.01796" lon="0.71332">
        <ele>141.9</ele>
        <time>1970-01-01T01:03:10.000Z</time>
      </trkpt>
      <trkpt lat="45.01796" lon="0.71335">
        <ele>141.9</ele>
        <time>1970-01-01T01:03:11.000Z</time>
      </trkpt>
      <trkpt lat="45.01795" lon="0.71338">
        <ele>141.9</ele>
        <time>1970-01-01T01:03:12.000Z</time>
      </trkpt>
      <trkpt lat="45.01793" lon="0.71341">
        <ele>141.9</ele>
        <time>1970-01-01T01:03:13.000Z</time>
      </trkpt>
      <trkpt lat="45.01792" lon="0.71345">
        <ele>141.9</ele>
        <time>1970-01-01T01:03:14.000Z</time>
      </trkpt>
      <trkpt lat="45.01791" lon="0.71348">
        <ele>141.9</ele>
        <time>1970-01-01T01:03:15.000Z</time>
      </trkpt>
      <trkpt lat="45.01789" lon="0.71351">
        <ele>141.9</ele>
        <time>1970-01-01T01:03:16.000Z</time>
      </trkpt>
      <trkpt lat="45.01787" lon="0.71355">
        <ele>141.9</ele>
        <time>1970-01-01T01:03:17.000Z</time>
      </trkpt>
      <trkpt lat="45.01785" lon="0.71358">
        <ele>141.9</ele>
        <time>1970-01-01T01:03:18.000Z</time>
      </trkpt>
      <trkpt lat="45.01783" lon="0.7136">
        <ele>141.9</ele>
        <time>1970-01-01T01:03:19.000Z</time>
      </trkpt>
      <trkpt lat="45.0178" lon="0.71362">
        <ele>141.9</ele>
        <time>1970-01-01T01:03:20.000Z</time>
      </trkpt>
      <trkpt lat="45.01777" lon="0.71364">
        <ele>141.9</ele>
        <time>1970-01-01T01:03:21.000Z</time>
      </trkpt>
      <trkpt lat="45.01775" lon="0.71365">
        <ele>141.9</ele>
        <time>1970-01-01T01:03:22.000Z</time>
      </trkpt>
      <trkpt lat="45.01772" lon="0.71366">
        <ele>141.9</ele>
        <time>1970-01-01T01:03:23.000Z</time>
      </trkpt>
      <trkpt lat="45.01769" lon="0.71367">
        <ele>143.9</ele>
        <time>1970-01-01T01:03:24.000Z</time>
      </trkpt>
      <trkpt lat="45.01767" lon="0.71368">
        <ele>143.9</ele>
        <time>1970-01-01T01:03:25.000Z</time>
      </trkpt>
      <trkpt lat="45.01764" lon="0.71369">
        <ele>143.9</ele>
        <time>1970-01-01T01:03:26.000Z</time>
      </trkpt>
      <trkpt lat="45.01761" lon="0.7137">
        <ele>143.9</ele>
        <time>1970-01-01T01:03:27.000Z</time>
      </trkpt>
      <trkpt lat="45.01759" lon="0.71372">
        <ele>143.9</ele>
        <time>1970-01-01T01:03:28.000Z</time>
      </trkpt>
      <trkpt lat="45.01756" lon="0.71374">
        <ele>143.9</ele>
        <time>1970-01-01T01:03:29.000Z</time>
      </trkpt>
      <trkpt lat="45.01753" lon="0.71376">
        <ele>143.9</ele>
        <time>1970-01-01T01:03:30.000Z</time>
      </trkpt>
      <trkpt lat="45.01751" lon="0.71378">
        <ele>143.9</ele>
        <time>1970-01-01T01:03:31.000Z</time>
      </trkpt>
      <trkpt lat="45.0175" lon="0.71381">
        <ele>144.8</ele>
        <time>1970-01-01T01:03:32.000Z</time>
      </trkpt>
      <trkpt lat="45.01748" lon="0.71384">
        <ele>144.8</ele>
        <time>1970-01-01T01:03:33.000Z</time>
      </trkpt>
      <trkpt lat="45.01748" lon="0.71387">
        <ele>144.8</ele>
        <time>1970-01-01T01:03:34.000Z</time>
      </trkpt>
      <trkpt lat="45.01747" lon="0.7139">
        <ele>144.8</ele>
        <time>1970-01-01T01:03:35.000Z</time>
      </trkpt>
      <trkpt lat="45.01747" lon="0.71392">
        <ele>145.8</ele>
        <time>1970-01-01T01:03:36.000Z</time>
      </trkpt>
      <trkpt lat="45.01747" lon="0.71395">
        <ele>145.8</ele>
        <time>1970-01-01T01:03:37.000Z</time>
      </trkpt>
      <trkpt lat="45.01747" lon="0.71398">
        <ele>145.8</ele>
        <time>1970-01-01T01:03:38.000Z</time>
      </trkpt>
      <trkpt lat="45.01747" lon="0.714">
        <ele>145.8</ele>
        <time>1970-01-01T01:03:39.000Z</time>
      </trkpt>
      <trkpt lat="45.01746" lon="0.71403">
        <ele>145.8</ele>
        <time>1970-01-01T01:03:40.000Z</time>
      </trkpt>
      <trkpt lat="45.01746" lon="0.71406">
        <ele>145.8</ele>
        <time>1970-01-01T01:03:41.000Z</time>
      </trkpt>
      <trkpt lat="45.01746" lon="0.71409">
        <ele>147.8</ele>
        <time>1970-01-01T01:03:42.000Z</time>
      </trkpt>
      <trkpt lat="45.01747" lon="0.71411">
        <ele>147.8</ele>
        <time>1970-01-01T01:03:43.000Z</time>
      </trkpt>
      <trkpt lat="45.01747" lon="0.71414">
        <ele>147.8</ele>
        <time>1970-01-01T01:03:44.000Z</time>
      </trkpt>
      <trkpt lat="45.01748" lon="0.71417">
        <ele>147.8</ele>
        <time>1970-01-01T01:03:45.000Z</time>
      </trkpt>
      <trkpt lat="45.01748" lon="0.7142">
        <ele>148.9</ele>
        <time>1970-01-01T01:03:46.000Z</time>
      </trkpt>
      <trkpt lat="45.01748" lon="0.71423">
        <ele>148.9</ele>
        <time>1970-01-01T01:03:47.000Z</time>
      </trkpt>
      <trkpt lat="45.01748" lon="0.71426">
        <ele>148.9</ele>
        <time>1970-01-01T01:03:48.000Z</time>
      </trkpt>
      <trkpt lat="45.01748" lon="0.7143">
        <ele>148.9</ele>
        <time>1970-01-01T01:03:49.000Z</time>
      </trkpt>
      <trkpt lat="45.01748" lon="0.71432">
        <ele>149.8</ele>
        <time>1970-01-01T01:03:50.000Z</time>
      </trkpt>
      <trkpt lat="45.01748" lon="0.71435">
        <ele>149.8</ele>
        <time>1970-01-01T01:03:51.000Z</time>
      </trkpt>
      <trkpt lat="45.01747" lon="0.71438">
        <ele>149.8</ele>
        <time>1970-01-01T01:03:52.000Z</time>
      </trkpt>
      <trkpt lat="45.01747" lon="0.7144">
        <ele>149.8</ele>
        <time>1970-01-01T01:03:53.000Z</time>
      </trkpt>
      <trkpt lat="45.01746" lon="0.71442">
        <ele>150.9</ele>
        <time>1970-01-01T01:03:54.000Z</time>
      </trkpt>
      <trkpt lat="45.01745" lon="0.71445">
        <ele>150.9</ele>
        <time>1970-01-01T01:03:55.000Z</time>
      </trkpt>
      <trkpt lat="45.01744" lon="0.71448">
        <ele>150.9</ele>
        <time>1970-01-01T01:03:56.000Z</time>
      </trkpt>
      <trkpt lat="45.01743" lon="0.7145">
        <ele>150.9</ele>
        <time>1970-01-01T01:03:57.000Z</time>
      </trkpt>
      <trkpt lat="45.01741" lon="0.71453">
        <ele>151.8</ele>
        <time>1970-01-01T01:03:58.000Z</time>
      </trkpt>
      <trkpt lat="45.0174" lon="0.71456">
        <ele>151.8</ele>
        <time>1970-01-01T01:03:59.000Z</time>
      </trkpt>
      <trkpt lat="45.01739" lon="0.71459">
        <ele>151.8</ele>
        <time>1970-01-01T01:04:00.000Z</time>
      </trkpt>
      <trkpt lat="45.01737" lon="0.71462">
        <ele>151.8</ele>
        <time>1970-01-01T01:04:01.000Z</time>
      </trkpt>
      <trkpt lat="45.01736" lon="0.71464">
        <ele>152.9</ele>
        <time>1970-01-01T01:04:02.000Z</time>
      </trkpt>
      <trkpt lat="45.01735" lon="0.71467">
        <ele>152.9</ele>
        <time>1970-01-01T01:04:03.000Z</time>
      </trkpt>
      <trkpt lat="45.01733" lon="0.7147">
        <ele>152.9</ele>
        <time>1970-01-01T01:04:04.000Z</time>
      </trkpt>
      <trkpt lat="45.01733" lon="0.71472">
        <ele>152.9</ele>
        <time>1970-01-01T01:04:05.000Z</time>
      </trkpt>
      <trkpt lat="45.01732" lon="0.71475">
        <ele>152.9</ele>
        <time>1970-01-01T01:04:06.000Z</time>
      </trkpt>
      <trkpt lat="45.01731" lon="0.71477">
        <ele>152.9</ele>
        <time>1970-01-01T01:04:07.000Z</time>
      </trkpt>
      <trkpt lat="45.0173" lon="0.71479">
        <ele>152.9</ele>
        <time>1970-01-01T01:04:08.000Z</time>
      </trkpt>
      <trkpt lat="45.01729" lon="0.71482">
        <ele>152.9</ele>
        <time>1970-01-01T01:04:09.000Z</time>
      </trkpt>
      <trkpt lat="45.01727" lon="0.71484">
        <ele>153.8</ele>
        <time>1970-01-01T01:04:10.000Z</time>
      </trkpt>
      <trkpt lat="45.01726" lon="0.71487">
        <ele>153.8</ele>
        <time>1970-01-01T01:04:11.000Z</time>
      </trkpt>
      <trkpt lat="45.01725" lon="0.7149">
        <ele>153.8</ele>
        <time>1970-01-01T01:04:12.000Z</time>
      </trkpt>
      <trkpt lat="45.01723" lon="0.71492">
        <ele>153.8</ele>
        <time>1970-01-01T01:04:13.000Z</time>
      </trkpt>
      <trkpt lat="45.01722" lon="0.71494">
        <ele>153.8</ele>
        <time>1970-01-01T01:04:14.000Z</time>
      </trkpt>
      <trkpt lat="45.01721" lon="0.71497">
        <ele>153.8</ele>
        <time>1970-01-01T01:04:15.000Z</time>
      </trkpt>
      <trkpt lat="45.0172" lon="0.71499">
        <ele>155.9</ele>
        <time>1970-01-01T01:04:16.000Z</time>
      </trkpt>
      <trkpt lat="45.01719" lon="0.71501">
        <ele>155.9</ele>
        <time>1970-01-01T01:04:17.000Z</time>
      </trkpt>
      <trkpt lat="45.01718" lon="0.71504">
        <ele>155.9</ele>
        <time>1970-01-01T01:04:18.000Z</time>
      </trkpt>
      <trkpt lat="45.01717" lon="0.71506">
        <ele>155.9</ele>
        <time>1970-01-01T01:04:19.000Z</time>
      </trkpt>
      <trkpt lat="45.01715" lon="0.71509">
        <ele>156.8</ele>
        <time>1970-01-01T01:04:20.000Z</time>
      </trkpt>
      <trkpt lat="45.01714" lon="0.71511">
        <ele>156.8</ele>
        <time>1970-01-01T01:04:21.000Z</time>
      </trkpt>
      <trkpt lat="45.01712" lon="0.71514">
        <ele>156.8</ele>
        <time>1970-01-01T01:04:22.000Z</time>
      </trkpt>
      <trkpt lat="45.01711" lon="0.71515">
        <ele>156.8</ele>
        <time>1970-01-01T01:04:23.000Z</time>
      </trkpt>
      <trkpt lat="45.01709" lon="0.71517">
        <ele>156.8</ele>
        <time>1970-01-01T01:04:24.000Z</time>
      </trkpt>
      <trkpt lat="45.01707" lon="0.71519">
        <ele>156.8</ele>
        <time>1970-01-01T01:04:25.000Z</time>
      </trkpt>
      <trkpt lat="45.01704" lon="0.7152">
        <ele>156.8</ele>
        <time>1970-01-01T01:04:26.000Z</time>
      </trkpt>
      <trkpt lat="45.01702" lon="0.71521">
        <ele>156.8</ele>
        <time>1970-01-01T01:04:27.000Z</time>
      </trkpt>
      <trkpt lat="45.01699" lon="0.71522">
        <ele>156.8</ele>
        <time>1970-01-01T01:04:28.000Z</time>
      </trkpt>
      <trkpt lat="45.01697" lon="0.71523">
        <ele>156.8</ele>
        <time>1970-01-01T01:04:29.000Z</time>
      </trkpt>
      <trkpt lat="45.01694" lon="0.71524">
        <ele>156.8</ele>
        <time>1970-01-01T01:04:30.000Z</time>
      </trkpt>
      <trkpt lat="45.01691" lon="0.71525">
        <ele>156.8</ele>
        <time>1970-01-01T01:04:31.000Z</time>
      </trkpt>
      <trkpt lat="45.01688" lon="0.71526">
        <ele>156.8</ele>
        <time>1970-01-01T01:04:32.000Z</time>
      </trkpt>
      <trkpt lat="45.01686" lon="0.71527">
        <ele>156.8</ele>
        <time>1970-01-01T01:04:33.000Z</time>
      </trkpt>
      <trkpt lat="45.01683" lon="0.71528">
        <ele>157.9</ele>
        <time>1970-01-01T01:04:34.000Z</time>
      </trkpt>
      <trkpt lat="45.0168" lon="0.71529">
        <ele>157.9</ele>
        <time>1970-01-01T01:04:35.000Z</time>
      </trkpt>
      <trkpt lat="45.01677" lon="0.7153">
        <ele>157.9</ele>
        <time>1970-01-01T01:04:36.000Z</time>
      </trkpt>
      <trkpt lat="45.01674" lon="0.71532">
        <ele>157.9</ele>
        <time>1970-01-01T01:04:37.000Z</time>
      </trkpt>
      <trkpt lat="45.01671" lon="0.71533">
        <ele>157.9</ele>
        <time>1970-01-01T01:04:38.000Z</time>
      </trkpt>
      <trkpt lat="45.01668" lon="0.71534">
        <ele>157.9</ele>
        <time>1970-01-01T01:04:39.000Z</time>
      </trkpt>
      <trkpt lat="45.01665" lon="0.71536">
        <ele>158.8</ele>
        <time>1970-01-01T01:04:40.000Z</time>
      </trkpt>
      <trkpt lat="45.01662" lon="0.71538">
        <ele>158.8</ele>
        <time>1970-01-01T01:04:41.000Z</time>
      </trkpt>
      <trkpt lat="45.01659" lon="0.7154">
        <ele>158.8</ele>
        <time>1970-01-01T01:04:42.000Z</time>
      </trkpt>
      <trkpt lat="45.01656" lon="0.71542">
        <ele>158.8</ele>
        <time>1970-01-01T01:04:43.000Z</time>
      </trkpt>
      <trkpt lat="45.01653" lon="0.71544">
        <ele>158.8</ele>
        <time>1970-01-01T01:04:44.000Z</time>
      </trkpt>
      <trkpt lat="45.0165" lon="0.71546">
        <ele>158.8</ele>
        <time>1970-01-01T01:04:45.000Z</time>
      </trkpt>
      <trkpt lat="45.01647" lon="0.71548">
        <ele>158.8</ele>
        <time>1970-01-01T01:04:46.000Z</time>
      </trkpt>
      <trkpt lat="45.01644" lon="0.7155">
        <ele>158.8</ele>
        <time>1970-01-01T01:04:47.000Z</time>
      </trkpt>
      <trkpt lat="45.01641" lon="0.71552">
        <ele>158.8</ele>
        <time>1970-01-01T01:04:48.000Z</time>
      </trkpt>
      <trkpt lat="45.01638" lon="0.71554">
        <ele>158.8</ele>
        <time>1970-01-01T01:04:49.000Z</time>
      </trkpt>
      <trkpt lat="45.01635" lon="0.71556">
        <ele>158.8</ele>
        <time>1970-01-01T01:04:50.000Z</time>
      </trkpt>
      <trkpt lat="45.01632" lon="0.71558">
        <ele>158.8</ele>
        <time>1970-01-01T01:04:51.000Z</time>
      </trkpt>
      <trkpt lat="45.01629" lon="0.7156">
        <ele>158.8</ele>
        <time>1970-01-01T01:04:52.000Z</time>
      </trkpt>
      <trkpt lat="45.01626" lon="0.71563">
        <ele>158.8</ele>
        <time>1970-01-01T01:04:53.000Z</time>
      </trkpt>
      <trkpt lat="45.01625" lon="0.71566">
        <ele>158.8</ele>
        <time>1970-01-01T01:04:54.000Z</time>
      </trkpt>
      <trkpt lat="45.01624" lon="0.71569">
        <ele>158.8</ele>
        <time>1970-01-01T01:04:55.000Z</time>
      </trkpt>
      <trkpt lat="45.01624" lon="0.71573">
        <ele>159.9</ele>
        <time>1970-01-01T01:04:56.000Z</time>
      </trkpt>
      <trkpt lat="45.01624" lon="0.71577">
        <ele>159.9</ele>
        <time>1970-01-01T01:04:57.000Z</time>
      </trkpt>
      <trkpt lat="45.01624" lon="0.71581">
        <ele>159.9</ele>
        <time>1970-01-01T01:04:58.000Z</time>
      </trkpt>
      <trkpt lat="45.01625" lon="0.71584">
        <ele>159.9</ele>
        <time>1970-01-01T01:04:59.000Z</time>
      </trkpt>
      <trkpt lat="45.01625" lon="0.71588">
        <ele>159.9</ele>
        <time>1970-01-01T01:05:00.000Z</time>
      </trkpt>
      <trkpt lat="45.01625" lon="0.71592">
        <ele>159.9</ele>
        <time>1970-01-01T01:05:01.000Z</time>
      </trkpt>
      <trkpt lat="45.01624" lon="0.71595">
        <ele>159.9</ele>
        <time>1970-01-01T01:05:02.000Z</time>
      </trkpt>
      <trkpt lat="45.01624" lon="0.71599">
        <ele>159.9</ele>
        <time>1970-01-01T01:05:03.000Z</time>
      </trkpt>
      <trkpt lat="45.01625" lon="0.71603">
        <ele>160.8</ele>
        <time>1970-01-01T01:05:04.000Z</time>
      </trkpt>
      <trkpt lat="45.01625" lon="0.71606">
        <ele>160.8</ele>
        <time>1970-01-01T01:05:05.000Z</time>
      </trkpt>
      <trkpt lat="45.01625" lon="0.71609">
        <ele>160.8</ele>
        <time>1970-01-01T01:05:06.000Z</time>
      </trkpt>
      <trkpt lat="45.01625" lon="0.71613">
        <ele>160.8</ele>
        <time>1970-01-01T01:05:07.000Z</time>
      </trkpt>
      <trkpt lat="45.01625" lon="0.71616">
        <ele>160.8</ele>
        <time>1970-01-01T01:05:08.000Z</time>
      </trkpt>
      <trkpt lat="45.01624" lon="0.71619">
        <ele>160.8</ele>
        <time>1970-01-01T01:05:09.000Z</time>
      </trkpt>
      <trkpt lat="45.01624" lon="0.71623">
        <ele>160.8</ele>
        <time>1970-01-01T01:05:10.000Z</time>
      </trkpt>
      <trkpt lat="45.01625" lon="0.71626">
        <ele>160.8</ele>
        <time>1970-01-01T01:05:11.000Z</time>
      </trkpt>
      <trkpt lat="45.01625" lon="0.71628">
        <ele>161.9</ele>
        <time>1970-01-01T01:05:12.000Z</time>
      </trkpt>
      <trkpt lat="45.01627" lon="0.7163">
        <ele>161.9</ele>
        <time>1970-01-01T01:05:13.000Z</time>
      </trkpt>
      <trkpt lat="45.01629" lon="0.71631">
        <ele>161.9</ele>
        <time>1970-01-01T01:05:14.000Z</time>
      </trkpt>
      <trkpt lat="45.01631" lon="0.71631">
        <ele>161.9</ele>
        <time>1970-01-01T01:05:15.000Z</time>
      </trkpt>
      <trkpt lat="45.01634" lon="0.71631">
        <ele>162.8</ele>
        <time>1970-01-01T01:05:16.000Z</time>
      </trkpt>
      <trkpt lat="45.01637" lon="0.7163">
        <ele>162.8</ele>
        <time>1970-01-01T01:05:17.000Z</time>
      </trkpt>
      <trkpt lat="45.01641" lon="0.71629">
        <ele>162.8</ele>
        <time>1970-01-01T01:05:18.000Z</time>
      </trkpt>
      <trkpt lat="45.01644" lon="0.71628">
        <ele>162.8</ele>
        <time>1970-01-01T01:05:19.000Z</time>
      </trkpt>
      <trkpt lat="45.01647" lon="0.71626">
        <ele>162.8</ele>
        <time>1970-01-01T01:05:20.000Z</time>
      </trkpt>
      <trkpt lat="45.01651" lon="0.71625">
        <ele>162.8</ele>
        <time>1970-01-01T01:05:21.000Z</time>
      </trkpt>
      <trkpt lat="45.01655" lon="0.71623">
        <ele>162.8</ele>
        <time>1970-01-01T01:05:22.000Z</time>
      </trkpt>
      <trkpt lat="45.0166" lon="0.71621">
        <ele>162.8</ele>
        <time>1970-01-01T01:05:23.000Z</time>
      </trkpt>
      <trkpt lat="45.01664" lon="0.7162">
        <ele>162.8</ele>
        <time>1970-01-01T01:05:24.000Z</time>
      </trkpt>
      <trkpt lat="45.01668" lon="0.71619">
        <ele>162.8</ele>
        <time>1970-01-01T01:05:25.000Z</time>
      </trkpt>
      <trkpt lat="45.01673" lon="0.71617">
        <ele>160.8</ele>
        <time>1970-01-01T01:05:26.000Z</time>
      </trkpt>
      <trkpt lat="45.01677" lon="0.71616">
        <ele>160.8</ele>
        <time>1970-01-01T01:05:27.000Z</time>
      </trkpt>
      <trkpt lat="45.01682" lon="0.71614">
        <ele>160.8</ele>
        <time>1970-01-01T01:05:28.000Z</time>
      </trkpt>
      <trkpt lat="45.01686" lon="0.71613">
        <ele>160.8</ele>
        <time>1970-01-01T01:05:29.000Z</time>
      </trkpt>
      <trkpt lat="45.01691" lon="0.71612">
        <ele>160.8</ele>
        <time>1970-01-01T01:05:30.000Z</time>
      </trkpt>
      <trkpt lat="45.01695" lon="0.71611">
        <ele>160.8</ele>
        <time>1970-01-01T01:05:31.000Z</time>
      </trkpt>
      <trkpt lat="45.017" lon="0.7161">
        <ele>160.8</ele>
        <time>1970-01-01T01:05:32.000Z</time>
      </trkpt>
      <trkpt lat="45.01704" lon="0.71609">
        <ele>160.8</ele>
        <time>1970-01-01T01:05:33.000Z</time>
      </trkpt>
      <trkpt lat="45.01709" lon="0.71609">
        <ele>159.9</ele>
        <time>1970-01-01T01:05:34.000Z</time>
      </trkpt>
      <trkpt lat="45.01714" lon="0.71608">
        <ele>159.9</ele>
        <time>1970-01-01T01:05:35.000Z</time>
      </trkpt>
      <trkpt lat="45.0172" lon="0.71608">
        <ele>159.9</ele>
        <time>1970-01-01T01:05:36.000Z</time>
      </trkpt>
      <trkpt lat="45.01726" lon="0.71607">
        <ele>159.9</ele>
        <time>1970-01-01T01:05:37.000Z</time>
      </trkpt>
      <trkpt lat="45.01732" lon="0.71608">
        <ele>159.9</ele>
        <time>1970-01-01T01:05:38.000Z</time>
      </trkpt>
      <trkpt lat="45.01739" lon="0.71608">
        <ele>159.9</ele>
        <time>1970-01-01T01:05:39.000Z</time>
      </trkpt>
      <trkpt lat="45.01746" lon="0.71608">
        <ele>158.8</ele>
        <time>1970-01-01T01:05:40.000Z</time>
      </trkpt>
      <trkpt lat="45.01753" lon="0.71609">
        <ele>158.8</ele>
        <time>1970-01-01T01:05:41.000Z</time>
      </trkpt>
      <trkpt lat="45.0176" lon="0.71609">
        <ele>158.8</ele>
        <time>1970-01-01T01:05:42.000Z</time>
      </trkpt>
      <trkpt lat="45.01768" lon="0.7161">
        <ele>158.8</ele>
        <time>1970-01-01T01:05:43.000Z</time>
      </trkpt>
      <trkpt lat="45.01776" lon="0.7161">
        <ele>158.8</ele>
        <time>1970-01-01T01:05:44.000Z</time>
      </trkpt>
      <trkpt lat="45.01784" lon="0.7161">
        <ele>158.8</ele>
        <time>1970-01-01T01:05:45.000Z</time>
      </trkpt>
      <trkpt lat="45.01793" lon="0.71609">
        <ele>158.8</ele>
        <time>1970-01-01T01:05:46.000Z</time>
      </trkpt>
      <trkpt lat="45.01802" lon="0.71608">
        <ele>158.8</ele>
        <time>1970-01-01T01:05:47.000Z</time>
      </trkpt>
      <trkpt lat="45.01811" lon="0.71607">
        <ele>151.8</ele>
        <time>1970-01-01T01:05:48.000Z</time>
      </trkpt>
      <trkpt lat="45.0182" lon="0.71605">
        <ele>151.8</ele>
        <time>1970-01-01T01:05:49.000Z</time>
      </trkpt>
      <trkpt lat="45.01829" lon="0.71603">
        <ele>150.9</ele>
        <time>1970-01-01T01:05:50.000Z</time>
      </trkpt>
      <trkpt lat="45.01839" lon="0.71601">
        <ele>150.9</ele>
        <time>1970-01-01T01:05:51.000Z</time>
      </trkpt>
      <trkpt lat="45.01849" lon="0.71599">
        <ele>148.9</ele>
        <time>1970-01-01T01:05:52.000Z</time>
      </trkpt>
      <trkpt lat="45.01859" lon="0.71596">
        <ele>148.9</ele>
        <time>1970-01-01T01:05:53.000Z</time>
      </trkpt>
      <trkpt lat="45.0187" lon="0.71594">
        <ele>147.8</ele>
        <time>1970-01-01T01:05:54.000Z</time>
      </trkpt>
      <trkpt lat="45.01881" lon="0.71592">
        <ele>147.8</ele>
        <time>1970-01-01T01:05:55.000Z</time>
      </trkpt>
      <trkpt lat="45.01891" lon="0.7159">
        <ele>145.8</ele>
        <time>1970-01-01T01:05:56.000Z</time>
      </trkpt>
      <trkpt lat="45.019" lon="0.71588">
        <ele>145.8</ele>
        <time>1970-01-01T01:05:57.000Z</time>
      </trkpt>
      <trkpt lat="45.01909" lon="0.71586">
        <ele>143.9</ele>
        <time>1970-01-01T01:05:58.000Z</time>
      </trkpt>
      <trkpt lat="45.01917" lon="0.71584">
        <ele>143.9</ele>
        <time>1970-01-01T01:05:59.000Z</time>
      </trkpt>
      <trkpt lat="45.01923" lon="0.71583">
        <ele>141.9</ele>
        <time>1970-01-01T01:06:00.000Z</time>
      </trkpt>
      <trkpt lat="45.01928" lon="0.71584">
        <ele>141.9</ele>
        <time>1970-01-01T01:06:01.000Z</time>
      </trkpt>
      <trkpt lat="45.01929" lon="0.71586">
        <ele>140.8</ele>
        <time>1970-01-01T01:06:02.000Z</time>
      </trkpt>
      <trkpt lat="45.01929" lon="0.71589">
        <ele>140.8</ele>
        <time>1970-01-01T01:06:03.000Z</time>
      </trkpt>
      <trkpt lat="45.01928" lon="0.71592">
        <ele>138.8</ele>
        <time>1970-01-01T01:06:04.000Z</time>
      </trkpt>
      <trkpt lat="45.01926" lon="0.71596">
        <ele>138.8</ele>
        <time>1970-01-01T01:06:05.000Z</time>
      </trkpt>
      <trkpt lat="45.01923" lon="0.71602">
        <ele>138.8</ele>
        <time>1970-01-01T01:06:06.000Z</time>
      </trkpt>
      <trkpt lat="45.01919" lon="0.71607">
        <ele>138.8</ele>
        <time>1970-01-01T01:06:07.000Z</time>
      </trkpt>
      <trkpt lat="45.01915" lon="0.71613">
        <ele>137.8</ele>
        <time>1970-01-01T01:06:08.000Z</time>
      </trkpt>
      <trkpt lat="45.01911" lon="0.71618">
        <ele>137.8</ele>
        <time>1970-01-01T01:06:09.000Z</time>
      </trkpt>
      <trkpt lat="45.01907" lon="0.71624">
        <ele>137.8</ele>
        <time>1970-01-01T01:06:10.000Z</time>
      </trkpt>
      <trkpt lat="45.01903" lon="0.7163">
        <ele>137.8</ele>
        <time>1970-01-01T01:06:11.000Z</time>
      </trkpt>
      <trkpt lat="45.01899" lon="0.71636">
        <ele>135.8</ele>
        <time>1970-01-01T01:06:12.000Z</time>
      </trkpt>
      <trkpt lat="45.01895" lon="0.71643">
        <ele>135.8</ele>
        <time>1970-01-01T01:06:13.000Z</time>
      </trkpt>
      <trkpt lat="45.01892" lon="0.71652">
        <ele>135.8</ele>
        <time>1970-01-01T01:06:14.000Z</time>
      </trkpt>
      <trkpt lat="45.01889" lon="0.7166">
        <ele>135.8</ele>
        <time>1970-01-01T01:06:15.000Z</time>
      </trkpt>
      <trkpt lat="45.01887" lon="0.7167">
        <ele>133.8</ele>
        <time>1970-01-01T01:06:16.000Z</time>
      </trkpt>
      <trkpt lat="45.01884" lon="0.7168">
        <ele>133.8</ele>
        <time>1970-01-01T01:06:17.000Z</time>
      </trkpt>
      <trkpt lat="45.01881" lon="0.71691">
        <ele>132.9</ele>
        <time>1970-01-01T01:06:18.000Z</time>
      </trkpt>
      <trkpt lat="45.01878" lon="0.717">
        <ele>132.9</ele>
        <time>1970-01-01T01:06:19.000Z</time>
      </trkpt>
      <trkpt lat="45.01877" lon="0.71708">
        <ele>132.9</ele>
        <time>1970-01-01T01:06:20.000Z</time>
      </trkpt>
      <trkpt lat="45.01875" lon="0.71716">
        <ele>132.9</ele>
        <time>1970-01-01T01:06:21.000Z</time>
      </trkpt>
      <trkpt lat="45.01873" lon="0.71724">
        <ele>131.8</ele>
        <time>1970-01-01T01:06:22.000Z</time>
      </trkpt>
      <trkpt lat="45.01872" lon="0.71732">
        <ele>131.8</ele>
        <time>1970-01-01T01:06:23.000Z</time>
      </trkpt>
      <trkpt lat="45.01871" lon="0.7174">
        <ele>131.8</ele>
        <time>1970-01-01T01:06:24.000Z</time>
      </trkpt>
      <trkpt lat="45.01869" lon="0.71749">
        <ele>131.8</ele>
        <time>1970-01-01T01:06:25.000Z</time>
      </trkpt>
      <trkpt lat="45.01867" lon="0.71757">
        <ele>131.8</ele>
        <time>1970-01-01T01:06:26.000Z</time>
      </trkpt>
      <trkpt lat="45.01865" lon="0.71766">
        <ele>131.8</ele>
        <time>1970-01-01T01:06:27.000Z</time>
      </trkpt>
      <trkpt lat="45.01862" lon="0.71775">
        <ele>130.8</ele>
        <time>1970-01-01T01:06:28.000Z</time>
      </trkpt>
      <trkpt lat="45.01859" lon="0.71783">
        <ele>130.8</ele>
        <time>1970-01-01T01:06:29.000Z</time>
      </trkpt>
      <trkpt lat="45.01855" lon="0.71792">
        <ele>129.8</ele>
        <time>1970-01-01T01:06:30.000Z</time>
      </trkpt>
      <trkpt lat="45.0185" lon="0.71802">
        <ele>129.8</ele>
        <time>1970-01-01T01:06:31.000Z</time>
      </trkpt>
      <trkpt lat="45.01846" lon="0.71812">
        <ele>128.8</ele>
        <time>1970-01-01T01:06:32.000Z</time>
      </trkpt>
      <trkpt lat="45.01842" lon="0.71822">
        <ele>128.8</ele>
        <time>1970-01-01T01:06:33.000Z</time>
      </trkpt>
      <trkpt lat="45.01839" lon="0.71833">
        <ele>127.9</ele>
        <time>1970-01-01T01:06:34.000Z</time>
      </trkpt>
      <trkpt lat="45.01837" lon="0.71844">
        <ele>127.9</ele>
        <time>1970-01-01T01:06:35.000Z</time>
      </trkpt>
      <trkpt lat="45.01836" lon="0.71855">
        <ele>126.8</ele>
        <time>1970-01-01T01:06:36.000Z</time>
      </trkpt>
      <trkpt lat="45.01835" lon="0.71867">
        <ele>126.8</ele>
        <time>1970-01-01T01:06:37.000Z</time>
      </trkpt>
      <trkpt lat="45.01833" lon="0.71878">
        <ele>126.8</ele>
        <time>1970-01-01T01:06:38.000Z</time>
      </trkpt>
      <trkpt lat="45.0183" lon="0.71888">
        <ele>126.8</ele>
        <time>1970-01-01T01:06:39.000Z</time>
      </trkpt>
      <trkpt lat="45.01825" lon="0.71898">
        <ele>126.8</ele>
        <time>1970-01-01T01:06:40.000Z</time>
      </trkpt>
      <trkpt lat="45.0182" lon="0.71907">
        <ele>126.8</ele>
        <time>1970-01-01T01:06:41.000Z</time>
      </trkpt>
      <trkpt lat="45.01815" lon="0.71915">
        <ele>122.8</ele>
        <time>1970-01-01T01:06:42.000Z</time>
      </trkpt>
      <trkpt lat="45.0181" lon="0.71922">
        <ele>122.8</ele>
        <time>1970-01-01T01:06:43.000Z</time>
      </trkpt>
      <trkpt lat="45.01805" lon="0.71929">
        <ele>121.8</ele>
        <time>1970-01-01T01:06:44.000Z</time>
      </trkpt>
      <trkpt lat="45.01801" lon="0.71936">
        <ele>121.8</ele>
        <time>1970-01-01T01:06:45.000Z</time>
      </trkpt>
      <trkpt lat="45.01797" lon="0.71941">
        <ele>121.8</ele>
        <time>1970-01-01T01:06:46.000Z</time>
      </trkpt>
      <trkpt lat="45.01794" lon="0.71947">
        <ele>121.8</ele>
        <time>1970-01-01T01:06:47.000Z</time>
      </trkpt>
      <trkpt lat="45.0179" lon="0.71953">
        <ele>121.8</ele>
        <time>1970-01-01T01:06:48.000Z</time>
      </trkpt>
      <trkpt lat="45.01786" lon="0.71959">
        <ele>121.8</ele>
        <time>1970-01-01T01:06:49.000Z</time>
      </trkpt>
      <trkpt lat="45.01783" lon="0.71964">
        <ele>121.8</ele>
        <time>1970-01-01T01:06:50.000Z</time>
      </trkpt>
      <trkpt lat="45.01781" lon="0.7197">
        <ele>121.8</ele>
        <time>1970-01-01T01:06:51.000Z</time>
      </trkpt>
      <trkpt lat="45.01779" lon="0.71976">
        <ele>121.8</ele>
        <time>1970-01-01T01:06:52.000Z</time>
      </trkpt>
      <trkpt lat="45.01779" lon="0.71982">
        <ele>121.8</ele>
        <time>1970-01-01T01:06:53.000Z</time>
      </trkpt>
      <trkpt lat="45.01779" lon="0.71988">
        <ele>121.8</ele>
        <time>1970-01-01T01:06:54.000Z</time>
      </trkpt>
      <trkpt lat="45.0178" lon="0.71993">
        <ele>121.8</ele>
        <time>1970-01-01T01:06:55.000Z</time>
      </trkpt>
      <trkpt lat="45.01782" lon="0.71998">
        <ele>121.8</ele>
        <time>1970-01-01T01:06:56.000Z</time>
      </trkpt>
      <trkpt lat="45.01784" lon="0.72004">
        <ele>121.8</ele>
        <time>1970-01-01T01:06:57.000Z</time>
      </trkpt>
      <trkpt lat="45.01785" lon="0.72009">
        <ele>121.8</ele>
        <time>1970-01-01T01:06:58.000Z</time>
      </trkpt>
      <trkpt lat="45.01786" lon="0.72014">
        <ele>121.8</ele>
        <time>1970-01-01T01:06:59.000Z</time>
      </trkpt>
      <trkpt lat="45.01787" lon="0.72018">
        <ele>121.8</ele>
        <time>1970-01-01T01:07:00.000Z</time>
      </trkpt>
      <trkpt lat="45.01787" lon="0.72023">
        <ele>121.8</ele>
        <time>1970-01-01T01:07:01.000Z</time>
      </trkpt>
      <trkpt lat="45.01788" lon="0.72028">
        <ele>122.8</ele>
        <time>1970-01-01T01:07:02.000Z</time>
      </trkpt>
      <trkpt lat="45.01788" lon="0.72033">
        <ele>122.8</ele>
        <time>1970-01-01T01:07:03.000Z</time>
      </trkpt>
      <trkpt lat="45.01789" lon="0.72038">
        <ele>122.8</ele>
        <time>1970-01-01T01:07:04.000Z</time>
      </trkpt>
      <trkpt lat="45.0179" lon="0.72043">
        <ele>122.8</ele>
        <time>1970-01-01T01:07:05.000Z</time>
      </trkpt>
      <trkpt lat="45.01792" lon="0.72048">
        <ele>122.8</ele>
        <time>1970-01-01T01:07:06.000Z</time>
      </trkpt>
      <trkpt lat="45.01793" lon="0.72053">
        <ele>122.8</ele>
        <time>1970-01-01T01:07:07.000Z</time>
      </trkpt>
      <trkpt lat="45.01794" lon="0.72059">
        <ele>123.9</ele>
        <time>1970-01-01T01:07:08.000Z</time>
      </trkpt>
      <trkpt lat="45.01796" lon="0.72064">
        <ele>123.9</ele>
        <time>1970-01-01T01:07:09.000Z</time>
      </trkpt>
      <trkpt lat="45.01798" lon="0.72069">
        <ele>124.8</ele>
        <time>1970-01-01T01:07:10.000Z</time>
      </trkpt>
      <trkpt lat="45.018" lon="0.72074">
        <ele>124.8</ele>
        <time>1970-01-01T01:07:11.000Z</time>
      </trkpt>
      <trkpt lat="45.01801" lon="0.72079">
        <ele>124.8</ele>
        <time>1970-01-01T01:07:12.000Z</time>
      </trkpt>
      <trkpt lat="45.01803" lon="0.72083">
        <ele>124.8</ele>
        <time>1970-01-01T01:07:13.000Z</time>
      </trkpt>
      <trkpt lat="45.01804" lon="0.72089">
        <ele>124.8</ele>
        <time>1970-01-01T01:07:14.000Z</time>
      </trkpt>
      <trkpt lat="45.01805" lon="0.72094">
        <ele>124.8</ele>
        <time>1970-01-01T01:07:15.000Z</time>
      </trkpt>
      <trkpt lat="45.01806" lon="0.72099">
        <ele>124.8</ele>
        <time>1970-01-01T01:07:16.000Z</time>
      </trkpt>
      <trkpt lat="45.01806" lon="0.72103">
        <ele>124.8</ele>
        <time>1970-01-01T01:07:17.000Z</time>
      </trkpt>
      <trkpt lat="45.01806" lon="0.72108">
        <ele>124.8</ele>
        <time>1970-01-01T01:07:18.000Z</time>
      </trkpt>
      <trkpt lat="45.01807" lon="0.72112">
        <ele>124.8</ele>
        <time>1970-01-01T01:07:19.000Z</time>
      </trkpt>
      <trkpt lat="45.01808" lon="0.72118">
        <ele>124.8</ele>
        <time>1970-01-01T01:07:20.000Z</time>
      </trkpt>
      <trkpt lat="45.01811" lon="0.72123">
        <ele>124.8</ele>
        <time>1970-01-01T01:07:21.000Z</time>
      </trkpt>
      <trkpt lat="45.01813" lon="0.72129">
        <ele>124.8</ele>
        <time>1970-01-01T01:07:22.000Z</time>
      </trkpt>
      <trkpt lat="45.01814" lon="0.72135">
        <ele>124.8</ele>
        <time>1970-01-01T01:07:23.000Z</time>
      </trkpt>
      <trkpt lat="45.01815" lon="0.72141">
        <ele>124.8</ele>
        <time>1970-01-01T01:07:24.000Z</time>
      </trkpt>
      <trkpt lat="45.01816" lon="0.72146">
        <ele>124.8</ele>
        <time>1970-01-01T01:07:25.000Z</time>
      </trkpt>
      <trkpt lat="45.01817" lon="0.72151">
        <ele>123.9</ele>
        <time>1970-01-01T01:07:26.000Z</time>
      </trkpt>
      <trkpt lat="45.01818" lon="0.72157">
        <ele>123.9</ele>
        <time>1970-01-01T01:07:27.000Z</time>
      </trkpt>
      <trkpt lat="45.01818" lon="0.72163">
        <ele>123.9</ele>
        <time>1970-01-01T01:07:28.000Z</time>
      </trkpt>
      <trkpt lat="45.0182" lon="0.72169">
        <ele>123.9</ele>
        <time>1970-01-01T01:07:29.000Z</time>
      </trkpt>
      <trkpt lat="45.01821" lon="0.72174">
        <ele>123.9</ele>
        <time>1970-01-01T01:07:30.000Z</time>
      </trkpt>
      <trkpt lat="45.01822" lon="0.7218">
        <ele>123.9</ele>
        <time>1970-01-01T01:07:31.000Z</time>
      </trkpt>
      <trkpt lat="45.01823" lon="0.72185">
        <ele>123.9</ele>
        <time>1970-01-01T01:07:32.000Z</time>
      </trkpt>
      <trkpt lat="45.01825" lon="0.72191">
        <ele>123.9</ele>
        <time>1970-01-01T01:07:33.000Z</time>
      </trkpt>
      <trkpt lat="45.01826" lon="0.72198">
        <ele>124.8</ele>
        <time>1970-01-01T01:07:34.000Z</time>
      </trkpt>
      <trkpt lat="45.01828" lon="0.72203">
        <ele>124.8</ele>
        <time>1970-01-01T01:07:35.000Z</time>
      </trkpt>
      <trkpt lat="45.01828" lon="0.72207">
        <ele>124.8</ele>
        <time>1970-01-01T01:07:36.000Z</time>
      </trkpt>
      <trkpt lat="45.0183" lon="0.72212">
        <ele>124.8</ele>
        <time>1970-01-01T01:07:37.000Z</time>
      </trkpt>
      <trkpt lat="45.01832" lon="0.72217">
        <ele>124.8</ele>
        <time>1970-01-01T01:07:38.000Z</time>
      </trkpt>
      <trkpt lat="45.01833" lon="0.72222">
        <ele>124.8</ele>
        <time>1970-01-01T01:07:39.000Z</time>
      </trkpt>
      <trkpt lat="45.01835" lon="0.72227">
        <ele>124.8</ele>
        <time>1970-01-01T01:07:40.000Z</time>
      </trkpt>
      <trkpt lat="45.01836" lon="0.72233">
        <ele>124.8</ele>
        <time>1970-01-01T01:07:41.000Z</time>
      </trkpt>
      <trkpt lat="45.01838" lon="0.72238">
        <ele>124.8</ele>
        <time>1970-01-01T01:07:42.000Z</time>
      </trkpt>
      <trkpt lat="45.01839" lon="0.72242">
        <ele>124.8</ele>
        <time>1970-01-01T01:07:43.000Z</time>
      </trkpt>
      <trkpt lat="45.01841" lon="0.72246">
        <ele>124.8</ele>
        <time>1970-01-01T01:07:44.000Z</time>
      </trkpt>
      <trkpt lat="45.01843" lon="0.7225">
        <ele>124.8</ele>
        <time>1970-01-01T01:07:45.000Z</time>
      </trkpt>
      <trkpt lat="45.01845" lon="0.72253">
        <ele>124.8</ele>
        <time>1970-01-01T01:07:46.000Z</time>
      </trkpt>
      <trkpt lat="45.01848" lon="0.72255">
        <ele>124.8</ele>
        <time>1970-01-01T01:07:47.000Z</time>
      </trkpt>
      <trkpt lat="45.01852" lon="0.72257">
        <ele>124.8</ele>
        <time>1970-01-01T01:07:48.000Z</time>
      </trkpt>
      <trkpt lat="45.01855" lon="0.72259">
        <ele>124.8</ele>
        <time>1970-01-01T01:07:49.000Z</time>
      </trkpt>
      <trkpt lat="45.01858" lon="0.72261">
        <ele>125.9</ele>
        <time>1970-01-01T01:07:50.000Z</time>
      </trkpt>
      <trkpt lat="45.01862" lon="0.72263">
        <ele>125.9</ele>
        <time>1970-01-01T01:07:51.000Z</time>
      </trkpt>
      <trkpt lat="45.01866" lon="0.72266">
        <ele>125.9</ele>
        <time>1970-01-01T01:07:52.000Z</time>
      </trkpt>
      <trkpt lat="45.0187" lon="0.72268">
        <ele>125.9</ele>
        <time>1970-01-01T01:07:53.000Z</time>
      </trkpt>
      <trkpt lat="45.01874" lon="0.72271">
        <ele>125.9</ele>
        <time>1970-01-01T01:07:54.000Z</time>
      </trkpt>
      <trkpt lat="45.01877" lon="0.72274">
        <ele>125.9</ele>
        <time>1970-01-01T01:07:55.000Z</time>
      </trkpt>
      <trkpt lat="45.01879" lon="0.72274">
        <ele>125.9</ele>
        <time>1970-01-01T01:07:56.000Z</time>
      </trkpt>
      <trkpt lat="45.01882" lon="0.72275">
        <ele>125.9</ele>
        <time>1970-01-01T01:07:57.000Z</time>
      </trkpt>
      <trkpt lat="45.01884" lon="0.72277">
        <ele>125.9</ele>
        <time>1970-01-01T01:07:58.000Z</time>
      </trkpt>
      <trkpt lat="45.01887" lon="0.72277">
        <ele>125.9</ele>
        <time>1970-01-01T01:07:59.000Z</time>
      </trkpt>
      <trkpt lat="45.01889" lon="0.72279">
        <ele>124.8</ele>
        <time>1970-01-01T01:08:00.000Z</time>
      </trkpt>
      <trkpt lat="45.0189" lon="0.72281">
        <ele>124.8</ele>
        <time>1970-01-01T01:08:01.000Z</time>
      </trkpt>
      <trkpt lat="45.01891" lon="0.72284">
        <ele>124.8</ele>
        <time>1970-01-01T01:08:02.000Z</time>
      </trkpt>
      <trkpt lat="45.01892" lon="0.72287">
        <ele>124.8</ele>
        <time>1970-01-01T01:08:03.000Z</time>
      </trkpt>
      <trkpt lat="45.01893" lon="0.7229">
        <ele>125.9</ele>
        <time>1970-01-01T01:08:04.000Z</time>
      </trkpt>
      <trkpt lat="45.01894" lon="0.72293">
        <ele>125.9</ele>
        <time>1970-01-01T01:08:05.000Z</time>
      </trkpt>
      <trkpt lat="45.01894" lon="0.72299">
        <ele>125.9</ele>
        <time>1970-01-01T01:08:06.000Z</time>
      </trkpt>
      <trkpt lat="45.01895" lon="0.72303">
        <ele>125.9</ele>
        <time>1970-01-01T01:08:07.000Z</time>
      </trkpt>
      <trkpt lat="45.01896" lon="0.72307">
        <ele>126.8</ele>
        <time>1970-01-01T01:08:08.000Z</time>
      </trkpt>
      <trkpt lat="45.01897" lon="0.72311">
        <ele>126.8</ele>
        <time>1970-01-01T01:08:09.000Z</time>
      </trkpt>
      <trkpt lat="45.01897" lon="0.72314">
        <ele>127.9</ele>
        <time>1970-01-01T01:08:10.000Z</time>
      </trkpt>
      <trkpt lat="45.01897" lon="0.72317">
        <ele>127.9</ele>
        <time>1970-01-01T01:08:11.000Z</time>
      </trkpt>
      <trkpt lat="45.01897" lon="0.72321">
        <ele>127.9</ele>
        <time>1970-01-01T01:08:12.000Z</time>
      </trkpt>
      <trkpt lat="45.01898" lon="0.72324">
        <ele>127.9</ele>
        <time>1970-01-01T01:08:13.000Z</time>
      </trkpt>
      <trkpt lat="45.01898" lon="0.72327">
        <ele>127.9</ele>
        <time>1970-01-01T01:08:14.000Z</time>
      </trkpt>
      <trkpt lat="45.01898" lon="0.72331">
        <ele>127.9</ele>
        <time>1970-01-01T01:08:15.000Z</time>
      </trkpt>
      <trkpt lat="45.01899" lon="0.72335">
        <ele>129.8</ele>
        <time>1970-01-01T01:08:16.000Z</time>
      </trkpt>
      <trkpt lat="45.019" lon="0.72339">
        <ele>129.8</ele>
        <time>1970-01-01T01:08:17.000Z</time>
      </trkpt>
      <trkpt lat="45.019" lon="0.72344">
        <ele>129.8</ele>
        <time>1970-01-01T01:08:18.000Z</time>
      </trkpt>
      <trkpt lat="45.019" lon="0.72348">
        <ele>129.8</ele>
        <time>1970-01-01T01:08:19.000Z</time>
      </trkpt>
      <trkpt lat="45.019" lon="0.72351">
        <ele>129.8</ele>
        <time>1970-01-01T01:08:20.000Z</time>
      </trkpt>
      <trkpt lat="45.019" lon="0.72355">
        <ele>129.8</ele>
        <time>1970-01-01T01:08:21.000Z</time>
      </trkpt>
      <trkpt lat="45.019" lon="0.72359">
        <ele>130.8</ele>
        <time>1970-01-01T01:08:22.000Z</time>
      </trkpt>
      <trkpt lat="45.01899" lon="0.72363">
        <ele>130.8</ele>
        <time>1970-01-01T01:08:23.000Z</time>
      </trkpt>
      <trkpt lat="45.01899" lon="0.72367">
        <ele>130.8</ele>
        <time>1970-01-01T01:08:24.000Z</time>
      </trkpt>
      <trkpt lat="45.01899" lon="0.72372">
        <ele>130.8</ele>
        <time>1970-01-01T01:08:25.000Z</time>
      </trkpt>
      <trkpt lat="45.01898" lon="0.72376">
        <ele>130.8</ele>
        <time>1970-01-01T01:08:26.000Z</time>
      </trkpt>
      <trkpt lat="45.01897" lon="0.7238">
        <ele>130.8</ele>
        <time>1970-01-01T01:08:27.000Z</time>
      </trkpt>
      <trkpt lat="45.01897" lon="0.72384">
        <ele>130.8</ele>
        <time>1970-01-01T01:08:28.000Z</time>
      </trkpt>
      <trkpt lat="45.01896" lon="0.72388">
        <ele>130.8</ele>
        <time>1970-01-01T01:08:29.000Z</time>
      </trkpt>
      <trkpt lat="45.01894" lon="0.72393">
        <ele>129.8</ele>
        <time>1970-01-01T01:08:30.000Z</time>
      </trkpt>
      <trkpt lat="45.01893" lon="0.72397">
        <ele>129.8</ele>
        <time>1970-01-01T01:08:31.000Z</time>
      </trkpt>
      <trkpt lat="45.01891" lon="0.72402">
        <ele>129.8</ele>
        <time>1970-01-01T01:08:32.000Z</time>
      </trkpt>
      <trkpt lat="45.01889" lon="0.72406">
        <ele>129.8</ele>
        <time>1970-01-01T01:08:33.000Z</time>
      </trkpt>
      <trkpt lat="45.01888" lon="0.7241">
        <ele>129.8</ele>
        <time>1970-01-01T01:08:34.000Z</time>
      </trkpt>
      <trkpt lat="45.01886" lon="0.72415">
        <ele>129.8</ele>
        <time>1970-01-01T01:08:35.000Z</time>
      </trkpt>
      <trkpt lat="45.01883" lon="0.72421">
        <ele>129.8</ele>
        <time>1970-01-01T01:08:36.000Z</time>
      </trkpt>
      <trkpt lat="45.01881" lon="0.72427">
        <ele>129.8</ele>
        <time>1970-01-01T01:08:37.000Z</time>
      </trkpt>
      <trkpt lat="45.01879" lon="0.72431">
        <ele>129.8</ele>
        <time>1970-01-01T01:08:38.000Z</time>
      </trkpt>
      <trkpt lat="45.01877" lon="0.72435">
        <ele>129.8</ele>
        <time>1970-01-01T01:08:39.000Z</time>
      </trkpt>
      <trkpt lat="45.01875" lon="0.72439">
        <ele>129.8</ele>
        <time>1970-01-01T01:08:40.000Z</time>
      </trkpt>
      <trkpt lat="45.01873" lon="0.72444">
        <ele>129.8</ele>
        <time>1970-01-01T01:08:41.000Z</time>
      </trkpt>
      <trkpt lat="45.01871" lon="0.72449">
        <ele>129.8</ele>
        <time>1970-01-01T01:08:42.000Z</time>
      </trkpt>
      <trkpt lat="45.0187" lon="0.72452">
        <ele>129.8</ele>
        <time>1970-01-01T01:08:43.000Z</time>
      </trkpt>
      <trkpt lat="45.01869" lon="0.72457">
        <ele>129.8</ele>
        <time>1970-01-01T01:08:44.000Z</time>
      </trkpt>
      <trkpt lat="45.01868" lon="0.72461">
        <ele>129.8</ele>
        <time>1970-01-01T01:08:45.000Z</time>
      </trkpt>
      <trkpt lat="45.01868" lon="0.72465">
        <ele>129.8</ele>
        <time>1970-01-01T01:08:46.000Z</time>
      </trkpt>
      <trkpt lat="45.01867" lon="0.7247">
        <ele>129.8</ele>
        <time>1970-01-01T01:08:47.000Z</time>
      </trkpt>
      <trkpt lat="45.01866" lon="0.72476">
        <ele>130.8</ele>
        <time>1970-01-01T01:08:48.000Z</time>
      </trkpt>
      <trkpt lat="45.01865" lon="0.72482">
        <ele>130.8</ele>
        <time>1970-01-01T01:08:49.000Z</time>
      </trkpt>
      <trkpt lat="45.01863" lon="0.72487">
        <ele>130.8</ele>
        <time>1970-01-01T01:08:50.000Z</time>
      </trkpt>
      <trkpt lat="45.01862" lon="0.72493">
        <ele>130.8</ele>
        <time>1970-01-01T01:08:51.000Z</time>
      </trkpt>
      <trkpt lat="45.01861" lon="0.72498">
        <ele>130.8</ele>
        <time>1970-01-01T01:08:52.000Z</time>
      </trkpt>
      <trkpt lat="45.01861" lon="0.72502">
        <ele>130.8</ele>
        <time>1970-01-01T01:08:53.000Z</time>
      </trkpt>
      <trkpt lat="45.01861" lon="0.72507">
        <ele>130.8</ele>
        <time>1970-01-01T01:08:54.000Z</time>
      </trkpt>
      <trkpt lat="45.01861" lon="0.72511">
        <ele>130.8</ele>
        <time>1970-01-01T01:08:55.000Z</time>
      </trkpt>
      <trkpt lat="45.01861" lon="0.72515">
        <ele>130.8</ele>
        <time>1970-01-01T01:08:56.000Z</time>
      </trkpt>
      <trkpt lat="45.01862" lon="0.7252">
        <ele>130.8</ele>
        <time>1970-01-01T01:08:57.000Z</time>
      </trkpt>
      <trkpt lat="45.01862" lon="0.72524">
        <ele>130.8</ele>
        <time>1970-01-01T01:08:58.000Z</time>
      </trkpt>
      <trkpt lat="45.01862" lon="0.72528">
        <ele>130.8</ele>
        <time>1970-01-01T01:08:59.000Z</time>
      </trkpt>
      <trkpt lat="45.01862" lon="0.72533">
        <ele>130.8</ele>
        <time>1970-01-01T01:09:00.000Z</time>
      </trkpt>
      <trkpt lat="45.01862" lon="0.72539">
        <ele>130.8</ele>
        <time>1970-01-01T01:09:01.000Z</time>
      </trkpt>
      <trkpt lat="45.01861" lon="0.72546">
        <ele>130.8</ele>
        <time>1970-01-01T01:09:02.000Z</time>
      </trkpt>
      <trkpt lat="45.01861" lon="0.72554">
        <ele>130.8</ele>
        <time>1970-01-01T01:09:03.000Z</time>
      </trkpt>
      <trkpt lat="45.0186" lon="0.72562">
        <ele>132.9</ele>
        <time>1970-01-01T01:09:04.000Z</time>
      </trkpt>
      <trkpt lat="45.01858" lon="0.72571">
        <ele>132.9</ele>
        <time>1970-01-01T01:09:05.000Z</time>
      </trkpt>
      <trkpt lat="45.01856" lon="0.72579">
        <ele>132.9</ele>
        <time>1970-01-01T01:09:06.000Z</time>
      </trkpt>
      <trkpt lat="45.01855" lon="0.72587">
        <ele>132.9</ele>
        <time>1970-01-01T01:09:07.000Z</time>
      </trkpt>
      <trkpt lat="45.01854" lon="0.72594">
        <ele>132.9</ele>
        <time>1970-01-01T01:09:08.000Z</time>
      </trkpt>
      <trkpt lat="45.01854" lon="0.72598">
        <ele>132.9</ele>
        <time>1970-01-01T01:09:09.000Z</time>
      </trkpt>
      <trkpt lat="45.01853" lon="0.72603">
        <ele>132.9</ele>
        <time>1970-01-01T01:09:10.000Z</time>
      </trkpt>
      <trkpt lat="45.01852" lon="0.72607">
        <ele>132.9</ele>
        <time>1970-01-01T01:09:11.000Z</time>
      </trkpt>
      <trkpt lat="45.01851" lon="0.72611">
        <ele>132.9</ele>
        <time>1970-01-01T01:09:12.000Z</time>
      </trkpt>
      <trkpt lat="45.01852" lon="0.72616">
        <ele>132.9</ele>
        <time>1970-01-01T01:09:13.000Z</time>
      </trkpt>
      <trkpt lat="45.01851" lon="0.7262">
        <ele>132.9</ele>
        <time>1970-01-01T01:09:14.000Z</time>
      </trkpt>
      <trkpt lat="45.01851" lon="0.72624">
        <ele>132.9</ele>
        <time>1970-01-01T01:09:15.000Z</time>
      </trkpt>
      <trkpt lat="45.0185" lon="0.72628">
        <ele>133.8</ele>
        <time>1970-01-01T01:09:16.000Z</time>
      </trkpt>
      <trkpt lat="45.0185" lon="0.72632">
        <ele>133.8</ele>
        <time>1970-01-01T01:09:17.000Z</time>
      </trkpt>
      <trkpt lat="45.0185" lon="0.72636">
        <ele>133.8</ele>
        <time>1970-01-01T01:09:18.000Z</time>
      </trkpt>
      <trkpt lat="45.01851" lon="0.72639">
        <ele>133.8</ele>
        <time>1970-01-01T01:09:19.000Z</time>
      </trkpt>
      <trkpt lat="45.01851" lon="0.72642">
        <ele>133.8</ele>
        <time>1970-01-01T01:09:20.000Z</time>
      </trkpt>
      <trkpt lat="45.01851" lon="0.72646">
        <ele>133.8</ele>
        <time>1970-01-01T01:09:21.000Z</time>
      </trkpt>
      <trkpt lat="45.01851" lon="0.7265">
        <ele>133.8</ele>
        <time>1970-01-01T01:09:22.000Z</time>
      </trkpt>
      <trkpt lat="45.01851" lon="0.72654">
        <ele>133.8</ele>
        <time>1970-01-01T01:09:23.000Z</time>
      </trkpt>
      <trkpt lat="45.01852" lon="0.72659">
        <ele>133.8</ele>
        <time>1970-01-01T01:09:24.000Z</time>
      </trkpt>
      <trkpt lat="45.01852" lon="0.72664">
        <ele>133.8</ele>
        <time>1970-01-01T01:09:25.000Z</time>
      </trkpt>
      <trkpt lat="45.01853" lon="0.72669">
        <ele>133.8</ele>
        <time>1970-01-01T01:09:26.000Z</time>
      </trkpt>
      <trkpt lat="45.01854" lon="0.72676">
        <ele>133.8</ele>
        <time>1970-01-01T01:09:27.000Z</time>
      </trkpt>
      <trkpt lat="45.01854" lon="0.72682">
        <ele>133.8</ele>
        <time>1970-01-01T01:09:28.000Z</time>
      </trkpt>
      <trkpt lat="45.01854" lon="0.72688">
        <ele>133.8</ele>
        <time>1970-01-01T01:09:29.000Z</time>
      </trkpt>
      <trkpt lat="45.01854" lon="0.72694">
        <ele>133.8</ele>
        <time>1970-01-01T01:09:30.000Z</time>
      </trkpt>
      <trkpt lat="45.01855" lon="0.72699">
        <ele>133.8</ele>
        <time>1970-01-01T01:09:31.000Z</time>
      </trkpt>
      <trkpt lat="45.01856" lon="0.72704">
        <ele>133.8</ele>
        <time>1970-01-01T01:09:32.000Z</time>
      </trkpt>
      <trkpt lat="45.01856" lon="0.72709">
        <ele>133.8</ele>
        <time>1970-01-01T01:09:33.000Z</time>
      </trkpt>
      <trkpt lat="45.01857" lon="0.72715">
        <ele>133.8</ele>
        <time>1970-01-01T01:09:34.000Z</time>
      </trkpt>
      <trkpt lat="45.01857" lon="0.7272">
        <ele>133.8</ele>
        <time>1970-01-01T01:09:35.000Z</time>
      </trkpt>
      <trkpt lat="45.01858" lon="0.72725">
        <ele>133.8</ele>
        <time>1970-01-01T01:09:36.000Z</time>
      </trkpt>
      <trkpt lat="45.01858" lon="0.72729">
        <ele>133.8</ele>
        <time>1970-01-01T01:09:37.000Z</time>
      </trkpt>
      <trkpt lat="45.01859" lon="0.72733">
        <ele>133.8</ele>
        <time>1970-01-01T01:09:38.000Z</time>
      </trkpt>
      <trkpt lat="45.01861" lon="0.72737">
        <ele>133.8</ele>
        <time>1970-01-01T01:09:39.000Z</time>
      </trkpt>
      <trkpt lat="45.01862" lon="0.72741">
        <ele>133.8</ele>
        <time>1970-01-01T01:09:40.000Z</time>
      </trkpt>
      <trkpt lat="45.01863" lon="0.72745">
        <ele>133.8</ele>
        <time>1970-01-01T01:09:41.000Z</time>
      </trkpt>
      <trkpt lat="45.01864" lon="0.7275">
        <ele>133.8</ele>
        <time>1970-01-01T01:09:42.000Z</time>
      </trkpt>
      <trkpt lat="45.01866" lon="0.72754">
        <ele>133.8</ele>
        <time>1970-01-01T01:09:43.000Z</time>
      </trkpt>
      <trkpt lat="45.01868" lon="0.72759">
        <ele>133.8</ele>
        <time>1970-01-01T01:09:44.000Z</time>
      </trkpt>
      <trkpt lat="45.0187" lon="0.72762">
        <ele>133.8</ele>
        <time>1970-01-01T01:09:45.000Z</time>
      </trkpt>
      <trkpt lat="45.01873" lon="0.72765">
        <ele>133.8</ele>
        <time>1970-01-01T01:09:46.000Z</time>
      </trkpt>
      <trkpt lat="45.01876" lon="0.72768">
        <ele>133.8</ele>
        <time>1970-01-01T01:09:47.000Z</time>
      </trkpt>
      <trkpt lat="45.01879" lon="0.72771">
        <ele>133.8</ele>
        <time>1970-01-01T01:09:48.000Z</time>
      </trkpt>
      <trkpt lat="45.01882" lon="0.72773">
        <ele>133.8</ele>
        <time>1970-01-01T01:09:49.000Z</time>
      </trkpt>
      <trkpt lat="45.01885" lon="0.72774">
        <ele>133.8</ele>
        <time>1970-01-01T01:09:50.000Z</time>
      </trkpt>
      <trkpt lat="45.01888" lon="0.72775">
        <ele>133.8</ele>
        <time>1970-01-01T01:09:51.000Z</time>
      </trkpt>
      <trkpt lat="45.01892" lon="0.72776">
        <ele>133.8</ele>
        <time>1970-01-01T01:09:52.000Z</time>
      </trkpt>
      <trkpt lat="45.01895" lon="0.72778">
        <ele>133.8</ele>
        <time>1970-01-01T01:09:53.000Z</time>
      </trkpt>
      <trkpt lat="45.01899" lon="0.72778">
        <ele>133.8</ele>
        <time>1970-01-01T01:09:54.000Z</time>
      </trkpt>
      <trkpt lat="45.01902" lon="0.72779">
        <ele>133.8</ele>
        <time>1970-01-01T01:09:55.000Z</time>
      </trkpt>
      <trkpt lat="45.01905" lon="0.72779">
        <ele>133.8</ele>
        <time>1970-01-01T01:09:56.000Z</time>
      </trkpt>
      <trkpt lat="45.01908" lon="0.72778">
        <ele>133.8</ele>
        <time>1970-01-01T01:09:57.000Z</time>
      </trkpt>
      <trkpt lat="45.01911" lon="0.72778">
        <ele>133.8</ele>
        <time>1970-01-01T01:09:58.000Z</time>
      </trkpt>
      <trkpt lat="45.01915" lon="0.72777">
        <ele>133.8</ele>
        <time>1970-01-01T01:09:59.000Z</time>
      </trkpt>
      <trkpt lat="45.01918" lon="0.72778">
        <ele>133.8</ele>
        <time>1970-01-01T01:10:00.000Z</time>
      </trkpt>
      <trkpt lat="45.01922" lon="0.72779">
        <ele>133.8</ele>
        <time>1970-01-01T01:10:01.000Z</time>
      </trkpt>
      <trkpt lat="45.01925" lon="0.7278">
        <ele>133.8</ele>
        <time>1970-01-01T01:10:02.000Z</time>
      </trkpt>
      <trkpt lat="45.01929" lon="0.7278">
        <ele>133.8</ele>
        <time>1970-01-01T01:10:03.000Z</time>
      </trkpt>
      <trkpt lat="45.01933" lon="0.7278">
        <ele>133.8</ele>
        <time>1970-01-01T01:10:04.000Z</time>
      </trkpt>
      <trkpt lat="45.01936" lon="0.7278">
        <ele>134.9</ele>
        <time>1970-01-01T01:10:05.000Z</time>
      </trkpt>
      <trkpt lat="45.0194" lon="0.72779">
        <ele>134.9</ele>
        <time>1970-01-01T01:10:06.000Z</time>
      </trkpt>
      <trkpt lat="45.01944" lon="0.72779">
        <ele>134.9</ele>
        <time>1970-01-01T01:10:07.000Z</time>
      </trkpt>
      <trkpt lat="45.01947" lon="0.72779">
        <ele>134.9</ele>
        <time>1970-01-01T01:10:08.000Z</time>
      </trkpt>
      <trkpt lat="45.01949" lon="0.72781">
        <ele>134.9</ele>
        <time>1970-01-01T01:10:09.000Z</time>
      </trkpt>
      <trkpt lat="45.01951" lon="0.72784">
        <ele>134.9</ele>
        <time>1970-01-01T01:10:10.000Z</time>
      </trkpt>
      <trkpt lat="45.01953" lon="0.72786">
        <ele>134.9</ele>
        <time>1970-01-01T01:10:11.000Z</time>
      </trkpt>
      <trkpt lat="45.01955" lon="0.7279">
        <ele>134.9</ele>
        <time>1970-01-01T01:10:12.000Z</time>
      </trkpt>
      <trkpt lat="45.01956" lon="0.72794">
        <ele>134.9</ele>
        <time>1970-01-01T01:10:13.000Z</time>
      </trkpt>
      <trkpt lat="45.01955" lon="0.72799">
        <ele>134.9</ele>
        <time>1970-01-01T01:10:14.000Z</time>
      </trkpt>
      <trkpt lat="45.01955" lon="0.72803">
        <ele>134.9</ele>
        <time>1970-01-01T01:10:15.000Z</time>
      </trkpt>
      <trkpt lat="45.01954" lon="0.72806">
        <ele>134.9</ele>
        <time>1970-01-01T01:10:16.000Z</time>
      </trkpt>
      <trkpt lat="45.01953" lon="0.7281">
        <ele>134.9</ele>
        <time>1970-01-01T01:10:17.000Z</time>
      </trkpt>
      <trkpt lat="45.0195" lon="0.72813">
        <ele>134.9</ele>
        <time>1970-01-01T01:10:18.000Z</time>
      </trkpt>
      <trkpt lat="45.01948" lon="0.72817">
        <ele>134.9</ele>
        <time>1970-01-01T01:10:19.000Z</time>
      </trkpt>
      <trkpt lat="45.01945" lon="0.72821">
        <ele>134.9</ele>
        <time>1970-01-01T01:10:20.000Z</time>
      </trkpt>
      <trkpt lat="45.01943" lon="0.72825">
        <ele>134.9</ele>
        <time>1970-01-01T01:10:21.000Z</time>
      </trkpt>
      <trkpt lat="45.01942" lon="0.72828">
        <ele>134.9</ele>
        <time>1970-01-01T01:10:22.000Z</time>
      </trkpt>
      <trkpt lat="45.01941" lon="0.72832">
        <ele>135.8</ele>
        <time>1970-01-01T01:10:23.000Z</time>
      </trkpt>
      <trkpt lat="45.0194" lon="0.72837">
        <ele>135.8</ele>
        <time>1970-01-01T01:10:24.000Z</time>
      </trkpt>
      <trkpt lat="45.0194" lon="0.72841">
        <ele>135.8</ele>
        <time>1970-01-01T01:10:25.000Z</time>
      </trkpt>
      <trkpt lat="45.0194" lon="0.72846">
        <ele>135.8</ele>
        <time>1970-01-01T01:10:26.000Z</time>
      </trkpt>
      <trkpt lat="45.01941" lon="0.72851">
        <ele>135.8</ele>
        <time>1970-01-01T01:10:27.000Z</time>
      </trkpt>
      <trkpt lat="45.01941" lon="0.72855">
        <ele>135.8</ele>
        <time>1970-01-01T01:10:28.000Z</time>
      </trkpt>
      <trkpt lat="45.01942" lon="0.72859">
        <ele>135.8</ele>
        <time>1970-01-01T01:10:29.000Z</time>
      </trkpt>
      <trkpt lat="45.01942" lon="0.72863">
        <ele>135.8</ele>
        <time>1970-01-01T01:10:30.000Z</time>
      </trkpt>
      <trkpt lat="45.01942" lon="0.72868">
        <ele>135.8</ele>
        <time>1970-01-01T01:10:31.000Z</time>
      </trkpt>
      <trkpt lat="45.01942" lon="0.72872">
        <ele>135.8</ele>
        <time>1970-01-01T01:10:32.000Z</time>
      </trkpt>
      <trkpt lat="45.01941" lon="0.72877">
        <ele>135.8</ele>
        <time>1970-01-01T01:10:33.000Z</time>
      </trkpt>
      <trkpt lat="45.01938" lon="0.72882">
        <ele>135.8</ele>
        <time>1970-01-01T01:10:34.000Z</time>
      </trkpt>
      <trkpt lat="45.01935" lon="0.72887">
        <ele>137.8</ele>
        <time>1970-01-01T01:10:35.000Z</time>
      </trkpt>
      <trkpt lat="45.01932" lon="0.72891">
        <ele>137.8</ele>
        <time>1970-01-01T01:10:36.000Z</time>
      </trkpt>
      <trkpt lat="45.01929" lon="0.72896">
        <ele>138.8</ele>
        <time>1970-01-01T01:10:37.000Z</time>
      </trkpt>
      <trkpt lat="45.01926" lon="0.72902">
        <ele>138.8</ele>
        <time>1970-01-01T01:10:38.000Z</time>
      </trkpt>
      <trkpt lat="45.01922" lon="0.72906">
        <ele>138.8</ele>
        <time>1970-01-01T01:10:39.000Z</time>
      </trkpt>
      <trkpt lat="45.01919" lon="0.72909">
        <ele>138.8</ele>
        <time>1970-01-01T01:10:40.000Z</time>
      </trkpt>
      <trkpt lat="45.01918" lon="0.72913">
        <ele>139.9</ele>
        <time>1970-01-01T01:10:41.000Z</time>
      </trkpt>
      <trkpt lat="45.01915" lon="0.72916">
        <ele>139.9</ele>
        <time>1970-01-01T01:10:42.000Z</time>
      </trkpt>
      <trkpt lat="45.01912" lon="0.72918">
        <ele>139.9</ele>
        <time>1970-01-01T01:10:43.000Z</time>
      </trkpt>
      <trkpt lat="45.01906" lon="0.72918">
        <ele>139.9</ele>
        <time>1970-01-01T01:10:44.000Z</time>
      </trkpt>
      <trkpt lat="45.01904" lon="0.72919">
        <ele>139.9</ele>
        <time>1970-01-01T01:10:45.000Z</time>
      </trkpt>
      <trkpt lat="45.019" lon="0.72922">
        <ele>139.9</ele>
        <time>1970-01-01T01:10:46.000Z</time>
      </trkpt>
      <trkpt lat="45.01897" lon="0.72924">
        <ele>139.9</ele>
        <time>1970-01-01T01:10:47.000Z</time>
      </trkpt>
      <trkpt lat="45.01894" lon="0.72926">
        <ele>139.9</ele>
        <time>1970-01-01T01:10:48.000Z</time>
      </trkpt>
      <trkpt lat="45.01892" lon="0.72928">
        <ele>139.9</ele>
        <time>1970-01-01T01:10:49.000Z</time>
      </trkpt>
      <trkpt lat="45.01889" lon="0.7293">
        <ele>139.9</ele>
        <time>1970-01-01T01:10:50.000Z</time>
      </trkpt>
      <trkpt lat="45.01885" lon="0.72932">
        <ele>139.9</ele>
        <time>1970-01-01T01:10:51.000Z</time>
      </trkpt>
      <trkpt lat="45.01882" lon="0.72934">
        <ele>139.9</ele>
        <time>1970-01-01T01:10:52.000Z</time>
      </trkpt>
      <trkpt lat="45.01878" lon="0.72936">
        <ele>139.9</ele>
        <time>1970-01-01T01:10:53.000Z</time>
      </trkpt>
      <trkpt lat="45.01874" lon="0.72938">
        <ele>139.9</ele>
        <time>1970-01-01T01:10:54.000Z</time>
      </trkpt>
      <trkpt lat="45.01869" lon="0.72939">
        <ele>138.8</ele>
        <time>1970-01-01T01:10:55.000Z</time>
      </trkpt>
      <trkpt lat="45.01864" lon="0.72941">
        <ele>138.8</ele>
        <time>1970-01-01T01:10:56.000Z</time>
      </trkpt>
      <trkpt lat="45.0186" lon="0.72942">
        <ele>138.8</ele>
        <time>1970-01-01T01:10:57.000Z</time>
      </trkpt>
      <trkpt lat="45.01857" lon="0.72943">
        <ele>138.8</ele>
        <time>1970-01-01T01:10:58.000Z</time>
      </trkpt>
      <trkpt lat="45.01854" lon="0.72946">
        <ele>138.8</ele>
        <time>1970-01-01T01:10:59.000Z</time>
      </trkpt>
      <trkpt lat="45.01852" lon="0.72949">
        <ele>138.8</ele>
        <time>1970-01-01T01:11:00.000Z</time>
      </trkpt>
      <trkpt lat="45.0185" lon="0.72953">
        <ele>137.8</ele>
        <time>1970-01-01T01:11:01.000Z</time>
      </trkpt>
      <trkpt lat="45.01848" lon="0.72958">
        <ele>137.8</ele>
        <time>1970-01-01T01:11:02.000Z</time>
      </trkpt>
      <trkpt lat="45.01847" lon="0.72963">
        <ele>137.8</ele>
        <time>1970-01-01T01:11:03.000Z</time>
      </trkpt>
      <trkpt lat="45.01845" lon="0.72968">
        <ele>137.8</ele>
        <time>1970-01-01T01:11:04.000Z</time>
      </trkpt>
      <trkpt lat="45.01844" lon="0.72972">
        <ele>138.8</ele>
        <time>1970-01-01T01:11:05.000Z</time>
      </trkpt>
      <trkpt lat="45.01842" lon="0.72978">
        <ele>138.8</ele>
        <time>1970-01-01T01:11:06.000Z</time>
      </trkpt>
      <trkpt lat="45.01841" lon="0.72983">
        <ele>138.8</ele>
        <time>1970-01-01T01:11:07.000Z</time>
      </trkpt>
      <trkpt lat="45.01839" lon="0.72988">
        <ele>138.8</ele>
        <time>1970-01-01T01:11:08.000Z</time>
      </trkpt>
      <trkpt lat="45.01836" lon="0.72993">
        <ele>138.8</ele>
        <time>1970-01-01T01:11:09.000Z</time>
      </trkpt>
      <trkpt lat="45.01835" lon="0.72998">
        <ele>138.8</ele>
        <time>1970-01-01T01:11:10.000Z</time>
      </trkpt>
      <trkpt lat="45.01833" lon="0.73003">
        <ele>138.8</ele>
        <time>1970-01-01T01:11:11.000Z</time>
      </trkpt>
      <trkpt lat="45.01831" lon="0.73007">
        <ele>138.8</ele>
        <time>1970-01-01T01:11:12.000Z</time>
      </trkpt>
      <trkpt lat="45.0183" lon="0.73011">
        <ele>138.8</ele>
        <time>1970-01-01T01:11:13.000Z</time>
      </trkpt>
      <trkpt lat="45.01829" lon="0.73016">
        <ele>138.8</ele>
        <time>1970-01-01T01:11:14.000Z</time>
      </trkpt>
      <trkpt lat="45.01828" lon="0.73021">
        <ele>138.8</ele>
        <time>1970-01-01T01:11:15.000Z</time>
      </trkpt>
      <trkpt lat="45.01828" lon="0.73025">
        <ele>138.8</ele>
        <time>1970-01-01T01:11:16.000Z</time>
      </trkpt>
      <trkpt lat="45.01828" lon="0.73029">
        <ele>137.8</ele>
        <time>1970-01-01T01:11:17.000Z</time>
      </trkpt>
      <trkpt lat="45.01827" lon="0.73034">
        <ele>137.8</ele>
        <time>1970-01-01T01:11:18.000Z</time>
      </trkpt>
      <trkpt lat="45.01826" lon="0.73038">
        <ele>137.8</ele>
        <time>1970-01-01T01:11:19.000Z</time>
      </trkpt>
      <trkpt lat="45.01826" lon="0.73042">
        <ele>137.8</ele>
        <time>1970-01-01T01:11:20.000Z</time>
      </trkpt>
      <trkpt lat="45.01825" lon="0.73046">
        <ele>137.8</ele>
        <time>1970-01-01T01:11:21.000Z</time>
      </trkpt>
      <trkpt lat="45.01824" lon="0.73049">
        <ele>137.8</ele>
        <time>1970-01-01T01:11:22.000Z</time>
      </trkpt>
      <trkpt lat="45.01822" lon="0.73053">
        <ele>137.8</ele>
        <time>1970-01-01T01:11:23.000Z</time>
      </trkpt>
      <trkpt lat="45.0182" lon="0.73058">
        <ele>137.8</ele>
        <time>1970-01-01T01:11:24.000Z</time>
      </trkpt>
      <trkpt lat="45.01818" lon="0.73062">
        <ele>139.9</ele>
        <time>1970-01-01T01:11:25.000Z</time>
      </trkpt>
      <trkpt lat="45.01816" lon="0.73067">
        <ele>139.9</ele>
        <time>1970-01-01T01:11:26.000Z</time>
      </trkpt>
      <trkpt lat="45.01814" lon="0.73071">
        <ele>139.9</ele>
        <time>1970-01-01T01:11:27.000Z</time>
      </trkpt>
      <trkpt lat="45.01812" lon="0.73076">
        <ele>139.9</ele>
        <time>1970-01-01T01:11:28.000Z</time>
      </trkpt>
      <trkpt lat="45.0181" lon="0.73081">
        <ele>139.9</ele>
        <time>1970-01-01T01:11:29.000Z</time>
      </trkpt>
      <trkpt lat="45.01808" lon="0.73086">
        <ele>139.9</ele>
        <time>1970-01-01T01:11:30.000Z</time>
      </trkpt>
      <trkpt lat="45.01808" lon="0.73091">
        <ele>140.8</ele>
        <time>1970-01-01T01:11:31.000Z</time>
      </trkpt>
      <trkpt lat="45.01808" lon="0.73097">
        <ele>140.8</ele>
        <time>1970-01-01T01:11:32.000Z</time>
      </trkpt>
      <trkpt lat="45.01808" lon="0.73102">
        <ele>140.8</ele>
        <time>1970-01-01T01:11:33.000Z</time>
      </trkpt>
      <trkpt lat="45.01808" lon="0.73108">
        <ele>140.8</ele>
        <time>1970-01-01T01:11:34.000Z</time>
      </trkpt>
      <trkpt lat="45.01808" lon="0.73113">
        <ele>140.8</ele>
        <time>1970-01-01T01:11:35.000Z</time>
      </trkpt>
      <trkpt lat="45.01808" lon="0.73119">
        <ele>140.8</ele>
        <time>1970-01-01T01:11:36.000Z</time>
      </trkpt>
      <trkpt lat="45.01808" lon="0.73124">
        <ele>140.8</ele>
        <time>1970-01-01T01:11:37.000Z</time>
      </trkpt>
      <trkpt lat="45.01806" lon="0.73131">
        <ele>140.8</ele>
        <time>1970-01-01T01:11:38.000Z</time>
      </trkpt>
      <trkpt lat="45.01805" lon="0.73134">
        <ele>140.8</ele>
        <time>1970-01-01T01:11:39.000Z</time>
      </trkpt>
      <trkpt lat="45.01803" lon="0.73139">
        <ele>140.8</ele>
        <time>1970-01-01T01:11:40.000Z</time>
      </trkpt>
      <trkpt lat="45.01802" lon="0.73143">
        <ele>141.9</ele>
        <time>1970-01-01T01:11:41.000Z</time>
      </trkpt>
      <trkpt lat="45.01801" lon="0.73148">
        <ele>141.9</ele>
        <time>1970-01-01T01:11:42.000Z</time>
      </trkpt>
      <trkpt lat="45.018" lon="0.73153">
        <ele>141.9</ele>
        <time>1970-01-01T01:11:43.000Z</time>
      </trkpt>
      <trkpt lat="45.01799" lon="0.73157">
        <ele>141.9</ele>
        <time>1970-01-01T01:11:44.000Z</time>
      </trkpt>
      <trkpt lat="45.01799" lon="0.73162">
        <ele>141.9</ele>
        <time>1970-01-01T01:11:45.000Z</time>
      </trkpt>
      <trkpt lat="45.01799" lon="0.73167">
        <ele>141.9</ele>
        <time>1970-01-01T01:11:46.000Z</time>
      </trkpt>
      <trkpt lat="45.018" lon="0.7317">
        <ele>142.8</ele>
        <time>1970-01-01T01:11:47.000Z</time>
      </trkpt>
      <trkpt lat="45.01801" lon="0.73175">
        <ele>142.8</ele>
        <time>1970-01-01T01:11:48.000Z</time>
      </trkpt>
      <trkpt lat="45.01802" lon="0.73179">
        <ele>142.8</ele>
        <time>1970-01-01T01:11:49.000Z</time>
      </trkpt>
      <trkpt lat="45.01804" lon="0.73182">
        <ele>142.8</ele>
        <time>1970-01-01T01:11:50.000Z</time>
      </trkpt>
      <trkpt lat="45.01805" lon="0.73186">
        <ele>143.9</ele>
        <time>1970-01-01T01:11:51.000Z</time>
      </trkpt>
      <trkpt lat="45.01807" lon="0.73191">
        <ele>143.9</ele>
        <time>1970-01-01T01:11:52.000Z</time>
      </trkpt>
      <trkpt lat="45.01808" lon="0.73196">
        <ele>143.9</ele>
        <time>1970-01-01T01:11:53.000Z</time>
      </trkpt>
      <trkpt lat="45.0181" lon="0.732">
        <ele>143.9</ele>
        <time>1970-01-01T01:11:54.000Z</time>
      </trkpt>
      <trkpt lat="45.01812" lon="0.73204">
        <ele>143.9</ele>
        <time>1970-01-01T01:11:55.000Z</time>
      </trkpt>
      <trkpt lat="45.01814" lon="0.73207">
        <ele>143.9</ele>
        <time>1970-01-01T01:11:56.000Z</time>
      </trkpt>
      <trkpt lat="45.01816" lon="0.73211">
        <ele>143.9</ele>
        <time>1970-01-01T01:11:57.000Z</time>
      </trkpt>
      <trkpt lat="45.01817" lon="0.73213">
        <ele>143.9</ele>
        <time>1970-01-01T01:11:58.000Z</time>
      </trkpt>
      <trkpt lat="45.0182" lon="0.73217">
        <ele>143.9</ele>
        <time>1970-01-01T01:11:59.000Z</time>
      </trkpt>
      <trkpt lat="45.01822" lon="0.7322">
        <ele>143.9</ele>
        <time>1970-01-01T01:12:00.000Z</time>
      </trkpt>
      <trkpt lat="45.01824" lon="0.73222">
        <ele>144.8</ele>
        <time>1970-01-01T01:12:01.000Z</time>
      </trkpt>
      <trkpt lat="45.01826" lon="0.73225">
        <ele>144.8</ele>
        <time>1970-01-01T01:12:02.000Z</time>
      </trkpt>
      <trkpt lat="45.01827" lon="0.73226">
        <ele>144.8</ele>
        <time>1970-01-01T01:12:03.000Z</time>
      </trkpt>
      <trkpt lat="45.01829" lon="0.73228">
        <ele>144.8</ele>
        <time>1970-01-01T01:12:04.000Z</time>
      </trkpt>
      <trkpt lat="45.01831" lon="0.7323">
        <ele>145.8</ele>
        <time>1970-01-01T01:12:05.000Z</time>
      </trkpt>
      <trkpt lat="45.01833" lon="0.73231">
        <ele>145.8</ele>
        <time>1970-01-01T01:12:06.000Z</time>
      </trkpt>
      <trkpt lat="45.01835" lon="0.73232">
        <ele>145.8</ele>
        <time>1970-01-01T01:12:07.000Z</time>
      </trkpt>
      <trkpt lat="45.01837" lon="0.73233">
        <ele>145.8</ele>
        <time>1970-01-01T01:12:08.000Z</time>
      </trkpt>
      <trkpt lat="45.01839" lon="0.73234">
        <ele>146.8</ele>
        <time>1970-01-01T01:12:09.000Z</time>
      </trkpt>
      <trkpt lat="45.0184" lon="0.73235">
        <ele>146.8</ele>
        <time>1970-01-01T01:12:10.000Z</time>
      </trkpt>
      <trkpt lat="45.01842" lon="0.73235">
        <ele>146.8</ele>
        <time>1970-01-01T01:12:11.000Z</time>
      </trkpt>
      <trkpt lat="45.01844" lon="0.73236">
        <ele>146.8</ele>
        <time>1970-01-01T01:12:12.000Z</time>
      </trkpt>
      <trkpt lat="45.01846" lon="0.73236">
        <ele>146.8</ele>
        <time>1970-01-01T01:12:13.000Z</time>
      </trkpt>
      <trkpt lat="45.01848" lon="0.73236">
        <ele>146.8</ele>
        <time>1970-01-01T01:12:14.000Z</time>
      </trkpt>
      <trkpt lat="45.0185" lon="0.73237">
        <ele>146.8</ele>
        <time>1970-01-01T01:12:15.000Z</time>
      </trkpt>
      <trkpt lat="45.01852" lon="0.73237">
        <ele>146.8</ele>
        <time>1970-01-01T01:12:16.000Z</time>
      </trkpt>
      <trkpt lat="45.01854" lon="0.73236">
        <ele>146.8</ele>
        <time>1970-01-01T01:12:17.000Z</time>
      </trkpt>
      <trkpt lat="45.01856" lon="0.73236">
        <ele>146.8</ele>
        <time>1970-01-01T01:12:18.000Z</time>
      </trkpt>
      <trkpt lat="45.01858" lon="0.73236">
        <ele>150.9</ele>
        <time>1970-01-01T01:12:19.000Z</time>
      </trkpt>
      <trkpt lat="45.0186" lon="0.73236">
        <ele>150.9</ele>
        <time>1970-01-01T01:12:20.000Z</time>
      </trkpt>
      <trkpt lat="45.01863" lon="0.73235">
        <ele>151.8</ele>
        <time>1970-01-01T01:12:21.000Z</time>
      </trkpt>
      <trkpt lat="45.01865" lon="0.73235">
        <ele>151.8</ele>
        <time>1970-01-01T01:12:22.000Z</time>
      </trkpt>
      <trkpt lat="45.01867" lon="0.73234">
        <ele>152.9</ele>
        <time>1970-01-01T01:12:23.000Z</time>
      </trkpt>
      <trkpt lat="45.01869" lon="0.73234">
        <ele>152.9</ele>
        <time>1970-01-01T01:12:24.000Z</time>
      </trkpt>
      <trkpt lat="45.01871" lon="0.73233">
        <ele>152.9</ele>
        <time>1970-01-01T01:12:25.000Z</time>
      </trkpt>
      <trkpt lat="45.01873" lon="0.73233">
        <ele>152.9</ele>
        <time>1970-01-01T01:12:26.000Z</time>
      </trkpt>
      <trkpt lat="45.01876" lon="0.73233">
        <ele>153.8</ele>
        <time>1970-01-01T01:12:27.000Z</time>
      </trkpt>
      <trkpt lat="45.01878" lon="0.73233">
        <ele>153.8</ele>
        <time>1970-01-01T01:12:28.000Z</time>
      </trkpt>
      <trkpt lat="45.0188" lon="0.73232">
        <ele>154.8</ele>
        <time>1970-01-01T01:12:29.000Z</time>
      </trkpt>
      <trkpt lat="45.01882" lon="0.73232">
        <ele>154.8</ele>
        <time>1970-01-01T01:12:30.000Z</time>
      </trkpt>
      <trkpt lat="45.01884" lon="0.73231">
        <ele>154.8</ele>
        <time>1970-01-01T01:12:31.000Z</time>
      </trkpt>
      <trkpt lat="45.01886" lon="0.73231">
        <ele>154.8</ele>
        <time>1970-01-01T01:12:32.000Z</time>
      </trkpt>
      <trkpt lat="45.01888" lon="0.73231">
        <ele>155.9</ele>
        <time>1970-01-01T01:12:33.000Z</time>
      </trkpt>
      <trkpt lat="45.0189" lon="0.73231">
        <ele>155.9</ele>
        <time>1970-01-01T01:12:34.000Z</time>
      </trkpt>
      <trkpt lat="45.01892" lon="0.7323">
        <ele>156.8</ele>
        <time>1970-01-01T01:12:35.000Z</time>
      </trkpt>
      <trkpt lat="45.01894" lon="0.7323">
        <ele>156.8</ele>
        <time>1970-01-01T01:12:36.000Z</time>
      </trkpt>
      <trkpt lat="45.01896" lon="0.7323">
        <ele>156.8</ele>
        <time>1970-01-01T01:12:37.000Z</time>
      </trkpt>
      <trkpt lat="45.01898" lon="0.73229">
        <ele>156.8</ele>
        <time>1970-01-01T01:12:38.000Z</time>
      </trkpt>
      <trkpt lat="45.019" lon="0.73229">
        <ele>157.9</ele>
        <time>1970-01-01T01:12:39.000Z</time>
      </trkpt>
      <trkpt lat="45.01902" lon="0.73229">
        <ele>157.9</ele>
        <time>1970-01-01T01:12:40.000Z</time>
      </trkpt>
      <trkpt lat="45.01904" lon="0.73229">
        <ele>157.9</ele>
        <time>1970-01-01T01:12:41.000Z</time>
      </trkpt>
      <trkpt lat="45.01906" lon="0.73229">
        <ele>157.9</ele>
        <time>1970-01-01T01:12:42.000Z</time>
      </trkpt>
      <trkpt lat="45.01908" lon="0.73228">
        <ele>157.9</ele>
        <time>1970-01-01T01:12:43.000Z</time>
      </trkpt>
      <trkpt lat="45.0191" lon="0.73228">
        <ele>157.9</ele>
        <time>1970-01-01T01:12:44.000Z</time>
      </trkpt>
      <trkpt lat="45.01912" lon="0.73228">
        <ele>157.9</ele>
        <time>1970-01-01T01:12:45.000Z</time>
      </trkpt>
      <trkpt lat="45.01914" lon="0.73228">
        <ele>157.9</ele>
        <time>1970-01-01T01:12:46.000Z</time>
      </trkpt>
      <trkpt lat="45.01916" lon="0.73227">
        <ele>158.8</ele>
        <time>1970-01-01T01:12:47.000Z</time>
      </trkpt>
      <trkpt lat="45.01918" lon="0.73227">
        <ele>158.8</ele>
        <time>1970-01-01T01:12:48.000Z</time>
      </trkpt>
      <trkpt lat="45.0192" lon="0.73227">
        <ele>159.9</ele>
        <time>1970-01-01T01:12:49.000Z</time>
      </trkpt>
      <trkpt lat="45.01922" lon="0.73227">
        <ele>159.9</ele>
        <time>1970-01-01T01:12:50.000Z</time>
      </trkpt>
      <trkpt lat="45.01924" lon="0.73227">
        <ele>160.8</ele>
        <time>1970-01-01T01:12:51.000Z</time>
      </trkpt>
      <trkpt lat="45.01926" lon="0.73227">
        <ele>160.8</ele>
        <time>1970-01-01T01:12:52.000Z</time>
      </trkpt>
      <trkpt lat="45.01929" lon="0.73228">
        <ele>160.8</ele>
        <time>1970-01-01T01:12:53.000Z</time>
      </trkpt>
      <trkpt lat="45.01931" lon="0.73228">
        <ele>160.8</ele>
        <time>1970-01-01T01:12:54.000Z</time>
      </trkpt>
      <trkpt lat="45.01933" lon="0.73228">
        <ele>160.8</ele>
        <time>1970-01-01T01:12:55.000Z</time>
      </trkpt>
      <trkpt lat="45.01935" lon="0.73228">
        <ele>160.8</ele>
        <time>1970-01-01T01:12:56.000Z</time>
      </trkpt>
      <trkpt lat="45.01937" lon="0.73228">
        <ele>161.9</ele>
        <time>1970-01-01T01:12:57.000Z</time>
      </trkpt>
      <trkpt lat="45.01939" lon="0.73229">
        <ele>161.9</ele>
        <time>1970-01-01T01:12:58.000Z</time>
      </trkpt>
      <trkpt lat="45.01941" lon="0.73229">
        <ele>161.9</ele>
        <time>1970-01-01T01:12:59.000Z</time>
      </trkpt>
      <trkpt lat="45.01943" lon="0.73229">
        <ele>161.9</ele>
        <time>1970-01-01T01:13:00.000Z</time>
      </trkpt>
      <trkpt lat="45.01946" lon="0.73229">
        <ele>161.9</ele>
        <time>1970-01-01T01:13:01.000Z</time>
      </trkpt>
      <trkpt lat="45.01948" lon="0.7323">
        <ele>161.9</ele>
        <time>1970-01-01T01:13:02.000Z</time>
      </trkpt>
      <trkpt lat="45.0195" lon="0.7323">
        <ele>162.8</ele>
        <time>1970-01-01T01:13:03.000Z</time>
      </trkpt>
      <trkpt lat="45.01952" lon="0.73231">
        <ele>162.8</ele>
        <time>1970-01-01T01:13:04.000Z</time>
      </trkpt>
      <trkpt lat="45.01954" lon="0.73231">
        <ele>162.8</ele>
        <time>1970-01-01T01:13:05.000Z</time>
      </trkpt>
      <trkpt lat="45.01956" lon="0.73232">
        <ele>162.8</ele>
        <time>1970-01-01T01:13:06.000Z</time>
      </trkpt>
      <trkpt lat="45.01958" lon="0.73233">
        <ele>163.8</ele>
        <time>1970-01-01T01:13:07.000Z</time>
      </trkpt>
      <trkpt lat="45.0196" lon="0.73234">
        <ele>163.8</ele>
        <time>1970-01-01T01:13:08.000Z</time>
      </trkpt>
      <trkpt lat="45.01961" lon="0.73235">
        <ele>163.8</ele>
        <time>1970-01-01T01:13:09.000Z</time>
      </trkpt>
      <trkpt lat="45.01963" lon="0.73235">
        <ele>163.8</ele>
        <time>1970-01-01T01:13:10.000Z</time>
      </trkpt>
      <trkpt lat="45.01965" lon="0.73236">
        <ele>164.9</ele>
        <time>1970-01-01T01:13:11.000Z</time>
      </trkpt>
      <trkpt lat="45.01967" lon="0.73237">
        <ele>164.9</ele>
        <time>1970-01-01T01:13:12.000Z</time>
      </trkpt>
      <trkpt lat="45.01969" lon="0.73238">
        <ele>165.8</ele>
        <time>1970-01-01T01:13:13.000Z</time>
      </trkpt>
      <trkpt lat="45.01971" lon="0.73238">
        <ele>165.8</ele>
        <time>1970-01-01T01:13:14.000Z</time>
      </trkpt>
      <trkpt lat="45.01973" lon="0.73239">
        <ele>166.9</ele>
        <time>1970-01-01T01:13:15.000Z</time>
      </trkpt>
      <trkpt lat="45.01975" lon="0.7324">
        <ele>166.9</ele>
        <time>1970-01-01T01:13:16.000Z</time>
      </trkpt>
      <trkpt lat="45.01977" lon="0.7324">
        <ele>166.9</ele>
        <time>1970-01-01T01:13:17.000Z</time>
      </trkpt>
      <trkpt lat="45.01979" lon="0.73241">
        <ele>166.9</ele>
        <time>1970-01-01T01:13:18.000Z</time>
      </trkpt>
      <trkpt lat="45.01981" lon="0.73242">
        <ele>166.9</ele>
        <time>1970-01-01T01:13:19.000Z</time>
      </trkpt>
      <trkpt lat="45.01983" lon="0.73242">
        <ele>166.9</ele>
        <time>1970-01-01T01:13:20.000Z</time>
      </trkpt>
      <trkpt lat="45.01985" lon="0.73243">
        <ele>166.9</ele>
        <time>1970-01-01T01:13:21.000Z</time>
      </trkpt>
      <trkpt lat="45.01987" lon="0.73243">
        <ele>166.9</ele>
        <time>1970-01-01T01:13:22.000Z</time>
      </trkpt>
      <trkpt lat="45.01989" lon="0.73243">
        <ele>166.9</ele>
        <time>1970-01-01T01:13:23.000Z</time>
      </trkpt>
      <trkpt lat="45.01991" lon="0.73244">
        <ele>166.9</ele>
        <time>1970-01-01T01:13:24.000Z</time>
      </trkpt>
      <trkpt lat="45.01993" lon="0.73244">
        <ele>167.8</ele>
        <time>1970-01-01T01:13:25.000Z</time>
      </trkpt>
      <trkpt lat="45.01995" lon="0.73245">
        <ele>167.8</ele>
        <time>1970-01-01T01:13:26.000Z</time>
      </trkpt>
      <trkpt lat="45.01997" lon="0.73245">
        <ele>167.8</ele>
        <time>1970-01-01T01:13:27.000Z</time>
      </trkpt>
      <trkpt lat="45.01999" lon="0.73246">
        <ele>167.8</ele>
        <time>1970-01-01T01:13:28.000Z</time>
      </trkpt>
      <trkpt lat="45.02001" lon="0.73247">
        <ele>168.9</ele>
        <time>1970-01-01T01:13:29.000Z</time>
      </trkpt>
      <trkpt lat="45.02003" lon="0.73247">
        <ele>168.9</ele>
        <time>1970-01-01T01:13:30.000Z</time>
      </trkpt>
      <trkpt lat="45.02004" lon="0.73248">
        <ele>168.9</ele>
        <time>1970-01-01T01:13:31.000Z</time>
      </trkpt>
      <trkpt lat="45.02006" lon="0.73249">
        <ele>168.9</ele>
        <time>1970-01-01T01:13:32.000Z</time>
      </trkpt>
      <trkpt lat="45.02008" lon="0.7325">
        <ele>168.9</ele>
        <time>1970-01-01T01:13:33.000Z</time>
      </trkpt>
      <trkpt lat="45.0201" lon="0.7325">
        <ele>168.9</ele>
        <time>1970-01-01T01:13:34.000Z</time>
      </trkpt>
      <trkpt lat="45.02012" lon="0.73251">
        <ele>169.8</ele>
        <time>1970-01-01T01:13:35.000Z</time>
      </trkpt>
      <trkpt lat="45.02014" lon="0.73253">
        <ele>169.8</ele>
        <time>1970-01-01T01:13:36.000Z</time>
      </trkpt>
      <trkpt lat="45.02016" lon="0.73253">
        <ele>169.8</ele>
        <time>1970-01-01T01:13:37.000Z</time>
      </trkpt>
      <trkpt lat="45.02018" lon="0.73254">
        <ele>169.8</ele>
        <time>1970-01-01T01:13:38.000Z</time>
      </trkpt>
      <trkpt lat="45.0202" lon="0.73255">
        <ele>169.8</ele>
        <time>1970-01-01T01:13:39.000Z</time>
      </trkpt>
      <trkpt lat="45.02022" lon="0.73256">
        <ele>169.8</ele>
        <time>1970-01-01T01:13:40.000Z</time>
      </trkpt>
      <trkpt lat="45.02024" lon="0.73257">
        <ele>171.9</ele>
        <time>1970-01-01T01:13:41.000Z</time>
      </trkpt>
      <trkpt lat="45.02026" lon="0.73258">
        <ele>171.9</ele>
        <time>1970-01-01T01:13:42.000Z</time>
      </trkpt>
      <trkpt lat="45.02028" lon="0.73258">
        <ele>172.8</ele>
        <time>1970-01-01T01:13:43.000Z</time>
      </trkpt>
      <trkpt lat="45.0203" lon="0.73259">
        <ele>172.8</ele>
        <time>1970-01-01T01:13:44.000Z</time>
      </trkpt>
      <trkpt lat="45.02032" lon="0.7326">
        <ele>172.8</ele>
        <time>1970-01-01T01:13:45.000Z</time>
      </trkpt>
      <trkpt lat="45.02034" lon="0.73261">
        <ele>172.8</ele>
        <time>1970-01-01T01:13:46.000Z</time>
      </trkpt>
      <trkpt lat="45.02035" lon="0.73261">
        <ele>173.9</ele>
        <time>1970-01-01T01:13:47.000Z</time>
      </trkpt>
      <trkpt lat="45.02037" lon="0.73262">
        <ele>173.9</ele>
        <time>1970-01-01T01:13:48.000Z</time>
      </trkpt>
      <trkpt lat="45.02039" lon="0.73263">
        <ele>173.9</ele>
        <time>1970-01-01T01:13:49.000Z</time>
      </trkpt>
      <trkpt lat="45.02041" lon="0.73264">
        <ele>173.9</ele>
        <time>1970-01-01T01:13:50.000Z</time>
      </trkpt>
      <trkpt lat="45.02043" lon="0.73264">
        <ele>173.9</ele>
        <time>1970-01-01T01:13:51.000Z</time>
      </trkpt>
      <trkpt lat="45.02045" lon="0.73265">
        <ele>173.9</ele>
        <time>1970-01-01T01:13:52.000Z</time>
      </trkpt>
      <trkpt lat="45.02047" lon="0.73266">
        <ele>174.8</ele>
        <time>1970-01-01T01:13:53.000Z</time>
      </trkpt>
      <trkpt lat="45.02048" lon="0.73266">
        <ele>174.8</ele>
        <time>1970-01-01T01:13:54.000Z</time>
      </trkpt>
      <trkpt lat="45.0205" lon="0.73267">
        <ele>174.8</ele>
        <time>1970-01-01T01:13:55.000Z</time>
      </trkpt>
      <trkpt lat="45.02052" lon="0.73268">
        <ele>174.8</ele>
        <time>1970-01-01T01:13:56.000Z</time>
      </trkpt>
      <trkpt lat="45.02054" lon="0.73268">
        <ele>175.9</ele>
        <time>1970-01-01T01:13:57.000Z</time>
      </trkpt>
      <trkpt lat="45.02055" lon="0.73269">
        <ele>175.9</ele>
        <time>1970-01-01T01:13:58.000Z</time>
      </trkpt>
      <trkpt lat="45.02057" lon="0.7327">
        <ele>176.8</ele>
        <time>1970-01-01T01:13:59.000Z</time>
      </trkpt>
      <trkpt lat="45.02059" lon="0.7327">
        <ele>176.8</ele>
        <time>1970-01-01T01:14:00.000Z</time>
      </trkpt>
      <trkpt lat="45.02061" lon="0.73271">
        <ele>176.8</ele>
        <time>1970-01-01T01:14:01.000Z</time>
      </trkpt>
      <trkpt lat="45.02063" lon="0.73272">
        <ele>176.8</ele>
        <time>1970-01-01T01:14:02.000Z</time>
      </trkpt>
      <trkpt lat="45.02064" lon="0.73273">
        <ele>177.9</ele>
        <time>1970-01-01T01:14:03.000Z</time>
      </trkpt>
      <trkpt lat="45.02066" lon="0.73273">
        <ele>177.9</ele>
        <time>1970-01-01T01:14:04.000Z</time>
      </trkpt>
      <trkpt lat="45.02068" lon="0.73274">
        <ele>177.9</ele>
        <time>1970-01-01T01:14:05.000Z</time>
      </trkpt>
      <trkpt lat="45.0207" lon="0.73275">
        <ele>177.9</ele>
        <time>1970-01-01T01:14:06.000Z</time>
      </trkpt>
      <trkpt lat="45.02071" lon="0.73275">
        <ele>178.8</ele>
        <time>1970-01-01T01:14:07.000Z</time>
      </trkpt>
      <trkpt lat="45.02073" lon="0.73276">
        <ele>178.8</ele>
        <time>1970-01-01T01:14:08.000Z</time>
      </trkpt>
      <trkpt lat="45.02075" lon="0.73276">
        <ele>178.8</ele>
        <time>1970-01-01T01:14:09.000Z</time>
      </trkpt>
      <trkpt lat="45.02077" lon="0.73277">
        <ele>178.8</ele>
        <time>1970-01-01T01:14:10.000Z</time>
      </trkpt>
      <trkpt lat="45.02079" lon="0.73277">
        <ele>179.8</ele>
        <time>1970-01-01T01:14:11.000Z</time>
      </trkpt>
      <trkpt lat="45.02081" lon="0.73278">
        <ele>179.8</ele>
        <time>1970-01-01T01:14:12.000Z</time>
      </trkpt>
      <trkpt lat="45.02083" lon="0.73278">
        <ele>180.9</ele>
        <time>1970-01-01T01:14:13.000Z</time>
      </trkpt>
      <trkpt lat="45.02085" lon="0.73279">
        <ele>180.9</ele>
        <time>1970-01-01T01:14:14.000Z</time>
      </trkpt>
      <trkpt lat="45.02087" lon="0.73279">
        <ele>180.9</ele>
        <time>1970-01-01T01:14:15.000Z</time>
      </trkpt>
      <trkpt lat="45.02089" lon="0.7328">
        <ele>180.9</ele>
        <time>1970-01-01T01:14:16.000Z</time>
      </trkpt>
      <trkpt lat="45.02091" lon="0.7328">
        <ele>180.9</ele>
        <time>1970-01-01T01:14:17.000Z</time>
      </trkpt>
      <trkpt lat="45.02093" lon="0.73281">
        <ele>180.9</ele>
        <time>1970-01-01T01:14:18.000Z</time>
      </trkpt>
      <trkpt lat="45.02095" lon="0.73282">
        <ele>180.9</ele>
        <time>1970-01-01T01:14:19.000Z</time>
      </trkpt>
      <trkpt lat="45.02097" lon="0.73282">
        <ele>180.9</ele>
        <time>1970-01-01T01:14:20.000Z</time>
      </trkpt>
      <trkpt lat="45.02099" lon="0.73283">
        <ele>180.9</ele>
        <time>1970-01-01T01:14:21.000Z</time>
      </trkpt>
      <trkpt lat="45.02101" lon="0.73283">
        <ele>180.9</ele>
        <time>1970-01-01T01:14:22.000Z</time>
      </trkpt>
      <trkpt lat="45.02103" lon="0.73284">
        <ele>181.8</ele>
        <time>1970-01-01T01:14:23.000Z</time>
      </trkpt>
      <trkpt lat="45.02105" lon="0.73284">
        <ele>181.8</ele>
        <time>1970-01-01T01:14:24.000Z</time>
      </trkpt>
      <trkpt lat="45.02108" lon="0.73285">
        <ele>181.8</ele>
        <time>1970-01-01T01:14:25.000Z</time>
      </trkpt>
      <trkpt lat="45.0211" lon="0.73285">
        <ele>181.8</ele>
        <time>1970-01-01T01:14:26.000Z</time>
      </trkpt>
      <trkpt lat="45.02112" lon="0.73286">
        <ele>181.8</ele>
        <time>1970-01-01T01:14:27.000Z</time>
      </trkpt>
      <trkpt lat="45.02115" lon="0.73286">
        <ele>181.8</ele>
        <time>1970-01-01T01:14:28.000Z</time>
      </trkpt>
      <trkpt lat="45.02117" lon="0.73287">
        <ele>181.8</ele>
        <time>1970-01-01T01:14:29.000Z</time>
      </trkpt>
      <trkpt lat="45.02119" lon="0.73288">
        <ele>181.8</ele>
        <time>1970-01-01T01:14:30.000Z</time>
      </trkpt>
      <trkpt lat="45.02122" lon="0.73288">
        <ele>181.8</ele>
        <time>1970-01-01T01:14:31.000Z</time>
      </trkpt>
      <trkpt lat="45.02124" lon="0.73289">
        <ele>181.8</ele>
        <time>1970-01-01T01:14:32.000Z</time>
      </trkpt>
      <trkpt lat="45.02127" lon="0.73289">
        <ele>181.8</ele>
        <time>1970-01-01T01:14:33.000Z</time>
      </trkpt>
      <trkpt lat="45.0213" lon="0.73289">
        <ele>181.8</ele>
        <time>1970-01-01T01:14:34.000Z</time>
      </trkpt>
      <trkpt lat="45.02132" lon="0.73289">
        <ele>181.8</ele>
        <time>1970-01-01T01:14:35.000Z</time>
      </trkpt>
      <trkpt lat="45.02135" lon="0.73289">
        <ele>181.8</ele>
        <time>1970-01-01T01:14:36.000Z</time>
      </trkpt>
      <trkpt lat="45.02138" lon="0.73289">
        <ele>182.9</ele>
        <time>1970-01-01T01:14:37.000Z</time>
      </trkpt>
      <trkpt lat="45.02141" lon="0.73289">
        <ele>182.9</ele>
        <time>1970-01-01T01:14:38.000Z</time>
      </trkpt>
      <trkpt lat="45.02145" lon="0.73289">
        <ele>182.9</ele>
        <time>1970-01-01T01:14:39.000Z</time>
      </trkpt>
      <trkpt lat="45.02148" lon="0.73289">
        <ele>182.9</ele>
        <time>1970-01-01T01:14:40.000Z</time>
      </trkpt>
      <trkpt lat="45.02151" lon="0.73289">
        <ele>182.9</ele>
        <time>1970-01-01T01:14:41.000Z</time>
      </trkpt>
      <trkpt lat="45.02155" lon="0.73289">
        <ele>182.9</ele>
        <time>1970-01-01T01:14:42.000Z</time>
      </trkpt>
      <trkpt lat="45.02158" lon="0.73291">
        <ele>182.9</ele>
        <time>1970-01-01T01:14:43.000Z</time>
      </trkpt>
      <trkpt lat="45.02162" lon="0.73294">
        <ele>182.9</ele>
        <time>1970-01-01T01:14:44.000Z</time>
      </trkpt>
      <trkpt lat="45.02165" lon="0.73298">
        <ele>181.8</ele>
        <time>1970-01-01T01:14:45.000Z</time>
      </trkpt>
      <trkpt lat="45.02169" lon="0.73302">
        <ele>181.8</ele>
        <time>1970-01-01T01:14:46.000Z</time>
      </trkpt>
      <trkpt lat="45.02173" lon="0.73307">
        <ele>181.8</ele>
        <time>1970-01-01T01:14:47.000Z</time>
      </trkpt>
      <trkpt lat="45.02177" lon="0.73312">
        <ele>181.8</ele>
        <time>1970-01-01T01:14:48.000Z</time>
      </trkpt>
      <trkpt lat="45.0218" lon="0.73318">
        <ele>181.8</ele>
        <time>1970-01-01T01:14:49.000Z</time>
      </trkpt>
      <trkpt lat="45.02183" lon="0.73325">
        <ele>181.8</ele>
        <time>1970-01-01T01:14:50.000Z</time>
      </trkpt>
      <trkpt lat="45.02187" lon="0.73332">
        <ele>180.9</ele>
        <time>1970-01-01T01:14:51.000Z</time>
      </trkpt>
      <trkpt lat="45.0219" lon="0.73339">
        <ele>180.9</ele>
        <time>1970-01-01T01:14:52.000Z</time>
      </trkpt>
      <trkpt lat="45.02194" lon="0.73346">
        <ele>180.9</ele>
        <time>1970-01-01T01:14:53.000Z</time>
      </trkpt>
      <trkpt lat="45.02199" lon="0.73353">
        <ele>180.9</ele>
        <time>1970-01-01T01:14:54.000Z</time>
      </trkpt>
      <trkpt lat="45.02204" lon="0.73358">
        <ele>179.8</ele>
        <time>1970-01-01T01:14:55.000Z</time>
      </trkpt>
      <trkpt lat="45.02208" lon="0.73362">
        <ele>179.8</ele>
        <time>1970-01-01T01:14:56.000Z</time>
      </trkpt>
      <trkpt lat="45.02214" lon="0.73365">
        <ele>179.8</ele>
        <time>1970-01-01T01:14:57.000Z</time>
      </trkpt>
      <trkpt lat="45.0222" lon="0.73368">
        <ele>179.8</ele>
        <time>1970-01-01T01:14:58.000Z</time>
      </trkpt>
      <trkpt lat="45.02226" lon="0.73371">
        <ele>178.8</ele>
        <time>1970-01-01T01:14:59.000Z</time>
      </trkpt>
      <trkpt lat="45.02233" lon="0.73373">
        <ele>178.8</ele>
        <time>1970-01-01T01:15:00.000Z</time>
      </trkpt>
      <trkpt lat="45.02238" lon="0.73375">
        <ele>178.8</ele>
        <time>1970-01-01T01:15:01.000Z</time>
      </trkpt>
      <trkpt lat="45.02244" lon="0.73376">
        <ele>178.8</ele>
        <time>1970-01-01T01:15:02.000Z</time>
      </trkpt>
      <trkpt lat="45.02249" lon="0.73378">
        <ele>177.9</ele>
        <time>1970-01-01T01:15:03.000Z</time>
      </trkpt>
      <trkpt lat="45.02255" lon="0.7338">
        <ele>177.9</ele>
        <time>1970-01-01T01:15:04.000Z</time>
      </trkpt>
      <trkpt lat="45.0226" lon="0.73382">
        <ele>177.9</ele>
        <time>1970-01-01T01:15:05.000Z</time>
      </trkpt>
      <trkpt lat="45.02267" lon="0.73385">
        <ele>177.9</ele>
        <time>1970-01-01T01:15:06.000Z</time>
      </trkpt>
      <trkpt lat="45.02271" lon="0.73387">
        <ele>177.9</ele>
        <time>1970-01-01T01:15:07.000Z</time>
      </trkpt>
      <trkpt lat="45.02277" lon="0.7339">
        <ele>177.9</ele>
        <time>1970-01-01T01:15:08.000Z</time>
      </trkpt>
      <trkpt lat="45.02283" lon="0.73392">
        <ele>177.9</ele>
        <time>1970-01-01T01:15:09.000Z</time>
      </trkpt>
      <trkpt lat="45.02288" lon="0.73393">
        <ele>177.9</ele>
        <time>1970-01-01T01:15:10.000Z</time>
      </trkpt>
      <trkpt lat="45.02294" lon="0.73396">
        <ele>177.9</ele>
        <time>1970-01-01T01:15:11.000Z</time>
      </trkpt>
      <trkpt lat="45.02299" lon="0.73398">
        <ele>177.9</ele>
        <time>1970-01-01T01:15:12.000Z</time>
      </trkpt>
      <trkpt lat="45.02305" lon="0.73399">
        <ele>177.9</ele>
        <time>1970-01-01T01:15:13.000Z</time>
      </trkpt>
      <trkpt lat="45.0231" lon="0.73401">
        <ele>177.9</ele>
        <time>1970-01-01T01:15:14.000Z</time>
      </trkpt>
      <trkpt lat="45.02315" lon="0.73402">
        <ele>177.9</ele>
        <time>1970-01-01T01:15:15.000Z</time>
      </trkpt>
      <trkpt lat="45.0232" lon="0.73404">
        <ele>177.9</ele>
        <time>1970-01-01T01:15:16.000Z</time>
      </trkpt>
      <trkpt lat="45.02325" lon="0.73405">
        <ele>177.9</ele>
        <time>1970-01-01T01:15:17.000Z</time>
      </trkpt>
      <trkpt lat="45.02329" lon="0.73407">
        <ele>177.9</ele>
        <time>1970-01-01T01:15:18.000Z</time>
      </trkpt>
      <trkpt lat="45.02334" lon="0.73408">
        <ele>177.9</ele>
        <time>1970-01-01T01:15:19.000Z</time>
      </trkpt>
      <trkpt lat="45.02339" lon="0.7341">
        <ele>177.9</ele>
        <time>1970-01-01T01:15:20.000Z</time>
      </trkpt>
      <trkpt lat="45.02344" lon="0.73412">
        <ele>178.8</ele>
        <time>1970-01-01T01:15:21.000Z</time>
      </trkpt>
      <trkpt lat="45.02349" lon="0.73414">
        <ele>178.8</ele>
        <time>1970-01-01T01:15:22.000Z</time>
      </trkpt>
      <trkpt lat="45.02353" lon="0.73416">
        <ele>178.8</ele>
        <time>1970-01-01T01:15:23.000Z</time>
      </trkpt>
      <trkpt lat="45.02358" lon="0.73419">
        <ele>178.8</ele>
        <time>1970-01-01T01:15:24.000Z</time>
      </trkpt>
      <trkpt lat="45.02362" lon="0.73422">
        <ele>178.8</ele>
        <time>1970-01-01T01:15:25.000Z</time>
      </trkpt>
      <trkpt lat="45.02365" lon="0.73425">
        <ele>178.8</ele>
        <time>1970-01-01T01:15:26.000Z</time>
      </trkpt>
      <trkpt lat="45.02369" lon="0.73428">
        <ele>178.8</ele>
        <time>1970-01-01T01:15:27.000Z</time>
      </trkpt>
      <trkpt lat="45.02372" lon="0.7343">
        <ele>178.8</ele>
        <time>1970-01-01T01:15:28.000Z</time>
      </trkpt>
      <trkpt lat="45.02377" lon="0.73432">
        <ele>179.8</ele>
        <time>1970-01-01T01:15:29.000Z</time>
      </trkpt>
      <trkpt lat="45.02381" lon="0.73433">
        <ele>179.8</ele>
        <time>1970-01-01T01:15:30.000Z</time>
      </trkpt>
      <trkpt lat="45.02386" lon="0.73433">
        <ele>179.8</ele>
        <time>1970-01-01T01:15:31.000Z</time>
      </trkpt>
      <trkpt lat="45.02391" lon="0.73434">
        <ele>179.8</ele>
        <time>1970-01-01T01:15:32.000Z</time>
      </trkpt>
      <trkpt lat="45.02396" lon="0.73435">
        <ele>179.8</ele>
        <time>1970-01-01T01:15:33.000Z</time>
      </trkpt>
      <trkpt lat="45.02401" lon="0.73436">
        <ele>179.8</ele>
        <time>1970-01-01T01:15:34.000Z</time>
      </trkpt>
      <trkpt lat="45.02406" lon="0.73439">
        <ele>179.8</ele>
        <time>1970-01-01T01:15:35.000Z</time>
      </trkpt>
      <trkpt lat="45.02411" lon="0.73443">
        <ele>179.8</ele>
        <time>1970-01-01T01:15:36.000Z</time>
      </trkpt>
      <trkpt lat="45.02416" lon="0.73447">
        <ele>179.8</ele>
        <time>1970-01-01T01:15:37.000Z</time>
      </trkpt>
      <trkpt lat="45.02421" lon="0.73453">
        <ele>179.8</ele>
        <time>1970-01-01T01:15:38.000Z</time>
      </trkpt>
      <trkpt lat="45.02426" lon="0.73458">
        <ele>175.9</ele>
        <time>1970-01-01T01:15:39.000Z</time>
      </trkpt>
      <trkpt lat="45.02432" lon="0.73464">
        <ele>175.9</ele>
        <time>1970-01-01T01:15:40.000Z</time>
      </trkpt>
      <trkpt lat="45.02438" lon="0.73469">
        <ele>175.9</ele>
        <time>1970-01-01T01:15:41.000Z</time>
      </trkpt>
      <trkpt lat="45.02444" lon="0.73475">
        <ele>175.9</ele>
        <time>1970-01-01T01:15:42.000Z</time>
      </trkpt>
      <trkpt lat="45.02452" lon="0.73481">
        <ele>175.9</ele>
        <time>1970-01-01T01:15:43.000Z</time>
      </trkpt>
      <trkpt lat="45.02461" lon="0.73488">
        <ele>175.9</ele>
        <time>1970-01-01T01:15:44.000Z</time>
      </trkpt>
      <trkpt lat="45.0247" lon="0.73495">
        <ele>167.8</ele>
        <time>1970-01-01T01:15:45.000Z</time>
      </trkpt>
      <trkpt lat="45.0248" lon="0.73501">
        <ele>167.8</ele>
        <time>1970-01-01T01:15:46.000Z</time>
      </trkpt>
      <trkpt lat="45.0249" lon="0.73507">
        <ele>164.9</ele>
        <time>1970-01-01T01:15:47.000Z</time>
      </trkpt>
      <trkpt lat="45.02502" lon="0.73513">
        <ele>164.9</ele>
        <time>1970-01-01T01:15:48.000Z</time>
      </trkpt>
      <trkpt lat="45.02513" lon="0.73518">
        <ele>161.9</ele>
        <time>1970-01-01T01:15:49.000Z</time>
      </trkpt>
      <trkpt lat="45.02524" lon="0.73522">
        <ele>161.9</ele>
        <time>1970-01-01T01:15:50.000Z</time>
      </trkpt>
      <trkpt lat="45.02535" lon="0.73526">
        <ele>158.8</ele>
        <time>1970-01-01T01:15:51.000Z</time>
      </trkpt>
      <trkpt lat="45.02546" lon="0.7353">
        <ele>158.8</ele>
        <time>1970-01-01T01:15:52.000Z</time>
      </trkpt>
      <trkpt lat="45.02556" lon="0.73534">
        <ele>154.8</ele>
        <time>1970-01-01T01:15:53.000Z</time>
      </trkpt>
      <trkpt lat="45.02566" lon="0.73539">
        <ele>154.8</ele>
        <time>1970-01-01T01:15:54.000Z</time>
      </trkpt>
      <trkpt lat="45.02575" lon="0.73543">
        <ele>152.9</ele>
        <time>1970-01-01T01:15:55.000Z</time>
      </trkpt>
      <trkpt lat="45.02586" lon="0.73548">
        <ele>152.9</ele>
        <time>1970-01-01T01:15:56.000Z</time>
      </trkpt>
      <trkpt lat="45.02596" lon="0.73553">
        <ele>149.8</ele>
        <time>1970-01-01T01:15:57.000Z</time>
      </trkpt>
      <trkpt lat="45.02606" lon="0.73559">
        <ele>149.8</ele>
        <time>1970-01-01T01:15:58.000Z</time>
      </trkpt>
      <trkpt lat="45.02614" lon="0.73566">
        <ele>146.8</ele>
        <time>1970-01-01T01:15:59.000Z</time>
      </trkpt>
      <trkpt lat="45.02623" lon="0.73574">
        <ele>146.8</ele>
        <time>1970-01-01T01:16:00.000Z</time>
      </trkpt>
      <trkpt lat="45.02632" lon="0.73582">
        <ele>143.9</ele>
        <time>1970-01-01T01:16:01.000Z</time>
      </trkpt>
      <trkpt lat="45.02641" lon="0.73588">
        <ele>143.9</ele>
        <time>1970-01-01T01:16:02.000Z</time>
      </trkpt>
      <trkpt lat="45.02648" lon="0.73591">
        <ele>142.8</ele>
        <time>1970-01-01T01:16:03.000Z</time>
      </trkpt>
      <trkpt lat="45.02655" lon="0.73591">
        <ele>142.8</ele>
        <time>1970-01-01T01:16:04.000Z</time>
      </trkpt>
      <trkpt lat="45.02661" lon="0.73587">
        <ele>139.9</ele>
        <time>1970-01-01T01:16:05.000Z</time>
      </trkpt>
      <trkpt lat="45.02668" lon="0.73583">
        <ele>139.9</ele>
        <time>1970-01-01T01:16:06.000Z</time>
      </trkpt>
      <trkpt lat="45.02674" lon="0.73577">
        <ele>137.8</ele>
        <time>1970-01-01T01:16:07.000Z</time>
      </trkpt>
      <trkpt lat="45.02681" lon="0.7357">
        <ele>137.8</ele>
        <time>1970-01-01T01:16:08.000Z</time>
      </trkpt>
      <trkpt lat="45.02688" lon="0.73562">
        <ele>135.8</ele>
        <time>1970-01-01T01:16:09.000Z</time>
      </trkpt>
      <trkpt lat="45.02695" lon="0.73554">
        <ele>135.8</ele>
        <time>1970-01-01T01:16:10.000Z</time>
      </trkpt>
      <trkpt lat="45.02702" lon="0.73546">
        <ele>132.9</ele>
        <time>1970-01-01T01:16:11.000Z</time>
      </trkpt>
      <trkpt lat="45.0271" lon="0.73538">
        <ele>132.9</ele>
        <time>1970-01-01T01:16:12.000Z</time>
      </trkpt>
      <trkpt lat="45.02717" lon="0.73528">
        <ele>128.8</ele>
        <time>1970-01-01T01:16:13.000Z</time>
      </trkpt>
      <trkpt lat="45.02724" lon="0.73517">
        <ele>128.8</ele>
        <time>1970-01-01T01:16:14.000Z</time>
      </trkpt>
      <trkpt lat="45.02732" lon="0.73505">
        <ele>123.9</ele>
        <time>1970-01-01T01:16:15.000Z</time>
      </trkpt>
      <trkpt lat="45.0274" lon="0.73492">
        <ele>123.9</ele>
        <time>1970-01-01T01:16:16.000Z</time>
      </trkpt>
      <trkpt lat="45.0275" lon="0.73476">
        <ele>119.8</ele>
        <time>1970-01-01T01:16:17.000Z</time>
      </trkpt>
      <trkpt lat="45.0276" lon="0.73463">
        <ele>119.8</ele>
        <time>1970-01-01T01:16:18.000Z</time>
      </trkpt>
      <trkpt lat="45.02771" lon="0.73451">
        <ele>116.9</ele>
        <time>1970-01-01T01:16:19.000Z</time>
      </trkpt>
      <trkpt lat="45.02779" lon="0.73443">
        <ele>116.9</ele>
        <time>1970-01-01T01:16:20.000Z</time>
      </trkpt>
      <trkpt lat="45.02787" lon="0.73436">
        <ele>112.8</ele>
        <time>1970-01-01T01:16:21.000Z</time>
      </trkpt>
      <trkpt lat="45.02795" lon="0.73432">
        <ele>112.8</ele>
        <time>1970-01-01T01:16:22.000Z</time>
      </trkpt>
      <trkpt lat="45.02802" lon="0.73429">
        <ele>109.9</ele>
        <time>1970-01-01T01:16:23.000Z</time>
      </trkpt>
      <trkpt lat="45.02808" lon="0.7343">
        <ele>109.9</ele>
        <time>1970-01-01T01:16:24.000Z</time>
      </trkpt>
      <trkpt lat="45.02812" lon="0.73432">
        <ele>108.8</ele>
        <time>1970-01-01T01:16:25.000Z</time>
      </trkpt>
      <trkpt lat="45.02816" lon="0.73439">
        <ele>108.8</ele>
        <time>1970-01-01T01:16:26.000Z</time>
      </trkpt>
      <trkpt lat="45.02819" lon="0.73444">
        <ele>108.8</ele>
        <time>1970-01-01T01:16:27.000Z</time>
      </trkpt>
      <trkpt lat="45.02822" lon="0.73449">
        <ele>108.8</ele>
        <time>1970-01-01T01:16:28.000Z</time>
      </trkpt>
      <trkpt lat="45.02826" lon="0.73454">
        <ele>107.9</ele>
        <time>1970-01-01T01:16:29.000Z</time>
      </trkpt>
      <trkpt lat="45.02829" lon="0.73459">
        <ele>107.9</ele>
        <time>1970-01-01T01:16:30.000Z</time>
      </trkpt>
      <trkpt lat="45.02832" lon="0.73463">
        <ele>107.9</ele>
        <time>1970-01-01T01:16:31.000Z</time>
      </trkpt>
      <trkpt lat="45.02834" lon="0.73468">
        <ele>107.9</ele>
        <time>1970-01-01T01:16:32.000Z</time>
      </trkpt>
      <trkpt lat="45.02837" lon="0.73472">
        <ele>107.9</ele>
        <time>1970-01-01T01:16:33.000Z</time>
      </trkpt>
      <trkpt lat="45.02841" lon="0.73477">
        <ele>107.9</ele>
        <time>1970-01-01T01:16:34.000Z</time>
      </trkpt>
      <trkpt lat="45.02844" lon="0.73483">
        <ele>107.9</ele>
        <time>1970-01-01T01:16:35.000Z</time>
      </trkpt>
      <trkpt lat="45.02847" lon="0.73487">
        <ele>107.9</ele>
        <time>1970-01-01T01:16:36.000Z</time>
      </trkpt>
      <trkpt lat="45.02851" lon="0.73492">
        <ele>106.8</ele>
        <time>1970-01-01T01:16:37.000Z</time>
      </trkpt>
      <trkpt lat="45.02854" lon="0.73496">
        <ele>106.8</ele>
        <time>1970-01-01T01:16:38.000Z</time>
      </trkpt>
      <trkpt lat="45.02858" lon="0.735">
        <ele>106.8</ele>
        <time>1970-01-01T01:16:39.000Z</time>
      </trkpt>
      <trkpt lat="45.02861" lon="0.73504">
        <ele>106.8</ele>
        <time>1970-01-01T01:16:40.000Z</time>
      </trkpt>
      <trkpt lat="45.02865" lon="0.73509">
        <ele>106.8</ele>
        <time>1970-01-01T01:16:41.000Z</time>
      </trkpt>
      <trkpt lat="45.02869" lon="0.73513">
        <ele>106.8</ele>
        <time>1970-01-01T01:16:42.000Z</time>
      </trkpt>
      <trkpt lat="45.02872" lon="0.73517">
        <ele>106.8</ele>
        <time>1970-01-01T01:16:43.000Z</time>
      </trkpt>
      <trkpt lat="45.02875" lon="0.73522">
        <ele>106.8</ele>
        <time>1970-01-01T01:16:44.000Z</time>
      </trkpt>
      <trkpt lat="45.02878" lon="0.73526">
        <ele>107.9</ele>
        <time>1970-01-01T01:16:45.000Z</time>
      </trkpt>
      <trkpt lat="45.02882" lon="0.7353">
        <ele>107.9</ele>
        <time>1970-01-01T01:16:46.000Z</time>
      </trkpt>
      <trkpt lat="45.02885" lon="0.73534">
        <ele>107.9</ele>
        <time>1970-01-01T01:16:47.000Z</time>
      </trkpt>
      <trkpt lat="45.02889" lon="0.73539">
        <ele>107.9</ele>
        <time>1970-01-01T01:16:48.000Z</time>
      </trkpt>
      <trkpt lat="45.02893" lon="0.73543">
        <ele>107.9</ele>
        <time>1970-01-01T01:16:49.000Z</time>
      </trkpt>
      <trkpt lat="45.02897" lon="0.73548">
        <ele>107.9</ele>
        <time>1970-01-01T01:16:50.000Z</time>
      </trkpt>
      <trkpt lat="45.02901" lon="0.73552">
        <ele>107.9</ele>
        <time>1970-01-01T01:16:51.000Z</time>
      </trkpt>
      <trkpt lat="45.02904" lon="0.73557">
        <ele>107.9</ele>
        <time>1970-01-01T01:16:52.000Z</time>
      </trkpt>
      <trkpt lat="45.02908" lon="0.73561">
        <ele>107.9</ele>
        <time>1970-01-01T01:16:53.000Z</time>
      </trkpt>
      <trkpt lat="45.02912" lon="0.73566">
        <ele>107.9</ele>
        <time>1970-01-01T01:16:54.000Z</time>
      </trkpt>
      <trkpt lat="45.02916" lon="0.7357">
        <ele>107.9</ele>
        <time>1970-01-01T01:16:55.000Z</time>
      </trkpt>
      <trkpt lat="45.0292" lon="0.73574">
        <ele>107.9</ele>
        <time>1970-01-01T01:16:56.000Z</time>
      </trkpt>
      <trkpt lat="45.02924" lon="0.73578">
        <ele>107.9</ele>
        <time>1970-01-01T01:16:57.000Z</time>
      </trkpt>
      <trkpt lat="45.02927" lon="0.73582">
        <ele>107.9</ele>
        <time>1970-01-01T01:16:58.000Z</time>
      </trkpt>
      <trkpt lat="45.02931" lon="0.73585">
        <ele>107.9</ele>
        <time>1970-01-01T01:16:59.000Z</time>
      </trkpt>
      <trkpt lat="45.02935" lon="0.73589">
        <ele>107.9</ele>
        <time>1970-01-01T01:17:00.000Z</time>
      </trkpt>
      <trkpt lat="45.02938" lon="0.73592">
        <ele>107.9</ele>
        <time>1970-01-01T01:17:01.000Z</time>
      </trkpt>
      <trkpt lat="45.02942" lon="0.73596">
        <ele>107.9</ele>
        <time>1970-01-01T01:17:02.000Z</time>
      </trkpt>
      <trkpt lat="45.02945" lon="0.736">
        <ele>107.9</ele>
        <time>1970-01-01T01:17:03.000Z</time>
      </trkpt>
      <trkpt lat="45.02949" lon="0.73603">
        <ele>107.9</ele>
        <time>1970-01-01T01:17:04.000Z</time>
      </trkpt>
      <trkpt lat="45.02953" lon="0.73607">
        <ele>107.9</ele>
        <time>1970-01-01T01:17:05.000Z</time>
      </trkpt>
      <trkpt lat="45.02956" lon="0.7361">
        <ele>107.9</ele>
        <time>1970-01-01T01:17:06.000Z</time>
      </trkpt>
      <trkpt lat="45.0296" lon="0.73614">
        <ele>107.9</ele>
        <time>1970-01-01T01:17:07.000Z</time>
      </trkpt>
      <trkpt lat="45.02963" lon="0.73617">
        <ele>107.9</ele>
        <time>1970-01-01T01:17:08.000Z</time>
      </trkpt>
      <trkpt lat="45.02966" lon="0.7362">
        <ele>108.8</ele>
        <time>1970-01-01T01:17:09.000Z</time>
      </trkpt>
      <trkpt lat="45.02969" lon="0.73623">
        <ele>108.8</ele>
        <time>1970-01-01T01:17:10.000Z</time>
      </trkpt>
      <trkpt lat="45.02971" lon="0.73625">
        <ele>108.8</ele>
        <time>1970-01-01T01:17:11.000Z</time>
      </trkpt>
      <trkpt lat="45.02974" lon="0.73627">
        <ele>108.8</ele>
        <time>1970-01-01T01:17:12.000Z</time>
      </trkpt>
      <trkpt lat="45.02977" lon="0.73627">
        <ele>108.8</ele>
        <time>1970-01-01T01:17:13.000Z</time>
      </trkpt>
      <trkpt lat="45.0298" lon="0.73627">
        <ele>108.8</ele>
        <time>1970-01-01T01:17:14.000Z</time>
      </trkpt>
      <trkpt lat="45.02983" lon="0.73624">
        <ele>108.8</ele>
        <time>1970-01-01T01:17:15.000Z</time>
      </trkpt>
      <trkpt lat="45.02987" lon="0.73621">
        <ele>108.8</ele>
        <time>1970-01-01T01:17:16.000Z</time>
      </trkpt>
      <trkpt lat="45.0299" lon="0.73617">
        <ele>108.8</ele>
        <time>1970-01-01T01:17:17.000Z</time>
      </trkpt>
      <trkpt lat="45.02993" lon="0.73612">
        <ele>108.8</ele>
        <time>1970-01-01T01:17:18.000Z</time>
      </trkpt>
      <trkpt lat="45.02996" lon="0.73606">
        <ele>108.8</ele>
        <time>1970-01-01T01:17:19.000Z</time>
      </trkpt>
      <trkpt lat="45.03" lon="0.73601">
        <ele>108.8</ele>
        <time>1970-01-01T01:17:20.000Z</time>
      </trkpt>
      <trkpt lat="45.03003" lon="0.73595">
        <ele>108.8</ele>
        <time>1970-01-01T01:17:21.000Z</time>
      </trkpt>
      <trkpt lat="45.03006" lon="0.7359">
        <ele>108.8</ele>
        <time>1970-01-01T01:17:22.000Z</time>
      </trkpt>
      <trkpt lat="45.03009" lon="0.73584">
        <ele>108.8</ele>
        <time>1970-01-01T01:17:23.000Z</time>
      </trkpt>
      <trkpt lat="45.03013" lon="0.73578">
        <ele>108.8</ele>
        <time>1970-01-01T01:17:24.000Z</time>
      </trkpt>
      <trkpt lat="45.03016" lon="0.73573">
        <ele>108.8</ele>
        <time>1970-01-01T01:17:25.000Z</time>
      </trkpt>
      <trkpt lat="45.03019" lon="0.73567">
        <ele>108.8</ele>
        <time>1970-01-01T01:17:26.000Z</time>
      </trkpt>
      <trkpt lat="45.03021" lon="0.73562">
        <ele>109.9</ele>
        <time>1970-01-01T01:17:27.000Z</time>
      </trkpt>
      <trkpt lat="45.03024" lon="0.73556">
        <ele>109.9</ele>
        <time>1970-01-01T01:17:28.000Z</time>
      </trkpt>
      <trkpt lat="45.03027" lon="0.73551">
        <ele>109.9</ele>
        <time>1970-01-01T01:17:29.000Z</time>
      </trkpt>
      <trkpt lat="45.0303" lon="0.73545">
        <ele>109.9</ele>
        <time>1970-01-01T01:17:30.000Z</time>
      </trkpt>
      <trkpt lat="45.03033" lon="0.73539">
        <ele>108.8</ele>
        <time>1970-01-01T01:17:31.000Z</time>
      </trkpt>
      <trkpt lat="45.03036" lon="0.73534">
        <ele>108.8</ele>
        <time>1970-01-01T01:17:32.000Z</time>
      </trkpt>
      <trkpt lat="45.03039" lon="0.73528">
        <ele>108.8</ele>
        <time>1970-01-01T01:17:33.000Z</time>
      </trkpt>
      <trkpt lat="45.03042" lon="0.73522">
        <ele>108.8</ele>
        <time>1970-01-01T01:17:34.000Z</time>
      </trkpt>
      <trkpt lat="45.03045" lon="0.73516">
        <ele>108.8</ele>
        <time>1970-01-01T01:17:35.000Z</time>
      </trkpt>
      <trkpt lat="45.03049" lon="0.7351">
        <ele>108.8</ele>
        <time>1970-01-01T01:17:36.000Z</time>
      </trkpt>
      <trkpt lat="45.03052" lon="0.73505">
        <ele>108.8</ele>
        <time>1970-01-01T01:17:37.000Z</time>
      </trkpt>
      <trkpt lat="45.03055" lon="0.73499">
        <ele>108.8</ele>
        <time>1970-01-01T01:17:38.000Z</time>
      </trkpt>
      <trkpt lat="45.03059" lon="0.73493">
        <ele>108.8</ele>
        <time>1970-01-01T01:17:39.000Z</time>
      </trkpt>
      <trkpt lat="45.03062" lon="0.73487">
        <ele>108.8</ele>
        <time>1970-01-01T01:17:40.000Z</time>
      </trkpt>
      <trkpt lat="45.03066" lon="0.73481">
        <ele>108.8</ele>
        <time>1970-01-01T01:17:41.000Z</time>
      </trkpt>
      <trkpt lat="45.03069" lon="0.73476">
        <ele>108.8</ele>
        <time>1970-01-01T01:17:42.000Z</time>
      </trkpt>
      <trkpt lat="45.03072" lon="0.7347">
        <ele>108.8</ele>
        <time>1970-01-01T01:17:43.000Z</time>
      </trkpt>
      <trkpt lat="45.03075" lon="0.73464">
        <ele>108.8</ele>
        <time>1970-01-01T01:17:44.000Z</time>
      </trkpt>
      <trkpt lat="45.03079" lon="0.73458">
        <ele>108.8</ele>
        <time>1970-01-01T01:17:45.000Z</time>
      </trkpt>
      <trkpt lat="45.03082" lon="0.73453">
        <ele>108.8</ele>
        <time>1970-01-01T01:17:46.000Z</time>
      </trkpt>
      <trkpt lat="45.03085" lon="0.73447">
        <ele>107.9</ele>
        <time>1970-01-01T01:17:47.000Z</time>
      </trkpt>
      <trkpt lat="45.03089" lon="0.73441">
        <ele>107.9</ele>
        <time>1970-01-01T01:17:48.000Z</time>
      </trkpt>
      <trkpt lat="45.03092" lon="0.73435">
        <ele>107.9</ele>
        <time>1970-01-01T01:17:49.000Z</time>
      </trkpt>
      <trkpt lat="45.03095" lon="0.73429">
        <ele>107.9</ele>
        <time>1970-01-01T01:17:50.000Z</time>
      </trkpt>
      <trkpt lat="45.03099" lon="0.73424">
        <ele>107.9</ele>
        <time>1970-01-01T01:17:51.000Z</time>
      </trkpt>
      <trkpt lat="45.03102" lon="0.73418">
        <ele>107.9</ele>
        <time>1970-01-01T01:17:52.000Z</time>
      </trkpt>
      <trkpt lat="45.03105" lon="0.73412">
        <ele>107.9</ele>
        <time>1970-01-01T01:17:53.000Z</time>
      </trkpt>
      <trkpt lat="45.03108" lon="0.73406">
        <ele>107.9</ele>
        <time>1970-01-01T01:17:54.000Z</time>
      </trkpt>
      <trkpt lat="45.03111" lon="0.734">
        <ele>107.9</ele>
        <time>1970-01-01T01:17:55.000Z</time>
      </trkpt>
      <trkpt lat="45.03114" lon="0.73394">
        <ele>107.9</ele>
        <time>1970-01-01T01:17:56.000Z</time>
      </trkpt>
      <trkpt lat="45.03118" lon="0.73388">
        <ele>106.8</ele>
        <time>1970-01-01T01:17:57.000Z</time>
      </trkpt>
      <trkpt lat="45.0312" lon="0.73382">
        <ele>106.8</ele>
        <time>1970-01-01T01:17:58.000Z</time>
      </trkpt>
      <trkpt lat="45.03123" lon="0.73375">
        <ele>106.8</ele>
        <time>1970-01-01T01:17:59.000Z</time>
      </trkpt>
      <trkpt lat="45.03125" lon="0.73369">
        <ele>106.8</ele>
        <time>1970-01-01T01:18:00.000Z</time>
      </trkpt>
      <trkpt lat="45.03128" lon="0.73362">
        <ele>106.8</ele>
        <time>1970-01-01T01:18:01.000Z</time>
      </trkpt>
      <trkpt lat="45.0313" lon="0.73356">
        <ele>106.8</ele>
        <time>1970-01-01T01:18:02.000Z</time>
      </trkpt>
      <trkpt lat="45.03132" lon="0.73349">
        <ele>106.8</ele>
        <time>1970-01-01T01:18:03.000Z</time>
      </trkpt>
      <trkpt lat="45.03134" lon="0.73342">
        <ele>106.8</ele>
        <time>1970-01-01T01:18:04.000Z</time>
      </trkpt>
      <trkpt lat="45.03135" lon="0.73336">
        <ele>106.8</ele>
        <time>1970-01-01T01:18:05.000Z</time>
      </trkpt>
      <trkpt lat="45.03136" lon="0.7333">
        <ele>106.8</ele>
        <time>1970-01-01T01:18:06.000Z</time>
      </trkpt>
      <trkpt lat="45.03138" lon="0.73324">
        <ele>106.8</ele>
        <time>1970-01-01T01:18:07.000Z</time>
      </trkpt>
      <trkpt lat="45.03139" lon="0.73319">
        <ele>106.8</ele>
        <time>1970-01-01T01:18:08.000Z</time>
      </trkpt>
      <trkpt lat="45.0314" lon="0.73314">
        <ele>106.8</ele>
        <time>1970-01-01T01:18:09.000Z</time>
      </trkpt>
      <trkpt lat="45.03142" lon="0.7331">
        <ele>106.8</ele>
        <time>1970-01-01T01:18:10.000Z</time>
      </trkpt>
      <trkpt lat="45.03144" lon="0.73307">
        <ele>106.8</ele>
        <time>1970-01-01T01:18:11.000Z</time>
      </trkpt>
      <trkpt lat="45.03147" lon="0.73305">
        <ele>106.8</ele>
        <time>1970-01-01T01:18:12.000Z</time>
      </trkpt>
      <trkpt lat="45.03149" lon="0.73304">
        <ele>106.8</ele>
        <time>1970-01-01T01:18:13.000Z</time>
      </trkpt>
      <trkpt lat="45.03151" lon="0.73304">
        <ele>106.8</ele>
        <time>1970-01-01T01:18:14.000Z</time>
      </trkpt>
      <trkpt lat="45.03153" lon="0.73306">
        <ele>106.8</ele>
        <time>1970-01-01T01:18:15.000Z</time>
      </trkpt>
      <trkpt lat="45.03154" lon="0.73308">
        <ele>106.8</ele>
        <time>1970-01-01T01:18:16.000Z</time>
      </trkpt>
      <trkpt lat="45.03155" lon="0.73309">
        <ele>106.8</ele>
        <time>1970-01-01T01:18:17.000Z</time>
      </trkpt>
      <trkpt lat="45.03156" lon="0.73311">
        <ele>106.8</ele>
        <time>1970-01-01T01:18:18.000Z</time>
      </trkpt>
      <trkpt lat="45.03157" lon="0.73313">
        <ele>103.8</ele>
        <time>1970-01-01T01:18:19.000Z</time>
      </trkpt>
      <trkpt lat="45.03161" lon="0.73323">
        <ele>103.8</ele>
        <time>1970-01-01T01:18:20.000Z</time>
      </trkpt>
      <trkpt lat="45.03163" lon="0.73324">
        <ele>103.8</ele>
        <time>1970-01-01T01:18:21.000Z</time>
      </trkpt>
      <trkpt lat="45.03166" lon="0.73324">
        <ele>103.8</ele>
        <time>1970-01-01T01:18:22.000Z</time>
      </trkpt>
      <trkpt lat="45.03168" lon="0.73323">
        <ele>103.8</ele>
        <time>1970-01-01T01:18:23.000Z</time>
      </trkpt>
      <trkpt lat="45.03169" lon="0.73322">
        <ele>103.8</ele>
        <time>1970-01-01T01:18:24.000Z</time>
      </trkpt>
      <trkpt lat="45.0317" lon="0.7332">
        <ele>103.8</ele>
        <time>1970-01-01T01:23:20.000Z</time>
      </trkpt>
      <trkpt lat="45.03172" lon="0.73318">
        <ele>103.8</ele>
        <time>1970-01-01T01:23:21.000Z</time>
      </trkpt>
      <trkpt lat="45.03173" lon="0.73316">
        <ele>103.8</ele>
        <time>1970-01-01T01:23:22.000Z</time>
      </trkpt>
      <trkpt lat="45.03175" lon="0.73314">
        <ele>103.8</ele>
        <time>1970-01-01T01:23:23.000Z</time>
      </trkpt>
      <trkpt lat="45.03176" lon="0.73311">
        <ele>103.8</ele>
        <time>1970-01-01T01:23:24.000Z</time>
      </trkpt>
      <trkpt lat="45.03178" lon="0.73309">
        <ele>104.9</ele>
        <time>1970-01-01T01:23:25.000Z</time>
      </trkpt>
      <trkpt lat="45.03179" lon="0.73306">
        <ele>104.9</ele>
        <time>1970-01-01T01:23:26.000Z</time>
      </trkpt>
      <trkpt lat="45.03181" lon="0.73304">
        <ele>104.9</ele>
        <time>1970-01-01T01:23:27.000Z</time>
      </trkpt>
      <trkpt lat="45.03182" lon="0.73302">
        <ele>104.9</ele>
        <time>1970-01-01T01:23:28.000Z</time>
      </trkpt>
      <trkpt lat="45.03184" lon="0.73299">
        <ele>104.9</ele>
        <time>1970-01-01T01:23:29.000Z</time>
      </trkpt>
      <trkpt lat="45.03186" lon="0.73296">
        <ele>104.9</ele>
        <time>1970-01-01T01:23:30.000Z</time>
      </trkpt>
      <trkpt lat="45.03187" lon="0.73293">
        <ele>104.9</ele>
        <time>1970-01-01T01:23:31.000Z</time>
      </trkpt>
      <trkpt lat="45.03189" lon="0.73291">
        <ele>104.9</ele>
        <time>1970-01-01T01:23:32.000Z</time>
      </trkpt>
      <trkpt lat="45.03191" lon="0.73288">
        <ele>105.8</ele>
        <time>1970-01-01T01:23:33.000Z</time>
      </trkpt>
      <trkpt lat="45.03193" lon="0.73285">
        <ele>105.8</ele>
        <time>1970-01-01T01:23:34.000Z</time>
      </trkpt>
      <trkpt lat="45.03195" lon="0.73283">
        <ele>105.8</ele>
        <time>1970-01-01T01:23:35.000Z</time>
      </trkpt>
      <trkpt lat="45.03196" lon="0.7328">
        <ele>105.8</ele>
        <time>1970-01-01T01:23:36.000Z</time>
      </trkpt>
      <trkpt lat="45.03198" lon="0.73278">
        <ele>105.8</ele>
        <time>1970-01-01T01:23:37.000Z</time>
      </trkpt>
      <trkpt lat="45.032" lon="0.73275">
        <ele>105.8</ele>
        <time>1970-01-01T01:23:38.000Z</time>
      </trkpt>
      <trkpt lat="45.03202" lon="0.73273">
        <ele>105.8</ele>
        <time>1970-01-01T01:23:39.000Z</time>
      </trkpt>
      <trkpt lat="45.03204" lon="0.7327">
        <ele>105.8</ele>
        <time>1970-01-01T01:23:40.000Z</time>
      </trkpt>
      <trkpt lat="45.03206" lon="0.73268">
        <ele>105.8</ele>
        <time>1970-01-01T01:23:41.000Z</time>
      </trkpt>
      <trkpt lat="45.03209" lon="0.73266">
        <ele>105.8</ele>
        <time>1970-01-01T01:23:42.000Z</time>
      </trkpt>
      <trkpt lat="45.03211" lon="0.73263">
        <ele>105.8</ele>
        <time>1970-01-01T01:23:43.000Z</time>
      </trkpt>
      <trkpt lat="45.03213" lon="0.73261">
        <ele>105.8</ele>
        <time>1970-01-01T01:23:44.000Z</time>
      </trkpt>
      <trkpt lat="45.03215" lon="0.73259">
        <ele>105.8</ele>
        <time>1970-01-01T01:23:45.000Z</time>
      </trkpt>
      <trkpt lat="45.03218" lon="0.73257">
        <ele>105.8</ele>
        <time>1970-01-01T01:23:46.000Z</time>
      </trkpt>
      <trkpt lat="45.0322" lon="0.73256">
        <ele>105.8</ele>
        <time>1970-01-01T01:23:47.000Z</time>
      </trkpt>
      <trkpt lat="45.03222" lon="0.73254">
        <ele>105.8</ele>
        <time>1970-01-01T01:23:48.000Z</time>
      </trkpt>
      <trkpt lat="45.03224" lon="0.73252">
        <ele>107.9</ele>
        <time>1970-01-01T01:23:49.000Z</time>
      </trkpt>
      <trkpt lat="45.03226" lon="0.73249">
        <ele>107.9</ele>
        <time>1970-01-01T01:23:50.000Z</time>
      </trkpt>
      <trkpt lat="45.03228" lon="0.73247">
        <ele>107.9</ele>
        <time>1970-01-01T01:23:51.000Z</time>
      </trkpt>
      <trkpt lat="45.0323" lon="0.73245">
        <ele>107.9</ele>
        <time>1970-01-01T01:23:52.000Z</time>
      </trkpt>
      <trkpt lat="45.03231" lon="0.73243">
        <ele>108.8</ele>
        <time>1970-01-01T01:23:53.000Z</time>
      </trkpt>
      <trkpt lat="45.03233" lon="0.73241">
        <ele>108.8</ele>
        <time>1970-01-01T01:23:54.000Z</time>
      </trkpt>
      <trkpt lat="45.03235" lon="0.73239">
        <ele>109.9</ele>
        <time>1970-01-01T01:23:55.000Z</time>
      </trkpt>
      <trkpt lat="45.03236" lon="0.73237">
        <ele>109.9</ele>
        <time>1970-01-01T01:23:56.000Z</time>
      </trkpt>
      <trkpt lat="45.03238" lon="0.73235">
        <ele>109.9</ele>
        <time>1970-01-01T01:23:57.000Z</time>
      </trkpt>
      <trkpt lat="45.03239" lon="0.73232">
        <ele>109.9</ele>
        <time>1970-01-01T01:23:58.000Z</time>
      </trkpt>
      <trkpt lat="45.0324" lon="0.7323">
        <ele>109.9</ele>
        <time>1970-01-01T01:23:59.000Z</time>
      </trkpt>
      <trkpt lat="45.03242" lon="0.73228">
        <ele>109.9</ele>
        <time>1970-01-01T01:24:00.000Z</time>
      </trkpt>
      <trkpt lat="45.03243" lon="0.73226">
        <ele>109.9</ele>
        <time>1970-01-01T01:24:01.000Z</time>
      </trkpt>
      <trkpt lat="45.03244" lon="0.73223">
        <ele>109.9</ele>
        <time>1970-01-01T01:24:02.000Z</time>
      </trkpt>
      <trkpt lat="45.03246" lon="0.73221">
        <ele>112.8</ele>
        <time>1970-01-01T01:24:03.000Z</time>
      </trkpt>
      <trkpt lat="45.03247" lon="0.73219">
        <ele>112.8</ele>
        <time>1970-01-01T01:24:04.000Z</time>
      </trkpt>
      <trkpt lat="45.03248" lon="0.73216">
        <ele>113.8</ele>
        <time>1970-01-01T01:24:05.000Z</time>
      </trkpt>
      <trkpt lat="45.03249" lon="0.73214">
        <ele>113.8</ele>
        <time>1970-01-01T01:24:06.000Z</time>
      </trkpt>
      <trkpt lat="45.0325" lon="0.73211">
        <ele>113.8</ele>
        <time>1970-01-01T01:24:07.000Z</time>
      </trkpt>
      <trkpt lat="45.03251" lon="0.73209">
        <ele>113.8</ele>
        <time>1970-01-01T01:24:08.000Z</time>
      </trkpt>
      <trkpt lat="45.03252" lon="0.73206">
        <ele>114.8</ele>
        <time>1970-01-01T01:24:09.000Z</time>
      </trkpt>
      <trkpt lat="45.03253" lon="0.73204">
        <ele>114.8</ele>
        <time>1970-01-01T01:24:10.000Z</time>
      </trkpt>
      <trkpt lat="45.03254" lon="0.73201">
        <ele>114.8</ele>
        <time>1970-01-01T01:24:11.000Z</time>
      </trkpt>
      <trkpt lat="45.03255" lon="0.73199">
        <ele>114.8</ele>
        <time>1970-01-01T01:24:12.000Z</time>
      </trkpt>
      <trkpt lat="45.03256" lon="0.73196">
        <ele>116.9</ele>
        <time>1970-01-01T01:24:13.000Z</time>
      </trkpt>
      <trkpt lat="45.03257" lon="0.73193">
        <ele>116.9</ele>
        <time>1970-01-01T01:24:14.000Z</time>
      </trkpt>
      <trkpt lat="45.03257" lon="0.73191">
        <ele>116.9</ele>
        <time>1970-01-01T01:24:15.000Z</time>
      </trkpt>
      <trkpt lat="45.03258" lon="0.73188">
        <ele>116.9</ele>
        <time>1970-01-01T01:24:16.000Z</time>
      </trkpt>
      <trkpt lat="45.03259" lon="0.73185">
        <ele>116.9</ele>
        <time>1970-01-01T01:24:17.000Z</time>
      </trkpt>
      <trkpt lat="45.0326" lon="0.73182">
        <ele>116.9</ele>
        <time>1970-01-01T01:24:18.000Z</time>
      </trkpt>
      <trkpt lat="45.03261" lon="0.7318">
        <ele>117.8</ele>
        <time>1970-01-01T01:24:19.000Z</time>
      </trkpt>
      <trkpt lat="45.03261" lon="0.73177">
        <ele>117.8</ele>
        <time>1970-01-01T01:24:20.000Z</time>
      </trkpt>
      <trkpt lat="45.03262" lon="0.73174">
        <ele>117.8</ele>
        <time>1970-01-01T01:24:21.000Z</time>
      </trkpt>
      <trkpt lat="45.03263" lon="0.73171">
        <ele>117.8</ele>
        <time>1970-01-01T01:24:22.000Z</time>
      </trkpt>
      <trkpt lat="45.03263" lon="0.73168">
        <ele>118.9</ele>
        <time>1970-01-01T01:24:23.000Z</time>
      </trkpt>
      <trkpt lat="45.03264" lon="0.73165">
        <ele>118.9</ele>
        <time>1970-01-01T01:24:24.000Z</time>
      </trkpt>
      <trkpt lat="45.03265" lon="0.73162">
        <ele>118.9</ele>
        <time>1970-01-01T01:24:25.000Z</time>
      </trkpt>
      <trkpt lat="45.03266" lon="0.7316">
        <ele>118.9</ele>
        <time>1970-01-01T01:24:26.000Z</time>
      </trkpt>
      <trkpt lat="45.03266" lon="0.73157">
        <ele>119.8</ele>
        <time>1970-01-01T01:24:27.000Z</time>
      </trkpt>
      <trkpt lat="45.03267" lon="0.73154">
        <ele>119.8</ele>
        <time>1970-01-01T01:24:28.000Z</time>
      </trkpt>
      <trkpt lat="45.03268" lon="0.73151">
        <ele>119.8</ele>
        <time>1970-01-01T01:24:29.000Z</time>
      </trkpt>
      <trkpt lat="45.03268" lon="0.73148">
        <ele>119.8</ele>
        <time>1970-01-01T01:24:30.000Z</time>
      </trkpt>
      <trkpt lat="45.03269" lon="0.73145">
        <ele>119.8</ele>
        <time>1970-01-01T01:24:31.000Z</time>
      </trkpt>
      <trkpt lat="45.0327" lon="0.73142">
        <ele>119.8</ele>
        <time>1970-01-01T01:24:32.000Z</time>
      </trkpt>
      <trkpt lat="45.03271" lon="0.73139">
        <ele>119.8</ele>
        <time>1970-01-01T01:24:33.000Z</time>
      </trkpt>
      <trkpt lat="45.03272" lon="0.73136">
        <ele>119.8</ele>
        <time>1970-01-01T01:24:34.000Z</time>
      </trkpt>
      <trkpt lat="45.03273" lon="0.73133">
        <ele>120.9</ele>
        <time>1970-01-01T01:24:35.000Z</time>
      </trkpt>
      <trkpt lat="45.03274" lon="0.7313">
        <ele>120.9</ele>
        <time>1970-01-01T01:24:36.000Z</time>
      </trkpt>
      <trkpt lat="45.03275" lon="0.73128">
        <ele>120.9</ele>
        <time>1970-01-01T01:24:37.000Z</time>
      </trkpt>
      <trkpt lat="45.03276" lon="0.73125">
        <ele>120.9</ele>
        <time>1970-01-01T01:24:38.000Z</time>
      </trkpt>
      <trkpt lat="45.03277" lon="0.73122">
        <ele>120.9</ele>
        <time>1970-01-01T01:24:39.000Z</time>
      </trkpt>
      <trkpt lat="45.03278" lon="0.7312">
        <ele>120.9</ele>
        <time>1970-01-01T01:24:40.000Z</time>
      </trkpt>
      <trkpt lat="45.03279" lon="0.73117">
        <ele>121.8</ele>
        <time>1970-01-01T01:24:41.000Z</time>
      </trkpt>
      <trkpt lat="45.03281" lon="0.73115">
        <ele>121.8</ele>
        <time>1970-01-01T01:24:42.000Z</time>
      </trkpt>
      <trkpt lat="45.03282" lon="0.73112">
        <ele>121.8</ele>
        <time>1970-01-01T01:24:43.000Z</time>
      </trkpt>
      <trkpt lat="45.03284" lon="0.7311">
        <ele>121.8</ele>
        <time>1970-01-01T01:24:44.000Z</time>
      </trkpt>
      <trkpt lat="45.03285" lon="0.73107">
        <ele>122.8</ele>
        <time>1970-01-01T01:24:45.000Z</time>
      </trkpt>
      <trkpt lat="45.03287" lon="0.73105">
        <ele>122.8</ele>
        <time>1970-01-01T01:24:46.000Z</time>
      </trkpt>
      <trkpt lat="45.03288" lon="0.73103">
        <ele>122.8</ele>
        <time>1970-01-01T01:24:47.000Z</time>
      </trkpt>
      <trkpt lat="45.0329" lon="0.73101">
        <ele>122.8</ele>
        <time>1970-01-01T01:24:48.000Z</time>
      </trkpt>
      <trkpt lat="45.03292" lon="0.73099">
        <ele>122.8</ele>
        <time>1970-01-01T01:24:49.000Z</time>
      </trkpt>
      <trkpt lat="45.03293" lon="0.73097">
        <ele>122.8</ele>
        <time>1970-01-01T01:24:50.000Z</time>
      </trkpt>
      <trkpt lat="45.03295" lon="0.73095">
        <ele>122.8</ele>
        <time>1970-01-01T01:24:51.000Z</time>
      </trkpt>
      <trkpt lat="45.03296" lon="0.73092">
        <ele>122.8</ele>
        <time>1970-01-01T01:24:52.000Z</time>
      </trkpt>
      <trkpt lat="45.03298" lon="0.7309">
        <ele>122.8</ele>
        <time>1970-01-01T01:24:53.000Z</time>
      </trkpt>
      <trkpt lat="45.03299" lon="0.73088">
        <ele>122.8</ele>
        <time>1970-01-01T01:24:54.000Z</time>
      </trkpt>
      <trkpt lat="45.03301" lon="0.73086">
        <ele>122.8</ele>
        <time>1970-01-01T01:24:55.000Z</time>
      </trkpt>
      <trkpt lat="45.03303" lon="0.73085">
        <ele>122.8</ele>
        <time>1970-01-01T01:24:56.000Z</time>
      </trkpt>
      <trkpt lat="45.03305" lon="0.73084">
        <ele>122.8</ele>
        <time>1970-01-01T01:24:57.000Z</time>
      </trkpt>
      <trkpt lat="45.03307" lon="0.73084">
        <ele>122.8</ele>
        <time>1970-01-01T01:24:58.000Z</time>
      </trkpt>
      <trkpt lat="45.03308" lon="0.73086">
        <ele>122.8</ele>
        <time>1970-01-01T01:24:59.000Z</time>
      </trkpt>
      <trkpt lat="45.03309" lon="0.73089">
        <ele>122.8</ele>
        <time>1970-01-01T01:25:00.000Z</time>
      </trkpt>
      <trkpt lat="45.0331" lon="0.73093">
        <ele>124.8</ele>
        <time>1970-01-01T01:25:01.000Z</time>
      </trkpt>
      <trkpt lat="45.03311" lon="0.73097">
        <ele>124.8</ele>
        <time>1970-01-01T01:25:02.000Z</time>
      </trkpt>
      <trkpt lat="45.03312" lon="0.73101">
        <ele>124.8</ele>
        <time>1970-01-01T01:25:03.000Z</time>
      </trkpt>
      <trkpt lat="45.03314" lon="0.73106">
        <ele>124.8</ele>
        <time>1970-01-01T01:25:04.000Z</time>
      </trkpt>
      <trkpt lat="45.03315" lon="0.73111">
        <ele>124.8</ele>
        <time>1970-01-01T01:25:05.000Z</time>
      </trkpt>
      <trkpt lat="45.03316" lon="0.73115">
        <ele>124.8</ele>
        <time>1970-01-01T01:25:06.000Z</time>
      </trkpt>
      <trkpt lat="45.03317" lon="0.73121">
        <ele>123.9</ele>
        <time>1970-01-01T01:25:07.000Z</time>
      </trkpt>
      <trkpt lat="45.03318" lon="0.73127">
        <ele>123.9</ele>
        <time>1970-01-01T01:25:08.000Z</time>
      </trkpt>
      <trkpt lat="45.0332" lon="0.73133">
        <ele>123.9</ele>
        <time>1970-01-01T01:25:09.000Z</time>
      </trkpt>
      <trkpt lat="45.03322" lon="0.7314">
        <ele>123.9</ele>
        <time>1970-01-01T01:25:10.000Z</time>
      </trkpt>
      <trkpt lat="45.03323" lon="0.73147">
        <ele>122.8</ele>
        <time>1970-01-01T01:25:11.000Z</time>
      </trkpt>
      <trkpt lat="45.03325" lon="0.73155">
        <ele>122.8</ele>
        <time>1970-01-01T01:25:12.000Z</time>
      </trkpt>
      <trkpt lat="45.03326" lon="0.73163">
        <ele>121.8</ele>
        <time>1970-01-01T01:25:13.000Z</time>
      </trkpt>
      <trkpt lat="45.03328" lon="0.73172">
        <ele>121.8</ele>
        <time>1970-01-01T01:25:14.000Z</time>
      </trkpt>
      <trkpt lat="45.03329" lon="0.73182">
        <ele>121.8</ele>
        <time>1970-01-01T01:25:15.000Z</time>
      </trkpt>
      <trkpt lat="45.03331" lon="0.73193">
        <ele>121.8</ele>
        <time>1970-01-01T01:25:16.000Z</time>
      </trkpt>
      <trkpt lat="45.03332" lon="0.73204">
        <ele>121.8</ele>
        <time>1970-01-01T01:25:17.000Z</time>
      </trkpt>
      <trkpt lat="45.03334" lon="0.73217">
        <ele>121.8</ele>
        <time>1970-01-01T01:25:18.000Z</time>
      </trkpt>
      <trkpt lat="45.03336" lon="0.73231">
        <ele>113.8</ele>
        <time>1970-01-01T01:25:19.000Z</time>
      </trkpt>
      <trkpt lat="45.03339" lon="0.73245">
        <ele>113.8</ele>
        <time>1970-01-01T01:25:20.000Z</time>
      </trkpt>
      <trkpt lat="45.03341" lon="0.73259">
        <ele>111.9</ele>
        <time>1970-01-01T01:25:21.000Z</time>
      </trkpt>
      <trkpt lat="45.03344" lon="0.73273">
        <ele>111.9</ele>
        <time>1970-01-01T01:25:22.000Z</time>
      </trkpt>
      <trkpt lat="45.03346" lon="0.73285">
        <ele>109.9</ele>
        <time>1970-01-01T01:25:23.000Z</time>
      </trkpt>
      <trkpt lat="45.03348" lon="0.73297">
        <ele>109.9</ele>
        <time>1970-01-01T01:25:24.000Z</time>
      </trkpt>
      <trkpt lat="45.03349" lon="0.73308">
        <ele>109.9</ele>
        <time>1970-01-01T01:25:25.000Z</time>
      </trkpt>
      <trkpt lat="45.0335" lon="0.73317">
        <ele>109.9</ele>
        <time>1970-01-01T01:25:26.000Z</time>
      </trkpt>
      <trkpt lat="45.0335" lon="0.73325">
        <ele>109.9</ele>
        <time>1970-01-01T01:25:27.000Z</time>
      </trkpt>
      <trkpt lat="45.03351" lon="0.73331">
        <ele>109.9</ele>
        <time>1970-01-01T01:25:28.000Z</time>
      </trkpt>
      <trkpt lat="45.03351" lon="0.73337">
        <ele>110.8</ele>
        <time>1970-01-01T01:25:29.000Z</time>
      </trkpt>
      <trkpt lat="45.03352" lon="0.73342">
        <ele>110.8</ele>
        <time>1970-01-01T01:25:30.000Z</time>
      </trkpt>
      <trkpt lat="45.03353" lon="0.73347">
        <ele>110.8</ele>
        <time>1970-01-01T01:25:31.000Z</time>
      </trkpt>
      <trkpt lat="45.03353" lon="0.73351">
        <ele>110.8</ele>
        <time>1970-01-01T01:25:32.000Z</time>
      </trkpt>
      <trkpt lat="45.03354" lon="0.73356">
        <ele>110.8</ele>
        <time>1970-01-01T01:25:33.000Z</time>
      </trkpt>
      <trkpt lat="45.03354" lon="0.7336">
        <ele>110.8</ele>
        <time>1970-01-01T01:25:34.000Z</time>
      </trkpt>
      <trkpt lat="45.03355" lon="0.73364">
        <ele>111.9</ele>
        <time>1970-01-01T01:25:35.000Z</time>
      </trkpt>
      <trkpt lat="45.03356" lon="0.73368">
        <ele>111.9</ele>
        <time>1970-01-01T01:25:36.000Z</time>
      </trkpt>
      <trkpt lat="45.03356" lon="0.73371">
        <ele>111.9</ele>
        <time>1970-01-01T01:25:37.000Z</time>
      </trkpt>
      <trkpt lat="45.03357" lon="0.73375">
        <ele>111.9</ele>
        <time>1970-01-01T01:25:38.000Z</time>
      </trkpt>
      <trkpt lat="45.03358" lon="0.73379">
        <ele>113.8</ele>
        <time>1970-01-01T01:25:39.000Z</time>
      </trkpt>
      <trkpt lat="45.03359" lon="0.73383">
        <ele>113.8</ele>
        <time>1970-01-01T01:25:40.000Z</time>
      </trkpt>
      <trkpt lat="45.03359" lon="0.73386">
        <ele>113.8</ele>
        <time>1970-01-01T01:25:41.000Z</time>
      </trkpt>
      <trkpt lat="45.0336" lon="0.7339">
        <ele>113.8</ele>
        <time>1970-01-01T01:25:42.000Z</time>
      </trkpt>
      <trkpt lat="45.03361" lon="0.73394">
        <ele>113.8</ele>
        <time>1970-01-01T01:25:43.000Z</time>
      </trkpt>
      <trkpt lat="45.03362" lon="0.73397">
        <ele>113.8</ele>
        <time>1970-01-01T01:25:44.000Z</time>
      </trkpt>
      <trkpt lat="45.03363" lon="0.734">
        <ele>113.8</ele>
        <time>1970-01-01T01:25:45.000Z</time>
      </trkpt>
      <trkpt lat="45.03363" lon="0.73403">
        <ele>113.8</ele>
        <time>1970-01-01T01:25:46.000Z</time>
      </trkpt>
      <trkpt lat="45.03364" lon="0.73406">
        <ele>115.8</ele>
        <time>1970-01-01T01:25:47.000Z</time>
      </trkpt>
      <trkpt lat="45.03365" lon="0.73409">
        <ele>115.8</ele>
        <time>1970-01-01T01:25:48.000Z</time>
      </trkpt>
      <trkpt lat="45.03366" lon="0.73411">
        <ele>115.8</ele>
        <time>1970-01-01T01:25:49.000Z</time>
      </trkpt>
      <trkpt lat="45.03368" lon="0.73413">
        <ele>115.8</ele>
        <time>1970-01-01T01:25:50.000Z</time>
      </trkpt>
      <trkpt lat="45.03369" lon="0.73416">
        <ele>116.9</ele>
        <time>1970-01-01T01:25:51.000Z</time>
      </trkpt>
      <trkpt lat="45.03369" lon="0.73418">
        <ele>116.9</ele>
        <time>1970-01-01T01:25:52.000Z</time>
      </trkpt>
      <trkpt lat="45.0337" lon="0.73421">
        <ele>116.9</ele>
        <time>1970-01-01T01:25:53.000Z</time>
      </trkpt>
      <trkpt lat="45.0337" lon="0.73423">
        <ele>116.9</ele>
        <time>1970-01-01T01:25:54.000Z</time>
      </trkpt>
      <trkpt lat="45.03371" lon="0.73426">
        <ele>117.8</ele>
        <time>1970-01-01T01:25:55.000Z</time>
      </trkpt>
      <trkpt lat="45.03372" lon="0.73428">
        <ele>117.8</ele>
        <time>1970-01-01T01:25:56.000Z</time>
      </trkpt>
      <trkpt lat="45.03373" lon="0.73431">
        <ele>117.8</ele>
        <time>1970-01-01T01:25:57.000Z</time>
      </trkpt>
      <trkpt lat="45.03374" lon="0.73433">
        <ele>117.8</ele>
        <time>1970-01-01T01:25:58.000Z</time>
      </trkpt>
      <trkpt lat="45.03375" lon="0.73436">
        <ele>118.9</ele>
        <time>1970-01-01T01:25:59.000Z</time>
      </trkpt>
      <trkpt lat="45.03376" lon="0.73438">
        <ele>118.9</ele>
        <time>1970-01-01T01:26:00.000Z</time>
      </trkpt>
      <trkpt lat="45.03377" lon="0.73441">
        <ele>118.9</ele>
        <time>1970-01-01T01:26:01.000Z</time>
      </trkpt>
      <trkpt lat="45.03379" lon="0.73443">
        <ele>118.9</ele>
        <time>1970-01-01T01:26:02.000Z</time>
      </trkpt>
      <trkpt lat="45.03381" lon="0.73445">
        <ele>119.8</ele>
        <time>1970-01-01T01:26:03.000Z</time>
      </trkpt>
      <trkpt lat="45.03383" lon="0.73445">
        <ele>119.8</ele>
        <time>1970-01-01T01:26:04.000Z</time>
      </trkpt>
      <trkpt lat="45.03385" lon="0.73446">
        <ele>120.9</ele>
        <time>1970-01-01T01:26:05.000Z</time>
      </trkpt>
      <trkpt lat="45.03387" lon="0.73448">
        <ele>120.9</ele>
        <time>1970-01-01T01:26:06.000Z</time>
      </trkpt>
      <trkpt lat="45.03389" lon="0.73449">
        <ele>120.9</ele>
        <time>1970-01-01T01:26:07.000Z</time>
      </trkpt>
      <trkpt lat="45.03391" lon="0.73451">
        <ele>120.9</ele>
        <time>1970-01-01T01:26:08.000Z</time>
      </trkpt>
      <trkpt lat="45.03394" lon="0.73452">
        <ele>120.9</ele>
        <time>1970-01-01T01:26:09.000Z</time>
      </trkpt>
      <trkpt lat="45.03396" lon="0.73453">
        <ele>120.9</ele>
        <time>1970-01-01T01:26:10.000Z</time>
      </trkpt>
      <trkpt lat="45.03398" lon="0.73454">
        <ele>121.8</ele>
        <time>1970-01-01T01:26:11.000Z</time>
      </trkpt>
      <trkpt lat="45.034" lon="0.73454">
        <ele>121.8</ele>
        <time>1970-01-01T01:26:12.000Z</time>
      </trkpt>
      <trkpt lat="45.03402" lon="0.73455">
        <ele>121.8</ele>
        <time>1970-01-01T01:26:13.000Z</time>
      </trkpt>
      <trkpt lat="45.03403" lon="0.73455">
        <ele>121.8</ele>
        <time>1970-01-01T01:26:14.000Z</time>
      </trkpt>
      <trkpt lat="45.03405" lon="0.73456">
        <ele>121.8</ele>
        <time>1970-01-01T01:26:15.000Z</time>
      </trkpt>
      <trkpt lat="45.03407" lon="0.73457">
        <ele>121.8</ele>
        <time>1970-01-01T01:26:16.000Z</time>
      </trkpt>
      <trkpt lat="45.03408" lon="0.73458">
        <ele>122.8</ele>
        <time>1970-01-01T01:26:17.000Z</time>
      </trkpt>
      <trkpt lat="45.0341" lon="0.73459">
        <ele>122.8</ele>
        <time>1970-01-01T01:26:18.000Z</time>
      </trkpt>
      <trkpt lat="45.03412" lon="0.73461">
        <ele>122.8</ele>
        <time>1970-01-01T01:26:19.000Z</time>
      </trkpt>
      <trkpt lat="45.03414" lon="0.73462">
        <ele>122.8</ele>
        <time>1970-01-01T01:26:20.000Z</time>
      </trkpt>
      <trkpt lat="45.03416" lon="0.73463">
        <ele>122.8</ele>
        <time>1970-01-01T01:26:21.000Z</time>
      </trkpt>
      <trkpt lat="45.03417" lon="0.73465">
        <ele>122.8</ele>
        <time>1970-01-01T01:26:22.000Z</time>
      </trkpt>
      <trkpt lat="45.03419" lon="0.73466">
        <ele>123.9</ele>
        <time>1970-01-01T01:26:23.000Z</time>
      </trkpt>
      <trkpt lat="45.03421" lon="0.73468">
        <ele>123.9</ele>
        <time>1970-01-01T01:26:24.000Z</time>
      </trkpt>
      <trkpt lat="45.03423" lon="0.7347">
        <ele>123.9</ele>
        <time>1970-01-01T01:26:25.000Z</time>
      </trkpt>
      <trkpt lat="45.03424" lon="0.73471">
        <ele>123.9</ele>
        <time>1970-01-01T01:26:26.000Z</time>
      </trkpt>
      <trkpt lat="45.03426" lon="0.73473">
        <ele>123.9</ele>
        <time>1970-01-01T01:26:27.000Z</time>
      </trkpt>
      <trkpt lat="45.03427" lon="0.73474">
        <ele>123.9</ele>
        <time>1970-01-01T01:26:28.000Z</time>
      </trkpt>
      <trkpt lat="45.03429" lon="0.73476">
        <ele>124.8</ele>
        <time>1970-01-01T01:26:29.000Z</time>
      </trkpt>
      <trkpt lat="45.03431" lon="0.73477">
        <ele>124.8</ele>
        <time>1970-01-01T01:26:30.000Z</time>
      </trkpt>
      <trkpt lat="45.03432" lon="0.73478">
        <ele>124.8</ele>
        <time>1970-01-01T01:26:31.000Z</time>
      </trkpt>
      <trkpt lat="45.03434" lon="0.73479">
        <ele>124.8</ele>
        <time>1970-01-01T01:26:32.000Z</time>
      </trkpt>
      <trkpt lat="45.03435" lon="0.73481">
        <ele>124.8</ele>
        <time>1970-01-01T01:26:33.000Z</time>
      </trkpt>
      <trkpt lat="45.03437" lon="0.73483">
        <ele>124.8</ele>
        <time>1970-01-01T01:26:34.000Z</time>
      </trkpt>
      <trkpt lat="45.03438" lon="0.73484">
        <ele>126.8</ele>
        <time>1970-01-01T01:26:35.000Z</time>
      </trkpt>
      <trkpt lat="45.0344" lon="0.73485">
        <ele>126.8</ele>
        <time>1970-01-01T01:26:36.000Z</time>
      </trkpt>
      <trkpt lat="45.03441" lon="0.73487">
        <ele>126.8</ele>
        <time>1970-01-01T01:26:37.000Z</time>
      </trkpt>
      <trkpt lat="45.03443" lon="0.73489">
        <ele>126.8</ele>
        <time>1970-01-01T01:26:38.000Z</time>
      </trkpt>
      <trkpt lat="45.03444" lon="0.73491">
        <ele>126.8</ele>
        <time>1970-01-01T01:26:39.000Z</time>
      </trkpt>
      <trkpt lat="45.03446" lon="0.73493">
        <ele>126.8</ele>
        <time>1970-01-01T01:26:40.000Z</time>
      </trkpt>
      <trkpt lat="45.03448" lon="0.73494">
        <ele>127.9</ele>
        <time>1970-01-01T01:26:41.000Z</time>
      </trkpt>
      <trkpt lat="45.0345" lon="0.73496">
        <ele>127.9</ele>
        <time>1970-01-01T01:26:42.000Z</time>
      </trkpt>
      <trkpt lat="45.03452" lon="0.73498">
        <ele>127.9</ele>
        <time>1970-01-01T01:26:43.000Z</time>
      </trkpt>
      <trkpt lat="45.03454" lon="0.735">
        <ele>127.9</ele>
        <time>1970-01-01T01:26:44.000Z</time>
      </trkpt>
      <trkpt lat="45.03456" lon="0.73501">
        <ele>127.9</ele>
        <time>1970-01-01T01:26:45.000Z</time>
      </trkpt>
      <trkpt lat="45.03458" lon="0.73503">
        <ele>127.9</ele>
        <time>1970-01-01T01:26:46.000Z</time>
      </trkpt>
      <trkpt lat="45.03461" lon="0.73504">
        <ele>128.8</ele>
        <time>1970-01-01T01:26:47.000Z</time>
      </trkpt>
      <trkpt lat="45.03463" lon="0.73505">
        <ele>128.8</ele>
        <time>1970-01-01T01:26:48.000Z</time>
      </trkpt>
      <trkpt lat="45.03466" lon="0.73507">
        <ele>128.8</ele>
        <time>1970-01-01T01:26:49.000Z</time>
      </trkpt>
      <trkpt lat="45.03469" lon="0.73509">
        <ele>128.8</ele>
        <time>1970-01-01T01:26:50.000Z</time>
      </trkpt>
      <trkpt lat="45.03472" lon="0.73511">
        <ele>129.8</ele>
        <time>1970-01-01T01:26:51.000Z</time>
      </trkpt>
      <trkpt lat="45.03475" lon="0.73512">
        <ele>129.8</ele>
        <time>1970-01-01T01:26:52.000Z</time>
      </trkpt>
      <trkpt lat="45.03479" lon="0.73514">
        <ele>129.8</ele>
        <time>1970-01-01T01:26:53.000Z</time>
      </trkpt>
      <trkpt lat="45.03482" lon="0.73516">
        <ele>129.8</ele>
        <time>1970-01-01T01:26:54.000Z</time>
      </trkpt>
      <trkpt lat="45.03486" lon="0.73517">
        <ele>129.8</ele>
        <time>1970-01-01T01:26:55.000Z</time>
      </trkpt>
      <trkpt lat="45.03489" lon="0.73519">
        <ele>129.8</ele>
        <time>1970-01-01T01:26:56.000Z</time>
      </trkpt>
      <trkpt lat="45.03493" lon="0.7352">
        <ele>129.8</ele>
        <time>1970-01-01T01:26:57.000Z</time>
      </trkpt>
      <trkpt lat="45.03496" lon="0.73521">
        <ele>129.8</ele>
        <time>1970-01-01T01:26:58.000Z</time>
      </trkpt>
      <trkpt lat="45.03499" lon="0.73523">
        <ele>129.8</ele>
        <time>1970-01-01T01:26:59.000Z</time>
      </trkpt>
      <trkpt lat="45.03503" lon="0.73523">
        <ele>129.8</ele>
        <time>1970-01-01T01:27:00.000Z</time>
      </trkpt>
      <trkpt lat="45.03506" lon="0.73524">
        <ele>129.8</ele>
        <time>1970-01-01T01:27:01.000Z</time>
      </trkpt>
      <trkpt lat="45.03509" lon="0.73524">
        <ele>129.8</ele>
        <time>1970-01-01T01:27:02.000Z</time>
      </trkpt>
      <trkpt lat="45.03513" lon="0.73524">
        <ele>129.8</ele>
        <time>1970-01-01T01:27:03.000Z</time>
      </trkpt>
      <trkpt lat="45.03516" lon="0.73524">
        <ele>129.8</ele>
        <time>1970-01-01T01:27:04.000Z</time>
      </trkpt>
      <trkpt lat="45.03519" lon="0.73525">
        <ele>129.8</ele>
        <time>1970-01-01T01:27:05.000Z</time>
      </trkpt>
      <trkpt lat="45.03522" lon="0.73525">
        <ele>129.8</ele>
        <time>1970-01-01T01:27:06.000Z</time>
      </trkpt>
      <trkpt lat="45.03525" lon="0.73526">
        <ele>128.8</ele>
        <time>1970-01-01T01:27:07.000Z</time>
      </trkpt>
      <trkpt lat="45.03529" lon="0.73526">
        <ele>128.8</ele>
        <time>1970-01-01T01:27:08.000Z</time>
      </trkpt>
      <trkpt lat="45.03531" lon="0.73526">
        <ele>128.8</ele>
        <time>1970-01-01T01:27:09.000Z</time>
      </trkpt>
      <trkpt lat="45.03535" lon="0.73526">
        <ele>128.8</ele>
        <time>1970-01-01T01:27:10.000Z</time>
      </trkpt>
      <trkpt lat="45.03538" lon="0.73525">
        <ele>129.8</ele>
        <time>1970-01-01T01:27:11.000Z</time>
      </trkpt>
      <trkpt lat="45.03541" lon="0.73525">
        <ele>129.8</ele>
        <time>1970-01-01T01:27:12.000Z</time>
      </trkpt>
      <trkpt lat="45.03544" lon="0.73524">
        <ele>130.8</ele>
        <time>1970-01-01T01:27:13.000Z</time>
      </trkpt>
      <trkpt lat="45.03547" lon="0.73523">
        <ele>130.8</ele>
        <time>1970-01-01T01:27:14.000Z</time>
      </trkpt>
      <trkpt lat="45.03549" lon="0.73522">
        <ele>131.8</ele>
        <time>1970-01-01T01:27:15.000Z</time>
      </trkpt>
      <trkpt lat="45.03551" lon="0.73521">
        <ele>131.8</ele>
        <time>1970-01-01T01:27:16.000Z</time>
      </trkpt>
      <trkpt lat="45.03554" lon="0.7352">
        <ele>131.8</ele>
        <time>1970-01-01T01:27:17.000Z</time>
      </trkpt>
      <trkpt lat="45.03556" lon="0.73519">
        <ele>131.8</ele>
        <time>1970-01-01T01:27:18.000Z</time>
      </trkpt>
      <trkpt lat="45.03558" lon="0.73519">
        <ele>132.9</ele>
        <time>1970-01-01T01:27:19.000Z</time>
      </trkpt>
      <trkpt lat="45.03561" lon="0.73518">
        <ele>132.9</ele>
        <time>1970-01-01T01:27:20.000Z</time>
      </trkpt>
      <trkpt lat="45.03563" lon="0.73518">
        <ele>132.9</ele>
        <time>1970-01-01T01:27:21.000Z</time>
      </trkpt>
      <trkpt lat="45.03565" lon="0.73518">
        <ele>132.9</ele>
        <time>1970-01-01T01:27:22.000Z</time>
      </trkpt>
      <trkpt lat="45.03567" lon="0.73518">
        <ele>133.8</ele>
        <time>1970-01-01T01:27:23.000Z</time>
      </trkpt>
      <trkpt lat="45.03569" lon="0.73518">
        <ele>133.8</ele>
        <time>1970-01-01T01:27:24.000Z</time>
      </trkpt>
      <trkpt lat="45.03571" lon="0.73519">
        <ele>133.8</ele>
        <time>1970-01-01T01:27:25.000Z</time>
      </trkpt>
      <trkpt lat="45.03573" lon="0.73519">
        <ele>133.8</ele>
        <time>1970-01-01T01:27:26.000Z</time>
      </trkpt>
      <trkpt lat="45.03575" lon="0.73519">
        <ele>133.8</ele>
        <time>1970-01-01T01:27:27.000Z</time>
      </trkpt>
      <trkpt lat="45.03577" lon="0.7352">
        <ele>133.8</ele>
        <time>1970-01-01T01:27:28.000Z</time>
      </trkpt>
      <trkpt lat="45.03579" lon="0.73521">
        <ele>134.9</ele>
        <time>1970-01-01T01:27:29.000Z</time>
      </trkpt>
      <trkpt lat="45.03581" lon="0.73522">
        <ele>134.9</ele>
        <time>1970-01-01T01:27:30.000Z</time>
      </trkpt>
      <trkpt lat="45.03582" lon="0.73523">
        <ele>134.9</ele>
        <time>1970-01-01T01:27:31.000Z</time>
      </trkpt>
      <trkpt lat="45.03584" lon="0.73524">
        <ele>134.9</ele>
        <time>1970-01-01T01:27:32.000Z</time>
      </trkpt>
      <trkpt lat="45.03585" lon="0.73525">
        <ele>134.9</ele>
        <time>1970-01-01T01:27:33.000Z</time>
      </trkpt>
      <trkpt lat="45.03586" lon="0.73527">
        <ele>134.9</ele>
        <time>1970-01-01T01:27:34.000Z</time>
      </trkpt>
      <trkpt lat="45.03588" lon="0.73528">
        <ele>134.9</ele>
        <time>1970-01-01T01:27:35.000Z</time>
      </trkpt>
      <trkpt lat="45.03589" lon="0.7353">
        <ele>134.9</ele>
        <time>1970-01-01T01:27:36.000Z</time>
      </trkpt>
      <trkpt lat="45.0359" lon="0.73532">
        <ele>136.9</ele>
        <time>1970-01-01T01:27:37.000Z</time>
      </trkpt>
      <trkpt lat="45.03591" lon="0.73533">
        <ele>136.9</ele>
        <time>1970-01-01T01:27:38.000Z</time>
      </trkpt>
      <trkpt lat="45.03592" lon="0.73536">
        <ele>137.8</ele>
        <time>1970-01-01T01:27:39.000Z</time>
      </trkpt>
      <trkpt lat="45.03593" lon="0.73538">
        <ele>137.8</ele>
        <time>1970-01-01T01:27:40.000Z</time>
      </trkpt>
      <trkpt lat="45.03595" lon="0.73541">
        <ele>137.8</ele>
        <time>1970-01-01T01:27:41.000Z</time>
      </trkpt>
      <trkpt lat="45.03596" lon="0.73544">
        <ele>137.8</ele>
        <time>1970-01-01T01:27:42.000Z</time>
      </trkpt>
      <trkpt lat="45.03596" lon="0.73547">
        <ele>138.8</ele>
        <time>1970-01-01T01:27:43.000Z</time>
      </trkpt>
      <trkpt lat="45.03596" lon="0.73548">
        <ele>138.8</ele>
        <time>1970-01-01T01:27:44.000Z</time>
      </trkpt>
      <trkpt lat="45.03596" lon="0.7355">
        <ele>138.8</ele>
        <time>1970-01-01T01:27:45.000Z</time>
      </trkpt>
      <trkpt lat="45.03596" lon="0.73552">
        <ele>138.8</ele>
        <time>1970-01-01T01:27:46.000Z</time>
      </trkpt>
      <trkpt lat="45.03596" lon="0.73554">
        <ele>138.8</ele>
        <time>1970-01-01T01:27:47.000Z</time>
      </trkpt>
      <trkpt lat="45.03597" lon="0.73554">
        <ele>138.8</ele>
        <time>1970-01-01T01:27:48.000Z</time>
      </trkpt>
      <trkpt lat="45.03596" lon="0.73555">
        <ele>138.8</ele>
        <time>1970-01-01T01:27:49.000Z</time>
      </trkpt>
      <trkpt lat="45.03597" lon="0.73556">
        <ele>138.8</ele>
        <time>1970-01-01T01:27:50.000Z</time>
      </trkpt>
      <trkpt lat="45.03596" lon="0.73559">
        <ele>141.9</ele>
        <time>1970-01-01T01:27:51.000Z</time>
      </trkpt>
      <trkpt lat="45.03594" lon="0.73562">
        <ele>141.9</ele>
        <time>1970-01-01T01:27:52.000Z</time>
      </trkpt>
      <trkpt lat="45.03594" lon="0.73564">
        <ele>141.9</ele>
        <time>1970-01-01T01:27:53.000Z</time>
      </trkpt>
      <trkpt lat="45.03593" lon="0.73567">
        <ele>141.9</ele>
        <time>1970-01-01T01:27:54.000Z</time>
      </trkpt>
      <trkpt lat="45.03592" lon="0.73569">
        <ele>142.8</ele>
        <time>1970-01-01T01:27:55.000Z</time>
      </trkpt>
      <trkpt lat="45.03592" lon="0.73571">
        <ele>142.8</ele>
        <time>1970-01-01T01:27:56.000Z</time>
      </trkpt>
      <trkpt lat="45.03592" lon="0.73572">
        <ele>142.8</ele>
        <time>1970-01-01T01:27:57.000Z</time>
      </trkpt>
      <trkpt lat="45.03592" lon="0.73575">
        <ele>142.8</ele>
        <time>1970-01-01T01:27:58.000Z</time>
      </trkpt>
      <trkpt lat="45.03592" lon="0.73578">
        <ele>143.9</ele>
        <time>1970-01-01T01:27:59.000Z</time>
      </trkpt>
      <trkpt lat="45.03593" lon="0.73579">
        <ele>143.9</ele>
        <time>1970-01-01T01:28:00.000Z</time>
      </trkpt>
      <trkpt lat="45.03593" lon="0.73581">
        <ele>143.9</ele>
        <time>1970-01-01T01:28:01.000Z</time>
      </trkpt>
      <trkpt lat="45.03594" lon="0.73583">
        <ele>143.9</ele>
        <time>1970-01-01T01:28:02.000Z</time>
      </trkpt>
      <trkpt lat="45.03593" lon="0.73585">
        <ele>144.8</ele>
        <time>1970-01-01T01:28:03.000Z</time>
      </trkpt>
      <trkpt lat="45.03593" lon="0.73587">
        <ele>144.8</ele>
        <time>1970-01-01T01:28:04.000Z</time>
      </trkpt>
      <trkpt lat="45.03593" lon="0.7359">
        <ele>145.8</ele>
        <time>1970-01-01T01:28:05.000Z</time>
      </trkpt>
      <trkpt lat="45.03593" lon="0.73591">
        <ele>145.8</ele>
        <time>1970-01-01T01:28:06.000Z</time>
      </trkpt>
      <trkpt lat="45.03594" lon="0.73593">
        <ele>144.8</ele>
        <time>1970-01-01T01:28:07.000Z</time>
      </trkpt>
      <trkpt lat="45.03594" lon="0.73595">
        <ele>144.8</ele>
        <time>1970-01-01T01:28:08.000Z</time>
      </trkpt>
      <trkpt lat="45.03595" lon="0.73596">
        <ele>145.8</ele>
        <time>1970-01-01T01:28:09.000Z</time>
      </trkpt>
      <trkpt lat="45.03596" lon="0.73598">
        <ele>145.8</ele>
        <time>1970-01-01T01:28:10.000Z</time>
      </trkpt>
      <trkpt lat="45.03597" lon="0.73599">
        <ele>146.8</ele>
        <time>1970-01-01T01:28:11.000Z</time>
      </trkpt>
      <trkpt lat="45.03597" lon="0.73601">
        <ele>146.8</ele>
        <time>1970-01-01T01:28:12.000Z</time>
      </trkpt>
      <trkpt lat="45.03597" lon="0.73603">
        <ele>146.8</ele>
        <time>1970-01-01T01:28:13.000Z</time>
      </trkpt>
      <trkpt lat="45.03598" lon="0.73605">
        <ele>146.8</ele>
        <time>1970-01-01T01:28:14.000Z</time>
      </trkpt>
      <trkpt lat="45.03598" lon="0.73606">
        <ele>148.9</ele>
        <time>1970-01-01T01:28:15.000Z</time>
      </trkpt>
      <trkpt lat="45.03597" lon="0.73608">
        <ele>148.9</ele>
        <time>1970-01-01T01:28:16.000Z</time>
      </trkpt>
      <trkpt lat="45.03597" lon="0.7361">
        <ele>148.9</ele>
        <time>1970-01-01T01:28:17.000Z</time>
      </trkpt>
      <trkpt lat="45.03598" lon="0.73612">
        <ele>148.9</ele>
        <time>1970-01-01T01:28:18.000Z</time>
      </trkpt>
      <trkpt lat="45.03598" lon="0.73613">
        <ele>148.9</ele>
        <time>1970-01-01T01:28:19.000Z</time>
      </trkpt>
      <trkpt lat="45.03599" lon="0.73615">
        <ele>148.9</ele>
        <time>1970-01-01T01:28:20.000Z</time>
      </trkpt>
      <trkpt lat="45.03599" lon="0.73617">
        <ele>148.9</ele>
        <time>1970-01-01T01:28:21.000Z</time>
      </trkpt>
      <trkpt lat="45.036" lon="0.73618">
        <ele>148.9</ele>
        <time>1970-01-01T01:28:22.000Z</time>
      </trkpt>
      <trkpt lat="45.03601" lon="0.7362">
        <ele>148.9</ele>
        <time>1970-01-01T01:28:23.000Z</time>
      </trkpt>
      <trkpt lat="45.03602" lon="0.73622">
        <ele>148.9</ele>
        <time>1970-01-01T01:28:24.000Z</time>
      </trkpt>
      <trkpt lat="45.03602" lon="0.73624">
        <ele>149.8</ele>
        <time>1970-01-01T01:28:25.000Z</time>
      </trkpt>
      <trkpt lat="45.03603" lon="0.73626">
        <ele>149.8</ele>
        <time>1970-01-01T01:28:26.000Z</time>
      </trkpt>
      <trkpt lat="45.03604" lon="0.73628">
        <ele>149.8</ele>
        <time>1970-01-01T01:28:27.000Z</time>
      </trkpt>
      <trkpt lat="45.03604" lon="0.7363">
        <ele>149.8</ele>
        <time>1970-01-01T01:28:28.000Z</time>
      </trkpt>
      <trkpt lat="45.03605" lon="0.73632">
        <ele>150.9</ele>
        <time>1970-01-01T01:28:29.000Z</time>
      </trkpt>
      <trkpt lat="45.03605" lon="0.73634">
        <ele>150.9</ele>
        <time>1970-01-01T01:28:30.000Z</time>
      </trkpt>
      <trkpt lat="45.03606" lon="0.73636">
        <ele>150.9</ele>
        <time>1970-01-01T01:28:31.000Z</time>
      </trkpt>
      <trkpt lat="45.03607" lon="0.73638">
        <ele>150.9</ele>
        <time>1970-01-01T01:28:32.000Z</time>
      </trkpt>
      <trkpt lat="45.03607" lon="0.73639">
        <ele>151.8</ele>
        <time>1970-01-01T01:28:33.000Z</time>
      </trkpt>
      <trkpt lat="45.03608" lon="0.73641">
        <ele>151.8</ele>
        <time>1970-01-01T01:28:34.000Z</time>
      </trkpt>
      <trkpt lat="45.03609" lon="0.73643">
        <ele>151.8</ele>
        <time>1970-01-01T01:28:35.000Z</time>
      </trkpt>
      <trkpt lat="45.0361" lon="0.73645">
        <ele>151.8</ele>
        <time>1970-01-01T01:28:36.000Z</time>
      </trkpt>
      <trkpt lat="45.0361" lon="0.73647">
        <ele>151.8</ele>
        <time>1970-01-01T01:28:37.000Z</time>
      </trkpt>
      <trkpt lat="45.03611" lon="0.73649">
        <ele>151.8</ele>
        <time>1970-01-01T01:28:38.000Z</time>
      </trkpt>
      <trkpt lat="45.03611" lon="0.73651">
        <ele>152.9</ele>
        <time>1970-01-01T01:28:39.000Z</time>
      </trkpt>
      <trkpt lat="45.03612" lon="0.73653">
        <ele>152.9</ele>
        <time>1970-01-01T01:28:40.000Z</time>
      </trkpt>
      <trkpt lat="45.03613" lon="0.73655">
        <ele>152.9</ele>
        <time>1970-01-01T01:28:41.000Z</time>
      </trkpt>
      <trkpt lat="45.03613" lon="0.73657">
        <ele>152.9</ele>
        <time>1970-01-01T01:28:42.000Z</time>
      </trkpt>
      <trkpt lat="45.03614" lon="0.73659">
        <ele>153.8</ele>
        <time>1970-01-01T01:28:43.000Z</time>
      </trkpt>
      <trkpt lat="45.03615" lon="0.7366">
        <ele>153.8</ele>
        <time>1970-01-01T01:28:44.000Z</time>
      </trkpt>
      <trkpt lat="45.03616" lon="0.73661">
        <ele>153.8</ele>
        <time>1970-01-01T01:28:45.000Z</time>
      </trkpt>
      <trkpt lat="45.03617" lon="0.73662">
        <ele>153.8</ele>
        <time>1970-01-01T01:28:46.000Z</time>
      </trkpt>
      <trkpt lat="45.03618" lon="0.73664">
        <ele>154.8</ele>
        <time>1970-01-01T01:28:47.000Z</time>
      </trkpt>
      <trkpt lat="45.03619" lon="0.73665">
        <ele>154.8</ele>
        <time>1970-01-01T01:28:48.000Z</time>
      </trkpt>
      <trkpt lat="45.0362" lon="0.73667">
        <ele>154.8</ele>
        <time>1970-01-01T01:28:49.000Z</time>
      </trkpt>
      <trkpt lat="45.03621" lon="0.73668">
        <ele>154.8</ele>
        <time>1970-01-01T01:28:50.000Z</time>
      </trkpt>
      <trkpt lat="45.03622" lon="0.7367">
        <ele>154.8</ele>
        <time>1970-01-01T01:28:51.000Z</time>
      </trkpt>
      <trkpt lat="45.03623" lon="0.73672">
        <ele>154.8</ele>
        <time>1970-01-01T01:28:52.000Z</time>
      </trkpt>
      <trkpt lat="45.03624" lon="0.73673">
        <ele>154.8</ele>
        <time>1970-01-01T01:28:53.000Z</time>
      </trkpt>
      <trkpt lat="45.03625" lon="0.73675">
        <ele>154.8</ele>
        <time>1970-01-01T01:28:54.000Z</time>
      </trkpt>
      <trkpt lat="45.03625" lon="0.73677">
        <ele>154.8</ele>
        <time>1970-01-01T01:28:55.000Z</time>
      </trkpt>
      <trkpt lat="45.03626" lon="0.73679">
        <ele>154.8</ele>
        <time>1970-01-01T01:28:56.000Z</time>
      </trkpt>
      <trkpt lat="45.03627" lon="0.7368">
        <ele>156.8</ele>
        <time>1970-01-01T01:28:57.000Z</time>
      </trkpt>
      <trkpt lat="45.03628" lon="0.73682">
        <ele>156.8</ele>
        <time>1970-01-01T01:28:58.000Z</time>
      </trkpt>
      <trkpt lat="45.03629" lon="0.73683">
        <ele>156.8</ele>
        <time>1970-01-01T01:28:59.000Z</time>
      </trkpt>
      <trkpt lat="45.0363" lon="0.73685">
        <ele>156.8</ele>
        <time>1970-01-01T01:29:00.000Z</time>
      </trkpt>
      <trkpt lat="45.03631" lon="0.73686">
        <ele>157.9</ele>
        <time>1970-01-01T01:29:01.000Z</time>
      </trkpt>
      <trkpt lat="45.03631" lon="0.73687">
        <ele>157.9</ele>
        <time>1970-01-01T01:29:02.000Z</time>
      </trkpt>
      <trkpt lat="45.03632" lon="0.73689">
        <ele>157.9</ele>
        <time>1970-01-01T01:29:03.000Z</time>
      </trkpt>
      <trkpt lat="45.03633" lon="0.7369">
        <ele>157.9</ele>
        <time>1970-01-01T01:29:04.000Z</time>
      </trkpt>
      <trkpt lat="45.03633" lon="0.73692">
        <ele>157.9</ele>
        <time>1970-01-01T01:29:05.000Z</time>
      </trkpt>
      <trkpt lat="45.03634" lon="0.73693">
        <ele>157.9</ele>
        <time>1970-01-01T01:29:06.000Z</time>
      </trkpt>
      <trkpt lat="45.03635" lon="0.73695">
        <ele>157.9</ele>
        <time>1970-01-01T01:29:07.000Z</time>
      </trkpt>
      <trkpt lat="45.03636" lon="0.73697">
        <ele>157.9</ele>
        <time>1970-01-01T01:29:08.000Z</time>
      </trkpt>
      <trkpt lat="45.03637" lon="0.73698">
        <ele>157.9</ele>
        <time>1970-01-01T01:29:09.000Z</time>
      </trkpt>
      <trkpt lat="45.03638" lon="0.737">
        <ele>157.9</ele>
        <time>1970-01-01T01:29:10.000Z</time>
      </trkpt>
      <trkpt lat="45.03638" lon="0.73701">
        <ele>157.9</ele>
        <time>1970-01-01T01:29:11.000Z</time>
      </trkpt>
      <trkpt lat="45.03639" lon="0.73703">
        <ele>157.9</ele>
        <time>1970-01-01T01:29:12.000Z</time>
      </trkpt>
      <trkpt lat="45.0364" lon="0.73705">
        <ele>157.9</ele>
        <time>1970-01-01T01:29:13.000Z</time>
      </trkpt>
      <trkpt lat="45.0364" lon="0.73707">
        <ele>157.9</ele>
        <time>1970-01-01T01:29:14.000Z</time>
      </trkpt>
      <trkpt lat="45.03641" lon="0.73709">
        <ele>159.9</ele>
        <time>1970-01-01T01:29:15.000Z</time>
      </trkpt>
      <trkpt lat="45.03642" lon="0.73711">
        <ele>159.9</ele>
        <time>1970-01-01T01:29:16.000Z</time>
      </trkpt>
      <trkpt lat="45.03642" lon="0.73713">
        <ele>159.9</ele>
        <time>1970-01-01T01:29:17.000Z</time>
      </trkpt>
      <trkpt lat="45.03643" lon="0.73715">
        <ele>159.9</ele>
        <time>1970-01-01T01:29:18.000Z</time>
      </trkpt>
      <trkpt lat="45.03644" lon="0.73716">
        <ele>161.9</ele>
        <time>1970-01-01T01:29:19.000Z</time>
      </trkpt>
      <trkpt lat="45.03645" lon="0.73719">
        <ele>161.9</ele>
        <time>1970-01-01T01:29:20.000Z</time>
      </trkpt>
      <trkpt lat="45.03646" lon="0.7372">
        <ele>161.9</ele>
        <time>1970-01-01T01:29:21.000Z</time>
      </trkpt>
      <trkpt lat="45.03647" lon="0.73722">
        <ele>161.9</ele>
        <time>1970-01-01T01:29:22.000Z</time>
      </trkpt>
      <trkpt lat="45.03648" lon="0.73724">
        <ele>161.9</ele>
        <time>1970-01-01T01:29:23.000Z</time>
      </trkpt>
      <trkpt lat="45.03649" lon="0.73726">
        <ele>161.9</ele>
        <time>1970-01-01T01:29:24.000Z</time>
      </trkpt>
      <trkpt lat="45.0365" lon="0.73727">
        <ele>162.8</ele>
        <time>1970-01-01T01:29:25.000Z</time>
      </trkpt>
      <trkpt lat="45.03651" lon="0.73729">
        <ele>162.8</ele>
        <time>1970-01-01T01:29:26.000Z</time>
      </trkpt>
      <trkpt lat="45.03652" lon="0.7373">
        <ele>162.8</ele>
        <time>1970-01-01T01:29:27.000Z</time>
      </trkpt>
      <trkpt lat="45.03653" lon="0.73732">
        <ele>162.8</ele>
        <time>1970-01-01T01:29:28.000Z</time>
      </trkpt>
      <trkpt lat="45.03654" lon="0.73734">
        <ele>163.8</ele>
        <time>1970-01-01T01:29:29.000Z</time>
      </trkpt>
      <trkpt lat="45.03655" lon="0.73736">
        <ele>163.8</ele>
        <time>1970-01-01T01:29:30.000Z</time>
      </trkpt>
      <trkpt lat="45.03655" lon="0.73738">
        <ele>163.8</ele>
        <time>1970-01-01T01:29:31.000Z</time>
      </trkpt>
      <trkpt lat="45.03656" lon="0.7374">
        <ele>163.8</ele>
        <time>1970-01-01T01:29:32.000Z</time>
      </trkpt>
      <trkpt lat="45.03657" lon="0.73742">
        <ele>164.9</ele>
        <time>1970-01-01T01:29:33.000Z</time>
      </trkpt>
      <trkpt lat="45.03658" lon="0.73744">
        <ele>164.9</ele>
        <time>1970-01-01T01:29:34.000Z</time>
      </trkpt>
      <trkpt lat="45.03659" lon="0.73746">
        <ele>164.9</ele>
        <time>1970-01-01T01:29:35.000Z</time>
      </trkpt>
      <trkpt lat="45.0366" lon="0.73748">
        <ele>164.9</ele>
        <time>1970-01-01T01:29:36.000Z</time>
      </trkpt>
      <trkpt lat="45.03661" lon="0.7375">
        <ele>164.9</ele>
        <time>1970-01-01T01:29:37.000Z</time>
      </trkpt>
      <trkpt lat="45.03662" lon="0.73752">
        <ele>164.9</ele>
        <time>1970-01-01T01:29:38.000Z</time>
      </trkpt>
      <trkpt lat="45.03663" lon="0.73754">
        <ele>164.9</ele>
        <time>1970-01-01T01:29:39.000Z</time>
      </trkpt>
      <trkpt lat="45.03664" lon="0.73755">
        <ele>164.9</ele>
        <time>1970-01-01T01:29:40.000Z</time>
      </trkpt>
      <trkpt lat="45.03665" lon="0.73757">
        <ele>166.9</ele>
        <time>1970-01-01T01:29:41.000Z</time>
      </trkpt>
      <trkpt lat="45.03666" lon="0.73759">
        <ele>166.9</ele>
        <time>1970-01-01T01:29:42.000Z</time>
      </trkpt>
      <trkpt lat="45.03667" lon="0.73761">
        <ele>166.9</ele>
        <time>1970-01-01T01:29:43.000Z</time>
      </trkpt>
      <trkpt lat="45.03668" lon="0.73763">
        <ele>166.9</ele>
        <time>1970-01-01T01:29:44.000Z</time>
      </trkpt>
      <trkpt lat="45.03669" lon="0.73765">
        <ele>166.9</ele>
        <time>1970-01-01T01:29:45.000Z</time>
      </trkpt>
      <trkpt lat="45.03671" lon="0.73766">
        <ele>166.9</ele>
        <time>1970-01-01T01:29:46.000Z</time>
      </trkpt>
      <trkpt lat="45.03672" lon="0.73768">
        <ele>166.9</ele>
        <time>1970-01-01T01:29:47.000Z</time>
      </trkpt>
      <trkpt lat="45.03673" lon="0.73769">
        <ele>166.9</ele>
        <time>1970-01-01T01:29:48.000Z</time>
      </trkpt>
      <trkpt lat="45.03674" lon="0.73771">
        <ele>167.8</ele>
        <time>1970-01-01T01:29:49.000Z</time>
      </trkpt>
      <trkpt lat="45.03676" lon="0.73772">
        <ele>167.8</ele>
        <time>1970-01-01T01:29:50.000Z</time>
      </trkpt>
      <trkpt lat="45.03677" lon="0.73774">
        <ele>167.8</ele>
        <time>1970-01-01T01:29:51.000Z</time>
      </trkpt>
      <trkpt lat="45.03678" lon="0.73776">
        <ele>167.8</ele>
        <time>1970-01-01T01:29:52.000Z</time>
      </trkpt>
      <trkpt lat="45.03679" lon="0.73777">
        <ele>167.8</ele>
        <time>1970-01-01T01:29:53.000Z</time>
      </trkpt>
      <trkpt lat="45.0368" lon="0.73779">
        <ele>167.8</ele>
        <time>1970-01-01T01:29:54.000Z</time>
      </trkpt>
      <trkpt lat="45.03681" lon="0.73781">
        <ele>168.9</ele>
        <time>1970-01-01T01:29:55.000Z</time>
      </trkpt>
      <trkpt lat="45.03683" lon="0.73782">
        <ele>168.9</ele>
        <time>1970-01-01T01:29:56.000Z</time>
      </trkpt>
      <trkpt lat="45.03684" lon="0.73784">
        <ele>169.8</ele>
        <time>1970-01-01T01:29:57.000Z</time>
      </trkpt>
      <trkpt lat="45.03686" lon="0.73786">
        <ele>169.8</ele>
        <time>1970-01-01T01:29:58.000Z</time>
      </trkpt>
      <trkpt lat="45.03687" lon="0.73787">
        <ele>169.8</ele>
        <time>1970-01-01T01:29:59.000Z</time>
      </trkpt>
      <trkpt lat="45.03688" lon="0.73789">
        <ele>169.8</ele>
        <time>1970-01-01T01:30:00.000Z</time>
      </trkpt>
      <trkpt lat="45.03689" lon="0.7379">
        <ele>169.8</ele>
        <time>1970-01-01T01:30:01.000Z</time>
      </trkpt>
      <trkpt lat="45.0369" lon="0.73792">
        <ele>169.8</ele>
        <time>1970-01-01T01:30:02.000Z</time>
      </trkpt>
      <trkpt lat="45.03691" lon="0.73793">
        <ele>169.8</ele>
        <time>1970-01-01T01:30:03.000Z</time>
      </trkpt>
      <trkpt lat="45.03692" lon="0.73794">
        <ele>169.8</ele>
        <time>1970-01-01T01:30:04.000Z</time>
      </trkpt>
      <trkpt lat="45.03694" lon="0.73796">
        <ele>169.8</ele>
        <time>1970-01-01T01:30:05.000Z</time>
      </trkpt>
      <trkpt lat="45.03695" lon="0.73797">
        <ele>169.8</ele>
        <time>1970-01-01T01:30:06.000Z</time>
      </trkpt>
      <trkpt lat="45.03696" lon="0.73799">
        <ele>169.8</ele>
        <time>1970-01-01T01:30:07.000Z</time>
      </trkpt>
      <trkpt lat="45.03697" lon="0.738">
        <ele>169.8</ele>
        <time>1970-01-01T01:30:08.000Z</time>
      </trkpt>
      <trkpt lat="45.03698" lon="0.73801">
        <ele>170.8</ele>
        <time>1970-01-01T01:30:09.000Z</time>
      </trkpt>
      <trkpt lat="45.03699" lon="0.73803">
        <ele>170.8</ele>
        <time>1970-01-01T01:30:10.000Z</time>
      </trkpt>
      <trkpt lat="45.03701" lon="0.73804">
        <ele>170.8</ele>
        <time>1970-01-01T01:30:11.000Z</time>
      </trkpt>
      <trkpt lat="45.03702" lon="0.73805">
        <ele>170.8</ele>
        <time>1970-01-01T01:30:12.000Z</time>
      </trkpt>
      <trkpt lat="45.03703" lon="0.73807">
        <ele>170.8</ele>
        <time>1970-01-01T01:30:13.000Z</time>
      </trkpt>
      <trkpt lat="45.03704" lon="0.73808">
        <ele>170.8</ele>
        <time>1970-01-01T01:30:14.000Z</time>
      </trkpt>
      <trkpt lat="45.03705" lon="0.7381">
        <ele>170.8</ele>
        <time>1970-01-01T01:30:15.000Z</time>
      </trkpt>
      <trkpt lat="45.03706" lon="0.73811">
        <ele>170.8</ele>
        <time>1970-01-01T01:30:16.000Z</time>
      </trkpt>
      <trkpt lat="45.03708" lon="0.73813">
        <ele>172.8</ele>
        <time>1970-01-01T01:30:17.000Z</time>
      </trkpt>
      <trkpt lat="45.03709" lon="0.73814">
        <ele>172.8</ele>
        <time>1970-01-01T01:30:18.000Z</time>
      </trkpt>
      <trkpt lat="45.0371" lon="0.73815">
        <ele>172.8</ele>
        <time>1970-01-01T01:30:19.000Z</time>
      </trkpt>
      <trkpt lat="45.03711" lon="0.73816">
        <ele>172.8</ele>
        <time>1970-01-01T01:30:20.000Z</time>
      </trkpt>
      <trkpt lat="45.03712" lon="0.73817">
        <ele>172.8</ele>
        <time>1970-01-01T01:30:21.000Z</time>
      </trkpt>
      <trkpt lat="45.03713" lon="0.73818">
        <ele>172.8</ele>
        <time>1970-01-01T01:30:22.000Z</time>
      </trkpt>
      <trkpt lat="45.03714" lon="0.7382">
        <ele>175.9</ele>
        <time>1970-01-01T01:30:23.000Z</time>
      </trkpt>
      <trkpt lat="45.03715" lon="0.73821">
        <ele>175.9</ele>
        <time>1970-01-01T01:30:24.000Z</time>
      </trkpt>
      <trkpt lat="45.03716" lon="0.73823">
        <ele>175.9</ele>
        <time>1970-01-01T01:30:25.000Z</time>
      </trkpt>
      <trkpt lat="45.03717" lon="0.73824">
        <ele>175.9</ele>
        <time>1970-01-01T01:30:26.000Z</time>
      </trkpt>
      <trkpt lat="45.03719" lon="0.73826">
        <ele>176.8</ele>
        <time>1970-01-01T01:30:27.000Z</time>
      </trkpt>
      <trkpt lat="45.0372" lon="0.73827">
        <ele>176.8</ele>
        <time>1970-01-01T01:30:28.000Z</time>
      </trkpt>
      <trkpt lat="45.03721" lon="0.73829">
        <ele>177.9</ele>
        <time>1970-01-01T01:30:29.000Z</time>
      </trkpt>
      <trkpt lat="45.03722" lon="0.73831">
        <ele>177.9</ele>
        <time>1970-01-01T01:30:30.000Z</time>
      </trkpt>
      <trkpt lat="45.03722" lon="0.73832">
        <ele>177.9</ele>
        <time>1970-01-01T01:30:31.000Z</time>
      </trkpt>
      <trkpt lat="45.03723" lon="0.73833">
        <ele>177.9</ele>
        <time>1970-01-01T01:30:32.000Z</time>
      </trkpt>
      <trkpt lat="45.03724" lon="0.73834">
        <ele>177.9</ele>
        <time>1970-01-01T01:30:33.000Z</time>
      </trkpt>
      <trkpt lat="45.03726" lon="0.73836">
        <ele>177.9</ele>
        <time>1970-01-01T01:30:34.000Z</time>
      </trkpt>
      <trkpt lat="45.03727" lon="0.73837">
        <ele>177.9</ele>
        <time>1970-01-01T01:30:35.000Z</time>
      </trkpt>
      <trkpt lat="45.03728" lon="0.73839">
        <ele>177.9</ele>
        <time>1970-01-01T01:30:36.000Z</time>
      </trkpt>
      <trkpt lat="45.03729" lon="0.7384">
        <ele>178.8</ele>
        <time>1970-01-01T01:30:37.000Z</time>
      </trkpt>
      <trkpt lat="45.03731" lon="0.73841">
        <ele>178.8</ele>
        <time>1970-01-01T01:30:38.000Z</time>
      </trkpt>
      <trkpt lat="45.03732" lon="0.73843">
        <ele>178.8</ele>
        <time>1970-01-01T01:30:39.000Z</time>
      </trkpt>
      <trkpt lat="45.03733" lon="0.73844">
        <ele>178.8</ele>
        <time>1970-01-01T01:30:40.000Z</time>
      </trkpt>
      <trkpt lat="45.03735" lon="0.73845">
        <ele>179.8</ele>
        <time>1970-01-01T01:30:41.000Z</time>
      </trkpt>
      <trkpt lat="45.03736" lon="0.73846">
        <ele>179.8</ele>
        <time>1970-01-01T01:30:42.000Z</time>
      </trkpt>
      <trkpt lat="45.03737" lon="0.73848">
        <ele>179.8</ele>
        <time>1970-01-01T01:30:43.000Z</time>
      </trkpt>
      <trkpt lat="45.03739" lon="0.73849">
        <ele>179.8</ele>
        <time>1970-01-01T01:30:44.000Z</time>
      </trkpt>
      <trkpt lat="45.0374" lon="0.7385">
        <ele>180.9</ele>
        <time>1970-01-01T01:30:45.000Z</time>
      </trkpt>
      <trkpt lat="45.03741" lon="0.73852">
        <ele>180.9</ele>
        <time>1970-01-01T01:30:46.000Z</time>
      </trkpt>
      <trkpt lat="45.03743" lon="0.73853">
        <ele>180.9</ele>
        <time>1970-01-01T01:30:47.000Z</time>
      </trkpt>
      <trkpt lat="45.03744" lon="0.73855">
        <ele>180.9</ele>
        <time>1970-01-01T01:30:48.000Z</time>
      </trkpt>
      <trkpt lat="45.03745" lon="0.73856">
        <ele>180.9</ele>
        <time>1970-01-01T01:30:49.000Z</time>
      </trkpt>
      <trkpt lat="45.03746" lon="0.73858">
        <ele>180.9</ele>
        <time>1970-01-01T01:30:50.000Z</time>
      </trkpt>
      <trkpt lat="45.03747" lon="0.7386">
        <ele>181.8</ele>
        <time>1970-01-01T01:30:51.000Z</time>
      </trkpt>
      <trkpt lat="45.03749" lon="0.73862">
        <ele>181.8</ele>
        <time>1970-01-01T01:30:52.000Z</time>
      </trkpt>
      <trkpt lat="45.0375" lon="0.73864">
        <ele>181.8</ele>
        <time>1970-01-01T01:30:53.000Z</time>
      </trkpt>
      <trkpt lat="45.03751" lon="0.73866">
        <ele>181.8</ele>
        <time>1970-01-01T01:30:54.000Z</time>
      </trkpt>
      <trkpt lat="45.03752" lon="0.73868">
        <ele>182.9</ele>
        <time>1970-01-01T01:30:55.000Z</time>
      </trkpt>
      <trkpt lat="45.03754" lon="0.7387">
        <ele>182.9</ele>
        <time>1970-01-01T01:30:56.000Z</time>
      </trkpt>
      <trkpt lat="45.03755" lon="0.73872">
        <ele>182.9</ele>
        <time>1970-01-01T01:30:57.000Z</time>
      </trkpt>
      <trkpt lat="45.03757" lon="0.73874">
        <ele>182.9</ele>
        <time>1970-01-01T01:30:58.000Z</time>
      </trkpt>
      <trkpt lat="45.03759" lon="0.73877">
        <ele>182.9</ele>
        <time>1970-01-01T01:30:59.000Z</time>
      </trkpt>
      <trkpt lat="45.0376" lon="0.73879">
        <ele>182.9</ele>
        <time>1970-01-01T01:31:00.000Z</time>
      </trkpt>
      <trkpt lat="45.03761" lon="0.73882">
        <ele>182.9</ele>
        <time>1970-01-01T01:31:01.000Z</time>
      </trkpt>
      <trkpt lat="45.03763" lon="0.73884">
        <ele>182.9</ele>
        <time>1970-01-01T01:31:02.000Z</time>
      </trkpt>
      <trkpt lat="45.03764" lon="0.73887">
        <ele>182.9</ele>
        <time>1970-01-01T01:31:03.000Z</time>
      </trkpt>
      <trkpt lat="45.03766" lon="0.73889">
        <ele>182.9</ele>
        <time>1970-01-01T01:31:04.000Z</time>
      </trkpt>
      <trkpt lat="45.03767" lon="0.73892">
        <ele>183.8</ele>
        <time>1970-01-01T01:31:05.000Z</time>
      </trkpt>
      <trkpt lat="45.03769" lon="0.73895">
        <ele>183.8</ele>
        <time>1970-01-01T01:31:06.000Z</time>
      </trkpt>
      <trkpt lat="45.0377" lon="0.73897">
        <ele>183.8</ele>
        <time>1970-01-01T01:31:07.000Z</time>
      </trkpt>
      <trkpt lat="45.03771" lon="0.739">
        <ele>183.8</ele>
        <time>1970-01-01T01:31:08.000Z</time>
      </trkpt>
      <trkpt lat="45.03773" lon="0.73903">
        <ele>183.8</ele>
        <time>1970-01-01T01:31:09.000Z</time>
      </trkpt>
      <trkpt lat="45.03775" lon="0.73905">
        <ele>183.8</ele>
        <time>1970-01-01T01:31:10.000Z</time>
      </trkpt>
      <trkpt lat="45.03777" lon="0.73908">
        <ele>183.8</ele>
        <time>1970-01-01T01:31:11.000Z</time>
      </trkpt>
      <trkpt lat="45.03779" lon="0.73911">
        <ele>183.8</ele>
        <time>1970-01-01T01:31:12.000Z</time>
      </trkpt>
      <trkpt lat="45.03781" lon="0.73914">
        <ele>184.9</ele>
        <time>1970-01-01T01:31:13.000Z</time>
      </trkpt>
      <trkpt lat="45.03783" lon="0.73917">
        <ele>184.9</ele>
        <time>1970-01-01T01:31:14.000Z</time>
      </trkpt>
      <trkpt lat="45.03785" lon="0.7392">
        <ele>184.9</ele>
        <time>1970-01-01T01:31:15.000Z</time>
      </trkpt>
      <trkpt lat="45.03788" lon="0.73923">
        <ele>184.9</ele>
        <time>1970-01-01T01:31:16.000Z</time>
      </trkpt>
      <trkpt lat="45.0379" lon="0.73925">
        <ele>184.9</ele>
        <time>1970-01-01T01:31:17.000Z</time>
      </trkpt>
      <trkpt lat="45.03793" lon="0.73927">
        <ele>184.9</ele>
        <time>1970-01-01T01:31:18.000Z</time>
      </trkpt>
      <trkpt lat="45.03796" lon="0.73928">
        <ele>184.9</ele>
        <time>1970-01-01T01:31:19.000Z</time>
      </trkpt>
      <trkpt lat="45.03799" lon="0.73929">
        <ele>184.9</ele>
        <time>1970-01-01T01:31:20.000Z</time>
      </trkpt>
      <trkpt lat="45.03802" lon="0.73931">
        <ele>184.9</ele>
        <time>1970-01-01T01:31:21.000Z</time>
      </trkpt>
      <trkpt lat="45.03805" lon="0.73933">
        <ele>184.9</ele>
        <time>1970-01-01T01:31:22.000Z</time>
      </trkpt>
      <trkpt lat="45.03807" lon="0.73936">
        <ele>184.9</ele>
        <time>1970-01-01T01:31:23.000Z</time>
      </trkpt>
      <trkpt lat="45.0381" lon="0.73939">
        <ele>184.9</ele>
        <time>1970-01-01T01:31:24.000Z</time>
      </trkpt>
      <trkpt lat="45.03813" lon="0.73942">
        <ele>184.9</ele>
        <time>1970-01-01T01:31:25.000Z</time>
      </trkpt>
      <trkpt lat="45.03816" lon="0.73945">
        <ele>184.9</ele>
        <time>1970-01-01T01:31:26.000Z</time>
      </trkpt>
      <trkpt lat="45.03818" lon="0.73949">
        <ele>184.9</ele>
        <time>1970-01-01T01:31:27.000Z</time>
      </trkpt>
      <trkpt lat="45.03821" lon="0.73952">
        <ele>184.9</ele>
        <time>1970-01-01T01:31:28.000Z</time>
      </trkpt>
      <trkpt lat="45.03824" lon="0.73956">
        <ele>184.9</ele>
        <time>1970-01-01T01:31:29.000Z</time>
      </trkpt>
      <trkpt lat="45.03826" lon="0.73959">
        <ele>184.9</ele>
        <time>1970-01-01T01:31:30.000Z</time>
      </trkpt>
      <trkpt lat="45.03828" lon="0.73964">
        <ele>184.9</ele>
        <time>1970-01-01T01:31:31.000Z</time>
      </trkpt>
      <trkpt lat="45.0383" lon="0.73968">
        <ele>184.9</ele>
        <time>1970-01-01T01:31:32.000Z</time>
      </trkpt>
      <trkpt lat="45.03832" lon="0.73973">
        <ele>184.9</ele>
        <time>1970-01-01T01:31:33.000Z</time>
      </trkpt>
      <trkpt lat="45.03835" lon="0.73979">
        <ele>184.9</ele>
        <time>1970-01-01T01:31:34.000Z</time>
      </trkpt>
      <trkpt lat="45.03837" lon="0.73985">
        <ele>184.9</ele>
        <time>1970-01-01T01:31:35.000Z</time>
      </trkpt>
      <trkpt lat="45.03839" lon="0.73991">
        <ele>184.9</ele>
        <time>1970-01-01T01:31:36.000Z</time>
      </trkpt>
      <trkpt lat="45.03841" lon="0.73998">
        <ele>184.9</ele>
        <time>1970-01-01T01:31:37.000Z</time>
      </trkpt>
      <trkpt lat="45.03844" lon="0.74004">
        <ele>184.9</ele>
        <time>1970-01-01T01:31:38.000Z</time>
      </trkpt>
      <trkpt lat="45.03846" lon="0.74011">
        <ele>183.8</ele>
        <time>1970-01-01T01:31:39.000Z</time>
      </trkpt>
      <trkpt lat="45.03849" lon="0.74018">
        <ele>183.8</ele>
        <time>1970-01-01T01:31:40.000Z</time>
      </trkpt>
      <trkpt lat="45.03852" lon="0.74026">
        <ele>183.8</ele>
        <time>1970-01-01T01:31:41.000Z</time>
      </trkpt>
      <trkpt lat="45.03855" lon="0.74033">
        <ele>183.8</ele>
        <time>1970-01-01T01:31:42.000Z</time>
      </trkpt>
      <trkpt lat="45.03857" lon="0.74041">
        <ele>183.8</ele>
        <time>1970-01-01T01:31:43.000Z</time>
      </trkpt>
      <trkpt lat="45.03859" lon="0.74049">
        <ele>183.8</ele>
        <time>1970-01-01T01:31:44.000Z</time>
      </trkpt>
      <trkpt lat="45.03862" lon="0.74057">
        <ele>183.8</ele>
        <time>1970-01-01T01:31:45.000Z</time>
      </trkpt>
      <trkpt lat="45.03864" lon="0.74064">
        <ele>183.8</ele>
        <time>1970-01-01T01:31:46.000Z</time>
      </trkpt>
      <trkpt lat="45.03867" lon="0.74072">
        <ele>182.9</ele>
        <time>1970-01-01T01:31:47.000Z</time>
      </trkpt>
      <trkpt lat="45.03869" lon="0.7408">
        <ele>182.9</ele>
        <time>1970-01-01T01:31:48.000Z</time>
      </trkpt>
      <trkpt lat="45.03872" lon="0.74088">
        <ele>182.9</ele>
        <time>1970-01-01T01:31:49.000Z</time>
      </trkpt>
      <trkpt lat="45.03874" lon="0.74095">
        <ele>182.9</ele>
        <time>1970-01-01T01:31:50.000Z</time>
      </trkpt>
      <trkpt lat="45.03877" lon="0.74103">
        <ele>182.9</ele>
        <time>1970-01-01T01:31:51.000Z</time>
      </trkpt>
      <trkpt lat="45.0388" lon="0.7411">
        <ele>182.9</ele>
        <time>1970-01-01T01:31:52.000Z</time>
      </trkpt>
      <trkpt lat="45.03882" lon="0.74118">
        <ele>182.9</ele>
        <time>1970-01-01T01:31:53.000Z</time>
      </trkpt>
      <trkpt lat="45.03885" lon="0.74125">
        <ele>182.9</ele>
        <time>1970-01-01T01:31:54.000Z</time>
      </trkpt>
      <trkpt lat="45.03888" lon="0.74133">
        <ele>182.9</ele>
        <time>1970-01-01T01:31:55.000Z</time>
      </trkpt>
      <trkpt lat="45.03891" lon="0.74141">
        <ele>182.9</ele>
        <time>1970-01-01T01:31:56.000Z</time>
      </trkpt>
      <trkpt lat="45.03894" lon="0.74148">
        <ele>182.9</ele>
        <time>1970-01-01T01:31:57.000Z</time>
      </trkpt>
      <trkpt lat="45.03897" lon="0.74155">
        <ele>182.9</ele>
        <time>1970-01-01T01:31:58.000Z</time>
      </trkpt>
      <trkpt lat="45.039" lon="0.74162">
        <ele>181.8</ele>
        <time>1970-01-01T01:31:59.000Z</time>
      </trkpt>
      <trkpt lat="45.03903" lon="0.74169">
        <ele>181.8</ele>
        <time>1970-01-01T01:32:00.000Z</time>
      </trkpt>
      <trkpt lat="45.03906" lon="0.74176">
        <ele>181.8</ele>
        <time>1970-01-01T01:32:01.000Z</time>
      </trkpt>
      <trkpt lat="45.03909" lon="0.74183">
        <ele>181.8</ele>
        <time>1970-01-01T01:32:02.000Z</time>
      </trkpt>
      <trkpt lat="45.03912" lon="0.7419">
        <ele>181.8</ele>
        <time>1970-01-01T01:32:03.000Z</time>
      </trkpt>
      <trkpt lat="45.03914" lon="0.74197">
        <ele>181.8</ele>
        <time>1970-01-01T01:32:04.000Z</time>
      </trkpt>
      <trkpt lat="45.03917" lon="0.74204">
        <ele>181.8</ele>
        <time>1970-01-01T01:32:05.000Z</time>
      </trkpt>
      <trkpt lat="45.0392" lon="0.74211">
        <ele>181.8</ele>
        <time>1970-01-01T01:32:06.000Z</time>
      </trkpt>
      <trkpt lat="45.03923" lon="0.74219">
        <ele>181.8</ele>
        <time>1970-01-01T01:32:07.000Z</time>
      </trkpt>
      <trkpt lat="45.03926" lon="0.74226">
        <ele>181.8</ele>
        <time>1970-01-01T01:32:08.000Z</time>
      </trkpt>
      <trkpt lat="45.03929" lon="0.74233">
        <ele>181.8</ele>
        <time>1970-01-01T01:32:09.000Z</time>
      </trkpt>
      <trkpt lat="45.03931" lon="0.74241">
        <ele>181.8</ele>
        <time>1970-01-01T01:32:10.000Z</time>
      </trkpt>
      <trkpt lat="45.03934" lon="0.74248">
        <ele>181.8</ele>
        <time>1970-01-01T01:32:11.000Z</time>
      </trkpt>
      <trkpt lat="45.03937" lon="0.74255">
        <ele>181.8</ele>
        <time>1970-01-01T01:32:12.000Z</time>
      </trkpt>
      <trkpt lat="45.0394" lon="0.74263">
        <ele>181.8</ele>
        <time>1970-01-01T01:32:13.000Z</time>
      </trkpt>
      <trkpt lat="45.03943" lon="0.7427">
        <ele>181.8</ele>
        <time>1970-01-01T01:32:14.000Z</time>
      </trkpt>
      <trkpt lat="45.03946" lon="0.74277">
        <ele>181.8</ele>
        <time>1970-01-01T01:32:15.000Z</time>
      </trkpt>
      <trkpt lat="45.03949" lon="0.74284">
        <ele>181.8</ele>
        <time>1970-01-01T01:32:16.000Z</time>
      </trkpt>
      <trkpt lat="45.03952" lon="0.74291">
        <ele>181.8</ele>
        <time>1970-01-01T01:32:17.000Z</time>
      </trkpt>
      <trkpt lat="45.03955" lon="0.74298">
        <ele>181.8</ele>
        <time>1970-01-01T01:32:18.000Z</time>
      </trkpt>
      <trkpt lat="45.03957" lon="0.74305">
        <ele>181.8</ele>
        <time>1970-01-01T01:32:19.000Z</time>
      </trkpt>
      <trkpt lat="45.03958" lon="0.74312">
        <ele>181.8</ele>
        <time>1970-01-01T01:32:20.000Z</time>
      </trkpt>
      <trkpt lat="45.03959" lon="0.74319">
        <ele>181.8</ele>
        <time>1970-01-01T01:32:21.000Z</time>
      </trkpt>
      <trkpt lat="45.03959" lon="0.74326">
        <ele>181.8</ele>
        <time>1970-01-01T01:32:22.000Z</time>
      </trkpt>
      <trkpt lat="45.03959" lon="0.74333">
        <ele>181.8</ele>
        <time>1970-01-01T01:32:23.000Z</time>
      </trkpt>
      <trkpt lat="45.03958" lon="0.7434">
        <ele>181.8</ele>
        <time>1970-01-01T01:32:24.000Z</time>
      </trkpt>
      <trkpt lat="45.03958" lon="0.74348">
        <ele>181.8</ele>
        <time>1970-01-01T01:32:25.000Z</time>
      </trkpt>
      <trkpt lat="45.03957" lon="0.74355">
        <ele>181.8</ele>
        <time>1970-01-01T01:32:26.000Z</time>
      </trkpt>
      <trkpt lat="45.03956" lon="0.74362">
        <ele>181.8</ele>
        <time>1970-01-01T01:32:27.000Z</time>
      </trkpt>
      <trkpt lat="45.03956" lon="0.7437">
        <ele>181.8</ele>
        <time>1970-01-01T01:32:28.000Z</time>
      </trkpt>
      <trkpt lat="45.03955" lon="0.74377">
        <ele>181.8</ele>
        <time>1970-01-01T01:32:29.000Z</time>
      </trkpt>
      <trkpt lat="45.03955" lon="0.74383">
        <ele>180.9</ele>
        <time>1970-01-01T01:32:30.000Z</time>
      </trkpt>
      <trkpt lat="45.03955" lon="0.74388">
        <ele>180.9</ele>
        <time>1970-01-01T01:32:31.000Z</time>
      </trkpt>
      <trkpt lat="45.03955" lon="0.7439">
        <ele>180.9</ele>
        <time>1970-01-01T01:32:32.000Z</time>
      </trkpt>
      <trkpt lat="45.03957" lon="0.74392">
        <ele>180.9</ele>
        <time>1970-01-01T01:32:33.000Z</time>
      </trkpt>
      <trkpt lat="45.03958" lon="0.74391">
        <ele>180.9</ele>
        <time>1970-01-01T01:32:34.000Z</time>
      </trkpt>
      <trkpt lat="45.0396" lon="0.74389">
        <ele>180.9</ele>
        <time>1970-01-01T01:32:35.000Z</time>
      </trkpt>
      <trkpt lat="45.03962" lon="0.74386">
        <ele>180.9</ele>
        <time>1970-01-01T01:32:36.000Z</time>
      </trkpt>
      <trkpt lat="45.03964" lon="0.74383">
        <ele>180.9</ele>
        <time>1970-01-01T01:32:37.000Z</time>
      </trkpt>
      <trkpt lat="45.03967" lon="0.74381">
        <ele>180.9</ele>
        <time>1970-01-01T01:32:38.000Z</time>
      </trkpt>
      <trkpt lat="45.03971" lon="0.74378">
        <ele>180.9</ele>
        <time>1970-01-01T01:32:39.000Z</time>
      </trkpt>
      <trkpt lat="45.03975" lon="0.74376">
        <ele>181.8</ele>
        <time>1970-01-01T01:32:40.000Z</time>
      </trkpt>
      <trkpt lat="45.03979" lon="0.74373">
        <ele>181.8</ele>
        <time>1970-01-01T01:32:41.000Z</time>
      </trkpt>
      <trkpt lat="45.03983" lon="0.74372">
        <ele>181.8</ele>
        <time>1970-01-01T01:32:42.000Z</time>
      </trkpt>
      <trkpt lat="45.03987" lon="0.7437">
        <ele>181.8</ele>
        <time>1970-01-01T01:32:43.000Z</time>
      </trkpt>
      <trkpt lat="45.03992" lon="0.74369">
        <ele>181.8</ele>
        <time>1970-01-01T01:32:44.000Z</time>
      </trkpt>
      <trkpt lat="45.03996" lon="0.74368">
        <ele>181.8</ele>
        <time>1970-01-01T01:32:45.000Z</time>
      </trkpt>
      <trkpt lat="45.04" lon="0.74369">
        <ele>181.8</ele>
        <time>1970-01-01T01:32:46.000Z</time>
      </trkpt>
      <trkpt lat="45.04004" lon="0.74372">
        <ele>181.8</ele>
        <time>1970-01-01T01:32:47.000Z</time>
      </trkpt>
      <trkpt lat="45.04008" lon="0.74376">
        <ele>181.8</ele>
        <time>1970-01-01T01:32:48.000Z</time>
      </trkpt>
      <trkpt lat="45.04011" lon="0.74381">
        <ele>181.8</ele>
        <time>1970-01-01T01:32:49.000Z</time>
      </trkpt>
      <trkpt lat="45.04015" lon="0.74386">
        <ele>181.8</ele>
        <time>1970-01-01T01:32:50.000Z</time>
      </trkpt>
      <trkpt lat="45.0402" lon="0.74392">
        <ele>181.8</ele>
        <time>1970-01-01T01:32:51.000Z</time>
      </trkpt>
      <trkpt lat="45.04024" lon="0.74397">
        <ele>180.9</ele>
        <time>1970-01-01T01:32:52.000Z</time>
      </trkpt>
      <trkpt lat="45.04029" lon="0.74403">
        <ele>180.9</ele>
        <time>1970-01-01T01:32:53.000Z</time>
      </trkpt>
      <trkpt lat="45.04033" lon="0.7441">
        <ele>180.9</ele>
        <time>1970-01-01T01:32:54.000Z</time>
      </trkpt>
      <trkpt lat="45.04038" lon="0.74416">
        <ele>180.9</ele>
        <time>1970-01-01T01:32:55.000Z</time>
      </trkpt>
      <trkpt lat="45.04042" lon="0.74423">
        <ele>179.8</ele>
        <time>1970-01-01T01:32:56.000Z</time>
      </trkpt>
      <trkpt lat="45.04046" lon="0.7443">
        <ele>179.8</ele>
        <time>1970-01-01T01:32:57.000Z</time>
      </trkpt>
      <trkpt lat="45.04051" lon="0.74436">
        <ele>179.8</ele>
        <time>1970-01-01T01:32:58.000Z</time>
      </trkpt>
      <trkpt lat="45.04056" lon="0.74441">
        <ele>179.8</ele>
        <time>1970-01-01T01:32:59.000Z</time>
      </trkpt>
      <trkpt lat="45.04061" lon="0.74447">
        <ele>178.8</ele>
        <time>1970-01-01T01:33:00.000Z</time>
      </trkpt>
      <trkpt lat="45.04066" lon="0.74453">
        <ele>178.8</ele>
        <time>1970-01-01T01:33:01.000Z</time>
      </trkpt>
      <trkpt lat="45.04072" lon="0.74459">
        <ele>177.9</ele>
        <time>1970-01-01T01:33:02.000Z</time>
      </trkpt>
      <trkpt lat="45.04077" lon="0.74465">
        <ele>177.9</ele>
        <time>1970-01-01T01:33:03.000Z</time>
      </trkpt>
      <trkpt lat="45.04082" lon="0.74472">
        <ele>177.9</ele>
        <time>1970-01-01T01:33:04.000Z</time>
      </trkpt>
      <trkpt lat="45.04087" lon="0.74478">
        <ele>177.9</ele>
        <time>1970-01-01T01:33:05.000Z</time>
      </trkpt>
      <trkpt lat="45.04091" lon="0.74485">
        <ele>177.9</ele>
        <time>1970-01-01T01:33:06.000Z</time>
      </trkpt>
      <trkpt lat="45.04096" lon="0.74492">
        <ele>177.9</ele>
        <time>1970-01-01T01:33:07.000Z</time>
      </trkpt>
      <trkpt lat="45.04101" lon="0.74498">
        <ele>177.9</ele>
        <time>1970-01-01T01:33:08.000Z</time>
      </trkpt>
      <trkpt lat="45.04106" lon="0.74505">
        <ele>177.9</ele>
        <time>1970-01-01T01:33:09.000Z</time>
      </trkpt>
      <trkpt lat="45.04112" lon="0.74511">
        <ele>177.9</ele>
        <time>1970-01-01T01:33:10.000Z</time>
      </trkpt>
      <trkpt lat="45.04118" lon="0.74516">
        <ele>177.9</ele>
        <time>1970-01-01T01:33:11.000Z</time>
      </trkpt>
      <trkpt lat="45.04123" lon="0.74522">
        <ele>176.8</ele>
        <time>1970-01-01T01:33:12.000Z</time>
      </trkpt>
      <trkpt lat="45.04129" lon="0.74528">
        <ele>176.8</ele>
        <time>1970-01-01T01:33:13.000Z</time>
      </trkpt>
      <trkpt lat="45.04134" lon="0.74534">
        <ele>176.8</ele>
        <time>1970-01-01T01:33:14.000Z</time>
      </trkpt>
      <trkpt lat="45.04139" lon="0.74541">
        <ele>176.8</ele>
        <time>1970-01-01T01:33:15.000Z</time>
      </trkpt>
      <trkpt lat="45.04144" lon="0.74547">
        <ele>175.9</ele>
        <time>1970-01-01T01:33:16.000Z</time>
      </trkpt>
      <trkpt lat="45.04149" lon="0.74554">
        <ele>175.9</ele>
        <time>1970-01-01T01:33:17.000Z</time>
      </trkpt>
      <trkpt lat="45.04154" lon="0.7456">
        <ele>175.9</ele>
        <time>1970-01-01T01:33:18.000Z</time>
      </trkpt>
      <trkpt lat="45.04158" lon="0.74567">
        <ele>175.9</ele>
        <time>1970-01-01T01:33:19.000Z</time>
      </trkpt>
      <trkpt lat="45.04162" lon="0.74573">
        <ele>175.9</ele>
        <time>1970-01-01T01:33:20.000Z</time>
      </trkpt>
      <trkpt lat="45.04165" lon="0.74579">
        <ele>175.9</ele>
        <time>1970-01-01T01:33:21.000Z</time>
      </trkpt>
      <trkpt lat="45.04166" lon="0.74586">
        <ele>174.8</ele>
        <time>1970-01-01T01:33:22.000Z</time>
      </trkpt>
      <trkpt lat="45.04165" lon="0.74592">
        <ele>174.8</ele>
        <time>1970-01-01T01:33:23.000Z</time>
      </trkpt>
      <trkpt lat="45.04164" lon="0.74597">
        <ele>174.8</ele>
        <time>1970-01-01T01:33:24.000Z</time>
      </trkpt>
      <trkpt lat="45.04162" lon="0.74602">
        <ele>174.8</ele>
        <time>1970-01-01T01:33:25.000Z</time>
      </trkpt>
      <trkpt lat="45.04161" lon="0.74608">
        <ele>174.8</ele>
        <time>1970-01-01T01:33:26.000Z</time>
      </trkpt>
      <trkpt lat="45.04161" lon="0.74612">
        <ele>174.8</ele>
        <time>1970-01-01T01:33:27.000Z</time>
      </trkpt>
      <trkpt lat="45.04162" lon="0.74616">
        <ele>174.8</ele>
        <time>1970-01-01T01:33:28.000Z</time>
      </trkpt>
      <trkpt lat="45.04164" lon="0.74619">
        <ele>174.8</ele>
        <time>1970-01-01T01:33:29.000Z</time>
      </trkpt>
      <trkpt lat="45.04168" lon="0.74621">
        <ele>174.8</ele>
        <time>1970-01-01T01:33:30.000Z</time>
      </trkpt>
      <trkpt lat="45.04173" lon="0.74623">
        <ele>174.8</ele>
        <time>1970-01-01T01:33:31.000Z</time>
      </trkpt>
      <trkpt lat="45.04178" lon="0.74625">
        <ele>175.9</ele>
        <time>1970-01-01T01:33:32.000Z</time>
      </trkpt>
      <trkpt lat="45.04182" lon="0.74628">
        <ele>175.9</ele>
        <time>1970-01-01T01:33:33.000Z</time>
      </trkpt>
      <trkpt lat="45.04187" lon="0.74631">
        <ele>174.8</ele>
        <time>1970-01-01T01:33:34.000Z</time>
      </trkpt>
      <trkpt lat="45.04192" lon="0.74634">
        <ele>174.8</ele>
        <time>1970-01-01T01:33:35.000Z</time>
      </trkpt>
      <trkpt lat="45.04197" lon="0.74638">
        <ele>175.9</ele>
        <time>1970-01-01T01:33:36.000Z</time>
      </trkpt>
      <trkpt lat="45.04202" lon="0.74641">
        <ele>175.9</ele>
        <time>1970-01-01T01:33:37.000Z</time>
      </trkpt>
      <trkpt lat="45.04207" lon="0.74644">
        <ele>175.9</ele>
        <time>1970-01-01T01:33:38.000Z</time>
      </trkpt>
      <trkpt lat="45.04212" lon="0.74647">
        <ele>175.9</ele>
        <time>1970-01-01T01:33:39.000Z</time>
      </trkpt>
      <trkpt lat="45.04217" lon="0.7465">
        <ele>175.9</ele>
        <time>1970-01-01T01:33:40.000Z</time>
      </trkpt>
      <trkpt lat="45.04223" lon="0.74654">
        <ele>175.9</ele>
        <time>1970-01-01T01:33:41.000Z</time>
      </trkpt>
      <trkpt lat="45.04228" lon="0.74658">
        <ele>175.9</ele>
        <time>1970-01-01T01:33:42.000Z</time>
      </trkpt>
      <trkpt lat="45.04233" lon="0.74661">
        <ele>175.9</ele>
        <time>1970-01-01T01:33:43.000Z</time>
      </trkpt>
      <trkpt lat="45.04239" lon="0.74665">
        <ele>175.9</ele>
        <time>1970-01-01T01:33:44.000Z</time>
      </trkpt>
      <trkpt lat="45.04244" lon="0.74669">
        <ele>175.9</ele>
        <time>1970-01-01T01:33:45.000Z</time>
      </trkpt>
      <trkpt lat="45.04249" lon="0.74673">
        <ele>175.9</ele>
        <time>1970-01-01T01:33:46.000Z</time>
      </trkpt>
      <trkpt lat="45.04255" lon="0.74677">
        <ele>175.9</ele>
        <time>1970-01-01T01:33:47.000Z</time>
      </trkpt>
      <trkpt lat="45.0426" lon="0.74681">
        <ele>175.9</ele>
        <time>1970-01-01T01:33:48.000Z</time>
      </trkpt>
      <trkpt lat="45.04266" lon="0.74685">
        <ele>175.9</ele>
        <time>1970-01-01T01:33:49.000Z</time>
      </trkpt>
      <trkpt lat="45.04272" lon="0.7469">
        <ele>174.8</ele>
        <time>1970-01-01T01:33:50.000Z</time>
      </trkpt>
      <trkpt lat="45.04277" lon="0.74695">
        <ele>174.8</ele>
        <time>1970-01-01T01:33:51.000Z</time>
      </trkpt>
      <trkpt lat="45.04283" lon="0.747">
        <ele>174.8</ele>
        <time>1970-01-01T01:33:52.000Z</time>
      </trkpt>
      <trkpt lat="45.04288" lon="0.74706">
        <ele>174.8</ele>
        <time>1970-01-01T01:33:53.000Z</time>
      </trkpt>
      <trkpt lat="45.04294" lon="0.74712">
        <ele>173.9</ele>
        <time>1970-01-01T01:33:54.000Z</time>
      </trkpt>
      <trkpt lat="45.04299" lon="0.74718">
        <ele>173.9</ele>
        <time>1970-01-01T01:33:55.000Z</time>
      </trkpt>
      <trkpt lat="45.04305" lon="0.74724">
        <ele>173.9</ele>
        <time>1970-01-01T01:33:56.000Z</time>
      </trkpt>
      <trkpt lat="45.0431" lon="0.74731">
        <ele>173.9</ele>
        <time>1970-01-01T01:33:57.000Z</time>
      </trkpt>
      <trkpt lat="45.04315" lon="0.74738">
        <ele>172.8</ele>
        <time>1970-01-01T01:33:58.000Z</time>
      </trkpt>
      <trkpt lat="45.0432" lon="0.74745">
        <ele>172.8</ele>
        <time>1970-01-01T01:33:59.000Z</time>
      </trkpt>
      <trkpt lat="45.04324" lon="0.74752">
        <ele>172.8</ele>
        <time>1970-01-01T01:34:00.000Z</time>
      </trkpt>
      <trkpt lat="45.04329" lon="0.74759">
        <ele>172.8</ele>
        <time>1970-01-01T01:34:01.000Z</time>
      </trkpt>
      <trkpt lat="45.04332" lon="0.74766">
        <ele>172.8</ele>
        <time>1970-01-01T01:34:02.000Z</time>
      </trkpt>
      <trkpt lat="45.04335" lon="0.74771">
        <ele>172.8</ele>
        <time>1970-01-01T01:34:03.000Z</time>
      </trkpt>
      <trkpt lat="45.04338" lon="0.74776">
        <ele>172.8</ele>
        <time>1970-01-01T01:34:04.000Z</time>
      </trkpt>
      <trkpt lat="45.0434" lon="0.7478">
        <ele>172.8</ele>
        <time>1970-01-01T01:34:05.000Z</time>
      </trkpt>
      <trkpt lat="45.04343" lon="0.74785">
        <ele>171.9</ele>
        <time>1970-01-01T01:34:06.000Z</time>
      </trkpt>
      <trkpt lat="45.04345" lon="0.7479">
        <ele>171.9</ele>
        <time>1970-01-01T01:34:07.000Z</time>
      </trkpt>
      <trkpt lat="45.04347" lon="0.74794">
        <ele>171.9</ele>
        <time>1970-01-01T01:34:08.000Z</time>
      </trkpt>
      <trkpt lat="45.04349" lon="0.74798">
        <ele>171.9</ele>
        <time>1970-01-01T01:34:09.000Z</time>
      </trkpt>
      <trkpt lat="45.04351" lon="0.74802">
        <ele>172.8</ele>
        <time>1970-01-01T01:34:10.000Z</time>
      </trkpt>
      <trkpt lat="45.04352" lon="0.74806">
        <ele>172.8</ele>
        <time>1970-01-01T01:34:11.000Z</time>
      </trkpt>
      <trkpt lat="45.04353" lon="0.7481">
        <ele>172.8</ele>
        <time>1970-01-01T01:34:12.000Z</time>
      </trkpt>
      <trkpt lat="45.04355" lon="0.74813">
        <ele>172.8</ele>
        <time>1970-01-01T01:34:13.000Z</time>
      </trkpt>
      <trkpt lat="45.04356" lon="0.74816">
        <ele>172.8</ele>
        <time>1970-01-01T01:34:14.000Z</time>
      </trkpt>
      <trkpt lat="45.04358" lon="0.74818">
        <ele>172.8</ele>
        <time>1970-01-01T01:34:15.000Z</time>
      </trkpt>
      <trkpt lat="45.04359" lon="0.74822">
        <ele>172.8</ele>
        <time>1970-01-01T01:34:16.000Z</time>
      </trkpt>
      <trkpt lat="45.04361" lon="0.74825">
        <ele>172.8</ele>
        <time>1970-01-01T01:34:17.000Z</time>
      </trkpt>
      <trkpt lat="45.04363" lon="0.74828">
        <ele>172.8</ele>
        <time>1970-01-01T01:34:18.000Z</time>
      </trkpt>
      <trkpt lat="45.04365" lon="0.74832">
        <ele>172.8</ele>
        <time>1970-01-01T01:34:19.000Z</time>
      </trkpt>
      <trkpt lat="45.04366" lon="0.74836">
        <ele>172.8</ele>
        <time>1970-01-01T01:34:20.000Z</time>
      </trkpt>
      <trkpt lat="45.04368" lon="0.7484">
        <ele>172.8</ele>
        <time>1970-01-01T01:34:21.000Z</time>
      </trkpt>
      <trkpt lat="45.0437" lon="0.74844">
        <ele>172.8</ele>
        <time>1970-01-01T01:34:22.000Z</time>
      </trkpt>
      <trkpt lat="45.04372" lon="0.74848">
        <ele>172.8</ele>
        <time>1970-01-01T01:34:23.000Z</time>
      </trkpt>
      <trkpt lat="45.04374" lon="0.74852">
        <ele>173.9</ele>
        <time>1970-01-01T01:34:24.000Z</time>
      </trkpt>
      <trkpt lat="45.04376" lon="0.74857">
        <ele>173.9</ele>
        <time>1970-01-01T01:34:25.000Z</time>
      </trkpt>
      <trkpt lat="45.04378" lon="0.74861">
        <ele>173.9</ele>
        <time>1970-01-01T01:34:26.000Z</time>
      </trkpt>
      <trkpt lat="45.0438" lon="0.74866">
        <ele>173.9</ele>
        <time>1970-01-01T01:34:27.000Z</time>
      </trkpt>
      <trkpt lat="45.04382" lon="0.7487">
        <ele>174.8</ele>
        <time>1970-01-01T01:34:28.000Z</time>
      </trkpt>
      <trkpt lat="45.04385" lon="0.74875">
        <ele>174.8</ele>
        <time>1970-01-01T01:34:29.000Z</time>
      </trkpt>
      <trkpt lat="45.04387" lon="0.74879">
        <ele>174.8</ele>
        <time>1970-01-01T01:34:30.000Z</time>
      </trkpt>
      <trkpt lat="45.04389" lon="0.74883">
        <ele>174.8</ele>
        <time>1970-01-01T01:34:31.000Z</time>
      </trkpt>
      <trkpt lat="45.04392" lon="0.74887">
        <ele>174.8</ele>
        <time>1970-01-01T01:34:32.000Z</time>
      </trkpt>
      <trkpt lat="45.04394" lon="0.74892">
        <ele>174.8</ele>
        <time>1970-01-01T01:34:33.000Z</time>
      </trkpt>
      <trkpt lat="45.04396" lon="0.74897">
        <ele>174.8</ele>
        <time>1970-01-01T01:34:34.000Z</time>
      </trkpt>
      <trkpt lat="45.04398" lon="0.74901">
        <ele>174.8</ele>
        <time>1970-01-01T01:34:35.000Z</time>
      </trkpt>
      <trkpt lat="45.04399" lon="0.74907">
        <ele>174.8</ele>
        <time>1970-01-01T01:34:36.000Z</time>
      </trkpt>
      <trkpt lat="45.04401" lon="0.74913">
        <ele>174.8</ele>
        <time>1970-01-01T01:34:37.000Z</time>
      </trkpt>
      <trkpt lat="45.04402" lon="0.74919">
        <ele>174.8</ele>
        <time>1970-01-01T01:34:38.000Z</time>
      </trkpt>
      <trkpt lat="45.04403" lon="0.74925">
        <ele>174.8</ele>
        <time>1970-01-01T01:34:39.000Z</time>
      </trkpt>
      <trkpt lat="45.04404" lon="0.74931">
        <ele>174.8</ele>
        <time>1970-01-01T01:34:40.000Z</time>
      </trkpt>
      <trkpt lat="45.04405" lon="0.74938">
        <ele>174.8</ele>
        <time>1970-01-01T01:34:41.000Z</time>
      </trkpt>
      <trkpt lat="45.04406" lon="0.74944">
        <ele>175.9</ele>
        <time>1970-01-01T01:34:42.000Z</time>
      </trkpt>
      <trkpt lat="45.04406" lon="0.74952">
        <ele>175.9</ele>
        <time>1970-01-01T01:34:43.000Z</time>
      </trkpt>
      <trkpt lat="45.04407" lon="0.74959">
        <ele>175.9</ele>
        <time>1970-01-01T01:34:44.000Z</time>
      </trkpt>
      <trkpt lat="45.04408" lon="0.74966">
        <ele>175.9</ele>
        <time>1970-01-01T01:34:45.000Z</time>
      </trkpt>
      <trkpt lat="45.04409" lon="0.74973">
        <ele>175.9</ele>
        <time>1970-01-01T01:34:46.000Z</time>
      </trkpt>
      <trkpt lat="45.04411" lon="0.74981">
        <ele>175.9</ele>
        <time>1970-01-01T01:34:47.000Z</time>
      </trkpt>
      <trkpt lat="45.04412" lon="0.74989">
        <ele>175.9</ele>
        <time>1970-01-01T01:34:48.000Z</time>
      </trkpt>
      <trkpt lat="45.04414" lon="0.74999">
        <ele>175.9</ele>
        <time>1970-01-01T01:34:49.000Z</time>
      </trkpt>
      <trkpt lat="45.04415" lon="0.75009">
        <ele>170.8</ele>
        <time>1970-01-01T01:34:50.000Z</time>
      </trkpt>
      <trkpt lat="45.04416" lon="0.75019">
        <ele>170.8</ele>
        <time>1970-01-01T01:34:51.000Z</time>
      </trkpt>
      <trkpt lat="45.04417" lon="0.75031">
        <ele>169.8</ele>
        <time>1970-01-01T01:34:52.000Z</time>
      </trkpt>
      <trkpt lat="45.04418" lon="0.75042">
        <ele>169.8</ele>
        <time>1970-01-01T01:34:53.000Z</time>
      </trkpt>
      <trkpt lat="45.04419" lon="0.75055">
        <ele>169.8</ele>
        <time>1970-01-01T01:34:54.000Z</time>
      </trkpt>
      <trkpt lat="45.04421" lon="0.75066">
        <ele>169.8</ele>
        <time>1970-01-01T01:34:55.000Z</time>
      </trkpt>
      <trkpt lat="45.04421" lon="0.75078">
        <ele>167.8</ele>
        <time>1970-01-01T01:34:56.000Z</time>
      </trkpt>
      <trkpt lat="45.04422" lon="0.75088">
        <ele>167.8</ele>
        <time>1970-01-01T01:34:57.000Z</time>
      </trkpt>
      <trkpt lat="45.04423" lon="0.75099">
        <ele>167.8</ele>
        <time>1970-01-01T01:34:58.000Z</time>
      </trkpt>
      <trkpt lat="45.04424" lon="0.75109">
        <ele>167.8</ele>
        <time>1970-01-01T01:34:59.000Z</time>
      </trkpt>
      <trkpt lat="45.04425" lon="0.75117">
        <ele>167.8</ele>
        <time>1970-01-01T01:35:00.000Z</time>
      </trkpt>
      <trkpt lat="45.04426" lon="0.75124">
        <ele>167.8</ele>
        <time>1970-01-01T01:35:01.000Z</time>
      </trkpt>
      <trkpt lat="45.04427" lon="0.75131">
        <ele>169.8</ele>
        <time>1970-01-01T01:35:02.000Z</time>
      </trkpt>
      <trkpt lat="45.04428" lon="0.75137">
        <ele>169.8</ele>
        <time>1970-01-01T01:35:03.000Z</time>
      </trkpt>
      <trkpt lat="45.04429" lon="0.75142">
        <ele>169.8</ele>
        <time>1970-01-01T01:35:04.000Z</time>
      </trkpt>
      <trkpt lat="45.0443" lon="0.75147">
        <ele>169.8</ele>
        <time>1970-01-01T01:35:05.000Z</time>
      </trkpt>
      <trkpt lat="45.04431" lon="0.75152">
        <ele>169.8</ele>
        <time>1970-01-01T01:35:06.000Z</time>
      </trkpt>
      <trkpt lat="45.04431" lon="0.75157">
        <ele>169.8</ele>
        <time>1970-01-01T01:35:07.000Z</time>
      </trkpt>
      <trkpt lat="45.04432" lon="0.75161">
        <ele>169.8</ele>
        <time>1970-01-01T01:35:08.000Z</time>
      </trkpt>
      <trkpt lat="45.04433" lon="0.75165">
        <ele>169.8</ele>
        <time>1970-01-01T01:35:09.000Z</time>
      </trkpt>
      <trkpt lat="45.04433" lon="0.7517">
        <ele>171.9</ele>
        <time>1970-01-01T01:35:10.000Z</time>
      </trkpt>
      <trkpt lat="45.04434" lon="0.75174">
        <ele>171.9</ele>
        <time>1970-01-01T01:35:11.000Z</time>
      </trkpt>
      <trkpt lat="45.04435" lon="0.75178">
        <ele>173.9</ele>
        <time>1970-01-01T01:35:12.000Z</time>
      </trkpt>
      <trkpt lat="45.04435" lon="0.75182">
        <ele>173.9</ele>
        <time>1970-01-01T01:35:13.000Z</time>
      </trkpt>
      <trkpt lat="45.04436" lon="0.75186">
        <ele>173.9</ele>
        <time>1970-01-01T01:35:14.000Z</time>
      </trkpt>
      <trkpt lat="45.04436" lon="0.75191">
        <ele>173.9</ele>
        <time>1970-01-01T01:35:15.000Z</time>
      </trkpt>
      <trkpt lat="45.04437" lon="0.75195">
        <ele>175.9</ele>
        <time>1970-01-01T01:35:16.000Z</time>
      </trkpt>
      <trkpt lat="45.04438" lon="0.752">
        <ele>175.9</ele>
        <time>1970-01-01T01:35:17.000Z</time>
      </trkpt>
      <trkpt lat="45.04438" lon="0.75204">
        <ele>176.8</ele>
        <time>1970-01-01T01:35:18.000Z</time>
      </trkpt>
      <trkpt lat="45.04439" lon="0.75209">
        <ele>176.8</ele>
        <time>1970-01-01T01:35:19.000Z</time>
      </trkpt>
      <trkpt lat="45.0444" lon="0.75213">
        <ele>176.8</ele>
        <time>1970-01-01T01:35:20.000Z</time>
      </trkpt>
      <trkpt lat="45.0444" lon="0.75217">
        <ele>176.8</ele>
        <time>1970-01-01T01:35:21.000Z</time>
      </trkpt>
      <trkpt lat="45.04441" lon="0.75221">
        <ele>177.9</ele>
        <time>1970-01-01T01:35:22.000Z</time>
      </trkpt>
      <trkpt lat="45.04441" lon="0.75225">
        <ele>177.9</ele>
        <time>1970-01-01T01:35:23.000Z</time>
      </trkpt>
      <trkpt lat="45.04442" lon="0.75229">
        <ele>177.9</ele>
        <time>1970-01-01T01:35:24.000Z</time>
      </trkpt>
      <trkpt lat="45.04442" lon="0.75233">
        <ele>177.9</ele>
        <time>1970-01-01T01:35:25.000Z</time>
      </trkpt>
      <trkpt lat="45.04443" lon="0.75238">
        <ele>177.9</ele>
        <time>1970-01-01T01:35:26.000Z</time>
      </trkpt>
      <trkpt lat="45.04444" lon="0.75242">
        <ele>177.9</ele>
        <time>1970-01-01T01:35:27.000Z</time>
      </trkpt>
      <trkpt lat="45.04444" lon="0.75246">
        <ele>178.8</ele>
        <time>1970-01-01T01:35:28.000Z</time>
      </trkpt>
      <trkpt lat="45.04445" lon="0.75251">
        <ele>178.8</ele>
        <time>1970-01-01T01:35:29.000Z</time>
      </trkpt>
      <trkpt lat="45.04445" lon="0.75255">
        <ele>178.8</ele>
        <time>1970-01-01T01:35:30.000Z</time>
      </trkpt>
      <trkpt lat="45.04446" lon="0.7526">
        <ele>178.8</ele>
        <time>1970-01-01T01:35:31.000Z</time>
      </trkpt>
      <trkpt lat="45.04446" lon="0.75264">
        <ele>179.8</ele>
        <time>1970-01-01T01:35:32.000Z</time>
      </trkpt>
      <trkpt lat="45.04447" lon="0.75269">
        <ele>179.8</ele>
        <time>1970-01-01T01:35:33.000Z</time>
      </trkpt>
      <trkpt lat="45.04448" lon="0.75274">
        <ele>179.8</ele>
        <time>1970-01-01T01:35:34.000Z</time>
      </trkpt>
      <trkpt lat="45.04448" lon="0.75278">
        <ele>179.8</ele>
        <time>1970-01-01T01:35:35.000Z</time>
      </trkpt>
      <trkpt lat="45.04449" lon="0.75283">
        <ele>180.9</ele>
        <time>1970-01-01T01:35:36.000Z</time>
      </trkpt>
      <trkpt lat="45.0445" lon="0.75287">
        <ele>180.9</ele>
        <time>1970-01-01T01:35:37.000Z</time>
      </trkpt>
      <trkpt lat="45.0445" lon="0.75291">
        <ele>180.9</ele>
        <time>1970-01-01T01:35:38.000Z</time>
      </trkpt>
      <trkpt lat="45.04451" lon="0.75296">
        <ele>180.9</ele>
        <time>1970-01-01T01:35:39.000Z</time>
      </trkpt>
      <trkpt lat="45.04452" lon="0.75301">
        <ele>180.9</ele>
        <time>1970-01-01T01:35:40.000Z</time>
      </trkpt>
      <trkpt lat="45.04453" lon="0.75305">
        <ele>180.9</ele>
        <time>1970-01-01T01:35:41.000Z</time>
      </trkpt>
      <trkpt lat="45.04453" lon="0.7531">
        <ele>180.9</ele>
        <time>1970-01-01T01:35:42.000Z</time>
      </trkpt>
      <trkpt lat="45.04454" lon="0.75315">
        <ele>180.9</ele>
        <time>1970-01-01T01:35:43.000Z</time>
      </trkpt>
      <trkpt lat="45.04455" lon="0.75321">
        <ele>180.9</ele>
        <time>1970-01-01T01:35:44.000Z</time>
      </trkpt>
      <trkpt lat="45.04456" lon="0.75326">
        <ele>180.9</ele>
        <time>1970-01-01T01:35:45.000Z</time>
      </trkpt>
      <trkpt lat="45.04457" lon="0.75332">
        <ele>181.8</ele>
        <time>1970-01-01T01:35:46.000Z</time>
      </trkpt>
      <trkpt lat="45.04458" lon="0.75338">
        <ele>181.8</ele>
        <time>1970-01-01T01:35:47.000Z</time>
      </trkpt>
      <trkpt lat="45.04459" lon="0.75345">
        <ele>181.8</ele>
        <time>1970-01-01T01:35:48.000Z</time>
      </trkpt>
      <trkpt lat="45.0446" lon="0.75351">
        <ele>181.8</ele>
        <time>1970-01-01T01:35:49.000Z</time>
      </trkpt>
      <trkpt lat="45.04461" lon="0.75359">
        <ele>180.9</ele>
        <time>1970-01-01T01:35:50.000Z</time>
      </trkpt>
      <trkpt lat="45.04462" lon="0.75366">
        <ele>180.9</ele>
        <time>1970-01-01T01:35:51.000Z</time>
      </trkpt>
      <trkpt lat="45.04463" lon="0.75374">
        <ele>180.9</ele>
        <time>1970-01-01T01:35:52.000Z</time>
      </trkpt>
      <trkpt lat="45.04464" lon="0.75382">
        <ele>180.9</ele>
        <time>1970-01-01T01:35:53.000Z</time>
      </trkpt>
      <trkpt lat="45.04465" lon="0.7539">
        <ele>180.9</ele>
        <time>1970-01-01T01:35:54.000Z</time>
      </trkpt>
      <trkpt lat="45.04466" lon="0.75398">
        <ele>180.9</ele>
        <time>1970-01-01T01:35:55.000Z</time>
      </trkpt>
      <trkpt lat="45.04467" lon="0.75406">
        <ele>179.8</ele>
        <time>1970-01-01T01:35:56.000Z</time>
      </trkpt>
      <trkpt lat="45.04467" lon="0.75415">
        <ele>179.8</ele>
        <time>1970-01-01T01:35:57.000Z</time>
      </trkpt>
      <trkpt lat="45.04468" lon="0.75424">
        <ele>179.8</ele>
        <time>1970-01-01T01:35:58.000Z</time>
      </trkpt>
      <trkpt lat="45.04468" lon="0.75432">
        <ele>179.8</ele>
        <time>1970-01-01T01:35:59.000Z</time>
      </trkpt>
      <trkpt lat="45.04467" lon="0.75441">
        <ele>178.8</ele>
        <time>1970-01-01T01:36:00.000Z</time>
      </trkpt>
      <trkpt lat="45.04468" lon="0.75448">
        <ele>178.8</ele>
        <time>1970-01-01T01:36:01.000Z</time>
      </trkpt>
      <trkpt lat="45.04468" lon="0.75455">
        <ele>178.8</ele>
        <time>1970-01-01T01:36:02.000Z</time>
      </trkpt>
      <trkpt lat="45.04469" lon="0.75461">
        <ele>178.8</ele>
        <time>1970-01-01T01:36:03.000Z</time>
      </trkpt>
      <trkpt lat="45.0447" lon="0.75467">
        <ele>178.8</ele>
        <time>1970-01-01T01:36:04.000Z</time>
      </trkpt>
      <trkpt lat="45.0447" lon="0.75474">
        <ele>178.8</ele>
        <time>1970-01-01T01:36:05.000Z</time>
      </trkpt>
      <trkpt lat="45.0447" lon="0.75482">
        <ele>178.8</ele>
        <time>1970-01-01T01:36:06.000Z</time>
      </trkpt>
      <trkpt lat="45.0447" lon="0.7549">
        <ele>178.8</ele>
        <time>1970-01-01T01:36:07.000Z</time>
      </trkpt>
      <trkpt lat="45.0447" lon="0.75497">
        <ele>178.8</ele>
        <time>1970-01-01T01:36:08.000Z</time>
      </trkpt>
      <trkpt lat="45.0447" lon="0.75505">
        <ele>178.8</ele>
        <time>1970-01-01T01:36:09.000Z</time>
      </trkpt>
      <trkpt lat="45.0447" lon="0.75514">
        <ele>178.8</ele>
        <time>1970-01-01T01:36:10.000Z</time>
      </trkpt>
      <trkpt lat="45.04471" lon="0.75522">
        <ele>178.8</ele>
        <time>1970-01-01T01:36:11.000Z</time>
      </trkpt>
      <trkpt lat="45.04472" lon="0.75531">
        <ele>178.8</ele>
        <time>1970-01-01T01:36:12.000Z</time>
      </trkpt>
      <trkpt lat="45.04473" lon="0.75539">
        <ele>178.8</ele>
        <time>1970-01-01T01:36:13.000Z</time>
      </trkpt>
      <trkpt lat="45.04473" lon="0.75548">
        <ele>178.8</ele>
        <time>1970-01-01T01:36:14.000Z</time>
      </trkpt>
      <trkpt lat="45.04474" lon="0.75557">
        <ele>178.8</ele>
        <time>1970-01-01T01:36:15.000Z</time>
      </trkpt>
      <trkpt lat="45.04475" lon="0.75567">
        <ele>178.8</ele>
        <time>1970-01-01T01:36:16.000Z</time>
      </trkpt>
      <trkpt lat="45.04476" lon="0.75576">
        <ele>178.8</ele>
        <time>1970-01-01T01:36:17.000Z</time>
      </trkpt>
      <trkpt lat="45.04478" lon="0.75584">
        <ele>178.8</ele>
        <time>1970-01-01T01:36:18.000Z</time>
      </trkpt>
      <trkpt lat="45.04481" lon="0.7559">
        <ele>178.8</ele>
        <time>1970-01-01T01:36:19.000Z</time>
      </trkpt>
      <trkpt lat="45.04485" lon="0.75594">
        <ele>175.9</ele>
        <time>1970-01-01T01:36:20.000Z</time>
      </trkpt>
      <trkpt lat="45.04489" lon="0.75595">
        <ele>175.9</ele>
        <time>1970-01-01T01:36:21.000Z</time>
      </trkpt>
      <trkpt lat="45.04493" lon="0.75595">
        <ele>175.9</ele>
        <time>1970-01-01T01:36:22.000Z</time>
      </trkpt>
      <trkpt lat="45.04497" lon="0.75594">
        <ele>175.9</ele>
        <time>1970-01-01T01:36:23.000Z</time>
      </trkpt>
      <trkpt lat="45.04501" lon="0.75593">
        <ele>175.9</ele>
        <time>1970-01-01T01:36:24.000Z</time>
      </trkpt>
      <trkpt lat="45.04506" lon="0.75593">
        <ele>175.9</ele>
        <time>1970-01-01T01:36:25.000Z</time>
      </trkpt>
      <trkpt lat="45.0451" lon="0.75593">
        <ele>175.9</ele>
        <time>1970-01-01T01:36:26.000Z</time>
      </trkpt>
      <trkpt lat="45.04513" lon="0.75596">
        <ele>175.9</ele>
        <time>1970-01-01T01:36:27.000Z</time>
      </trkpt>
      <trkpt lat="45.04516" lon="0.756">
        <ele>175.9</ele>
        <time>1970-01-01T01:36:28.000Z</time>
      </trkpt>
      <trkpt lat="45.04518" lon="0.75605">
        <ele>175.9</ele>
        <time>1970-01-01T01:36:29.000Z</time>
      </trkpt>
      <trkpt lat="45.0452" lon="0.75611">
        <ele>174.8</ele>
        <time>1970-01-01T01:36:30.000Z</time>
      </trkpt>
      <trkpt lat="45.04521" lon="0.75618">
        <ele>174.8</ele>
        <time>1970-01-01T01:36:31.000Z</time>
      </trkpt>
      <trkpt lat="45.04523" lon="0.75626">
        <ele>173.9</ele>
        <time>1970-01-01T01:36:32.000Z</time>
      </trkpt>
      <trkpt lat="45.04524" lon="0.75636">
        <ele>173.9</ele>
        <time>1970-01-01T01:36:33.000Z</time>
      </trkpt>
      <trkpt lat="45.04525" lon="0.75648">
        <ele>173.9</ele>
        <time>1970-01-01T01:36:34.000Z</time>
      </trkpt>
      <trkpt lat="45.04527" lon="0.75661">
        <ele>173.9</ele>
        <time>1970-01-01T01:36:35.000Z</time>
      </trkpt>
      <trkpt lat="45.04529" lon="0.75673">
        <ele>173.9</ele>
        <time>1970-01-01T01:36:36.000Z</time>
      </trkpt>
      <trkpt lat="45.04531" lon="0.75686">
        <ele>173.9</ele>
        <time>1970-01-01T01:36:37.000Z</time>
      </trkpt>
      <trkpt lat="45.04533" lon="0.75699">
        <ele>165.8</ele>
        <time>1970-01-01T01:36:38.000Z</time>
      </trkpt>
      <trkpt lat="45.04535" lon="0.75713">
        <ele>165.8</ele>
        <time>1970-01-01T01:36:39.000Z</time>
      </trkpt>
      <trkpt lat="45.04537" lon="0.75727">
        <ele>161.9</ele>
        <time>1970-01-01T01:36:40.000Z</time>
      </trkpt>
      <trkpt lat="45.04539" lon="0.75742">
        <ele>161.9</ele>
        <time>1970-01-01T01:36:41.000Z</time>
      </trkpt>
      <trkpt lat="45.0454" lon="0.75757">
        <ele>157.9</ele>
        <time>1970-01-01T01:36:42.000Z</time>
      </trkpt>
      <trkpt lat="45.04541" lon="0.75773">
        <ele>157.9</ele>
        <time>1970-01-01T01:36:43.000Z</time>
      </trkpt>
      <trkpt lat="45.04541" lon="0.75789">
        <ele>154.8</ele>
        <time>1970-01-01T01:36:44.000Z</time>
      </trkpt>
      <trkpt lat="45.04542" lon="0.75806">
        <ele>154.8</ele>
        <time>1970-01-01T01:36:45.000Z</time>
      </trkpt>
      <trkpt lat="45.04543" lon="0.75823">
        <ele>150.9</ele>
        <time>1970-01-01T01:36:46.000Z</time>
      </trkpt>
      <trkpt lat="45.04545" lon="0.7584">
        <ele>150.9</ele>
        <time>1970-01-01T01:36:47.000Z</time>
      </trkpt>
      <trkpt lat="45.04547" lon="0.75855">
        <ele>147.8</ele>
        <time>1970-01-01T01:36:48.000Z</time>
      </trkpt>
      <trkpt lat="45.04551" lon="0.75869">
        <ele>147.8</ele>
        <time>1970-01-01T01:36:49.000Z</time>
      </trkpt>
      <trkpt lat="45.04554" lon="0.75881">
        <ele>148.9</ele>
        <time>1970-01-01T01:36:50.000Z</time>
      </trkpt>
      <trkpt lat="45.04557" lon="0.75891">
        <ele>148.9</ele>
        <time>1970-01-01T01:36:51.000Z</time>
      </trkpt>
      <trkpt lat="45.04559" lon="0.75901">
        <ele>148.9</ele>
        <time>1970-01-01T01:36:52.000Z</time>
      </trkpt>
      <trkpt lat="45.0456" lon="0.75909">
        <ele>148.9</ele>
        <time>1970-01-01T01:36:53.000Z</time>
      </trkpt>
      <trkpt lat="45.04562" lon="0.75916">
        <ele>149.8</ele>
        <time>1970-01-01T01:36:54.000Z</time>
      </trkpt>
      <trkpt lat="45.04563" lon="0.75922">
        <ele>149.8</ele>
        <time>1970-01-01T01:36:55.000Z</time>
      </trkpt>
      <trkpt lat="45.04564" lon="0.75928">
        <ele>150.9</ele>
        <time>1970-01-01T01:36:56.000Z</time>
      </trkpt>
      <trkpt lat="45.04565" lon="0.75933">
        <ele>150.9</ele>
        <time>1970-01-01T01:36:57.000Z</time>
      </trkpt>
      <trkpt lat="45.04566" lon="0.75939">
        <ele>150.9</ele>
        <time>1970-01-01T01:36:58.000Z</time>
      </trkpt>
      <trkpt lat="45.04567" lon="0.75944">
        <ele>150.9</ele>
        <time>1970-01-01T01:36:59.000Z</time>
      </trkpt>
      <trkpt lat="45.04568" lon="0.7595">
        <ele>150.9</ele>
        <time>1970-01-01T01:37:00.000Z</time>
      </trkpt>
      <trkpt lat="45.04568" lon="0.75956">
        <ele>150.9</ele>
        <time>1970-01-01T01:37:01.000Z</time>
      </trkpt>
      <trkpt lat="45.04569" lon="0.75962">
        <ele>150.9</ele>
        <time>1970-01-01T01:37:02.000Z</time>
      </trkpt>
      <trkpt lat="45.04569" lon="0.75968">
        <ele>150.9</ele>
        <time>1970-01-01T01:37:03.000Z</time>
      </trkpt>
      <trkpt lat="45.0457" lon="0.75973">
        <ele>152.9</ele>
        <time>1970-01-01T01:37:04.000Z</time>
      </trkpt>
      <trkpt lat="45.04571" lon="0.75979">
        <ele>152.9</ele>
        <time>1970-01-01T01:37:05.000Z</time>
      </trkpt>
      <trkpt lat="45.04573" lon="0.75984">
        <ele>152.9</ele>
        <time>1970-01-01T01:37:06.000Z</time>
      </trkpt>
      <trkpt lat="45.04575" lon="0.75989">
        <ele>152.9</ele>
        <time>1970-01-01T01:37:07.000Z</time>
      </trkpt>
      <trkpt lat="45.04576" lon="0.75993">
        <ele>152.9</ele>
        <time>1970-01-01T01:37:08.000Z</time>
      </trkpt>
      <trkpt lat="45.04578" lon="0.75997">
        <ele>152.9</ele>
        <time>1970-01-01T01:37:09.000Z</time>
      </trkpt>
      <trkpt lat="45.0458" lon="0.76001">
        <ele>152.9</ele>
        <time>1970-01-01T01:37:10.000Z</time>
      </trkpt>
      <trkpt lat="45.04582" lon="0.76004">
        <ele>152.9</ele>
        <time>1970-01-01T01:37:11.000Z</time>
      </trkpt>
      <trkpt lat="45.04584" lon="0.76007">
        <ele>152.9</ele>
        <time>1970-01-01T01:37:12.000Z</time>
      </trkpt>
      <trkpt lat="45.04587" lon="0.7601">
        <ele>152.9</ele>
        <time>1970-01-01T01:37:13.000Z</time>
      </trkpt>
      <trkpt lat="45.04589" lon="0.76013">
        <ele>152.9</ele>
        <time>1970-01-01T01:37:14.000Z</time>
      </trkpt>
      <trkpt lat="45.0459" lon="0.76015">
        <ele>152.9</ele>
        <time>1970-01-01T01:37:15.000Z</time>
      </trkpt>
      <trkpt lat="45.04592" lon="0.76018">
        <ele>153.8</ele>
        <time>1970-01-01T01:37:16.000Z</time>
      </trkpt>
      <trkpt lat="45.04593" lon="0.76021">
        <ele>153.8</ele>
        <time>1970-01-01T01:37:17.000Z</time>
      </trkpt>
      <trkpt lat="45.04595" lon="0.76024">
        <ele>153.8</ele>
        <time>1970-01-01T01:37:18.000Z</time>
      </trkpt>
      <trkpt lat="45.04597" lon="0.76027">
        <ele>153.8</ele>
        <time>1970-01-01T01:37:19.000Z</time>
      </trkpt>
      <trkpt lat="45.046" lon="0.76029">
        <ele>153.8</ele>
        <time>1970-01-01T01:37:20.000Z</time>
      </trkpt>
      <trkpt lat="45.04602" lon="0.76031">
        <ele>153.8</ele>
        <time>1970-01-01T01:37:21.000Z</time>
      </trkpt>
      <trkpt lat="45.04605" lon="0.76034">
        <ele>153.8</ele>
        <time>1970-01-01T01:37:22.000Z</time>
      </trkpt>
      <trkpt lat="45.04607" lon="0.76036">
        <ele>153.8</ele>
        <time>1970-01-01T01:37:23.000Z</time>
      </trkpt>
      <trkpt lat="45.04609" lon="0.76039">
        <ele>155.9</ele>
        <time>1970-01-01T01:37:24.000Z</time>
      </trkpt>
      <trkpt lat="45.04611" lon="0.76041">
        <ele>155.9</ele>
        <time>1970-01-01T01:37:25.000Z</time>
      </trkpt>
      <trkpt lat="45.04613" lon="0.76044">
        <ele>155.9</ele>
        <time>1970-01-01T01:37:26.000Z</time>
      </trkpt>
      <trkpt lat="45.04615" lon="0.76047">
        <ele>155.9</ele>
        <time>1970-01-01T01:37:27.000Z</time>
      </trkpt>
      <trkpt lat="45.04616" lon="0.76049">
        <ele>155.9</ele>
        <time>1970-01-01T01:37:28.000Z</time>
      </trkpt>
      <trkpt lat="45.04618" lon="0.76052">
        <ele>155.9</ele>
        <time>1970-01-01T01:37:29.000Z</time>
      </trkpt>
      <trkpt lat="45.0462" lon="0.76054">
        <ele>156.8</ele>
        <time>1970-01-01T01:37:30.000Z</time>
      </trkpt>
      <trkpt lat="45.04622" lon="0.76056">
        <ele>156.8</ele>
        <time>1970-01-01T01:37:31.000Z</time>
      </trkpt>
      <trkpt lat="45.04623" lon="0.76058">
        <ele>157.9</ele>
        <time>1970-01-01T01:37:32.000Z</time>
      </trkpt>
      <trkpt lat="45.04625" lon="0.7606">
        <ele>157.9</ele>
        <time>1970-01-01T01:37:33.000Z</time>
      </trkpt>
      <trkpt lat="45.04626" lon="0.76063">
        <ele>157.9</ele>
        <time>1970-01-01T01:37:34.000Z</time>
      </trkpt>
      <trkpt lat="45.04627" lon="0.76065">
        <ele>157.9</ele>
        <time>1970-01-01T01:37:35.000Z</time>
      </trkpt>
      <trkpt lat="45.04629" lon="0.76066">
        <ele>158.8</ele>
        <time>1970-01-01T01:37:36.000Z</time>
      </trkpt>
      <trkpt lat="45.04631" lon="0.76068">
        <ele>158.8</ele>
        <time>1970-01-01T01:37:37.000Z</time>
      </trkpt>
      <trkpt lat="45.04633" lon="0.7607">
        <ele>158.8</ele>
        <time>1970-01-01T01:37:38.000Z</time>
      </trkpt>
      <trkpt lat="45.04634" lon="0.76072">
        <ele>158.8</ele>
        <time>1970-01-01T01:37:39.000Z</time>
      </trkpt>
      <trkpt lat="45.04635" lon="0.76074">
        <ele>159.9</ele>
        <time>1970-01-01T01:37:40.000Z</time>
      </trkpt>
      <trkpt lat="45.04636" lon="0.76075">
        <ele>159.9</ele>
        <time>1970-01-01T01:37:41.000Z</time>
      </trkpt>
      <trkpt lat="45.04636" lon="0.76076">
        <ele>160.8</ele>
        <time>1970-01-01T01:37:42.000Z</time>
      </trkpt>
      <trkpt lat="45.04637" lon="0.76078">
        <ele>160.8</ele>
        <time>1970-01-01T01:37:43.000Z</time>
      </trkpt>
      <trkpt lat="45.04638" lon="0.76079">
        <ele>161.9</ele>
        <time>1970-01-01T01:37:44.000Z</time>
      </trkpt>
      <trkpt lat="45.04639" lon="0.76082">
        <ele>161.9</ele>
        <time>1970-01-01T01:37:45.000Z</time>
      </trkpt>
      <trkpt lat="45.0464" lon="0.76084">
        <ele>161.9</ele>
        <time>1970-01-01T01:37:46.000Z</time>
      </trkpt>
      <trkpt lat="45.04641" lon="0.76086">
        <ele>161.9</ele>
        <time>1970-01-01T01:37:47.000Z</time>
      </trkpt>
      <trkpt lat="45.04642" lon="0.76088">
        <ele>162.8</ele>
        <time>1970-01-01T01:37:48.000Z</time>
      </trkpt>
      <trkpt lat="45.04643" lon="0.7609">
        <ele>162.8</ele>
        <time>1970-01-01T01:37:49.000Z</time>
      </trkpt>
      <trkpt lat="45.04643" lon="0.76092">
        <ele>163.8</ele>
        <time>1970-01-01T01:37:50.000Z</time>
      </trkpt>
      <trkpt lat="45.04644" lon="0.76094">
        <ele>163.8</ele>
        <time>1970-01-01T01:37:51.000Z</time>
      </trkpt>
      <trkpt lat="45.04644" lon="0.76096">
        <ele>164.9</ele>
        <time>1970-01-01T01:37:52.000Z</time>
      </trkpt>
      <trkpt lat="45.04645" lon="0.76098">
        <ele>164.9</ele>
        <time>1970-01-01T01:37:53.000Z</time>
      </trkpt>
      <trkpt lat="45.04647" lon="0.761">
        <ele>165.8</ele>
        <time>1970-01-01T01:37:54.000Z</time>
      </trkpt>
      <trkpt lat="45.04648" lon="0.76102">
        <ele>165.8</ele>
        <time>1970-01-01T01:37:55.000Z</time>
      </trkpt>
      <trkpt lat="45.0465" lon="0.76104">
        <ele>165.8</ele>
        <time>1970-01-01T01:37:56.000Z</time>
      </trkpt>
      <trkpt lat="45.04651" lon="0.76106">
        <ele>165.8</ele>
        <time>1970-01-01T01:37:57.000Z</time>
      </trkpt>
      <trkpt lat="45.04652" lon="0.76108">
        <ele>166.9</ele>
        <time>1970-01-01T01:37:58.000Z</time>
      </trkpt>
      <trkpt lat="45.04652" lon="0.76111">
        <ele>166.9</ele>
        <time>1970-01-01T01:37:59.000Z</time>
      </trkpt>
      <trkpt lat="45.04654" lon="0.76113">
        <ele>167.8</ele>
        <time>1970-01-01T01:38:00.000Z</time>
      </trkpt>
      <trkpt lat="45.04655" lon="0.76114">
        <ele>167.8</ele>
        <time>1970-01-01T01:38:01.000Z</time>
      </trkpt>
      <trkpt lat="45.04655" lon="0.76116">
        <ele>167.8</ele>
        <time>1970-01-01T01:38:02.000Z</time>
      </trkpt>
      <trkpt lat="45.04656" lon="0.76118">
        <ele>167.8</ele>
        <time>1970-01-01T01:38:03.000Z</time>
      </trkpt>
      <trkpt lat="45.04657" lon="0.7612">
        <ele>168.9</ele>
        <time>1970-01-01T01:38:04.000Z</time>
      </trkpt>
      <trkpt lat="45.04657" lon="0.76122">
        <ele>168.9</ele>
        <time>1970-01-01T01:38:05.000Z</time>
      </trkpt>
      <trkpt lat="45.04658" lon="0.76124">
        <ele>168.9</ele>
        <time>1970-01-01T01:38:06.000Z</time>
      </trkpt>
      <trkpt lat="45.04659" lon="0.76126">
        <ele>168.9</ele>
        <time>1970-01-01T01:38:07.000Z</time>
      </trkpt>
      <trkpt lat="45.04659" lon="0.76128">
        <ele>168.9</ele>
        <time>1970-01-01T01:38:08.000Z</time>
      </trkpt>
      <trkpt lat="45.04659" lon="0.7613">
        <ele>168.9</ele>
        <time>1970-01-01T01:38:09.000Z</time>
      </trkpt>
      <trkpt lat="45.0466" lon="0.76133">
        <ele>168.9</ele>
        <time>1970-01-01T01:38:10.000Z</time>
      </trkpt>
      <trkpt lat="45.04661" lon="0.76135">
        <ele>168.9</ele>
        <time>1970-01-01T01:38:11.000Z</time>
      </trkpt>
      <trkpt lat="45.04661" lon="0.76137">
        <ele>168.9</ele>
        <time>1970-01-01T01:38:12.000Z</time>
      </trkpt>
      <trkpt lat="45.04662" lon="0.76139">
        <ele>168.9</ele>
        <time>1970-01-01T01:38:13.000Z</time>
      </trkpt>
      <trkpt lat="45.04663" lon="0.76141">
        <ele>171.9</ele>
        <time>1970-01-01T01:38:14.000Z</time>
      </trkpt>
      <trkpt lat="45.04664" lon="0.76143">
        <ele>171.9</ele>
        <time>1970-01-01T01:38:15.000Z</time>
      </trkpt>
      <trkpt lat="45.04664" lon="0.76145">
        <ele>171.9</ele>
        <time>1970-01-01T01:38:16.000Z</time>
      </trkpt>
      <trkpt lat="45.04665" lon="0.76147">
        <ele>171.9</ele>
        <time>1970-01-01T01:38:17.000Z</time>
      </trkpt>
      <trkpt lat="45.04665" lon="0.76149">
        <ele>171.9</ele>
        <time>1970-01-01T01:38:18.000Z</time>
      </trkpt>
      <trkpt lat="45.04665" lon="0.76151">
        <ele>171.9</ele>
        <time>1970-01-01T01:38:19.000Z</time>
      </trkpt>
      <trkpt lat="45.04666" lon="0.76154">
        <ele>172.8</ele>
        <time>1970-01-01T01:38:20.000Z</time>
      </trkpt>
      <trkpt lat="45.04666" lon="0.76157">
        <ele>172.8</ele>
        <time>1970-01-01T01:38:21.000Z</time>
      </trkpt>
      <trkpt lat="45.04667" lon="0.76159">
        <ele>172.8</ele>
        <time>1970-01-01T01:38:22.000Z</time>
      </trkpt>
      <trkpt lat="45.04667" lon="0.76161">
        <ele>172.8</ele>
        <time>1970-01-01T01:38:23.000Z</time>
      </trkpt>
      <trkpt lat="45.04668" lon="0.76164">
        <ele>172.8</ele>
        <time>1970-01-01T01:38:24.000Z</time>
      </trkpt>
      <trkpt lat="45.04669" lon="0.76167">
        <ele>172.8</ele>
        <time>1970-01-01T01:38:25.000Z</time>
      </trkpt>
      <trkpt lat="45.0467" lon="0.76169">
        <ele>173.9</ele>
        <time>1970-01-01T01:38:26.000Z</time>
      </trkpt>
      <trkpt lat="45.0467" lon="0.76172">
        <ele>173.9</ele>
        <time>1970-01-01T01:38:27.000Z</time>
      </trkpt>
      <trkpt lat="45.04671" lon="0.76174">
        <ele>173.9</ele>
        <time>1970-01-01T01:38:28.000Z</time>
      </trkpt>
      <trkpt lat="45.04671" lon="0.76177">
        <ele>173.9</ele>
        <time>1970-01-01T01:38:29.000Z</time>
      </trkpt>
      <trkpt lat="45.04672" lon="0.7618">
        <ele>173.9</ele>
        <time>1970-01-01T01:38:30.000Z</time>
      </trkpt>
      <trkpt lat="45.04672" lon="0.76182">
        <ele>173.9</ele>
        <time>1970-01-01T01:38:31.000Z</time>
      </trkpt>
      <trkpt lat="45.04673" lon="0.76185">
        <ele>173.9</ele>
        <time>1970-01-01T01:38:32.000Z</time>
      </trkpt>
      <trkpt lat="45.04673" lon="0.76188">
        <ele>173.9</ele>
        <time>1970-01-01T01:38:33.000Z</time>
      </trkpt>
      <trkpt lat="45.04674" lon="0.7619">
        <ele>175.9</ele>
        <time>1970-01-01T01:38:34.000Z</time>
      </trkpt>
      <trkpt lat="45.04675" lon="0.76193">
        <ele>175.9</ele>
        <time>1970-01-01T01:38:35.000Z</time>
      </trkpt>
      <trkpt lat="45.04675" lon="0.76196">
        <ele>175.9</ele>
        <time>1970-01-01T01:38:36.000Z</time>
      </trkpt>
      <trkpt lat="45.04676" lon="0.76199">
        <ele>175.9</ele>
        <time>1970-01-01T01:38:37.000Z</time>
      </trkpt>
      <trkpt lat="45.04676" lon="0.76202">
        <ele>175.9</ele>
        <time>1970-01-01T01:38:38.000Z</time>
      </trkpt>
      <trkpt lat="45.04677" lon="0.76205">
        <ele>175.9</ele>
        <time>1970-01-01T01:38:39.000Z</time>
      </trkpt>
      <trkpt lat="45.04678" lon="0.76208">
        <ele>175.9</ele>
        <time>1970-01-01T01:38:40.000Z</time>
      </trkpt>
      <trkpt lat="45.04678" lon="0.76211">
        <ele>175.9</ele>
        <time>1970-01-01T01:38:41.000Z</time>
      </trkpt>
      <trkpt lat="45.04679" lon="0.76214">
        <ele>175.9</ele>
        <time>1970-01-01T01:38:42.000Z</time>
      </trkpt>
      <trkpt lat="45.0468" lon="0.76217">
        <ele>175.9</ele>
        <time>1970-01-01T01:38:43.000Z</time>
      </trkpt>
      <trkpt lat="45.04682" lon="0.76221">
        <ele>175.9</ele>
        <time>1970-01-01T01:38:44.000Z</time>
      </trkpt>
      <trkpt lat="45.04684" lon="0.76224">
        <ele>175.9</ele>
        <time>1970-01-01T01:38:45.000Z</time>
      </trkpt>
      <trkpt lat="45.04685" lon="0.76227">
        <ele>175.9</ele>
        <time>1970-01-01T01:38:46.000Z</time>
      </trkpt>
      <trkpt lat="45.04686" lon="0.7623">
        <ele>175.9</ele>
        <time>1970-01-01T01:38:47.000Z</time>
      </trkpt>
      <trkpt lat="45.04688" lon="0.76232">
        <ele>175.9</ele>
        <time>1970-01-01T01:38:48.000Z</time>
      </trkpt>
      <trkpt lat="45.0469" lon="0.76235">
        <ele>175.9</ele>
        <time>1970-01-01T01:38:49.000Z</time>
      </trkpt>
      <trkpt lat="45.04692" lon="0.76236">
        <ele>175.9</ele>
        <time>1970-01-01T01:38:50.000Z</time>
      </trkpt>
      <trkpt lat="45.04694" lon="0.76237">
        <ele>175.9</ele>
        <time>1970-01-01T01:38:51.000Z</time>
      </trkpt>
      <trkpt lat="45.04696" lon="0.76237">
        <ele>176.8</ele>
        <time>1970-01-01T01:38:52.000Z</time>
      </trkpt>
      <trkpt lat="45.04698" lon="0.76237">
        <ele>176.8</ele>
        <time>1970-01-01T01:38:53.000Z</time>
      </trkpt>
      <trkpt lat="45.047" lon="0.76236">
        <ele>176.8</ele>
        <time>1970-01-01T01:38:54.000Z</time>
      </trkpt>
      <trkpt lat="45.04702" lon="0.76235">
        <ele>176.8</ele>
        <time>1970-01-01T01:38:55.000Z</time>
      </trkpt>
      <trkpt lat="45.04704" lon="0.76235">
        <ele>177.9</ele>
        <time>1970-01-01T01:38:56.000Z</time>
      </trkpt>
      <trkpt lat="45.04707" lon="0.76234">
        <ele>177.9</ele>
        <time>1970-01-01T01:38:57.000Z</time>
      </trkpt>
      <trkpt lat="45.04709" lon="0.76234">
        <ele>177.9</ele>
        <time>1970-01-01T01:38:58.000Z</time>
      </trkpt>
      <trkpt lat="45.04711" lon="0.76234">
        <ele>177.9</ele>
        <time>1970-01-01T01:38:59.000Z</time>
      </trkpt>
      <trkpt lat="45.04712" lon="0.76235">
        <ele>177.9</ele>
        <time>1970-01-01T01:39:00.000Z</time>
      </trkpt>
      <trkpt lat="45.04714" lon="0.76236">
        <ele>177.9</ele>
        <time>1970-01-01T01:39:01.000Z</time>
      </trkpt>
      <trkpt lat="45.04714" lon="0.76239">
        <ele>177.9</ele>
        <time>1970-01-01T01:39:02.000Z</time>
      </trkpt>
      <trkpt lat="45.04714" lon="0.76242">
        <ele>177.9</ele>
        <time>1970-01-01T01:39:03.000Z</time>
      </trkpt>
      <trkpt lat="45.04713" lon="0.76246">
        <ele>177.9</ele>
        <time>1970-01-01T01:39:04.000Z</time>
      </trkpt>
      <trkpt lat="45.04712" lon="0.7625">
        <ele>177.9</ele>
        <time>1970-01-01T01:39:05.000Z</time>
      </trkpt>
      <trkpt lat="45.04711" lon="0.76254">
        <ele>178.8</ele>
        <time>1970-01-01T01:39:06.000Z</time>
      </trkpt>
      <trkpt lat="45.0471" lon="0.76258">
        <ele>178.8</ele>
        <time>1970-01-01T01:39:07.000Z</time>
      </trkpt>
      <trkpt lat="45.04708" lon="0.76262">
        <ele>178.8</ele>
        <time>1970-01-01T01:39:08.000Z</time>
      </trkpt>
      <trkpt lat="45.04707" lon="0.76267">
        <ele>178.8</ele>
        <time>1970-01-01T01:39:09.000Z</time>
      </trkpt>
      <trkpt lat="45.04706" lon="0.76271">
        <ele>178.8</ele>
        <time>1970-01-01T01:39:10.000Z</time>
      </trkpt>
      <trkpt lat="45.04705" lon="0.76276">
        <ele>178.8</ele>
        <time>1970-01-01T01:39:11.000Z</time>
      </trkpt>
      <trkpt lat="45.04703" lon="0.76281">
        <ele>178.8</ele>
        <time>1970-01-01T01:39:12.000Z</time>
      </trkpt>
      <trkpt lat="45.04702" lon="0.76285">
        <ele>178.8</ele>
        <time>1970-01-01T01:39:13.000Z</time>
      </trkpt>
      <trkpt lat="45.04701" lon="0.7629">
        <ele>178.8</ele>
        <time>1970-01-01T01:39:14.000Z</time>
      </trkpt>
      <trkpt lat="45.047" lon="0.76294">
        <ele>178.8</ele>
        <time>1970-01-01T01:39:15.000Z</time>
      </trkpt>
      <trkpt lat="45.04699" lon="0.76299">
        <ele>177.9</ele>
        <time>1970-01-01T01:39:16.000Z</time>
      </trkpt>
      <trkpt lat="45.04698" lon="0.76303">
        <ele>177.9</ele>
        <time>1970-01-01T01:39:17.000Z</time>
      </trkpt>
      <trkpt lat="45.04697" lon="0.76307">
        <ele>178.8</ele>
        <time>1970-01-01T01:39:18.000Z</time>
      </trkpt>
      <trkpt lat="45.04696" lon="0.76311">
        <ele>178.8</ele>
        <time>1970-01-01T01:39:19.000Z</time>
      </trkpt>
      <trkpt lat="45.04695" lon="0.76314">
        <ele>179.8</ele>
        <time>1970-01-01T01:39:20.000Z</time>
      </trkpt>
      <trkpt lat="45.04694" lon="0.76317">
        <ele>179.8</ele>
        <time>1970-01-01T01:39:21.000Z</time>
      </trkpt>
      <trkpt lat="45.04693" lon="0.7632">
        <ele>179.8</ele>
        <time>1970-01-01T01:39:22.000Z</time>
      </trkpt>
      <trkpt lat="45.04692" lon="0.76323">
        <ele>179.8</ele>
        <time>1970-01-01T01:39:23.000Z</time>
      </trkpt>
      <trkpt lat="45.04692" lon="0.76327">
        <ele>179.8</ele>
        <time>1970-01-01T01:39:24.000Z</time>
      </trkpt>
      <trkpt lat="45.04691" lon="0.7633">
        <ele>179.8</ele>
        <time>1970-01-01T01:39:25.000Z</time>
      </trkpt>
      <trkpt lat="45.0469" lon="0.76333">
        <ele>179.8</ele>
        <time>1970-01-01T01:39:26.000Z</time>
      </trkpt>
      <trkpt lat="45.04689" lon="0.76336">
        <ele>179.8</ele>
        <time>1970-01-01T01:39:27.000Z</time>
      </trkpt>
      <trkpt lat="45.04689" lon="0.76339">
        <ele>179.8</ele>
        <time>1970-01-01T01:39:28.000Z</time>
      </trkpt>
      <trkpt lat="45.04688" lon="0.76342">
        <ele>179.8</ele>
        <time>1970-01-01T01:39:29.000Z</time>
      </trkpt>
      <trkpt lat="45.04687" lon="0.76345">
        <ele>180.9</ele>
        <time>1970-01-01T01:39:30.000Z</time>
      </trkpt>
      <trkpt lat="45.04686" lon="0.76348">
        <ele>180.9</ele>
        <time>1970-01-01T01:39:31.000Z</time>
      </trkpt>
      <trkpt lat="45.04685" lon="0.76351">
        <ele>180.9</ele>
        <time>1970-01-01T01:39:32.000Z</time>
      </trkpt>
      <trkpt lat="45.04685" lon="0.76354">
        <ele>180.9</ele>
        <time>1970-01-01T01:39:33.000Z</time>
      </trkpt>
      <trkpt lat="45.04684" lon="0.76357">
        <ele>180.9</ele>
        <time>1970-01-01T01:39:34.000Z</time>
      </trkpt>
      <trkpt lat="45.04683" lon="0.7636">
        <ele>180.9</ele>
        <time>1970-01-01T01:39:35.000Z</time>
      </trkpt>
      <trkpt lat="45.04682" lon="0.76363">
        <ele>180.9</ele>
        <time>1970-01-01T01:39:36.000Z</time>
      </trkpt>
      <trkpt lat="45.04682" lon="0.76366">
        <ele>180.9</ele>
        <time>1970-01-01T01:39:37.000Z</time>
      </trkpt>
      <trkpt lat="45.04681" lon="0.76369">
        <ele>181.8</ele>
        <time>1970-01-01T01:39:38.000Z</time>
      </trkpt>
      <trkpt lat="45.0468" lon="0.76372">
        <ele>181.8</ele>
        <time>1970-01-01T01:39:39.000Z</time>
      </trkpt>
      <trkpt lat="45.04679" lon="0.76375">
        <ele>181.8</ele>
        <time>1970-01-01T01:39:40.000Z</time>
      </trkpt>
      <trkpt lat="45.04679" lon="0.76378">
        <ele>181.8</ele>
        <time>1970-01-01T01:39:41.000Z</time>
      </trkpt>
      <trkpt lat="45.04678" lon="0.76381">
        <ele>181.8</ele>
        <time>1970-01-01T01:39:42.000Z</time>
      </trkpt>
      <trkpt lat="45.04677" lon="0.76383">
        <ele>181.8</ele>
        <time>1970-01-01T01:39:43.000Z</time>
      </trkpt>
      <trkpt lat="45.04676" lon="0.76386">
        <ele>181.8</ele>
        <time>1970-01-01T01:39:44.000Z</time>
      </trkpt>
      <trkpt lat="45.04675" lon="0.76389">
        <ele>181.8</ele>
        <time>1970-01-01T01:39:45.000Z</time>
      </trkpt>
      <trkpt lat="45.04674" lon="0.76392">
        <ele>181.8</ele>
        <time>1970-01-01T01:39:46.000Z</time>
      </trkpt>
      <trkpt lat="45.04673" lon="0.76395">
        <ele>181.8</ele>
        <time>1970-01-01T01:39:47.000Z</time>
      </trkpt>
      <trkpt lat="45.04672" lon="0.76399">
        <ele>181.8</ele>
        <time>1970-01-01T01:39:48.000Z</time>
      </trkpt>
      <trkpt lat="45.04671" lon="0.76402">
        <ele>181.8</ele>
        <time>1970-01-01T01:39:49.000Z</time>
      </trkpt>
      <trkpt lat="45.0467" lon="0.76405">
        <ele>182.9</ele>
        <time>1970-01-01T01:39:50.000Z</time>
      </trkpt>
      <trkpt lat="45.04669" lon="0.76408">
        <ele>182.9</ele>
        <time>1970-01-01T01:39:51.000Z</time>
      </trkpt>
      <trkpt lat="45.04668" lon="0.76411">
        <ele>182.9</ele>
        <time>1970-01-01T01:39:52.000Z</time>
      </trkpt>
      <trkpt lat="45.04666" lon="0.76414">
        <ele>182.9</ele>
        <time>1970-01-01T01:39:53.000Z</time>
      </trkpt>
      <trkpt lat="45.04665" lon="0.76417">
        <ele>182.9</ele>
        <time>1970-01-01T01:39:54.000Z</time>
      </trkpt>
      <trkpt lat="45.04664" lon="0.7642">
        <ele>182.9</ele>
        <time>1970-01-01T01:39:55.000Z</time>
      </trkpt>
      <trkpt lat="45.04663" lon="0.76422">
        <ele>183.8</ele>
        <time>1970-01-01T01:39:56.000Z</time>
      </trkpt>
      <trkpt lat="45.04662" lon="0.76425">
        <ele>183.8</ele>
        <time>1970-01-01T01:39:57.000Z</time>
      </trkpt>
      <trkpt lat="45.04661" lon="0.76428">
        <ele>183.8</ele>
        <time>1970-01-01T01:39:58.000Z</time>
      </trkpt>
      <trkpt lat="45.0466" lon="0.76431">
        <ele>183.8</ele>
        <time>1970-01-01T01:39:59.000Z</time>
      </trkpt>
      <trkpt lat="45.04659" lon="0.76434">
        <ele>183.8</ele>
        <time>1970-01-01T01:40:00.000Z</time>
      </trkpt>
      <trkpt lat="45.04658" lon="0.76437">
        <ele>183.8</ele>
        <time>1970-01-01T01:40:01.000Z</time>
      </trkpt>
      <trkpt lat="45.04658" lon="0.76441">
        <ele>183.8</ele>
        <time>1970-01-01T01:40:02.000Z</time>
      </trkpt>
      <trkpt lat="45.04658" lon="0.76444">
        <ele>183.8</ele>
        <time>1970-01-01T01:40:03.000Z</time>
      </trkpt>
      <trkpt lat="45.04658" lon="0.76447">
        <ele>183.8</ele>
        <time>1970-01-01T01:40:04.000Z</time>
      </trkpt>
      <trkpt lat="45.04658" lon="0.7645">
        <ele>183.8</ele>
        <time>1970-01-01T01:40:05.000Z</time>
      </trkpt>
      <trkpt lat="45.04659" lon="0.76453">
        <ele>184.9</ele>
        <time>1970-01-01T01:40:06.000Z</time>
      </trkpt>
      <trkpt lat="45.0466" lon="0.76456">
        <ele>184.9</ele>
        <time>1970-01-01T01:40:07.000Z</time>
      </trkpt>
      <trkpt lat="45.04661" lon="0.76459">
        <ele>184.9</ele>
        <time>1970-01-01T01:40:08.000Z</time>
      </trkpt>
      <trkpt lat="45.04662" lon="0.76462">
        <ele>184.9</ele>
        <time>1970-01-01T01:40:09.000Z</time>
      </trkpt>
      <trkpt lat="45.04662" lon="0.76465">
        <ele>184.9</ele>
        <time>1970-01-01T01:40:10.000Z</time>
      </trkpt>
      <trkpt lat="45.04662" lon="0.76469">
        <ele>184.9</ele>
        <time>1970-01-01T01:40:11.000Z</time>
      </trkpt>
      <trkpt lat="45.04662" lon="0.76473">
        <ele>184.9</ele>
        <time>1970-01-01T01:40:12.000Z</time>
      </trkpt>
      <trkpt lat="45.04661" lon="0.76476">
        <ele>184.9</ele>
        <time>1970-01-01T01:40:13.000Z</time>
      </trkpt>
      <trkpt lat="45.0466" lon="0.7648">
        <ele>184.9</ele>
        <time>1970-01-01T01:40:14.000Z</time>
      </trkpt>
      <trkpt lat="45.0466" lon="0.76483">
        <ele>184.9</ele>
        <time>1970-01-01T01:40:15.000Z</time>
      </trkpt>
      <trkpt lat="45.04659" lon="0.76487">
        <ele>188.8</ele>
        <time>1970-01-01T01:40:16.000Z</time>
      </trkpt>
      <trkpt lat="45.04658" lon="0.7649">
        <ele>188.8</ele>
        <time>1970-01-01T01:40:17.000Z</time>
      </trkpt>
      <trkpt lat="45.04658" lon="0.76493">
        <ele>187.9</ele>
        <time>1970-01-01T01:40:18.000Z</time>
      </trkpt>
      <trkpt lat="45.04657" lon="0.76496">
        <ele>187.9</ele>
        <time>1970-01-01T01:40:19.000Z</time>
      </trkpt>
      <trkpt lat="45.04657" lon="0.76499">
        <ele>187.9</ele>
        <time>1970-01-01T01:40:20.000Z</time>
      </trkpt>
      <trkpt lat="45.04656" lon="0.76502">
        <ele>187.9</ele>
        <time>1970-01-01T01:40:21.000Z</time>
      </trkpt>
      <trkpt lat="45.04657" lon="0.76505">
        <ele>187.9</ele>
        <time>1970-01-01T01:40:22.000Z</time>
      </trkpt>
      <trkpt lat="45.04657" lon="0.76508">
        <ele>187.9</ele>
        <time>1970-01-01T01:40:23.000Z</time>
      </trkpt>
      <trkpt lat="45.04658" lon="0.7651">
        <ele>187.9</ele>
        <time>1970-01-01T01:40:24.000Z</time>
      </trkpt>
      <trkpt lat="45.0466" lon="0.76512">
        <ele>187.9</ele>
        <time>1970-01-01T01:40:25.000Z</time>
      </trkpt>
      <trkpt lat="45.04662" lon="0.76514">
        <ele>187.9</ele>
        <time>1970-01-01T01:40:26.000Z</time>
      </trkpt>
      <trkpt lat="45.04665" lon="0.76515">
        <ele>187.9</ele>
        <time>1970-01-01T01:40:27.000Z</time>
      </trkpt>
      <trkpt lat="45.04667" lon="0.76516">
        <ele>187.9</ele>
        <time>1970-01-01T01:40:28.000Z</time>
      </trkpt>
      <trkpt lat="45.0467" lon="0.76517">
        <ele>187.9</ele>
        <time>1970-01-01T01:40:29.000Z</time>
      </trkpt>
      <trkpt lat="45.04673" lon="0.76519">
        <ele>187.9</ele>
        <time>1970-01-01T01:40:30.000Z</time>
      </trkpt>
      <trkpt lat="45.04676" lon="0.7652">
        <ele>187.9</ele>
        <time>1970-01-01T01:40:31.000Z</time>
      </trkpt>
      <trkpt lat="45.04679" lon="0.76521">
        <ele>186.8</ele>
        <time>1970-01-01T01:40:32.000Z</time>
      </trkpt>
      <trkpt lat="45.04682" lon="0.76522">
        <ele>186.8</ele>
        <time>1970-01-01T01:40:33.000Z</time>
      </trkpt>
      <trkpt lat="45.04685" lon="0.76523">
        <ele>186.8</ele>
        <time>1970-01-01T01:40:34.000Z</time>
      </trkpt>
      <trkpt lat="45.04688" lon="0.76524">
        <ele>186.8</ele>
        <time>1970-01-01T01:40:35.000Z</time>
      </trkpt>
      <trkpt lat="45.04691" lon="0.76525">
        <ele>186.8</ele>
        <time>1970-01-01T01:40:36.000Z</time>
      </trkpt>
      <trkpt lat="45.04695" lon="0.76526">
        <ele>186.8</ele>
        <time>1970-01-01T01:40:37.000Z</time>
      </trkpt>
      <trkpt lat="45.04698" lon="0.76526">
        <ele>186.8</ele>
        <time>1970-01-01T01:40:38.000Z</time>
      </trkpt>
      <trkpt lat="45.04702" lon="0.76527">
        <ele>186.8</ele>
        <time>1970-01-01T01:40:39.000Z</time>
      </trkpt>
      <trkpt lat="45.04705" lon="0.76527">
        <ele>186.8</ele>
        <time>1970-01-01T01:40:40.000Z</time>
      </trkpt>
      <trkpt lat="45.04709" lon="0.76527">
        <ele>186.8</ele>
        <time>1970-01-01T01:40:41.000Z</time>
      </trkpt>
      <trkpt lat="45.04713" lon="0.76526">
        <ele>186.8</ele>
        <time>1970-01-01T01:40:42.000Z</time>
      </trkpt>
      <trkpt lat="45.04717" lon="0.76525">
        <ele>186.8</ele>
        <time>1970-01-01T01:40:43.000Z</time>
      </trkpt>
      <trkpt lat="45.04721" lon="0.76524">
        <ele>186.8</ele>
        <time>1970-01-01T01:40:44.000Z</time>
      </trkpt>
      <trkpt lat="45.04725" lon="0.76523">
        <ele>186.8</ele>
        <time>1970-01-01T01:40:45.000Z</time>
      </trkpt>
      <trkpt lat="45.04729" lon="0.76522">
        <ele>186.8</ele>
        <time>1970-01-01T01:40:46.000Z</time>
      </trkpt>
      <trkpt lat="45.04733" lon="0.76521">
        <ele>186.8</ele>
        <time>1970-01-01T01:40:47.000Z</time>
      </trkpt>
      <trkpt lat="45.04736" lon="0.7652">
        <ele>186.8</ele>
        <time>1970-01-01T01:40:48.000Z</time>
      </trkpt>
      <trkpt lat="45.0474" lon="0.7652">
        <ele>186.8</ele>
        <time>1970-01-01T01:40:49.000Z</time>
      </trkpt>
      <trkpt lat="45.04745" lon="0.76521">
        <ele>186.8</ele>
        <time>1970-01-01T01:40:50.000Z</time>
      </trkpt>
      <trkpt lat="45.04749" lon="0.76523">
        <ele>186.8</ele>
        <time>1970-01-01T01:40:51.000Z</time>
      </trkpt>
      <trkpt lat="45.04753" lon="0.76525">
        <ele>186.8</ele>
        <time>1970-01-01T01:40:52.000Z</time>
      </trkpt>
      <trkpt lat="45.04758" lon="0.76529">
        <ele>186.8</ele>
        <time>1970-01-01T01:40:53.000Z</time>
      </trkpt>
      <trkpt lat="45.04762" lon="0.76532">
        <ele>186.8</ele>
        <time>1970-01-01T01:40:54.000Z</time>
      </trkpt>
      <trkpt lat="45.04767" lon="0.76534">
        <ele>186.8</ele>
        <time>1970-01-01T01:40:55.000Z</time>
      </trkpt>
      <trkpt lat="45.04773" lon="0.76534">
        <ele>186.8</ele>
        <time>1970-01-01T01:40:56.000Z</time>
      </trkpt>
      <trkpt lat="45.04778" lon="0.76534">
        <ele>186.8</ele>
        <time>1970-01-01T01:40:57.000Z</time>
      </trkpt>
      <trkpt lat="45.04783" lon="0.76531">
        <ele>184.9</ele>
        <time>1970-01-01T01:40:58.000Z</time>
      </trkpt>
      <trkpt lat="45.04788" lon="0.76528">
        <ele>184.9</ele>
        <time>1970-01-01T01:40:59.000Z</time>
      </trkpt>
      <trkpt lat="45.04792" lon="0.76524">
        <ele>183.8</ele>
        <time>1970-01-01T01:41:00.000Z</time>
      </trkpt>
      <trkpt lat="45.04796" lon="0.7652">
        <ele>183.8</ele>
        <time>1970-01-01T01:41:01.000Z</time>
      </trkpt>
      <trkpt lat="45.048" lon="0.76516">
        <ele>183.8</ele>
        <time>1970-01-01T01:41:02.000Z</time>
      </trkpt>
      <trkpt lat="45.04804" lon="0.76512">
        <ele>183.8</ele>
        <time>1970-01-01T01:41:03.000Z</time>
      </trkpt>
      <trkpt lat="45.04808" lon="0.76508">
        <ele>183.8</ele>
        <time>1970-01-01T01:41:04.000Z</time>
      </trkpt>
      <trkpt lat="45.04812" lon="0.76504">
        <ele>183.8</ele>
        <time>1970-01-01T01:41:05.000Z</time>
      </trkpt>
      <trkpt lat="45.04816" lon="0.765">
        <ele>183.8</ele>
        <time>1970-01-01T01:41:06.000Z</time>
      </trkpt>
      <trkpt lat="45.04819" lon="0.76497">
        <ele>183.8</ele>
        <time>1970-01-01T01:41:07.000Z</time>
      </trkpt>
      <trkpt lat="45.04823" lon="0.76493">
        <ele>183.8</ele>
        <time>1970-01-01T01:41:08.000Z</time>
      </trkpt>
      <trkpt lat="45.04826" lon="0.7649">
        <ele>183.8</ele>
        <time>1970-01-01T01:41:09.000Z</time>
      </trkpt>
      <trkpt lat="45.04829" lon="0.76486">
        <ele>183.8</ele>
        <time>1970-01-01T01:41:10.000Z</time>
      </trkpt>
      <trkpt lat="45.04832" lon="0.76483">
        <ele>183.8</ele>
        <time>1970-01-01T01:41:11.000Z</time>
      </trkpt>
      <trkpt lat="45.04836" lon="0.7648">
        <ele>183.8</ele>
        <time>1970-01-01T01:41:12.000Z</time>
      </trkpt>
      <trkpt lat="45.04839" lon="0.76476">
        <ele>183.8</ele>
        <time>1970-01-01T01:41:13.000Z</time>
      </trkpt>
      <trkpt lat="45.04843" lon="0.76473">
        <ele>183.8</ele>
        <time>1970-01-01T01:41:14.000Z</time>
      </trkpt>
      <trkpt lat="45.04846" lon="0.76469">
        <ele>183.8</ele>
        <time>1970-01-01T01:41:15.000Z</time>
      </trkpt>
      <trkpt lat="45.0485" lon="0.76466">
        <ele>183.8</ele>
        <time>1970-01-01T01:41:16.000Z</time>
      </trkpt>
      <trkpt lat="45.04853" lon="0.76463">
        <ele>183.8</ele>
        <time>1970-01-01T01:41:17.000Z</time>
      </trkpt>
      <trkpt lat="45.04857" lon="0.7646">
        <ele>183.8</ele>
        <time>1970-01-01T01:41:18.000Z</time>
      </trkpt>
      <trkpt lat="45.0486" lon="0.76457">
        <ele>183.8</ele>
        <time>1970-01-01T01:41:19.000Z</time>
      </trkpt>
      <trkpt lat="45.04864" lon="0.76454">
        <ele>182.9</ele>
        <time>1970-01-01T01:41:20.000Z</time>
      </trkpt>
      <trkpt lat="45.04868" lon="0.76451">
        <ele>182.9</ele>
        <time>1970-01-01T01:41:21.000Z</time>
      </trkpt>
      <trkpt lat="45.04872" lon="0.76448">
        <ele>183.8</ele>
        <time>1970-01-01T01:41:22.000Z</time>
      </trkpt>
      <trkpt lat="45.04875" lon="0.76446">
        <ele>183.8</ele>
        <time>1970-01-01T01:41:23.000Z</time>
      </trkpt>
      <trkpt lat="45.04879" lon="0.76443">
        <ele>183.8</ele>
        <time>1970-01-01T01:41:24.000Z</time>
      </trkpt>
      <trkpt lat="45.04883" lon="0.76441">
        <ele>183.8</ele>
        <time>1970-01-01T01:41:25.000Z</time>
      </trkpt>
      <trkpt lat="45.04887" lon="0.76441">
        <ele>183.8</ele>
        <time>1970-01-01T01:41:26.000Z</time>
      </trkpt>
      <trkpt lat="45.04889" lon="0.76443">
        <ele>183.8</ele>
        <time>1970-01-01T01:41:27.000Z</time>
      </trkpt>
      <trkpt lat="45.04891" lon="0.76446">
        <ele>182.9</ele>
        <time>1970-01-01T01:41:28.000Z</time>
      </trkpt>
      <trkpt lat="45.04892" lon="0.76451">
        <ele>182.9</ele>
        <time>1970-01-01T01:41:29.000Z</time>
      </trkpt>
      <trkpt lat="45.0489" lon="0.76457">
        <ele>182.9</ele>
        <time>1970-01-01T01:41:30.000Z</time>
      </trkpt>
      <trkpt lat="45.04888" lon="0.76462">
        <ele>182.9</ele>
        <time>1970-01-01T01:41:31.000Z</time>
      </trkpt>
      <trkpt lat="45.04885" lon="0.76468">
        <ele>182.9</ele>
        <time>1970-01-01T01:41:32.000Z</time>
      </trkpt>
      <trkpt lat="45.04882" lon="0.76475">
        <ele>182.9</ele>
        <time>1970-01-01T01:41:33.000Z</time>
      </trkpt>
      <trkpt lat="45.04878" lon="0.76481">
        <ele>181.8</ele>
        <time>1970-01-01T01:41:34.000Z</time>
      </trkpt>
      <trkpt lat="45.04873" lon="0.76488">
        <ele>181.8</ele>
        <time>1970-01-01T01:41:35.000Z</time>
      </trkpt>
      <trkpt lat="45.04868" lon="0.76494">
        <ele>180.9</ele>
        <time>1970-01-01T01:41:36.000Z</time>
      </trkpt>
      <trkpt lat="45.04864" lon="0.76501">
        <ele>180.9</ele>
        <time>1970-01-01T01:41:37.000Z</time>
      </trkpt>
      <trkpt lat="45.04859" lon="0.76507">
        <ele>180.9</ele>
        <time>1970-01-01T01:41:38.000Z</time>
      </trkpt>
      <trkpt lat="45.04855" lon="0.76513">
        <ele>180.9</ele>
        <time>1970-01-01T01:41:39.000Z</time>
      </trkpt>
      <trkpt lat="45.0485" lon="0.76519">
        <ele>179.8</ele>
        <time>1970-01-01T01:41:40.000Z</time>
      </trkpt>
      <trkpt lat="45.04845" lon="0.76526">
        <ele>179.8</ele>
        <time>1970-01-01T01:41:41.000Z</time>
      </trkpt>
      <trkpt lat="45.0484" lon="0.76532">
        <ele>178.8</ele>
        <time>1970-01-01T01:41:42.000Z</time>
      </trkpt>
      <trkpt lat="45.04835" lon="0.76539">
        <ele>178.8</ele>
        <time>1970-01-01T01:41:43.000Z</time>
      </trkpt>
      <trkpt lat="45.0483" lon="0.76545">
        <ele>178.8</ele>
        <time>1970-01-01T01:41:44.000Z</time>
      </trkpt>
      <trkpt lat="45.04825" lon="0.76552">
        <ele>178.8</ele>
        <time>1970-01-01T01:41:45.000Z</time>
      </trkpt>
      <trkpt lat="45.0482" lon="0.76559">
        <ele>177.9</ele>
        <time>1970-01-01T01:41:46.000Z</time>
      </trkpt>
      <trkpt lat="45.04816" lon="0.76566">
        <ele>177.9</ele>
        <time>1970-01-01T01:41:47.000Z</time>
      </trkpt>
      <trkpt lat="45.04812" lon="0.76574">
        <ele>177.9</ele>
        <time>1970-01-01T01:41:48.000Z</time>
      </trkpt>
      <trkpt lat="45.04808" lon="0.76583">
        <ele>177.9</ele>
        <time>1970-01-01T01:41:49.000Z</time>
      </trkpt>
      <trkpt lat="45.04806" lon="0.76593">
        <ele>175.9</ele>
        <time>1970-01-01T01:41:50.000Z</time>
      </trkpt>
      <trkpt lat="45.04805" lon="0.76603">
        <ele>175.9</ele>
        <time>1970-01-01T01:41:51.000Z</time>
      </trkpt>
      <trkpt lat="45.04804" lon="0.76614">
        <ele>173.9</ele>
        <time>1970-01-01T01:41:52.000Z</time>
      </trkpt>
      <trkpt lat="45.04804" lon="0.76626">
        <ele>173.9</ele>
        <time>1970-01-01T01:41:53.000Z</time>
      </trkpt>
      <trkpt lat="45.04806" lon="0.76637">
        <ele>171.9</ele>
        <time>1970-01-01T01:41:54.000Z</time>
      </trkpt>
      <trkpt lat="45.04809" lon="0.76648">
        <ele>171.9</ele>
        <time>1970-01-01T01:41:55.000Z</time>
      </trkpt>
      <trkpt lat="45.04813" lon="0.76659">
        <ele>171.9</ele>
        <time>1970-01-01T01:41:56.000Z</time>
      </trkpt>
      <trkpt lat="45.04818" lon="0.76668">
        <ele>171.9</ele>
        <time>1970-01-01T01:41:57.000Z</time>
      </trkpt>
      <trkpt lat="45.04824" lon="0.76679">
        <ele>171.9</ele>
        <time>1970-01-01T01:41:58.000Z</time>
      </trkpt>
      <trkpt lat="45.04831" lon="0.76689">
        <ele>171.9</ele>
        <time>1970-01-01T01:41:59.000Z</time>
      </trkpt>
      <trkpt lat="45.04838" lon="0.76699">
        <ele>166.9</ele>
        <time>1970-01-01T01:42:00.000Z</time>
      </trkpt>
      <trkpt lat="45.04845" lon="0.76708">
        <ele>166.9</ele>
        <time>1970-01-01T01:42:01.000Z</time>
      </trkpt>
      <trkpt lat="45.04853" lon="0.76718">
        <ele>164.9</ele>
        <time>1970-01-01T01:42:02.000Z</time>
      </trkpt>
      <trkpt lat="45.04861" lon="0.76727">
        <ele>164.9</ele>
        <time>1970-01-01T01:42:03.000Z</time>
      </trkpt>
      <trkpt lat="45.04868" lon="0.76736">
        <ele>162.8</ele>
        <time>1970-01-01T01:42:04.000Z</time>
      </trkpt>
      <trkpt lat="45.04876" lon="0.76746">
        <ele>162.8</ele>
        <time>1970-01-01T01:42:05.000Z</time>
      </trkpt>
      <trkpt lat="45.04883" lon="0.76756">
        <ele>160.8</ele>
        <time>1970-01-01T01:42:06.000Z</time>
      </trkpt>
      <trkpt lat="45.0489" lon="0.76765">
        <ele>160.8</ele>
        <time>1970-01-01T01:42:07.000Z</time>
      </trkpt>
      <trkpt lat="45.04896" lon="0.76775">
        <ele>158.8</ele>
        <time>1970-01-01T01:42:08.000Z</time>
      </trkpt>
      <trkpt lat="45.049" lon="0.76782">
        <ele>158.8</ele>
        <time>1970-01-01T01:42:09.000Z</time>
      </trkpt>
      <trkpt lat="45.04903" lon="0.76788">
        <ele>156.8</ele>
        <time>1970-01-01T01:42:10.000Z</time>
      </trkpt>
      <trkpt lat="45.04906" lon="0.7679">
        <ele>156.8</ele>
        <time>1970-01-01T01:42:11.000Z</time>
      </trkpt>
      <trkpt lat="45.0491" lon="0.7679">
        <ele>155.9</ele>
        <time>1970-01-01T01:42:12.000Z</time>
      </trkpt>
      <trkpt lat="45.04912" lon="0.76787">
        <ele>155.9</ele>
        <time>1970-01-01T01:42:13.000Z</time>
      </trkpt>
      <trkpt lat="45.04914" lon="0.76782">
        <ele>153.8</ele>
        <time>1970-01-01T01:42:14.000Z</time>
      </trkpt>
      <trkpt lat="45.04916" lon="0.76774">
        <ele>153.8</ele>
        <time>1970-01-01T01:42:15.000Z</time>
      </trkpt>
      <trkpt lat="45.04918" lon="0.76766">
        <ele>152.9</ele>
        <time>1970-01-01T01:42:16.000Z</time>
      </trkpt>
      <trkpt lat="45.0492" lon="0.76757">
        <ele>152.9</ele>
        <time>1970-01-01T01:42:17.000Z</time>
      </trkpt>
      <trkpt lat="45.04921" lon="0.76748">
        <ele>151.8</ele>
        <time>1970-01-01T01:42:18.000Z</time>
      </trkpt>
      <trkpt lat="45.04923" lon="0.76741">
        <ele>151.8</ele>
        <time>1970-01-01T01:42:19.000Z</time>
      </trkpt>
      <trkpt lat="45.04925" lon="0.76736">
        <ele>150.9</ele>
        <time>1970-01-01T01:42:20.000Z</time>
      </trkpt>
      <trkpt lat="45.04927" lon="0.76733">
        <ele>150.9</ele>
        <time>1970-01-01T01:42:21.000Z</time>
      </trkpt>
      <trkpt lat="45.04929" lon="0.76733">
        <ele>148.9</ele>
        <time>1970-01-01T01:42:22.000Z</time>
      </trkpt>
      <trkpt lat="45.04931" lon="0.76735">
        <ele>148.9</ele>
        <time>1970-01-01T01:42:23.000Z</time>
      </trkpt>
      <trkpt lat="45.04933" lon="0.76738">
        <ele>147.8</ele>
        <time>1970-01-01T01:42:24.000Z</time>
      </trkpt>
      <trkpt lat="45.04937" lon="0.76742">
        <ele>147.8</ele>
        <time>1970-01-01T01:42:25.000Z</time>
      </trkpt>
      <trkpt lat="45.04941" lon="0.76747">
        <ele>146.8</ele>
        <time>1970-01-01T01:42:26.000Z</time>
      </trkpt>
      <trkpt lat="45.04945" lon="0.76752">
        <ele>146.8</ele>
        <time>1970-01-01T01:42:27.000Z</time>
      </trkpt>
      <trkpt lat="45.0495" lon="0.76757">
        <ele>145.8</ele>
        <time>1970-01-01T01:42:28.000Z</time>
      </trkpt>
      <trkpt lat="45.04956" lon="0.76762">
        <ele>145.8</ele>
        <time>1970-01-01T01:42:29.000Z</time>
      </trkpt>
      <trkpt lat="45.04963" lon="0.76766">
        <ele>143.9</ele>
        <time>1970-01-01T01:42:30.000Z</time>
      </trkpt>
      <trkpt lat="45.0497" lon="0.76771">
        <ele>143.9</ele>
        <time>1970-01-01T01:42:31.000Z</time>
      </trkpt>
      <trkpt lat="45.04978" lon="0.76776">
        <ele>143.9</ele>
        <time>1970-01-01T01:42:32.000Z</time>
      </trkpt>
      <trkpt lat="45.04986" lon="0.7678">
        <ele>143.9</ele>
        <time>1970-01-01T01:42:33.000Z</time>
      </trkpt>
      <trkpt lat="45.04995" lon="0.76784">
        <ele>143.9</ele>
        <time>1970-01-01T01:42:34.000Z</time>
      </trkpt>
      <trkpt lat="45.05004" lon="0.76788">
        <ele>143.9</ele>
        <time>1970-01-01T01:42:35.000Z</time>
      </trkpt>
      <trkpt lat="45.05014" lon="0.76791">
        <ele>139.9</ele>
        <time>1970-01-01T01:42:36.000Z</time>
      </trkpt>
      <trkpt lat="45.05024" lon="0.76795">
        <ele>139.9</ele>
        <time>1970-01-01T01:42:37.000Z</time>
      </trkpt>
      <trkpt lat="45.05032" lon="0.76802">
        <ele>137.8</ele>
        <time>1970-01-01T01:42:38.000Z</time>
      </trkpt>
      <trkpt lat="45.05039" lon="0.76808">
        <ele>137.8</ele>
        <time>1970-01-01T01:42:39.000Z</time>
      </trkpt>
      <trkpt lat="45.05044" lon="0.76815">
        <ele>135.8</ele>
        <time>1970-01-01T01:42:40.000Z</time>
      </trkpt>
      <trkpt lat="45.0505" lon="0.76823">
        <ele>135.8</ele>
        <time>1970-01-01T01:42:41.000Z</time>
      </trkpt>
      <trkpt lat="45.05056" lon="0.76831">
        <ele>133.8</ele>
        <time>1970-01-01T01:42:42.000Z</time>
      </trkpt>
      <trkpt lat="45.05062" lon="0.76839">
        <ele>133.8</ele>
        <time>1970-01-01T01:42:43.000Z</time>
      </trkpt>
      <trkpt lat="45.05068" lon="0.76847">
        <ele>131.8</ele>
        <time>1970-01-01T01:42:44.000Z</time>
      </trkpt>
      <trkpt lat="45.05074" lon="0.76854">
        <ele>131.8</ele>
        <time>1970-01-01T01:42:45.000Z</time>
      </trkpt>
      <trkpt lat="45.05081" lon="0.76861">
        <ele>131.8</ele>
        <time>1970-01-01T01:42:46.000Z</time>
      </trkpt>
      <trkpt lat="45.05087" lon="0.76869">
        <ele>131.8</ele>
        <time>1970-01-01T01:42:47.000Z</time>
      </trkpt>
      <trkpt lat="45.05094" lon="0.76877">
        <ele>129.8</ele>
        <time>1970-01-01T01:42:48.000Z</time>
      </trkpt>
      <trkpt lat="45.051" lon="0.76886">
        <ele>129.8</ele>
        <time>1970-01-01T01:42:49.000Z</time>
      </trkpt>
      <trkpt lat="45.05106" lon="0.76896">
        <ele>128.8</ele>
        <time>1970-01-01T01:42:50.000Z</time>
      </trkpt>
      <trkpt lat="45.05112" lon="0.76905">
        <ele>128.8</ele>
        <time>1970-01-01T01:42:51.000Z</time>
      </trkpt>
      <trkpt lat="45.05119" lon="0.76914">
        <ele>127.9</ele>
        <time>1970-01-01T01:42:52.000Z</time>
      </trkpt>
      <trkpt lat="45.05125" lon="0.76922">
        <ele>127.9</ele>
        <time>1970-01-01T01:42:53.000Z</time>
      </trkpt>
      <trkpt lat="45.0513" lon="0.7693">
        <ele>127.9</ele>
        <time>1970-01-01T01:42:54.000Z</time>
      </trkpt>
      <trkpt lat="45.05136" lon="0.76936">
        <ele>127.9</ele>
        <time>1970-01-01T01:42:55.000Z</time>
      </trkpt>
      <trkpt lat="45.05141" lon="0.76942">
        <ele>126.8</ele>
        <time>1970-01-01T01:42:56.000Z</time>
      </trkpt>
      <trkpt lat="45.05146" lon="0.76946">
        <ele>126.8</ele>
        <time>1970-01-01T01:42:57.000Z</time>
      </trkpt>
      <trkpt lat="45.05152" lon="0.76947">
        <ele>126.8</ele>
        <time>1970-01-01T01:42:58.000Z</time>
      </trkpt>
      <trkpt lat="45.05157" lon="0.76946">
        <ele>126.8</ele>
        <time>1970-01-01T01:42:59.000Z</time>
      </trkpt>
      <trkpt lat="45.05161" lon="0.76944">
        <ele>126.8</ele>
        <time>1970-01-01T01:43:00.000Z</time>
      </trkpt>
      <trkpt lat="45.05165" lon="0.7694">
        <ele>126.8</ele>
        <time>1970-01-01T01:43:01.000Z</time>
      </trkpt>
      <trkpt lat="45.05169" lon="0.76936">
        <ele>126.8</ele>
        <time>1970-01-01T01:43:02.000Z</time>
      </trkpt>
      <trkpt lat="45.05172" lon="0.76932">
        <ele>126.8</ele>
        <time>1970-01-01T01:43:03.000Z</time>
      </trkpt>
      <trkpt lat="45.05175" lon="0.76928">
        <ele>126.8</ele>
        <time>1970-01-01T01:43:04.000Z</time>
      </trkpt>
      <trkpt lat="45.05179" lon="0.76925">
        <ele>126.8</ele>
        <time>1970-01-01T01:43:05.000Z</time>
      </trkpt>
      <trkpt lat="45.05183" lon="0.76921">
        <ele>126.8</ele>
        <time>1970-01-01T01:43:06.000Z</time>
      </trkpt>
      <trkpt lat="45.05187" lon="0.76916">
        <ele>126.8</ele>
        <time>1970-01-01T01:43:07.000Z</time>
      </trkpt>
      <trkpt lat="45.0519" lon="0.76912">
        <ele>126.8</ele>
        <time>1970-01-01T01:43:08.000Z</time>
      </trkpt>
      <trkpt lat="45.05194" lon="0.76908">
        <ele>126.8</ele>
        <time>1970-01-01T01:43:09.000Z</time>
      </trkpt>
      <trkpt lat="45.05197" lon="0.76903">
        <ele>126.8</ele>
        <time>1970-01-01T01:43:10.000Z</time>
      </trkpt>
      <trkpt lat="45.052" lon="0.76899">
        <ele>126.8</ele>
        <time>1970-01-01T01:43:11.000Z</time>
      </trkpt>
      <trkpt lat="45.05203" lon="0.76895">
        <ele>126.8</ele>
        <time>1970-01-01T01:43:12.000Z</time>
      </trkpt>
      <trkpt lat="45.05206" lon="0.76891">
        <ele>126.8</ele>
        <time>1970-01-01T01:43:13.000Z</time>
      </trkpt>
      <trkpt lat="45.05209" lon="0.76886">
        <ele>125.9</ele>
        <time>1970-01-01T01:43:14.000Z</time>
      </trkpt>
      <trkpt lat="45.05211" lon="0.76882">
        <ele>125.9</ele>
        <time>1970-01-01T01:43:15.000Z</time>
      </trkpt>
      <trkpt lat="45.05213" lon="0.76878">
        <ele>125.9</ele>
        <time>1970-01-01T01:43:16.000Z</time>
      </trkpt>
      <trkpt lat="45.05216" lon="0.76873">
        <ele>125.9</ele>
        <time>1970-01-01T01:43:17.000Z</time>
      </trkpt>
      <trkpt lat="45.05218" lon="0.76868">
        <ele>126.8</ele>
        <time>1970-01-01T01:43:18.000Z</time>
      </trkpt>
      <trkpt lat="45.05221" lon="0.76864">
        <ele>126.8</ele>
        <time>1970-01-01T01:43:19.000Z</time>
      </trkpt>
      <trkpt lat="45.05223" lon="0.76859">
        <ele>126.8</ele>
        <time>1970-01-01T01:43:20.000Z</time>
      </trkpt>
      <trkpt lat="45.05226" lon="0.76854">
        <ele>126.8</ele>
        <time>1970-01-01T01:43:21.000Z</time>
      </trkpt>
      <trkpt lat="45.05229" lon="0.76849">
        <ele>126.8</ele>
        <time>1970-01-01T01:43:22.000Z</time>
      </trkpt>
      <trkpt lat="45.05231" lon="0.76844">
        <ele>126.8</ele>
        <time>1970-01-01T01:43:23.000Z</time>
      </trkpt>
      <trkpt lat="45.05234" lon="0.7684">
        <ele>126.8</ele>
        <time>1970-01-01T01:43:24.000Z</time>
      </trkpt>
      <trkpt lat="45.05237" lon="0.76835">
        <ele>126.8</ele>
        <time>1970-01-01T01:43:25.000Z</time>
      </trkpt>
      <trkpt lat="45.0524" lon="0.7683">
        <ele>127.9</ele>
        <time>1970-01-01T01:43:26.000Z</time>
      </trkpt>
      <trkpt lat="45.05243" lon="0.76825">
        <ele>127.9</ele>
        <time>1970-01-01T01:43:27.000Z</time>
      </trkpt>
      <trkpt lat="45.05247" lon="0.7682">
        <ele>127.9</ele>
        <time>1970-01-01T01:43:28.000Z</time>
      </trkpt>
      <trkpt lat="45.0525" lon="0.76815">
        <ele>127.9</ele>
        <time>1970-01-01T01:43:29.000Z</time>
      </trkpt>
      <trkpt lat="45.05253" lon="0.7681">
        <ele>127.9</ele>
        <time>1970-01-01T01:43:30.000Z</time>
      </trkpt>
      <trkpt lat="45.05257" lon="0.76806">
        <ele>127.9</ele>
        <time>1970-01-01T01:43:31.000Z</time>
      </trkpt>
      <trkpt lat="45.05261" lon="0.76802">
        <ele>127.9</ele>
        <time>1970-01-01T01:43:32.000Z</time>
      </trkpt>
      <trkpt lat="45.05265" lon="0.76797">
        <ele>127.9</ele>
        <time>1970-01-01T01:43:33.000Z</time>
      </trkpt>
      <trkpt lat="45.05269" lon="0.76794">
        <ele>127.9</ele>
        <time>1970-01-01T01:43:34.000Z</time>
      </trkpt>
      <trkpt lat="45.05273" lon="0.7679">
        <ele>127.9</ele>
        <time>1970-01-01T01:43:35.000Z</time>
      </trkpt>
      <trkpt lat="45.05276" lon="0.76787">
        <ele>127.9</ele>
        <time>1970-01-01T01:43:36.000Z</time>
      </trkpt>
      <trkpt lat="45.05282" lon="0.76783">
        <ele>127.9</ele>
        <time>1970-01-01T01:43:37.000Z</time>
      </trkpt>
      <trkpt lat="45.05286" lon="0.76781">
        <ele>127.9</ele>
        <time>1970-01-01T01:43:38.000Z</time>
      </trkpt>
      <trkpt lat="45.05291" lon="0.76778">
        <ele>127.9</ele>
        <time>1970-01-01T01:43:39.000Z</time>
      </trkpt>
      <trkpt lat="45.05295" lon="0.76776">
        <ele>127.9</ele>
        <time>1970-01-01T01:43:40.000Z</time>
      </trkpt>
      <trkpt lat="45.053" lon="0.76773">
        <ele>127.9</ele>
        <time>1970-01-01T01:43:41.000Z</time>
      </trkpt>
      <trkpt lat="45.05304" lon="0.76771">
        <ele>127.9</ele>
        <time>1970-01-01T01:43:42.000Z</time>
      </trkpt>
      <trkpt lat="45.05309" lon="0.76768">
        <ele>127.9</ele>
        <time>1970-01-01T01:43:43.000Z</time>
      </trkpt>
      <trkpt lat="45.05313" lon="0.76766">
        <ele>127.9</ele>
        <time>1970-01-01T01:43:44.000Z</time>
      </trkpt>
      <trkpt lat="45.05318" lon="0.76763">
        <ele>127.9</ele>
        <time>1970-01-01T01:43:45.000Z</time>
      </trkpt>
      <trkpt lat="45.05322" lon="0.76761">
        <ele>127.9</ele>
        <time>1970-01-01T01:43:46.000Z</time>
      </trkpt>
      <trkpt lat="45.05327" lon="0.76759">
        <ele>127.9</ele>
        <time>1970-01-01T01:43:47.000Z</time>
      </trkpt>
      <trkpt lat="45.05331" lon="0.76757">
        <ele>127.9</ele>
        <time>1970-01-01T01:43:48.000Z</time>
      </trkpt>
      <trkpt lat="45.05335" lon="0.76754">
        <ele>127.9</ele>
        <time>1970-01-01T01:43:49.000Z</time>
      </trkpt>
      <trkpt lat="45.0534" lon="0.76752">
        <ele>127.9</ele>
        <time>1970-01-01T01:43:50.000Z</time>
      </trkpt>
      <trkpt lat="45.05344" lon="0.7675">
        <ele>127.9</ele>
        <time>1970-01-01T01:43:51.000Z</time>
      </trkpt>
      <trkpt lat="45.05348" lon="0.76748">
        <ele>127.9</ele>
        <time>1970-01-01T01:43:52.000Z</time>
      </trkpt>
      <trkpt lat="45.05351" lon="0.76746">
        <ele>128.8</ele>
        <time>1970-01-01T01:43:53.000Z</time>
      </trkpt>
      <trkpt lat="45.05357" lon="0.76743">
        <ele>128.8</ele>
        <time>1970-01-01T01:43:54.000Z</time>
      </trkpt>
      <trkpt lat="45.05361" lon="0.7674">
        <ele>128.8</ele>
        <time>1970-01-01T01:43:55.000Z</time>
      </trkpt>
      <trkpt lat="45.05365" lon="0.76738">
        <ele>128.8</ele>
        <time>1970-01-01T01:43:56.000Z</time>
      </trkpt>
      <trkpt lat="45.05369" lon="0.76736">
        <ele>128.8</ele>
        <time>1970-01-01T01:43:57.000Z</time>
      </trkpt>
      <trkpt lat="45.05373" lon="0.76733">
        <ele>128.8</ele>
        <time>1970-01-01T01:43:58.000Z</time>
      </trkpt>
      <trkpt lat="45.05376" lon="0.76731">
        <ele>128.8</ele>
        <time>1970-01-01T01:43:59.000Z</time>
      </trkpt>
      <trkpt lat="45.05379" lon="0.76728">
        <ele>128.8</ele>
        <time>1970-01-01T01:44:00.000Z</time>
      </trkpt>
      <trkpt lat="45.05383" lon="0.76724">
        <ele>128.8</ele>
        <time>1970-01-01T01:44:01.000Z</time>
      </trkpt>
      <trkpt lat="45.05386" lon="0.76721">
        <ele>128.8</ele>
        <time>1970-01-01T01:44:02.000Z</time>
      </trkpt>
      <trkpt lat="45.05389" lon="0.76718">
        <ele>128.8</ele>
        <time>1970-01-01T01:44:03.000Z</time>
      </trkpt>
      <trkpt lat="45.05392" lon="0.76715">
        <ele>128.8</ele>
        <time>1970-01-01T01:44:04.000Z</time>
      </trkpt>
      <trkpt lat="45.05396" lon="0.7671">
        <ele>128.8</ele>
        <time>1970-01-01T01:44:05.000Z</time>
      </trkpt>
      <trkpt lat="45.054" lon="0.76707">
        <ele>128.8</ele>
        <time>1970-01-01T01:44:06.000Z</time>
      </trkpt>
      <trkpt lat="45.05402" lon="0.76704">
        <ele>128.8</ele>
        <time>1970-01-01T01:44:07.000Z</time>
      </trkpt>
      <trkpt lat="45.05406" lon="0.767">
        <ele>128.8</ele>
        <time>1970-01-01T01:44:08.000Z</time>
      </trkpt>
      <trkpt lat="45.0541" lon="0.76696">
        <ele>128.8</ele>
        <time>1970-01-01T01:44:09.000Z</time>
      </trkpt>
      <trkpt lat="45.05414" lon="0.76693">
        <ele>128.8</ele>
        <time>1970-01-01T01:44:10.000Z</time>
      </trkpt>
      <trkpt lat="45.05417" lon="0.7669">
        <ele>128.8</ele>
        <time>1970-01-01T01:44:11.000Z</time>
      </trkpt>
      <trkpt lat="45.0542" lon="0.76686">
        <ele>128.8</ele>
        <time>1970-01-01T01:44:12.000Z</time>
      </trkpt>
      <trkpt lat="45.05424" lon="0.76683">
        <ele>129.8</ele>
        <time>1970-01-01T01:44:13.000Z</time>
      </trkpt>
      <trkpt lat="45.05428" lon="0.76679">
        <ele>129.8</ele>
        <time>1970-01-01T01:44:14.000Z</time>
      </trkpt>
      <trkpt lat="45.05431" lon="0.76676">
        <ele>129.8</ele>
        <time>1970-01-01T01:44:15.000Z</time>
      </trkpt>
      <trkpt lat="45.05434" lon="0.76672">
        <ele>129.8</ele>
        <time>1970-01-01T01:44:16.000Z</time>
      </trkpt>
      <trkpt lat="45.05437" lon="0.76669">
        <ele>129.8</ele>
        <time>1970-01-01T01:44:17.000Z</time>
      </trkpt>
      <trkpt lat="45.05439" lon="0.76665">
        <ele>129.8</ele>
        <time>1970-01-01T01:44:18.000Z</time>
      </trkpt>
      <trkpt lat="45.05439" lon="0.7666">
        <ele>129.8</ele>
        <time>1970-01-01T01:44:19.000Z</time>
      </trkpt>
      <trkpt lat="45.05439" lon="0.76656">
        <ele>129.8</ele>
        <time>1970-01-01T01:44:20.000Z</time>
      </trkpt>
      <trkpt lat="45.05437" lon="0.76652">
        <ele>129.8</ele>
        <time>1970-01-01T01:44:21.000Z</time>
      </trkpt>
      <trkpt lat="45.05435" lon="0.76649">
        <ele>129.8</ele>
        <time>1970-01-01T01:44:22.000Z</time>
      </trkpt>
      <trkpt lat="45.05433" lon="0.76645">
        <ele>129.8</ele>
        <time>1970-01-01T01:44:23.000Z</time>
      </trkpt>
      <trkpt lat="45.0543" lon="0.76641">
        <ele>129.8</ele>
        <time>1970-01-01T01:44:24.000Z</time>
      </trkpt>
      <trkpt lat="45.05427" lon="0.76637">
        <ele>129.8</ele>
        <time>1970-01-01T01:44:25.000Z</time>
      </trkpt>
      <trkpt lat="45.05424" lon="0.76633">
        <ele>129.8</ele>
        <time>1970-01-01T01:44:26.000Z</time>
      </trkpt>
      <trkpt lat="45.05421" lon="0.76629">
        <ele>129.8</ele>
        <time>1970-01-01T01:44:27.000Z</time>
      </trkpt>
      <trkpt lat="45.05419" lon="0.76625">
        <ele>129.8</ele>
        <time>1970-01-01T01:44:28.000Z</time>
      </trkpt>
      <trkpt lat="45.05416" lon="0.76621">
        <ele>129.8</ele>
        <time>1970-01-01T01:44:29.000Z</time>
      </trkpt>
      <trkpt lat="45.05414" lon="0.76617">
        <ele>129.8</ele>
        <time>1970-01-01T01:44:30.000Z</time>
      </trkpt>
      <trkpt lat="45.05412" lon="0.76615">
        <ele>130.8</ele>
        <time>1970-01-01T01:44:31.000Z</time>
      </trkpt>
      <trkpt lat="45.0541" lon="0.76611">
        <ele>130.8</ele>
        <time>1970-01-01T01:44:32.000Z</time>
      </trkpt>
      <trkpt lat="45.05408" lon="0.76609">
        <ele>131.8</ele>
        <time>1970-01-01T01:44:33.000Z</time>
      </trkpt>
      <trkpt lat="45.05406" lon="0.76606">
        <ele>131.8</ele>
        <time>1970-01-01T01:44:34.000Z</time>
      </trkpt>
      <trkpt lat="45.05404" lon="0.76603">
        <ele>131.8</ele>
        <time>1970-01-01T01:44:35.000Z</time>
      </trkpt>
      <trkpt lat="45.05403" lon="0.76601">
        <ele>131.8</ele>
        <time>1970-01-01T01:44:36.000Z</time>
      </trkpt>
      <trkpt lat="45.05401" lon="0.76599">
        <ele>131.8</ele>
        <time>1970-01-01T01:44:37.000Z</time>
      </trkpt>
      <trkpt lat="45.05399" lon="0.76597">
        <ele>131.8</ele>
        <time>1970-01-01T01:44:38.000Z</time>
      </trkpt>
      <trkpt lat="45.05397" lon="0.76594">
        <ele>132.9</ele>
        <time>1970-01-01T01:44:39.000Z</time>
      </trkpt>
      <trkpt lat="45.05395" lon="0.76592">
        <ele>132.9</ele>
        <time>1970-01-01T01:44:40.000Z</time>
      </trkpt>
      <trkpt lat="45.05393" lon="0.7659">
        <ele>133.8</ele>
        <time>1970-01-01T01:44:41.000Z</time>
      </trkpt>
      <trkpt lat="45.05391" lon="0.76587">
        <ele>133.8</ele>
        <time>1970-01-01T01:44:42.000Z</time>
      </trkpt>
      <trkpt lat="45.05389" lon="0.76585">
        <ele>133.8</ele>
        <time>1970-01-01T01:44:43.000Z</time>
      </trkpt>
      <trkpt lat="45.05388" lon="0.76583">
        <ele>133.8</ele>
        <time>1970-01-01T01:44:44.000Z</time>
      </trkpt>
      <trkpt lat="45.05386" lon="0.76581">
        <ele>134.9</ele>
        <time>1970-01-01T01:44:45.000Z</time>
      </trkpt>
      <trkpt lat="45.05384" lon="0.76578">
        <ele>134.9</ele>
        <time>1970-01-01T01:44:46.000Z</time>
      </trkpt>
      <trkpt lat="45.05382" lon="0.76576">
        <ele>134.9</ele>
        <time>1970-01-01T01:44:47.000Z</time>
      </trkpt>
      <trkpt lat="45.0538" lon="0.76574">
        <ele>134.9</ele>
        <time>1970-01-01T01:44:48.000Z</time>
      </trkpt>
      <trkpt lat="45.05378" lon="0.76572">
        <ele>134.9</ele>
        <time>1970-01-01T01:44:49.000Z</time>
      </trkpt>
      <trkpt lat="45.05376" lon="0.7657">
        <ele>134.9</ele>
        <time>1970-01-01T01:44:50.000Z</time>
      </trkpt>
      <trkpt lat="45.05374" lon="0.76568">
        <ele>134.9</ele>
        <time>1970-01-01T01:44:51.000Z</time>
      </trkpt>
      <trkpt lat="45.05373" lon="0.76566">
        <ele>134.9</ele>
        <time>1970-01-01T01:44:52.000Z</time>
      </trkpt>
      <trkpt lat="45.05371" lon="0.76564">
        <ele>135.8</ele>
        <time>1970-01-01T01:44:53.000Z</time>
      </trkpt>
      <trkpt lat="45.05369" lon="0.76561">
        <ele>135.8</ele>
        <time>1970-01-01T01:44:54.000Z</time>
      </trkpt>
      <trkpt lat="45.05367" lon="0.76559">
        <ele>135.8</ele>
        <time>1970-01-01T01:44:55.000Z</time>
      </trkpt>
      <trkpt lat="45.05366" lon="0.76556">
        <ele>135.8</ele>
        <time>1970-01-01T01:44:56.000Z</time>
      </trkpt>
      <trkpt lat="45.05364" lon="0.76554">
        <ele>136.9</ele>
        <time>1970-01-01T01:44:57.000Z</time>
      </trkpt>
      <trkpt lat="45.05362" lon="0.76551">
        <ele>136.9</ele>
        <time>1970-01-01T01:44:58.000Z</time>
      </trkpt>
      <trkpt lat="45.05361" lon="0.76548">
        <ele>135.8</ele>
        <time>1970-01-01T01:44:59.000Z</time>
      </trkpt>
      <trkpt lat="45.0536" lon="0.76546">
        <ele>135.8</ele>
        <time>1970-01-01T01:45:00.000Z</time>
      </trkpt>
      <trkpt lat="45.05359" lon="0.76543">
        <ele>135.8</ele>
        <time>1970-01-01T01:45:01.000Z</time>
      </trkpt>
      <trkpt lat="45.05359" lon="0.7654">
        <ele>135.8</ele>
        <time>1970-01-01T01:45:02.000Z</time>
      </trkpt>
      <trkpt lat="45.05359" lon="0.76537">
        <ele>136.9</ele>
        <time>1970-01-01T01:45:03.000Z</time>
      </trkpt>
      <trkpt lat="45.05359" lon="0.76534">
        <ele>136.9</ele>
        <time>1970-01-01T01:45:04.000Z</time>
      </trkpt>
      <trkpt lat="45.0536" lon="0.76532">
        <ele>136.9</ele>
        <time>1970-01-01T01:45:05.000Z</time>
      </trkpt>
      <trkpt lat="45.05361" lon="0.7653">
        <ele>136.9</ele>
        <time>1970-01-01T01:45:06.000Z</time>
      </trkpt>
      <trkpt lat="45.05363" lon="0.76527">
        <ele>136.9</ele>
        <time>1970-01-01T01:45:07.000Z</time>
      </trkpt>
      <trkpt lat="45.05364" lon="0.76526">
        <ele>136.9</ele>
        <time>1970-01-01T01:45:08.000Z</time>
      </trkpt>
      <trkpt lat="45.05365" lon="0.76524">
        <ele>136.9</ele>
        <time>1970-01-01T01:45:09.000Z</time>
      </trkpt>
      <trkpt lat="45.05367" lon="0.76523">
        <ele>136.9</ele>
        <time>1970-01-01T01:45:10.000Z</time>
      </trkpt>
      <trkpt lat="45.05368" lon="0.76521">
        <ele>139.9</ele>
        <time>1970-01-01T01:45:11.000Z</time>
      </trkpt>
      <trkpt lat="45.0537" lon="0.7652">
        <ele>139.9</ele>
        <time>1970-01-01T01:45:12.000Z</time>
      </trkpt>
      <trkpt lat="45.05371" lon="0.76518">
        <ele>139.9</ele>
        <time>1970-01-01T01:45:13.000Z</time>
      </trkpt>
      <trkpt lat="45.05373" lon="0.76518">
        <ele>139.9</ele>
        <time>1970-01-01T01:45:14.000Z</time>
      </trkpt>
      <trkpt lat="45.05374" lon="0.76517">
        <ele>140.8</ele>
        <time>1970-01-01T01:45:15.000Z</time>
      </trkpt>
      <trkpt lat="45.05376" lon="0.76516">
        <ele>140.8</ele>
        <time>1970-01-01T01:45:16.000Z</time>
      </trkpt>
      <trkpt lat="45.05377" lon="0.76515">
        <ele>140.8</ele>
        <time>1970-01-01T01:45:17.000Z</time>
      </trkpt>
      <trkpt lat="45.05379" lon="0.76514">
        <ele>140.8</ele>
        <time>1970-01-01T01:45:18.000Z</time>
      </trkpt>
      <trkpt lat="45.0538" lon="0.76514">
        <ele>141.9</ele>
        <time>1970-01-01T01:45:19.000Z</time>
      </trkpt>
      <trkpt lat="45.05381" lon="0.76513">
        <ele>141.9</ele>
        <time>1970-01-01T01:45:20.000Z</time>
      </trkpt>
      <trkpt lat="45.05383" lon="0.76512">
        <ele>142.8</ele>
        <time>1970-01-01T01:45:21.000Z</time>
      </trkpt>
      <trkpt lat="45.05385" lon="0.76511">
        <ele>142.8</ele>
        <time>1970-01-01T01:45:22.000Z</time>
      </trkpt>
      <trkpt lat="45.05386" lon="0.7651">
        <ele>142.8</ele>
        <time>1970-01-01T01:45:23.000Z</time>
      </trkpt>
      <trkpt lat="45.05388" lon="0.76509">
        <ele>142.8</ele>
        <time>1970-01-01T01:45:24.000Z</time>
      </trkpt>
      <trkpt lat="45.05389" lon="0.76508">
        <ele>143.9</ele>
        <time>1970-01-01T01:45:25.000Z</time>
      </trkpt>
      <trkpt lat="45.0539" lon="0.76506">
        <ele>143.9</ele>
        <time>1970-01-01T01:45:26.000Z</time>
      </trkpt>
      <trkpt lat="45.05392" lon="0.76505">
        <ele>143.9</ele>
        <time>1970-01-01T01:45:27.000Z</time>
      </trkpt>
      <trkpt lat="45.05393" lon="0.76504">
        <ele>143.9</ele>
        <time>1970-01-01T01:45:28.000Z</time>
      </trkpt>
      <trkpt lat="45.05394" lon="0.76503">
        <ele>143.9</ele>
        <time>1970-01-01T01:45:29.000Z</time>
      </trkpt>
      <trkpt lat="45.05396" lon="0.76502">
        <ele>143.9</ele>
        <time>1970-01-01T01:45:30.000Z</time>
      </trkpt>
      <trkpt lat="45.05397" lon="0.76501">
        <ele>143.9</ele>
        <time>1970-01-01T01:45:31.000Z</time>
      </trkpt>
      <trkpt lat="45.05398" lon="0.765">
        <ele>143.9</ele>
        <time>1970-01-01T01:45:32.000Z</time>
      </trkpt>
      <trkpt lat="45.054" lon="0.76499">
        <ele>144.8</ele>
        <time>1970-01-01T01:45:33.000Z</time>
      </trkpt>
      <trkpt lat="45.05401" lon="0.76499">
        <ele>144.8</ele>
        <time>1970-01-01T01:45:34.000Z</time>
      </trkpt>
      <trkpt lat="45.05402" lon="0.76498">
        <ele>144.8</ele>
        <time>1970-01-01T01:45:35.000Z</time>
      </trkpt>
      <trkpt lat="45.05404" lon="0.76497">
        <ele>144.8</ele>
        <time>1970-01-01T01:45:36.000Z</time>
      </trkpt>
      <trkpt lat="45.05405" lon="0.76496">
        <ele>145.8</ele>
        <time>1970-01-01T01:45:37.000Z</time>
      </trkpt>
      <trkpt lat="45.05407" lon="0.76495">
        <ele>145.8</ele>
        <time>1970-01-01T01:45:38.000Z</time>
      </trkpt>
      <trkpt lat="45.05408" lon="0.76494">
        <ele>146.8</ele>
        <time>1970-01-01T01:45:39.000Z</time>
      </trkpt>
      <trkpt lat="45.0541" lon="0.76492">
        <ele>146.8</ele>
        <time>1970-01-01T01:45:40.000Z</time>
      </trkpt>
      <trkpt lat="45.05411" lon="0.76491">
        <ele>146.8</ele>
        <time>1970-01-01T01:45:41.000Z</time>
      </trkpt>
      <trkpt lat="45.05414" lon="0.7649">
        <ele>146.8</ele>
        <time>1970-01-01T01:45:42.000Z</time>
      </trkpt>
      <trkpt lat="45.05415" lon="0.76489">
        <ele>146.8</ele>
        <time>1970-01-01T01:45:43.000Z</time>
      </trkpt>
      <trkpt lat="45.05417" lon="0.76487">
        <ele>146.8</ele>
        <time>1970-01-01T01:45:44.000Z</time>
      </trkpt>
      <trkpt lat="45.05419" lon="0.76486">
        <ele>146.8</ele>
        <time>1970-01-01T01:45:45.000Z</time>
      </trkpt>
      <trkpt lat="45.0542" lon="0.76485">
        <ele>146.8</ele>
        <time>1970-01-01T01:45:46.000Z</time>
      </trkpt>
      <trkpt lat="45.05422" lon="0.76484">
        <ele>147.8</ele>
        <time>1970-01-01T01:45:47.000Z</time>
      </trkpt>
      <trkpt lat="45.05423" lon="0.76483">
        <ele>147.8</ele>
        <time>1970-01-01T01:45:48.000Z</time>
      </trkpt>
      <trkpt lat="45.05425" lon="0.76481">
        <ele>147.8</ele>
        <time>1970-01-01T01:45:49.000Z</time>
      </trkpt>
      <trkpt lat="45.05427" lon="0.7648">
        <ele>147.8</ele>
        <time>1970-01-01T01:45:50.000Z</time>
      </trkpt>
      <trkpt lat="45.05429" lon="0.7648">
        <ele>147.8</ele>
        <time>1970-01-01T01:45:51.000Z</time>
      </trkpt>
      <trkpt lat="45.05431" lon="0.76479">
        <ele>147.8</ele>
        <time>1970-01-01T01:45:52.000Z</time>
      </trkpt>
      <trkpt lat="45.05432" lon="0.76478">
        <ele>149.8</ele>
        <time>1970-01-01T01:45:53.000Z</time>
      </trkpt>
      <trkpt lat="45.05434" lon="0.76476">
        <ele>149.8</ele>
        <time>1970-01-01T01:45:54.000Z</time>
      </trkpt>
      <trkpt lat="45.05436" lon="0.76475">
        <ele>149.8</ele>
        <time>1970-01-01T01:45:55.000Z</time>
      </trkpt>
      <trkpt lat="45.05437" lon="0.76474">
        <ele>149.8</ele>
        <time>1970-01-01T01:45:56.000Z</time>
      </trkpt>
      <trkpt lat="45.05439" lon="0.76473">
        <ele>149.8</ele>
        <time>1970-01-01T01:45:57.000Z</time>
      </trkpt>
      <trkpt lat="45.05441" lon="0.76472">
        <ele>149.8</ele>
        <time>1970-01-01T01:45:58.000Z</time>
      </trkpt>
      <trkpt lat="45.05444" lon="0.76471">
        <ele>149.8</ele>
        <time>1970-01-01T01:45:59.000Z</time>
      </trkpt>
      <trkpt lat="45.05447" lon="0.7647">
        <ele>149.8</ele>
        <time>1970-01-01T01:46:00.000Z</time>
      </trkpt>
      <trkpt lat="45.05449" lon="0.76468">
        <ele>149.8</ele>
        <time>1970-01-01T01:46:01.000Z</time>
      </trkpt>
      <trkpt lat="45.05451" lon="0.76467">
        <ele>149.8</ele>
        <time>1970-01-01T01:46:02.000Z</time>
      </trkpt>
      <trkpt lat="45.05454" lon="0.76465">
        <ele>149.8</ele>
        <time>1970-01-01T01:46:03.000Z</time>
      </trkpt>
      <trkpt lat="45.05456" lon="0.76464">
        <ele>149.8</ele>
        <time>1970-01-01T01:46:04.000Z</time>
      </trkpt>
      <trkpt lat="45.05459" lon="0.76462">
        <ele>149.8</ele>
        <time>1970-01-01T01:46:05.000Z</time>
      </trkpt>
      <trkpt lat="45.05462" lon="0.7646">
        <ele>149.8</ele>
        <time>1970-01-01T01:46:06.000Z</time>
      </trkpt>
      <trkpt lat="45.05465" lon="0.76457">
        <ele>149.8</ele>
        <time>1970-01-01T01:46:07.000Z</time>
      </trkpt>
      <trkpt lat="45.05468" lon="0.76455">
        <ele>149.8</ele>
        <time>1970-01-01T01:46:08.000Z</time>
      </trkpt>
      <trkpt lat="45.05472" lon="0.76453">
        <ele>149.8</ele>
        <time>1970-01-01T01:46:09.000Z</time>
      </trkpt>
      <trkpt lat="45.05475" lon="0.7645">
        <ele>149.8</ele>
        <time>1970-01-01T01:46:10.000Z</time>
      </trkpt>
      <trkpt lat="45.05478" lon="0.76448">
        <ele>148.9</ele>
        <time>1970-01-01T01:46:11.000Z</time>
      </trkpt>
      <trkpt lat="45.05481" lon="0.76446">
        <ele>148.9</ele>
        <time>1970-01-01T01:46:12.000Z</time>
      </trkpt>
      <trkpt lat="45.05484" lon="0.76444">
        <ele>148.9</ele>
        <time>1970-01-01T01:46:13.000Z</time>
      </trkpt>
      <trkpt lat="45.05486" lon="0.76442">
        <ele>148.9</ele>
        <time>1970-01-01T01:46:14.000Z</time>
      </trkpt>
      <trkpt lat="45.0549" lon="0.76439">
        <ele>147.8</ele>
        <time>1970-01-01T01:46:15.000Z</time>
      </trkpt>
      <trkpt lat="45.05494" lon="0.76436">
        <ele>147.8</ele>
        <time>1970-01-01T01:46:16.000Z</time>
      </trkpt>
      <trkpt lat="45.05498" lon="0.76433">
        <ele>147.8</ele>
        <time>1970-01-01T01:46:17.000Z</time>
      </trkpt>
      <trkpt lat="45.05503" lon="0.7643">
        <ele>147.8</ele>
        <time>1970-01-01T01:46:18.000Z</time>
      </trkpt>
      <trkpt lat="45.05508" lon="0.76426">
        <ele>147.8</ele>
        <time>1970-01-01T01:46:19.000Z</time>
      </trkpt>
      <trkpt lat="45.05513" lon="0.76423">
        <ele>147.8</ele>
        <time>1970-01-01T01:46:20.000Z</time>
      </trkpt>
      <trkpt lat="45.05519" lon="0.76419">
        <ele>147.8</ele>
        <time>1970-01-01T01:46:21.000Z</time>
      </trkpt>
      <trkpt lat="45.05525" lon="0.76415">
        <ele>147.8</ele>
        <time>1970-01-01T01:46:22.000Z</time>
      </trkpt>
      <trkpt lat="45.05531" lon="0.7641">
        <ele>143.9</ele>
        <time>1970-01-01T01:46:23.000Z</time>
      </trkpt>
      <trkpt lat="45.05537" lon="0.76406">
        <ele>143.9</ele>
        <time>1970-01-01T01:46:24.000Z</time>
      </trkpt>
      <trkpt lat="45.05544" lon="0.76401">
        <ele>143.9</ele>
        <time>1970-01-01T01:46:25.000Z</time>
      </trkpt>
      <trkpt lat="45.0555" lon="0.76397">
        <ele>143.9</ele>
        <time>1970-01-01T01:46:26.000Z</time>
      </trkpt>
      <trkpt lat="45.05557" lon="0.76393">
        <ele>143.9</ele>
        <time>1970-01-01T01:46:27.000Z</time>
      </trkpt>
      <trkpt lat="45.05564" lon="0.76389">
        <ele>142.8</ele>
        <time>1970-01-01T01:46:28.000Z</time>
      </trkpt>
      <trkpt lat="45.0557" lon="0.76385">
        <ele>142.8</ele>
        <time>1970-01-01T01:46:29.000Z</time>
      </trkpt>
      <trkpt lat="45.05576" lon="0.76382">
        <ele>142.8</ele>
        <time>1970-01-01T01:46:30.000Z</time>
      </trkpt>
      <trkpt lat="45.05581" lon="0.76379">
        <ele>142.8</ele>
        <time>1970-01-01T01:46:31.000Z</time>
      </trkpt>
      <trkpt lat="45.05587" lon="0.76376">
        <ele>143.9</ele>
        <time>1970-01-01T01:46:32.000Z</time>
      </trkpt>
      <trkpt lat="45.05592" lon="0.76373">
        <ele>143.9</ele>
        <time>1970-01-01T01:46:33.000Z</time>
      </trkpt>
      <trkpt lat="45.05596" lon="0.7637">
        <ele>143.9</ele>
        <time>1970-01-01T01:46:34.000Z</time>
      </trkpt>
      <trkpt lat="45.056" lon="0.76367">
        <ele>143.9</ele>
        <time>1970-01-01T01:46:35.000Z</time>
      </trkpt>
      <trkpt lat="45.05605" lon="0.76364">
        <ele>143.9</ele>
        <time>1970-01-01T01:46:36.000Z</time>
      </trkpt>
      <trkpt lat="45.05609" lon="0.76361">
        <ele>143.9</ele>
        <time>1970-01-01T01:46:37.000Z</time>
      </trkpt>
      <trkpt lat="45.05613" lon="0.76359">
        <ele>143.9</ele>
        <time>1970-01-01T01:46:38.000Z</time>
      </trkpt>
      <trkpt lat="45.05617" lon="0.76356">
        <ele>143.9</ele>
        <time>1970-01-01T01:46:39.000Z</time>
      </trkpt>
      <trkpt lat="45.05619" lon="0.76354">
        <ele>143.9</ele>
        <time>1970-01-01T01:46:40.000Z</time>
      </trkpt>
      <trkpt lat="45.05622" lon="0.76352">
        <ele>143.9</ele>
        <time>1970-01-01T01:46:41.000Z</time>
      </trkpt>
      <trkpt lat="45.05626" lon="0.7635">
        <ele>143.9</ele>
        <time>1970-01-01T01:46:42.000Z</time>
      </trkpt>
      <trkpt lat="45.05629" lon="0.76348">
        <ele>143.9</ele>
        <time>1970-01-01T01:46:43.000Z</time>
      </trkpt>
      <trkpt lat="45.05632" lon="0.76347">
        <ele>143.9</ele>
        <time>1970-01-01T01:46:44.000Z</time>
      </trkpt>
      <trkpt lat="45.05635" lon="0.76345">
        <ele>143.9</ele>
        <time>1970-01-01T01:46:45.000Z</time>
      </trkpt>
      <trkpt lat="45.05638" lon="0.76344">
        <ele>144.8</ele>
        <time>1970-01-01T01:46:46.000Z</time>
      </trkpt>
      <trkpt lat="45.05641" lon="0.76342">
        <ele>144.8</ele>
        <time>1970-01-01T01:46:47.000Z</time>
      </trkpt>
      <trkpt lat="45.05643" lon="0.76341">
        <ele>144.8</ele>
        <time>1970-01-01T01:46:48.000Z</time>
      </trkpt>
      <trkpt lat="45.05645" lon="0.7634">
        <ele>144.8</ele>
        <time>1970-01-01T01:46:49.000Z</time>
      </trkpt>
      <trkpt lat="45.05647" lon="0.76338">
        <ele>145.8</ele>
        <time>1970-01-01T01:46:50.000Z</time>
      </trkpt>
      <trkpt lat="45.0565" lon="0.76337">
        <ele>145.8</ele>
        <time>1970-01-01T01:46:51.000Z</time>
      </trkpt>
      <trkpt lat="45.05652" lon="0.76335">
        <ele>146.8</ele>
        <time>1970-01-01T01:46:52.000Z</time>
      </trkpt>
      <trkpt lat="45.05654" lon="0.76334">
        <ele>146.8</ele>
        <time>1970-01-01T01:46:53.000Z</time>
      </trkpt>
      <trkpt lat="45.05656" lon="0.76332">
        <ele>146.8</ele>
        <time>1970-01-01T01:46:54.000Z</time>
      </trkpt>
      <trkpt lat="45.05659" lon="0.76331">
        <ele>146.8</ele>
        <time>1970-01-01T01:46:55.000Z</time>
      </trkpt>
      <trkpt lat="45.05662" lon="0.76329">
        <ele>146.8</ele>
        <time>1970-01-01T01:46:56.000Z</time>
      </trkpt>
      <trkpt lat="45.05664" lon="0.76327">
        <ele>146.8</ele>
        <time>1970-01-01T01:46:57.000Z</time>
      </trkpt>
      <trkpt lat="45.05666" lon="0.76326">
        <ele>146.8</ele>
        <time>1970-01-01T01:46:58.000Z</time>
      </trkpt>
      <trkpt lat="45.05669" lon="0.76325">
        <ele>146.8</ele>
        <time>1970-01-01T01:46:59.000Z</time>
      </trkpt>
      <trkpt lat="45.05672" lon="0.76323">
        <ele>148.9</ele>
        <time>1970-01-01T01:47:00.000Z</time>
      </trkpt>
      <trkpt lat="45.05674" lon="0.76322">
        <ele>148.9</ele>
        <time>1970-01-01T01:47:01.000Z</time>
      </trkpt>
      <trkpt lat="45.05677" lon="0.7632">
        <ele>149.8</ele>
        <time>1970-01-01T01:47:02.000Z</time>
      </trkpt>
      <trkpt lat="45.05679" lon="0.76319">
        <ele>149.8</ele>
        <time>1970-01-01T01:47:03.000Z</time>
      </trkpt>
      <trkpt lat="45.05682" lon="0.76317">
        <ele>149.8</ele>
        <time>1970-01-01T01:47:04.000Z</time>
      </trkpt>
      <trkpt lat="45.05684" lon="0.76316">
        <ele>149.8</ele>
        <time>1970-01-01T01:47:05.000Z</time>
      </trkpt>
      <trkpt lat="45.05688" lon="0.76314">
        <ele>149.8</ele>
        <time>1970-01-01T01:47:06.000Z</time>
      </trkpt>
      <trkpt lat="45.0569" lon="0.76313">
        <ele>149.8</ele>
        <time>1970-01-01T01:47:07.000Z</time>
      </trkpt>
      <trkpt lat="45.05694" lon="0.76311">
        <ele>149.8</ele>
        <time>1970-01-01T01:47:08.000Z</time>
      </trkpt>
      <trkpt lat="45.05697" lon="0.76309">
        <ele>149.8</ele>
        <time>1970-01-01T01:47:09.000Z</time>
      </trkpt>
      <trkpt lat="45.05699" lon="0.76308">
        <ele>150.9</ele>
        <time>1970-01-01T01:47:10.000Z</time>
      </trkpt>
      <trkpt lat="45.05702" lon="0.76306">
        <ele>150.9</ele>
        <time>1970-01-01T01:47:11.000Z</time>
      </trkpt>
      <trkpt lat="45.05704" lon="0.76305">
        <ele>150.9</ele>
        <time>1970-01-01T01:47:12.000Z</time>
      </trkpt>
      <trkpt lat="45.05706" lon="0.76303">
        <ele>150.9</ele>
        <time>1970-01-01T01:47:13.000Z</time>
      </trkpt>
      <trkpt lat="45.05708" lon="0.76302">
        <ele>150.9</ele>
        <time>1970-01-01T01:47:14.000Z</time>
      </trkpt>
      <trkpt lat="45.0571" lon="0.763">
        <ele>150.9</ele>
        <time>1970-01-01T01:47:15.000Z</time>
      </trkpt>
      <trkpt lat="45.05713" lon="0.76298">
        <ele>151.8</ele>
        <time>1970-01-01T01:47:16.000Z</time>
      </trkpt>
      <trkpt lat="45.05716" lon="0.76297">
        <ele>151.8</ele>
        <time>1970-01-01T01:47:17.000Z</time>
      </trkpt>
      <trkpt lat="45.05718" lon="0.76294">
        <ele>151.8</ele>
        <time>1970-01-01T01:47:18.000Z</time>
      </trkpt>
      <trkpt lat="45.05721" lon="0.76293">
        <ele>151.8</ele>
        <time>1970-01-01T01:47:19.000Z</time>
      </trkpt>
      <trkpt lat="45.05722" lon="0.76291">
        <ele>151.8</ele>
        <time>1970-01-01T01:47:20.000Z</time>
      </trkpt>
      <trkpt lat="45.05724" lon="0.7629">
        <ele>151.8</ele>
        <time>1970-01-01T01:47:21.000Z</time>
      </trkpt>
      <trkpt lat="45.05726" lon="0.76288">
        <ele>152.9</ele>
        <time>1970-01-01T01:47:22.000Z</time>
      </trkpt>
      <trkpt lat="45.05729" lon="0.76287">
        <ele>152.9</ele>
        <time>1970-01-01T01:47:23.000Z</time>
      </trkpt>
      <trkpt lat="45.05731" lon="0.76286">
        <ele>152.9</ele>
        <time>1970-01-01T01:47:24.000Z</time>
      </trkpt>
      <trkpt lat="45.05733" lon="0.76284">
        <ele>152.9</ele>
        <time>1970-01-01T01:47:25.000Z</time>
      </trkpt>
      <trkpt lat="45.05735" lon="0.76283">
        <ele>152.9</ele>
        <time>1970-01-01T01:47:26.000Z</time>
      </trkpt>
      <trkpt lat="45.05737" lon="0.76282">
        <ele>152.9</ele>
        <time>1970-01-01T01:47:27.000Z</time>
      </trkpt>
      <trkpt lat="45.05739" lon="0.76281">
        <ele>152.9</ele>
        <time>1970-01-01T01:47:28.000Z</time>
      </trkpt>
      <trkpt lat="45.05741" lon="0.76279">
        <ele>152.9</ele>
        <time>1970-01-01T01:47:29.000Z</time>
      </trkpt>
      <trkpt lat="45.05742" lon="0.76279">
        <ele>155.9</ele>
        <time>1970-01-01T01:47:30.000Z</time>
      </trkpt>
      <trkpt lat="45.05743" lon="0.76278">
        <ele>155.9</ele>
        <time>1970-01-01T01:47:31.000Z</time>
      </trkpt>
      <trkpt lat="45.05745" lon="0.76277">
        <ele>155.9</ele>
        <time>1970-01-01T01:47:32.000Z</time>
      </trkpt>
      <trkpt lat="45.05747" lon="0.76276">
        <ele>155.9</ele>
        <time>1970-01-01T01:47:33.000Z</time>
      </trkpt>
      <trkpt lat="45.05749" lon="0.76275">
        <ele>156.8</ele>
        <time>1970-01-01T01:47:34.000Z</time>
      </trkpt>
      <trkpt lat="45.05751" lon="0.76274">
        <ele>156.8</ele>
        <time>1970-01-01T01:47:35.000Z</time>
      </trkpt>
      <trkpt lat="45.05753" lon="0.76273">
        <ele>157.9</ele>
        <time>1970-01-01T01:47:36.000Z</time>
      </trkpt>
      <trkpt lat="45.05755" lon="0.76271">
        <ele>157.9</ele>
        <time>1970-01-01T01:47:37.000Z</time>
      </trkpt>
      <trkpt lat="45.05757" lon="0.7627">
        <ele>157.9</ele>
        <time>1970-01-01T01:47:38.000Z</time>
      </trkpt>
      <trkpt lat="45.05759" lon="0.76269">
        <ele>157.9</ele>
        <time>1970-01-01T01:47:39.000Z</time>
      </trkpt>
      <trkpt lat="45.05761" lon="0.76268">
        <ele>157.9</ele>
        <time>1970-01-01T01:47:40.000Z</time>
      </trkpt>
      <trkpt lat="45.05763" lon="0.76266">
        <ele>157.9</ele>
        <time>1970-01-01T01:47:41.000Z</time>
      </trkpt>
      <trkpt lat="45.05765" lon="0.76264">
        <ele>157.9</ele>
        <time>1970-01-01T01:47:42.000Z</time>
      </trkpt>
      <trkpt lat="45.05767" lon="0.76263">
        <ele>157.9</ele>
        <time>1970-01-01T01:47:43.000Z</time>
      </trkpt>
      <trkpt lat="45.0577" lon="0.76261">
        <ele>157.9</ele>
        <time>1970-01-01T01:47:44.000Z</time>
      </trkpt>
      <trkpt lat="45.05772" lon="0.7626">
        <ele>157.9</ele>
        <time>1970-01-01T01:47:45.000Z</time>
      </trkpt>
      <trkpt lat="45.05774" lon="0.76258">
        <ele>159.9</ele>
        <time>1970-01-01T01:47:46.000Z</time>
      </trkpt>
      <trkpt lat="45.05776" lon="0.76257">
        <ele>159.9</ele>
        <time>1970-01-01T01:47:47.000Z</time>
      </trkpt>
      <trkpt lat="45.05779" lon="0.76255">
        <ele>159.9</ele>
        <time>1970-01-01T01:47:48.000Z</time>
      </trkpt>
      <trkpt lat="45.05781" lon="0.76254">
        <ele>159.9</ele>
        <time>1970-01-01T01:47:49.000Z</time>
      </trkpt>
      <trkpt lat="45.05784" lon="0.76253">
        <ele>159.9</ele>
        <time>1970-01-01T01:47:50.000Z</time>
      </trkpt>
      <trkpt lat="45.05786" lon="0.76251">
        <ele>159.9</ele>
        <time>1970-01-01T01:47:51.000Z</time>
      </trkpt>
      <trkpt lat="45.05789" lon="0.7625">
        <ele>159.9</ele>
        <time>1970-01-01T01:47:52.000Z</time>
      </trkpt>
      <trkpt lat="45.05791" lon="0.76248">
        <ele>159.9</ele>
        <time>1970-01-01T01:47:53.000Z</time>
      </trkpt>
      <trkpt lat="45.05794" lon="0.76247">
        <ele>158.8</ele>
        <time>1970-01-01T01:47:54.000Z</time>
      </trkpt>
      <trkpt lat="45.05797" lon="0.76245">
        <ele>158.8</ele>
        <time>1970-01-01T01:47:55.000Z</time>
      </trkpt>
      <trkpt lat="45.058" lon="0.76243">
        <ele>158.8</ele>
        <time>1970-01-01T01:47:56.000Z</time>
      </trkpt>
      <trkpt lat="45.05803" lon="0.76241">
        <ele>158.8</ele>
        <time>1970-01-01T01:47:57.000Z</time>
      </trkpt>
      <trkpt lat="45.05806" lon="0.76239">
        <ele>158.8</ele>
        <time>1970-01-01T01:47:58.000Z</time>
      </trkpt>
      <trkpt lat="45.05811" lon="0.76236">
        <ele>158.8</ele>
        <time>1970-01-01T01:47:59.000Z</time>
      </trkpt>
      <trkpt lat="45.05815" lon="0.76234">
        <ele>157.9</ele>
        <time>1970-01-01T01:48:00.000Z</time>
      </trkpt>
      <trkpt lat="45.0582" lon="0.76231">
        <ele>157.9</ele>
        <time>1970-01-01T01:48:01.000Z</time>
      </trkpt>
      <trkpt lat="45.05825" lon="0.76228">
        <ele>157.9</ele>
        <time>1970-01-01T01:48:02.000Z</time>
      </trkpt>
      <trkpt lat="45.0583" lon="0.76225">
        <ele>157.9</ele>
        <time>1970-01-01T01:48:03.000Z</time>
      </trkpt>
      <trkpt lat="45.05836" lon="0.76221">
        <ele>157.9</ele>
        <time>1970-01-01T01:48:04.000Z</time>
      </trkpt>
      <trkpt lat="45.05841" lon="0.76218">
        <ele>157.9</ele>
        <time>1970-01-01T01:48:05.000Z</time>
      </trkpt>
      <trkpt lat="45.05847" lon="0.76213">
        <ele>157.9</ele>
        <time>1970-01-01T01:48:06.000Z</time>
      </trkpt>
      <trkpt lat="45.05853" lon="0.76208">
        <ele>157.9</ele>
        <time>1970-01-01T01:48:07.000Z</time>
      </trkpt>
      <trkpt lat="45.0586" lon="0.76203">
        <ele>149.8</ele>
        <time>1970-01-01T01:48:08.000Z</time>
      </trkpt>
      <trkpt lat="45.05868" lon="0.76198">
        <ele>149.8</ele>
        <time>1970-01-01T01:48:09.000Z</time>
      </trkpt>
      <trkpt lat="45.05877" lon="0.76192">
        <ele>146.8</ele>
        <time>1970-01-01T01:48:10.000Z</time>
      </trkpt>
      <trkpt lat="45.05886" lon="0.76185">
        <ele>146.8</ele>
        <time>1970-01-01T01:48:11.000Z</time>
      </trkpt>
      <trkpt lat="45.05896" lon="0.76179">
        <ele>144.8</ele>
        <time>1970-01-01T01:48:12.000Z</time>
      </trkpt>
      <trkpt lat="45.05906" lon="0.76173">
        <ele>144.8</ele>
        <time>1970-01-01T01:48:13.000Z</time>
      </trkpt>
      <trkpt lat="45.05914" lon="0.76167">
        <ele>140.8</ele>
        <time>1970-01-01T01:48:14.000Z</time>
      </trkpt>
      <trkpt lat="45.05922" lon="0.76163">
        <ele>140.8</ele>
        <time>1970-01-01T01:48:15.000Z</time>
      </trkpt>
      <trkpt lat="45.05926" lon="0.7616">
        <ele>139.9</ele>
        <time>1970-01-01T01:48:16.000Z</time>
      </trkpt>
      <trkpt lat="45.05931" lon="0.76159">
        <ele>139.9</ele>
        <time>1970-01-01T01:48:17.000Z</time>
      </trkpt>
      <trkpt lat="45.05934" lon="0.7616">
        <ele>140.8</ele>
        <time>1970-01-01T01:48:18.000Z</time>
      </trkpt>
      <trkpt lat="45.05936" lon="0.76162">
        <ele>140.8</ele>
        <time>1970-01-01T01:48:19.000Z</time>
      </trkpt>
      <trkpt lat="45.05938" lon="0.76166">
        <ele>140.8</ele>
        <time>1970-01-01T01:48:20.000Z</time>
      </trkpt>
      <trkpt lat="45.05939" lon="0.7617">
        <ele>140.8</ele>
        <time>1970-01-01T01:48:21.000Z</time>
      </trkpt>
      <trkpt lat="45.0594" lon="0.76175">
        <ele>140.8</ele>
        <time>1970-01-01T01:48:22.000Z</time>
      </trkpt>
      <trkpt lat="45.05941" lon="0.76179">
        <ele>140.8</ele>
        <time>1970-01-01T01:48:23.000Z</time>
      </trkpt>
      <trkpt lat="45.05942" lon="0.76184">
        <ele>140.8</ele>
        <time>1970-01-01T01:48:24.000Z</time>
      </trkpt>
      <trkpt lat="45.05942" lon="0.76189">
        <ele>140.8</ele>
        <time>1970-01-01T01:48:25.000Z</time>
      </trkpt>
      <trkpt lat="45.05941" lon="0.76195">
        <ele>140.8</ele>
        <time>1970-01-01T01:48:26.000Z</time>
      </trkpt>
      <trkpt lat="45.05941" lon="0.76203">
        <ele>140.8</ele>
        <time>1970-01-01T01:48:27.000Z</time>
      </trkpt>
      <trkpt lat="45.05941" lon="0.76209">
        <ele>140.8</ele>
        <time>1970-01-01T01:48:28.000Z</time>
      </trkpt>
      <trkpt lat="45.05941" lon="0.76215">
        <ele>140.8</ele>
        <time>1970-01-01T01:48:29.000Z</time>
      </trkpt>
      <trkpt lat="45.05941" lon="0.7622">
        <ele>140.8</ele>
        <time>1970-01-01T01:48:30.000Z</time>
      </trkpt>
      <trkpt lat="45.05941" lon="0.76228">
        <ele>140.8</ele>
        <time>1970-01-01T01:48:31.000Z</time>
      </trkpt>
      <trkpt lat="45.05941" lon="0.76233">
        <ele>139.9</ele>
        <time>1970-01-01T01:48:32.000Z</time>
      </trkpt>
      <trkpt lat="45.0594" lon="0.76241">
        <ele>139.9</ele>
        <time>1970-01-01T01:48:33.000Z</time>
      </trkpt>
      <trkpt lat="45.0594" lon="0.76249">
        <ele>139.9</ele>
        <time>1970-01-01T01:48:34.000Z</time>
      </trkpt>
      <trkpt lat="45.0594" lon="0.76259">
        <ele>139.9</ele>
        <time>1970-01-01T01:48:35.000Z</time>
      </trkpt>
      <trkpt lat="45.05939" lon="0.76268">
        <ele>138.8</ele>
        <time>1970-01-01T01:48:36.000Z</time>
      </trkpt>
      <trkpt lat="45.05939" lon="0.76277">
        <ele>138.8</ele>
        <time>1970-01-01T01:48:37.000Z</time>
      </trkpt>
      <trkpt lat="45.05939" lon="0.76287">
        <ele>137.8</ele>
        <time>1970-01-01T01:48:38.000Z</time>
      </trkpt>
      <trkpt lat="45.0594" lon="0.76294">
        <ele>137.8</ele>
        <time>1970-01-01T01:48:39.000Z</time>
      </trkpt>
      <trkpt lat="45.0594" lon="0.76304">
        <ele>138.8</ele>
        <time>1970-01-01T01:48:40.000Z</time>
      </trkpt>
      <trkpt lat="45.05941" lon="0.76316">
        <ele>138.8</ele>
        <time>1970-01-01T01:48:41.000Z</time>
      </trkpt>
      <trkpt lat="45.05941" lon="0.76324">
        <ele>138.8</ele>
        <time>1970-01-01T01:48:42.000Z</time>
      </trkpt>
      <trkpt lat="45.05942" lon="0.76333">
        <ele>138.8</ele>
        <time>1970-01-01T01:48:43.000Z</time>
      </trkpt>
      <trkpt lat="45.05943" lon="0.76344">
        <ele>138.8</ele>
        <time>1970-01-01T01:48:44.000Z</time>
      </trkpt>
      <trkpt lat="45.05944" lon="0.76353">
        <ele>138.8</ele>
        <time>1970-01-01T01:48:45.000Z</time>
      </trkpt>
      <trkpt lat="45.05945" lon="0.76362">
        <ele>138.8</ele>
        <time>1970-01-01T01:48:46.000Z</time>
      </trkpt>
      <trkpt lat="45.05946" lon="0.7637">
        <ele>138.8</ele>
        <time>1970-01-01T01:48:47.000Z</time>
      </trkpt>
      <trkpt lat="45.05947" lon="0.76375">
        <ele>138.8</ele>
        <time>1970-01-01T01:48:48.000Z</time>
      </trkpt>
      <trkpt lat="45.05949" lon="0.7638">
        <ele>138.8</ele>
        <time>1970-01-01T01:48:49.000Z</time>
      </trkpt>
      <trkpt lat="45.05952" lon="0.76385">
        <ele>138.8</ele>
        <time>1970-01-01T01:48:50.000Z</time>
      </trkpt>
      <trkpt lat="45.05955" lon="0.76386">
        <ele>138.8</ele>
        <time>1970-01-01T01:48:51.000Z</time>
      </trkpt>
      <trkpt lat="45.05957" lon="0.76386">
        <ele>136.9</ele>
        <time>1970-01-01T01:48:52.000Z</time>
      </trkpt>
      <trkpt lat="45.05959" lon="0.76384">
        <ele>136.9</ele>
        <time>1970-01-01T01:48:53.000Z</time>
      </trkpt>
      <trkpt lat="45.05962" lon="0.76382">
        <ele>136.9</ele>
        <time>1970-01-01T01:48:54.000Z</time>
      </trkpt>
      <trkpt lat="45.05963" lon="0.76379">
        <ele>136.9</ele>
        <time>1970-01-01T01:48:55.000Z</time>
      </trkpt>
      <trkpt lat="45.05965" lon="0.76377">
        <ele>137.8</ele>
        <time>1970-01-01T01:48:56.000Z</time>
      </trkpt>
      <trkpt lat="45.05966" lon="0.76373">
        <ele>137.8</ele>
        <time>1970-01-01T01:48:57.000Z</time>
      </trkpt>
      <trkpt lat="45.05967" lon="0.7637">
        <ele>137.8</ele>
        <time>1970-01-01T01:48:58.000Z</time>
      </trkpt>
      <trkpt lat="45.05968" lon="0.76366">
        <ele>137.8</ele>
        <time>1970-01-01T01:48:59.000Z</time>
      </trkpt>
      <trkpt lat="45.05969" lon="0.76363">
        <ele>139.9</ele>
        <time>1970-01-01T01:49:00.000Z</time>
      </trkpt>
      <trkpt lat="45.0597" lon="0.76361">
        <ele>139.9</ele>
        <time>1970-01-01T01:49:01.000Z</time>
      </trkpt>
      <trkpt lat="45.05971" lon="0.76358">
        <ele>140.8</ele>
        <time>1970-01-01T01:49:02.000Z</time>
      </trkpt>
      <trkpt lat="45.05972" lon="0.76355">
        <ele>140.8</ele>
        <time>1970-01-01T01:49:03.000Z</time>
      </trkpt>
      <trkpt lat="45.05973" lon="0.76352">
        <ele>141.9</ele>
        <time>1970-01-01T01:49:04.000Z</time>
      </trkpt>
      <trkpt lat="45.05974" lon="0.76349">
        <ele>141.9</ele>
        <time>1970-01-01T01:49:05.000Z</time>
      </trkpt>
      <trkpt lat="45.05974" lon="0.76347">
        <ele>142.8</ele>
        <time>1970-01-01T01:49:06.000Z</time>
      </trkpt>
      <trkpt lat="45.05975" lon="0.76344">
        <ele>142.8</ele>
        <time>1970-01-01T01:49:07.000Z</time>
      </trkpt>
      <trkpt lat="45.05976" lon="0.76342">
        <ele>142.8</ele>
        <time>1970-01-01T01:49:08.000Z</time>
      </trkpt>
      <trkpt lat="45.05977" lon="0.7634">
        <ele>142.8</ele>
        <time>1970-01-01T01:49:09.000Z</time>
      </trkpt>
      <trkpt lat="45.05978" lon="0.76337">
        <ele>143.9</ele>
        <time>1970-01-01T01:49:10.000Z</time>
      </trkpt>
      <trkpt lat="45.0598" lon="0.76335">
        <ele>143.9</ele>
        <time>1970-01-01T01:49:11.000Z</time>
      </trkpt>
      <trkpt lat="45.05981" lon="0.76332">
        <ele>143.9</ele>
        <time>1970-01-01T01:49:12.000Z</time>
      </trkpt>
      <trkpt lat="45.05982" lon="0.7633">
        <ele>143.9</ele>
        <time>1970-01-01T01:49:13.000Z</time>
      </trkpt>
      <trkpt lat="45.05983" lon="0.76328">
        <ele>143.9</ele>
        <time>1970-01-01T01:49:14.000Z</time>
      </trkpt>
      <trkpt lat="45.05985" lon="0.76325">
        <ele>143.9</ele>
        <time>1970-01-01T01:49:15.000Z</time>
      </trkpt>
      <trkpt lat="45.05987" lon="0.76323">
        <ele>143.9</ele>
        <time>1970-01-01T01:49:16.000Z</time>
      </trkpt>
      <trkpt lat="45.05988" lon="0.76321">
        <ele>143.9</ele>
        <time>1970-01-01T01:49:17.000Z</time>
      </trkpt>
      <trkpt lat="45.0599" lon="0.7632">
        <ele>143.9</ele>
        <time>1970-01-01T01:49:18.000Z</time>
      </trkpt>
      <trkpt lat="45.05992" lon="0.76318">
        <ele>143.9</ele>
        <time>1970-01-01T01:49:19.000Z</time>
      </trkpt>
      <trkpt lat="45.05994" lon="0.76317">
        <ele>146.8</ele>
        <time>1970-01-01T01:49:20.000Z</time>
      </trkpt>
      <trkpt lat="45.05996" lon="0.76316">
        <ele>146.8</ele>
        <time>1970-01-01T01:49:21.000Z</time>
      </trkpt>
      <trkpt lat="45.05998" lon="0.76315">
        <ele>146.8</ele>
        <time>1970-01-01T01:49:22.000Z</time>
      </trkpt>
      <trkpt lat="45.06" lon="0.76313">
        <ele>146.8</ele>
        <time>1970-01-01T01:49:23.000Z</time>
      </trkpt>
      <trkpt lat="45.06002" lon="0.76312">
        <ele>147.8</ele>
        <time>1970-01-01T01:49:24.000Z</time>
      </trkpt>
      <trkpt lat="45.06004" lon="0.76311">
        <ele>147.8</ele>
        <time>1970-01-01T01:49:25.000Z</time>
      </trkpt>
      <trkpt lat="45.06007" lon="0.7631">
        <ele>147.8</ele>
        <time>1970-01-01T01:49:26.000Z</time>
      </trkpt>
      <trkpt lat="45.06008" lon="0.76308">
        <ele>147.8</ele>
        <time>1970-01-01T01:49:27.000Z</time>
      </trkpt>
      <trkpt lat="45.0601" lon="0.76307">
        <ele>148.9</ele>
        <time>1970-01-01T01:49:28.000Z</time>
      </trkpt>
      <trkpt lat="45.06012" lon="0.76306">
        <ele>148.9</ele>
        <time>1970-01-01T01:49:29.000Z</time>
      </trkpt>
      <trkpt lat="45.06013" lon="0.76305">
        <ele>148.9</ele>
        <time>1970-01-01T01:49:30.000Z</time>
      </trkpt>
      <trkpt lat="45.06015" lon="0.76304">
        <ele>148.9</ele>
        <time>1970-01-01T01:49:31.000Z</time>
      </trkpt>
      <trkpt lat="45.06017" lon="0.76304">
        <ele>149.8</ele>
        <time>1970-01-01T01:49:32.000Z</time>
      </trkpt>
      <trkpt lat="45.06019" lon="0.76303">
        <ele>149.8</ele>
        <time>1970-01-01T01:49:33.000Z</time>
      </trkpt>
      <trkpt lat="45.06021" lon="0.76301">
        <ele>149.8</ele>
        <time>1970-01-01T01:49:34.000Z</time>
      </trkpt>
      <trkpt lat="45.06023" lon="0.763">
        <ele>149.8</ele>
        <time>1970-01-01T01:49:35.000Z</time>
      </trkpt>
      <trkpt lat="45.06025" lon="0.76299">
        <ele>150.9</ele>
        <time>1970-01-01T01:49:36.000Z</time>
      </trkpt>
      <trkpt lat="45.06027" lon="0.76298">
        <ele>150.9</ele>
        <time>1970-01-01T01:49:37.000Z</time>
      </trkpt>
      <trkpt lat="45.06029" lon="0.76296">
        <ele>150.9</ele>
        <time>1970-01-01T01:49:38.000Z</time>
      </trkpt>
      <trkpt lat="45.0603" lon="0.76295">
        <ele>150.9</ele>
        <time>1970-01-01T01:49:39.000Z</time>
      </trkpt>
      <trkpt lat="45.06032" lon="0.76293">
        <ele>150.9</ele>
        <time>1970-01-01T01:49:40.000Z</time>
      </trkpt>
      <trkpt lat="45.06034" lon="0.76292">
        <ele>150.9</ele>
        <time>1970-01-01T01:49:41.000Z</time>
      </trkpt>
      <trkpt lat="45.06036" lon="0.76291">
        <ele>151.8</ele>
        <time>1970-01-01T01:49:42.000Z</time>
      </trkpt>
      <trkpt lat="45.06038" lon="0.76289">
        <ele>151.8</ele>
        <time>1970-01-01T01:49:43.000Z</time>
      </trkpt>
      <trkpt lat="45.06039" lon="0.76288">
        <ele>152.9</ele>
        <time>1970-01-01T01:49:44.000Z</time>
      </trkpt>
      <trkpt lat="45.06041" lon="0.76286">
        <ele>152.9</ele>
        <time>1970-01-01T01:49:45.000Z</time>
      </trkpt>
      <trkpt lat="45.06043" lon="0.76285">
        <ele>153.8</ele>
        <time>1970-01-01T01:49:46.000Z</time>
      </trkpt>
      <trkpt lat="45.06044" lon="0.76283">
        <ele>153.8</ele>
        <time>1970-01-01T01:49:47.000Z</time>
      </trkpt>
      <trkpt lat="45.06046" lon="0.76281">
        <ele>153.8</ele>
        <time>1970-01-01T01:49:48.000Z</time>
      </trkpt>
      <trkpt lat="45.06048" lon="0.7628">
        <ele>153.8</ele>
        <time>1970-01-01T01:49:49.000Z</time>
      </trkpt>
      <trkpt lat="45.0605" lon="0.76278">
        <ele>153.8</ele>
        <time>1970-01-01T01:49:50.000Z</time>
      </trkpt>
      <trkpt lat="45.06051" lon="0.76276">
        <ele>153.8</ele>
        <time>1970-01-01T01:49:51.000Z</time>
      </trkpt>
      <trkpt lat="45.06053" lon="0.76275">
        <ele>154.8</ele>
        <time>1970-01-01T01:49:52.000Z</time>
      </trkpt>
      <trkpt lat="45.06054" lon="0.76273">
        <ele>154.8</ele>
        <time>1970-01-01T01:49:53.000Z</time>
      </trkpt>
      <trkpt lat="45.06056" lon="0.76271">
        <ele>155.9</ele>
        <time>1970-01-01T01:49:54.000Z</time>
      </trkpt>
      <trkpt lat="45.06058" lon="0.76269">
        <ele>155.9</ele>
        <time>1970-01-01T01:49:55.000Z</time>
      </trkpt>
      <trkpt lat="45.06059" lon="0.76267">
        <ele>155.9</ele>
        <time>1970-01-01T01:49:56.000Z</time>
      </trkpt>
      <trkpt lat="45.0606" lon="0.76265">
        <ele>155.9</ele>
        <time>1970-01-01T01:49:57.000Z</time>
      </trkpt>
      <trkpt lat="45.06062" lon="0.76262">
        <ele>156.8</ele>
        <time>1970-01-01T01:49:58.000Z</time>
      </trkpt>
      <trkpt lat="45.06063" lon="0.7626">
        <ele>156.8</ele>
        <time>1970-01-01T01:49:59.000Z</time>
      </trkpt>
      <trkpt lat="45.06065" lon="0.76258">
        <ele>156.8</ele>
        <time>1970-01-01T01:50:00.000Z</time>
      </trkpt>
      <trkpt lat="45.06066" lon="0.76255">
        <ele>156.8</ele>
        <time>1970-01-01T01:50:01.000Z</time>
      </trkpt>
      <trkpt lat="45.06068" lon="0.76253">
        <ele>156.8</ele>
        <time>1970-01-01T01:50:02.000Z</time>
      </trkpt>
      <trkpt lat="45.0607" lon="0.76251">
        <ele>156.8</ele>
        <time>1970-01-01T01:50:03.000Z</time>
      </trkpt>
      <trkpt lat="45.06072" lon="0.76249">
        <ele>157.9</ele>
        <time>1970-01-01T01:50:04.000Z</time>
      </trkpt>
      <trkpt lat="45.06074" lon="0.76246">
        <ele>157.9</ele>
        <time>1970-01-01T01:50:05.000Z</time>
      </trkpt>
      <trkpt lat="45.06076" lon="0.76244">
        <ele>157.9</ele>
        <time>1970-01-01T01:50:06.000Z</time>
      </trkpt>
      <trkpt lat="45.06079" lon="0.76242">
        <ele>157.9</ele>
        <time>1970-01-01T01:50:07.000Z</time>
      </trkpt>
      <trkpt lat="45.06081" lon="0.7624">
        <ele>157.9</ele>
        <time>1970-01-01T01:50:08.000Z</time>
      </trkpt>
      <trkpt lat="45.06084" lon="0.76237">
        <ele>157.9</ele>
        <time>1970-01-01T01:50:09.000Z</time>
      </trkpt>
      <trkpt lat="45.06088" lon="0.76234">
        <ele>157.9</ele>
        <time>1970-01-01T01:50:10.000Z</time>
      </trkpt>
      <trkpt lat="45.06092" lon="0.76231">
        <ele>157.9</ele>
        <time>1970-01-01T01:50:11.000Z</time>
      </trkpt>
      <trkpt lat="45.06096" lon="0.76229">
        <ele>157.9</ele>
        <time>1970-01-01T01:50:12.000Z</time>
      </trkpt>
      <trkpt lat="45.061" lon="0.76227">
        <ele>157.9</ele>
        <time>1970-01-01T01:50:13.000Z</time>
      </trkpt>
      <trkpt lat="45.06104" lon="0.76225">
        <ele>157.9</ele>
        <time>1970-01-01T01:50:14.000Z</time>
      </trkpt>
      <trkpt lat="45.06108" lon="0.76222">
        <ele>157.9</ele>
        <time>1970-01-01T01:50:15.000Z</time>
      </trkpt>
      <trkpt lat="45.06111" lon="0.7622">
        <ele>157.9</ele>
        <time>1970-01-01T01:50:16.000Z</time>
      </trkpt>
      <trkpt lat="45.06115" lon="0.76218">
        <ele>157.9</ele>
        <time>1970-01-01T01:50:17.000Z</time>
      </trkpt>
      <trkpt lat="45.06118" lon="0.76216">
        <ele>157.9</ele>
        <time>1970-01-01T01:50:18.000Z</time>
      </trkpt>
      <trkpt lat="45.06123" lon="0.76213">
        <ele>157.9</ele>
        <time>1970-01-01T01:50:19.000Z</time>
      </trkpt>
      <trkpt lat="45.06127" lon="0.76211">
        <ele>157.9</ele>
        <time>1970-01-01T01:50:20.000Z</time>
      </trkpt>
      <trkpt lat="45.0613" lon="0.76209">
        <ele>157.9</ele>
        <time>1970-01-01T01:50:21.000Z</time>
      </trkpt>
      <trkpt lat="45.06133" lon="0.76207">
        <ele>158.8</ele>
        <time>1970-01-01T01:50:22.000Z</time>
      </trkpt>
      <trkpt lat="45.06138" lon="0.76204">
        <ele>158.8</ele>
        <time>1970-01-01T01:50:23.000Z</time>
      </trkpt>
      <trkpt lat="45.06142" lon="0.76202">
        <ele>158.8</ele>
        <time>1970-01-01T01:50:24.000Z</time>
      </trkpt>
      <trkpt lat="45.06146" lon="0.76199">
        <ele>158.8</ele>
        <time>1970-01-01T01:50:25.000Z</time>
      </trkpt>
      <trkpt lat="45.06149" lon="0.76196">
        <ele>158.8</ele>
        <time>1970-01-01T01:50:26.000Z</time>
      </trkpt>
      <trkpt lat="45.06153" lon="0.76193">
        <ele>158.8</ele>
        <time>1970-01-01T01:50:27.000Z</time>
      </trkpt>
      <trkpt lat="45.06156" lon="0.76189">
        <ele>158.8</ele>
        <time>1970-01-01T01:50:28.000Z</time>
      </trkpt>
      <trkpt lat="45.06159" lon="0.76184">
        <ele>158.8</ele>
        <time>1970-01-01T01:50:29.000Z</time>
      </trkpt>
      <trkpt lat="45.06162" lon="0.76179">
        <ele>158.8</ele>
        <time>1970-01-01T01:50:30.000Z</time>
      </trkpt>
      <trkpt lat="45.06163" lon="0.76175">
        <ele>158.8</ele>
        <time>1970-01-01T01:50:31.000Z</time>
      </trkpt>
      <trkpt lat="45.06166" lon="0.76168">
        <ele>158.8</ele>
        <time>1970-01-01T01:50:32.000Z</time>
      </trkpt>
      <trkpt lat="45.06167" lon="0.76163">
        <ele>158.8</ele>
        <time>1970-01-01T01:50:33.000Z</time>
      </trkpt>
      <trkpt lat="45.06168" lon="0.76158">
        <ele>158.8</ele>
        <time>1970-01-01T01:50:34.000Z</time>
      </trkpt>
      <trkpt lat="45.06168" lon="0.76152">
        <ele>158.8</ele>
        <time>1970-01-01T01:50:35.000Z</time>
      </trkpt>
      <trkpt lat="45.06169" lon="0.76147">
        <ele>158.8</ele>
        <time>1970-01-01T01:50:36.000Z</time>
      </trkpt>
      <trkpt lat="45.06169" lon="0.76142">
        <ele>158.8</ele>
        <time>1970-01-01T01:50:37.000Z</time>
      </trkpt>
      <trkpt lat="45.06169" lon="0.76137">
        <ele>158.8</ele>
        <time>1970-01-01T01:50:38.000Z</time>
      </trkpt>
      <trkpt lat="45.06169" lon="0.76133">
        <ele>158.8</ele>
        <time>1970-01-01T01:50:39.000Z</time>
      </trkpt>
      <trkpt lat="45.06169" lon="0.76127">
        <ele>158.8</ele>
        <time>1970-01-01T01:50:40.000Z</time>
      </trkpt>
      <trkpt lat="45.06169" lon="0.76121">
        <ele>158.8</ele>
        <time>1970-01-01T01:50:41.000Z</time>
      </trkpt>
      <trkpt lat="45.06169" lon="0.76115">
        <ele>159.9</ele>
        <time>1970-01-01T01:50:42.000Z</time>
      </trkpt>
      <trkpt lat="45.06169" lon="0.76109">
        <ele>159.9</ele>
        <time>1970-01-01T01:50:43.000Z</time>
      </trkpt>
      <trkpt lat="45.06168" lon="0.76103">
        <ele>159.9</ele>
        <time>1970-01-01T01:50:44.000Z</time>
      </trkpt>
      <trkpt lat="45.06168" lon="0.76097">
        <ele>159.9</ele>
        <time>1970-01-01T01:50:45.000Z</time>
      </trkpt>
      <trkpt lat="45.06168" lon="0.76091">
        <ele>159.9</ele>
        <time>1970-01-01T01:50:46.000Z</time>
      </trkpt>
      <trkpt lat="45.06167" lon="0.76084">
        <ele>159.9</ele>
        <time>1970-01-01T01:50:47.000Z</time>
      </trkpt>
      <trkpt lat="45.06167" lon="0.76077">
        <ele>159.9</ele>
        <time>1970-01-01T01:50:48.000Z</time>
      </trkpt>
      <trkpt lat="45.06167" lon="0.76072">
        <ele>159.9</ele>
        <time>1970-01-01T01:50:49.000Z</time>
      </trkpt>
      <trkpt lat="45.06167" lon="0.76063">
        <ele>158.8</ele>
        <time>1970-01-01T01:50:50.000Z</time>
      </trkpt>
      <trkpt lat="45.06167" lon="0.76056">
        <ele>158.8</ele>
        <time>1970-01-01T01:50:51.000Z</time>
      </trkpt>
      <trkpt lat="45.06166" lon="0.76049">
        <ele>158.8</ele>
        <time>1970-01-01T01:50:52.000Z</time>
      </trkpt>
      <trkpt lat="45.06166" lon="0.76042">
        <ele>158.8</ele>
        <time>1970-01-01T01:50:53.000Z</time>
      </trkpt>
      <trkpt lat="45.06166" lon="0.76036">
        <ele>158.8</ele>
        <time>1970-01-01T01:50:54.000Z</time>
      </trkpt>
      <trkpt lat="45.06165" lon="0.76029">
        <ele>158.8</ele>
        <time>1970-01-01T01:50:55.000Z</time>
      </trkpt>
      <trkpt lat="45.06165" lon="0.76022">
        <ele>158.8</ele>
        <time>1970-01-01T01:50:56.000Z</time>
      </trkpt>
      <trkpt lat="45.06165" lon="0.76017">
        <ele>158.8</ele>
        <time>1970-01-01T01:50:57.000Z</time>
      </trkpt>
      <trkpt lat="45.06164" lon="0.76011">
        <ele>158.8</ele>
        <time>1970-01-01T01:50:58.000Z</time>
      </trkpt>
      <trkpt lat="45.06164" lon="0.76003">
        <ele>158.8</ele>
        <time>1970-01-01T01:50:59.000Z</time>
      </trkpt>
      <trkpt lat="45.06163" lon="0.75997">
        <ele>158.8</ele>
        <time>1970-01-01T01:51:00.000Z</time>
      </trkpt>
      <trkpt lat="45.06163" lon="0.7599">
        <ele>158.8</ele>
        <time>1970-01-01T01:51:01.000Z</time>
      </trkpt>
      <trkpt lat="45.06163" lon="0.75984">
        <ele>159.9</ele>
        <time>1970-01-01T01:51:02.000Z</time>
      </trkpt>
      <trkpt lat="45.06162" lon="0.75978">
        <ele>159.9</ele>
        <time>1970-01-01T01:51:03.000Z</time>
      </trkpt>
      <trkpt lat="45.06162" lon="0.75972">
        <ele>159.9</ele>
        <time>1970-01-01T01:51:04.000Z</time>
      </trkpt>
      <trkpt lat="45.06161" lon="0.75966">
        <ele>159.9</ele>
        <time>1970-01-01T01:51:05.000Z</time>
      </trkpt>
      <trkpt lat="45.06161" lon="0.75962">
        <ele>159.9</ele>
        <time>1970-01-01T01:51:06.000Z</time>
      </trkpt>
      <trkpt lat="45.0616" lon="0.75955">
        <ele>159.9</ele>
        <time>1970-01-01T01:51:07.000Z</time>
      </trkpt>
      <trkpt lat="45.0616" lon="0.75948">
        <ele>160.8</ele>
        <time>1970-01-01T01:51:08.000Z</time>
      </trkpt>
      <trkpt lat="45.06159" lon="0.75942">
        <ele>160.8</ele>
        <time>1970-01-01T01:51:09.000Z</time>
      </trkpt>
      <trkpt lat="45.06159" lon="0.75936">
        <ele>160.8</ele>
        <time>1970-01-01T01:51:10.000Z</time>
      </trkpt>
      <trkpt lat="45.06158" lon="0.7593">
        <ele>160.8</ele>
        <time>1970-01-01T01:51:11.000Z</time>
      </trkpt>
      <trkpt lat="45.06158" lon="0.75922">
        <ele>160.8</ele>
        <time>1970-01-01T01:51:12.000Z</time>
      </trkpt>
      <trkpt lat="45.06157" lon="0.75916">
        <ele>160.8</ele>
        <time>1970-01-01T01:51:13.000Z</time>
      </trkpt>
      <trkpt lat="45.06157" lon="0.75909">
        <ele>160.8</ele>
        <time>1970-01-01T01:51:14.000Z</time>
      </trkpt>
      <trkpt lat="45.06156" lon="0.75903">
        <ele>160.8</ele>
        <time>1970-01-01T01:51:15.000Z</time>
      </trkpt>
      <trkpt lat="45.06156" lon="0.75898">
        <ele>161.9</ele>
        <time>1970-01-01T01:51:16.000Z</time>
      </trkpt>
      <trkpt lat="45.06155" lon="0.75891">
        <ele>161.9</ele>
        <time>1970-01-01T01:51:17.000Z</time>
      </trkpt>
      <trkpt lat="45.06155" lon="0.75885">
        <ele>161.9</ele>
        <time>1970-01-01T01:51:18.000Z</time>
      </trkpt>
      <trkpt lat="45.06155" lon="0.75879">
        <ele>161.9</ele>
        <time>1970-01-01T01:51:19.000Z</time>
      </trkpt>
      <trkpt lat="45.06155" lon="0.75873">
        <ele>161.9</ele>
        <time>1970-01-01T01:51:20.000Z</time>
      </trkpt>
      <trkpt lat="45.06154" lon="0.75868">
        <ele>161.9</ele>
        <time>1970-01-01T01:51:21.000Z</time>
      </trkpt>
      <trkpt lat="45.06154" lon="0.75862">
        <ele>161.9</ele>
        <time>1970-01-01T01:51:22.000Z</time>
      </trkpt>
      <trkpt lat="45.06154" lon="0.75857">
        <ele>161.9</ele>
        <time>1970-01-01T01:51:23.000Z</time>
      </trkpt>
      <trkpt lat="45.06155" lon="0.75852">
        <ele>161.9</ele>
        <time>1970-01-01T01:51:24.000Z</time>
      </trkpt>
      <trkpt lat="45.06155" lon="0.75846">
        <ele>161.9</ele>
        <time>1970-01-01T01:51:25.000Z</time>
      </trkpt>
      <trkpt lat="45.06156" lon="0.75841">
        <ele>161.9</ele>
        <time>1970-01-01T01:51:26.000Z</time>
      </trkpt>
      <trkpt lat="45.06157" lon="0.75837">
        <ele>161.9</ele>
        <time>1970-01-01T01:51:27.000Z</time>
      </trkpt>
      <trkpt lat="45.06157" lon="0.75832">
        <ele>164.9</ele>
        <time>1970-01-01T01:51:28.000Z</time>
      </trkpt>
      <trkpt lat="45.06158" lon="0.75827">
        <ele>164.9</ele>
        <time>1970-01-01T01:51:29.000Z</time>
      </trkpt>
      <trkpt lat="45.06159" lon="0.75822">
        <ele>163.8</ele>
        <time>1970-01-01T01:51:30.000Z</time>
      </trkpt>
      <trkpt lat="45.06159" lon="0.75818">
        <ele>163.8</ele>
        <time>1970-01-01T01:51:31.000Z</time>
      </trkpt>
      <trkpt lat="45.0616" lon="0.75813">
        <ele>163.8</ele>
        <time>1970-01-01T01:51:32.000Z</time>
      </trkpt>
      <trkpt lat="45.06161" lon="0.75809">
        <ele>163.8</ele>
        <time>1970-01-01T01:51:33.000Z</time>
      </trkpt>
      <trkpt lat="45.06161" lon="0.75805">
        <ele>164.9</ele>
        <time>1970-01-01T01:51:34.000Z</time>
      </trkpt>
      <trkpt lat="45.06161" lon="0.758">
        <ele>164.9</ele>
        <time>1970-01-01T01:51:35.000Z</time>
      </trkpt>
      <trkpt lat="45.06161" lon="0.75796">
        <ele>164.9</ele>
        <time>1970-01-01T01:51:36.000Z</time>
      </trkpt>
      <trkpt lat="45.06161" lon="0.75792">
        <ele>164.9</ele>
        <time>1970-01-01T01:51:37.000Z</time>
      </trkpt>
      <trkpt lat="45.06161" lon="0.75788">
        <ele>164.9</ele>
        <time>1970-01-01T01:51:38.000Z</time>
      </trkpt>
      <trkpt lat="45.0616" lon="0.75784">
        <ele>164.9</ele>
        <time>1970-01-01T01:51:39.000Z</time>
      </trkpt>
      <trkpt lat="45.0616" lon="0.75781">
        <ele>167.8</ele>
        <time>1970-01-01T01:51:40.000Z</time>
      </trkpt>
      <trkpt lat="45.06159" lon="0.75777">
        <ele>167.8</ele>
        <time>1970-01-01T01:51:41.000Z</time>
      </trkpt>
      <trkpt lat="45.06159" lon="0.75773">
        <ele>167.8</ele>
        <time>1970-01-01T01:51:42.000Z</time>
      </trkpt>
      <trkpt lat="45.06158" lon="0.75769">
        <ele>167.8</ele>
        <time>1970-01-01T01:51:43.000Z</time>
      </trkpt>
      <trkpt lat="45.06158" lon="0.75765">
        <ele>168.9</ele>
        <time>1970-01-01T01:51:44.000Z</time>
      </trkpt>
      <trkpt lat="45.06157" lon="0.75761">
        <ele>168.9</ele>
        <time>1970-01-01T01:51:45.000Z</time>
      </trkpt>
      <trkpt lat="45.06156" lon="0.75757">
        <ele>168.9</ele>
        <time>1970-01-01T01:51:46.000Z</time>
      </trkpt>
      <trkpt lat="45.06155" lon="0.75754">
        <ele>168.9</ele>
        <time>1970-01-01T01:51:47.000Z</time>
      </trkpt>
      <trkpt lat="45.06154" lon="0.7575">
        <ele>168.9</ele>
        <time>1970-01-01T01:51:48.000Z</time>
      </trkpt>
      <trkpt lat="45.06154" lon="0.75746">
        <ele>168.9</ele>
        <time>1970-01-01T01:51:49.000Z</time>
      </trkpt>
      <trkpt lat="45.06153" lon="0.75743">
        <ele>168.9</ele>
        <time>1970-01-01T01:51:50.000Z</time>
      </trkpt>
      <trkpt lat="45.06152" lon="0.75739">
        <ele>168.9</ele>
        <time>1970-01-01T01:51:51.000Z</time>
      </trkpt>
      <trkpt lat="45.06151" lon="0.75737">
        <ele>168.9</ele>
        <time>1970-01-01T01:51:52.000Z</time>
      </trkpt>
      <trkpt lat="45.0615" lon="0.75733">
        <ele>168.9</ele>
        <time>1970-01-01T01:51:53.000Z</time>
      </trkpt>
      <trkpt lat="45.06149" lon="0.75729">
        <ele>170.8</ele>
        <time>1970-01-01T01:51:54.000Z</time>
      </trkpt>
      <trkpt lat="45.06147" lon="0.75726">
        <ele>170.8</ele>
        <time>1970-01-01T01:51:55.000Z</time>
      </trkpt>
      <trkpt lat="45.06146" lon="0.75723">
        <ele>170.8</ele>
        <time>1970-01-01T01:51:56.000Z</time>
      </trkpt>
      <trkpt lat="45.06145" lon="0.75721">
        <ele>170.8</ele>
        <time>1970-01-01T01:51:57.000Z</time>
      </trkpt>
      <trkpt lat="45.06144" lon="0.75718">
        <ele>171.9</ele>
        <time>1970-01-01T01:51:58.000Z</time>
      </trkpt>
      <trkpt lat="45.06142" lon="0.75714">
        <ele>171.9</ele>
        <time>1970-01-01T01:51:59.000Z</time>
      </trkpt>
      <trkpt lat="45.06141" lon="0.7571">
        <ele>171.9</ele>
        <time>1970-01-01T01:52:00.000Z</time>
      </trkpt>
      <trkpt lat="45.06139" lon="0.75707">
        <ele>171.9</ele>
        <time>1970-01-01T01:52:01.000Z</time>
      </trkpt>
      <trkpt lat="45.06138" lon="0.75704">
        <ele>171.9</ele>
        <time>1970-01-01T01:52:02.000Z</time>
      </trkpt>
      <trkpt lat="45.06137" lon="0.757">
        <ele>171.9</ele>
        <time>1970-01-01T01:52:03.000Z</time>
      </trkpt>
      <trkpt lat="45.06135" lon="0.75697">
        <ele>172.8</ele>
        <time>1970-01-01T01:52:04.000Z</time>
      </trkpt>
      <trkpt lat="45.06134" lon="0.75694">
        <ele>172.8</ele>
        <time>1970-01-01T01:52:05.000Z</time>
      </trkpt>
      <trkpt lat="45.06133" lon="0.75691">
        <ele>173.9</ele>
        <time>1970-01-01T01:52:06.000Z</time>
      </trkpt>
      <trkpt lat="45.06132" lon="0.75688">
        <ele>173.9</ele>
        <time>1970-01-01T01:52:07.000Z</time>
      </trkpt>
      <trkpt lat="45.0613" lon="0.75684">
        <ele>174.8</ele>
        <time>1970-01-01T01:52:08.000Z</time>
      </trkpt>
      <trkpt lat="45.06129" lon="0.75681">
        <ele>174.8</ele>
        <time>1970-01-01T01:52:09.000Z</time>
      </trkpt>
      <trkpt lat="45.06128" lon="0.75678">
        <ele>174.8</ele>
        <time>1970-01-01T01:52:10.000Z</time>
      </trkpt>
      <trkpt lat="45.06127" lon="0.75675">
        <ele>174.8</ele>
        <time>1970-01-01T01:52:11.000Z</time>
      </trkpt>
      <trkpt lat="45.06126" lon="0.75671">
        <ele>175.9</ele>
        <time>1970-01-01T01:52:12.000Z</time>
      </trkpt>
      <trkpt lat="45.06125" lon="0.75668">
        <ele>175.9</ele>
        <time>1970-01-01T01:52:13.000Z</time>
      </trkpt>
      <trkpt lat="45.06124" lon="0.75665">
        <ele>175.9</ele>
        <time>1970-01-01T01:52:14.000Z</time>
      </trkpt>
      <trkpt lat="45.06123" lon="0.75662">
        <ele>175.9</ele>
        <time>1970-01-01T01:52:15.000Z</time>
      </trkpt>
      <trkpt lat="45.06123" lon="0.75659">
        <ele>176.8</ele>
        <time>1970-01-01T01:52:16.000Z</time>
      </trkpt>
      <trkpt lat="45.06122" lon="0.75655">
        <ele>176.8</ele>
        <time>1970-01-01T01:52:17.000Z</time>
      </trkpt>
      <trkpt lat="45.06121" lon="0.75652">
        <ele>176.8</ele>
        <time>1970-01-01T01:52:18.000Z</time>
      </trkpt>
      <trkpt lat="45.06121" lon="0.75648">
        <ele>176.8</ele>
        <time>1970-01-01T01:52:19.000Z</time>
      </trkpt>
      <trkpt lat="45.06121" lon="0.75645">
        <ele>177.9</ele>
        <time>1970-01-01T01:52:20.000Z</time>
      </trkpt>
      <trkpt lat="45.06121" lon="0.75641">
        <ele>177.9</ele>
        <time>1970-01-01T01:52:21.000Z</time>
      </trkpt>
      <trkpt lat="45.06121" lon="0.75637">
        <ele>177.9</ele>
        <time>1970-01-01T01:52:22.000Z</time>
      </trkpt>
      <trkpt lat="45.06121" lon="0.75634">
        <ele>177.9</ele>
        <time>1970-01-01T01:52:23.000Z</time>
      </trkpt>
      <trkpt lat="45.06122" lon="0.7563">
        <ele>177.9</ele>
        <time>1970-01-01T01:52:24.000Z</time>
      </trkpt>
      <trkpt lat="45.06122" lon="0.75627">
        <ele>177.9</ele>
        <time>1970-01-01T01:52:25.000Z</time>
      </trkpt>
      <trkpt lat="45.06123" lon="0.75623">
        <ele>178.8</ele>
        <time>1970-01-01T01:52:26.000Z</time>
      </trkpt>
      <trkpt lat="45.06123" lon="0.7562">
        <ele>178.8</ele>
        <time>1970-01-01T01:52:27.000Z</time>
      </trkpt>
      <trkpt lat="45.06124" lon="0.75616">
        <ele>178.8</ele>
        <time>1970-01-01T01:52:28.000Z</time>
      </trkpt>
      <trkpt lat="45.06124" lon="0.75612">
        <ele>178.8</ele>
        <time>1970-01-01T01:52:29.000Z</time>
      </trkpt>
      <trkpt lat="45.06124" lon="0.75608">
        <ele>178.8</ele>
        <time>1970-01-01T01:52:30.000Z</time>
      </trkpt>
      <trkpt lat="45.06124" lon="0.75604">
        <ele>178.8</ele>
        <time>1970-01-01T01:52:31.000Z</time>
      </trkpt>
      <trkpt lat="45.06124" lon="0.75601">
        <ele>178.8</ele>
        <time>1970-01-01T01:52:32.000Z</time>
      </trkpt>
      <trkpt lat="45.06123" lon="0.75597">
        <ele>178.8</ele>
        <time>1970-01-01T01:52:33.000Z</time>
      </trkpt>
      <trkpt lat="45.06122" lon="0.75595">
        <ele>178.8</ele>
        <time>1970-01-01T01:52:34.000Z</time>
      </trkpt>
      <trkpt lat="45.06121" lon="0.75592">
        <ele>178.8</ele>
        <time>1970-01-01T01:52:35.000Z</time>
      </trkpt>
      <trkpt lat="45.06119" lon="0.75591">
        <ele>178.8</ele>
        <time>1970-01-01T01:52:36.000Z</time>
      </trkpt>
      <trkpt lat="45.06116" lon="0.75589">
        <ele>178.8</ele>
        <time>1970-01-01T01:52:37.000Z</time>
      </trkpt>
      <trkpt lat="45.06114" lon="0.75587">
        <ele>179.8</ele>
        <time>1970-01-01T01:52:38.000Z</time>
      </trkpt>
      <trkpt lat="45.06112" lon="0.75586">
        <ele>179.8</ele>
        <time>1970-01-01T01:52:39.000Z</time>
      </trkpt>
      <trkpt lat="45.06109" lon="0.75584">
        <ele>179.8</ele>
        <time>1970-01-01T01:52:40.000Z</time>
      </trkpt>
      <trkpt lat="45.06106" lon="0.75583">
        <ele>179.8</ele>
        <time>1970-01-01T01:52:41.000Z</time>
      </trkpt>
      <trkpt lat="45.06103" lon="0.75582">
        <ele>179.8</ele>
        <time>1970-01-01T01:52:42.000Z</time>
      </trkpt>
      <trkpt lat="45.061" lon="0.75581">
        <ele>179.8</ele>
        <time>1970-01-01T01:52:43.000Z</time>
      </trkpt>
      <trkpt lat="45.06097" lon="0.75579">
        <ele>179.8</ele>
        <time>1970-01-01T01:52:44.000Z</time>
      </trkpt>
      <trkpt lat="45.06094" lon="0.75576">
        <ele>179.8</ele>
        <time>1970-01-01T01:52:45.000Z</time>
      </trkpt>
      <trkpt lat="45.06092" lon="0.75573">
        <ele>179.8</ele>
        <time>1970-01-01T01:52:46.000Z</time>
      </trkpt>
      <trkpt lat="45.06091" lon="0.75569">
        <ele>179.8</ele>
        <time>1970-01-01T01:52:47.000Z</time>
      </trkpt>
      <trkpt lat="45.06092" lon="0.75565">
        <ele>179.8</ele>
        <time>1970-01-01T01:52:48.000Z</time>
      </trkpt>
      <trkpt lat="45.06093" lon="0.7556">
        <ele>179.8</ele>
        <time>1970-01-01T01:52:49.000Z</time>
      </trkpt>
      <trkpt lat="45.06095" lon="0.75556">
        <ele>180.9</ele>
        <time>1970-01-01T01:52:50.000Z</time>
      </trkpt>
      <trkpt lat="45.06097" lon="0.75553">
        <ele>180.9</ele>
        <time>1970-01-01T01:52:51.000Z</time>
      </trkpt>
      <trkpt lat="45.06099" lon="0.7555">
        <ele>180.9</ele>
        <time>1970-01-01T01:52:52.000Z</time>
      </trkpt>
      <trkpt lat="45.06103" lon="0.75545">
        <ele>180.9</ele>
        <time>1970-01-01T01:52:53.000Z</time>
      </trkpt>
      <trkpt lat="45.06106" lon="0.75542">
        <ele>180.9</ele>
        <time>1970-01-01T01:52:54.000Z</time>
      </trkpt>
      <trkpt lat="45.06109" lon="0.75539">
        <ele>180.9</ele>
        <time>1970-01-01T01:52:55.000Z</time>
      </trkpt>
      <trkpt lat="45.06111" lon="0.75536">
        <ele>180.9</ele>
        <time>1970-01-01T01:52:56.000Z</time>
      </trkpt>
      <trkpt lat="45.06115" lon="0.75533">
        <ele>180.9</ele>
        <time>1970-01-01T01:52:57.000Z</time>
      </trkpt>
      <trkpt lat="45.06119" lon="0.75529">
        <ele>180.9</ele>
        <time>1970-01-01T01:52:58.000Z</time>
      </trkpt>
      <trkpt lat="45.06123" lon="0.75526">
        <ele>180.9</ele>
        <time>1970-01-01T01:52:59.000Z</time>
      </trkpt>
      <trkpt lat="45.06126" lon="0.75523">
        <ele>181.8</ele>
        <time>1970-01-01T01:53:00.000Z</time>
      </trkpt>
      <trkpt lat="45.06129" lon="0.75521">
        <ele>181.8</ele>
        <time>1970-01-01T01:53:01.000Z</time>
      </trkpt>
      <trkpt lat="45.06133" lon="0.75518">
        <ele>180.9</ele>
        <time>1970-01-01T01:53:02.000Z</time>
      </trkpt>
      <trkpt lat="45.06136" lon="0.75515">
        <ele>180.9</ele>
        <time>1970-01-01T01:53:03.000Z</time>
      </trkpt>
      <trkpt lat="45.0614" lon="0.75512">
        <ele>181.8</ele>
        <time>1970-01-01T01:53:04.000Z</time>
      </trkpt>
      <trkpt lat="45.06143" lon="0.75509">
        <ele>181.8</ele>
        <time>1970-01-01T01:53:05.000Z</time>
      </trkpt>
      <trkpt lat="45.06146" lon="0.75506">
        <ele>181.8</ele>
        <time>1970-01-01T01:53:06.000Z</time>
      </trkpt>
      <trkpt lat="45.06149" lon="0.75502">
        <ele>181.8</ele>
        <time>1970-01-01T01:53:07.000Z</time>
      </trkpt>
      <trkpt lat="45.06152" lon="0.75498">
        <ele>182.9</ele>
        <time>1970-01-01T01:53:08.000Z</time>
      </trkpt>
      <trkpt lat="45.06155" lon="0.75494">
        <ele>182.9</ele>
        <time>1970-01-01T01:53:09.000Z</time>
      </trkpt>
      <trkpt lat="45.06157" lon="0.7549">
        <ele>182.9</ele>
        <time>1970-01-01T01:53:10.000Z</time>
      </trkpt>
      <trkpt lat="45.06161" lon="0.75485">
        <ele>182.9</ele>
        <time>1970-01-01T01:53:11.000Z</time>
      </trkpt>
      <trkpt lat="45.06163" lon="0.7548">
        <ele>183.8</ele>
        <time>1970-01-01T01:53:12.000Z</time>
      </trkpt>
      <trkpt lat="45.06166" lon="0.75475">
        <ele>183.8</ele>
        <time>1970-01-01T01:53:13.000Z</time>
      </trkpt>
      <trkpt lat="45.06169" lon="0.75471">
        <ele>183.8</ele>
        <time>1970-01-01T01:53:14.000Z</time>
      </trkpt>
      <trkpt lat="45.06171" lon="0.75466">
        <ele>183.8</ele>
        <time>1970-01-01T01:53:15.000Z</time>
      </trkpt>
      <trkpt lat="45.06174" lon="0.75461">
        <ele>183.8</ele>
        <time>1970-01-01T01:53:16.000Z</time>
      </trkpt>
      <trkpt lat="45.06177" lon="0.75457">
        <ele>183.8</ele>
        <time>1970-01-01T01:53:17.000Z</time>
      </trkpt>
      <trkpt lat="45.0618" lon="0.75452">
        <ele>184.9</ele>
        <time>1970-01-01T01:53:18.000Z</time>
      </trkpt>
      <trkpt lat="45.06182" lon="0.75449">
        <ele>184.9</ele>
        <time>1970-01-01T01:53:19.000Z</time>
      </trkpt>
      <trkpt lat="45.06185" lon="0.75444">
        <ele>184.9</ele>
        <time>1970-01-01T01:53:20.000Z</time>
      </trkpt>
      <trkpt lat="45.06188" lon="0.75439">
        <ele>184.9</ele>
        <time>1970-01-01T01:53:21.000Z</time>
      </trkpt>
      <trkpt lat="45.06191" lon="0.75435">
        <ele>184.9</ele>
        <time>1970-01-01T01:53:22.000Z</time>
      </trkpt>
      <trkpt lat="45.06194" lon="0.75431">
        <ele>184.9</ele>
        <time>1970-01-01T01:53:23.000Z</time>
      </trkpt>
      <trkpt lat="45.06197" lon="0.75428">
        <ele>184.9</ele>
        <time>1970-01-01T01:53:24.000Z</time>
      </trkpt>
      <trkpt lat="45.06201" lon="0.75423">
        <ele>184.9</ele>
        <time>1970-01-01T01:53:25.000Z</time>
      </trkpt>
      <trkpt lat="45.06204" lon="0.75419">
        <ele>184.9</ele>
        <time>1970-01-01T01:53:26.000Z</time>
      </trkpt>
      <trkpt lat="45.06207" lon="0.75415">
        <ele>184.9</ele>
        <time>1970-01-01T01:53:27.000Z</time>
      </trkpt>
      <trkpt lat="45.0621" lon="0.75412">
        <ele>184.9</ele>
        <time>1970-01-01T01:53:28.000Z</time>
      </trkpt>
      <trkpt lat="45.06214" lon="0.75408">
        <ele>184.9</ele>
        <time>1970-01-01T01:53:29.000Z</time>
      </trkpt>
      <trkpt lat="45.06217" lon="0.75403">
        <ele>184.9</ele>
        <time>1970-01-01T01:53:30.000Z</time>
      </trkpt>
      <trkpt lat="45.06221" lon="0.75399">
        <ele>184.9</ele>
        <time>1970-01-01T01:53:31.000Z</time>
      </trkpt>
      <trkpt lat="45.06224" lon="0.75395">
        <ele>185.8</ele>
        <time>1970-01-01T01:53:32.000Z</time>
      </trkpt>
      <trkpt lat="45.06226" lon="0.75391">
        <ele>185.8</ele>
        <time>1970-01-01T01:53:33.000Z</time>
      </trkpt>
      <trkpt lat="45.0623" lon="0.75386">
        <ele>185.8</ele>
        <time>1970-01-01T01:53:34.000Z</time>
      </trkpt>
      <trkpt lat="45.06232" lon="0.75382">
        <ele>185.8</ele>
        <time>1970-01-01T01:53:35.000Z</time>
      </trkpt>
      <trkpt lat="45.06235" lon="0.75377">
        <ele>185.8</ele>
        <time>1970-01-01T01:53:36.000Z</time>
      </trkpt>
      <trkpt lat="45.06237" lon="0.75373">
        <ele>185.8</ele>
        <time>1970-01-01T01:53:37.000Z</time>
      </trkpt>
      <trkpt lat="45.06239" lon="0.75368">
        <ele>185.8</ele>
        <time>1970-01-01T01:53:38.000Z</time>
      </trkpt>
      <trkpt lat="45.06241" lon="0.75363">
        <ele>185.8</ele>
        <time>1970-01-01T01:53:39.000Z</time>
      </trkpt>
      <trkpt lat="45.06243" lon="0.75357">
        <ele>186.8</ele>
        <time>1970-01-01T01:53:40.000Z</time>
      </trkpt>
      <trkpt lat="45.06243" lon="0.75352">
        <ele>186.8</ele>
        <time>1970-01-01T01:53:41.000Z</time>
      </trkpt>
      <trkpt lat="45.06242" lon="0.75348">
        <ele>186.8</ele>
        <time>1970-01-01T01:53:42.000Z</time>
      </trkpt>
      <trkpt lat="45.0624" lon="0.75343">
        <ele>186.8</ele>
        <time>1970-01-01T01:53:43.000Z</time>
      </trkpt>
      <trkpt lat="45.06236" lon="0.75339">
        <ele>186.8</ele>
        <time>1970-01-01T01:53:44.000Z</time>
      </trkpt>
      <trkpt lat="45.06233" lon="0.75335">
        <ele>186.8</ele>
        <time>1970-01-01T01:53:45.000Z</time>
      </trkpt>
      <trkpt lat="45.06228" lon="0.75332">
        <ele>186.8</ele>
        <time>1970-01-01T01:53:46.000Z</time>
      </trkpt>
      <trkpt lat="45.06224" lon="0.75328">
        <ele>186.8</ele>
        <time>1970-01-01T01:53:47.000Z</time>
      </trkpt>
      <trkpt lat="45.06219" lon="0.75325">
        <ele>185.8</ele>
        <time>1970-01-01T01:53:48.000Z</time>
      </trkpt>
      <trkpt lat="45.06214" lon="0.75321">
        <ele>185.8</ele>
        <time>1970-01-01T01:53:49.000Z</time>
      </trkpt>
      <trkpt lat="45.06209" lon="0.75318">
        <ele>185.8</ele>
        <time>1970-01-01T01:53:50.000Z</time>
      </trkpt>
      <trkpt lat="45.06204" lon="0.75314">
        <ele>185.8</ele>
        <time>1970-01-01T01:53:51.000Z</time>
      </trkpt>
      <trkpt lat="45.06201" lon="0.75309">
        <ele>185.8</ele>
        <time>1970-01-01T01:53:52.000Z</time>
      </trkpt>
      <trkpt lat="45.06198" lon="0.75303">
        <ele>185.8</ele>
        <time>1970-01-01T01:53:53.000Z</time>
      </trkpt>
      <trkpt lat="45.06198" lon="0.75297">
        <ele>184.9</ele>
        <time>1970-01-01T01:53:54.000Z</time>
      </trkpt>
      <trkpt lat="45.062" lon="0.75292">
        <ele>184.9</ele>
        <time>1970-01-01T01:53:55.000Z</time>
      </trkpt>
      <trkpt lat="45.06202" lon="0.75286">
        <ele>184.9</ele>
        <time>1970-01-01T01:53:56.000Z</time>
      </trkpt>
      <trkpt lat="45.06204" lon="0.75281">
        <ele>184.9</ele>
        <time>1970-01-01T01:53:57.000Z</time>
      </trkpt>
      <trkpt lat="45.06207" lon="0.75274">
        <ele>185.8</ele>
        <time>1970-01-01T01:53:58.000Z</time>
      </trkpt>
      <trkpt lat="45.0621" lon="0.75268">
        <ele>185.8</ele>
        <time>1970-01-01T01:53:59.000Z</time>
      </trkpt>
      <trkpt lat="45.06212" lon="0.75263">
        <ele>185.8</ele>
        <time>1970-01-01T01:54:00.000Z</time>
      </trkpt>
      <trkpt lat="45.06214" lon="0.75257">
        <ele>185.8</ele>
        <time>1970-01-01T01:54:01.000Z</time>
      </trkpt>
      <trkpt lat="45.06217" lon="0.75251">
        <ele>184.9</ele>
        <time>1970-01-01T01:54:02.000Z</time>
      </trkpt>
      <trkpt lat="45.0622" lon="0.75245">
        <ele>184.9</ele>
        <time>1970-01-01T01:54:03.000Z</time>
      </trkpt>
      <trkpt lat="45.06223" lon="0.75239">
        <ele>184.9</ele>
        <time>1970-01-01T01:54:04.000Z</time>
      </trkpt>
      <trkpt lat="45.06226" lon="0.75233">
        <ele>184.9</ele>
        <time>1970-01-01T01:54:05.000Z</time>
      </trkpt>
      <trkpt lat="45.06229" lon="0.75227">
        <ele>184.9</ele>
        <time>1970-01-01T01:54:06.000Z</time>
      </trkpt>
      <trkpt lat="45.06232" lon="0.75221">
        <ele>184.9</ele>
        <time>1970-01-01T01:54:07.000Z</time>
      </trkpt>
      <trkpt lat="45.06234" lon="0.75215">
        <ele>184.9</ele>
        <time>1970-01-01T01:54:08.000Z</time>
      </trkpt>
      <trkpt lat="45.06237" lon="0.75209">
        <ele>184.9</ele>
        <time>1970-01-01T01:54:09.000Z</time>
      </trkpt>
      <trkpt lat="45.0624" lon="0.75202">
        <ele>184.9</ele>
        <time>1970-01-01T01:54:10.000Z</time>
      </trkpt>
      <trkpt lat="45.06242" lon="0.75196">
        <ele>184.9</ele>
        <time>1970-01-01T01:54:11.000Z</time>
      </trkpt>
      <trkpt lat="45.06245" lon="0.75189">
        <ele>184.9</ele>
        <time>1970-01-01T01:54:12.000Z</time>
      </trkpt>
      <trkpt lat="45.06248" lon="0.75183">
        <ele>184.9</ele>
        <time>1970-01-01T01:54:13.000Z</time>
      </trkpt>
      <trkpt lat="45.06251" lon="0.75176">
        <ele>184.9</ele>
        <time>1970-01-01T01:54:14.000Z</time>
      </trkpt>
      <trkpt lat="45.06254" lon="0.75169">
        <ele>184.9</ele>
        <time>1970-01-01T01:54:15.000Z</time>
      </trkpt>
      <trkpt lat="45.06257" lon="0.75161">
        <ele>184.9</ele>
        <time>1970-01-01T01:54:16.000Z</time>
      </trkpt>
      <trkpt lat="45.0626" lon="0.75154">
        <ele>184.9</ele>
        <time>1970-01-01T01:54:17.000Z</time>
      </trkpt>
      <trkpt lat="45.06264" lon="0.75146">
        <ele>183.8</ele>
        <time>1970-01-01T01:54:18.000Z</time>
      </trkpt>
      <trkpt lat="45.06267" lon="0.75138">
        <ele>183.8</ele>
        <time>1970-01-01T01:54:19.000Z</time>
      </trkpt>
      <trkpt lat="45.06271" lon="0.7513">
        <ele>182.9</ele>
        <time>1970-01-01T01:54:20.000Z</time>
      </trkpt>
      <trkpt lat="45.06274" lon="0.75121">
        <ele>182.9</ele>
        <time>1970-01-01T01:54:21.000Z</time>
      </trkpt>
      <trkpt lat="45.06278" lon="0.75113">
        <ele>181.8</ele>
        <time>1970-01-01T01:54:22.000Z</time>
      </trkpt>
      <trkpt lat="45.06283" lon="0.75105">
        <ele>181.8</ele>
        <time>1970-01-01T01:54:23.000Z</time>
      </trkpt>
      <trkpt lat="45.06286" lon="0.75096">
        <ele>180.9</ele>
        <time>1970-01-01T01:54:24.000Z</time>
      </trkpt>
      <trkpt lat="45.06289" lon="0.75087">
        <ele>180.9</ele>
        <time>1970-01-01T01:54:25.000Z</time>
      </trkpt>
      <trkpt lat="45.0629" lon="0.75078">
        <ele>179.8</ele>
        <time>1970-01-01T01:54:26.000Z</time>
      </trkpt>
      <trkpt lat="45.06289" lon="0.75069">
        <ele>179.8</ele>
        <time>1970-01-01T01:54:27.000Z</time>
      </trkpt>
      <trkpt lat="45.06287" lon="0.7506">
        <ele>179.8</ele>
        <time>1970-01-01T01:54:28.000Z</time>
      </trkpt>
      <trkpt lat="45.06284" lon="0.75052">
        <ele>179.8</ele>
        <time>1970-01-01T01:54:29.000Z</time>
      </trkpt>
      <trkpt lat="45.06281" lon="0.75047">
        <ele>179.8</ele>
        <time>1970-01-01T01:54:30.000Z</time>
      </trkpt>
      <trkpt lat="45.06276" lon="0.75043">
        <ele>179.8</ele>
        <time>1970-01-01T01:54:31.000Z</time>
      </trkpt>
      <trkpt lat="45.0627" lon="0.7504">
        <ele>174.8</ele>
        <time>1970-01-01T01:54:32.000Z</time>
      </trkpt>
      <trkpt lat="45.06262" lon="0.75036">
        <ele>174.8</ele>
        <time>1970-01-01T01:54:33.000Z</time>
      </trkpt>
      <trkpt lat="45.06255" lon="0.75031">
        <ele>173.9</ele>
        <time>1970-01-01T01:54:34.000Z</time>
      </trkpt>
      <trkpt lat="45.06248" lon="0.75025">
        <ele>173.9</ele>
        <time>1970-01-01T01:54:35.000Z</time>
      </trkpt>
      <trkpt lat="45.06242" lon="0.75018">
        <ele>173.9</ele>
        <time>1970-01-01T01:54:36.000Z</time>
      </trkpt>
      <trkpt lat="45.06236" lon="0.75009">
        <ele>173.9</ele>
        <time>1970-01-01T01:54:37.000Z</time>
      </trkpt>
      <trkpt lat="45.06231" lon="0.75">
        <ele>173.9</ele>
        <time>1970-01-01T01:54:38.000Z</time>
      </trkpt>
      <trkpt lat="45.06227" lon="0.74988">
        <ele>173.9</ele>
        <time>1970-01-01T01:54:39.000Z</time>
      </trkpt>
      <trkpt lat="45.06222" lon="0.74974">
        <ele>165.8</ele>
        <time>1970-01-01T01:54:40.000Z</time>
      </trkpt>
      <trkpt lat="45.06216" lon="0.74961">
        <ele>165.8</ele>
        <time>1970-01-01T01:54:41.000Z</time>
      </trkpt>
      <trkpt lat="45.0621" lon="0.74949">
        <ele>162.8</ele>
        <time>1970-01-01T01:54:42.000Z</time>
      </trkpt>
      <trkpt lat="45.06202" lon="0.74938">
        <ele>162.8</ele>
        <time>1970-01-01T01:54:43.000Z</time>
      </trkpt>
      <trkpt lat="45.06193" lon="0.7493">
        <ele>159.9</ele>
        <time>1970-01-01T01:54:44.000Z</time>
      </trkpt>
      <trkpt lat="45.06183" lon="0.74923">
        <ele>159.9</ele>
        <time>1970-01-01T01:54:45.000Z</time>
      </trkpt>
      <trkpt lat="45.06172" lon="0.74919">
        <ele>159.9</ele>
        <time>1970-01-01T01:54:46.000Z</time>
      </trkpt>
      <trkpt lat="45.06161" lon="0.74916">
        <ele>159.9</ele>
        <time>1970-01-01T01:54:47.000Z</time>
      </trkpt>
      <trkpt lat="45.06148" lon="0.74915">
        <ele>159.9</ele>
        <time>1970-01-01T01:54:48.000Z</time>
      </trkpt>
      <trkpt lat="45.06137" lon="0.74911">
        <ele>159.9</ele>
        <time>1970-01-01T01:54:49.000Z</time>
      </trkpt>
      <trkpt lat="45.06127" lon="0.74906">
        <ele>159.9</ele>
        <time>1970-01-01T01:54:50.000Z</time>
      </trkpt>
      <trkpt lat="45.06119" lon="0.74899">
        <ele>159.9</ele>
        <time>1970-01-01T01:54:51.000Z</time>
      </trkpt>
      <trkpt lat="45.06113" lon="0.7489">
        <ele>159.9</ele>
        <time>1970-01-01T01:54:52.000Z</time>
      </trkpt>
      <trkpt lat="45.0611" lon="0.74879">
        <ele>159.9</ele>
        <time>1970-01-01T01:54:53.000Z</time>
      </trkpt>
      <trkpt lat="45.06109" lon="0.74869">
        <ele>159.9</ele>
        <time>1970-01-01T01:54:54.000Z</time>
      </trkpt>
      <trkpt lat="45.06108" lon="0.74859">
        <ele>159.9</ele>
        <time>1970-01-01T01:54:55.000Z</time>
      </trkpt>
      <trkpt lat="45.06107" lon="0.74849">
        <ele>158.8</ele>
        <time>1970-01-01T01:54:56.000Z</time>
      </trkpt>
      <trkpt lat="45.06108" lon="0.74838">
        <ele>158.8</ele>
        <time>1970-01-01T01:54:57.000Z</time>
      </trkpt>
      <trkpt lat="45.06109" lon="0.74827">
        <ele>159.9</ele>
        <time>1970-01-01T01:54:58.000Z</time>
      </trkpt>
      <trkpt lat="45.0611" lon="0.74816">
        <ele>159.9</ele>
        <time>1970-01-01T01:54:59.000Z</time>
      </trkpt>
      <trkpt lat="45.06111" lon="0.74805">
        <ele>159.9</ele>
        <time>1970-01-01T01:55:00.000Z</time>
      </trkpt>
      <trkpt lat="45.06111" lon="0.74794">
        <ele>159.9</ele>
        <time>1970-01-01T01:55:01.000Z</time>
      </trkpt>
      <trkpt lat="45.06113" lon="0.74784">
        <ele>159.9</ele>
        <time>1970-01-01T01:55:02.000Z</time>
      </trkpt>
      <trkpt lat="45.06114" lon="0.74773">
        <ele>159.9</ele>
        <time>1970-01-01T01:55:03.000Z</time>
      </trkpt>
      <trkpt lat="45.06115" lon="0.74762">
        <ele>159.9</ele>
        <time>1970-01-01T01:55:04.000Z</time>
      </trkpt>
      <trkpt lat="45.06116" lon="0.74753">
        <ele>160.8</ele>
        <time>1970-01-01T01:55:05.000Z</time>
      </trkpt>
      <trkpt lat="45.06116" lon="0.74744">
        <ele>160.8</ele>
        <time>1970-01-01T01:55:06.000Z</time>
      </trkpt>
      <trkpt lat="45.06117" lon="0.74735">
        <ele>160.8</ele>
        <time>1970-01-01T01:55:07.000Z</time>
      </trkpt>
      <trkpt lat="45.06118" lon="0.74727">
        <ele>160.8</ele>
        <time>1970-01-01T01:55:08.000Z</time>
      </trkpt>
      <trkpt lat="45.06118" lon="0.7472">
        <ele>161.9</ele>
        <time>1970-01-01T01:55:09.000Z</time>
      </trkpt>
      <trkpt lat="45.06119" lon="0.74712">
        <ele>161.9</ele>
        <time>1970-01-01T01:55:10.000Z</time>
      </trkpt>
      <trkpt lat="45.06119" lon="0.74706">
        <ele>161.9</ele>
        <time>1970-01-01T01:55:11.000Z</time>
      </trkpt>
      <trkpt lat="45.0612" lon="0.74699">
        <ele>161.9</ele>
        <time>1970-01-01T01:55:12.000Z</time>
      </trkpt>
      <trkpt lat="45.06121" lon="0.74692">
        <ele>161.9</ele>
        <time>1970-01-01T01:55:13.000Z</time>
      </trkpt>
      <trkpt lat="45.06121" lon="0.74685">
        <ele>161.9</ele>
        <time>1970-01-01T01:55:14.000Z</time>
      </trkpt>
      <trkpt lat="45.06121" lon="0.74678">
        <ele>161.9</ele>
        <time>1970-01-01T01:55:15.000Z</time>
      </trkpt>
      <trkpt lat="45.06122" lon="0.74671">
        <ele>161.9</ele>
        <time>1970-01-01T01:55:16.000Z</time>
      </trkpt>
      <trkpt lat="45.06122" lon="0.74664">
        <ele>161.9</ele>
        <time>1970-01-01T01:55:17.000Z</time>
      </trkpt>
      <trkpt lat="45.06122" lon="0.74657">
        <ele>161.9</ele>
        <time>1970-01-01T01:55:18.000Z</time>
      </trkpt>
      <trkpt lat="45.06123" lon="0.7465">
        <ele>162.8</ele>
        <time>1970-01-01T01:55:19.000Z</time>
      </trkpt>
      <trkpt lat="45.06122" lon="0.74643">
        <ele>162.8</ele>
        <time>1970-01-01T01:55:20.000Z</time>
      </trkpt>
      <trkpt lat="45.06121" lon="0.74637">
        <ele>162.8</ele>
        <time>1970-01-01T01:55:21.000Z</time>
      </trkpt>
      <trkpt lat="45.06119" lon="0.74632">
        <ele>162.8</ele>
        <time>1970-01-01T01:55:22.000Z</time>
      </trkpt>
      <trkpt lat="45.06116" lon="0.74628">
        <ele>162.8</ele>
        <time>1970-01-01T01:55:23.000Z</time>
      </trkpt>
      <trkpt lat="45.06113" lon="0.74625">
        <ele>162.8</ele>
        <time>1970-01-01T01:55:24.000Z</time>
      </trkpt>
      <trkpt lat="45.06109" lon="0.74622">
        <ele>162.8</ele>
        <time>1970-01-01T01:55:25.000Z</time>
      </trkpt>
      <trkpt lat="45.06106" lon="0.7462">
        <ele>162.8</ele>
        <time>1970-01-01T01:55:26.000Z</time>
      </trkpt>
      <trkpt lat="45.06102" lon="0.74618">
        <ele>162.8</ele>
        <time>1970-01-01T01:55:27.000Z</time>
      </trkpt>
      <trkpt lat="45.06099" lon="0.74616">
        <ele>162.8</ele>
        <time>1970-01-01T01:55:28.000Z</time>
      </trkpt>
      <trkpt lat="45.06095" lon="0.74614">
        <ele>163.8</ele>
        <time>1970-01-01T01:55:29.000Z</time>
      </trkpt>
      <trkpt lat="45.06092" lon="0.74612">
        <ele>163.8</ele>
        <time>1970-01-01T01:55:30.000Z</time>
      </trkpt>
      <trkpt lat="45.06089" lon="0.74611">
        <ele>164.9</ele>
        <time>1970-01-01T01:55:31.000Z</time>
      </trkpt>
      <trkpt lat="45.06086" lon="0.74609">
        <ele>164.9</ele>
        <time>1970-01-01T01:55:32.000Z</time>
      </trkpt>
      <trkpt lat="45.06082" lon="0.74607">
        <ele>164.9</ele>
        <time>1970-01-01T01:55:33.000Z</time>
      </trkpt>
      <trkpt lat="45.06079" lon="0.74606">
        <ele>164.9</ele>
        <time>1970-01-01T01:55:34.000Z</time>
      </trkpt>
      <trkpt lat="45.06076" lon="0.74604">
        <ele>165.8</ele>
        <time>1970-01-01T01:55:35.000Z</time>
      </trkpt>
      <trkpt lat="45.06073" lon="0.74602">
        <ele>165.8</ele>
        <time>1970-01-01T01:55:36.000Z</time>
      </trkpt>
      <trkpt lat="45.0607" lon="0.74601">
        <ele>165.8</ele>
        <time>1970-01-01T01:55:37.000Z</time>
      </trkpt>
      <trkpt lat="45.06067" lon="0.746">
        <ele>165.8</ele>
        <time>1970-01-01T01:55:38.000Z</time>
      </trkpt>
      <trkpt lat="45.06064" lon="0.74598">
        <ele>165.8</ele>
        <time>1970-01-01T01:55:39.000Z</time>
      </trkpt>
      <trkpt lat="45.06062" lon="0.74597">
        <ele>165.8</ele>
        <time>1970-01-01T01:55:40.000Z</time>
      </trkpt>
      <trkpt lat="45.06059" lon="0.74595">
        <ele>165.8</ele>
        <time>1970-01-01T01:55:41.000Z</time>
      </trkpt>
      <trkpt lat="45.06057" lon="0.74594">
        <ele>165.8</ele>
        <time>1970-01-01T01:55:42.000Z</time>
      </trkpt>
      <trkpt lat="45.06054" lon="0.74593">
        <ele>168.9</ele>
        <time>1970-01-01T01:55:43.000Z</time>
      </trkpt>
      <trkpt lat="45.06051" lon="0.74592">
        <ele>168.9</ele>
        <time>1970-01-01T01:55:44.000Z</time>
      </trkpt>
      <trkpt lat="45.06049" lon="0.74591">
        <ele>168.9</ele>
        <time>1970-01-01T01:55:45.000Z</time>
      </trkpt>
      <trkpt lat="45.06046" lon="0.74589">
        <ele>168.9</ele>
        <time>1970-01-01T01:55:46.000Z</time>
      </trkpt>
      <trkpt lat="45.06044" lon="0.74588">
        <ele>169.8</ele>
        <time>1970-01-01T01:55:47.000Z</time>
      </trkpt>
      <trkpt lat="45.06041" lon="0.74586">
        <ele>169.8</ele>
        <time>1970-01-01T01:55:48.000Z</time>
      </trkpt>
      <trkpt lat="45.06039" lon="0.74585">
        <ele>170.8</ele>
        <time>1970-01-01T01:55:49.000Z</time>
      </trkpt>
      <trkpt lat="45.06037" lon="0.74584">
        <ele>170.8</ele>
        <time>1970-01-01T01:55:50.000Z</time>
      </trkpt>
      <trkpt lat="45.06035" lon="0.74582">
        <ele>170.8</ele>
        <time>1970-01-01T01:55:51.000Z</time>
      </trkpt>
      <trkpt lat="45.06032" lon="0.74581">
        <ele>170.8</ele>
        <time>1970-01-01T01:55:52.000Z</time>
      </trkpt>
      <trkpt lat="45.0603" lon="0.7458">
        <ele>171.9</ele>
        <time>1970-01-01T01:55:53.000Z</time>
      </trkpt>
      <trkpt lat="45.06028" lon="0.74579">
        <ele>171.9</ele>
        <time>1970-01-01T01:55:54.000Z</time>
      </trkpt>
      <trkpt lat="45.06026" lon="0.74578">
        <ele>171.9</ele>
        <time>1970-01-01T01:55:55.000Z</time>
      </trkpt>
      <trkpt lat="45.06024" lon="0.74577">
        <ele>171.9</ele>
        <time>1970-01-01T01:55:56.000Z</time>
      </trkpt>
      <trkpt lat="45.06022" lon="0.74576">
        <ele>172.8</ele>
        <time>1970-01-01T01:55:57.000Z</time>
      </trkpt>
      <trkpt lat="45.0602" lon="0.74575">
        <ele>172.8</ele>
        <time>1970-01-01T01:55:58.000Z</time>
      </trkpt>
      <trkpt lat="45.06018" lon="0.74574">
        <ele>172.8</ele>
        <time>1970-01-01T01:55:59.000Z</time>
      </trkpt>
      <trkpt lat="45.06016" lon="0.74573">
        <ele>172.8</ele>
        <time>1970-01-01T01:56:00.000Z</time>
      </trkpt>
      <trkpt lat="45.06013" lon="0.74572">
        <ele>172.8</ele>
        <time>1970-01-01T01:56:01.000Z</time>
      </trkpt>
      <trkpt lat="45.06011" lon="0.74571">
        <ele>172.8</ele>
        <time>1970-01-01T01:56:02.000Z</time>
      </trkpt>
      <trkpt lat="45.06009" lon="0.7457">
        <ele>172.8</ele>
        <time>1970-01-01T01:56:03.000Z</time>
      </trkpt>
      <trkpt lat="45.06007" lon="0.74568">
        <ele>172.8</ele>
        <time>1970-01-01T01:56:04.000Z</time>
      </trkpt>
      <trkpt lat="45.06004" lon="0.74567">
        <ele>174.8</ele>
        <time>1970-01-01T01:56:05.000Z</time>
      </trkpt>
      <trkpt lat="45.06002" lon="0.74566">
        <ele>174.8</ele>
        <time>1970-01-01T01:56:06.000Z</time>
      </trkpt>
      <trkpt lat="45.06" lon="0.74564">
        <ele>176.8</ele>
        <time>1970-01-01T01:56:07.000Z</time>
      </trkpt>
      <trkpt lat="45.05998" lon="0.74563">
        <ele>176.8</ele>
        <time>1970-01-01T01:56:08.000Z</time>
      </trkpt>
      <trkpt lat="45.05995" lon="0.74562">
        <ele>176.8</ele>
        <time>1970-01-01T01:56:09.000Z</time>
      </trkpt>
      <trkpt lat="45.05993" lon="0.7456">
        <ele>176.8</ele>
        <time>1970-01-01T01:56:10.000Z</time>
      </trkpt>
      <trkpt lat="45.05991" lon="0.74558">
        <ele>176.8</ele>
        <time>1970-01-01T01:56:11.000Z</time>
      </trkpt>
      <trkpt lat="45.05989" lon="0.74556">
        <ele>176.8</ele>
        <time>1970-01-01T01:56:12.000Z</time>
      </trkpt>
      <trkpt lat="45.05987" lon="0.74554">
        <ele>176.8</ele>
        <time>1970-01-01T01:56:13.000Z</time>
      </trkpt>
      <trkpt lat="45.05985" lon="0.74552">
        <ele>176.8</ele>
        <time>1970-01-01T01:56:14.000Z</time>
      </trkpt>
      <trkpt lat="45.05982" lon="0.74551">
        <ele>176.8</ele>
        <time>1970-01-01T01:56:15.000Z</time>
      </trkpt>
      <trkpt lat="45.0598" lon="0.74549">
        <ele>176.8</ele>
        <time>1970-01-01T01:56:16.000Z</time>
      </trkpt>
      <trkpt lat="45.05979" lon="0.74548">
        <ele>177.9</ele>
        <time>1970-01-01T01:56:17.000Z</time>
      </trkpt>
      <trkpt lat="45.05976" lon="0.74547">
        <ele>177.9</ele>
        <time>1970-01-01T01:56:18.000Z</time>
      </trkpt>
      <trkpt lat="45.05974" lon="0.74546">
        <ele>177.9</ele>
        <time>1970-01-01T01:56:19.000Z</time>
      </trkpt>
      <trkpt lat="45.05972" lon="0.74544">
        <ele>177.9</ele>
        <time>1970-01-01T01:56:20.000Z</time>
      </trkpt>
      <trkpt lat="45.0597" lon="0.74543">
        <ele>177.9</ele>
        <time>1970-01-01T01:56:21.000Z</time>
      </trkpt>
      <trkpt lat="45.05967" lon="0.74541">
        <ele>177.9</ele>
        <time>1970-01-01T01:56:22.000Z</time>
      </trkpt>
      <trkpt lat="45.05965" lon="0.7454">
        <ele>178.8</ele>
        <time>1970-01-01T01:56:23.000Z</time>
      </trkpt>
      <trkpt lat="45.05963" lon="0.74539">
        <ele>178.8</ele>
        <time>1970-01-01T01:56:24.000Z</time>
      </trkpt>
      <trkpt lat="45.05961" lon="0.74537">
        <ele>178.8</ele>
        <time>1970-01-01T01:56:25.000Z</time>
      </trkpt>
      <trkpt lat="45.05959" lon="0.74536">
        <ele>178.8</ele>
        <time>1970-01-01T01:56:26.000Z</time>
      </trkpt>
      <trkpt lat="45.05957" lon="0.74535">
        <ele>179.8</ele>
        <time>1970-01-01T01:56:27.000Z</time>
      </trkpt>
      <trkpt lat="45.05955" lon="0.74534">
        <ele>179.8</ele>
        <time>1970-01-01T01:56:28.000Z</time>
      </trkpt>
      <trkpt lat="45.05952" lon="0.74532">
        <ele>179.8</ele>
        <time>1970-01-01T01:56:29.000Z</time>
      </trkpt>
      <trkpt lat="45.0595" lon="0.74531">
        <ele>179.8</ele>
        <time>1970-01-01T01:56:30.000Z</time>
      </trkpt>
      <trkpt lat="45.05948" lon="0.7453">
        <ele>180.9</ele>
        <time>1970-01-01T01:56:31.000Z</time>
      </trkpt>
      <trkpt lat="45.05946" lon="0.74528">
        <ele>180.9</ele>
        <time>1970-01-01T01:56:32.000Z</time>
      </trkpt>
      <trkpt lat="45.05944" lon="0.74527">
        <ele>180.9</ele>
        <time>1970-01-01T01:56:33.000Z</time>
      </trkpt>
      <trkpt lat="45.05941" lon="0.74526">
        <ele>180.9</ele>
        <time>1970-01-01T01:56:34.000Z</time>
      </trkpt>
      <trkpt lat="45.05939" lon="0.74525">
        <ele>180.9</ele>
        <time>1970-01-01T01:56:35.000Z</time>
      </trkpt>
      <trkpt lat="45.05937" lon="0.74524">
        <ele>180.9</ele>
        <time>1970-01-01T01:56:36.000Z</time>
      </trkpt>
      <trkpt lat="45.05934" lon="0.74523">
        <ele>181.8</ele>
        <time>1970-01-01T01:56:37.000Z</time>
      </trkpt>
      <trkpt lat="45.05932" lon="0.74522">
        <ele>181.8</ele>
        <time>1970-01-01T01:56:38.000Z</time>
      </trkpt>
      <trkpt lat="45.05929" lon="0.7452">
        <ele>181.8</ele>
        <time>1970-01-01T01:56:39.000Z</time>
      </trkpt>
      <trkpt lat="45.05927" lon="0.74519">
        <ele>181.8</ele>
        <time>1970-01-01T01:56:40.000Z</time>
      </trkpt>
      <trkpt lat="45.05924" lon="0.74517">
        <ele>181.8</ele>
        <time>1970-01-01T01:56:41.000Z</time>
      </trkpt>
      <trkpt lat="45.05921" lon="0.74516">
        <ele>181.8</ele>
        <time>1970-01-01T01:56:42.000Z</time>
      </trkpt>
      <trkpt lat="45.05918" lon="0.74514">
        <ele>182.9</ele>
        <time>1970-01-01T01:56:43.000Z</time>
      </trkpt>
      <trkpt lat="45.05915" lon="0.74512">
        <ele>182.9</ele>
        <time>1970-01-01T01:56:44.000Z</time>
      </trkpt>
      <trkpt lat="45.05911" lon="0.7451">
        <ele>182.9</ele>
        <time>1970-01-01T01:56:45.000Z</time>
      </trkpt>
      <trkpt lat="45.05908" lon="0.74508">
        <ele>182.9</ele>
        <time>1970-01-01T01:56:46.000Z</time>
      </trkpt>
      <trkpt lat="45.05904" lon="0.74506">
        <ele>183.8</ele>
        <time>1970-01-01T01:56:47.000Z</time>
      </trkpt>
      <trkpt lat="45.059" lon="0.74504">
        <ele>183.8</ele>
        <time>1970-01-01T01:56:48.000Z</time>
      </trkpt>
      <trkpt lat="45.05896" lon="0.74503">
        <ele>183.8</ele>
        <time>1970-01-01T01:56:49.000Z</time>
      </trkpt>
      <trkpt lat="45.05892" lon="0.745">
        <ele>183.8</ele>
        <time>1970-01-01T01:56:50.000Z</time>
      </trkpt>
      <trkpt lat="45.05888" lon="0.74498">
        <ele>183.8</ele>
        <time>1970-01-01T01:56:51.000Z</time>
      </trkpt>
      <trkpt lat="45.05884" lon="0.74495">
        <ele>183.8</ele>
        <time>1970-01-01T01:56:52.000Z</time>
      </trkpt>
      <trkpt lat="45.0588" lon="0.74491">
        <ele>183.8</ele>
        <time>1970-01-01T01:56:53.000Z</time>
      </trkpt>
      <trkpt lat="45.05874" lon="0.74486">
        <ele>183.8</ele>
        <time>1970-01-01T01:56:54.000Z</time>
      </trkpt>
      <trkpt lat="45.05869" lon="0.74482">
        <ele>180.9</ele>
        <time>1970-01-01T01:56:55.000Z</time>
      </trkpt>
      <trkpt lat="45.05863" lon="0.74477">
        <ele>180.9</ele>
        <time>1970-01-01T01:56:56.000Z</time>
      </trkpt>
      <trkpt lat="45.05857" lon="0.74473">
        <ele>179.8</ele>
        <time>1970-01-01T01:56:57.000Z</time>
      </trkpt>
      <trkpt lat="45.0585" lon="0.74469">
        <ele>179.8</ele>
        <time>1970-01-01T01:56:58.000Z</time>
      </trkpt>
      <trkpt lat="45.05843" lon="0.74465">
        <ele>178.8</ele>
        <time>1970-01-01T01:56:59.000Z</time>
      </trkpt>
      <trkpt lat="45.05836" lon="0.74462">
        <ele>178.8</ele>
        <time>1970-01-01T01:57:00.000Z</time>
      </trkpt>
      <trkpt lat="45.0583" lon="0.74459">
        <ele>178.8</ele>
        <time>1970-01-01T01:57:01.000Z</time>
      </trkpt>
      <trkpt lat="45.05825" lon="0.74457">
        <ele>178.8</ele>
        <time>1970-01-01T01:57:02.000Z</time>
      </trkpt>
      <trkpt lat="45.0582" lon="0.74454">
        <ele>178.8</ele>
        <time>1970-01-01T01:57:03.000Z</time>
      </trkpt>
      <trkpt lat="45.05814" lon="0.74452">
        <ele>178.8</ele>
        <time>1970-01-01T01:57:04.000Z</time>
      </trkpt>
      <trkpt lat="45.0581" lon="0.74449">
        <ele>178.8</ele>
        <time>1970-01-01T01:57:05.000Z</time>
      </trkpt>
      <trkpt lat="45.05805" lon="0.74447">
        <ele>178.8</ele>
        <time>1970-01-01T01:57:06.000Z</time>
      </trkpt>
      <trkpt lat="45.058" lon="0.74445">
        <ele>178.8</ele>
        <time>1970-01-01T01:57:07.000Z</time>
      </trkpt>
      <trkpt lat="45.05796" lon="0.74443">
        <ele>178.8</ele>
        <time>1970-01-01T01:57:08.000Z</time>
      </trkpt>
      <trkpt lat="45.05791" lon="0.7444">
        <ele>179.8</ele>
        <time>1970-01-01T01:57:09.000Z</time>
      </trkpt>
      <trkpt lat="45.05786" lon="0.74438">
        <ele>179.8</ele>
        <time>1970-01-01T01:57:10.000Z</time>
      </trkpt>
      <trkpt lat="45.05782" lon="0.74436">
        <ele>179.8</ele>
        <time>1970-01-01T01:57:11.000Z</time>
      </trkpt>
      <trkpt lat="45.05777" lon="0.74434">
        <ele>179.8</ele>
        <time>1970-01-01T01:57:12.000Z</time>
      </trkpt>
      <trkpt lat="45.05773" lon="0.74431">
        <ele>180.9</ele>
        <time>1970-01-01T01:57:13.000Z</time>
      </trkpt>
      <trkpt lat="45.05768" lon="0.74429">
        <ele>180.9</ele>
        <time>1970-01-01T01:57:14.000Z</time>
      </trkpt>
      <trkpt lat="45.05763" lon="0.74426">
        <ele>180.9</ele>
        <time>1970-01-01T01:57:15.000Z</time>
      </trkpt>
      <trkpt lat="45.05758" lon="0.74423">
        <ele>180.9</ele>
        <time>1970-01-01T01:57:16.000Z</time>
      </trkpt>
      <trkpt lat="45.05753" lon="0.7442">
        <ele>180.9</ele>
        <time>1970-01-01T01:57:17.000Z</time>
      </trkpt>
      <trkpt lat="45.05748" lon="0.74418">
        <ele>180.9</ele>
        <time>1970-01-01T01:57:18.000Z</time>
      </trkpt>
      <trkpt lat="45.05743" lon="0.74415">
        <ele>180.9</ele>
        <time>1970-01-01T01:57:19.000Z</time>
      </trkpt>
      <trkpt lat="45.05738" lon="0.74412">
        <ele>180.9</ele>
        <time>1970-01-01T01:57:20.000Z</time>
      </trkpt>
      <trkpt lat="45.05733" lon="0.74409">
        <ele>180.9</ele>
        <time>1970-01-01T01:57:21.000Z</time>
      </trkpt>
      <trkpt lat="45.05728" lon="0.74406">
        <ele>180.9</ele>
        <time>1970-01-01T01:57:22.000Z</time>
      </trkpt>
      <trkpt lat="45.05723" lon="0.74402">
        <ele>179.8</ele>
        <time>1970-01-01T01:57:23.000Z</time>
      </trkpt>
      <trkpt lat="45.05718" lon="0.74399">
        <ele>179.8</ele>
        <time>1970-01-01T01:57:24.000Z</time>
      </trkpt>
      <trkpt lat="45.05713" lon="0.74394">
        <ele>178.8</ele>
        <time>1970-01-01T01:57:25.000Z</time>
      </trkpt>
      <trkpt lat="45.0571" lon="0.74389">
        <ele>178.8</ele>
        <time>1970-01-01T01:57:26.000Z</time>
      </trkpt>
      <trkpt lat="45.05708" lon="0.74383">
        <ele>178.8</ele>
        <time>1970-01-01T01:57:27.000Z</time>
      </trkpt>
      <trkpt lat="45.05708" lon="0.74377">
        <ele>178.8</ele>
        <time>1970-01-01T01:57:28.000Z</time>
      </trkpt>
      <trkpt lat="45.05709" lon="0.74371">
        <ele>178.8</ele>
        <time>1970-01-01T01:57:29.000Z</time>
      </trkpt>
      <trkpt lat="45.0571" lon="0.74365">
        <ele>178.8</ele>
        <time>1970-01-01T01:57:30.000Z</time>
      </trkpt>
      <trkpt lat="45.05711" lon="0.74359">
        <ele>178.8</ele>
        <time>1970-01-01T01:57:31.000Z</time>
      </trkpt>
      <trkpt lat="45.05712" lon="0.74353">
        <ele>178.8</ele>
        <time>1970-01-01T01:57:32.000Z</time>
      </trkpt>
      <trkpt lat="45.05714" lon="0.74347">
        <ele>179.8</ele>
        <time>1970-01-01T01:57:33.000Z</time>
      </trkpt>
      <trkpt lat="45.05715" lon="0.74341">
        <ele>179.8</ele>
        <time>1970-01-01T01:57:34.000Z</time>
      </trkpt>
      <trkpt lat="45.05715" lon="0.74336">
        <ele>180.9</ele>
        <time>1970-01-01T01:57:35.000Z</time>
      </trkpt>
      <trkpt lat="45.05714" lon="0.74332">
        <ele>180.9</ele>
        <time>1970-01-01T01:57:36.000Z</time>
      </trkpt>
      <trkpt lat="45.05711" lon="0.74328">
        <ele>180.9</ele>
        <time>1970-01-01T01:57:37.000Z</time>
      </trkpt>
      <trkpt lat="45.05708" lon="0.74325">
        <ele>180.9</ele>
        <time>1970-01-01T01:57:38.000Z</time>
      </trkpt>
      <trkpt lat="45.05703" lon="0.74324">
        <ele>179.8</ele>
        <time>1970-01-01T01:57:39.000Z</time>
      </trkpt>
      <trkpt lat="45.05699" lon="0.74322">
        <ele>179.8</ele>
        <time>1970-01-01T01:57:40.000Z</time>
      </trkpt>
      <trkpt lat="45.05694" lon="0.7432">
        <ele>179.8</ele>
        <time>1970-01-01T01:57:41.000Z</time>
      </trkpt>
      <trkpt lat="45.05689" lon="0.74318">
        <ele>179.8</ele>
        <time>1970-01-01T01:57:42.000Z</time>
      </trkpt>
      <trkpt lat="45.05683" lon="0.74315">
        <ele>178.8</ele>
        <time>1970-01-01T01:57:43.000Z</time>
      </trkpt>
      <trkpt lat="45.05677" lon="0.74313">
        <ele>178.8</ele>
        <time>1970-01-01T01:57:44.000Z</time>
      </trkpt>
      <trkpt lat="45.05671" lon="0.74311">
        <ele>178.8</ele>
        <time>1970-01-01T01:57:45.000Z</time>
      </trkpt>
      <trkpt lat="45.05665" lon="0.74309">
        <ele>178.8</ele>
        <time>1970-01-01T01:57:46.000Z</time>
      </trkpt>
      <trkpt lat="45.05659" lon="0.74307">
        <ele>178.8</ele>
        <time>1970-01-01T01:57:47.000Z</time>
      </trkpt>
      <trkpt lat="45.05652" lon="0.74305">
        <ele>178.8</ele>
        <time>1970-01-01T01:57:48.000Z</time>
      </trkpt>
      <trkpt lat="45.05646" lon="0.74303">
        <ele>177.9</ele>
        <time>1970-01-01T01:57:49.000Z</time>
      </trkpt>
      <trkpt lat="45.0564" lon="0.74302">
        <ele>177.9</ele>
        <time>1970-01-01T01:57:50.000Z</time>
      </trkpt>
      <trkpt lat="45.05633" lon="0.74302">
        <ele>176.8</ele>
        <time>1970-01-01T01:57:51.000Z</time>
      </trkpt>
      <trkpt lat="45.05627" lon="0.74302">
        <ele>176.8</ele>
        <time>1970-01-01T01:57:52.000Z</time>
      </trkpt>
      <trkpt lat="45.0562" lon="0.74302">
        <ele>176.8</ele>
        <time>1970-01-01T01:57:53.000Z</time>
      </trkpt>
      <trkpt lat="45.05614" lon="0.74304">
        <ele>176.8</ele>
        <time>1970-01-01T01:57:54.000Z</time>
      </trkpt>
      <trkpt lat="45.05607" lon="0.74305">
        <ele>176.8</ele>
        <time>1970-01-01T01:57:55.000Z</time>
      </trkpt>
      <trkpt lat="45.056" lon="0.74306">
        <ele>176.8</ele>
        <time>1970-01-01T01:57:56.000Z</time>
      </trkpt>
      <trkpt lat="45.05592" lon="0.74307">
        <ele>176.8</ele>
        <time>1970-01-01T01:57:57.000Z</time>
      </trkpt>
      <trkpt lat="45.05585" lon="0.74307">
        <ele>176.8</ele>
        <time>1970-01-01T01:57:58.000Z</time>
      </trkpt>
      <trkpt lat="45.05578" lon="0.74307">
        <ele>172.8</ele>
        <time>1970-01-01T01:57:59.000Z</time>
      </trkpt>
      <trkpt lat="45.05572" lon="0.74307">
        <ele>172.8</ele>
        <time>1970-01-01T01:58:00.000Z</time>
      </trkpt>
      <trkpt lat="45.05563" lon="0.74307">
        <ele>172.8</ele>
        <time>1970-01-01T01:58:01.000Z</time>
      </trkpt>
      <trkpt lat="45.05555" lon="0.74307">
        <ele>172.8</ele>
        <time>1970-01-01T01:58:02.000Z</time>
      </trkpt>
      <trkpt lat="45.05547" lon="0.74306">
        <ele>172.8</ele>
        <time>1970-01-01T01:58:03.000Z</time>
      </trkpt>
      <trkpt lat="45.05539" lon="0.74304">
        <ele>172.8</ele>
        <time>1970-01-01T01:58:04.000Z</time>
      </trkpt>
      <trkpt lat="45.05531" lon="0.74303">
        <ele>168.9</ele>
        <time>1970-01-01T01:58:05.000Z</time>
      </trkpt>
      <trkpt lat="45.05523" lon="0.74302">
        <ele>168.9</ele>
        <time>1970-01-01T01:58:06.000Z</time>
      </trkpt>
      <trkpt lat="45.05516" lon="0.74301">
        <ele>167.8</ele>
        <time>1970-01-01T01:58:07.000Z</time>
      </trkpt>
      <trkpt lat="45.05508" lon="0.74301">
        <ele>167.8</ele>
        <time>1970-01-01T01:58:08.000Z</time>
      </trkpt>
      <trkpt lat="45.055" lon="0.74302">
        <ele>166.9</ele>
        <time>1970-01-01T01:58:09.000Z</time>
      </trkpt>
      <trkpt lat="45.05492" lon="0.74303">
        <ele>166.9</ele>
        <time>1970-01-01T01:58:10.000Z</time>
      </trkpt>
      <trkpt lat="45.05484" lon="0.74305">
        <ele>166.9</ele>
        <time>1970-01-01T01:58:11.000Z</time>
      </trkpt>
      <trkpt lat="45.05475" lon="0.74307">
        <ele>166.9</ele>
        <time>1970-01-01T01:58:12.000Z</time>
      </trkpt>
      <trkpt lat="45.05467" lon="0.74308">
        <ele>165.8</ele>
        <time>1970-01-01T01:58:13.000Z</time>
      </trkpt>
      <trkpt lat="45.05459" lon="0.7431">
        <ele>165.8</ele>
        <time>1970-01-01T01:58:14.000Z</time>
      </trkpt>
      <trkpt lat="45.0545" lon="0.7431">
        <ele>165.8</ele>
        <time>1970-01-01T01:58:15.000Z</time>
      </trkpt>
      <trkpt lat="45.05442" lon="0.7431">
        <ele>165.8</ele>
        <time>1970-01-01T01:58:16.000Z</time>
      </trkpt>
      <trkpt lat="45.05433" lon="0.74311">
        <ele>163.8</ele>
        <time>1970-01-01T01:58:17.000Z</time>
      </trkpt>
      <trkpt lat="45.05425" lon="0.74311">
        <ele>163.8</ele>
        <time>1970-01-01T01:58:18.000Z</time>
      </trkpt>
      <trkpt lat="45.05417" lon="0.74311">
        <ele>162.8</ele>
        <time>1970-01-01T01:58:19.000Z</time>
      </trkpt>
      <trkpt lat="45.05408" lon="0.74311">
        <ele>162.8</ele>
        <time>1970-01-01T01:58:20.000Z</time>
      </trkpt>
      <trkpt lat="45.054" lon="0.74312">
        <ele>160.8</ele>
        <time>1970-01-01T01:58:21.000Z</time>
      </trkpt>
      <trkpt lat="45.05391" lon="0.74313">
        <ele>160.8</ele>
        <time>1970-01-01T01:58:22.000Z</time>
      </trkpt>
      <trkpt lat="45.05383" lon="0.74313">
        <ele>159.9</ele>
        <time>1970-01-01T01:58:23.000Z</time>
      </trkpt>
      <trkpt lat="45.05374" lon="0.74312">
        <ele>159.9</ele>
        <time>1970-01-01T01:58:24.000Z</time>
      </trkpt>
      <trkpt lat="45.05366" lon="0.74311">
        <ele>158.8</ele>
        <time>1970-01-01T01:58:25.000Z</time>
      </trkpt>
      <trkpt lat="45.05357" lon="0.74309">
        <ele>158.8</ele>
        <time>1970-01-01T01:58:26.000Z</time>
      </trkpt>
      <trkpt lat="45.05349" lon="0.74307">
        <ele>157.9</ele>
        <time>1970-01-01T01:58:27.000Z</time>
      </trkpt>
      <trkpt lat="45.05341" lon="0.74304">
        <ele>157.9</ele>
        <time>1970-01-01T01:58:28.000Z</time>
      </trkpt>
      <trkpt lat="45.05333" lon="0.74301">
        <ele>156.8</ele>
        <time>1970-01-01T01:58:29.000Z</time>
      </trkpt>
      <trkpt lat="45.05326" lon="0.74299">
        <ele>156.8</ele>
        <time>1970-01-01T01:58:30.000Z</time>
      </trkpt>
      <trkpt lat="45.05318" lon="0.74297">
        <ele>154.8</ele>
        <time>1970-01-01T01:58:31.000Z</time>
      </trkpt>
      <trkpt lat="45.0531" lon="0.74297">
        <ele>154.8</ele>
        <time>1970-01-01T01:58:32.000Z</time>
      </trkpt>
      <trkpt lat="45.05303" lon="0.74298">
        <ele>153.8</ele>
        <time>1970-01-01T01:58:33.000Z</time>
      </trkpt>
      <trkpt lat="45.05296" lon="0.743">
        <ele>153.8</ele>
        <time>1970-01-01T01:58:34.000Z</time>
      </trkpt>
      <trkpt lat="45.05289" lon="0.74302">
        <ele>153.8</ele>
        <time>1970-01-01T01:58:35.000Z</time>
      </trkpt>
      <trkpt lat="45.05283" lon="0.74306">
        <ele>153.8</ele>
        <time>1970-01-01T01:58:36.000Z</time>
      </trkpt>
      <trkpt lat="45.05277" lon="0.7431">
        <ele>155.9</ele>
        <time>1970-01-01T01:58:37.000Z</time>
      </trkpt>
      <trkpt lat="45.05271" lon="0.74313">
        <ele>155.9</ele>
        <time>1970-01-01T01:58:38.000Z</time>
      </trkpt>
      <trkpt lat="45.05265" lon="0.74317">
        <ele>155.9</ele>
        <time>1970-01-01T01:58:39.000Z</time>
      </trkpt>
      <trkpt lat="45.05259" lon="0.74321">
        <ele>155.9</ele>
        <time>1970-01-01T01:58:40.000Z</time>
      </trkpt>
      <trkpt lat="45.05254" lon="0.74324">
        <ele>155.9</ele>
        <time>1970-01-01T01:58:41.000Z</time>
      </trkpt>
      <trkpt lat="45.05248" lon="0.74326">
        <ele>155.9</ele>
        <time>1970-01-01T01:58:42.000Z</time>
      </trkpt>
      <trkpt lat="45.05242" lon="0.74328">
        <ele>155.9</ele>
        <time>1970-01-01T01:58:43.000Z</time>
      </trkpt>
      <trkpt lat="45.05236" lon="0.74329">
        <ele>155.9</ele>
        <time>1970-01-01T01:58:44.000Z</time>
      </trkpt>
      <trkpt lat="45.05229" lon="0.74329">
        <ele>155.9</ele>
        <time>1970-01-01T01:58:45.000Z</time>
      </trkpt>
      <trkpt lat="45.05223" lon="0.74329">
        <ele>155.9</ele>
        <time>1970-01-01T01:58:46.000Z</time>
      </trkpt>
      <trkpt lat="45.05217" lon="0.74329">
        <ele>155.9</ele>
        <time>1970-01-01T01:58:47.000Z</time>
      </trkpt>
      <trkpt lat="45.0521" lon="0.74328">
        <ele>155.9</ele>
        <time>1970-01-01T01:58:48.000Z</time>
      </trkpt>
      <trkpt lat="45.05203" lon="0.74328">
        <ele>154.8</ele>
        <time>1970-01-01T01:58:49.000Z</time>
      </trkpt>
      <trkpt lat="45.05197" lon="0.74327">
        <ele>154.8</ele>
        <time>1970-01-01T01:58:50.000Z</time>
      </trkpt>
      <trkpt lat="45.0519" lon="0.74326">
        <ele>154.8</ele>
        <time>1970-01-01T01:58:51.000Z</time>
      </trkpt>
      <trkpt lat="45.05183" lon="0.74325">
        <ele>154.8</ele>
        <time>1970-01-01T01:58:52.000Z</time>
      </trkpt>
      <trkpt lat="45.05176" lon="0.74324">
        <ele>154.8</ele>
        <time>1970-01-01T01:58:53.000Z</time>
      </trkpt>
      <trkpt lat="45.05169" lon="0.74323">
        <ele>154.8</ele>
        <time>1970-01-01T01:58:54.000Z</time>
      </trkpt>
      <trkpt lat="45.05162" lon="0.74322">
        <ele>153.8</ele>
        <time>1970-01-01T01:58:55.000Z</time>
      </trkpt>
      <trkpt lat="45.05156" lon="0.74321">
        <ele>153.8</ele>
        <time>1970-01-01T01:58:56.000Z</time>
      </trkpt>
      <trkpt lat="45.05149" lon="0.74321">
        <ele>153.8</ele>
        <time>1970-01-01T01:58:57.000Z</time>
      </trkpt>
      <trkpt lat="45.05142" lon="0.74321">
        <ele>153.8</ele>
        <time>1970-01-01T01:58:58.000Z</time>
      </trkpt>
      <trkpt lat="45.05134" lon="0.74321">
        <ele>153.8</ele>
        <time>1970-01-01T01:58:59.000Z</time>
      </trkpt>
      <trkpt lat="45.05127" lon="0.74322">
        <ele>152.9</ele>
        <time>1970-01-01T01:59:00.000Z</time>
      </trkpt>
      <trkpt lat="45.0512" lon="0.74323">
        <ele>152.9</ele>
        <time>1970-01-01T01:59:01.000Z</time>
      </trkpt>
      <trkpt lat="45.05113" lon="0.74326">
        <ele>152.9</ele>
        <time>1970-01-01T01:59:02.000Z</time>
      </trkpt>
      <trkpt lat="45.05105" lon="0.74329">
        <ele>152.9</ele>
        <time>1970-01-01T01:59:03.000Z</time>
      </trkpt>
      <trkpt lat="45.05098" lon="0.74334">
        <ele>152.9</ele>
        <time>1970-01-01T01:59:04.000Z</time>
      </trkpt>
      <trkpt lat="45.05091" lon="0.74338">
        <ele>151.8</ele>
        <time>1970-01-01T01:59:05.000Z</time>
      </trkpt>
      <trkpt lat="45.05084" lon="0.74344">
        <ele>151.8</ele>
        <time>1970-01-01T01:59:06.000Z</time>
      </trkpt>
      <trkpt lat="45.05077" lon="0.74349">
        <ele>151.8</ele>
        <time>1970-01-01T01:59:07.000Z</time>
      </trkpt>
      <trkpt lat="45.05071" lon="0.74353">
        <ele>151.8</ele>
        <time>1970-01-01T01:59:08.000Z</time>
      </trkpt>
      <trkpt lat="45.05064" lon="0.74357">
        <ele>151.8</ele>
        <time>1970-01-01T01:59:09.000Z</time>
      </trkpt>
      <trkpt lat="45.05058" lon="0.74361">
        <ele>151.8</ele>
        <time>1970-01-01T01:59:10.000Z</time>
      </trkpt>
      <trkpt lat="45.05051" lon="0.74364">
        <ele>150.9</ele>
        <time>1970-01-01T01:59:11.000Z</time>
      </trkpt>
      <trkpt lat="45.05045" lon="0.74365">
        <ele>150.9</ele>
        <time>1970-01-01T01:59:12.000Z</time>
      </trkpt>
      <trkpt lat="45.05038" lon="0.74366">
        <ele>150.9</ele>
        <time>1970-01-01T01:59:13.000Z</time>
      </trkpt>
      <trkpt lat="45.05032" lon="0.74367">
        <ele>150.9</ele>
        <time>1970-01-01T01:59:14.000Z</time>
      </trkpt>
      <trkpt lat="45.05025" lon="0.74367">
        <ele>150.9</ele>
        <time>1970-01-01T01:59:15.000Z</time>
      </trkpt>
      <trkpt lat="45.05018" lon="0.74367">
        <ele>150.9</ele>
        <time>1970-01-01T01:59:16.000Z</time>
      </trkpt>
      <trkpt lat="45.05011" lon="0.74367">
        <ele>150.9</ele>
        <time>1970-01-01T01:59:17.000Z</time>
      </trkpt>
      <trkpt lat="45.05004" lon="0.74366">
        <ele>150.9</ele>
        <time>1970-01-01T01:59:18.000Z</time>
      </trkpt>
      <trkpt lat="45.04997" lon="0.74363">
        <ele>150.9</ele>
        <time>1970-01-01T01:59:19.000Z</time>
      </trkpt>
      <trkpt lat="45.04991" lon="0.74359">
        <ele>150.9</ele>
        <time>1970-01-01T01:59:20.000Z</time>
      </trkpt>
      <trkpt lat="45.04985" lon="0.74354">
        <ele>150.9</ele>
        <time>1970-01-01T01:59:21.000Z</time>
      </trkpt>
      <trkpt lat="45.0498" lon="0.74349">
        <ele>150.9</ele>
        <time>1970-01-01T01:59:22.000Z</time>
      </trkpt>
      <trkpt lat="45.04974" lon="0.74343">
        <ele>149.8</ele>
        <time>1970-01-01T01:59:23.000Z</time>
      </trkpt>
      <trkpt lat="45.04969" lon="0.74338">
        <ele>149.8</ele>
        <time>1970-01-01T01:59:24.000Z</time>
      </trkpt>
      <trkpt lat="45.04964" lon="0.74331">
        <ele>148.9</ele>
        <time>1970-01-01T01:59:25.000Z</time>
      </trkpt>
      <trkpt lat="45.04958" lon="0.74325">
        <ele>148.9</ele>
        <time>1970-01-01T01:59:26.000Z</time>
      </trkpt>
      <trkpt lat="45.04952" lon="0.74321">
        <ele>147.8</ele>
        <time>1970-01-01T01:59:27.000Z</time>
      </trkpt>
      <trkpt lat="45.04947" lon="0.74317">
        <ele>147.8</ele>
        <time>1970-01-01T01:59:28.000Z</time>
      </trkpt>
      <trkpt lat="45.04941" lon="0.74314">
        <ele>147.8</ele>
        <time>1970-01-01T01:59:29.000Z</time>
      </trkpt>
      <trkpt lat="45.04936" lon="0.74311">
        <ele>146.8</ele>
        <time>1970-01-01T01:59:30.000Z</time>
      </trkpt>
      <trkpt lat="45.0493" lon="0.74309">
        <ele>146.8</ele>
        <time>1970-01-01T01:59:31.000Z</time>
      </trkpt>
      <trkpt lat="45.04924" lon="0.74306">
        <ele>146.8</ele>
        <time>1970-01-01T01:59:32.000Z</time>
      </trkpt>
      <trkpt lat="45.04919" lon="0.74303">
        <ele>145.8</ele>
        <time>1970-01-01T01:59:33.000Z</time>
      </trkpt>
      <trkpt lat="45.04914" lon="0.74299">
        <ele>145.8</ele>
        <time>1970-01-01T01:59:34.000Z</time>
      </trkpt>
      <trkpt lat="45.04908" lon="0.74294">
        <ele>145.8</ele>
        <time>1970-01-01T01:59:35.000Z</time>
      </trkpt>
      <trkpt lat="45.04902" lon="0.74288">
        <ele>144.8</ele>
        <time>1970-01-01T01:59:36.000Z</time>
      </trkpt>
      <trkpt lat="45.04897" lon="0.74282">
        <ele>144.8</ele>
        <time>1970-01-01T01:59:37.000Z</time>
      </trkpt>
      <trkpt lat="45.04893" lon="0.74274">
        <ele>144.8</ele>
        <time>1970-01-01T01:59:38.000Z</time>
      </trkpt>
      <trkpt lat="45.04888" lon="0.74266">
        <ele>144.8</ele>
        <time>1970-01-01T01:59:39.000Z</time>
      </trkpt>
      <trkpt lat="45.04884" lon="0.74258">
        <ele>143.9</ele>
        <time>1970-01-01T01:59:40.000Z</time>
      </trkpt>
      <trkpt lat="45.04879" lon="0.74251">
        <ele>143.9</ele>
        <time>1970-01-01T01:59:41.000Z</time>
      </trkpt>
      <trkpt lat="45.04875" lon="0.74244">
        <ele>143.9</ele>
        <time>1970-01-01T01:59:42.000Z</time>
      </trkpt>
      <trkpt lat="45.04871" lon="0.74236">
        <ele>143.9</ele>
        <time>1970-01-01T01:59:43.000Z</time>
      </trkpt>
      <trkpt lat="45.04867" lon="0.74228">
        <ele>142.8</ele>
        <time>1970-01-01T01:59:44.000Z</time>
      </trkpt>
      <trkpt lat="45.04862" lon="0.7422">
        <ele>142.8</ele>
        <time>1970-01-01T01:59:45.000Z</time>
      </trkpt>
      <trkpt lat="45.04858" lon="0.74213">
        <ele>142.8</ele>
        <time>1970-01-01T01:59:46.000Z</time>
      </trkpt>
      <trkpt lat="45.04853" lon="0.74207">
        <ele>141.9</ele>
        <time>1970-01-01T01:59:47.000Z</time>
      </trkpt>
      <trkpt lat="45.04849" lon="0.742">
        <ele>141.9</ele>
        <time>1970-01-01T01:59:48.000Z</time>
      </trkpt>
      <trkpt lat="45.04844" lon="0.74193">
        <ele>141.9</ele>
        <time>1970-01-01T01:59:49.000Z</time>
      </trkpt>
      <trkpt lat="45.0484" lon="0.74186">
        <ele>140.8</ele>
        <time>1970-01-01T01:59:50.000Z</time>
      </trkpt>
      <trkpt lat="45.04835" lon="0.7418">
        <ele>140.8</ele>
        <time>1970-01-01T01:59:51.000Z</time>
      </trkpt>
      <trkpt lat="45.04831" lon="0.74173">
        <ele>139.9</ele>
        <time>1970-01-01T01:59:52.000Z</time>
      </trkpt>
      <trkpt lat="45.04826" lon="0.74166">
        <ele>139.9</ele>
        <time>1970-01-01T01:59:53.000Z</time>
      </trkpt>
      <trkpt lat="45.04822" lon="0.74159">
        <ele>139.9</ele>
        <time>1970-01-01T01:59:54.000Z</time>
      </trkpt>
      <trkpt lat="45.04818" lon="0.74153">
        <ele>138.8</ele>
        <time>1970-01-01T01:59:55.000Z</time>
      </trkpt>
      <trkpt lat="45.04813" lon="0.74147">
        <ele>138.8</ele>
        <time>1970-01-01T01:59:56.000Z</time>
      </trkpt>
      <trkpt lat="45.04807" lon="0.74143">
        <ele>138.8</ele>
        <time>1970-01-01T01:59:57.000Z</time>
      </trkpt>
      <trkpt lat="45.04801" lon="0.7414">
        <ele>138.8</ele>
        <time>1970-01-01T01:59:58.000Z</time>
      </trkpt>
      <trkpt lat="45.04795" lon="0.74138">
        <ele>138.8</ele>
        <time>1970-01-01T01:59:59.000Z</time>
      </trkpt>
      <trkpt lat="45.04789" lon="0.74138">
        <ele>138.8</ele>
        <time>1970-01-01T02:00:00.000Z</time>
      </trkpt>
      <trkpt lat="45.04782" lon="0.74137">
        <ele>138.8</ele>
        <time>1970-01-01T02:00:01.000Z</time>
      </trkpt>
      <trkpt lat="45.04776" lon="0.74137">
        <ele>138.8</ele>
        <time>1970-01-01T02:00:02.000Z</time>
      </trkpt>
      <trkpt lat="45.04769" lon="0.74137">
        <ele>138.8</ele>
        <time>1970-01-01T02:00:03.000Z</time>
      </trkpt>
      <trkpt lat="45.04762" lon="0.74138">
        <ele>138.8</ele>
        <time>1970-01-01T02:00:04.000Z</time>
      </trkpt>
      <trkpt lat="45.04755" lon="0.74138">
        <ele>137.8</ele>
        <time>1970-01-01T02:00:05.000Z</time>
      </trkpt>
      <trkpt lat="45.04748" lon="0.74138">
        <ele>137.8</ele>
        <time>1970-01-01T02:00:06.000Z</time>
      </trkpt>
      <trkpt lat="45.04742" lon="0.74137">
        <ele>137.8</ele>
        <time>1970-01-01T02:00:07.000Z</time>
      </trkpt>
      <trkpt lat="45.04735" lon="0.74136">
        <ele>137.8</ele>
        <time>1970-01-01T02:00:08.000Z</time>
      </trkpt>
      <trkpt lat="45.04729" lon="0.74135">
        <ele>137.8</ele>
        <time>1970-01-01T02:00:09.000Z</time>
      </trkpt>
      <trkpt lat="45.04722" lon="0.74134">
        <ele>137.8</ele>
        <time>1970-01-01T02:00:10.000Z</time>
      </trkpt>
      <trkpt lat="45.04716" lon="0.74132">
        <ele>137.8</ele>
        <time>1970-01-01T02:00:11.000Z</time>
      </trkpt>
      <trkpt lat="45.0471" lon="0.74128">
        <ele>137.8</ele>
        <time>1970-01-01T02:00:12.000Z</time>
      </trkpt>
      <trkpt lat="45.04704" lon="0.74125">
        <ele>136.9</ele>
        <time>1970-01-01T02:00:13.000Z</time>
      </trkpt>
      <trkpt lat="45.04699" lon="0.7412">
        <ele>136.9</ele>
        <time>1970-01-01T02:00:14.000Z</time>
      </trkpt>
      <trkpt lat="45.04694" lon="0.74114">
        <ele>136.9</ele>
        <time>1970-01-01T02:00:15.000Z</time>
      </trkpt>
      <trkpt lat="45.04689" lon="0.74108">
        <ele>136.9</ele>
        <time>1970-01-01T02:00:16.000Z</time>
      </trkpt>
      <trkpt lat="45.04684" lon="0.74101">
        <ele>136.9</ele>
        <time>1970-01-01T02:00:17.000Z</time>
      </trkpt>
      <trkpt lat="45.0468" lon="0.74094">
        <ele>136.9</ele>
        <time>1970-01-01T02:00:18.000Z</time>
      </trkpt>
      <trkpt lat="45.04676" lon="0.74087">
        <ele>135.8</ele>
        <time>1970-01-01T02:00:19.000Z</time>
      </trkpt>
      <trkpt lat="45.04672" lon="0.7408">
        <ele>135.8</ele>
        <time>1970-01-01T02:00:20.000Z</time>
      </trkpt>
      <trkpt lat="45.04668" lon="0.74073">
        <ele>135.8</ele>
        <time>1970-01-01T02:00:21.000Z</time>
      </trkpt>
      <trkpt lat="45.04665" lon="0.74066">
        <ele>135.8</ele>
        <time>1970-01-01T02:00:22.000Z</time>
      </trkpt>
      <trkpt lat="45.04661" lon="0.74058">
        <ele>135.8</ele>
        <time>1970-01-01T02:00:23.000Z</time>
      </trkpt>
      <trkpt lat="45.04657" lon="0.74051">
        <ele>135.8</ele>
        <time>1970-01-01T02:00:24.000Z</time>
      </trkpt>
      <trkpt lat="45.04653" lon="0.74043">
        <ele>135.8</ele>
        <time>1970-01-01T02:00:25.000Z</time>
      </trkpt>
      <trkpt lat="45.04649" lon="0.74036">
        <ele>135.8</ele>
        <time>1970-01-01T02:00:26.000Z</time>
      </trkpt>
      <trkpt lat="45.04644" lon="0.74029">
        <ele>135.8</ele>
        <time>1970-01-01T02:00:27.000Z</time>
      </trkpt>
      <trkpt lat="45.04639" lon="0.74023">
        <ele>135.8</ele>
        <time>1970-01-01T02:00:28.000Z</time>
      </trkpt>
      <trkpt lat="45.04634" lon="0.74017">
        <ele>134.9</ele>
        <time>1970-01-01T02:00:29.000Z</time>
      </trkpt>
      <trkpt lat="45.04629" lon="0.7401">
        <ele>134.9</ele>
        <time>1970-01-01T02:00:30.000Z</time>
      </trkpt>
      <trkpt lat="45.04624" lon="0.74005">
        <ele>134.9</ele>
        <time>1970-01-01T02:00:31.000Z</time>
      </trkpt>
      <trkpt lat="45.04618" lon="0.73999">
        <ele>134.9</ele>
        <time>1970-01-01T02:00:32.000Z</time>
      </trkpt>
      <trkpt lat="45.04612" lon="0.73992">
        <ele>133.8</ele>
        <time>1970-01-01T02:00:33.000Z</time>
      </trkpt>
      <trkpt lat="45.04607" lon="0.73986">
        <ele>133.8</ele>
        <time>1970-01-01T02:00:34.000Z</time>
      </trkpt>
      <trkpt lat="45.04602" lon="0.73979">
        <ele>133.8</ele>
        <time>1970-01-01T02:00:35.000Z</time>
      </trkpt>
      <trkpt lat="45.04597" lon="0.73973">
        <ele>133.8</ele>
        <time>1970-01-01T02:00:36.000Z</time>
      </trkpt>
      <trkpt lat="45.04593" lon="0.73965">
        <ele>133.8</ele>
        <time>1970-01-01T02:00:37.000Z</time>
      </trkpt>
      <trkpt lat="45.04588" lon="0.73958">
        <ele>133.8</ele>
        <time>1970-01-01T02:00:38.000Z</time>
      </trkpt>
      <trkpt lat="45.04584" lon="0.73951">
        <ele>133.8</ele>
        <time>1970-01-01T02:00:39.000Z</time>
      </trkpt>
      <trkpt lat="45.0458" lon="0.73943">
        <ele>133.8</ele>
        <time>1970-01-01T02:00:40.000Z</time>
      </trkpt>
      <trkpt lat="45.04576" lon="0.73935">
        <ele>133.8</ele>
        <time>1970-01-01T02:00:41.000Z</time>
      </trkpt>
      <trkpt lat="45.04572" lon="0.73927">
        <ele>133.8</ele>
        <time>1970-01-01T02:00:42.000Z</time>
      </trkpt>
      <trkpt lat="45.04569" lon="0.7392">
        <ele>131.8</ele>
        <time>1970-01-01T02:00:43.000Z</time>
      </trkpt>
      <trkpt lat="45.04565" lon="0.73912">
        <ele>131.8</ele>
        <time>1970-01-01T02:00:44.000Z</time>
      </trkpt>
      <trkpt lat="45.04562" lon="0.73904">
        <ele>130.8</ele>
        <time>1970-01-01T02:00:45.000Z</time>
      </trkpt>
      <trkpt lat="45.04558" lon="0.73897">
        <ele>130.8</ele>
        <time>1970-01-01T02:00:46.000Z</time>
      </trkpt>
      <trkpt lat="45.04555" lon="0.7389">
        <ele>130.8</ele>
        <time>1970-01-01T02:00:47.000Z</time>
      </trkpt>
      <trkpt lat="45.04551" lon="0.73882">
        <ele>130.8</ele>
        <time>1970-01-01T02:00:48.000Z</time>
      </trkpt>
      <trkpt lat="45.04548" lon="0.73874">
        <ele>130.8</ele>
        <time>1970-01-01T02:00:49.000Z</time>
      </trkpt>
      <trkpt lat="45.04545" lon="0.73866">
        <ele>130.8</ele>
        <time>1970-01-01T02:00:50.000Z</time>
      </trkpt>
      <trkpt lat="45.04542" lon="0.73858">
        <ele>130.8</ele>
        <time>1970-01-01T02:00:51.000Z</time>
      </trkpt>
      <trkpt lat="45.04539" lon="0.7385">
        <ele>130.8</ele>
        <time>1970-01-01T02:00:52.000Z</time>
      </trkpt>
      <trkpt lat="45.04536" lon="0.73842">
        <ele>130.8</ele>
        <time>1970-01-01T02:00:53.000Z</time>
      </trkpt>
      <trkpt lat="45.04532" lon="0.73834">
        <ele>130.8</ele>
        <time>1970-01-01T02:00:54.000Z</time>
      </trkpt>
      <trkpt lat="45.04529" lon="0.73826">
        <ele>130.8</ele>
        <time>1970-01-01T02:00:55.000Z</time>
      </trkpt>
      <trkpt lat="45.04526" lon="0.73818">
        <ele>130.8</ele>
        <time>1970-01-01T02:00:56.000Z</time>
      </trkpt>
      <trkpt lat="45.04523" lon="0.73811">
        <ele>130.8</ele>
        <time>1970-01-01T02:00:57.000Z</time>
      </trkpt>
      <trkpt lat="45.0452" lon="0.73803">
        <ele>130.8</ele>
        <time>1970-01-01T02:00:58.000Z</time>
      </trkpt>
      <trkpt lat="45.04517" lon="0.73795">
        <ele>130.8</ele>
        <time>1970-01-01T02:00:59.000Z</time>
      </trkpt>
      <trkpt lat="45.04514" lon="0.73787">
        <ele>130.8</ele>
        <time>1970-01-01T02:01:00.000Z</time>
      </trkpt>
      <trkpt lat="45.04511" lon="0.73779">
        <ele>130.8</ele>
        <time>1970-01-01T02:01:01.000Z</time>
      </trkpt>
      <trkpt lat="45.04508" lon="0.73771">
        <ele>130.8</ele>
        <time>1970-01-01T02:01:02.000Z</time>
      </trkpt>
      <trkpt lat="45.04505" lon="0.73763">
        <ele>130.8</ele>
        <time>1970-01-01T02:01:03.000Z</time>
      </trkpt>
      <trkpt lat="45.04503" lon="0.73755">
        <ele>130.8</ele>
        <time>1970-01-01T02:01:04.000Z</time>
      </trkpt>
      <trkpt lat="45.045" lon="0.73747">
        <ele>130.8</ele>
        <time>1970-01-01T02:01:05.000Z</time>
      </trkpt>
      <trkpt lat="45.04498" lon="0.73739">
        <ele>130.8</ele>
        <time>1970-01-01T02:01:06.000Z</time>
      </trkpt>
      <trkpt lat="45.04496" lon="0.73731">
        <ele>130.8</ele>
        <time>1970-01-01T02:01:07.000Z</time>
      </trkpt>
      <trkpt lat="45.04493" lon="0.73723">
        <ele>130.8</ele>
        <time>1970-01-01T02:01:08.000Z</time>
      </trkpt>
      <trkpt lat="45.04491" lon="0.73715">
        <ele>130.8</ele>
        <time>1970-01-01T02:01:09.000Z</time>
      </trkpt>
      <trkpt lat="45.04488" lon="0.73706">
        <ele>130.8</ele>
        <time>1970-01-01T02:01:10.000Z</time>
      </trkpt>
      <trkpt lat="45.04486" lon="0.73698">
        <ele>130.8</ele>
        <time>1970-01-01T02:01:11.000Z</time>
      </trkpt>
      <trkpt lat="45.04484" lon="0.73689">
        <ele>130.8</ele>
        <time>1970-01-01T02:01:12.000Z</time>
      </trkpt>
      <trkpt lat="45.04482" lon="0.7368">
        <ele>130.8</ele>
        <time>1970-01-01T02:01:13.000Z</time>
      </trkpt>
      <trkpt lat="45.04479" lon="0.73672">
        <ele>130.8</ele>
        <time>1970-01-01T02:01:14.000Z</time>
      </trkpt>
      <trkpt lat="45.04477" lon="0.73664">
        <ele>129.8</ele>
        <time>1970-01-01T02:01:15.000Z</time>
      </trkpt>
      <trkpt lat="45.04475" lon="0.73655">
        <ele>129.8</ele>
        <time>1970-01-01T02:01:16.000Z</time>
      </trkpt>
      <trkpt lat="45.04472" lon="0.73647">
        <ele>129.8</ele>
        <time>1970-01-01T02:01:17.000Z</time>
      </trkpt>
      <trkpt lat="45.04468" lon="0.73639">
        <ele>129.8</ele>
        <time>1970-01-01T02:01:18.000Z</time>
      </trkpt>
      <trkpt lat="45.04465" lon="0.73631">
        <ele>128.8</ele>
        <time>1970-01-01T02:01:19.000Z</time>
      </trkpt>
      <trkpt lat="45.04461" lon="0.73624">
        <ele>128.8</ele>
        <time>1970-01-01T02:01:20.000Z</time>
      </trkpt>
      <trkpt lat="45.04457" lon="0.73616">
        <ele>128.8</ele>
        <time>1970-01-01T02:01:21.000Z</time>
      </trkpt>
      <trkpt lat="45.04453" lon="0.73607">
        <ele>128.8</ele>
        <time>1970-01-01T02:01:22.000Z</time>
      </trkpt>
      <trkpt lat="45.04449" lon="0.73599">
        <ele>127.9</ele>
        <time>1970-01-01T02:01:23.000Z</time>
      </trkpt>
      <trkpt lat="45.04444" lon="0.73592">
        <ele>127.9</ele>
        <time>1970-01-01T02:01:24.000Z</time>
      </trkpt>
      <trkpt lat="45.0444" lon="0.73585">
        <ele>127.9</ele>
        <time>1970-01-01T02:01:25.000Z</time>
      </trkpt>
      <trkpt lat="45.04435" lon="0.73578">
        <ele>127.9</ele>
        <time>1970-01-01T02:01:26.000Z</time>
      </trkpt>
      <trkpt lat="45.04431" lon="0.73571">
        <ele>126.8</ele>
        <time>1970-01-01T02:01:27.000Z</time>
      </trkpt>
      <trkpt lat="45.04426" lon="0.73565">
        <ele>126.8</ele>
        <time>1970-01-01T02:01:28.000Z</time>
      </trkpt>
      <trkpt lat="45.04422" lon="0.73558">
        <ele>126.8</ele>
        <time>1970-01-01T02:01:29.000Z</time>
      </trkpt>
      <trkpt lat="45.04417" lon="0.73551">
        <ele>126.8</ele>
        <time>1970-01-01T02:01:30.000Z</time>
      </trkpt>
      <trkpt lat="45.04413" lon="0.73544">
        <ele>126.8</ele>
        <time>1970-01-01T02:01:31.000Z</time>
      </trkpt>
      <trkpt lat="45.04408" lon="0.73537">
        <ele>126.8</ele>
        <time>1970-01-01T02:01:32.000Z</time>
      </trkpt>
      <trkpt lat="45.04404" lon="0.7353">
        <ele>126.8</ele>
        <time>1970-01-01T02:01:33.000Z</time>
      </trkpt>
      <trkpt lat="45.04399" lon="0.73523">
        <ele>126.8</ele>
        <time>1970-01-01T02:01:34.000Z</time>
      </trkpt>
      <trkpt lat="45.04395" lon="0.73516">
        <ele>126.8</ele>
        <time>1970-01-01T02:01:35.000Z</time>
      </trkpt>
      <trkpt lat="45.0439" lon="0.73508">
        <ele>126.8</ele>
        <time>1970-01-01T02:01:36.000Z</time>
      </trkpt>
      <trkpt lat="45.04387" lon="0.735">
        <ele>126.8</ele>
        <time>1970-01-01T02:01:37.000Z</time>
      </trkpt>
      <trkpt lat="45.04383" lon="0.73492">
        <ele>126.8</ele>
        <time>1970-01-01T02:01:38.000Z</time>
      </trkpt>
      <trkpt lat="45.04379" lon="0.73485">
        <ele>125.9</ele>
        <time>1970-01-01T02:01:39.000Z</time>
      </trkpt>
      <trkpt lat="45.04375" lon="0.73477">
        <ele>125.9</ele>
        <time>1970-01-01T02:01:40.000Z</time>
      </trkpt>
      <trkpt lat="45.04372" lon="0.73469">
        <ele>125.9</ele>
        <time>1970-01-01T02:01:41.000Z</time>
      </trkpt>
      <trkpt lat="45.04368" lon="0.73461">
        <ele>125.9</ele>
        <time>1970-01-01T02:01:42.000Z</time>
      </trkpt>
      <trkpt lat="45.04365" lon="0.73453">
        <ele>125.9</ele>
        <time>1970-01-01T02:01:43.000Z</time>
      </trkpt>
      <trkpt lat="45.04362" lon="0.73445">
        <ele>125.9</ele>
        <time>1970-01-01T02:01:44.000Z</time>
      </trkpt>
      <trkpt lat="45.04358" lon="0.73437">
        <ele>125.9</ele>
        <time>1970-01-01T02:01:45.000Z</time>
      </trkpt>
      <trkpt lat="45.04354" lon="0.73429">
        <ele>125.9</ele>
        <time>1970-01-01T02:01:46.000Z</time>
      </trkpt>
      <trkpt lat="45.0435" lon="0.73421">
        <ele>125.9</ele>
        <time>1970-01-01T02:01:47.000Z</time>
      </trkpt>
      <trkpt lat="45.04347" lon="0.73414">
        <ele>125.9</ele>
        <time>1970-01-01T02:01:48.000Z</time>
      </trkpt>
      <trkpt lat="45.04343" lon="0.73406">
        <ele>125.9</ele>
        <time>1970-01-01T02:01:49.000Z</time>
      </trkpt>
      <trkpt lat="45.0434" lon="0.73398">
        <ele>125.9</ele>
        <time>1970-01-01T02:01:50.000Z</time>
      </trkpt>
      <trkpt lat="45.04336" lon="0.73391">
        <ele>124.8</ele>
        <time>1970-01-01T02:01:51.000Z</time>
      </trkpt>
      <trkpt lat="45.04332" lon="0.73383">
        <ele>124.8</ele>
        <time>1970-01-01T02:01:52.000Z</time>
      </trkpt>
      <trkpt lat="45.04328" lon="0.73376">
        <ele>124.8</ele>
        <time>1970-01-01T02:01:53.000Z</time>
      </trkpt>
      <trkpt lat="45.04323" lon="0.73369">
        <ele>124.8</ele>
        <time>1970-01-01T02:01:54.000Z</time>
      </trkpt>
      <trkpt lat="45.04319" lon="0.73362">
        <ele>124.8</ele>
        <time>1970-01-01T02:01:55.000Z</time>
      </trkpt>
      <trkpt lat="45.04314" lon="0.73356">
        <ele>124.8</ele>
        <time>1970-01-01T02:01:56.000Z</time>
      </trkpt>
      <trkpt lat="45.0431" lon="0.73349">
        <ele>124.8</ele>
        <time>1970-01-01T02:01:57.000Z</time>
      </trkpt>
      <trkpt lat="45.04305" lon="0.73342">
        <ele>124.8</ele>
        <time>1970-01-01T02:01:58.000Z</time>
      </trkpt>
      <trkpt lat="45.043" lon="0.73336">
        <ele>124.8</ele>
        <time>1970-01-01T02:01:59.000Z</time>
      </trkpt>
      <trkpt lat="45.04295" lon="0.7333">
        <ele>124.8</ele>
        <time>1970-01-01T02:02:00.000Z</time>
      </trkpt>
      <trkpt lat="45.04291" lon="0.73323">
        <ele>124.8</ele>
        <time>1970-01-01T02:02:01.000Z</time>
      </trkpt>
      <trkpt lat="45.04286" lon="0.73316">
        <ele>124.8</ele>
        <time>1970-01-01T02:02:02.000Z</time>
      </trkpt>
      <trkpt lat="45.04281" lon="0.73309">
        <ele>122.8</ele>
        <time>1970-01-01T02:02:03.000Z</time>
      </trkpt>
      <trkpt lat="45.04276" lon="0.73303">
        <ele>122.8</ele>
        <time>1970-01-01T02:02:04.000Z</time>
      </trkpt>
      <trkpt lat="45.04272" lon="0.73296">
        <ele>122.8</ele>
        <time>1970-01-01T02:02:05.000Z</time>
      </trkpt>
      <trkpt lat="45.04267" lon="0.7329">
        <ele>122.8</ele>
        <time>1970-01-01T02:02:06.000Z</time>
      </trkpt>
      <trkpt lat="45.04263" lon="0.73284">
        <ele>122.8</ele>
        <time>1970-01-01T02:02:07.000Z</time>
      </trkpt>
      <trkpt lat="45.04258" lon="0.73278">
        <ele>122.8</ele>
        <time>1970-01-01T02:02:08.000Z</time>
      </trkpt>
      <trkpt lat="45.04253" lon="0.73272">
        <ele>121.8</ele>
        <time>1970-01-01T02:02:09.000Z</time>
      </trkpt>
      <trkpt lat="45.04248" lon="0.73266">
        <ele>121.8</ele>
        <time>1970-01-01T02:02:10.000Z</time>
      </trkpt>
      <trkpt lat="45.04243" lon="0.73261">
        <ele>121.8</ele>
        <time>1970-01-01T02:02:11.000Z</time>
      </trkpt>
      <trkpt lat="45.04237" lon="0.73256">
        <ele>121.8</ele>
        <time>1970-01-01T02:02:12.000Z</time>
      </trkpt>
      <trkpt lat="45.04231" lon="0.7325">
        <ele>121.8</ele>
        <time>1970-01-01T02:02:13.000Z</time>
      </trkpt>
      <trkpt lat="45.04226" lon="0.73244">
        <ele>121.8</ele>
        <time>1970-01-01T02:02:14.000Z</time>
      </trkpt>
      <trkpt lat="45.0422" lon="0.73239">
        <ele>121.8</ele>
        <time>1970-01-01T02:02:15.000Z</time>
      </trkpt>
      <trkpt lat="45.04215" lon="0.73233">
        <ele>121.8</ele>
        <time>1970-01-01T02:02:16.000Z</time>
      </trkpt>
      <trkpt lat="45.0421" lon="0.73227">
        <ele>121.8</ele>
        <time>1970-01-01T02:02:17.000Z</time>
      </trkpt>
      <trkpt lat="45.04205" lon="0.73221">
        <ele>121.8</ele>
        <time>1970-01-01T02:02:18.000Z</time>
      </trkpt>
      <trkpt lat="45.04201" lon="0.73214">
        <ele>121.8</ele>
        <time>1970-01-01T02:02:19.000Z</time>
      </trkpt>
      <trkpt lat="45.04197" lon="0.73206">
        <ele>121.8</ele>
        <time>1970-01-01T02:02:20.000Z</time>
      </trkpt>
      <trkpt lat="45.04193" lon="0.73199">
        <ele>121.8</ele>
        <time>1970-01-01T02:02:21.000Z</time>
      </trkpt>
      <trkpt lat="45.0419" lon="0.73191">
        <ele>121.8</ele>
        <time>1970-01-01T02:02:22.000Z</time>
      </trkpt>
      <trkpt lat="45.04186" lon="0.73183">
        <ele>121.8</ele>
        <time>1970-01-01T02:02:23.000Z</time>
      </trkpt>
      <trkpt lat="45.04182" lon="0.73175">
        <ele>121.8</ele>
        <time>1970-01-01T02:02:24.000Z</time>
      </trkpt>
      <trkpt lat="45.04179" lon="0.73167">
        <ele>121.8</ele>
        <time>1970-01-01T02:02:25.000Z</time>
      </trkpt>
      <trkpt lat="45.04175" lon="0.73159">
        <ele>121.8</ele>
        <time>1970-01-01T02:02:26.000Z</time>
      </trkpt>
      <trkpt lat="45.04172" lon="0.73151">
        <ele>121.8</ele>
        <time>1970-01-01T02:02:27.000Z</time>
      </trkpt>
      <trkpt lat="45.04168" lon="0.73143">
        <ele>121.8</ele>
        <time>1970-01-01T02:02:28.000Z</time>
      </trkpt>
      <trkpt lat="45.04165" lon="0.73135">
        <ele>121.8</ele>
        <time>1970-01-01T02:02:29.000Z</time>
      </trkpt>
      <trkpt lat="45.04161" lon="0.73126">
        <ele>121.8</ele>
        <time>1970-01-01T02:02:30.000Z</time>
      </trkpt>
      <trkpt lat="45.04157" lon="0.73118">
        <ele>121.8</ele>
        <time>1970-01-01T02:02:31.000Z</time>
      </trkpt>
      <trkpt lat="45.04154" lon="0.7311">
        <ele>121.8</ele>
        <time>1970-01-01T02:02:32.000Z</time>
      </trkpt>
      <trkpt lat="45.0415" lon="0.73102">
        <ele>119.8</ele>
        <time>1970-01-01T02:02:33.000Z</time>
      </trkpt>
      <trkpt lat="45.04147" lon="0.73094">
        <ele>119.8</ele>
        <time>1970-01-01T02:02:34.000Z</time>
      </trkpt>
      <trkpt lat="45.04143" lon="0.73086">
        <ele>119.8</ele>
        <time>1970-01-01T02:02:35.000Z</time>
      </trkpt>
      <trkpt lat="45.04139" lon="0.73079">
        <ele>119.8</ele>
        <time>1970-01-01T02:02:36.000Z</time>
      </trkpt>
      <trkpt lat="45.04135" lon="0.73072">
        <ele>119.8</ele>
        <time>1970-01-01T02:02:37.000Z</time>
      </trkpt>
      <trkpt lat="45.04131" lon="0.73065">
        <ele>119.8</ele>
        <time>1970-01-01T02:02:38.000Z</time>
      </trkpt>
      <trkpt lat="45.04126" lon="0.73059">
        <ele>119.8</ele>
        <time>1970-01-01T02:02:39.000Z</time>
      </trkpt>
      <trkpt lat="45.04122" lon="0.73052">
        <ele>119.8</ele>
        <time>1970-01-01T02:02:40.000Z</time>
      </trkpt>
      <trkpt lat="45.04118" lon="0.73046">
        <ele>118.9</ele>
        <time>1970-01-01T02:02:41.000Z</time>
      </trkpt>
      <trkpt lat="45.04114" lon="0.73041">
        <ele>118.9</ele>
        <time>1970-01-01T02:02:42.000Z</time>
      </trkpt>
      <trkpt lat="45.04108" lon="0.73034">
        <ele>118.9</ele>
        <time>1970-01-01T02:02:43.000Z</time>
      </trkpt>
      <trkpt lat="45.04104" lon="0.73027">
        <ele>118.9</ele>
        <time>1970-01-01T02:02:44.000Z</time>
      </trkpt>
      <trkpt lat="45.04099" lon="0.73021">
        <ele>118.9</ele>
        <time>1970-01-01T02:02:45.000Z</time>
      </trkpt>
      <trkpt lat="45.04094" lon="0.73015">
        <ele>118.9</ele>
        <time>1970-01-01T02:02:46.000Z</time>
      </trkpt>
      <trkpt lat="45.04089" lon="0.73009">
        <ele>118.9</ele>
        <time>1970-01-01T02:02:47.000Z</time>
      </trkpt>
      <trkpt lat="45.04084" lon="0.73003">
        <ele>118.9</ele>
        <time>1970-01-01T02:02:48.000Z</time>
      </trkpt>
      <trkpt lat="45.0408" lon="0.72998">
        <ele>118.9</ele>
        <time>1970-01-01T02:02:49.000Z</time>
      </trkpt>
      <trkpt lat="45.04074" lon="0.72991">
        <ele>118.9</ele>
        <time>1970-01-01T02:02:50.000Z</time>
      </trkpt>
      <trkpt lat="45.04069" lon="0.72985">
        <ele>117.8</ele>
        <time>1970-01-01T02:02:51.000Z</time>
      </trkpt>
      <trkpt lat="45.04063" lon="0.72979">
        <ele>117.8</ele>
        <time>1970-01-01T02:02:52.000Z</time>
      </trkpt>
      <trkpt lat="45.04059" lon="0.72974">
        <ele>117.8</ele>
        <time>1970-01-01T02:02:53.000Z</time>
      </trkpt>
      <trkpt lat="45.04054" lon="0.72968">
        <ele>117.8</ele>
        <time>1970-01-01T02:02:54.000Z</time>
      </trkpt>
      <trkpt lat="45.04049" lon="0.72962">
        <ele>117.8</ele>
        <time>1970-01-01T02:02:55.000Z</time>
      </trkpt>
      <trkpt lat="45.04043" lon="0.72956">
        <ele>117.8</ele>
        <time>1970-01-01T02:02:56.000Z</time>
      </trkpt>
      <trkpt lat="45.04038" lon="0.72951">
        <ele>116.9</ele>
        <time>1970-01-01T02:02:57.000Z</time>
      </trkpt>
      <trkpt lat="45.04033" lon="0.72949">
        <ele>116.9</ele>
        <time>1970-01-01T02:02:58.000Z</time>
      </trkpt>
      <trkpt lat="45.04028" lon="0.72946">
        <ele>116.9</ele>
        <time>1970-01-01T02:02:59.000Z</time>
      </trkpt>
      <trkpt lat="45.04021" lon="0.72943">
        <ele>116.9</ele>
        <time>1970-01-01T02:03:00.000Z</time>
      </trkpt>
      <trkpt lat="45.04016" lon="0.72941">
        <ele>116.9</ele>
        <time>1970-01-01T02:03:01.000Z</time>
      </trkpt>
      <trkpt lat="45.04011" lon="0.7294">
        <ele>116.9</ele>
        <time>1970-01-01T02:03:02.000Z</time>
      </trkpt>
      <trkpt lat="45.04005" lon="0.72939">
        <ele>116.9</ele>
        <time>1970-01-01T02:03:03.000Z</time>
      </trkpt>
      <trkpt lat="45.04" lon="0.72938">
        <ele>116.9</ele>
        <time>1970-01-01T02:03:04.000Z</time>
      </trkpt>
      <trkpt lat="45.03992" lon="0.72938">
        <ele>116.9</ele>
        <time>1970-01-01T02:03:05.000Z</time>
      </trkpt>
      <trkpt lat="45.03985" lon="0.72938">
        <ele>116.9</ele>
        <time>1970-01-01T02:03:06.000Z</time>
      </trkpt>
      <trkpt lat="45.03979" lon="0.72937">
        <ele>116.9</ele>
        <time>1970-01-01T02:03:07.000Z</time>
      </trkpt>
      <trkpt lat="45.03969" lon="0.72936">
        <ele>116.9</ele>
        <time>1970-01-01T02:03:08.000Z</time>
      </trkpt>
      <trkpt lat="45.03961" lon="0.72935">
        <ele>116.9</ele>
        <time>1970-01-01T02:03:09.000Z</time>
      </trkpt>
      <trkpt lat="45.03954" lon="0.72933">
        <ele>116.9</ele>
        <time>1970-01-01T02:03:10.000Z</time>
      </trkpt>
      <trkpt lat="45.03947" lon="0.72931">
        <ele>116.9</ele>
        <time>1970-01-01T02:03:11.000Z</time>
      </trkpt>
      <trkpt lat="45.03941" lon="0.72929">
        <ele>116.9</ele>
        <time>1970-01-01T02:03:12.000Z</time>
      </trkpt>
      <trkpt lat="45.03935" lon="0.72926">
        <ele>116.9</ele>
        <time>1970-01-01T02:03:13.000Z</time>
      </trkpt>
      <trkpt lat="45.03929" lon="0.72924">
        <ele>116.9</ele>
        <time>1970-01-01T02:03:14.000Z</time>
      </trkpt>
      <trkpt lat="45.03923" lon="0.72921">
        <ele>116.9</ele>
        <time>1970-01-01T02:03:15.000Z</time>
      </trkpt>
      <trkpt lat="45.03917" lon="0.72918">
        <ele>116.9</ele>
        <time>1970-01-01T02:03:16.000Z</time>
      </trkpt>
      <trkpt lat="45.03909" lon="0.72914">
        <ele>115.8</ele>
        <time>1970-01-01T02:03:17.000Z</time>
      </trkpt>
      <trkpt lat="45.03904" lon="0.72912">
        <ele>115.8</ele>
        <time>1970-01-01T02:03:18.000Z</time>
      </trkpt>
      <trkpt lat="45.03898" lon="0.72911">
        <ele>115.8</ele>
        <time>1970-01-01T02:03:19.000Z</time>
      </trkpt>
      <trkpt lat="45.03893" lon="0.7291">
        <ele>115.8</ele>
        <time>1970-01-01T02:03:20.000Z</time>
      </trkpt>
      <trkpt lat="45.03887" lon="0.72909">
        <ele>115.8</ele>
        <time>1970-01-01T02:03:21.000Z</time>
      </trkpt>
      <trkpt lat="45.03882" lon="0.72906">
        <ele>115.8</ele>
        <time>1970-01-01T02:03:22.000Z</time>
      </trkpt>
      <trkpt lat="45.03876" lon="0.72904">
        <ele>115.8</ele>
        <time>1970-01-01T02:03:23.000Z</time>
      </trkpt>
      <trkpt lat="45.0387" lon="0.72902">
        <ele>115.8</ele>
        <time>1970-01-01T02:03:24.000Z</time>
      </trkpt>
      <trkpt lat="45.03865" lon="0.729">
        <ele>115.8</ele>
        <time>1970-01-01T02:03:25.000Z</time>
      </trkpt>
      <trkpt lat="45.0386" lon="0.72899">
        <ele>115.8</ele>
        <time>1970-01-01T02:03:26.000Z</time>
      </trkpt>
      <trkpt lat="45.03855" lon="0.72897">
        <ele>115.8</ele>
        <time>1970-01-01T02:03:27.000Z</time>
      </trkpt>
      <trkpt lat="45.03849" lon="0.72897">
        <ele>115.8</ele>
        <time>1970-01-01T02:03:28.000Z</time>
      </trkpt>
      <trkpt lat="45.03843" lon="0.72896">
        <ele>115.8</ele>
        <time>1970-01-01T02:03:29.000Z</time>
      </trkpt>
      <trkpt lat="45.03837" lon="0.72893">
        <ele>115.8</ele>
        <time>1970-01-01T02:03:30.000Z</time>
      </trkpt>
      <trkpt lat="45.03832" lon="0.72892">
        <ele>115.8</ele>
        <time>1970-01-01T02:03:31.000Z</time>
      </trkpt>
      <trkpt lat="45.03826" lon="0.72892">
        <ele>115.8</ele>
        <time>1970-01-01T02:03:32.000Z</time>
      </trkpt>
      <trkpt lat="45.03819" lon="0.72894">
        <ele>115.8</ele>
        <time>1970-01-01T02:03:33.000Z</time>
      </trkpt>
      <trkpt lat="45.03815" lon="0.72894">
        <ele>115.8</ele>
        <time>1970-01-01T02:03:34.000Z</time>
      </trkpt>
      <trkpt lat="45.03809" lon="0.72895">
        <ele>115.8</ele>
        <time>1970-01-01T02:03:35.000Z</time>
      </trkpt>
      <trkpt lat="45.03803" lon="0.72895">
        <ele>115.8</ele>
        <time>1970-01-01T02:03:36.000Z</time>
      </trkpt>
      <trkpt lat="45.03799" lon="0.72896">
        <ele>115.8</ele>
        <time>1970-01-01T02:03:37.000Z</time>
      </trkpt>
      <trkpt lat="45.03794" lon="0.72897">
        <ele>115.8</ele>
        <time>1970-01-01T02:03:38.000Z</time>
      </trkpt>
      <trkpt lat="45.03791" lon="0.72898">
        <ele>115.8</ele>
        <time>1970-01-01T02:03:39.000Z</time>
      </trkpt>
      <trkpt lat="45.03788" lon="0.72899">
        <ele>115.8</ele>
        <time>1970-01-01T02:03:40.000Z</time>
      </trkpt>
      <trkpt lat="45.03784" lon="0.729">
        <ele>116.9</ele>
        <time>1970-01-01T02:03:41.000Z</time>
      </trkpt>
      <trkpt lat="45.03781" lon="0.72901">
        <ele>116.9</ele>
        <time>1970-01-01T02:03:42.000Z</time>
      </trkpt>
      <trkpt lat="45.03777" lon="0.72902">
        <ele>117.8</ele>
        <time>1970-01-01T02:03:43.000Z</time>
      </trkpt>
      <trkpt lat="45.03775" lon="0.72902">
        <ele>117.8</ele>
        <time>1970-01-01T02:03:44.000Z</time>
      </trkpt>
      <trkpt lat="45.03772" lon="0.72904">
        <ele>117.8</ele>
        <time>1970-01-01T02:03:45.000Z</time>
      </trkpt>
      <trkpt lat="45.0377" lon="0.72906">
        <ele>117.8</ele>
        <time>1970-01-01T02:03:46.000Z</time>
      </trkpt>
      <trkpt lat="45.03767" lon="0.72907">
        <ele>118.9</ele>
        <time>1970-01-01T02:03:47.000Z</time>
      </trkpt>
      <trkpt lat="45.03766" lon="0.72908">
        <ele>118.9</ele>
        <time>1970-01-01T02:03:48.000Z</time>
      </trkpt>
      <trkpt lat="45.03763" lon="0.72908">
        <ele>119.8</ele>
        <time>1970-01-01T02:03:49.000Z</time>
      </trkpt>
      <trkpt lat="45.03761" lon="0.72909">
        <ele>119.8</ele>
        <time>1970-01-01T02:03:50.000Z</time>
      </trkpt>
      <trkpt lat="45.03758" lon="0.7291">
        <ele>119.8</ele>
        <time>1970-01-01T02:03:51.000Z</time>
      </trkpt>
      <trkpt lat="45.03755" lon="0.72911">
        <ele>119.8</ele>
        <time>1970-01-01T02:03:52.000Z</time>
      </trkpt>
      <trkpt lat="45.03753" lon="0.72911">
        <ele>119.8</ele>
        <time>1970-01-01T02:03:53.000Z</time>
      </trkpt>
      <trkpt lat="45.0375" lon="0.72912">
        <ele>119.8</ele>
        <time>1970-01-01T02:03:54.000Z</time>
      </trkpt>
      <trkpt lat="45.03748" lon="0.72913">
        <ele>119.8</ele>
        <time>1970-01-01T02:03:55.000Z</time>
      </trkpt>
      <trkpt lat="45.03746" lon="0.72914">
        <ele>119.8</ele>
        <time>1970-01-01T02:03:56.000Z</time>
      </trkpt>
      <trkpt lat="45.03744" lon="0.72915">
        <ele>119.8</ele>
        <time>1970-01-01T02:03:57.000Z</time>
      </trkpt>
      <trkpt lat="45.03741" lon="0.72915">
        <ele>119.8</ele>
        <time>1970-01-01T02:03:58.000Z</time>
      </trkpt>
      <trkpt lat="45.03739" lon="0.72916">
        <ele>122.8</ele>
        <time>1970-01-01T02:03:59.000Z</time>
      </trkpt>
      <trkpt lat="45.03736" lon="0.72917">
        <ele>122.8</ele>
        <time>1970-01-01T02:04:00.000Z</time>
      </trkpt>
      <trkpt lat="45.03734" lon="0.72918">
        <ele>122.8</ele>
        <time>1970-01-01T02:04:01.000Z</time>
      </trkpt>
      <trkpt lat="45.03732" lon="0.72918">
        <ele>122.8</ele>
        <time>1970-01-01T02:04:02.000Z</time>
      </trkpt>
      <trkpt lat="45.03729" lon="0.72918">
        <ele>123.9</ele>
        <time>1970-01-01T02:04:03.000Z</time>
      </trkpt>
      <trkpt lat="45.03727" lon="0.72919">
        <ele>123.9</ele>
        <time>1970-01-01T02:04:04.000Z</time>
      </trkpt>
      <trkpt lat="45.03724" lon="0.7292">
        <ele>123.9</ele>
        <time>1970-01-01T02:04:05.000Z</time>
      </trkpt>
      <trkpt lat="45.03722" lon="0.72921">
        <ele>123.9</ele>
        <time>1970-01-01T02:04:06.000Z</time>
      </trkpt>
      <trkpt lat="45.0372" lon="0.72922">
        <ele>123.9</ele>
        <time>1970-01-01T02:04:07.000Z</time>
      </trkpt>
      <trkpt lat="45.03717" lon="0.72922">
        <ele>123.9</ele>
        <time>1970-01-01T02:04:08.000Z</time>
      </trkpt>
      <trkpt lat="45.03714" lon="0.72923">
        <ele>124.8</ele>
        <time>1970-01-01T02:04:09.000Z</time>
      </trkpt>
      <trkpt lat="45.03712" lon="0.72924">
        <ele>124.8</ele>
        <time>1970-01-01T02:04:10.000Z</time>
      </trkpt>
      <trkpt lat="45.0371" lon="0.72924">
        <ele>125.9</ele>
        <time>1970-01-01T02:04:11.000Z</time>
      </trkpt>
      <trkpt lat="45.03707" lon="0.72924">
        <ele>125.9</ele>
        <time>1970-01-01T02:04:12.000Z</time>
      </trkpt>
      <trkpt lat="45.03704" lon="0.72924">
        <ele>126.8</ele>
        <time>1970-01-01T02:04:13.000Z</time>
      </trkpt>
      <trkpt lat="45.03701" lon="0.72925">
        <ele>126.8</ele>
        <time>1970-01-01T02:04:14.000Z</time>
      </trkpt>
      <trkpt lat="45.03699" lon="0.72925">
        <ele>126.8</ele>
        <time>1970-01-01T02:04:15.000Z</time>
      </trkpt>
      <trkpt lat="45.03697" lon="0.72925">
        <ele>126.8</ele>
        <time>1970-01-01T02:04:16.000Z</time>
      </trkpt>
      <trkpt lat="45.03694" lon="0.72925">
        <ele>126.8</ele>
        <time>1970-01-01T02:04:17.000Z</time>
      </trkpt>
      <trkpt lat="45.03692" lon="0.72925">
        <ele>126.8</ele>
        <time>1970-01-01T02:04:18.000Z</time>
      </trkpt>
      <trkpt lat="45.03689" lon="0.72924">
        <ele>126.8</ele>
        <time>1970-01-01T02:04:19.000Z</time>
      </trkpt>
      <trkpt lat="45.03687" lon="0.72924">
        <ele>126.8</ele>
        <time>1970-01-01T02:04:20.000Z</time>
      </trkpt>
      <trkpt lat="45.03684" lon="0.72924">
        <ele>127.9</ele>
        <time>1970-01-01T02:04:21.000Z</time>
      </trkpt>
      <trkpt lat="45.03682" lon="0.72924">
        <ele>127.9</ele>
        <time>1970-01-01T02:04:22.000Z</time>
      </trkpt>
      <trkpt lat="45.0368" lon="0.72924">
        <ele>127.9</ele>
        <time>1970-01-01T02:04:23.000Z</time>
      </trkpt>
      <trkpt lat="45.03677" lon="0.72923">
        <ele>127.9</ele>
        <time>1970-01-01T02:04:24.000Z</time>
      </trkpt>
      <trkpt lat="45.03676" lon="0.72921">
        <ele>128.8</ele>
        <time>1970-01-01T02:04:25.000Z</time>
      </trkpt>
      <trkpt lat="45.03673" lon="0.72921">
        <ele>128.8</ele>
        <time>1970-01-01T02:04:26.000Z</time>
      </trkpt>
      <trkpt lat="45.03671" lon="0.7292">
        <ele>129.8</ele>
        <time>1970-01-01T02:04:27.000Z</time>
      </trkpt>
      <trkpt lat="45.03669" lon="0.72919">
        <ele>129.8</ele>
        <time>1970-01-01T02:04:28.000Z</time>
      </trkpt>
      <trkpt lat="45.03667" lon="0.72917">
        <ele>129.8</ele>
        <time>1970-01-01T02:04:29.000Z</time>
      </trkpt>
      <trkpt lat="45.03665" lon="0.72916">
        <ele>129.8</ele>
        <time>1970-01-01T02:04:30.000Z</time>
      </trkpt>
      <trkpt lat="45.03662" lon="0.72915">
        <ele>130.8</ele>
        <time>1970-01-01T02:04:31.000Z</time>
      </trkpt>
      <trkpt lat="45.03659" lon="0.72913">
        <ele>130.8</ele>
        <time>1970-01-01T02:04:32.000Z</time>
      </trkpt>
      <trkpt lat="45.03657" lon="0.72911">
        <ele>130.8</ele>
        <time>1970-01-01T02:04:33.000Z</time>
      </trkpt>
      <trkpt lat="45.03655" lon="0.7291">
        <ele>130.8</ele>
        <time>1970-01-01T02:04:34.000Z</time>
      </trkpt>
      <trkpt lat="45.03653" lon="0.72908">
        <ele>131.8</ele>
        <time>1970-01-01T02:04:35.000Z</time>
      </trkpt>
      <trkpt lat="45.0365" lon="0.72907">
        <ele>131.8</ele>
        <time>1970-01-01T02:04:36.000Z</time>
      </trkpt>
      <trkpt lat="45.03648" lon="0.72905">
        <ele>131.8</ele>
        <time>1970-01-01T02:04:37.000Z</time>
      </trkpt>
      <trkpt lat="45.03646" lon="0.72904">
        <ele>131.8</ele>
        <time>1970-01-01T02:04:38.000Z</time>
      </trkpt>
      <trkpt lat="45.03644" lon="0.72902">
        <ele>131.8</ele>
        <time>1970-01-01T02:04:39.000Z</time>
      </trkpt>
      <trkpt lat="45.03642" lon="0.72901">
        <ele>131.8</ele>
        <time>1970-01-01T02:04:40.000Z</time>
      </trkpt>
      <trkpt lat="45.03639" lon="0.729">
        <ele>132.9</ele>
        <time>1970-01-01T02:04:41.000Z</time>
      </trkpt>
      <trkpt lat="45.03637" lon="0.72899">
        <ele>132.9</ele>
        <time>1970-01-01T02:04:42.000Z</time>
      </trkpt>
      <trkpt lat="45.03635" lon="0.72898">
        <ele>132.9</ele>
        <time>1970-01-01T02:04:43.000Z</time>
      </trkpt>
      <trkpt lat="45.03632" lon="0.72897">
        <ele>132.9</ele>
        <time>1970-01-01T02:04:44.000Z</time>
      </trkpt>
      <trkpt lat="45.03629" lon="0.72896">
        <ele>132.9</ele>
        <time>1970-01-01T02:04:45.000Z</time>
      </trkpt>
      <trkpt lat="45.03626" lon="0.72895">
        <ele>132.9</ele>
        <time>1970-01-01T02:04:46.000Z</time>
      </trkpt>
      <trkpt lat="45.03622" lon="0.72894">
        <ele>132.9</ele>
        <time>1970-01-01T02:04:47.000Z</time>
      </trkpt>
      <trkpt lat="45.0362" lon="0.72894">
        <ele>132.9</ele>
        <time>1970-01-01T02:04:48.000Z</time>
      </trkpt>
      <trkpt lat="45.03616" lon="0.72893">
        <ele>132.9</ele>
        <time>1970-01-01T02:04:49.000Z</time>
      </trkpt>
      <trkpt lat="45.03613" lon="0.72892">
        <ele>132.9</ele>
        <time>1970-01-01T02:04:50.000Z</time>
      </trkpt>
      <trkpt lat="45.0361" lon="0.72892">
        <ele>132.9</ele>
        <time>1970-01-01T02:04:51.000Z</time>
      </trkpt>
      <trkpt lat="45.03607" lon="0.72891">
        <ele>132.9</ele>
        <time>1970-01-01T02:04:52.000Z</time>
      </trkpt>
      <trkpt lat="45.03604" lon="0.7289">
        <ele>132.9</ele>
        <time>1970-01-01T02:04:53.000Z</time>
      </trkpt>
      <trkpt lat="45.03601" lon="0.7289">
        <ele>132.9</ele>
        <time>1970-01-01T02:04:54.000Z</time>
      </trkpt>
      <trkpt lat="45.03598" lon="0.72889">
        <ele>133.8</ele>
        <time>1970-01-01T02:04:55.000Z</time>
      </trkpt>
      <trkpt lat="45.03596" lon="0.72888">
        <ele>133.8</ele>
        <time>1970-01-01T02:04:56.000Z</time>
      </trkpt>
      <trkpt lat="45.03593" lon="0.72888">
        <ele>133.8</ele>
        <time>1970-01-01T02:04:57.000Z</time>
      </trkpt>
      <trkpt lat="45.0359" lon="0.72888">
        <ele>133.8</ele>
        <time>1970-01-01T02:04:58.000Z</time>
      </trkpt>
      <trkpt lat="45.03587" lon="0.72887">
        <ele>134.9</ele>
        <time>1970-01-01T02:04:59.000Z</time>
      </trkpt>
      <trkpt lat="45.03584" lon="0.72886">
        <ele>134.9</ele>
        <time>1970-01-01T02:05:00.000Z</time>
      </trkpt>
      <trkpt lat="45.03581" lon="0.72885">
        <ele>135.8</ele>
        <time>1970-01-01T02:05:01.000Z</time>
      </trkpt>
      <trkpt lat="45.03578" lon="0.72884">
        <ele>135.8</ele>
        <time>1970-01-01T02:05:02.000Z</time>
      </trkpt>
      <trkpt lat="45.03575" lon="0.72883">
        <ele>135.8</ele>
        <time>1970-01-01T02:05:03.000Z</time>
      </trkpt>
      <trkpt lat="45.03571" lon="0.72883">
        <ele>135.8</ele>
        <time>1970-01-01T02:05:04.000Z</time>
      </trkpt>
      <trkpt lat="45.03568" lon="0.72882">
        <ele>135.8</ele>
        <time>1970-01-01T02:05:05.000Z</time>
      </trkpt>
      <trkpt lat="45.03564" lon="0.72881">
        <ele>135.8</ele>
        <time>1970-01-01T02:05:06.000Z</time>
      </trkpt>
      <trkpt lat="45.03561" lon="0.7288">
        <ele>136.9</ele>
        <time>1970-01-01T02:05:07.000Z</time>
      </trkpt>
      <trkpt lat="45.03557" lon="0.72879">
        <ele>136.9</ele>
        <time>1970-01-01T02:05:08.000Z</time>
      </trkpt>
      <trkpt lat="45.03553" lon="0.72878">
        <ele>136.9</ele>
        <time>1970-01-01T02:05:09.000Z</time>
      </trkpt>
      <trkpt lat="45.03549" lon="0.72877">
        <ele>136.9</ele>
        <time>1970-01-01T02:05:10.000Z</time>
      </trkpt>
      <trkpt lat="45.03545" lon="0.72876">
        <ele>136.9</ele>
        <time>1970-01-01T02:05:11.000Z</time>
      </trkpt>
      <trkpt lat="45.03541" lon="0.72875">
        <ele>136.9</ele>
        <time>1970-01-01T02:05:12.000Z</time>
      </trkpt>
      <trkpt lat="45.03537" lon="0.72874">
        <ele>136.9</ele>
        <time>1970-01-01T02:05:13.000Z</time>
      </trkpt>
      <trkpt lat="45.03533" lon="0.72874">
        <ele>136.9</ele>
        <time>1970-01-01T02:05:14.000Z</time>
      </trkpt>
      <trkpt lat="45.03529" lon="0.72874">
        <ele>136.9</ele>
        <time>1970-01-01T02:05:15.000Z</time>
      </trkpt>
      <trkpt lat="45.03525" lon="0.72874">
        <ele>136.9</ele>
        <time>1970-01-01T02:05:16.000Z</time>
      </trkpt>
      <trkpt lat="45.0352" lon="0.72874">
        <ele>136.9</ele>
        <time>1970-01-01T02:05:17.000Z</time>
      </trkpt>
      <trkpt lat="45.03516" lon="0.72874">
        <ele>136.9</ele>
        <time>1970-01-01T02:05:18.000Z</time>
      </trkpt>
      <trkpt lat="45.03512" lon="0.72874">
        <ele>136.9</ele>
        <time>1970-01-01T02:05:19.000Z</time>
      </trkpt>
      <trkpt lat="45.03507" lon="0.72875">
        <ele>136.9</ele>
        <time>1970-01-01T02:05:20.000Z</time>
      </trkpt>
      <trkpt lat="45.03503" lon="0.72875">
        <ele>136.9</ele>
        <time>1970-01-01T02:05:21.000Z</time>
      </trkpt>
      <trkpt lat="45.03499" lon="0.72876">
        <ele>136.9</ele>
        <time>1970-01-01T02:05:22.000Z</time>
      </trkpt>
      <trkpt lat="45.03495" lon="0.72877">
        <ele>137.8</ele>
        <time>1970-01-01T02:05:23.000Z</time>
      </trkpt>
      <trkpt lat="45.03491" lon="0.72877">
        <ele>137.8</ele>
        <time>1970-01-01T02:05:24.000Z</time>
      </trkpt>
      <trkpt lat="45.03487" lon="0.72878">
        <ele>137.8</ele>
        <time>1970-01-01T02:05:25.000Z</time>
      </trkpt>
      <trkpt lat="45.03483" lon="0.72879">
        <ele>137.8</ele>
        <time>1970-01-01T02:05:26.000Z</time>
      </trkpt>
      <trkpt lat="45.03479" lon="0.7288">
        <ele>138.8</ele>
        <time>1970-01-01T02:05:27.000Z</time>
      </trkpt>
      <trkpt lat="45.03475" lon="0.72881">
        <ele>138.8</ele>
        <time>1970-01-01T02:05:28.000Z</time>
      </trkpt>
      <trkpt lat="45.03471" lon="0.72882">
        <ele>138.8</ele>
        <time>1970-01-01T02:05:29.000Z</time>
      </trkpt>
      <trkpt lat="45.03467" lon="0.72884">
        <ele>138.8</ele>
        <time>1970-01-01T02:05:30.000Z</time>
      </trkpt>
      <trkpt lat="45.03463" lon="0.72885">
        <ele>138.8</ele>
        <time>1970-01-01T02:05:31.000Z</time>
      </trkpt>
      <trkpt lat="45.03458" lon="0.72888">
        <ele>138.8</ele>
        <time>1970-01-01T02:05:32.000Z</time>
      </trkpt>
      <trkpt lat="45.03453" lon="0.72889">
        <ele>138.8</ele>
        <time>1970-01-01T02:05:33.000Z</time>
      </trkpt>
      <trkpt lat="45.03449" lon="0.72892">
        <ele>138.8</ele>
        <time>1970-01-01T02:05:34.000Z</time>
      </trkpt>
      <trkpt lat="45.03444" lon="0.72895">
        <ele>137.8</ele>
        <time>1970-01-01T02:05:35.000Z</time>
      </trkpt>
      <trkpt lat="45.03439" lon="0.72899">
        <ele>137.8</ele>
        <time>1970-01-01T02:05:36.000Z</time>
      </trkpt>
      <trkpt lat="45.03433" lon="0.72902">
        <ele>137.8</ele>
        <time>1970-01-01T02:05:37.000Z</time>
      </trkpt>
      <trkpt lat="45.03428" lon="0.72905">
        <ele>137.8</ele>
        <time>1970-01-01T02:05:38.000Z</time>
      </trkpt>
      <trkpt lat="45.03424" lon="0.72908">
        <ele>137.8</ele>
        <time>1970-01-01T02:05:39.000Z</time>
      </trkpt>
      <trkpt lat="45.03419" lon="0.72911">
        <ele>137.8</ele>
        <time>1970-01-01T02:05:40.000Z</time>
      </trkpt>
      <trkpt lat="45.03415" lon="0.72914">
        <ele>137.8</ele>
        <time>1970-01-01T02:05:41.000Z</time>
      </trkpt>
      <trkpt lat="45.03411" lon="0.72917">
        <ele>137.8</ele>
        <time>1970-01-01T02:05:42.000Z</time>
      </trkpt>
      <trkpt lat="45.03408" lon="0.72921">
        <ele>137.8</ele>
        <time>1970-01-01T02:05:43.000Z</time>
      </trkpt>
      <trkpt lat="45.03406" lon="0.72923">
        <ele>137.8</ele>
        <time>1970-01-01T02:05:44.000Z</time>
      </trkpt>
      <trkpt lat="45.03403" lon="0.72923">
        <ele>137.8</ele>
        <time>1970-01-01T02:05:45.000Z</time>
      </trkpt>
      <trkpt lat="45.03402" lon="0.72923">
        <ele>137.8</ele>
        <time>1970-01-01T02:05:46.000Z</time>
      </trkpt>
      <trkpt lat="45.03401" lon="0.72921">
        <ele>137.8</ele>
        <time>1970-01-01T02:05:47.000Z</time>
      </trkpt>
      <trkpt lat="45.03402" lon="0.72919">
        <ele>137.8</ele>
        <time>1970-01-01T02:05:48.000Z</time>
      </trkpt>
      <trkpt lat="45.03403" lon="0.72917">
        <ele>137.8</ele>
        <time>1970-01-01T02:05:49.000Z</time>
      </trkpt>
      <trkpt lat="45.03405" lon="0.72915">
        <ele>137.8</ele>
        <time>1970-01-01T02:05:50.000Z</time>
      </trkpt>
      <trkpt lat="45.03407" lon="0.72912">
        <ele>136.9</ele>
        <time>1970-01-01T02:05:51.000Z</time>
      </trkpt>
      <trkpt lat="45.03409" lon="0.72909">
        <ele>136.9</ele>
        <time>1970-01-01T02:05:52.000Z</time>
      </trkpt>
      <trkpt lat="45.0341" lon="0.72906">
        <ele>136.9</ele>
        <time>1970-01-01T02:05:53.000Z</time>
      </trkpt>
      <trkpt lat="45.03412" lon="0.72903">
        <ele>136.9</ele>
        <time>1970-01-01T02:05:54.000Z</time>
      </trkpt>
      <trkpt lat="45.03414" lon="0.729">
        <ele>136.9</ele>
        <time>1970-01-01T02:05:55.000Z</time>
      </trkpt>
      <trkpt lat="45.03415" lon="0.72897">
        <ele>137.8</ele>
        <time>1970-01-01T02:05:56.000Z</time>
      </trkpt>
      <trkpt lat="45.03417" lon="0.72895">
        <ele>137.8</ele>
        <time>1970-01-01T02:05:57.000Z</time>
      </trkpt>
      <trkpt lat="45.03419" lon="0.72892">
        <ele>137.8</ele>
        <time>1970-01-01T02:05:58.000Z</time>
      </trkpt>
      <trkpt lat="45.0342" lon="0.72889">
        <ele>137.8</ele>
        <time>1970-01-01T02:05:59.000Z</time>
      </trkpt>
      <trkpt lat="45.03422" lon="0.72886">
        <ele>137.8</ele>
        <time>1970-01-01T02:06:00.000Z</time>
      </trkpt>
      <trkpt lat="45.03423" lon="0.72883">
        <ele>137.8</ele>
        <time>1970-01-01T02:06:01.000Z</time>
      </trkpt>
      <trkpt lat="45.03424" lon="0.7288">
        <ele>137.8</ele>
        <time>1970-01-01T02:06:02.000Z</time>
      </trkpt>
      <trkpt lat="45.03425" lon="0.72877">
        <ele>137.8</ele>
        <time>1970-01-01T02:06:03.000Z</time>
      </trkpt>
      <trkpt lat="45.03427" lon="0.72874">
        <ele>137.8</ele>
        <time>1970-01-01T02:06:04.000Z</time>
      </trkpt>
      <trkpt lat="45.03428" lon="0.72871">
        <ele>137.8</ele>
        <time>1970-01-01T02:06:05.000Z</time>
      </trkpt>
      <trkpt lat="45.03429" lon="0.72868">
        <ele>137.8</ele>
        <time>1970-01-01T02:06:06.000Z</time>
      </trkpt>
      <trkpt lat="45.0343" lon="0.72866">
        <ele>137.8</ele>
        <time>1970-01-01T02:06:07.000Z</time>
      </trkpt>
      <trkpt lat="45.03431" lon="0.72863">
        <ele>137.8</ele>
        <time>1970-01-01T02:06:08.000Z</time>
      </trkpt>
      <trkpt lat="45.03433" lon="0.7286">
        <ele>137.8</ele>
        <time>1970-01-01T02:06:09.000Z</time>
      </trkpt>
      <trkpt lat="45.03434" lon="0.72857">
        <ele>138.8</ele>
        <time>1970-01-01T02:06:10.000Z</time>
      </trkpt>
      <trkpt lat="45.03435" lon="0.72854">
        <ele>138.8</ele>
        <time>1970-01-01T02:06:11.000Z</time>
      </trkpt>
      <trkpt lat="45.03436" lon="0.72851">
        <ele>138.8</ele>
        <time>1970-01-01T02:06:12.000Z</time>
      </trkpt>
      <trkpt lat="45.03437" lon="0.72848">
        <ele>138.8</ele>
        <time>1970-01-01T02:06:13.000Z</time>
      </trkpt>
      <trkpt lat="45.03438" lon="0.72845">
        <ele>139.9</ele>
        <time>1970-01-01T02:06:14.000Z</time>
      </trkpt>
      <trkpt lat="45.03439" lon="0.72842">
        <ele>139.9</ele>
        <time>1970-01-01T02:06:15.000Z</time>
      </trkpt>
      <trkpt lat="45.0344" lon="0.72839">
        <ele>139.9</ele>
        <time>1970-01-01T02:06:16.000Z</time>
      </trkpt>
      <trkpt lat="45.03442" lon="0.72837">
        <ele>140.8</ele>
        <time>1970-01-01T02:06:17.000Z</time>
      </trkpt>
      <trkpt lat="45.03443" lon="0.72834">
        <ele>140.8</ele>
        <time>1970-01-01T02:06:18.000Z</time>
      </trkpt>
      <trkpt lat="45.03444" lon="0.72831">
        <ele>141.9</ele>
        <time>1970-01-01T02:06:19.000Z</time>
      </trkpt>
      <trkpt lat="45.03445" lon="0.72828">
        <ele>141.9</ele>
        <time>1970-01-01T02:06:20.000Z</time>
      </trkpt>
      <trkpt lat="45.03446" lon="0.72825">
        <ele>141.9</ele>
        <time>1970-01-01T02:06:21.000Z</time>
      </trkpt>
      <trkpt lat="45.03448" lon="0.72822">
        <ele>142.8</ele>
        <time>1970-01-01T02:06:22.000Z</time>
      </trkpt>
      <trkpt lat="45.03449" lon="0.72819">
        <ele>142.8</ele>
        <time>1970-01-01T02:06:23.000Z</time>
      </trkpt>
      <trkpt lat="45.0345" lon="0.72816">
        <ele>143.9</ele>
        <time>1970-01-01T02:06:24.000Z</time>
      </trkpt>
      <trkpt lat="45.03451" lon="0.72813">
        <ele>143.9</ele>
        <time>1970-01-01T02:06:25.000Z</time>
      </trkpt>
      <trkpt lat="45.03452" lon="0.72809">
        <ele>144.8</ele>
        <time>1970-01-01T02:06:26.000Z</time>
      </trkpt>
      <trkpt lat="45.03453" lon="0.72806">
        <ele>144.8</ele>
        <time>1970-01-01T02:06:27.000Z</time>
      </trkpt>
      <trkpt lat="45.03454" lon="0.72804">
        <ele>145.8</ele>
        <time>1970-01-01T02:06:28.000Z</time>
      </trkpt>
      <trkpt lat="45.03455" lon="0.72801">
        <ele>145.8</ele>
        <time>1970-01-01T02:06:29.000Z</time>
      </trkpt>
      <trkpt lat="45.03457" lon="0.72798">
        <ele>145.8</ele>
        <time>1970-01-01T02:06:30.000Z</time>
      </trkpt>
      <trkpt lat="45.03458" lon="0.72795">
        <ele>146.8</ele>
        <time>1970-01-01T02:06:31.000Z</time>
      </trkpt>
      <trkpt lat="45.03459" lon="0.72792">
        <ele>146.8</ele>
        <time>1970-01-01T02:06:32.000Z</time>
      </trkpt>
      <trkpt lat="45.0346" lon="0.72789">
        <ele>146.8</ele>
        <time>1970-01-01T02:06:33.000Z</time>
      </trkpt>
      <trkpt lat="45.03461" lon="0.72786">
        <ele>147.8</ele>
        <time>1970-01-01T02:06:34.000Z</time>
      </trkpt>
      <trkpt lat="45.03462" lon="0.72783">
        <ele>147.8</ele>
        <time>1970-01-01T02:06:35.000Z</time>
      </trkpt>
      <trkpt lat="45.03463" lon="0.72781">
        <ele>147.8</ele>
        <time>1970-01-01T02:06:36.000Z</time>
      </trkpt>
      <trkpt lat="45.03465" lon="0.72778">
        <ele>148.9</ele>
        <time>1970-01-01T02:06:37.000Z</time>
      </trkpt>
      <trkpt lat="45.03466" lon="0.72775">
        <ele>148.9</ele>
        <time>1970-01-01T02:06:38.000Z</time>
      </trkpt>
      <trkpt lat="45.03467" lon="0.72773">
        <ele>149.8</ele>
        <time>1970-01-01T02:06:39.000Z</time>
      </trkpt>
      <trkpt lat="45.03468" lon="0.7277">
        <ele>149.8</ele>
        <time>1970-01-01T02:06:40.000Z</time>
      </trkpt>
      <trkpt lat="45.03469" lon="0.72768">
        <ele>150.9</ele>
        <time>1970-01-01T02:06:41.000Z</time>
      </trkpt>
      <trkpt lat="45.0347" lon="0.72765">
        <ele>151.8</ele>
        <time>1970-01-01T02:06:42.000Z</time>
      </trkpt>
      <trkpt lat="45.03471" lon="0.72763">
        <ele>151.8</ele>
        <time>1970-01-01T02:06:43.000Z</time>
      </trkpt>
      <trkpt lat="45.03472" lon="0.7276">
        <ele>152.9</ele>
        <time>1970-01-01T02:06:44.000Z</time>
      </trkpt>
      <trkpt lat="45.03473" lon="0.72758">
        <ele>152.9</ele>
        <time>1970-01-01T02:06:45.000Z</time>
      </trkpt>
      <trkpt lat="45.03474" lon="0.72756">
        <ele>152.9</ele>
        <time>1970-01-01T02:06:46.000Z</time>
      </trkpt>
      <trkpt lat="45.03475" lon="0.72753">
        <ele>152.9</ele>
        <time>1970-01-01T02:06:47.000Z</time>
      </trkpt>
      <trkpt lat="45.03476" lon="0.72751">
        <ele>153.8</ele>
        <time>1970-01-01T02:06:48.000Z</time>
      </trkpt>
      <trkpt lat="45.03477" lon="0.72748">
        <ele>153.8</ele>
        <time>1970-01-01T02:06:49.000Z</time>
      </trkpt>
      <trkpt lat="45.03478" lon="0.72746">
        <ele>154.8</ele>
        <time>1970-01-01T02:06:50.000Z</time>
      </trkpt>
      <trkpt lat="45.03479" lon="0.72743">
        <ele>154.8</ele>
        <time>1970-01-01T02:06:51.000Z</time>
      </trkpt>
      <trkpt lat="45.0348" lon="0.72741">
        <ele>154.8</ele>
        <time>1970-01-01T02:06:52.000Z</time>
      </trkpt>
      <trkpt lat="45.03481" lon="0.72738">
        <ele>154.8</ele>
        <time>1970-01-01T02:06:53.000Z</time>
      </trkpt>
      <trkpt lat="45.03482" lon="0.72735">
        <ele>154.8</ele>
        <time>1970-01-01T02:06:54.000Z</time>
      </trkpt>
      <trkpt lat="45.03483" lon="0.72733">
        <ele>154.8</ele>
        <time>1970-01-01T02:06:55.000Z</time>
      </trkpt>
      <trkpt lat="45.03484" lon="0.7273">
        <ele>155.9</ele>
        <time>1970-01-01T02:06:56.000Z</time>
      </trkpt>
      <trkpt lat="45.03485" lon="0.72728">
        <ele>155.9</ele>
        <time>1970-01-01T02:06:57.000Z</time>
      </trkpt>
      <trkpt lat="45.03486" lon="0.72725">
        <ele>155.9</ele>
        <time>1970-01-01T02:06:58.000Z</time>
      </trkpt>
      <trkpt lat="45.03487" lon="0.72723">
        <ele>155.9</ele>
        <time>1970-01-01T02:06:59.000Z</time>
      </trkpt>
      <trkpt lat="45.03488" lon="0.7272">
        <ele>156.8</ele>
        <time>1970-01-01T02:07:00.000Z</time>
      </trkpt>
      <trkpt lat="45.03489" lon="0.72718">
        <ele>156.8</ele>
        <time>1970-01-01T02:07:01.000Z</time>
      </trkpt>
      <trkpt lat="45.0349" lon="0.72715">
        <ele>156.8</ele>
        <time>1970-01-01T02:07:02.000Z</time>
      </trkpt>
      <trkpt lat="45.03491" lon="0.72713">
        <ele>156.8</ele>
        <time>1970-01-01T02:07:03.000Z</time>
      </trkpt>
      <trkpt lat="45.03492" lon="0.7271">
        <ele>157.9</ele>
        <time>1970-01-01T02:07:04.000Z</time>
      </trkpt>
      <trkpt lat="45.03493" lon="0.72708">
        <ele>157.9</ele>
        <time>1970-01-01T02:07:05.000Z</time>
      </trkpt>
      <trkpt lat="45.03494" lon="0.72705">
        <ele>157.9</ele>
        <time>1970-01-01T02:07:06.000Z</time>
      </trkpt>
      <trkpt lat="45.03495" lon="0.72702">
        <ele>157.9</ele>
        <time>1970-01-01T02:07:07.000Z</time>
      </trkpt>
      <trkpt lat="45.03496" lon="0.727">
        <ele>157.9</ele>
        <time>1970-01-01T02:07:08.000Z</time>
      </trkpt>
      <trkpt lat="45.03497" lon="0.72697">
        <ele>157.9</ele>
        <time>1970-01-01T02:07:09.000Z</time>
      </trkpt>
      <trkpt lat="45.03498" lon="0.72694">
        <ele>158.8</ele>
        <time>1970-01-01T02:07:10.000Z</time>
      </trkpt>
      <trkpt lat="45.03499" lon="0.72692">
        <ele>158.8</ele>
        <time>1970-01-01T02:07:11.000Z</time>
      </trkpt>
      <trkpt lat="45.035" lon="0.72689">
        <ele>158.8</ele>
        <time>1970-01-01T02:07:12.000Z</time>
      </trkpt>
      <trkpt lat="45.03501" lon="0.72686">
        <ele>158.8</ele>
        <time>1970-01-01T02:07:13.000Z</time>
      </trkpt>
      <trkpt lat="45.03502" lon="0.72684">
        <ele>159.9</ele>
        <time>1970-01-01T02:07:14.000Z</time>
      </trkpt>
      <trkpt lat="45.03503" lon="0.72681">
        <ele>159.9</ele>
        <time>1970-01-01T02:07:15.000Z</time>
      </trkpt>
      <trkpt lat="45.03504" lon="0.72678">
        <ele>159.9</ele>
        <time>1970-01-01T02:07:16.000Z</time>
      </trkpt>
      <trkpt lat="45.03505" lon="0.72675">
        <ele>159.9</ele>
        <time>1970-01-01T02:07:17.000Z</time>
      </trkpt>
      <trkpt lat="45.03506" lon="0.72673">
        <ele>160.8</ele>
        <time>1970-01-01T02:07:18.000Z</time>
      </trkpt>
      <trkpt lat="45.03507" lon="0.7267">
        <ele>160.8</ele>
        <time>1970-01-01T02:07:19.000Z</time>
      </trkpt>
      <trkpt lat="45.03508" lon="0.72667">
        <ele>161.9</ele>
        <time>1970-01-01T02:07:20.000Z</time>
      </trkpt>
      <trkpt lat="45.03509" lon="0.72664">
        <ele>161.9</ele>
        <time>1970-01-01T02:07:21.000Z</time>
      </trkpt>
      <trkpt lat="45.0351" lon="0.72661">
        <ele>161.9</ele>
        <time>1970-01-01T02:07:22.000Z</time>
      </trkpt>
      <trkpt lat="45.0351" lon="0.72659">
        <ele>161.9</ele>
        <time>1970-01-01T02:07:23.000Z</time>
      </trkpt>
      <trkpt lat="45.03511" lon="0.72656">
        <ele>161.9</ele>
        <time>1970-01-01T02:07:24.000Z</time>
      </trkpt>
      <trkpt lat="45.03512" lon="0.72653">
        <ele>161.9</ele>
        <time>1970-01-01T02:07:25.000Z</time>
      </trkpt>
      <trkpt lat="45.03513" lon="0.7265">
        <ele>161.9</ele>
        <time>1970-01-01T02:07:26.000Z</time>
      </trkpt>
      <trkpt lat="45.03513" lon="0.72647">
        <ele>161.9</ele>
        <time>1970-01-01T02:07:27.000Z</time>
      </trkpt>
      <trkpt lat="45.03514" lon="0.72644">
        <ele>161.9</ele>
        <time>1970-01-01T02:07:28.000Z</time>
      </trkpt>
      <trkpt lat="45.03514" lon="0.72641">
        <ele>161.9</ele>
        <time>1970-01-01T02:07:29.000Z</time>
      </trkpt>
      <trkpt lat="45.03514" lon="0.72638">
        <ele>161.9</ele>
        <time>1970-01-01T02:07:30.000Z</time>
      </trkpt>
      <trkpt lat="45.03515" lon="0.72634">
        <ele>161.9</ele>
        <time>1970-01-01T02:07:31.000Z</time>
      </trkpt>
      <trkpt lat="45.03515" lon="0.7263">
        <ele>161.9</ele>
        <time>1970-01-01T02:07:32.000Z</time>
      </trkpt>
      <trkpt lat="45.03515" lon="0.72627">
        <ele>161.9</ele>
        <time>1970-01-01T02:07:33.000Z</time>
      </trkpt>
      <trkpt lat="45.03516" lon="0.72623">
        <ele>164.9</ele>
        <time>1970-01-01T02:07:34.000Z</time>
      </trkpt>
      <trkpt lat="45.03518" lon="0.7262">
        <ele>164.9</ele>
        <time>1970-01-01T02:07:35.000Z</time>
      </trkpt>
      <trkpt lat="45.03519" lon="0.72617">
        <ele>164.9</ele>
        <time>1970-01-01T02:07:36.000Z</time>
      </trkpt>
      <trkpt lat="45.03521" lon="0.72614">
        <ele>164.9</ele>
        <time>1970-01-01T02:07:37.000Z</time>
      </trkpt>
      <trkpt lat="45.03523" lon="0.7261">
        <ele>165.8</ele>
        <time>1970-01-01T02:07:38.000Z</time>
      </trkpt>
      <trkpt lat="45.03525" lon="0.72607">
        <ele>165.8</ele>
        <time>1970-01-01T02:07:39.000Z</time>
      </trkpt>
      <trkpt lat="45.03527" lon="0.72604">
        <ele>165.8</ele>
        <time>1970-01-01T02:07:40.000Z</time>
      </trkpt>
      <trkpt lat="45.03529" lon="0.726">
        <ele>165.8</ele>
        <time>1970-01-01T02:07:41.000Z</time>
      </trkpt>
      <trkpt lat="45.03531" lon="0.72597">
        <ele>165.8</ele>
        <time>1970-01-01T02:07:42.000Z</time>
      </trkpt>
      <trkpt lat="45.03533" lon="0.72593">
        <ele>165.8</ele>
        <time>1970-01-01T02:07:43.000Z</time>
      </trkpt>
      <trkpt lat="45.03535" lon="0.7259">
        <ele>166.9</ele>
        <time>1970-01-01T02:07:44.000Z</time>
      </trkpt>
      <trkpt lat="45.03537" lon="0.72586">
        <ele>166.9</ele>
        <time>1970-01-01T02:07:45.000Z</time>
      </trkpt>
      <trkpt lat="45.03539" lon="0.72583">
        <ele>166.9</ele>
        <time>1970-01-01T02:07:46.000Z</time>
      </trkpt>
      <trkpt lat="45.03541" lon="0.7258">
        <ele>166.9</ele>
        <time>1970-01-01T02:07:47.000Z</time>
      </trkpt>
      <trkpt lat="45.03543" lon="0.72577">
        <ele>167.8</ele>
        <time>1970-01-01T02:07:48.000Z</time>
      </trkpt>
      <trkpt lat="45.03545" lon="0.72574">
        <ele>167.8</ele>
        <time>1970-01-01T02:07:49.000Z</time>
      </trkpt>
      <trkpt lat="45.03547" lon="0.72571">
        <ele>167.8</ele>
        <time>1970-01-01T02:07:50.000Z</time>
      </trkpt>
      <trkpt lat="45.0355" lon="0.72568">
        <ele>167.8</ele>
        <time>1970-01-01T02:07:51.000Z</time>
      </trkpt>
      <trkpt lat="45.03552" lon="0.72565">
        <ele>167.8</ele>
        <time>1970-01-01T02:07:52.000Z</time>
      </trkpt>
      <trkpt lat="45.03555" lon="0.72561">
        <ele>167.8</ele>
        <time>1970-01-01T02:07:53.000Z</time>
      </trkpt>
      <trkpt lat="45.03558" lon="0.72558">
        <ele>167.8</ele>
        <time>1970-01-01T02:07:54.000Z</time>
      </trkpt>
      <trkpt lat="45.03561" lon="0.72554">
        <ele>167.8</ele>
        <time>1970-01-01T02:07:55.000Z</time>
      </trkpt>
      <trkpt lat="45.03564" lon="0.72551">
        <ele>167.8</ele>
        <time>1970-01-01T02:07:56.000Z</time>
      </trkpt>
      <trkpt lat="45.03568" lon="0.72547">
        <ele>167.8</ele>
        <time>1970-01-01T02:07:57.000Z</time>
      </trkpt>
      <trkpt lat="45.03571" lon="0.72543">
        <ele>167.8</ele>
        <time>1970-01-01T02:07:58.000Z</time>
      </trkpt>
      <trkpt lat="45.03575" lon="0.7254">
        <ele>167.8</ele>
        <time>1970-01-01T02:07:59.000Z</time>
      </trkpt>
      <trkpt lat="45.03578" lon="0.72536">
        <ele>167.8</ele>
        <time>1970-01-01T02:08:00.000Z</time>
      </trkpt>
      <trkpt lat="45.03582" lon="0.72532">
        <ele>167.8</ele>
        <time>1970-01-01T02:08:01.000Z</time>
      </trkpt>
      <trkpt lat="45.03585" lon="0.72528">
        <ele>167.8</ele>
        <time>1970-01-01T02:08:02.000Z</time>
      </trkpt>
      <trkpt lat="45.03589" lon="0.72523">
        <ele>167.8</ele>
        <time>1970-01-01T02:08:03.000Z</time>
      </trkpt>
      <trkpt lat="45.03593" lon="0.72519">
        <ele>167.8</ele>
        <time>1970-01-01T02:08:04.000Z</time>
      </trkpt>
      <trkpt lat="45.03597" lon="0.72515">
        <ele>167.8</ele>
        <time>1970-01-01T02:08:05.000Z</time>
      </trkpt>
      <trkpt lat="45.03601" lon="0.7251">
        <ele>167.8</ele>
        <time>1970-01-01T02:08:06.000Z</time>
      </trkpt>
      <trkpt lat="45.03605" lon="0.72506">
        <ele>167.8</ele>
        <time>1970-01-01T02:08:07.000Z</time>
      </trkpt>
      <trkpt lat="45.03609" lon="0.72501">
        <ele>167.8</ele>
        <time>1970-01-01T02:08:08.000Z</time>
      </trkpt>
      <trkpt lat="45.03613" lon="0.72497">
        <ele>167.8</ele>
        <time>1970-01-01T02:08:09.000Z</time>
      </trkpt>
      <trkpt lat="45.03617" lon="0.72493">
        <ele>167.8</ele>
        <time>1970-01-01T02:08:10.000Z</time>
      </trkpt>
      <trkpt lat="45.03621" lon="0.72488">
        <ele>167.8</ele>
        <time>1970-01-01T02:08:11.000Z</time>
      </trkpt>
      <trkpt lat="45.03626" lon="0.72484">
        <ele>167.8</ele>
        <time>1970-01-01T02:08:12.000Z</time>
      </trkpt>
      <trkpt lat="45.0363" lon="0.7248">
        <ele>167.8</ele>
        <time>1970-01-01T02:08:13.000Z</time>
      </trkpt>
      <trkpt lat="45.03635" lon="0.72475">
        <ele>167.8</ele>
        <time>1970-01-01T02:08:14.000Z</time>
      </trkpt>
      <trkpt lat="45.0364" lon="0.7247">
        <ele>167.8</ele>
        <time>1970-01-01T02:08:15.000Z</time>
      </trkpt>
      <trkpt lat="45.03645" lon="0.72466">
        <ele>167.8</ele>
        <time>1970-01-01T02:08:16.000Z</time>
      </trkpt>
      <trkpt lat="45.0365" lon="0.72461">
        <ele>167.8</ele>
        <time>1970-01-01T02:08:17.000Z</time>
      </trkpt>
      <trkpt lat="45.03655" lon="0.72456">
        <ele>167.8</ele>
        <time>1970-01-01T02:08:18.000Z</time>
      </trkpt>
      <trkpt lat="45.0366" lon="0.72452">
        <ele>167.8</ele>
        <time>1970-01-01T02:08:19.000Z</time>
      </trkpt>
      <trkpt lat="45.03665" lon="0.72447">
        <ele>167.8</ele>
        <time>1970-01-01T02:08:20.000Z</time>
      </trkpt>
      <trkpt lat="45.03671" lon="0.72444">
        <ele>167.8</ele>
        <time>1970-01-01T02:08:21.000Z</time>
      </trkpt>
      <trkpt lat="45.03677" lon="0.72441">
        <ele>167.8</ele>
        <time>1970-01-01T02:08:22.000Z</time>
      </trkpt>
      <trkpt lat="45.03682" lon="0.72438">
        <ele>167.8</ele>
        <time>1970-01-01T02:08:23.000Z</time>
      </trkpt>
      <trkpt lat="45.03688" lon="0.72436">
        <ele>167.8</ele>
        <time>1970-01-01T02:08:24.000Z</time>
      </trkpt>
      <trkpt lat="45.03694" lon="0.72434">
        <ele>167.8</ele>
        <time>1970-01-01T02:08:25.000Z</time>
      </trkpt>
      <trkpt lat="45.03699" lon="0.72431">
        <ele>168.9</ele>
        <time>1970-01-01T02:08:26.000Z</time>
      </trkpt>
      <trkpt lat="45.03705" lon="0.72429">
        <ele>168.9</ele>
        <time>1970-01-01T02:08:27.000Z</time>
      </trkpt>
      <trkpt lat="45.0371" lon="0.72426">
        <ele>168.9</ele>
        <time>1970-01-01T02:08:28.000Z</time>
      </trkpt>
      <trkpt lat="45.03715" lon="0.72423">
        <ele>168.9</ele>
        <time>1970-01-01T02:08:29.000Z</time>
      </trkpt>
      <trkpt lat="45.0372" lon="0.7242">
        <ele>168.9</ele>
        <time>1970-01-01T02:08:30.000Z</time>
      </trkpt>
      <trkpt lat="45.03724" lon="0.72418">
        <ele>168.9</ele>
        <time>1970-01-01T02:08:31.000Z</time>
      </trkpt>
      <trkpt lat="45.03728" lon="0.72415">
        <ele>168.9</ele>
        <time>1970-01-01T02:08:32.000Z</time>
      </trkpt>
      <trkpt lat="45.03731" lon="0.72412">
        <ele>168.9</ele>
        <time>1970-01-01T02:08:33.000Z</time>
      </trkpt>
      <trkpt lat="45.03732" lon="0.72408">
        <ele>168.9</ele>
        <time>1970-01-01T02:08:34.000Z</time>
      </trkpt>
      <trkpt lat="45.03731" lon="0.72405">
        <ele>168.9</ele>
        <time>1970-01-01T02:08:35.000Z</time>
      </trkpt>
      <trkpt lat="45.03728" lon="0.72404">
        <ele>168.9</ele>
        <time>1970-01-01T02:08:36.000Z</time>
      </trkpt>
      <trkpt lat="45.03725" lon="0.72403">
        <ele>168.9</ele>
        <time>1970-01-01T02:08:37.000Z</time>
      </trkpt>
      <trkpt lat="45.03722" lon="0.72402">
        <ele>168.9</ele>
        <time>1970-01-01T02:08:38.000Z</time>
      </trkpt>
      <trkpt lat="45.03716" lon="0.72401">
        <ele>168.9</ele>
        <time>1970-01-01T02:08:39.000Z</time>
      </trkpt>
      <trkpt lat="45.0371" lon="0.724">
        <ele>168.9</ele>
        <time>1970-01-01T02:08:40.000Z</time>
      </trkpt>
      <trkpt lat="45.03702" lon="0.72398">
        <ele>168.9</ele>
        <time>1970-01-01T02:08:41.000Z</time>
      </trkpt>
      <trkpt lat="45.03695" lon="0.72397">
        <ele>168.9</ele>
        <time>1970-01-01T02:08:42.000Z</time>
      </trkpt>
      <trkpt lat="45.03688" lon="0.72395">
        <ele>168.9</ele>
        <time>1970-01-01T02:08:43.000Z</time>
      </trkpt>
      <trkpt lat="45.03681" lon="0.72392">
        <ele>168.9</ele>
        <time>1970-01-01T02:08:44.000Z</time>
      </trkpt>
      <trkpt lat="45.03674" lon="0.7239">
        <ele>168.9</ele>
        <time>1970-01-01T02:08:45.000Z</time>
      </trkpt>
      <trkpt lat="45.03668" lon="0.72388">
        <ele>165.8</ele>
        <time>1970-01-01T02:08:46.000Z</time>
      </trkpt>
      <trkpt lat="45.0366" lon="0.72386">
        <ele>165.8</ele>
        <time>1970-01-01T02:08:47.000Z</time>
      </trkpt>
      <trkpt lat="45.03654" lon="0.72384">
        <ele>165.8</ele>
        <time>1970-01-01T02:08:48.000Z</time>
      </trkpt>
      <trkpt lat="45.03647" lon="0.72382">
        <ele>165.8</ele>
        <time>1970-01-01T02:08:49.000Z</time>
      </trkpt>
      <trkpt lat="45.0364" lon="0.7238">
        <ele>165.8</ele>
        <time>1970-01-01T02:08:50.000Z</time>
      </trkpt>
      <trkpt lat="45.03634" lon="0.72378">
        <ele>165.8</ele>
        <time>1970-01-01T02:08:51.000Z</time>
      </trkpt>
      <trkpt lat="45.03627" lon="0.72376">
        <ele>163.8</ele>
        <time>1970-01-01T02:08:52.000Z</time>
      </trkpt>
      <trkpt lat="45.0362" lon="0.72375">
        <ele>163.8</ele>
        <time>1970-01-01T02:08:53.000Z</time>
      </trkpt>
      <trkpt lat="45.03613" lon="0.72373">
        <ele>163.8</ele>
        <time>1970-01-01T02:08:54.000Z</time>
      </trkpt>
      <trkpt lat="45.03606" lon="0.72371">
        <ele>163.8</ele>
        <time>1970-01-01T02:08:55.000Z</time>
      </trkpt>
      <trkpt lat="45.03599" lon="0.72369">
        <ele>163.8</ele>
        <time>1970-01-01T02:08:56.000Z</time>
      </trkpt>
      <trkpt lat="45.03592" lon="0.72366">
        <ele>163.8</ele>
        <time>1970-01-01T02:08:57.000Z</time>
      </trkpt>
      <trkpt lat="45.03585" lon="0.72363">
        <ele>161.9</ele>
        <time>1970-01-01T02:08:58.000Z</time>
      </trkpt>
      <trkpt lat="45.03577" lon="0.72359">
        <ele>161.9</ele>
        <time>1970-01-01T02:08:59.000Z</time>
      </trkpt>
      <trkpt lat="45.0357" lon="0.72355">
        <ele>160.8</ele>
        <time>1970-01-01T02:09:00.000Z</time>
      </trkpt>
      <trkpt lat="45.03563" lon="0.72351">
        <ele>160.8</ele>
        <time>1970-01-01T02:09:01.000Z</time>
      </trkpt>
      <trkpt lat="45.03556" lon="0.72347">
        <ele>158.8</ele>
        <time>1970-01-01T02:09:02.000Z</time>
      </trkpt>
      <trkpt lat="45.03549" lon="0.72342">
        <ele>158.8</ele>
        <time>1970-01-01T02:09:03.000Z</time>
      </trkpt>
      <trkpt lat="45.03542" lon="0.72338">
        <ele>157.9</ele>
        <time>1970-01-01T02:09:04.000Z</time>
      </trkpt>
      <trkpt lat="45.03535" lon="0.72334">
        <ele>157.9</ele>
        <time>1970-01-01T02:09:05.000Z</time>
      </trkpt>
      <trkpt lat="45.03527" lon="0.72329">
        <ele>156.8</ele>
        <time>1970-01-01T02:09:06.000Z</time>
      </trkpt>
      <trkpt lat="45.0352" lon="0.72324">
        <ele>156.8</ele>
        <time>1970-01-01T02:09:07.000Z</time>
      </trkpt>
      <trkpt lat="45.03512" lon="0.7232">
        <ele>156.8</ele>
        <time>1970-01-01T02:09:08.000Z</time>
      </trkpt>
      <trkpt lat="45.03506" lon="0.72315">
        <ele>156.8</ele>
        <time>1970-01-01T02:09:09.000Z</time>
      </trkpt>
      <trkpt lat="45.03499" lon="0.72311">
        <ele>155.9</ele>
        <time>1970-01-01T02:09:10.000Z</time>
      </trkpt>
      <trkpt lat="45.03492" lon="0.72307">
        <ele>155.9</ele>
        <time>1970-01-01T02:09:11.000Z</time>
      </trkpt>
      <trkpt lat="45.03486" lon="0.72302">
        <ele>155.9</ele>
        <time>1970-01-01T02:09:12.000Z</time>
      </trkpt>
      <trkpt lat="45.0348" lon="0.72297">
        <ele>155.9</ele>
        <time>1970-01-01T02:09:13.000Z</time>
      </trkpt>
      <trkpt lat="45.03473" lon="0.72292">
        <ele>155.9</ele>
        <time>1970-01-01T02:09:14.000Z</time>
      </trkpt>
      <trkpt lat="45.03468" lon="0.72287">
        <ele>155.9</ele>
        <time>1970-01-01T02:09:15.000Z</time>
      </trkpt>
      <trkpt lat="45.03463" lon="0.72284">
        <ele>155.9</ele>
        <time>1970-01-01T02:09:16.000Z</time>
      </trkpt>
      <trkpt lat="45.03458" lon="0.72281">
        <ele>155.9</ele>
        <time>1970-01-01T02:09:17.000Z</time>
      </trkpt>
      <trkpt lat="45.03452" lon="0.72276">
        <ele>155.9</ele>
        <time>1970-01-01T02:09:18.000Z</time>
      </trkpt>
      <trkpt lat="45.03446" lon="0.72271">
        <ele>155.9</ele>
        <time>1970-01-01T02:09:19.000Z</time>
      </trkpt>
      <trkpt lat="45.0344" lon="0.72266">
        <ele>155.9</ele>
        <time>1970-01-01T02:09:20.000Z</time>
      </trkpt>
      <trkpt lat="45.03435" lon="0.72261">
        <ele>155.9</ele>
        <time>1970-01-01T02:09:21.000Z</time>
      </trkpt>
      <trkpt lat="45.0343" lon="0.72256">
        <ele>155.9</ele>
        <time>1970-01-01T02:09:22.000Z</time>
      </trkpt>
      <trkpt lat="45.03425" lon="0.72251">
        <ele>155.9</ele>
        <time>1970-01-01T02:09:23.000Z</time>
      </trkpt>
      <trkpt lat="45.0342" lon="0.72247">
        <ele>155.9</ele>
        <time>1970-01-01T02:09:24.000Z</time>
      </trkpt>
      <trkpt lat="45.03415" lon="0.72242">
        <ele>155.9</ele>
        <time>1970-01-01T02:09:25.000Z</time>
      </trkpt>
      <trkpt lat="45.03411" lon="0.72237">
        <ele>156.8</ele>
        <time>1970-01-01T02:09:26.000Z</time>
      </trkpt>
      <trkpt lat="45.03407" lon="0.72232">
        <ele>156.8</ele>
        <time>1970-01-01T02:09:27.000Z</time>
      </trkpt>
      <trkpt lat="45.03402" lon="0.72227">
        <ele>156.8</ele>
        <time>1970-01-01T02:09:28.000Z</time>
      </trkpt>
      <trkpt lat="45.03398" lon="0.72222">
        <ele>156.8</ele>
        <time>1970-01-01T02:09:29.000Z</time>
      </trkpt>
      <trkpt lat="45.03394" lon="0.72217">
        <ele>156.8</ele>
        <time>1970-01-01T02:09:30.000Z</time>
      </trkpt>
      <trkpt lat="45.0339" lon="0.72213">
        <ele>156.8</ele>
        <time>1970-01-01T02:09:31.000Z</time>
      </trkpt>
      <trkpt lat="45.03385" lon="0.72209">
        <ele>157.9</ele>
        <time>1970-01-01T02:09:32.000Z</time>
      </trkpt>
      <trkpt lat="45.03382" lon="0.72205">
        <ele>157.9</ele>
        <time>1970-01-01T02:09:33.000Z</time>
      </trkpt>
      <trkpt lat="45.03378" lon="0.722">
        <ele>157.9</ele>
        <time>1970-01-01T02:09:34.000Z</time>
      </trkpt>
      <trkpt lat="45.03375" lon="0.72195">
        <ele>157.9</ele>
        <time>1970-01-01T02:09:35.000Z</time>
      </trkpt>
      <trkpt lat="45.03371" lon="0.72191">
        <ele>157.9</ele>
        <time>1970-01-01T02:09:36.000Z</time>
      </trkpt>
      <trkpt lat="45.03369" lon="0.72188">
        <ele>157.9</ele>
        <time>1970-01-01T02:09:37.000Z</time>
      </trkpt>
      <trkpt lat="45.03365" lon="0.72183">
        <ele>158.8</ele>
        <time>1970-01-01T02:09:38.000Z</time>
      </trkpt>
      <trkpt lat="45.03361" lon="0.72179">
        <ele>158.8</ele>
        <time>1970-01-01T02:09:39.000Z</time>
      </trkpt>
      <trkpt lat="45.03358" lon="0.72176">
        <ele>159.9</ele>
        <time>1970-01-01T02:09:40.000Z</time>
      </trkpt>
      <trkpt lat="45.03355" lon="0.72172">
        <ele>159.9</ele>
        <time>1970-01-01T02:09:41.000Z</time>
      </trkpt>
      <trkpt lat="45.03351" lon="0.72168">
        <ele>159.9</ele>
        <time>1970-01-01T02:09:42.000Z</time>
      </trkpt>
      <trkpt lat="45.03348" lon="0.72165">
        <ele>159.9</ele>
        <time>1970-01-01T02:09:43.000Z</time>
      </trkpt>
      <trkpt lat="45.03343" lon="0.72163">
        <ele>160.8</ele>
        <time>1970-01-01T02:09:44.000Z</time>
      </trkpt>
      <trkpt lat="45.03339" lon="0.72162">
        <ele>160.8</ele>
        <time>1970-01-01T02:09:45.000Z</time>
      </trkpt>
      <trkpt lat="45.03334" lon="0.7216">
        <ele>161.9</ele>
        <time>1970-01-01T02:09:46.000Z</time>
      </trkpt>
      <trkpt lat="45.0333" lon="0.72159">
        <ele>161.9</ele>
        <time>1970-01-01T02:09:47.000Z</time>
      </trkpt>
      <trkpt lat="45.03326" lon="0.72158">
        <ele>162.8</ele>
        <time>1970-01-01T02:09:48.000Z</time>
      </trkpt>
      <trkpt lat="45.03321" lon="0.72157">
        <ele>162.8</ele>
        <time>1970-01-01T02:09:49.000Z</time>
      </trkpt>
      <trkpt lat="45.03316" lon="0.72156">
        <ele>162.8</ele>
        <time>1970-01-01T02:09:50.000Z</time>
      </trkpt>
      <trkpt lat="45.03312" lon="0.72154">
        <ele>162.8</ele>
        <time>1970-01-01T02:09:51.000Z</time>
      </trkpt>
      <trkpt lat="45.03308" lon="0.72152">
        <ele>162.8</ele>
        <time>1970-01-01T02:09:52.000Z</time>
      </trkpt>
      <trkpt lat="45.03303" lon="0.72149">
        <ele>162.8</ele>
        <time>1970-01-01T02:09:53.000Z</time>
      </trkpt>
      <trkpt lat="45.03299" lon="0.72147">
        <ele>162.8</ele>
        <time>1970-01-01T02:09:54.000Z</time>
      </trkpt>
      <trkpt lat="45.03295" lon="0.72145">
        <ele>162.8</ele>
        <time>1970-01-01T02:09:55.000Z</time>
      </trkpt>
      <trkpt lat="45.0329" lon="0.72143">
        <ele>163.8</ele>
        <time>1970-01-01T02:09:56.000Z</time>
      </trkpt>
      <trkpt lat="45.03286" lon="0.72141">
        <ele>163.8</ele>
        <time>1970-01-01T02:09:57.000Z</time>
      </trkpt>
      <trkpt lat="45.03282" lon="0.72138">
        <ele>163.8</ele>
        <time>1970-01-01T02:09:58.000Z</time>
      </trkpt>
      <trkpt lat="45.03279" lon="0.72136">
        <ele>163.8</ele>
        <time>1970-01-01T02:09:59.000Z</time>
      </trkpt>
      <trkpt lat="45.03274" lon="0.72132">
        <ele>163.8</ele>
        <time>1970-01-01T02:10:00.000Z</time>
      </trkpt>
      <trkpt lat="45.0327" lon="0.7213">
        <ele>163.8</ele>
        <time>1970-01-01T02:10:01.000Z</time>
      </trkpt>
      <trkpt lat="45.03266" lon="0.72127">
        <ele>162.8</ele>
        <time>1970-01-01T02:10:02.000Z</time>
      </trkpt>
      <trkpt lat="45.03262" lon="0.72125">
        <ele>162.8</ele>
        <time>1970-01-01T02:10:03.000Z</time>
      </trkpt>
      <trkpt lat="45.03258" lon="0.72124">
        <ele>162.8</ele>
        <time>1970-01-01T02:10:04.000Z</time>
      </trkpt>
      <trkpt lat="45.03255" lon="0.72124">
        <ele>162.8</ele>
        <time>1970-01-01T02:10:05.000Z</time>
      </trkpt>
      <trkpt lat="45.03252" lon="0.72125">
        <ele>162.8</ele>
        <time>1970-01-01T02:10:06.000Z</time>
      </trkpt>
      <trkpt lat="45.0325" lon="0.72127">
        <ele>162.8</ele>
        <time>1970-01-01T02:10:07.000Z</time>
      </trkpt>
      <trkpt lat="45.03247" lon="0.7213">
        <ele>162.8</ele>
        <time>1970-01-01T02:10:08.000Z</time>
      </trkpt>
      <trkpt lat="45.03245" lon="0.72132">
        <ele>162.8</ele>
        <time>1970-01-01T02:10:09.000Z</time>
      </trkpt>
      <trkpt lat="45.03242" lon="0.72135">
        <ele>162.8</ele>
        <time>1970-01-01T02:10:10.000Z</time>
      </trkpt>
      <trkpt lat="45.03239" lon="0.72138">
        <ele>162.8</ele>
        <time>1970-01-01T02:10:11.000Z</time>
      </trkpt>
      <trkpt lat="45.03236" lon="0.72141">
        <ele>162.8</ele>
        <time>1970-01-01T02:10:12.000Z</time>
      </trkpt>
      <trkpt lat="45.03232" lon="0.72144">
        <ele>162.8</ele>
        <time>1970-01-01T02:10:13.000Z</time>
      </trkpt>
      <trkpt lat="45.03229" lon="0.72147">
        <ele>162.8</ele>
        <time>1970-01-01T02:10:14.000Z</time>
      </trkpt>
      <trkpt lat="45.03225" lon="0.7215">
        <ele>162.8</ele>
        <time>1970-01-01T02:10:15.000Z</time>
      </trkpt>
      <trkpt lat="45.03222" lon="0.7215">
        <ele>162.8</ele>
        <time>1970-01-01T02:10:16.000Z</time>
      </trkpt>
      <trkpt lat="45.0322" lon="0.72149">
        <ele>162.8</ele>
        <time>1970-01-01T02:10:17.000Z</time>
      </trkpt>
      <trkpt lat="45.03218" lon="0.72146">
        <ele>161.9</ele>
        <time>1970-01-01T02:10:18.000Z</time>
      </trkpt>
      <trkpt lat="45.03217" lon="0.72144">
        <ele>161.9</ele>
        <time>1970-01-01T02:10:19.000Z</time>
      </trkpt>
      <trkpt lat="45.03214" lon="0.7214">
        <ele>161.9</ele>
        <time>1970-01-01T02:10:20.000Z</time>
      </trkpt>
      <trkpt lat="45.03211" lon="0.72134">
        <ele>161.9</ele>
        <time>1970-01-01T02:10:21.000Z</time>
      </trkpt>
      <trkpt lat="45.03208" lon="0.72129">
        <ele>161.9</ele>
        <time>1970-01-01T02:10:22.000Z</time>
      </trkpt>
      <trkpt lat="45.03205" lon="0.72123">
        <ele>161.9</ele>
        <time>1970-01-01T02:10:23.000Z</time>
      </trkpt>
      <trkpt lat="45.03201" lon="0.72116">
        <ele>161.9</ele>
        <time>1970-01-01T02:10:24.000Z</time>
      </trkpt>
      <trkpt lat="45.03197" lon="0.72109">
        <ele>161.9</ele>
        <time>1970-01-01T02:10:25.000Z</time>
      </trkpt>
      <trkpt lat="45.03193" lon="0.72102">
        <ele>159.9</ele>
        <time>1970-01-01T02:10:26.000Z</time>
      </trkpt>
      <trkpt lat="45.03188" lon="0.72095">
        <ele>159.9</ele>
        <time>1970-01-01T02:10:27.000Z</time>
      </trkpt>
      <trkpt lat="45.03183" lon="0.72089">
        <ele>159.9</ele>
        <time>1970-01-01T02:10:28.000Z</time>
      </trkpt>
      <trkpt lat="45.03178" lon="0.72083">
        <ele>159.9</ele>
        <time>1970-01-01T02:10:29.000Z</time>
      </trkpt>
      <trkpt lat="45.03174" lon="0.72077">
        <ele>159.9</ele>
        <time>1970-01-01T02:10:30.000Z</time>
      </trkpt>
      <trkpt lat="45.0317" lon="0.72071">
        <ele>159.9</ele>
        <time>1970-01-01T02:10:31.000Z</time>
      </trkpt>
      <trkpt lat="45.03166" lon="0.72065">
        <ele>158.8</ele>
        <time>1970-01-01T02:10:32.000Z</time>
      </trkpt>
      <trkpt lat="45.03162" lon="0.7206">
        <ele>158.8</ele>
        <time>1970-01-01T02:10:33.000Z</time>
      </trkpt>
      <trkpt lat="45.03156" lon="0.72055">
        <ele>158.8</ele>
        <time>1970-01-01T02:10:34.000Z</time>
      </trkpt>
      <trkpt lat="45.03149" lon="0.72054">
        <ele>158.8</ele>
        <time>1970-01-01T02:10:35.000Z</time>
      </trkpt>
      <trkpt lat="45.03142" lon="0.72053">
        <ele>158.8</ele>
        <time>1970-01-01T02:10:36.000Z</time>
      </trkpt>
      <trkpt lat="45.03134" lon="0.72054">
        <ele>158.8</ele>
        <time>1970-01-01T02:10:37.000Z</time>
      </trkpt>
      <trkpt lat="45.03126" lon="0.72055">
        <ele>158.8</ele>
        <time>1970-01-01T02:10:38.000Z</time>
      </trkpt>
      <trkpt lat="45.03118" lon="0.72058">
        <ele>158.8</ele>
        <time>1970-01-01T02:10:39.000Z</time>
      </trkpt>
      <trkpt lat="45.0311" lon="0.72061">
        <ele>151.8</ele>
        <time>1970-01-01T02:10:40.000Z</time>
      </trkpt>
      <trkpt lat="45.03102" lon="0.72065">
        <ele>151.8</ele>
        <time>1970-01-01T02:10:41.000Z</time>
      </trkpt>
      <trkpt lat="45.03095" lon="0.72071">
        <ele>148.9</ele>
        <time>1970-01-01T02:10:42.000Z</time>
      </trkpt>
      <trkpt lat="45.03089" lon="0.72076">
        <ele>148.9</ele>
        <time>1970-01-01T02:10:43.000Z</time>
      </trkpt>
      <trkpt lat="45.03084" lon="0.72081">
        <ele>147.8</ele>
        <time>1970-01-01T02:10:44.000Z</time>
      </trkpt>
      <trkpt lat="45.0308" lon="0.72085">
        <ele>147.8</ele>
        <time>1970-01-01T02:10:45.000Z</time>
      </trkpt>
      <trkpt lat="45.03075" lon="0.72088">
        <ele>145.8</ele>
        <time>1970-01-01T02:10:46.000Z</time>
      </trkpt>
      <trkpt lat="45.03071" lon="0.7209">
        <ele>145.8</ele>
        <time>1970-01-01T02:10:47.000Z</time>
      </trkpt>
      <trkpt lat="45.03066" lon="0.72089">
        <ele>142.8</ele>
        <time>1970-01-01T02:10:48.000Z</time>
      </trkpt>
      <trkpt lat="45.03061" lon="0.72087">
        <ele>142.8</ele>
        <time>1970-01-01T02:10:49.000Z</time>
      </trkpt>
      <trkpt lat="45.03055" lon="0.72083">
        <ele>139.9</ele>
        <time>1970-01-01T02:10:50.000Z</time>
      </trkpt>
      <trkpt lat="45.03049" lon="0.72079">
        <ele>139.9</ele>
        <time>1970-01-01T02:10:51.000Z</time>
      </trkpt>
      <trkpt lat="45.03042" lon="0.72074">
        <ele>136.9</ele>
        <time>1970-01-01T02:10:52.000Z</time>
      </trkpt>
      <trkpt lat="45.03034" lon="0.72069">
        <ele>136.9</ele>
        <time>1970-01-01T02:10:53.000Z</time>
      </trkpt>
      <trkpt lat="45.03027" lon="0.72063">
        <ele>133.8</ele>
        <time>1970-01-01T02:10:54.000Z</time>
      </trkpt>
      <trkpt lat="45.0302" lon="0.72059">
        <ele>133.8</ele>
        <time>1970-01-01T02:10:55.000Z</time>
      </trkpt>
      <trkpt lat="45.03013" lon="0.72054">
        <ele>129.8</ele>
        <time>1970-01-01T02:10:56.000Z</time>
      </trkpt>
      <trkpt lat="45.03006" lon="0.72049">
        <ele>129.8</ele>
        <time>1970-01-01T02:10:57.000Z</time>
      </trkpt>
      <trkpt lat="45.02999" lon="0.72043">
        <ele>125.9</ele>
        <time>1970-01-01T02:10:58.000Z</time>
      </trkpt>
      <trkpt lat="45.02992" lon="0.72038">
        <ele>125.9</ele>
        <time>1970-01-01T02:10:59.000Z</time>
      </trkpt>
      <trkpt lat="45.02986" lon="0.72032">
        <ele>122.8</ele>
        <time>1970-01-01T02:11:00.000Z</time>
      </trkpt>
      <trkpt lat="45.02979" lon="0.72026">
        <ele>122.8</ele>
        <time>1970-01-01T02:11:01.000Z</time>
      </trkpt>
      <trkpt lat="45.02973" lon="0.72019">
        <ele>118.9</ele>
        <time>1970-01-01T02:11:02.000Z</time>
      </trkpt>
      <trkpt lat="45.02967" lon="0.72013">
        <ele>118.9</ele>
        <time>1970-01-01T02:11:03.000Z</time>
      </trkpt>
      <trkpt lat="45.02961" lon="0.72005">
        <ele>114.8</ele>
        <time>1970-01-01T02:11:04.000Z</time>
      </trkpt>
      <trkpt lat="45.02957" lon="0.71998">
        <ele>114.8</ele>
        <time>1970-01-01T02:11:05.000Z</time>
      </trkpt>
      <trkpt lat="45.02952" lon="0.71989">
        <ele>110.8</ele>
        <time>1970-01-01T02:11:06.000Z</time>
      </trkpt>
      <trkpt lat="45.02949" lon="0.71982">
        <ele>110.8</ele>
        <time>1970-01-01T02:11:07.000Z</time>
      </trkpt>
      <trkpt lat="45.02946" lon="0.71975">
        <ele>108.8</ele>
        <time>1970-01-01T02:11:08.000Z</time>
      </trkpt>
      <trkpt lat="45.02942" lon="0.71969">
        <ele>108.8</ele>
        <time>1970-01-01T02:11:09.000Z</time>
      </trkpt>
      <trkpt lat="45.02938" lon="0.71964">
        <ele>105.8</ele>
        <time>1970-01-01T02:11:10.000Z</time>
      </trkpt>
      <trkpt lat="45.02934" lon="0.7196">
        <ele>105.8</ele>
        <time>1970-01-01T02:11:11.000Z</time>
      </trkpt>
      <trkpt lat="45.02931" lon="0.71958">
        <ele>103.8</ele>
        <time>1970-01-01T02:11:12.000Z</time>
      </trkpt>
      <trkpt lat="45.02926" lon="0.71958">
        <ele>103.8</ele>
        <time>1970-01-01T02:11:13.000Z</time>
      </trkpt>
      <trkpt lat="45.02921" lon="0.71959">
        <ele>101.8</ele>
        <time>1970-01-01T02:11:14.000Z</time>
      </trkpt>
      <trkpt lat="45.02917" lon="0.7196">
        <ele>101.8</ele>
        <time>1970-01-01T02:11:15.000Z</time>
      </trkpt>
      <trkpt lat="45.02913" lon="0.71962">
        <ele>99.8</ele>
        <time>1970-01-01T02:11:16.000Z</time>
      </trkpt>
      <trkpt lat="45.02909" lon="0.71964">
        <ele>99.8</ele>
        <time>1970-01-01T02:11:17.000Z</time>
      </trkpt>
      <trkpt lat="45.02904" lon="0.71966">
        <ele>98.9</ele>
        <time>1970-01-01T02:11:18.000Z</time>
      </trkpt>
      <trkpt lat="45.029" lon="0.71969">
        <ele>98.9</ele>
        <time>1970-01-01T02:11:19.000Z</time>
      </trkpt>
      <trkpt lat="45.02897" lon="0.71971">
        <ele>98.9</ele>
        <time>1970-01-01T02:11:20.000Z</time>
      </trkpt>
      <trkpt lat="45.02893" lon="0.71975">
        <ele>98.9</ele>
        <time>1970-01-01T02:11:21.000Z</time>
      </trkpt>
      <trkpt lat="45.02889" lon="0.71978">
        <ele>98.9</ele>
        <time>1970-01-01T02:11:22.000Z</time>
      </trkpt>
      <trkpt lat="45.02885" lon="0.71981">
        <ele>98.9</ele>
        <time>1970-01-01T02:11:23.000Z</time>
      </trkpt>
      <trkpt lat="45.0288" lon="0.71984">
        <ele>98.9</ele>
        <time>1970-01-01T02:11:24.000Z</time>
      </trkpt>
      <trkpt lat="45.02876" lon="0.71985">
        <ele>98.9</ele>
        <time>1970-01-01T02:11:25.000Z</time>
      </trkpt>
      <trkpt lat="45.02871" lon="0.71986">
        <ele>98.9</ele>
        <time>1970-01-01T02:11:26.000Z</time>
      </trkpt>
      <trkpt lat="45.02866" lon="0.71986">
        <ele>98.9</ele>
        <time>1970-01-01T02:11:27.000Z</time>
      </trkpt>
      <trkpt lat="45.02861" lon="0.71985">
        <ele>97.8</ele>
        <time>1970-01-01T02:11:28.000Z</time>
      </trkpt>
      <trkpt lat="45.02856" lon="0.71982">
        <ele>97.8</ele>
        <time>1970-01-01T02:11:29.000Z</time>
      </trkpt>
      <trkpt lat="45.02852" lon="0.71978">
        <ele>97.8</ele>
        <time>1970-01-01T02:11:30.000Z</time>
      </trkpt>
      <trkpt lat="45.02847" lon="0.71973">
        <ele>97.8</ele>
        <time>1970-01-01T02:11:31.000Z</time>
      </trkpt>
      <trkpt lat="45.02843" lon="0.71968">
        <ele>97.8</ele>
        <time>1970-01-01T02:11:32.000Z</time>
      </trkpt>
      <trkpt lat="45.0284" lon="0.71963">
        <ele>97.8</ele>
        <time>1970-01-01T02:11:33.000Z</time>
      </trkpt>
      <trkpt lat="45.02836" lon="0.71958">
        <ele>97.8</ele>
        <time>1970-01-01T02:11:34.000Z</time>
      </trkpt>
      <trkpt lat="45.02832" lon="0.71952">
        <ele>97.8</ele>
        <time>1970-01-01T02:11:35.000Z</time>
      </trkpt>
      <trkpt lat="45.02828" lon="0.71947">
        <ele>97.8</ele>
        <time>1970-01-01T02:11:36.000Z</time>
      </trkpt>
      <trkpt lat="45.02824" lon="0.71941">
        <ele>97.8</ele>
        <time>1970-01-01T02:11:37.000Z</time>
      </trkpt>
      <trkpt lat="45.0282" lon="0.71935">
        <ele>97.8</ele>
        <time>1970-01-01T02:11:38.000Z</time>
      </trkpt>
    </trkseg>
  </trk>
</gpx>